<?xml version="1.0" encoding="UTF-8" standalone="no" ?>
  <gpx version="1.0" creator="Loctome.com">
  <metadata>
  <link href="https://play.google.com/store/apps/details?id=com.loctome.app.loctome">
      <text>Loctome Live Track GPS</text>
  </link>
  <desc>File created by Loctome Android Client Spring Edition</desc>
  <time>2017-03-19T13:59:55Z</time>
  </metadata>
  <trk>
    <name>2017-03-19T13:59:55Z</name>
    <trkseg>
      <trkpt lat="43.00453691" lon="-2.42196034"><ele>951</ele><speed>0.00</speed><time>2017-03-19T13:59:56Z</time><pdop>3.0</pdop><geoidheight>0.00</geoidheight><course>0.0</course><type>1</type></trkpt>
      <trkpt lat="43.00449729" lon="-2.42198693"><ele>947</ele><speed>0.00</speed><time>2017-03-19T14:00:56Z</time><pdop>3.0</pdop><geoidheight>0.00</geoidheight><course>0.0</course><type>1</type></trkpt>
      <trkpt lat="43.00450998" lon="-2.42199161"><ele>948</ele><speed>0.00</speed><time>2017-03-19T14:01:56Z</time><pdop>3.0</pdop><geoidheight>0.00</geoidheight><course>0.0</course><type>1</type></trkpt>
      <trkpt lat="43.00452435" lon="-2.4219473"><ele>951</ele><speed>0.00</speed><time>2017-03-19T14:02:56Z</time><pdop>3.0</pdop><geoidheight>0.00</geoidheight><course>0.0</course><type>1</type></trkpt>
      <trkpt lat="43.00454458" lon="-2.42195231"><ele>950</ele><speed>0.00</speed><time>2017-03-19T14:03:56Z</time><pdop>3.0</pdop><geoidheight>0.00</geoidheight><course>0.0</course><type>1</type></trkpt>
      <trkpt lat="43.00454554" lon="-2.42196563"><ele>949</ele><speed>0.00</speed><time>2017-03-19T14:04:56Z</time><pdop>3.0</pdop><geoidheight>0.00</geoidheight><course>0.0</course><type>1</type></trkpt>
      <trkpt lat="43.00455004" lon="-2.42197408"><ele>950</ele><speed>0.36</speed><time>2017-03-19T14:05:56Z</time><pdop>3.0</pdop><geoidheight>0.00</geoidheight><course>289.7</course><type>1</type></trkpt>
      <trkpt lat="43.00455899" lon="-2.42198374"><ele>951</ele><speed>0.00</speed><time>2017-03-19T14:06:56Z</time><pdop>3.0</pdop><geoidheight>0.00</geoidheight><course>0.0</course><type>1</type></trkpt>
      <trkpt lat="43.00454311" lon="-2.4219662"><ele>950</ele><speed>0.00</speed><time>2017-03-19T14:07:56Z</time><pdop>3.0</pdop><geoidheight>0.00</geoidheight><course>0.0</course><type>1</type></trkpt>
      <trkpt lat="43.00451054" lon="-2.42189949"><ele>952</ele><speed>1.32</speed><time>2017-03-19T14:08:54Z</time><pdop>3.0</pdop><geoidheight>0.00</geoidheight><course>125.6</course><type>1</type></trkpt>
      <trkpt lat="43.00452141" lon="-2.42182241"><ele>951</ele><speed>1.18</speed><time>2017-03-19T14:09:04Z</time><pdop>3.0</pdop><geoidheight>0.00</geoidheight><course>89.6</course><type>1</type></trkpt>
      <trkpt lat="43.00456799" lon="-2.42178138"><ele>949</ele><speed>0.44</speed><time>2017-03-19T14:09:23Z</time><pdop>3.0</pdop><geoidheight>0.00</geoidheight><course>102.8</course><type>1</type></trkpt>
      <trkpt lat="43.00461062" lon="-2.4218005"><ele>947</ele><speed>0.00</speed><time>2017-03-19T14:10:23Z</time><pdop>3.0</pdop><geoidheight>0.00</geoidheight><course>0.0</course><type>1</type></trkpt>
      <trkpt lat="43.00468389" lon="-2.42176158"><ele>946</ele><speed>4.07</speed><time>2017-03-19T14:10:39Z</time><pdop>3.0</pdop><geoidheight>0.00</geoidheight><course>14.3</course><type>1</type></trkpt>
      <trkpt lat="43.00474404" lon="-2.42175668"><ele>943</ele><speed>3.87</speed><time>2017-03-19T14:10:41Z</time><pdop>3.0</pdop><geoidheight>0.00</geoidheight><course>3.5</course><type>1</type></trkpt>
      <trkpt lat="43.00476778" lon="-2.42186969"><ele>944</ele><speed>4.50</speed><time>2017-03-19T14:10:43Z</time><pdop>3.0</pdop><geoidheight>0.00</geoidheight><course>281.4</course><type>1</type></trkpt>
      <trkpt lat="43.00474806" lon="-2.42194808"><ele>943</ele><speed>6.10</speed><time>2017-03-19T14:10:44Z</time><pdop>3.0</pdop><geoidheight>0.00</geoidheight><course>257.8</course><type>1</type></trkpt>
      <trkpt lat="43.00472109" lon="-2.42204173"><ele>944</ele><speed>8.03</speed><time>2017-03-19T14:10:45Z</time><pdop>3.0</pdop><geoidheight>0.00</geoidheight><course>249.6</course><type>1</type></trkpt>
      <trkpt lat="43.00469116" lon="-2.42211525"><ele>945</ele><speed>7.42</speed><time>2017-03-19T14:10:46Z</time><pdop>3.0</pdop><geoidheight>0.00</geoidheight><course>245.5</course><type>1</type></trkpt>
      <trkpt lat="43.00466918" lon="-2.42219656"><ele>946</ele><speed>6.67</speed><time>2017-03-19T14:10:47Z</time><pdop>3.0</pdop><geoidheight>0.00</geoidheight><course>251.8</course><type>1</type></trkpt>
      <trkpt lat="43.00466232" lon="-2.42230072"><ele>947</ele><speed>3.85</speed><time>2017-03-19T14:10:49Z</time><pdop>3.0</pdop><geoidheight>0.00</geoidheight><course>274.9</course><type>1</type></trkpt>
      <trkpt lat="43.00465618" lon="-2.42221635"><ele>950</ele><speed>4.64</speed><time>2017-03-19T14:10:52Z</time><pdop>3.0</pdop><geoidheight>0.00</geoidheight><course>104.9</course><type>1</type></trkpt>
      <trkpt lat="43.00461969" lon="-2.4221456"><ele>952</ele><speed>6.32</speed><time>2017-03-19T14:10:53Z</time><pdop>3.0</pdop><geoidheight>0.00</geoidheight><course>121.7</course><type>1</type></trkpt>
      <trkpt lat="43.00459083" lon="-2.42208329"><ele>953</ele><speed>6.78</speed><time>2017-03-19T14:10:54Z</time><pdop>3.0</pdop><geoidheight>0.00</geoidheight><course>123.5</course><type>1</type></trkpt>
      <trkpt lat="43.00456735" lon="-2.42200147"><ele>954</ele><speed>6.31</speed><time>2017-03-19T14:10:55Z</time><pdop>3.0</pdop><geoidheight>0.00</geoidheight><course>118.7</course><type>1</type></trkpt>
      <trkpt lat="43.0045449" lon="-2.42187378"><ele>957</ele><speed>5.02</speed><time>2017-03-19T14:10:57Z</time><pdop>3.0</pdop><geoidheight>0.00</geoidheight><course>108.2</course><type>1</type></trkpt>
      <trkpt lat="43.00453113" lon="-2.42177495"><ele>958</ele><speed>4.07</speed><time>2017-03-19T14:10:59Z</time><pdop>5.0</pdop><geoidheight>0.00</geoidheight><course>105.1</course><type>1</type></trkpt>
      <trkpt lat="43.00454771" lon="-2.4218735"><ele>959</ele><speed>1.15</speed><time>2017-03-19T14:11:00Z</time><pdop>3.0</pdop><geoidheight>0.00</geoidheight><course>275.8</course><type>1</type></trkpt>
      <trkpt lat="43.00458414" lon="-2.42195469"><ele>960</ele><speed>3.39</speed><time>2017-03-19T14:11:03Z</time><pdop>4.0</pdop><geoidheight>0.00</geoidheight><course>301.3</course><type>1</type></trkpt>
      <trkpt lat="43.00461702" lon="-2.4221152"><ele>962</ele><speed>4.76</speed><time>2017-03-19T14:11:05Z</time><pdop>4.0</pdop><geoidheight>0.00</geoidheight><course>280.6</course><type>1</type></trkpt>
      <trkpt lat="43.00461926" lon="-2.42222858"><ele>964</ele><speed>2.67</speed><time>2017-03-19T14:11:08Z</time><pdop>5.0</pdop><geoidheight>0.00</geoidheight><course>286.4</course><type>1</type></trkpt>
      <trkpt lat="43.00466322" lon="-2.42212718"><ele>962</ele><speed>3.54</speed><time>2017-03-19T14:11:12Z</time><pdop>3.0</pdop><geoidheight>0.00</geoidheight><course>64.8</course><type>1</type></trkpt>
      <trkpt lat="43.00463119" lon="-2.42203787"><ele>962</ele><speed>6.46</speed><time>2017-03-19T14:11:13Z</time><pdop>3.0</pdop><geoidheight>0.00</geoidheight><course>109.9</course><type>1</type></trkpt>
      <trkpt lat="43.00459299" lon="-2.42196714"><ele>961</ele><speed>7.37</speed><time>2017-03-19T14:11:14Z</time><pdop>3.0</pdop><geoidheight>0.00</geoidheight><course>120.6</course><type>1</type></trkpt>
      <trkpt lat="43.00455605" lon="-2.42188614"><ele>960</ele><speed>7.86</speed><time>2017-03-19T14:11:15Z</time><pdop>3.0</pdop><geoidheight>0.00</geoidheight><course>123.0</course><type>1</type></trkpt>
      <trkpt lat="43.00452628" lon="-2.42179746"><ele>960</ele><speed>7.98</speed><time>2017-03-19T14:11:16Z</time><pdop>3.0</pdop><geoidheight>0.00</geoidheight><course>121.7</course><type>1</type></trkpt>
      <trkpt lat="43.0044885" lon="-2.42171206"><ele>960</ele><speed>8.68</speed><time>2017-03-19T14:11:17Z</time><pdop>3.0</pdop><geoidheight>0.00</geoidheight><course>123.9</course><type>1</type></trkpt>
      <trkpt lat="43.00443599" lon="-2.42162185"><ele>960</ele><speed>9.42</speed><time>2017-03-19T14:11:18Z</time><pdop>3.0</pdop><geoidheight>0.00</geoidheight><course>127.5</course><type>1</type></trkpt>
      <trkpt lat="43.00438091" lon="-2.421525"><ele>960</ele><speed>10.24</speed><time>2017-03-19T14:11:19Z</time><pdop>3.0</pdop><geoidheight>0.00</geoidheight><course>129.8</course><type>1</type></trkpt>
      <trkpt lat="43.00432311" lon="-2.42143857"><ele>961</ele><speed>9.86</speed><time>2017-03-19T14:11:20Z</time><pdop>3.0</pdop><geoidheight>0.00</geoidheight><course>132.9</course><type>1</type></trkpt>
      <trkpt lat="43.00426803" lon="-2.42134714"><ele>961</ele><speed>9.63</speed><time>2017-03-19T14:11:21Z</time><pdop>3.0</pdop><geoidheight>0.00</geoidheight><course>133.5</course><type>1</type></trkpt>
      <trkpt lat="43.00421381" lon="-2.42126355"><ele>962</ele><speed>9.15</speed><time>2017-03-19T14:11:22Z</time><pdop>3.0</pdop><geoidheight>0.00</geoidheight><course>132.1</course><type>1</type></trkpt>
      <trkpt lat="43.00416738" lon="-2.4211728"><ele>962</ele><speed>8.70</speed><time>2017-03-19T14:11:23Z</time><pdop>3.0</pdop><geoidheight>0.00</geoidheight><course>126.8</course><type>1</type></trkpt>
      <trkpt lat="43.00413483" lon="-2.4210856"><ele>963</ele><speed>8.19</speed><time>2017-03-19T14:11:24Z</time><pdop>3.0</pdop><geoidheight>0.00</geoidheight><course>119.7</course><type>1</type></trkpt>
      <trkpt lat="43.00410881" lon="-2.42099541"><ele>964</ele><speed>7.81</speed><time>2017-03-19T14:11:25Z</time><pdop>3.0</pdop><geoidheight>0.00</geoidheight><course>111.8</course><type>1</type></trkpt>
      <trkpt lat="43.00409687" lon="-2.42091217"><ele>966</ele><speed>6.99</speed><time>2017-03-19T14:11:26Z</time><pdop>3.0</pdop><geoidheight>0.00</geoidheight><course>103.2</course><type>1</type></trkpt>
      <trkpt lat="43.0040826" lon="-2.42078118"><ele>969</ele><speed>5.23</speed><time>2017-03-19T14:11:28Z</time><pdop>3.0</pdop><geoidheight>0.00</geoidheight><course>98.2</course><type>1</type></trkpt>
      <trkpt lat="43.00406466" lon="-2.42067371"><ele>970</ele><speed>4.83</speed><time>2017-03-19T14:11:30Z</time><pdop>3.0</pdop><geoidheight>0.00</geoidheight><course>98.6</course><type>1</type></trkpt>
      <trkpt lat="43.00405993" lon="-2.42054283"><ele>970</ele><speed>5.22</speed><time>2017-03-19T14:11:32Z</time><pdop>3.0</pdop><geoidheight>0.00</geoidheight><course>90.4</course><type>1</type></trkpt>
      <trkpt lat="43.00406289" lon="-2.4204601"><ele>970</ele><speed>6.32</speed><time>2017-03-19T14:11:33Z</time><pdop>3.0</pdop><geoidheight>0.00</geoidheight><course>90.7</course><type>1</type></trkpt>
      <trkpt lat="43.00404408" lon="-2.42030772"><ele>970</ele><speed>6.83</speed><time>2017-03-19T14:11:35Z</time><pdop>3.0</pdop><geoidheight>0.00</geoidheight><course>104.8</course><type>1</type></trkpt>
      <trkpt lat="43.00402796" lon="-2.42020614"><ele>970</ele><speed>8.03</speed><time>2017-03-19T14:11:36Z</time><pdop>3.0</pdop><geoidheight>0.00</geoidheight><course>102.7</course><type>1</type></trkpt>
      <trkpt lat="43.00400135" lon="-2.42013424"><ele>970</ele><speed>6.58</speed><time>2017-03-19T14:11:37Z</time><pdop>3.0</pdop><geoidheight>0.00</geoidheight><course>108.8</course><type>1</type></trkpt>
      <trkpt lat="43.00398229" lon="-2.42005504"><ele>970</ele><speed>6.52</speed><time>2017-03-19T14:11:38Z</time><pdop>3.0</pdop><geoidheight>0.00</geoidheight><course>107.6</course><type>1</type></trkpt>
      <trkpt lat="43.00396699" lon="-2.41998025"><ele>970</ele><speed>6.65</speed><time>2017-03-19T14:11:39Z</time><pdop>3.0</pdop><geoidheight>0.00</geoidheight><course>106.7</course><type>1</type></trkpt>
      <trkpt lat="43.00395584" lon="-2.41988196"><ele>970</ele><speed>7.17</speed><time>2017-03-19T14:11:40Z</time><pdop>3.0</pdop><geoidheight>0.00</geoidheight><course>104.6</course><type>1</type></trkpt>
      <trkpt lat="43.00394653" lon="-2.41978938"><ele>970</ele><speed>7.72</speed><time>2017-03-19T14:11:41Z</time><pdop>3.0</pdop><geoidheight>0.00</geoidheight><course>100.4</course><type>1</type></trkpt>
      <trkpt lat="43.00395058" lon="-2.41969335"><ele>974</ele><speed>7.20</speed><time>2017-03-19T14:11:42Z</time><pdop>3.0</pdop><geoidheight>0.00</geoidheight><course>92.9</course><type>1</type></trkpt>
      <trkpt lat="43.00397383" lon="-2.4195616"><ele>977</ele><speed>5.12</speed><time>2017-03-19T14:11:44Z</time><pdop>3.0</pdop><geoidheight>0.00</geoidheight><course>70.9</course><type>1</type></trkpt>
      <trkpt lat="43.0040215" lon="-2.41945043"><ele>979</ele><speed>5.25</speed><time>2017-03-19T14:11:46Z</time><pdop>3.0</pdop><geoidheight>0.00</geoidheight><course>59.8</course><type>1</type></trkpt>
      <trkpt lat="43.00403167" lon="-2.41932401"><ele>983</ele><speed>4.86</speed><time>2017-03-19T14:11:48Z</time><pdop>3.0</pdop><geoidheight>0.00</geoidheight><course>86.4</course><type>1</type></trkpt>
      <trkpt lat="43.00400953" lon="-2.41918725"><ele>984</ele><speed>6.06</speed><time>2017-03-19T14:11:50Z</time><pdop>3.0</pdop><geoidheight>0.00</geoidheight><course>102.9</course><type>1</type></trkpt>
      <trkpt lat="43.00399164" lon="-2.41909329"><ele>985</ele><speed>7.16</speed><time>2017-03-19T14:11:51Z</time><pdop>3.0</pdop><geoidheight>0.00</geoidheight><course>104.8</course><type>1</type></trkpt>
      <trkpt lat="43.00397302" lon="-2.41900123"><ele>986</ele><speed>7.55</speed><time>2017-03-19T14:11:52Z</time><pdop>3.0</pdop><geoidheight>0.00</geoidheight><course>105.2</course><type>1</type></trkpt>
      <trkpt lat="43.00395722" lon="-2.41891259"><ele>989</ele><speed>7.53</speed><time>2017-03-19T14:11:53Z</time><pdop>3.0</pdop><geoidheight>0.00</geoidheight><course>103.3</course><type>1</type></trkpt>
      <trkpt lat="43.00393852" lon="-2.41882835"><ele>991</ele><speed>7.10</speed><time>2017-03-19T14:11:54Z</time><pdop>3.0</pdop><geoidheight>0.00</geoidheight><course>106.2</course><type>1</type></trkpt>
      <trkpt lat="43.00391546" lon="-2.41874584"><ele>992</ele><speed>6.62</speed><time>2017-03-19T14:11:55Z</time><pdop>3.0</pdop><geoidheight>0.00</geoidheight><course>108.7</course><type>1</type></trkpt>
      <trkpt lat="43.00389634" lon="-2.41866838"><ele>993</ele><speed>6.73</speed><time>2017-03-19T14:11:56Z</time><pdop>3.0</pdop><geoidheight>0.00</geoidheight><course>108.7</course><type>1</type></trkpt>
      <trkpt lat="43.00388719" lon="-2.41858072"><ele>994</ele><speed>7.18</speed><time>2017-03-19T14:11:57Z</time><pdop>3.0</pdop><geoidheight>0.00</geoidheight><course>103.8</course><type>1</type></trkpt>
      <trkpt lat="43.00387764" lon="-2.41849738"><ele>995</ele><speed>7.09</speed><time>2017-03-19T14:11:58Z</time><pdop>3.0</pdop><geoidheight>0.00</geoidheight><course>98.5</course><type>1</type></trkpt>
      <trkpt lat="43.00387559" lon="-2.41841632"><ele>998</ele><speed>6.56</speed><time>2017-03-19T14:11:59Z</time><pdop>3.0</pdop><geoidheight>0.00</geoidheight><course>92.9</course><type>1</type></trkpt>
      <trkpt lat="43.00387653" lon="-2.41834202"><ele>998</ele><speed>6.12</speed><time>2017-03-19T14:12:00Z</time><pdop>3.0</pdop><geoidheight>0.00</geoidheight><course>89.4</course><type>1</type></trkpt>
      <trkpt lat="43.00387871" lon="-2.41826316"><ele>999</ele><speed>6.38</speed><time>2017-03-19T14:12:01Z</time><pdop>3.0</pdop><geoidheight>0.00</geoidheight><course>89.6</course><type>1</type></trkpt>
      <trkpt lat="43.0038846" lon="-2.41817417"><ele>1001</ele><speed>6.34</speed><time>2017-03-19T14:12:02Z</time><pdop>3.0</pdop><geoidheight>0.00</geoidheight><course>95.7</course><type>1</type></trkpt>
      <trkpt lat="43.00386216" lon="-2.41802571"><ele>1001</ele><speed>6.87</speed><time>2017-03-19T14:12:04Z</time><pdop>3.0</pdop><geoidheight>0.00</geoidheight><course>104.6</course><type>1</type></trkpt>
      <trkpt lat="43.00384749" lon="-2.41794175"><ele>1002</ele><speed>7.27</speed><time>2017-03-19T14:12:05Z</time><pdop>3.0</pdop><geoidheight>0.00</geoidheight><course>100.0</course><type>1</type></trkpt>
      <trkpt lat="43.0038416" lon="-2.417851"><ele>1003</ele><speed>7.83</speed><time>2017-03-19T14:12:06Z</time><pdop>3.0</pdop><geoidheight>0.00</geoidheight><course>97.6</course><type>1</type></trkpt>
      <trkpt lat="43.00382779" lon="-2.4177457"><ele>1004</ele><speed>8.56</speed><time>2017-03-19T14:12:07Z</time><pdop>3.0</pdop><geoidheight>0.00</geoidheight><course>99.4</course><type>1</type></trkpt>
      <trkpt lat="43.00381085" lon="-2.41763824"><ele>1007</ele><speed>8.89</speed><time>2017-03-19T14:12:08Z</time><pdop>3.0</pdop><geoidheight>0.00</geoidheight><course>102.3</course><type>1</type></trkpt>
      <trkpt lat="43.00379394" lon="-2.41752989"><ele>1010</ele><speed>8.93</speed><time>2017-03-19T14:12:09Z</time><pdop>3.0</pdop><geoidheight>0.00</geoidheight><course>103.2</course><type>1</type></trkpt>
      <trkpt lat="43.00377921" lon="-2.41742939"><ele>1012</ele><speed>8.38</speed><time>2017-03-19T14:12:10Z</time><pdop>3.0</pdop><geoidheight>0.00</geoidheight><course>102.5</course><type>1</type></trkpt>
      <trkpt lat="43.00376607" lon="-2.41733613"><ele>1014</ele><speed>7.73</speed><time>2017-03-19T14:12:11Z</time><pdop>3.0</pdop><geoidheight>0.00</geoidheight><course>99.9</course><type>1</type></trkpt>
      <trkpt lat="43.00375563" lon="-2.41724352"><ele>1015</ele><speed>7.33</speed><time>2017-03-19T14:12:12Z</time><pdop>3.0</pdop><geoidheight>0.00</geoidheight><course>99.2</course><type>1</type></trkpt>
      <trkpt lat="43.00374975" lon="-2.41716912"><ele>1016</ele><speed>6.77</speed><time>2017-03-19T14:12:13Z</time><pdop>3.0</pdop><geoidheight>0.00</geoidheight><course>94.8</course><type>1</type></trkpt>
      <trkpt lat="43.0037536" lon="-2.41709088"><ele>1017</ele><speed>6.44</speed><time>2017-03-19T14:12:14Z</time><pdop>3.0</pdop><geoidheight>0.00</geoidheight><course>87.0</course><type>1</type></trkpt>
      <trkpt lat="43.00383047" lon="-2.41701538"><ele>1018</ele><speed>4.18</speed><time>2017-03-19T14:12:16Z</time><pdop>3.0</pdop><geoidheight>0.00</geoidheight><course>42.7</course><type>1</type></trkpt>
      <trkpt lat="43.00388476" lon="-2.41711226"><ele>1019</ele><speed>4.15</speed><time>2017-03-19T14:12:18Z</time><pdop>3.0</pdop><geoidheight>0.00</geoidheight><course>296.6</course><type>1</type></trkpt>
      <trkpt lat="43.00390391" lon="-2.41725034"><ele>1021</ele><speed>5.77</speed><time>2017-03-19T14:12:20Z</time><pdop>3.0</pdop><geoidheight>0.00</geoidheight><course>279.9</course><type>1</type></trkpt>
      <trkpt lat="43.00389635" lon="-2.41739293"><ele>1022</ele><speed>5.94</speed><time>2017-03-19T14:12:22Z</time><pdop>3.0</pdop><geoidheight>0.00</geoidheight><course>263.0</course><type>1</type></trkpt>
      <trkpt lat="43.00389148" lon="-2.41747131"><ele>1022</ele><speed>6.30</speed><time>2017-03-19T14:12:23Z</time><pdop>3.0</pdop><geoidheight>0.00</geoidheight><course>266.9</course><type>1</type></trkpt>
      <trkpt lat="43.00393906" lon="-2.41760282"><ele>1022</ele><speed>6.30</speed><time>2017-03-19T14:12:25Z</time><pdop>3.0</pdop><geoidheight>0.00</geoidheight><course>304.1</course><type>1</type></trkpt>
      <trkpt lat="43.00401176" lon="-2.41768918"><ele>1022</ele><speed>4.98</speed><time>2017-03-19T14:12:27Z</time><pdop>5.0</pdop><geoidheight>0.00</geoidheight><course>315.0</course><type>1</type></trkpt>
      <trkpt lat="43.00404543" lon="-2.41757718"><ele>1025</ele><speed>4.64</speed><time>2017-03-19T14:12:28Z</time><pdop>4.0</pdop><geoidheight>0.00</geoidheight><course>42.2</course><type>1</type></trkpt>
      <trkpt lat="43.00406368" lon="-2.41746744"><ele>1029</ele><speed>5.34</speed><time>2017-03-19T14:12:30Z</time><pdop>3.0</pdop><geoidheight>0.00</geoidheight><course>79.8</course><type>1</type></trkpt>
      <trkpt lat="43.00406984" lon="-2.41731664"><ele>1030</ele><speed>6.34</speed><time>2017-03-19T14:12:32Z</time><pdop>3.0</pdop><geoidheight>0.00</geoidheight><course>92.3</course><type>1</type></trkpt>
      <trkpt lat="43.00406526" lon="-2.41722705"><ele>1032</ele><speed>6.90</speed><time>2017-03-19T14:12:33Z</time><pdop>3.0</pdop><geoidheight>0.00</geoidheight><course>94.3</course><type>1</type></trkpt>
      <trkpt lat="43.00405359" lon="-2.4171332"><ele>1033</ele><speed>7.52</speed><time>2017-03-19T14:12:34Z</time><pdop>3.0</pdop><geoidheight>0.00</geoidheight><course>98.1</course><type>1</type></trkpt>
      <trkpt lat="43.0040333" lon="-2.41703288"><ele>1034</ele><speed>8.20</speed><time>2017-03-19T14:12:35Z</time><pdop>3.0</pdop><geoidheight>0.00</geoidheight><course>104.8</course><type>1</type></trkpt>
      <trkpt lat="43.00399993" lon="-2.41693407"><ele>1036</ele><speed>8.48</speed><time>2017-03-19T14:12:36Z</time><pdop>3.0</pdop><geoidheight>0.00</geoidheight><course>109.9</course><type>1</type></trkpt>
      <trkpt lat="43.00396697" lon="-2.41684413"><ele>1037</ele><speed>8.33</speed><time>2017-03-19T14:12:37Z</time><pdop>3.0</pdop><geoidheight>0.00</geoidheight><course>115.2</course><type>1</type></trkpt>
      <trkpt lat="43.00393506" lon="-2.41674064"><ele>1038</ele><speed>9.19</speed><time>2017-03-19T14:12:38Z</time><pdop>3.0</pdop><geoidheight>0.00</geoidheight><course>112.9</course><type>1</type></trkpt>
      <trkpt lat="43.00391055" lon="-2.41663358"><ele>1038</ele><speed>9.16</speed><time>2017-03-19T14:12:39Z</time><pdop>4.0</pdop><geoidheight>0.00</geoidheight><course>108.6</course><type>1</type></trkpt>
      <trkpt lat="43.00387314" lon="-2.41654096"><ele>1039</ele><speed>9.29</speed><time>2017-03-19T14:12:40Z</time><pdop>3.0</pdop><geoidheight>0.00</geoidheight><course>114.2</course><type>1</type></trkpt>
      <trkpt lat="43.00383192" lon="-2.41644396"><ele>1041</ele><speed>9.37</speed><time>2017-03-19T14:12:41Z</time><pdop>3.0</pdop><geoidheight>0.00</geoidheight><course>117.6</course><type>1</type></trkpt>
      <trkpt lat="43.00378538" lon="-2.41633873"><ele>1042</ele><speed>9.74</speed><time>2017-03-19T14:12:42Z</time><pdop>3.0</pdop><geoidheight>0.00</geoidheight><course>119.9</course><type>1</type></trkpt>
      <trkpt lat="43.00374091" lon="-2.41623098"><ele>1044</ele><speed>9.93</speed><time>2017-03-19T14:12:43Z</time><pdop>3.0</pdop><geoidheight>0.00</geoidheight><course>120.1</course><type>1</type></trkpt>
      <trkpt lat="43.0036957" lon="-2.41612855"><ele>1045</ele><speed>9.81</speed><time>2017-03-19T14:12:44Z</time><pdop>3.0</pdop><geoidheight>0.00</geoidheight><course>120.2</course><type>1</type></trkpt>
      <trkpt lat="43.00365479" lon="-2.41602883"><ele>1047</ele><speed>9.29</speed><time>2017-03-19T14:12:45Z</time><pdop>3.0</pdop><geoidheight>0.00</geoidheight><course>121.0</course><type>1</type></trkpt>
      <trkpt lat="43.0036129" lon="-2.41593558"><ele>1048</ele><speed>8.80</speed><time>2017-03-19T14:12:46Z</time><pdop>3.0</pdop><geoidheight>0.00</geoidheight><course>118.7</course><type>1</type></trkpt>
      <trkpt lat="43.00358508" lon="-2.41583704"><ele>1048</ele><speed>8.42</speed><time>2017-03-19T14:12:47Z</time><pdop>3.0</pdop><geoidheight>0.00</geoidheight><course>113.5</course><type>1</type></trkpt>
      <trkpt lat="43.0035833" lon="-2.41570614"><ele>1049</ele><speed>8.73</speed><time>2017-03-19T14:12:48Z</time><pdop>3.0</pdop><geoidheight>0.00</geoidheight><course>108.7</course><type>1</type></trkpt>
      <trkpt lat="43.00355519" lon="-2.41561171"><ele>1050</ele><speed>8.43</speed><time>2017-03-19T14:12:49Z</time><pdop>3.0</pdop><geoidheight>0.00</geoidheight><course>112.7</course><type>1</type></trkpt>
      <trkpt lat="43.00352727" lon="-2.41550613"><ele>1050</ele><speed>9.22</speed><time>2017-03-19T14:12:50Z</time><pdop>4.0</pdop><geoidheight>0.00</geoidheight><course>111.5</course><type>1</type></trkpt>
      <trkpt lat="43.00350421" lon="-2.41539915"><ele>1055</ele><speed>8.94</speed><time>2017-03-19T14:12:51Z</time><pdop>3.0</pdop><geoidheight>0.00</geoidheight><course>106.4</course><type>1</type></trkpt>
      <trkpt lat="43.00348283" lon="-2.41530199"><ele>1057</ele><speed>7.69</speed><time>2017-03-19T14:12:52Z</time><pdop>3.0</pdop><geoidheight>0.00</geoidheight><course>107.7</course><type>1</type></trkpt>
      <trkpt lat="43.0034589" lon="-2.41521828"><ele>1059</ele><speed>7.14</speed><time>2017-03-19T14:12:53Z</time><pdop>3.0</pdop><geoidheight>0.00</geoidheight><course>106.3</course><type>1</type></trkpt>
      <trkpt lat="43.00344051" lon="-2.41512894"><ele>1060</ele><speed>7.83</speed><time>2017-03-19T14:12:54Z</time><pdop>3.0</pdop><geoidheight>0.00</geoidheight><course>106.6</course><type>1</type></trkpt>
      <trkpt lat="43.00341008" lon="-2.41503266"><ele>1062</ele><speed>8.77</speed><time>2017-03-19T14:12:55Z</time><pdop>3.0</pdop><geoidheight>0.00</geoidheight><course>111.0</course><type>1</type></trkpt>
      <trkpt lat="43.00337577" lon="-2.4149389"><ele>1064</ele><speed>8.59</speed><time>2017-03-19T14:12:56Z</time><pdop>3.0</pdop><geoidheight>0.00</geoidheight><course>116.8</course><type>1</type></trkpt>
      <trkpt lat="43.00334629" lon="-2.41483575"><ele>1067</ele><speed>8.15</speed><time>2017-03-19T14:12:57Z</time><pdop>3.0</pdop><geoidheight>0.00</geoidheight><course>115.3</course><type>1</type></trkpt>
      <trkpt lat="43.00331998" lon="-2.41474476"><ele>1069</ele><speed>7.59</speed><time>2017-03-19T14:12:58Z</time><pdop>3.0</pdop><geoidheight>0.00</geoidheight><course>112.0</course><type>1</type></trkpt>
      <trkpt lat="43.00329702" lon="-2.41465814"><ele>1070</ele><speed>7.33</speed><time>2017-03-19T14:12:59Z</time><pdop>3.0</pdop><geoidheight>0.00</geoidheight><course>110.4</course><type>1</type></trkpt>
      <trkpt lat="43.00327186" lon="-2.41457687"><ele>1072</ele><speed>7.39</speed><time>2017-03-19T14:13:00Z</time><pdop>3.0</pdop><geoidheight>0.00</geoidheight><course>113.5</course><type>1</type></trkpt>
      <trkpt lat="43.00324195" lon="-2.41450282"><ele>1074</ele><speed>7.25</speed><time>2017-03-19T14:13:01Z</time><pdop>3.0</pdop><geoidheight>0.00</geoidheight><course>120.0</course><type>1</type></trkpt>
      <trkpt lat="43.00320296" lon="-2.41442854"><ele>1074</ele><speed>7.19</speed><time>2017-03-19T14:13:02Z</time><pdop>3.0</pdop><geoidheight>0.00</geoidheight><course>125.9</course><type>1</type></trkpt>
      <trkpt lat="43.00316928" lon="-2.41434457"><ele>1076</ele><speed>7.31</speed><time>2017-03-19T14:13:03Z</time><pdop>3.0</pdop><geoidheight>0.00</geoidheight><course>126.9</course><type>1</type></trkpt>
      <trkpt lat="43.00313565" lon="-2.41427638"><ele>1077</ele><speed>6.61</speed><time>2017-03-19T14:13:04Z</time><pdop>3.0</pdop><geoidheight>0.00</geoidheight><course>125.7</course><type>1</type></trkpt>
      <trkpt lat="43.00309331" lon="-2.41414785"><ele>1077</ele><speed>5.89</speed><time>2017-03-19T14:13:06Z</time><pdop>3.0</pdop><geoidheight>0.00</geoidheight><course>111.2</course><type>1</type></trkpt>
      <trkpt lat="43.00307559" lon="-2.41400994"><ele>1076</ele><speed>5.57</speed><time>2017-03-19T14:13:08Z</time><pdop>3.0</pdop><geoidheight>0.00</geoidheight><course>99.3</course><type>1</type></trkpt>
      <trkpt lat="43.00305848" lon="-2.41388862"><ele>1073</ele><speed>5.35</speed><time>2017-03-19T14:13:10Z</time><pdop>3.0</pdop><geoidheight>0.00</geoidheight><course>105.4</course><type>1</type></trkpt>
      <trkpt lat="43.00305816" lon="-2.41380707"><ele>1072</ele><speed>5.99</speed><time>2017-03-19T14:13:11Z</time><pdop>3.0</pdop><geoidheight>0.00</geoidheight><course>100.8</course><type>1</type></trkpt>
      <trkpt lat="43.00305205" lon="-2.41372772"><ele>1071</ele><speed>6.59</speed><time>2017-03-19T14:13:12Z</time><pdop>3.0</pdop><geoidheight>0.00</geoidheight><course>97.1</course><type>1</type></trkpt>
      <trkpt lat="43.00304007" lon="-2.41365078"><ele>1072</ele><speed>6.75</speed><time>2017-03-19T14:13:13Z</time><pdop>3.0</pdop><geoidheight>0.00</geoidheight><course>100.6</course><type>1</type></trkpt>
      <trkpt lat="43.00302379" lon="-2.41357285"><ele>1073</ele><speed>6.30</speed><time>2017-03-19T14:13:14Z</time><pdop>3.0</pdop><geoidheight>0.00</geoidheight><course>106.0</course><type>1</type></trkpt>
      <trkpt lat="43.00299966" lon="-2.41350654"><ele>1074</ele><speed>5.67</speed><time>2017-03-19T14:13:15Z</time><pdop>3.0</pdop><geoidheight>0.00</geoidheight><course>111.0</course><type>1</type></trkpt>
      <trkpt lat="43.00296015" lon="-2.41339078"><ele>1075</ele><speed>5.49</speed><time>2017-03-19T14:13:17Z</time><pdop>3.0</pdop><geoidheight>0.00</geoidheight><course>113.6</course><type>1</type></trkpt>
      <trkpt lat="43.00294129" lon="-2.41331367"><ele>1074</ele><speed>6.59</speed><time>2017-03-19T14:13:18Z</time><pdop>3.0</pdop><geoidheight>0.00</geoidheight><course>110.3</course><type>1</type></trkpt>
      <trkpt lat="43.00291385" lon="-2.41322663"><ele>1073</ele><speed>7.58</speed><time>2017-03-19T14:13:19Z</time><pdop>3.0</pdop><geoidheight>0.00</geoidheight><course>110.9</course><type>1</type></trkpt>
      <trkpt lat="43.00288861" lon="-2.4131353"><ele>1074</ele><speed>7.64</speed><time>2017-03-19T14:13:20Z</time><pdop>3.0</pdop><geoidheight>0.00</geoidheight><course>112.5</course><type>1</type></trkpt>
      <trkpt lat="43.00286177" lon="-2.41305522"><ele>1075</ele><speed>7.00</speed><time>2017-03-19T14:13:21Z</time><pdop>3.0</pdop><geoidheight>0.00</geoidheight><course>114.2</course><type>1</type></trkpt>
      <trkpt lat="43.00284449" lon="-2.41298306"><ele>1075</ele><speed>6.35</speed><time>2017-03-19T14:13:22Z</time><pdop>3.0</pdop><geoidheight>0.00</geoidheight><course>110.3</course><type>1</type></trkpt>
      <trkpt lat="43.00283252" lon="-2.41290941"><ele>1075</ele><speed>6.19</speed><time>2017-03-19T14:13:23Z</time><pdop>3.0</pdop><geoidheight>0.00</geoidheight><course>104.8</course><type>1</type></trkpt>
      <trkpt lat="43.00282457" lon="-2.41283119"><ele>1075</ele><speed>6.41</speed><time>2017-03-19T14:13:24Z</time><pdop>3.0</pdop><geoidheight>0.00</geoidheight><course>101.0</course><type>1</type></trkpt>
      <trkpt lat="43.00280862" lon="-2.41274663"><ele>1076</ele><speed>6.91</speed><time>2017-03-19T14:13:25Z</time><pdop>3.0</pdop><geoidheight>0.00</geoidheight><course>100.6</course><type>1</type></trkpt>
      <trkpt lat="43.00279528" lon="-2.41266115"><ele>1076</ele><speed>7.14</speed><time>2017-03-19T14:13:26Z</time><pdop>3.0</pdop><geoidheight>0.00</geoidheight><course>101.7</course><type>1</type></trkpt>
      <trkpt lat="43.00277884" lon="-2.41258379"><ele>1077</ele><speed>6.89</speed><time>2017-03-19T14:13:27Z</time><pdop>3.0</pdop><geoidheight>0.00</geoidheight><course>105.1</course><type>1</type></trkpt>
      <trkpt lat="43.00275871" lon="-2.41250638"><ele>1078</ele><speed>6.69</speed><time>2017-03-19T14:13:28Z</time><pdop>3.0</pdop><geoidheight>0.00</geoidheight><course>109.3</course><type>1</type></trkpt>
      <trkpt lat="43.00273237" lon="-2.41242732"><ele>1079</ele><speed>7.02</speed><time>2017-03-19T14:13:29Z</time><pdop>3.0</pdop><geoidheight>0.00</geoidheight><course>113.8</course><type>1</type></trkpt>
      <trkpt lat="43.00271238" lon="-2.41233724"><ele>1079</ele><speed>7.48</speed><time>2017-03-19T14:13:30Z</time><pdop>3.0</pdop><geoidheight>0.00</geoidheight><course>113.5</course><type>1</type></trkpt>
      <trkpt lat="43.00269313" lon="-2.41224286"><ele>1080</ele><speed>8.03</speed><time>2017-03-19T14:13:31Z</time><pdop>3.0</pdop><geoidheight>0.00</geoidheight><course>104.6</course><type>1</type></trkpt>
      <trkpt lat="43.00268788" lon="-2.41214886"><ele>1081</ele><speed>7.69</speed><time>2017-03-19T14:13:32Z</time><pdop>3.0</pdop><geoidheight>0.00</geoidheight><course>94.7</course><type>1</type></trkpt>
      <trkpt lat="43.00268444" lon="-2.41206935"><ele>1082</ele><speed>6.69</speed><time>2017-03-19T14:13:33Z</time><pdop>3.0</pdop><geoidheight>0.00</geoidheight><course>92.2</course><type>1</type></trkpt>
      <trkpt lat="43.00266672" lon="-2.4119613"><ele>1082</ele><speed>4.66</speed><time>2017-03-19T14:13:35Z</time><pdop>3.0</pdop><geoidheight>0.00</geoidheight><course>108.5</course><type>1</type></trkpt>
      <trkpt lat="43.00265171" lon="-2.41189051"><ele>1080</ele><speed>6.15</speed><time>2017-03-19T14:13:36Z</time><pdop>3.0</pdop><geoidheight>0.00</geoidheight><course>105.5</course><type>1</type></trkpt>
      <trkpt lat="43.00264959" lon="-2.41179396"><ele>1079</ele><speed>7.84</speed><time>2017-03-19T14:13:37Z</time><pdop>3.0</pdop><geoidheight>0.00</geoidheight><course>101.0</course><type>1</type></trkpt>
      <trkpt lat="43.00264471" lon="-2.41169254"><ele>1080</ele><speed>8.12</speed><time>2017-03-19T14:13:38Z</time><pdop>3.0</pdop><geoidheight>0.00</geoidheight><course>94.4</course><type>1</type></trkpt>
      <trkpt lat="43.0026801" lon="-2.41154502"><ele>1082</ele><speed>6.92</speed><time>2017-03-19T14:13:40Z</time><pdop>3.0</pdop><geoidheight>0.00</geoidheight><course>68.4</course><type>1</type></trkpt>
      <trkpt lat="43.00275862" lon="-2.41152755"><ele>1082</ele><speed>4.04</speed><time>2017-03-19T14:13:43Z</time><pdop>3.0</pdop><geoidheight>0.00</geoidheight><course>20.3</course><type>1</type></trkpt>
      <trkpt lat="43.00282937" lon="-2.41149392"><ele>1084</ele><speed>4.50</speed><time>2017-03-19T14:13:45Z</time><pdop>3.0</pdop><geoidheight>0.00</geoidheight><course>26.1</course><type>1</type></trkpt>
      <trkpt lat="43.00290016" lon="-2.41146727"><ele>1083</ele><speed>4.26</speed><time>2017-03-19T14:13:47Z</time><pdop>3.0</pdop><geoidheight>0.00</geoidheight><course>13.7</course><type>1</type></trkpt>
      <trkpt lat="43.00300519" lon="-2.41151493"><ele>1081</ele><speed>5.99</speed><time>2017-03-19T14:13:49Z</time><pdop>3.0</pdop><geoidheight>0.00</geoidheight><course>339.6</course><type>1</type></trkpt>
      <trkpt lat="43.0030892" lon="-2.41159438"><ele>1081</ele><speed>5.50</speed><time>2017-03-19T14:13:51Z</time><pdop>3.0</pdop><geoidheight>0.00</geoidheight><course>321.8</course><type>1</type></trkpt>
      <trkpt lat="43.00314454" lon="-2.41171072"><ele>1079</ele><speed>5.89</speed><time>2017-03-19T14:13:53Z</time><pdop>3.0</pdop><geoidheight>0.00</geoidheight><course>300.6</course><type>1</type></trkpt>
      <trkpt lat="43.00316513" lon="-2.41179823"><ele>1078</ele><speed>6.94</speed><time>2017-03-19T14:13:54Z</time><pdop>3.0</pdop><geoidheight>0.00</geoidheight><course>291.8</course><type>1</type></trkpt>
      <trkpt lat="43.0031845" lon="-2.41187873"><ele>1078</ele><speed>7.23</speed><time>2017-03-19T14:13:55Z</time><pdop>3.0</pdop><geoidheight>0.00</geoidheight><course>289.2</course><type>1</type></trkpt>
      <trkpt lat="43.00320426" lon="-2.41196285"><ele>1078</ele><speed>6.89</speed><time>2017-03-19T14:13:56Z</time><pdop>3.0</pdop><geoidheight>0.00</geoidheight><course>287.0</course><type>1</type></trkpt>
      <trkpt lat="43.00322726" lon="-2.41203453"><ele>1078</ele><speed>6.37</speed><time>2017-03-19T14:13:57Z</time><pdop>3.0</pdop><geoidheight>0.00</geoidheight><course>295.1</course><type>1</type></trkpt>
      <trkpt lat="43.0032651" lon="-2.41211218"><ele>1077</ele><speed>6.11</speed><time>2017-03-19T14:13:58Z</time><pdop>3.0</pdop><geoidheight>0.00</geoidheight><course>307.6</course><type>1</type></trkpt>
      <trkpt lat="43.00331014" lon="-2.41216291"><ele>1077</ele><speed>6.57</speed><time>2017-03-19T14:13:59Z</time><pdop>3.0</pdop><geoidheight>0.00</geoidheight><course>319.2</course><type>1</type></trkpt>
      <trkpt lat="43.00336307" lon="-2.41220621"><ele>1077</ele><speed>6.70</speed><time>2017-03-19T14:14:00Z</time><pdop>3.0</pdop><geoidheight>0.00</geoidheight><course>327.9</course><type>1</type></trkpt>
      <trkpt lat="43.00341858" lon="-2.41224052"><ele>1077</ele><speed>6.79</speed><time>2017-03-19T14:14:01Z</time><pdop>3.0</pdop><geoidheight>0.00</geoidheight><course>334.5</course><type>1</type></trkpt>
      <trkpt lat="43.00346977" lon="-2.41227242"><ele>1076</ele><speed>6.18</speed><time>2017-03-19T14:14:02Z</time><pdop>3.0</pdop><geoidheight>0.00</geoidheight><course>342.1</course><type>1</type></trkpt>
      <trkpt lat="43.0035583" lon="-2.4122589"><ele>1077</ele><speed>4.83</speed><time>2017-03-19T14:14:04Z</time><pdop>3.0</pdop><geoidheight>0.00</geoidheight><course>12.0</course><type>1</type></trkpt>
      <trkpt lat="43.00361749" lon="-2.41221418"><ele>1077</ele><speed>4.25</speed><time>2017-03-19T14:14:06Z</time><pdop>4.0</pdop><geoidheight>0.00</geoidheight><course>35.2</course><type>1</type></trkpt>
      <trkpt lat="43.00363596" lon="-2.41211867"><ele>1076</ele><speed>5.40</speed><time>2017-03-19T14:14:07Z</time><pdop>3.0</pdop><geoidheight>0.00</geoidheight><course>64.3</course><type>1</type></trkpt>
      <trkpt lat="43.00367014" lon="-2.41194148"><ele>1075</ele><speed>7.60</speed><time>2017-03-19T14:14:09Z</time><pdop>3.0</pdop><geoidheight>0.00</geoidheight><course>79.5</course><type>1</type></trkpt>
      <trkpt lat="43.00367162" lon="-2.41184528"><ele>1074</ele><speed>7.53</speed><time>2017-03-19T14:14:10Z</time><pdop>3.0</pdop><geoidheight>0.00</geoidheight><course>78.9</course><type>1</type></trkpt>
      <trkpt lat="43.00367845" lon="-2.41175353"><ele>1073</ele><speed>6.87</speed><time>2017-03-19T14:14:11Z</time><pdop>3.0</pdop><geoidheight>0.00</geoidheight><course>76.4</course><type>1</type></trkpt>
      <trkpt lat="43.00368936" lon="-2.4116653"><ele>1072</ele><speed>6.73</speed><time>2017-03-19T14:14:12Z</time><pdop>3.0</pdop><geoidheight>0.00</geoidheight><course>75.1</course><type>1</type></trkpt>
      <trkpt lat="43.00369766" lon="-2.41158174"><ele>1072</ele><speed>6.86</speed><time>2017-03-19T14:14:13Z</time><pdop>3.0</pdop><geoidheight>0.00</geoidheight><course>79.5</course><type>1</type></trkpt>
      <trkpt lat="43.00370356" lon="-2.41149269"><ele>1072</ele><speed>7.08</speed><time>2017-03-19T14:14:14Z</time><pdop>3.0</pdop><geoidheight>0.00</geoidheight><course>84.3</course><type>1</type></trkpt>
      <trkpt lat="43.00370363" lon="-2.4114009"><ele>1072</ele><speed>7.12</speed><time>2017-03-19T14:14:15Z</time><pdop>3.0</pdop><geoidheight>0.00</geoidheight><course>88.9</course><type>1</type></trkpt>
      <trkpt lat="43.003701" lon="-2.4113051"><ele>1070</ele><speed>7.77</speed><time>2017-03-19T14:14:16Z</time><pdop>3.0</pdop><geoidheight>0.00</geoidheight><course>91.7</course><type>1</type></trkpt>
      <trkpt lat="43.0036957" lon="-2.41119941"><ele>1070</ele><speed>8.58</speed><time>2017-03-19T14:14:17Z</time><pdop>3.0</pdop><geoidheight>0.00</geoidheight><course>94.1</course><type>1</type></trkpt>
      <trkpt lat="43.00368258" lon="-2.41108844"><ele>1069</ele><speed>9.15</speed><time>2017-03-19T14:14:18Z</time><pdop>3.0</pdop><geoidheight>0.00</geoidheight><course>98.5</course><type>1</type></trkpt>
      <trkpt lat="43.00365573" lon="-2.41098213"><ele>1068</ele><speed>9.26</speed><time>2017-03-19T14:14:19Z</time><pdop>3.0</pdop><geoidheight>0.00</geoidheight><course>106.3</course><type>1</type></trkpt>
      <trkpt lat="43.00362216" lon="-2.41087989"><ele>1067</ele><speed>9.15</speed><time>2017-03-19T14:14:20Z</time><pdop>3.0</pdop><geoidheight>0.00</geoidheight><course>113.5</course><type>1</type></trkpt>
      <trkpt lat="43.00358305" lon="-2.41078025"><ele>1067</ele><speed>9.21</speed><time>2017-03-19T14:14:21Z</time><pdop>3.0</pdop><geoidheight>0.00</geoidheight><course>118.5</course><type>1</type></trkpt>
      <trkpt lat="43.0035411" lon="-2.41068096"><ele>1066</ele><speed>9.38</speed><time>2017-03-19T14:14:22Z</time><pdop>3.0</pdop><geoidheight>0.00</geoidheight><course>122.2</course><type>1</type></trkpt>
      <trkpt lat="43.00348783" lon="-2.41058564"><ele>1066</ele><speed>9.66</speed><time>2017-03-19T14:14:23Z</time><pdop>3.0</pdop><geoidheight>0.00</geoidheight><course>127.5</course><type>1</type></trkpt>
      <trkpt lat="43.003423" lon="-2.41050125"><ele>1066</ele><speed>9.90</speed><time>2017-03-19T14:14:24Z</time><pdop>3.0</pdop><geoidheight>0.00</geoidheight><course>135.3</course><type>1</type></trkpt>
      <trkpt lat="43.00335704" lon="-2.4104237"><ele>1066</ele><speed>10.01</speed><time>2017-03-19T14:14:25Z</time><pdop>3.0</pdop><geoidheight>0.00</geoidheight><course>138.7</course><type>1</type></trkpt>
      <trkpt lat="43.00326841" lon="-2.41037093"><ele>1067</ele><speed>10.41</speed><time>2017-03-19T14:14:26Z</time><pdop>3.0</pdop><geoidheight>0.00</geoidheight><course>150.9</course><type>1</type></trkpt>
      <trkpt lat="43.00317794" lon="-2.41032247"><ele>1067</ele><speed>10.85</speed><time>2017-03-19T14:14:27Z</time><pdop>3.0</pdop><geoidheight>0.00</geoidheight><course>156.7</course><type>1</type></trkpt>
      <trkpt lat="43.00309541" lon="-2.41027506"><ele>1070</ele><speed>10.87</speed><time>2017-03-19T14:14:28Z</time><pdop>3.0</pdop><geoidheight>0.00</geoidheight><course>160.3</course><type>1</type></trkpt>
      <trkpt lat="43.00300137" lon="-2.41022942"><ele>1072</ele><speed>11.07</speed><time>2017-03-19T14:14:29Z</time><pdop>3.0</pdop><geoidheight>0.00</geoidheight><course>160.4</course><type>1</type></trkpt>
      <trkpt lat="43.00290891" lon="-2.41017377"><ele>1072</ele><speed>11.05</speed><time>2017-03-19T14:14:30Z</time><pdop>3.0</pdop><geoidheight>0.00</geoidheight><course>156.0</course><type>1</type></trkpt>
      <trkpt lat="43.00283279" lon="-2.41009448"><ele>1074</ele><speed>10.80</speed><time>2017-03-19T14:14:31Z</time><pdop>3.0</pdop><geoidheight>0.00</geoidheight><course>144.3</course><type>1</type></trkpt>
      <trkpt lat="43.00276758" lon="-2.40999013"><ele>1074</ele><speed>10.52</speed><time>2017-03-19T14:14:32Z</time><pdop>3.0</pdop><geoidheight>0.00</geoidheight><course>131.1</course><type>1</type></trkpt>
      <trkpt lat="43.00272552" lon="-2.40987339"><ele>1075</ele><speed>10.02</speed><time>2017-03-19T14:14:33Z</time><pdop>3.0</pdop><geoidheight>0.00</geoidheight><course>117.6</course><type>1</type></trkpt>
      <trkpt lat="43.00271374" lon="-2.4097709"><ele>1078</ele><speed>8.51</speed><time>2017-03-19T14:14:34Z</time><pdop>3.0</pdop><geoidheight>0.00</geoidheight><course>101.5</course><type>1</type></trkpt>
      <trkpt lat="43.00273102" lon="-2.40967815"><ele>1080</ele><speed>7.41</speed><time>2017-03-19T14:14:35Z</time><pdop>3.0</pdop><geoidheight>0.00</geoidheight><course>76.8</course><type>1</type></trkpt>
      <trkpt lat="43.00276707" lon="-2.40961161"><ele>1081</ele><speed>6.98</speed><time>2017-03-19T14:14:36Z</time><pdop>3.0</pdop><geoidheight>0.00</geoidheight><course>54.7</course><type>1</type></trkpt>
      <trkpt lat="43.00285726" lon="-2.4095248"><ele>1084</ele><speed>5.99</speed><time>2017-03-19T14:14:38Z</time><pdop>3.0</pdop><geoidheight>0.00</geoidheight><course>34.5</course><type>1</type></trkpt>
      <trkpt lat="43.00291416" lon="-2.40958917"><ele>1086</ele><speed>5.28</speed><time>2017-03-19T14:14:39Z</time><pdop>3.0</pdop><geoidheight>0.00</geoidheight><course>340.4</course><type>1</type></trkpt>
      <trkpt lat="43.00296196" lon="-2.40962405"><ele>1086</ele><speed>5.94</speed><time>2017-03-19T14:14:40Z</time><pdop>3.0</pdop><geoidheight>0.00</geoidheight><course>337.7</course><type>1</type></trkpt>
      <trkpt lat="43.00297168" lon="-2.40973696"><ele>1087</ele><speed>7.73</speed><time>2017-03-19T14:14:41Z</time><pdop>3.0</pdop><geoidheight>0.00</geoidheight><course>288.7</course><type>1</type></trkpt>
      <trkpt lat="43.00297083" lon="-2.40983829"><ele>1090</ele><speed>7.92</speed><time>2017-03-19T14:14:42Z</time><pdop>3.0</pdop><geoidheight>0.00</geoidheight><course>271.5</course><type>1</type></trkpt>
      <trkpt lat="43.00295252" lon="-2.40993364"><ele>1094</ele><speed>8.10</speed><time>2017-03-19T14:14:43Z</time><pdop>3.0</pdop><geoidheight>0.00</geoidheight><course>253.4</course><type>1</type></trkpt>
      <trkpt lat="43.00290253" lon="-2.4100247"><ele>1096</ele><speed>9.28</speed><time>2017-03-19T14:14:44Z</time><pdop>3.0</pdop><geoidheight>0.00</geoidheight><course>234.2</course><type>1</type></trkpt>
      <trkpt lat="43.00281967" lon="-2.41009065"><ele>1098</ele><speed>10.87</speed><time>2017-03-19T14:14:45Z</time><pdop>3.0</pdop><geoidheight>0.00</geoidheight><course>213.3</course><type>1</type></trkpt>
      <trkpt lat="43.00271285" lon="-2.41010596"><ele>1100</ele><speed>12.10</speed><time>2017-03-19T14:14:46Z</time><pdop>3.0</pdop><geoidheight>0.00</geoidheight><course>191.0</course><type>1</type></trkpt>
      <trkpt lat="43.00260271" lon="-2.41006647"><ele>1101</ele><speed>12.79</speed><time>2017-03-19T14:14:47Z</time><pdop>3.0</pdop><geoidheight>0.00</geoidheight><course>167.1</course><type>1</type></trkpt>
      <trkpt lat="43.00250311" lon="-2.40997498"><ele>1103</ele><speed>12.83</speed><time>2017-03-19T14:14:48Z</time><pdop>3.0</pdop><geoidheight>0.00</geoidheight><course>148.7</course><type>1</type></trkpt>
      <trkpt lat="43.00243827" lon="-2.40986598"><ele>1106</ele><speed>11.31</speed><time>2017-03-19T14:14:49Z</time><pdop>3.0</pdop><geoidheight>0.00</geoidheight><course>131.4</course><type>1</type></trkpt>
      <trkpt lat="43.00240663" lon="-2.40976472"><ele>1109</ele><speed>9.58</speed><time>2017-03-19T14:14:50Z</time><pdop>3.0</pdop><geoidheight>0.00</geoidheight><course>114.1</course><type>1</type></trkpt>
      <trkpt lat="43.00240096" lon="-2.40968367"><ele>1112</ele><speed>7.39</speed><time>2017-03-19T14:14:51Z</time><pdop>3.0</pdop><geoidheight>0.00</geoidheight><course>98.5</course><type>1</type></trkpt>
      <trkpt lat="43.00242605" lon="-2.40956489"><ele>1117</ele><speed>4.81</speed><time>2017-03-19T14:14:53Z</time><pdop>3.0</pdop><geoidheight>0.00</geoidheight><course>68.1</course><type>1</type></trkpt>
      <trkpt lat="43.00250091" lon="-2.40949015"><ele>1121</ele><speed>5.47</speed><time>2017-03-19T14:14:55Z</time><pdop>3.0</pdop><geoidheight>0.00</geoidheight><course>30.8</course><type>1</type></trkpt>
      <trkpt lat="43.00258841" lon="-2.40951844"><ele>1126</ele><speed>4.52</speed><time>2017-03-19T14:14:57Z</time><pdop>3.0</pdop><geoidheight>0.00</geoidheight><course>335.9</course><type>1</type></trkpt>
      <trkpt lat="43.0026075" lon="-2.40965454"><ele>1130</ele><speed>6.31</speed><time>2017-03-19T14:14:59Z</time><pdop>3.0</pdop><geoidheight>0.00</geoidheight><course>272.9</course><type>1</type></trkpt>
      <trkpt lat="43.00257656" lon="-2.40975096"><ele>1130</ele><speed>7.93</speed><time>2017-03-19T14:15:00Z</time><pdop>3.0</pdop><geoidheight>0.00</geoidheight><course>252.3</course><type>1</type></trkpt>
      <trkpt lat="43.00252982" lon="-2.40985528"><ele>1132</ele><speed>9.94</speed><time>2017-03-19T14:15:01Z</time><pdop>3.0</pdop><geoidheight>0.00</geoidheight><course>239.8</course><type>1</type></trkpt>
      <trkpt lat="43.00245744" lon="-2.40995464"><ele>1133</ele><speed>11.17</speed><time>2017-03-19T14:15:02Z</time><pdop>3.0</pdop><geoidheight>0.00</geoidheight><course>225.9</course><type>1</type></trkpt>
      <trkpt lat="43.00236179" lon="-2.41001376"><ele>1136</ele><speed>11.73</speed><time>2017-03-19T14:15:03Z</time><pdop>3.0</pdop><geoidheight>0.00</geoidheight><course>207.0</course><type>1</type></trkpt>
      <trkpt lat="43.00225762" lon="-2.41002685"><ele>1138</ele><speed>12.10</speed><time>2017-03-19T14:15:04Z</time><pdop>3.0</pdop><geoidheight>0.00</geoidheight><course>187.8</course><type>1</type></trkpt>
      <trkpt lat="43.00215082" lon="-2.40999965"><ele>1140</ele><speed>11.97</speed><time>2017-03-19T14:15:05Z</time><pdop>3.0</pdop><geoidheight>0.00</geoidheight><course>170.8</course><type>1</type></trkpt>
      <trkpt lat="43.00205704" lon="-2.40993162"><ele>1142</ele><speed>11.57</speed><time>2017-03-19T14:15:06Z</time><pdop>3.0</pdop><geoidheight>0.00</geoidheight><course>154.3</course><type>1</type></trkpt>
      <trkpt lat="43.00198126" lon="-2.4098382"><ele>1144</ele><speed>11.16</speed><time>2017-03-19T14:15:07Z</time><pdop>3.0</pdop><geoidheight>0.00</geoidheight><course>140.6</course><type>1</type></trkpt>
      <trkpt lat="43.00192609" lon="-2.4097396"><ele>1147</ele><speed>10.09</speed><time>2017-03-19T14:15:08Z</time><pdop>3.0</pdop><geoidheight>0.00</geoidheight><course>128.1</course><type>1</type></trkpt>
      <trkpt lat="43.00189063" lon="-2.40963193"><ele>1150</ele><speed>9.09</speed><time>2017-03-19T14:15:09Z</time><pdop>3.0</pdop><geoidheight>0.00</geoidheight><course>115.6</course><type>1</type></trkpt>
      <trkpt lat="43.00186899" lon="-2.4095367"><ele>1154</ele><speed>8.02</speed><time>2017-03-19T14:15:10Z</time><pdop>3.0</pdop><geoidheight>0.00</geoidheight><course>108.0</course><type>1</type></trkpt>
      <trkpt lat="43.00185704" lon="-2.40946124"><ele>1157</ele><speed>6.10</speed><time>2017-03-19T14:15:11Z</time><pdop>3.0</pdop><geoidheight>0.00</geoidheight><course>103.5</course><type>1</type></trkpt>
      <trkpt lat="43.00185293" lon="-2.40937753"><ele>1159</ele><speed>2.46</speed><time>2017-03-19T14:15:13Z</time><pdop>3.0</pdop><geoidheight>0.00</geoidheight><course>82.6</course><type>1</type></trkpt>
      <trkpt lat="43.00190741" lon="-2.40932714"><ele>1157</ele><speed>4.64</speed><time>2017-03-19T14:15:15Z</time><pdop>3.0</pdop><geoidheight>0.00</geoidheight><course>30.6</course><type>1</type></trkpt>
      <trkpt lat="43.00199938" lon="-2.40934962"><ele>1159</ele><speed>4.73</speed><time>2017-03-19T14:15:17Z</time><pdop>3.0</pdop><geoidheight>0.00</geoidheight><course>345.5</course><type>1</type></trkpt>
      <trkpt lat="43.0020375" lon="-2.40941214"><ele>1161</ele><speed>5.41</speed><time>2017-03-19T14:15:18Z</time><pdop>3.0</pdop><geoidheight>0.00</geoidheight><course>312.9</course><type>1</type></trkpt>
      <trkpt lat="43.00207187" lon="-2.40948683"><ele>1163</ele><speed>6.69</speed><time>2017-03-19T14:15:19Z</time><pdop>3.0</pdop><geoidheight>0.00</geoidheight><course>303.4</course><type>1</type></trkpt>
      <trkpt lat="43.0020833" lon="-2.40958675"><ele>1168</ele><speed>3.72</speed><time>2017-03-19T14:15:21Z</time><pdop>3.0</pdop><geoidheight>0.00</geoidheight><course>287.1</course><type>1</type></trkpt>
      <trkpt lat="43.00216641" lon="-2.40959972"><ele>1169</ele><speed>4.42</speed><time>2017-03-19T14:15:24Z</time><pdop>3.0</pdop><geoidheight>0.00</geoidheight><course>2.3</course><type>1</type></trkpt>
      <trkpt lat="43.00222396" lon="-2.40952047"><ele>1170</ele><speed>5.40</speed><time>2017-03-19T14:15:26Z</time><pdop>3.0</pdop><geoidheight>0.00</geoidheight><course>48.2</course><type>1</type></trkpt>
      <trkpt lat="43.00223254" lon="-2.4094421"><ele>1170</ele><speed>6.49</speed><time>2017-03-19T14:15:27Z</time><pdop>3.0</pdop><geoidheight>0.00</geoidheight><course>79.0</course><type>1</type></trkpt>
      <trkpt lat="43.00221703" lon="-2.4093353"><ele>1172</ele><speed>8.17</speed><time>2017-03-19T14:15:28Z</time><pdop>3.0</pdop><geoidheight>0.00</geoidheight><course>99.9</course><type>1</type></trkpt>
      <trkpt lat="43.0021831" lon="-2.40923025"><ele>1173</ele><speed>9.36</speed><time>2017-03-19T14:15:29Z</time><pdop>3.0</pdop><geoidheight>0.00</geoidheight><course>114.3</course><type>1</type></trkpt>
      <trkpt lat="43.00213549" lon="-2.40913588"><ele>1174</ele><speed>9.49</speed><time>2017-03-19T14:15:30Z</time><pdop>3.0</pdop><geoidheight>0.00</geoidheight><course>126.0</course><type>1</type></trkpt>
      <trkpt lat="43.00208737" lon="-2.40905739"><ele>1177</ele><speed>8.67</speed><time>2017-03-19T14:15:31Z</time><pdop>3.0</pdop><geoidheight>0.00</geoidheight><course>133.4</course><type>1</type></trkpt>
      <trkpt lat="43.00204777" lon="-2.4089889"><ele>1178</ele><speed>7.73</speed><time>2017-03-19T14:15:32Z</time><pdop>3.0</pdop><geoidheight>0.00</geoidheight><course>129.6</course><type>1</type></trkpt>
      <trkpt lat="43.00202557" lon="-2.40890779"><ele>1177</ele><speed>7.13</speed><time>2017-03-19T14:15:33Z</time><pdop>3.0</pdop><geoidheight>0.00</geoidheight><course>111.4</course><type>1</type></trkpt>
      <trkpt lat="43.00203269" lon="-2.40881078"><ele>1175</ele><speed>7.38</speed><time>2017-03-19T14:15:34Z</time><pdop>3.0</pdop><geoidheight>0.00</geoidheight><course>84.6</course><type>1</type></trkpt>
      <trkpt lat="43.00207203" lon="-2.40872731"><ele>1174</ele><speed>7.72</speed><time>2017-03-19T14:15:35Z</time><pdop>3.0</pdop><geoidheight>0.00</geoidheight><course>61.9</course><type>1</type></trkpt>
      <trkpt lat="43.00211344" lon="-2.40867803"><ele>1174</ele><speed>6.41</speed><time>2017-03-19T14:15:36Z</time><pdop>3.0</pdop><geoidheight>0.00</geoidheight><course>42.7</course><type>1</type></trkpt>
      <trkpt lat="43.00219627" lon="-2.40869982"><ele>1175</ele><speed>4.47</speed><time>2017-03-19T14:15:38Z</time><pdop>3.0</pdop><geoidheight>0.00</geoidheight><course>339.9</course><type>1</type></trkpt>
      <trkpt lat="43.00226015" lon="-2.4088105"><ele>1173</ele><speed>5.67</speed><time>2017-03-19T14:15:40Z</time><pdop>3.0</pdop><geoidheight>0.00</geoidheight><course>302.8</course><type>1</type></trkpt>
      <trkpt lat="43.00227566" lon="-2.40889549"><ele>1172</ele><speed>6.84</speed><time>2017-03-19T14:15:41Z</time><pdop>3.0</pdop><geoidheight>0.00</geoidheight><course>282.7</course><type>1</type></trkpt>
      <trkpt lat="43.00226744" lon="-2.40899436"><ele>1171</ele><speed>8.33</speed><time>2017-03-19T14:15:42Z</time><pdop>3.0</pdop><geoidheight>0.00</geoidheight><course>262.2</course><type>1</type></trkpt>
      <trkpt lat="43.00222976" lon="-2.40910188"><ele>1170</ele><speed>10.03</speed><time>2017-03-19T14:15:43Z</time><pdop>3.0</pdop><geoidheight>0.00</geoidheight><course>244.4</course><type>1</type></trkpt>
      <trkpt lat="43.0021569" lon="-2.40921088"><ele>1170</ele><speed>11.55</speed><time>2017-03-19T14:15:44Z</time><pdop>3.0</pdop><geoidheight>0.00</geoidheight><course>228.8</course><type>1</type></trkpt>
      <trkpt lat="43.0020594" lon="-2.40928966"><ele>1170</ele><speed>12.75</speed><time>2017-03-19T14:15:45Z</time><pdop>3.0</pdop><geoidheight>0.00</geoidheight><course>213.7</course><type>1</type></trkpt>
      <trkpt lat="43.00193948" lon="-2.4093395"><ele>1171</ele><speed>13.65</speed><time>2017-03-19T14:15:46Z</time><pdop>3.0</pdop><geoidheight>0.00</geoidheight><course>198.3</course><type>1</type></trkpt>
      <trkpt lat="43.00180933" lon="-2.4093418"><ele>1171</ele><speed>13.98</speed><time>2017-03-19T14:15:47Z</time><pdop>3.0</pdop><geoidheight>0.00</geoidheight><course>182.9</course><type>1</type></trkpt>
      <trkpt lat="43.00169196" lon="-2.4093001"><ele>1171</ele><speed>13.51</speed><time>2017-03-19T14:15:48Z</time><pdop>3.0</pdop><geoidheight>0.00</geoidheight><course>167.6</course><type>1</type></trkpt>
      <trkpt lat="43.00159296" lon="-2.4092307"><ele>1172</ele><speed>12.35</speed><time>2017-03-19T14:15:49Z</time><pdop>3.0</pdop><geoidheight>0.00</geoidheight><course>153.6</course><type>1</type></trkpt>
      <trkpt lat="43.00152319" lon="-2.40914987"><ele>1174</ele><speed>10.60</speed><time>2017-03-19T14:15:50Z</time><pdop>3.0</pdop><geoidheight>0.00</geoidheight><course>143.0</course><type>1</type></trkpt>
      <trkpt lat="43.00146351" lon="-2.40907244"><ele>1175</ele><speed>9.29</speed><time>2017-03-19T14:15:51Z</time><pdop>3.0</pdop><geoidheight>0.00</geoidheight><course>135.5</course><type>1</type></trkpt>
      <trkpt lat="43.00142015" lon="-2.40899598"><ele>1176</ele><speed>8.31</speed><time>2017-03-19T14:15:52Z</time><pdop>3.0</pdop><geoidheight>0.00</geoidheight><course>129.7</course><type>1</type></trkpt>
      <trkpt lat="43.0013771" lon="-2.40892244"><ele>1176</ele><speed>7.91</speed><time>2017-03-19T14:15:53Z</time><pdop>3.0</pdop><geoidheight>0.00</geoidheight><course>127.5</course><type>1</type></trkpt>
      <trkpt lat="43.00133552" lon="-2.40885946"><ele>1176</ele><speed>7.05</speed><time>2017-03-19T14:15:54Z</time><pdop>3.0</pdop><geoidheight>0.00</geoidheight><course>131.6</course><type>1</type></trkpt>
      <trkpt lat="43.00128277" lon="-2.40879683"><ele>1175</ele><speed>7.39</speed><time>2017-03-19T14:15:55Z</time><pdop>3.0</pdop><geoidheight>0.00</geoidheight><course>138.0</course><type>1</type></trkpt>
      <trkpt lat="43.00122388" lon="-2.40873035"><ele>1174</ele><speed>8.39</speed><time>2017-03-19T14:15:56Z</time><pdop>3.0</pdop><geoidheight>0.00</geoidheight><course>139.9</course><type>1</type></trkpt>
      <trkpt lat="43.0011619" lon="-2.40865231"><ele>1173</ele><speed>9.40</speed><time>2017-03-19T14:15:57Z</time><pdop>3.0</pdop><geoidheight>0.00</geoidheight><course>139.0</course><type>1</type></trkpt>
      <trkpt lat="43.00109814" lon="-2.40856834"><ele>1172</ele><speed>9.88</speed><time>2017-03-19T14:15:58Z</time><pdop>3.0</pdop><geoidheight>0.00</geoidheight><course>137.2</course><type>1</type></trkpt>
      <trkpt lat="43.00103901" lon="-2.4084888"><ele>1171</ele><speed>9.80</speed><time>2017-03-19T14:15:59Z</time><pdop>3.0</pdop><geoidheight>0.00</geoidheight><course>134.9</course><type>1</type></trkpt>
      <trkpt lat="43.00097993" lon="-2.40840289"><ele>1171</ele><speed>9.42</speed><time>2017-03-19T14:16:00Z</time><pdop>3.0</pdop><geoidheight>0.00</geoidheight><course>133.6</course><type>1</type></trkpt>
      <trkpt lat="43.00092686" lon="-2.40832121"><ele>1170</ele><speed>9.05</speed><time>2017-03-19T14:16:01Z</time><pdop>3.0</pdop><geoidheight>0.00</geoidheight><course>133.2</course><type>1</type></trkpt>
      <trkpt lat="43.00086845" lon="-2.40824011"><ele>1169</ele><speed>9.04</speed><time>2017-03-19T14:16:02Z</time><pdop>3.0</pdop><geoidheight>0.00</geoidheight><course>133.7</course><type>1</type></trkpt>
      <trkpt lat="43.00081254" lon="-2.4081572"><ele>1169</ele><speed>9.37</speed><time>2017-03-19T14:16:03Z</time><pdop>3.0</pdop><geoidheight>0.00</geoidheight><course>134.0</course><type>1</type></trkpt>
      <trkpt lat="43.00074914" lon="-2.40807721"><ele>1169</ele><speed>9.58</speed><time>2017-03-19T14:16:04Z</time><pdop>3.0</pdop><geoidheight>0.00</geoidheight><course>136.6</course><type>1</type></trkpt>
      <trkpt lat="43.00068369" lon="-2.40800372"><ele>1170</ele><speed>9.56</speed><time>2017-03-19T14:16:05Z</time><pdop>3.0</pdop><geoidheight>0.00</geoidheight><course>141.2</course><type>1</type></trkpt>
      <trkpt lat="43.00061782" lon="-2.40793424"><ele>1172</ele><speed>9.24</speed><time>2017-03-19T14:16:06Z</time><pdop>3.0</pdop><geoidheight>0.00</geoidheight><course>142.5</course><type>1</type></trkpt>
      <trkpt lat="43.00055796" lon="-2.4078683"><ele>1172</ele><speed>8.64</speed><time>2017-03-19T14:16:07Z</time><pdop>3.0</pdop><geoidheight>0.00</geoidheight><course>142.3</course><type>1</type></trkpt>
      <trkpt lat="43.0005006" lon="-2.40779925"><ele>1172</ele><speed>8.55</speed><time>2017-03-19T14:16:08Z</time><pdop>3.0</pdop><geoidheight>0.00</geoidheight><course>137.8</course><type>1</type></trkpt>
      <trkpt lat="43.00044381" lon="-2.40771671"><ele>1172</ele><speed>8.82</speed><time>2017-03-19T14:16:09Z</time><pdop>3.0</pdop><geoidheight>0.00</geoidheight><course>132.9</course><type>1</type></trkpt>
      <trkpt lat="43.00039074" lon="-2.40763093"><ele>1172</ele><speed>9.31</speed><time>2017-03-19T14:16:10Z</time><pdop>3.0</pdop><geoidheight>0.00</geoidheight><course>130.8</course><type>1</type></trkpt>
      <trkpt lat="43.00032985" lon="-2.40754315"><ele>1173</ele><speed>9.73</speed><time>2017-03-19T14:16:11Z</time><pdop>3.0</pdop><geoidheight>0.00</geoidheight><course>132.6</course><type>1</type></trkpt>
      <trkpt lat="43.00026681" lon="-2.40746021"><ele>1173</ele><speed>9.85</speed><time>2017-03-19T14:16:12Z</time><pdop>3.0</pdop><geoidheight>0.00</geoidheight><course>135.7</course><type>1</type></trkpt>
      <trkpt lat="43.00020234" lon="-2.40738978"><ele>1174</ele><speed>9.28</speed><time>2017-03-19T14:16:13Z</time><pdop>3.0</pdop><geoidheight>0.00</geoidheight><course>140.2</course><type>1</type></trkpt>
      <trkpt lat="43.00014385" lon="-2.40732029"><ele>1175</ele><speed>8.69</speed><time>2017-03-19T14:16:14Z</time><pdop>3.0</pdop><geoidheight>0.00</geoidheight><course>139.9</course><type>1</type></trkpt>
      <trkpt lat="43.00008556" lon="-2.40725075"><ele>1175</ele><speed>8.21</speed><time>2017-03-19T14:16:15Z</time><pdop>3.0</pdop><geoidheight>0.00</geoidheight><course>135.5</course><type>1</type></trkpt>
      <trkpt lat="43.00003483" lon="-2.40716342"><ele>1174</ele><speed>8.06</speed><time>2017-03-19T14:16:16Z</time><pdop>3.0</pdop><geoidheight>0.00</geoidheight><course>127.3</course><type>1</type></trkpt>
      <trkpt lat="43.0000021" lon="-2.40708547"><ele>1174</ele><speed>7.76</speed><time>2017-03-19T14:16:17Z</time><pdop>3.0</pdop><geoidheight>0.00</geoidheight><course>118.4</course><type>1</type></trkpt>
      <trkpt lat="42.99996979" lon="-2.40700157"><ele>1174</ele><speed>7.33</speed><time>2017-03-19T14:16:18Z</time><pdop>3.0</pdop><geoidheight>0.00</geoidheight><course>112.0</course><type>1</type></trkpt>
      <trkpt lat="42.99994518" lon="-2.40692035"><ele>1175</ele><speed>7.26</speed><time>2017-03-19T14:16:19Z</time><pdop>3.0</pdop><geoidheight>0.00</geoidheight><course>110.4</course><type>1</type></trkpt>
      <trkpt lat="42.99991963" lon="-2.4068451"><ele>1176</ele><speed>7.08</speed><time>2017-03-19T14:16:20Z</time><pdop>3.0</pdop><geoidheight>0.00</geoidheight><course>111.3</course><type>1</type></trkpt>
      <trkpt lat="42.99988795" lon="-2.40677077"><ele>1177</ele><speed>6.90</speed><time>2017-03-19T14:16:21Z</time><pdop>3.0</pdop><geoidheight>0.00</geoidheight><course>115.9</course><type>1</type></trkpt>
      <trkpt lat="42.99986005" lon="-2.40668452"><ele>1177</ele><speed>7.16</speed><time>2017-03-19T14:16:22Z</time><pdop>3.0</pdop><geoidheight>0.00</geoidheight><course>116.6</course><type>1</type></trkpt>
      <trkpt lat="42.99982967" lon="-2.40659667"><ele>1178</ele><speed>7.81</speed><time>2017-03-19T14:16:23Z</time><pdop>3.0</pdop><geoidheight>0.00</geoidheight><course>113.9</course><type>1</type></trkpt>
      <trkpt lat="42.99979908" lon="-2.40650236"><ele>1179</ele><speed>8.49</speed><time>2017-03-19T14:16:24Z</time><pdop>3.0</pdop><geoidheight>0.00</geoidheight><course>111.9</course><type>1</type></trkpt>
      <trkpt lat="42.99976585" lon="-2.40641078"><ele>1182</ele><speed>8.39</speed><time>2017-03-19T14:16:25Z</time><pdop>3.0</pdop><geoidheight>0.00</geoidheight><course>115.1</course><type>1</type></trkpt>
      <trkpt lat="42.99973373" lon="-2.40632968"><ele>1184</ele><speed>7.70</speed><time>2017-03-19T14:16:26Z</time><pdop>3.0</pdop><geoidheight>0.00</geoidheight><course>118.5</course><type>1</type></trkpt>
      <trkpt lat="42.9997018" lon="-2.40625391"><ele>1186</ele><speed>6.86</speed><time>2017-03-19T14:16:27Z</time><pdop>3.0</pdop><geoidheight>0.00</geoidheight><course>116.5</course><type>1</type></trkpt>
      <trkpt lat="42.99968279" lon="-2.40618196"><ele>1187</ele><speed>5.79</speed><time>2017-03-19T14:16:28Z</time><pdop>3.0</pdop><geoidheight>0.00</geoidheight><course>108.9</course><type>1</type></trkpt>
      <trkpt lat="42.99967906" lon="-2.40607327"><ele>1189</ele><speed>4.23</speed><time>2017-03-19T14:16:30Z</time><pdop>3.0</pdop><geoidheight>0.00</geoidheight><course>83.4</course><type>1</type></trkpt>
      <trkpt lat="42.99968354" lon="-2.40598824"><ele>1191</ele><speed>3.82</speed><time>2017-03-19T14:16:32Z</time><pdop>3.0</pdop><geoidheight>0.00</geoidheight><course>84.0</course><type>1</type></trkpt>
      <trkpt lat="42.99965967" lon="-2.40586515"><ele>1191</ele><speed>6.44</speed><time>2017-03-19T14:16:34Z</time><pdop>3.0</pdop><geoidheight>0.00</geoidheight><course>107.1</course><type>1</type></trkpt>
      <trkpt lat="42.99958909" lon="-2.40570703"><ele>1192</ele><speed>7.73</speed><time>2017-03-19T14:16:36Z</time><pdop>3.0</pdop><geoidheight>0.00</geoidheight><course>122.6</course><type>1</type></trkpt>
      <trkpt lat="42.99954415" lon="-2.40562998"><ele>1193</ele><speed>7.94</speed><time>2017-03-19T14:16:37Z</time><pdop>3.0</pdop><geoidheight>0.00</geoidheight><course>126.9</course><type>1</type></trkpt>
      <trkpt lat="42.99949815" lon="-2.40554626"><ele>1193</ele><speed>8.77</speed><time>2017-03-19T14:16:38Z</time><pdop>3.0</pdop><geoidheight>0.00</geoidheight><course>127.9</course><type>1</type></trkpt>
      <trkpt lat="42.99944595" lon="-2.40545169"><ele>1194</ele><speed>9.65</speed><time>2017-03-19T14:16:39Z</time><pdop>3.0</pdop><geoidheight>0.00</geoidheight><course>126.0</course><type>1</type></trkpt>
      <trkpt lat="42.99939736" lon="-2.4053463"><ele>1195</ele><speed>10.00</speed><time>2017-03-19T14:16:40Z</time><pdop>3.0</pdop><geoidheight>0.00</geoidheight><course>123.2</course><type>1</type></trkpt>
      <trkpt lat="42.99935528" lon="-2.4052361"><ele>1196</ele><speed>9.55</speed><time>2017-03-19T14:16:41Z</time><pdop>3.0</pdop><geoidheight>0.00</geoidheight><course>120.2</course><type>1</type></trkpt>
      <trkpt lat="42.99931757" lon="-2.40513768"><ele>1198</ele><speed>8.83</speed><time>2017-03-19T14:16:42Z</time><pdop>3.0</pdop><geoidheight>0.00</geoidheight><course>118.6</course><type>1</type></trkpt>
      <trkpt lat="42.99927735" lon="-2.40505731"><ele>1199</ele><speed>8.17</speed><time>2017-03-19T14:16:43Z</time><pdop>3.0</pdop><geoidheight>0.00</geoidheight><course>119.6</course><type>1</type></trkpt>
      <trkpt lat="42.99925873" lon="-2.40496074"><ele>1201</ele><speed>7.87</speed><time>2017-03-19T14:16:44Z</time><pdop>3.0</pdop><geoidheight>0.00</geoidheight><course>112.2</course><type>1</type></trkpt>
      <trkpt lat="42.99923556" lon="-2.40486869"><ele>1202</ele><speed>7.99</speed><time>2017-03-19T14:16:45Z</time><pdop>3.0</pdop><geoidheight>0.00</geoidheight><course>108.7</course><type>1</type></trkpt>
      <trkpt lat="42.99921366" lon="-2.40476394"><ele>1204</ele><speed>8.63</speed><time>2017-03-19T14:16:46Z</time><pdop>3.0</pdop><geoidheight>0.00</geoidheight><course>105.3</course><type>1</type></trkpt>
      <trkpt lat="42.99918505" lon="-2.40466603"><ele>1206</ele><speed>8.74</speed><time>2017-03-19T14:16:47Z</time><pdop>3.0</pdop><geoidheight>0.00</geoidheight><course>110.9</course><type>1</type></trkpt>
      <trkpt lat="42.99914936" lon="-2.40456168"><ele>1207</ele><speed>9.64</speed><time>2017-03-19T14:16:48Z</time><pdop>3.0</pdop><geoidheight>0.00</geoidheight><course>113.3</course><type>1</type></trkpt>
      <trkpt lat="42.99911976" lon="-2.40448187"><ele>1211</ele><speed>7.73</speed><time>2017-03-19T14:16:49Z</time><pdop>3.0</pdop><geoidheight>0.00</geoidheight><course>119.2</course><type>1</type></trkpt>
      <trkpt lat="42.99908702" lon="-2.4044065"><ele>1212</ele><speed>7.17</speed><time>2017-03-19T14:16:50Z</time><pdop>3.0</pdop><geoidheight>0.00</geoidheight><course>118.7</course><type>1</type></trkpt>
      <trkpt lat="42.99906744" lon="-2.40433402"><ele>1215</ele><speed>6.41</speed><time>2017-03-19T14:16:51Z</time><pdop>3.0</pdop><geoidheight>0.00</geoidheight><course>116.8</course><type>1</type></trkpt>
      <trkpt lat="42.9990212" lon="-2.40422664"><ele>1216</ele><speed>4.82</speed><time>2017-03-19T14:16:53Z</time><pdop>3.0</pdop><geoidheight>0.00</geoidheight><course>127.2</course><type>1</type></trkpt>
      <trkpt lat="42.99899482" lon="-2.4040983"><ele>1213</ele><speed>5.89</speed><time>2017-03-19T14:16:55Z</time><pdop>3.0</pdop><geoidheight>0.00</geoidheight><course>103.3</course><type>1</type></trkpt>
      <trkpt lat="42.99896595" lon="-2.40396299"><ele>1213</ele><speed>5.89</speed><time>2017-03-19T14:16:57Z</time><pdop>3.0</pdop><geoidheight>0.00</geoidheight><course>104.6</course><type>1</type></trkpt>
      <trkpt lat="42.99892217" lon="-2.40382387"><ele>1214</ele><speed>6.41</speed><time>2017-03-19T14:16:59Z</time><pdop>3.0</pdop><geoidheight>0.00</geoidheight><course>114.1</course><type>1</type></trkpt>
      <trkpt lat="42.99890269" lon="-2.40374969"><ele>1215</ele><speed>6.42</speed><time>2017-03-19T14:17:00Z</time><pdop>3.0</pdop><geoidheight>0.00</geoidheight><course>109.8</course><type>1</type></trkpt>
      <trkpt lat="42.99888231" lon="-2.40361266"><ele>1216</ele><speed>5.73</speed><time>2017-03-19T14:17:02Z</time><pdop>3.0</pdop><geoidheight>0.00</geoidheight><course>100.0</course><type>1</type></trkpt>
      <trkpt lat="42.99884938" lon="-2.40347722"><ele>1219</ele><speed>5.84</speed><time>2017-03-19T14:17:04Z</time><pdop>3.0</pdop><geoidheight>0.00</geoidheight><course>106.6</course><type>1</type></trkpt>
      <trkpt lat="42.99882475" lon="-2.40333429"><ele>1220</ele><speed>6.37</speed><time>2017-03-19T14:17:06Z</time><pdop>3.0</pdop><geoidheight>0.00</geoidheight><course>105.8</course><type>1</type></trkpt>
      <trkpt lat="42.99880089" lon="-2.40325066"><ele>1221</ele><speed>7.16</speed><time>2017-03-19T14:17:07Z</time><pdop>3.0</pdop><geoidheight>0.00</geoidheight><course>106.4</course><type>1</type></trkpt>
      <trkpt lat="42.99877996" lon="-2.40316008"><ele>1222</ele><speed>7.68</speed><time>2017-03-19T14:17:08Z</time><pdop>3.0</pdop><geoidheight>0.00</geoidheight><course>107.2</course><type>1</type></trkpt>
      <trkpt lat="42.99876038" lon="-2.40307203"><ele>1223</ele><speed>7.51</speed><time>2017-03-19T14:17:09Z</time><pdop>3.0</pdop><geoidheight>0.00</geoidheight><course>106.2</course><type>1</type></trkpt>
      <trkpt lat="42.99876977" lon="-2.40293039"><ele>1226</ele><speed>5.82</speed><time>2017-03-19T14:17:11Z</time><pdop>3.0</pdop><geoidheight>0.00</geoidheight><course>86.5</course><type>1</type></trkpt>
      <trkpt lat="42.99879636" lon="-2.40280498"><ele>1228</ele><speed>5.27</speed><time>2017-03-19T14:17:13Z</time><pdop>3.0</pdop><geoidheight>0.00</geoidheight><course>74.8</course><type>1</type></trkpt>
      <trkpt lat="42.99881516" lon="-2.40268658"><ele>1231</ele><speed>5.44</speed><time>2017-03-19T14:17:15Z</time><pdop>3.0</pdop><geoidheight>0.00</geoidheight><course>76.5</course><type>1</type></trkpt>
      <trkpt lat="42.99881935" lon="-2.40261233"><ele>1232</ele><speed>5.67</speed><time>2017-03-19T14:17:16Z</time><pdop>3.0</pdop><geoidheight>0.00</geoidheight><course>83.0</course><type>1</type></trkpt>
      <trkpt lat="42.99880636" lon="-2.4025373"><ele>1233</ele><speed>6.07</speed><time>2017-03-19T14:17:17Z</time><pdop>3.0</pdop><geoidheight>0.00</geoidheight><course>95.4</course><type>1</type></trkpt>
      <trkpt lat="42.99879166" lon="-2.40239226"><ele>1238</ele><speed>6.21</speed><time>2017-03-19T14:17:19Z</time><pdop>3.0</pdop><geoidheight>0.00</geoidheight><course>100.3</course><type>1</type></trkpt>
      <trkpt lat="42.9987782" lon="-2.40230064"><ele>1239</ele><speed>6.68</speed><time>2017-03-19T14:17:20Z</time><pdop>3.0</pdop><geoidheight>0.00</geoidheight><course>100.5</course><type>1</type></trkpt>
      <trkpt lat="42.99877364" lon="-2.40221046"><ele>1240</ele><speed>7.16</speed><time>2017-03-19T14:17:21Z</time><pdop>3.0</pdop><geoidheight>0.00</geoidheight><course>96.1</course><type>1</type></trkpt>
      <trkpt lat="42.99877666" lon="-2.40211991"><ele>1241</ele><speed>6.83</speed><time>2017-03-19T14:17:22Z</time><pdop>3.0</pdop><geoidheight>0.00</geoidheight><course>88.2</course><type>1</type></trkpt>
      <trkpt lat="42.99878762" lon="-2.40196904"><ele>1243</ele><speed>5.59</speed><time>2017-03-19T14:17:24Z</time><pdop>3.0</pdop><geoidheight>0.00</geoidheight><course>86.3</course><type>1</type></trkpt>
      <trkpt lat="42.9987958" lon="-2.40183763"><ele>1246</ele><speed>5.74</speed><time>2017-03-19T14:17:26Z</time><pdop>3.0</pdop><geoidheight>0.00</geoidheight><course>87.4</course><type>1</type></trkpt>
      <trkpt lat="42.99879944" lon="-2.40168894"><ele>1248</ele><speed>6.56</speed><time>2017-03-19T14:17:28Z</time><pdop>3.0</pdop><geoidheight>0.00</geoidheight><course>86.5</course><type>1</type></trkpt>
      <trkpt lat="42.99880548" lon="-2.40160566"><ele>1249</ele><speed>6.37</speed><time>2017-03-19T14:17:29Z</time><pdop>3.0</pdop><geoidheight>0.00</geoidheight><course>87.0</course><type>1</type></trkpt>
      <trkpt lat="42.99881888" lon="-2.40149793"><ele>1252</ele><speed>4.54</speed><time>2017-03-19T14:17:31Z</time><pdop>3.0</pdop><geoidheight>0.00</geoidheight><course>77.0</course><type>1</type></trkpt>
      <trkpt lat="42.99883081" lon="-2.40138719"><ele>1253</ele><speed>4.73</speed><time>2017-03-19T14:17:33Z</time><pdop>3.0</pdop><geoidheight>0.00</geoidheight><course>82.3</course><type>1</type></trkpt>
      <trkpt lat="42.99884796" lon="-2.40126837"><ele>1255</ele><speed>4.78</speed><time>2017-03-19T14:17:35Z</time><pdop>3.0</pdop><geoidheight>0.00</geoidheight><course>78.3</course><type>1</type></trkpt>
      <trkpt lat="42.99885401" lon="-2.40114264"><ele>1255</ele><speed>5.02</speed><time>2017-03-19T14:17:37Z</time><pdop>3.0</pdop><geoidheight>0.00</geoidheight><course>83.3</course><type>1</type></trkpt>
      <trkpt lat="42.99884632" lon="-2.40100048"><ele>1255</ele><speed>5.39</speed><time>2017-03-19T14:17:39Z</time><pdop>3.0</pdop><geoidheight>0.00</geoidheight><course>98.1</course><type>1</type></trkpt>
      <trkpt lat="42.99883389" lon="-2.40089307"><ele>1258</ele><speed>4.26</speed><time>2017-03-19T14:17:41Z</time><pdop>3.0</pdop><geoidheight>0.00</geoidheight><course>95.8</course><type>1</type></trkpt>
      <trkpt lat="42.9988477" lon="-2.40079375"><ele>1258</ele><speed>4.13</speed><time>2017-03-19T14:17:43Z</time><pdop>3.0</pdop><geoidheight>0.00</geoidheight><course>80.5</course><type>1</type></trkpt>
      <trkpt lat="42.99884735" lon="-2.40070001"><ele>1259</ele><speed>4.05</speed><time>2017-03-19T14:17:45Z</time><pdop>3.0</pdop><geoidheight>0.00</geoidheight><course>96.4</course><type>1</type></trkpt>
      <trkpt lat="42.99884924" lon="-2.40059493"><ele>1259</ele><speed>4.84</speed><time>2017-03-19T14:17:47Z</time><pdop>3.0</pdop><geoidheight>0.00</geoidheight><course>89.7</course><type>1</type></trkpt>
      <trkpt lat="42.99884909" lon="-2.40046632"><ele>1261</ele><speed>5.79</speed><time>2017-03-19T14:17:49Z</time><pdop>3.0</pdop><geoidheight>0.00</geoidheight><course>92.1</course><type>1</type></trkpt>
      <trkpt lat="42.99884257" lon="-2.40038877"><ele>1262</ele><speed>6.74</speed><time>2017-03-19T14:17:50Z</time><pdop>3.0</pdop><geoidheight>0.00</geoidheight><course>96.1</course><type>1</type></trkpt>
      <trkpt lat="42.99882933" lon="-2.40030914"><ele>1263</ele><speed>6.70</speed><time>2017-03-19T14:17:51Z</time><pdop>3.0</pdop><geoidheight>0.00</geoidheight><course>103.0</course><type>1</type></trkpt>
      <trkpt lat="42.998809" lon="-2.40023706"><ele>1264</ele><speed>6.78</speed><time>2017-03-19T14:17:52Z</time><pdop>3.0</pdop><geoidheight>0.00</geoidheight><course>109.2</course><type>1</type></trkpt>
      <trkpt lat="42.99878356" lon="-2.40016102"><ele>1265</ele><speed>6.87</speed><time>2017-03-19T14:17:53Z</time><pdop>3.0</pdop><geoidheight>0.00</geoidheight><course>115.7</course><type>1</type></trkpt>
      <trkpt lat="42.99874909" lon="-2.4000891"><ele>1266</ele><speed>7.28</speed><time>2017-03-19T14:17:54Z</time><pdop>3.0</pdop><geoidheight>0.00</geoidheight><course>124.4</course><type>1</type></trkpt>
      <trkpt lat="42.99870531" lon="-2.400038"><ele>1268</ele><speed>6.94</speed><time>2017-03-19T14:17:55Z</time><pdop>3.0</pdop><geoidheight>0.00</geoidheight><course>135.7</course><type>1</type></trkpt>
      <trkpt lat="42.99865304" lon="-2.39999523"><ele>1269</ele><speed>6.93</speed><time>2017-03-19T14:17:56Z</time><pdop>3.0</pdop><geoidheight>0.00</geoidheight><course>146.1</course><type>1</type></trkpt>
      <trkpt lat="42.9986051" lon="-2.39992903"><ele>1271</ele><speed>7.33</speed><time>2017-03-19T14:17:57Z</time><pdop>3.0</pdop><geoidheight>0.00</geoidheight><course>139.3</course><type>1</type></trkpt>
      <trkpt lat="42.99856431" lon="-2.39984305"><ele>1270</ele><speed>8.14</speed><time>2017-03-19T14:17:58Z</time><pdop>3.0</pdop><geoidheight>0.00</geoidheight><course>127.4</course><type>1</type></trkpt>
      <trkpt lat="42.99852558" lon="-2.39977115"><ele>1271</ele><speed>7.41</speed><time>2017-03-19T14:17:59Z</time><pdop>3.0</pdop><geoidheight>0.00</geoidheight><course>126.0</course><type>1</type></trkpt>
      <trkpt lat="42.99847152" lon="-2.39965745"><ele>1271</ele><speed>9.78</speed><time>2017-03-19T14:18:00Z</time><pdop>4.0</pdop><geoidheight>0.00</geoidheight><course>120.3</course><type>1</type></trkpt>
      <trkpt lat="42.99844979" lon="-2.39955918"><ele>1273</ele><speed>8.82</speed><time>2017-03-19T14:18:01Z</time><pdop>4.0</pdop><geoidheight>0.00</geoidheight><course>115.8</course><type>1</type></trkpt>
      <trkpt lat="42.99839547" lon="-2.39947929"><ele>1281</ele><speed>5.87</speed><time>2017-03-19T14:18:03Z</time><pdop>3.0</pdop><geoidheight>0.00</geoidheight><course>141.7</course><type>1</type></trkpt>
      <trkpt lat="42.9983346" lon="-2.39934906"><ele>1285</ele><speed>7.39</speed><time>2017-03-19T14:18:05Z</time><pdop>3.0</pdop><geoidheight>0.00</geoidheight><course>132.7</course><type>1</type></trkpt>
      <trkpt lat="42.99829338" lon="-2.39927009"><ele>1287</ele><speed>7.80</speed><time>2017-03-19T14:18:06Z</time><pdop>3.0</pdop><geoidheight>0.00</geoidheight><course>128.2</course><type>1</type></trkpt>
      <trkpt lat="42.99825115" lon="-2.399202"><ele>1289</ele><speed>7.56</speed><time>2017-03-19T14:18:07Z</time><pdop>3.0</pdop><geoidheight>0.00</geoidheight><course>131.0</course><type>1</type></trkpt>
      <trkpt lat="42.99820693" lon="-2.3991418"><ele>1290</ele><speed>7.10</speed><time>2017-03-19T14:18:08Z</time><pdop>3.0</pdop><geoidheight>0.00</geoidheight><course>135.6</course><type>1</type></trkpt>
      <trkpt lat="42.9981695" lon="-2.39908547"><ele>1291</ele><speed>6.52</speed><time>2017-03-19T14:18:09Z</time><pdop>3.0</pdop><geoidheight>0.00</geoidheight><course>136.3</course><type>1</type></trkpt>
      <trkpt lat="42.99813582" lon="-2.39902156"><ele>1292</ele><speed>6.40</speed><time>2017-03-19T14:18:10Z</time><pdop>3.0</pdop><geoidheight>0.00</geoidheight><course>130.3</course><type>1</type></trkpt>
      <trkpt lat="42.99809819" lon="-2.39894818"><ele>1292</ele><speed>6.79</speed><time>2017-03-19T14:18:11Z</time><pdop>3.0</pdop><geoidheight>0.00</geoidheight><course>123.8</course><type>1</type></trkpt>
      <trkpt lat="42.99806214" lon="-2.39887703"><ele>1294</ele><speed>6.80</speed><time>2017-03-19T14:18:12Z</time><pdop>3.0</pdop><geoidheight>0.00</geoidheight><course>122.3</course><type>1</type></trkpt>
      <trkpt lat="42.99803221" lon="-2.39881523"><ele>1295</ele><speed>6.25</speed><time>2017-03-19T14:18:13Z</time><pdop>3.0</pdop><geoidheight>0.00</geoidheight><course>123.5</course><type>1</type></trkpt>
      <trkpt lat="42.99797951" lon="-2.39871999"><ele>1297</ele><speed>4.90</speed><time>2017-03-19T14:18:15Z</time><pdop>3.0</pdop><geoidheight>0.00</geoidheight><course>129.8</course><type>1</type></trkpt>
      <trkpt lat="42.99793774" lon="-2.39867022"><ele>1297</ele><speed>5.83</speed><time>2017-03-19T14:18:16Z</time><pdop>3.0</pdop><geoidheight>0.00</geoidheight><course>133.9</course><type>1</type></trkpt>
      <trkpt lat="42.99791336" lon="-2.39859883"><ele>1297</ele><speed>6.34</speed><time>2017-03-19T14:18:17Z</time><pdop>3.0</pdop><geoidheight>0.00</geoidheight><course>118.4</course><type>1</type></trkpt>
      <trkpt lat="42.99789223" lon="-2.39852188"><ele>1298</ele><speed>6.53</speed><time>2017-03-19T14:18:18Z</time><pdop>3.0</pdop><geoidheight>0.00</geoidheight><course>110.2</course><type>1</type></trkpt>
      <trkpt lat="42.99785536" lon="-2.39844676"><ele>1299</ele><speed>2.97</speed><time>2017-03-19T14:18:20Z</time><pdop>3.0</pdop><geoidheight>0.00</geoidheight><course>131.7</course><type>1</type></trkpt>
      <trkpt lat="42.99781147" lon="-2.39838437"><ele>1295</ele><speed>4.32</speed><time>2017-03-19T14:18:22Z</time><pdop>3.0</pdop><geoidheight>0.00</geoidheight><course>121.7</course><type>1</type></trkpt>
      <trkpt lat="42.99779353" lon="-2.3983024"><ele>1293</ele><speed>6.37</speed><time>2017-03-19T14:18:23Z</time><pdop>3.0</pdop><geoidheight>0.00</geoidheight><course>107.8</course><type>1</type></trkpt>
      <trkpt lat="42.99777907" lon="-2.39820994"><ele>1294</ele><speed>7.21</speed><time>2017-03-19T14:18:24Z</time><pdop>3.0</pdop><geoidheight>0.00</geoidheight><course>106.2</course><type>1</type></trkpt>
      <trkpt lat="42.99775989" lon="-2.39813831"><ele>1294</ele><speed>6.37</speed><time>2017-03-19T14:18:25Z</time><pdop>3.0</pdop><geoidheight>0.00</geoidheight><course>108.7</course><type>1</type></trkpt>
      <trkpt lat="42.99773203" lon="-2.39800935"><ele>1295</ele><speed>5.11</speed><time>2017-03-19T14:18:27Z</time><pdop>3.0</pdop><geoidheight>0.00</geoidheight><course>105.9</course><type>1</type></trkpt>
      <trkpt lat="42.99769654" lon="-2.3978626"><ele>1294</ele><speed>6.47</speed><time>2017-03-19T14:18:29Z</time><pdop>3.0</pdop><geoidheight>0.00</geoidheight><course>111.1</course><type>1</type></trkpt>
      <trkpt lat="42.99767137" lon="-2.39778957"><ele>1293</ele><speed>6.67</speed><time>2017-03-19T14:18:30Z</time><pdop>3.0</pdop><geoidheight>0.00</geoidheight><course>113.4</course><type>1</type></trkpt>
      <trkpt lat="42.99764244" lon="-2.39772599"><ele>1293</ele><speed>6.03</speed><time>2017-03-19T14:18:31Z</time><pdop>3.0</pdop><geoidheight>0.00</geoidheight><course>114.1</course><type>1</type></trkpt>
      <trkpt lat="42.99762926" lon="-2.39765214"><ele>1292</ele><speed>5.92</speed><time>2017-03-19T14:18:32Z</time><pdop>3.0</pdop><geoidheight>0.00</geoidheight><course>106.6</course><type>1</type></trkpt>
      <trkpt lat="42.99761516" lon="-2.3975789"><ele>1293</ele><speed>6.30</speed><time>2017-03-19T14:18:33Z</time><pdop>3.0</pdop><geoidheight>0.00</geoidheight><course>103.7</course><type>1</type></trkpt>
      <trkpt lat="42.99759177" lon="-2.39750435"><ele>1293</ele><speed>6.42</speed><time>2017-03-19T14:18:34Z</time><pdop>3.0</pdop><geoidheight>0.00</geoidheight><course>111.6</course><type>1</type></trkpt>
      <trkpt lat="42.99752944" lon="-2.39738794"><ele>1296</ele><speed>6.21</speed><time>2017-03-19T14:18:36Z</time><pdop>3.0</pdop><geoidheight>0.00</geoidheight><course>134.5</course><type>1</type></trkpt>
      <trkpt lat="42.99748426" lon="-2.39733913"><ele>1297</ele><speed>6.12</speed><time>2017-03-19T14:18:37Z</time><pdop>3.0</pdop><geoidheight>0.00</geoidheight><course>140.0</course><type>1</type></trkpt>
      <trkpt lat="42.99743809" lon="-2.39729926"><ele>1298</ele><speed>5.89</speed><time>2017-03-19T14:18:38Z</time><pdop>3.0</pdop><geoidheight>0.00</geoidheight><course>143.3</course><type>1</type></trkpt>
      <trkpt lat="42.99737181" lon="-2.39723218"><ele>1298</ele><speed>4.61</speed><time>2017-03-19T14:18:40Z</time><pdop>3.0</pdop><geoidheight>0.00</geoidheight><course>140.3</course><type>1</type></trkpt>
      <trkpt lat="42.99733276" lon="-2.39712723"><ele>1298</ele><speed>8.20</speed><time>2017-03-19T14:18:41Z</time><pdop>3.0</pdop><geoidheight>0.00</geoidheight><course>120.7</course><type>1</type></trkpt>
      <trkpt lat="42.99729634" lon="-2.39703073"><ele>1298</ele><speed>9.13</speed><time>2017-03-19T14:18:42Z</time><pdop>3.0</pdop><geoidheight>0.00</geoidheight><course>117.9</course><type>1</type></trkpt>
      <trkpt lat="42.9972589" lon="-2.39694501"><ele>1299</ele><speed>8.12</speed><time>2017-03-19T14:18:43Z</time><pdop>3.0</pdop><geoidheight>0.00</geoidheight><course>121.0</course><type>1</type></trkpt>
      <trkpt lat="42.9971915" lon="-2.39686132"><ele>1302</ele><speed>4.78</speed><time>2017-03-19T14:18:45Z</time><pdop>3.0</pdop><geoidheight>0.00</geoidheight><course>137.5</course><type>1</type></trkpt>
      <trkpt lat="42.99713861" lon="-2.39675105"><ele>1302</ele><speed>5.91</speed><time>2017-03-19T14:18:47Z</time><pdop>3.0</pdop><geoidheight>0.00</geoidheight><course>117.3</course><type>1</type></trkpt>
      <trkpt lat="42.99711523" lon="-2.39667357"><ele>1302</ele><speed>6.58</speed><time>2017-03-19T14:18:48Z</time><pdop>3.0</pdop><geoidheight>0.00</geoidheight><course>113.9</course><type>1</type></trkpt>
      <trkpt lat="42.9970919" lon="-2.39660012"><ele>1302</ele><speed>6.35</speed><time>2017-03-19T14:18:49Z</time><pdop>3.0</pdop><geoidheight>0.00</geoidheight><course>113.0</course><type>1</type></trkpt>
      <trkpt lat="42.99703058" lon="-2.39649377"><ele>1306</ele><speed>5.40</speed><time>2017-03-19T14:18:51Z</time><pdop>3.0</pdop><geoidheight>0.00</geoidheight><course>129.1</course><type>1</type></trkpt>
      <trkpt lat="42.99696283" lon="-2.39639201"><ele>1308</ele><speed>6.02</speed><time>2017-03-19T14:18:53Z</time><pdop>3.0</pdop><geoidheight>0.00</geoidheight><course>133.1</course><type>1</type></trkpt>
      <trkpt lat="42.99692461" lon="-2.39633271"><ele>1309</ele><speed>6.06</speed><time>2017-03-19T14:18:54Z</time><pdop>3.0</pdop><geoidheight>0.00</geoidheight><course>129.9</course><type>1</type></trkpt>
      <trkpt lat="42.99688953" lon="-2.39627132"><ele>1310</ele><speed>6.37</speed><time>2017-03-19T14:18:55Z</time><pdop>3.0</pdop><geoidheight>0.00</geoidheight><course>129.6</course><type>1</type></trkpt>
      <trkpt lat="42.99682513" lon="-2.3961768"><ele>1311</ele><speed>5.44</speed><time>2017-03-19T14:18:57Z</time><pdop>3.0</pdop><geoidheight>0.00</geoidheight><course>135.9</course><type>1</type></trkpt>
      <trkpt lat="42.99676513" lon="-2.39605181"><ele>1312</ele><speed>6.71</speed><time>2017-03-19T14:18:59Z</time><pdop>3.0</pdop><geoidheight>0.00</geoidheight><course>122.5</course><type>1</type></trkpt>
      <trkpt lat="42.99673244" lon="-2.3959874"><ele>1312</ele><speed>6.59</speed><time>2017-03-19T14:19:00Z</time><pdop>3.0</pdop><geoidheight>0.00</geoidheight><course>122.3</course><type>1</type></trkpt>
      <trkpt lat="42.99668112" lon="-2.39592952"><ele>1313</ele><speed>7.14</speed><time>2017-03-19T14:19:01Z</time><pdop>3.0</pdop><geoidheight>0.00</geoidheight><course>134.6</course><type>1</type></trkpt>
      <trkpt lat="42.99663502" lon="-2.39586533"><ele>1313</ele><speed>7.04</speed><time>2017-03-19T14:19:02Z</time><pdop>3.0</pdop><geoidheight>0.00</geoidheight><course>132.2</course><type>1</type></trkpt>
      <trkpt lat="42.99659787" lon="-2.3957931"><ele>1314</ele><speed>7.17</speed><time>2017-03-19T14:19:03Z</time><pdop>3.0</pdop><geoidheight>0.00</geoidheight><course>122.6</course><type>1</type></trkpt>
      <trkpt lat="42.99656019" lon="-2.39571174"><ele>1314</ele><speed>7.81</speed><time>2017-03-19T14:19:04Z</time><pdop>3.0</pdop><geoidheight>0.00</geoidheight><course>118.9</course><type>1</type></trkpt>
      <trkpt lat="42.99652263" lon="-2.39563812"><ele>1314</ele><speed>7.89</speed><time>2017-03-19T14:19:05Z</time><pdop>3.0</pdop><geoidheight>0.00</geoidheight><course>121.6</course><type>1</type></trkpt>
      <trkpt lat="42.9964837" lon="-2.39557457"><ele>1315</ele><speed>6.71</speed><time>2017-03-19T14:19:06Z</time><pdop>3.0</pdop><geoidheight>0.00</geoidheight><course>119.7</course><type>1</type></trkpt>
      <trkpt lat="42.99645983" lon="-2.39547522"><ele>1313</ele><speed>7.42</speed><time>2017-03-19T14:19:07Z</time><pdop>3.0</pdop><geoidheight>0.00</geoidheight><course>109.4</course><type>1</type></trkpt>
      <trkpt lat="42.99643455" lon="-2.39537819"><ele>1313</ele><speed>7.89</speed><time>2017-03-19T14:19:08Z</time><pdop>5.0</pdop><geoidheight>0.00</geoidheight><course>108.0</course><type>1</type></trkpt>
      <trkpt lat="42.99652664" lon="-2.39526865"><ele>1312</ele><speed>5.73</speed><time>2017-03-19T14:19:10Z</time><pdop>5.0</pdop><geoidheight>0.00</geoidheight><course>59.2</course><type>1</type></trkpt>
      <trkpt lat="42.996648" lon="-2.39532134"><ele>1312</ele><speed>6.07</speed><time>2017-03-19T14:19:11Z</time><pdop>4.0</pdop><geoidheight>0.00</geoidheight><course>4.8</course><type>1</type></trkpt>
      <trkpt lat="42.99670045" lon="-2.39538723"><ele>1311</ele><speed>6.20</speed><time>2017-03-19T14:19:12Z</time><pdop>3.0</pdop><geoidheight>0.00</geoidheight><course>328.5</course><type>1</type></trkpt>
      <trkpt lat="42.9967528" lon="-2.39545811"><ele>1310</ele><speed>6.78</speed><time>2017-03-19T14:19:13Z</time><pdop>3.0</pdop><geoidheight>0.00</geoidheight><course>314.9</course><type>1</type></trkpt>
      <trkpt lat="42.99678285" lon="-2.39553734"><ele>1309</ele><speed>7.51</speed><time>2017-03-19T14:19:14Z</time><pdop>3.0</pdop><geoidheight>0.00</geoidheight><course>301.5</course><type>1</type></trkpt>
      <trkpt lat="42.9968103" lon="-2.39564537"><ele>1307</ele><speed>8.41</speed><time>2017-03-19T14:19:15Z</time><pdop>3.0</pdop><geoidheight>0.00</geoidheight><course>292.0</course><type>1</type></trkpt>
      <trkpt lat="42.99683863" lon="-2.39576084"><ele>1306</ele><speed>8.70</speed><time>2017-03-19T14:19:16Z</time><pdop>3.0</pdop><geoidheight>0.00</geoidheight><course>287.5</course><type>1</type></trkpt>
      <trkpt lat="42.99686171" lon="-2.39586018"><ele>1306</ele><speed>8.69</speed><time>2017-03-19T14:19:17Z</time><pdop>3.0</pdop><geoidheight>0.00</geoidheight><course>288.7</course><type>1</type></trkpt>
      <trkpt lat="42.99688752" lon="-2.39595497"><ele>1305</ele><speed>8.13</speed><time>2017-03-19T14:19:18Z</time><pdop>3.0</pdop><geoidheight>0.00</geoidheight><course>292.3</course><type>1</type></trkpt>
      <trkpt lat="42.99691783" lon="-2.39604746"><ele>1305</ele><speed>7.85</speed><time>2017-03-19T14:19:19Z</time><pdop>3.0</pdop><geoidheight>0.00</geoidheight><course>295.4</course><type>1</type></trkpt>
      <trkpt lat="42.99694897" lon="-2.39614662"><ele>1305</ele><speed>8.16</speed><time>2017-03-19T14:19:20Z</time><pdop>3.0</pdop><geoidheight>0.00</geoidheight><course>295.2</course><type>1</type></trkpt>
      <trkpt lat="42.99697975" lon="-2.39624481"><ele>1304</ele><speed>8.75</speed><time>2017-03-19T14:19:21Z</time><pdop>3.0</pdop><geoidheight>0.00</geoidheight><course>292.9</course><type>1</type></trkpt>
      <trkpt lat="42.99700789" lon="-2.39635668"><ele>1305</ele><speed>9.54</speed><time>2017-03-19T14:19:22Z</time><pdop>3.0</pdop><geoidheight>0.00</geoidheight><course>291.6</course><type>1</type></trkpt>
      <trkpt lat="42.99704065" lon="-2.39646032"><ele>1306</ele><speed>9.62</speed><time>2017-03-19T14:19:23Z</time><pdop>3.0</pdop><geoidheight>0.00</geoidheight><course>294.6</course><type>1</type></trkpt>
      <trkpt lat="42.9970797" lon="-2.39656316"><ele>1306</ele><speed>9.48</speed><time>2017-03-19T14:19:24Z</time><pdop>3.0</pdop><geoidheight>0.00</geoidheight><course>298.4</course><type>1</type></trkpt>
      <trkpt lat="42.99712257" lon="-2.39667563"><ele>1306</ele><speed>9.58</speed><time>2017-03-19T14:19:25Z</time><pdop>3.0</pdop><geoidheight>0.00</geoidheight><course>299.0</course><type>1</type></trkpt>
      <trkpt lat="42.9971699" lon="-2.39677119"><ele>1305</ele><speed>8.87</speed><time>2017-03-19T14:19:26Z</time><pdop>3.0</pdop><geoidheight>0.00</geoidheight><course>300.8</course><type>1</type></trkpt>
      <trkpt lat="42.99720333" lon="-2.39687159"><ele>1306</ele><speed>9.23</speed><time>2017-03-19T14:19:27Z</time><pdop>3.0</pdop><geoidheight>0.00</geoidheight><course>297.4</course><type>1</type></trkpt>
      <trkpt lat="42.99723858" lon="-2.39697887"><ele>1308</ele><speed>9.55</speed><time>2017-03-19T14:19:28Z</time><pdop>3.0</pdop><geoidheight>0.00</geoidheight><course>295.2</course><type>1</type></trkpt>
      <trkpt lat="42.9972795" lon="-2.39708617"><ele>1308</ele><speed>9.63</speed><time>2017-03-19T14:19:29Z</time><pdop>3.0</pdop><geoidheight>0.00</geoidheight><course>299.1</course><type>1</type></trkpt>
      <trkpt lat="42.99731883" lon="-2.39714985"><ele>1309</ele><speed>8.16</speed><time>2017-03-19T14:19:30Z</time><pdop>3.0</pdop><geoidheight>0.00</geoidheight><course>308.2</course><type>1</type></trkpt>
      <trkpt lat="42.99737578" lon="-2.39716762"><ele>1309</ele><speed>6.76</speed><time>2017-03-19T14:19:31Z</time><pdop>3.0</pdop><geoidheight>0.00</geoidheight><course>330.2</course><type>1</type></trkpt>
      <trkpt lat="42.99743761" lon="-2.39707769"><ele>1308</ele><speed>4.87</speed><time>2017-03-19T14:19:33Z</time><pdop>3.0</pdop><geoidheight>0.00</geoidheight><course>29.9</course><type>1</type></trkpt>
      <trkpt lat="42.99739121" lon="-2.39690958"><ele>1309</ele><speed>7.49</speed><time>2017-03-19T14:19:35Z</time><pdop>4.0</pdop><geoidheight>0.00</geoidheight><course>117.5</course><type>1</type></trkpt>
      <trkpt lat="42.9972704" lon="-2.39680592"><ele>1309</ele><speed>9.06</speed><time>2017-03-19T14:19:37Z</time><pdop>4.0</pdop><geoidheight>0.00</geoidheight><course>156.1</course><type>1</type></trkpt>
      <trkpt lat="42.9971993" lon="-2.39676196"><ele>1309</ele><speed>9.18</speed><time>2017-03-19T14:19:38Z</time><pdop>3.0</pdop><geoidheight>0.00</geoidheight><course>160.2</course><type>1</type></trkpt>
      <trkpt lat="42.99712584" lon="-2.3967062"><ele>1309</ele><speed>9.27</speed><time>2017-03-19T14:19:39Z</time><pdop>3.0</pdop><geoidheight>0.00</geoidheight><course>156.5</course><type>1</type></trkpt>
      <trkpt lat="42.99708947" lon="-2.3966174"><ele>1311</ele><speed>7.79</speed><time>2017-03-19T14:19:40Z</time><pdop>3.0</pdop><geoidheight>0.00</geoidheight><course>134.8</course><type>1</type></trkpt>
      <trkpt lat="42.99706757" lon="-2.39653297"><ele>1312</ele><speed>6.87</speed><time>2017-03-19T14:19:41Z</time><pdop>3.0</pdop><geoidheight>0.00</geoidheight><course>115.6</course><type>1</type></trkpt>
      <trkpt lat="42.99702836" lon="-2.3964404"><ele>1313</ele><speed>8.07</speed><time>2017-03-19T14:19:42Z</time><pdop>3.0</pdop><geoidheight>0.00</geoidheight><course>119.0</course><type>1</type></trkpt>
      <trkpt lat="42.99705172" lon="-2.39634074"><ele>1316</ele><speed>4.63</speed><time>2017-03-19T14:19:44Z</time><pdop>3.0</pdop><geoidheight>0.00</geoidheight><course>86.5</course><type>1</type></trkpt>
      <trkpt lat="42.99711063" lon="-2.396215"><ele>1315</ele><speed>6.06</speed><time>2017-03-19T14:19:46Z</time><pdop>3.0</pdop><geoidheight>0.00</geoidheight><course>52.4</course><type>1</type></trkpt>
      <trkpt lat="42.99715593" lon="-2.3961637"><ele>1315</ele><speed>6.30</speed><time>2017-03-19T14:19:47Z</time><pdop>3.0</pdop><geoidheight>0.00</geoidheight><course>40.0</course><type>1</type></trkpt>
      <trkpt lat="42.99720786" lon="-2.39613535"><ele>1316</ele><speed>6.37</speed><time>2017-03-19T14:19:48Z</time><pdop>3.0</pdop><geoidheight>0.00</geoidheight><course>24.5</course><type>1</type></trkpt>
      <trkpt lat="42.99726352" lon="-2.39612407"><ele>1317</ele><speed>6.02</speed><time>2017-03-19T14:19:49Z</time><pdop>3.0</pdop><geoidheight>0.00</geoidheight><course>11.0</course><type>1</type></trkpt>
      <trkpt lat="42.99731834" lon="-2.39612073"><ele>1319</ele><speed>5.62</speed><time>2017-03-19T14:19:50Z</time><pdop>3.0</pdop><geoidheight>0.00</geoidheight><course>4.0</course><type>1</type></trkpt>
      <trkpt lat="42.99737248" lon="-2.39612496"><ele>1319</ele><speed>5.67</speed><time>2017-03-19T14:19:51Z</time><pdop>3.0</pdop><geoidheight>0.00</geoidheight><course>358.5</course><type>1</type></trkpt>
      <trkpt lat="42.9974762" lon="-2.39615873"><ele>1318</ele><speed>5.25</speed><time>2017-03-19T14:19:53Z</time><pdop>3.0</pdop><geoidheight>0.00</geoidheight><course>342.3</course><type>1</type></trkpt>
      <trkpt lat="42.99752025" lon="-2.39620121"><ele>1318</ele><speed>5.36</speed><time>2017-03-19T14:19:54Z</time><pdop>3.0</pdop><geoidheight>0.00</geoidheight><course>326.9</course><type>1</type></trkpt>
      <trkpt lat="42.9975556" lon="-2.39626475"><ele>1318</ele><speed>6.00</speed><time>2017-03-19T14:19:55Z</time><pdop>3.0</pdop><geoidheight>0.00</geoidheight><course>308.3</course><type>1</type></trkpt>
      <trkpt lat="42.99757938" lon="-2.3963445"><ele>1318</ele><speed>6.82</speed><time>2017-03-19T14:19:56Z</time><pdop>3.0</pdop><geoidheight>0.00</geoidheight><course>293.6</course><type>1</type></trkpt>
      <trkpt lat="42.99759385" lon="-2.39643141"><ele>1318</ele><speed>7.24</speed><time>2017-03-19T14:19:57Z</time><pdop>3.0</pdop><geoidheight>0.00</geoidheight><course>284.1</course><type>1</type></trkpt>
      <trkpt lat="42.99760893" lon="-2.39652004"><ele>1319</ele><speed>7.69</speed><time>2017-03-19T14:19:58Z</time><pdop>3.0</pdop><geoidheight>0.00</geoidheight><course>280.2</course><type>1</type></trkpt>
      <trkpt lat="42.99761648" lon="-2.39661925"><ele>1319</ele><speed>8.17</speed><time>2017-03-19T14:19:59Z</time><pdop>3.0</pdop><geoidheight>0.00</geoidheight><course>275.1</course><type>1</type></trkpt>
      <trkpt lat="42.9976181" lon="-2.39672342"><ele>1319</ele><speed>8.53</speed><time>2017-03-19T14:20:00Z</time><pdop>3.0</pdop><geoidheight>0.00</geoidheight><course>269.2</course><type>1</type></trkpt>
      <trkpt lat="42.99761229" lon="-2.39682856"><ele>1320</ele><speed>8.63</speed><time>2017-03-19T14:20:01Z</time><pdop>3.0</pdop><geoidheight>0.00</geoidheight><course>267.8</course><type>1</type></trkpt>
      <trkpt lat="42.99760827" lon="-2.39693378"><ele>1320</ele><speed>8.47</speed><time>2017-03-19T14:20:02Z</time><pdop>3.0</pdop><geoidheight>0.00</geoidheight><course>268.1</course><type>1</type></trkpt>
      <trkpt lat="42.99761606" lon="-2.39703667"><ele>1320</ele><speed>8.06</speed><time>2017-03-19T14:20:03Z</time><pdop>3.0</pdop><geoidheight>0.00</geoidheight><course>273.3</course><type>1</type></trkpt>
      <trkpt lat="42.9976267" lon="-2.39713622"><ele>1320</ele><speed>7.97</speed><time>2017-03-19T14:20:04Z</time><pdop>3.0</pdop><geoidheight>0.00</geoidheight><course>276.7</course><type>1</type></trkpt>
      <trkpt lat="42.99763714" lon="-2.39722747"><ele>1320</ele><speed>8.03</speed><time>2017-03-19T14:20:05Z</time><pdop>3.0</pdop><geoidheight>0.00</geoidheight><course>282.1</course><type>1</type></trkpt>
      <trkpt lat="42.99765638" lon="-2.39732871"><ele>1321</ele><speed>8.30</speed><time>2017-03-19T14:20:06Z</time><pdop>3.0</pdop><geoidheight>0.00</geoidheight><course>286.0</course><type>1</type></trkpt>
      <trkpt lat="42.99769288" lon="-2.39742255"><ele>1321</ele><speed>8.20</speed><time>2017-03-19T14:20:07Z</time><pdop>3.0</pdop><geoidheight>0.00</geoidheight><course>289.0</course><type>1</type></trkpt>
      <trkpt lat="42.99771462" lon="-2.39751503"><ele>1322</ele><speed>7.68</speed><time>2017-03-19T14:20:08Z</time><pdop>3.0</pdop><geoidheight>0.00</geoidheight><course>287.5</course><type>1</type></trkpt>
      <trkpt lat="42.99773514" lon="-2.39760093"><ele>1323</ele><speed>7.20</speed><time>2017-03-19T14:20:09Z</time><pdop>3.0</pdop><geoidheight>0.00</geoidheight><course>285.7</course><type>1</type></trkpt>
      <trkpt lat="42.99774902" lon="-2.3976966"><ele>1322</ele><speed>7.40</speed><time>2017-03-19T14:20:10Z</time><pdop>3.0</pdop><geoidheight>0.00</geoidheight><course>283.2</course><type>1</type></trkpt>
      <trkpt lat="42.99775949" lon="-2.39780607"><ele>1322</ele><speed>8.65</speed><time>2017-03-19T14:20:11Z</time><pdop>3.0</pdop><geoidheight>0.00</geoidheight><course>280.5</course><type>1</type></trkpt>
      <trkpt lat="42.99777432" lon="-2.39793127"><ele>1320</ele><speed>10.24</speed><time>2017-03-19T14:20:12Z</time><pdop>3.0</pdop><geoidheight>0.00</geoidheight><course>277.9</course><type>1</type></trkpt>
      <trkpt lat="42.99778657" lon="-2.3980572"><ele>1320</ele><speed>10.89</speed><time>2017-03-19T14:20:13Z</time><pdop>3.0</pdop><geoidheight>0.00</geoidheight><course>276.1</course><type>1</type></trkpt>
      <trkpt lat="42.99779694" lon="-2.39817743"><ele>1321</ele><speed>9.86</speed><time>2017-03-19T14:20:14Z</time><pdop>3.0</pdop><geoidheight>0.00</geoidheight><course>275.0</course><type>1</type></trkpt>
      <trkpt lat="42.99780579" lon="-2.39827891"><ele>1321</ele><speed>8.46</speed><time>2017-03-19T14:20:15Z</time><pdop>3.0</pdop><geoidheight>0.00</geoidheight><course>276.3</course><type>1</type></trkpt>
      <trkpt lat="42.9978163" lon="-2.39837108"><ele>1321</ele><speed>7.70</speed><time>2017-03-19T14:20:16Z</time><pdop>3.0</pdop><geoidheight>0.00</geoidheight><course>279.5</course><type>1</type></trkpt>
      <trkpt lat="42.99783903" lon="-2.3984605"><ele>1321</ele><speed>7.72</speed><time>2017-03-19T14:20:17Z</time><pdop>3.0</pdop><geoidheight>0.00</geoidheight><course>286.2</course><type>1</type></trkpt>
      <trkpt lat="42.99786024" lon="-2.39855241"><ele>1319</ele><speed>7.97</speed><time>2017-03-19T14:20:18Z</time><pdop>3.0</pdop><geoidheight>0.00</geoidheight><course>288.8</course><type>1</type></trkpt>
      <trkpt lat="42.99788633" lon="-2.3986451"><ele>1319</ele><speed>7.93</speed><time>2017-03-19T14:20:19Z</time><pdop>3.0</pdop><geoidheight>0.00</geoidheight><course>293.3</course><type>1</type></trkpt>
      <trkpt lat="42.99791886" lon="-2.39872471"><ele>1318</ele><speed>7.77</speed><time>2017-03-19T14:20:20Z</time><pdop>3.0</pdop><geoidheight>0.00</geoidheight><course>298.0</course><type>1</type></trkpt>
      <trkpt lat="42.99795353" lon="-2.39880363"><ele>1318</ele><speed>7.34</speed><time>2017-03-19T14:20:21Z</time><pdop>3.0</pdop><geoidheight>0.00</geoidheight><course>299.3</course><type>1</type></trkpt>
      <trkpt lat="42.99798726" lon="-2.39887873"><ele>1318</ele><speed>7.16</speed><time>2017-03-19T14:20:22Z</time><pdop>3.0</pdop><geoidheight>0.00</geoidheight><course>298.8</course><type>1</type></trkpt>
      <trkpt lat="42.99801678" lon="-2.39895672"><ele>1318</ele><speed>7.09</speed><time>2017-03-19T14:20:23Z</time><pdop>3.0</pdop><geoidheight>0.00</geoidheight><course>295.7</course><type>1</type></trkpt>
      <trkpt lat="42.99804081" lon="-2.39903944"><ele>1319</ele><speed>7.24</speed><time>2017-03-19T14:20:24Z</time><pdop>3.0</pdop><geoidheight>0.00</geoidheight><course>294.1</course><type>1</type></trkpt>
      <trkpt lat="42.9980649" lon="-2.39911311"><ele>1321</ele><speed>6.72</speed><time>2017-03-19T14:20:25Z</time><pdop>3.0</pdop><geoidheight>0.00</geoidheight><course>293.8</course><type>1</type></trkpt>
      <trkpt lat="42.99807784" lon="-2.39918717"><ele>1322</ele><speed>5.76</speed><time>2017-03-19T14:20:26Z</time><pdop>3.0</pdop><geoidheight>0.00</geoidheight><course>293.2</course><type>1</type></trkpt>
      <trkpt lat="42.99809934" lon="-2.39929406"><ele>1322</ele><speed>4.29</speed><time>2017-03-19T14:20:28Z</time><pdop>3.0</pdop><geoidheight>0.00</geoidheight><course>291.3</course><type>1</type></trkpt>
      <trkpt lat="42.99814454" lon="-2.39937695"><ele>1321</ele><speed>4.63</speed><time>2017-03-19T14:20:30Z</time><pdop>4.0</pdop><geoidheight>0.00</geoidheight><course>310.5</course><type>1</type></trkpt>
      <trkpt lat="42.99825954" lon="-2.39942748"><ele>1323</ele><speed>4.53</speed><time>2017-03-19T14:20:33Z</time><pdop>4.0</pdop><geoidheight>0.00</geoidheight><course>336.9</course><type>1</type></trkpt>
      <trkpt lat="42.99833404" lon="-2.3994576"><ele>1327</ele><speed>3.61</speed><time>2017-03-19T14:20:35Z</time><pdop>4.0</pdop><geoidheight>0.00</geoidheight><course>343.5</course><type>1</type></trkpt>
      <trkpt lat="42.99839733" lon="-2.3993426"><ele>1328</ele><speed>5.85</speed><time>2017-03-19T14:20:38Z</time><pdop>3.0</pdop><geoidheight>0.00</geoidheight><course>70.8</course><type>1</type></trkpt>
      <trkpt lat="42.99839727" lon="-2.39925228"><ele>1282</ele><speed>7.05</speed><time>2017-03-19T14:20:39Z</time><pdop>3.0</pdop><geoidheight>0.00</geoidheight><course>90.8</course><type>1</type></trkpt>
      <trkpt lat="42.99837072" lon="-2.39916928"><ele>1293</ele><speed>7.51</speed><time>2017-03-19T14:20:40Z</time><pdop>3.0</pdop><geoidheight>0.00</geoidheight><course>112.2</course><type>1</type></trkpt>
      <trkpt lat="42.9983275" lon="-2.39909659"><ele>1300</ele><speed>7.98</speed><time>2017-03-19T14:20:41Z</time><pdop>3.0</pdop><geoidheight>0.00</geoidheight><course>127.7</course><type>1</type></trkpt>
      <trkpt lat="42.9982721" lon="-2.39903953"><ele>1310</ele><speed>7.48</speed><time>2017-03-19T14:20:42Z</time><pdop>3.0</pdop><geoidheight>0.00</geoidheight><course>141.5</course><type>1</type></trkpt>
      <trkpt lat="42.99822212" lon="-2.39898219"><ele>1315</ele><speed>7.31</speed><time>2017-03-19T14:20:43Z</time><pdop>3.0</pdop><geoidheight>0.00</geoidheight><course>141.6</course><type>1</type></trkpt>
      <trkpt lat="42.99816704" lon="-2.39890183"><ele>1318</ele><speed>8.39</speed><time>2017-03-19T14:20:44Z</time><pdop>3.0</pdop><geoidheight>0.00</geoidheight><course>138.1</course><type>1</type></trkpt>
      <trkpt lat="42.99811627" lon="-2.398811"><ele>1319</ele><speed>9.86</speed><time>2017-03-19T14:20:45Z</time><pdop>3.0</pdop><geoidheight>0.00</geoidheight><course>130.0</course><type>1</type></trkpt>
      <trkpt lat="42.99807686" lon="-2.39868443"><ele>1321</ele><speed>10.27</speed><time>2017-03-19T14:20:46Z</time><pdop>3.0</pdop><geoidheight>0.00</geoidheight><course>116.3</course><type>1</type></trkpt>
      <trkpt lat="42.99807229" lon="-2.39857455"><ele>1322</ele><speed>9.04</speed><time>2017-03-19T14:20:47Z</time><pdop>3.0</pdop><geoidheight>0.00</geoidheight><course>94.6</course><type>1</type></trkpt>
      <trkpt lat="42.998098" lon="-2.39849669"><ele>1323</ele><speed>7.18</speed><time>2017-03-19T14:20:48Z</time><pdop>3.0</pdop><geoidheight>0.00</geoidheight><course>66.0</course><type>1</type></trkpt>
      <trkpt lat="42.99814517" lon="-2.39845751"><ele>1324</ele><speed>6.01</speed><time>2017-03-19T14:20:49Z</time><pdop>3.0</pdop><geoidheight>0.00</geoidheight><course>32.2</course><type>1</type></trkpt>
      <trkpt lat="42.99819919" lon="-2.39846166"><ele>1325</ele><speed>5.56</speed><time>2017-03-19T14:20:50Z</time><pdop>3.0</pdop><geoidheight>0.00</geoidheight><course>1.1</course><type>1</type></trkpt>
      <trkpt lat="42.99824921" lon="-2.39849433"><ele>1325</ele><speed>5.52</speed><time>2017-03-19T14:20:51Z</time><pdop>3.0</pdop><geoidheight>0.00</geoidheight><course>336.3</course><type>1</type></trkpt>
      <trkpt lat="42.99831789" lon="-2.39860174"><ele>1324</ele><speed>5.81</speed><time>2017-03-19T14:20:53Z</time><pdop>3.0</pdop><geoidheight>0.00</geoidheight><course>306.5</course><type>1</type></trkpt>
      <trkpt lat="42.99835506" lon="-2.39866424"><ele>1324</ele><speed>6.26</speed><time>2017-03-19T14:20:54Z</time><pdop>3.0</pdop><geoidheight>0.00</geoidheight><course>305.4</course><type>1</type></trkpt>
      <trkpt lat="42.99838585" lon="-2.3987294"><ele>1324</ele><speed>6.43</speed><time>2017-03-19T14:20:55Z</time><pdop>3.0</pdop><geoidheight>0.00</geoidheight><course>305.0</course><type>1</type></trkpt>
      <trkpt lat="42.99841551" lon="-2.39879694"><ele>1324</ele><speed>6.03</speed><time>2017-03-19T14:20:56Z</time><pdop>3.0</pdop><geoidheight>0.00</geoidheight><course>303.3</course><type>1</type></trkpt>
      <trkpt lat="42.99844297" lon="-2.39886303"><ele>1325</ele><speed>6.04</speed><time>2017-03-19T14:20:57Z</time><pdop>3.0</pdop><geoidheight>0.00</geoidheight><course>302.4</course><type>1</type></trkpt>
      <trkpt lat="42.99846894" lon="-2.39893026"><ele>1324</ele><speed>6.38</speed><time>2017-03-19T14:20:58Z</time><pdop>3.0</pdop><geoidheight>0.00</geoidheight><course>300.7</course><type>1</type></trkpt>
      <trkpt lat="42.99849993" lon="-2.39899743"><ele>1325</ele><speed>6.47</speed><time>2017-03-19T14:20:59Z</time><pdop>3.0</pdop><geoidheight>0.00</geoidheight><course>302.0</course><type>1</type></trkpt>
      <trkpt lat="42.99853172" lon="-2.39906533"><ele>1324</ele><speed>6.43</speed><time>2017-03-19T14:21:00Z</time><pdop>3.0</pdop><geoidheight>0.00</geoidheight><course>304.9</course><type>1</type></trkpt>
      <trkpt lat="42.9986093" lon="-2.39919758"><ele>1323</ele><speed>6.37</speed><time>2017-03-19T14:21:02Z</time><pdop>6.0</pdop><geoidheight>0.00</geoidheight><course>307.1</course><type>1</type></trkpt>
      <trkpt lat="42.99868335" lon="-2.3994967"><ele>1326</ele><speed>8.25</speed><time>2017-03-19T14:21:05Z</time><pdop>9.0</pdop><geoidheight>0.00</geoidheight><course>296.5</course><type>1</type></trkpt>
      <trkpt lat="42.99881444" lon="-2.39954825"><ele>1325</ele><speed>5.49</speed><time>2017-03-19T14:21:08Z</time><pdop>6.0</pdop><geoidheight>0.00</geoidheight><course>321.1</course><type>1</type></trkpt>
      <trkpt lat="42.99892124" lon="-2.39963911"><ele>1323</ele><speed>6.97</speed><time>2017-03-19T14:21:10Z</time><pdop>6.0</pdop><geoidheight>0.00</geoidheight><course>329.0</course><type>1</type></trkpt>
      <trkpt lat="42.99901545" lon="-2.39972782"><ele>1321</ele><speed>7.03</speed><time>2017-03-19T14:21:12Z</time><pdop>6.0</pdop><geoidheight>0.00</geoidheight><course>327.4</course><type>1</type></trkpt>
      <trkpt lat="42.99912771" lon="-2.39979541"><ele>1323</ele><speed>4.71</speed><time>2017-03-19T14:21:15Z</time><pdop>6.0</pdop><geoidheight>0.00</geoidheight><course>343.1</course><type>1</type></trkpt>
      <trkpt lat="42.99928956" lon="-2.39967658"><ele>1323</ele><speed>4.54</speed><time>2017-03-19T14:21:19Z</time><pdop>8.0</pdop><geoidheight>0.00</geoidheight><course>31.6</course><type>1</type></trkpt>
      <trkpt lat="42.99935647" lon="-2.39938746"><ele>1322</ele><speed>7.09</speed><time>2017-03-19T14:21:22Z</time><pdop>15.0</pdop><geoidheight>0.00</geoidheight><course>66.5</course><type>1</type></trkpt>
      <trkpt lat="42.99959101" lon="-2.39941094"><ele>1319</ele><speed>5.44</speed><time>2017-03-19T14:21:27Z</time><pdop>6.0</pdop><geoidheight>0.00</geoidheight><course>357.9</course><type>1</type></trkpt>
      <trkpt lat="42.99969879" lon="-2.39949758"><ele>1320</ele><speed>5.56</speed><time>2017-03-19T14:21:29Z</time><pdop>5.0</pdop><geoidheight>0.00</geoidheight><course>332.3</course><type>1</type></trkpt>
      <trkpt lat="42.99977052" lon="-2.39963981"><ele>1319</ele><speed>7.16</speed><time>2017-03-19T14:21:31Z</time><pdop>5.0</pdop><geoidheight>0.00</geoidheight><course>302.2</course><type>1</type></trkpt>
      <trkpt lat="42.99980078" lon="-2.39976659"><ele>1317</ele><speed>8.55</speed><time>2017-03-19T14:21:32Z</time><pdop>4.0</pdop><geoidheight>0.00</geoidheight><course>289.2</course><type>1</type></trkpt>
      <trkpt lat="42.99982439" lon="-2.39986127"><ele>1317</ele><speed>8.94</speed><time>2017-03-19T14:21:33Z</time><pdop>3.0</pdop><geoidheight>0.00</geoidheight><course>280.9</course><type>1</type></trkpt>
      <trkpt lat="42.99981682" lon="-2.39997604"><ele>1316</ele><speed>9.24</speed><time>2017-03-19T14:21:34Z</time><pdop>3.0</pdop><geoidheight>0.00</geoidheight><course>269.2</course><type>1</type></trkpt>
      <trkpt lat="42.99981126" lon="-2.40009029"><ele>1316</ele><speed>9.28</speed><time>2017-03-19T14:21:35Z</time><pdop>3.0</pdop><geoidheight>0.00</geoidheight><course>265.3</course><type>1</type></trkpt>
      <trkpt lat="42.99980161" lon="-2.40021669"><ele>1316</ele><speed>10.08</speed><time>2017-03-19T14:21:36Z</time><pdop>3.0</pdop><geoidheight>0.00</geoidheight><course>264.4</course><type>1</type></trkpt>
      <trkpt lat="42.99980602" lon="-2.40034357"><ele>1314</ele><speed>10.22</speed><time>2017-03-19T14:21:37Z</time><pdop>3.0</pdop><geoidheight>0.00</geoidheight><course>268.8</course><type>1</type></trkpt>
      <trkpt lat="42.99981116" lon="-2.40045306"><ele>1313</ele><speed>9.07</speed><time>2017-03-19T14:21:38Z</time><pdop>3.0</pdop><geoidheight>0.00</geoidheight><course>273.7</course><type>1</type></trkpt>
      <trkpt lat="42.99982242" lon="-2.4005588"><ele>1313</ele><speed>8.07</speed><time>2017-03-19T14:21:39Z</time><pdop>3.0</pdop><geoidheight>0.00</geoidheight><course>276.3</course><type>1</type></trkpt>
      <trkpt lat="42.99982098" lon="-2.40064267"><ele>1312</ele><speed>7.14</speed><time>2017-03-19T14:21:40Z</time><pdop>3.0</pdop><geoidheight>0.00</geoidheight><course>273.3</course><type>1</type></trkpt>
      <trkpt lat="42.99983067" lon="-2.40077011"><ele>1309</ele><speed>9.60</speed><time>2017-03-19T14:21:41Z</time><pdop>3.0</pdop><geoidheight>0.00</geoidheight><course>278.5</course><type>1</type></trkpt>
      <trkpt lat="42.99985718" lon="-2.40089408"><ele>1306</ele><speed>10.40</speed><time>2017-03-19T14:21:42Z</time><pdop>3.0</pdop><geoidheight>0.00</geoidheight><course>290.4</course><type>1</type></trkpt>
      <trkpt lat="42.99991369" lon="-2.40098858"><ele>1305</ele><speed>9.93</speed><time>2017-03-19T14:21:43Z</time><pdop>3.0</pdop><geoidheight>0.00</geoidheight><course>311.9</course><type>1</type></trkpt>
      <trkpt lat="42.99998177" lon="-2.40108254"><ele>1304</ele><speed>10.48</speed><time>2017-03-19T14:21:44Z</time><pdop>4.0</pdop><geoidheight>0.00</geoidheight><course>315.0</course><type>1</type></trkpt>
      <trkpt lat="43.00005128" lon="-2.40108139"><ele>1301</ele><speed>4.16</speed><time>2017-03-19T14:21:46Z</time><pdop>3.0</pdop><geoidheight>0.00</geoidheight><course>4.2</course><type>1</type></trkpt>
      <trkpt lat="43.0000999" lon="-2.40102766"><ele>1301</ele><speed>3.51</speed><time>2017-03-19T14:21:48Z</time><pdop>3.0</pdop><geoidheight>0.00</geoidheight><course>34.6</course><type>1</type></trkpt>
      <trkpt lat="43.00013711" lon="-2.40093783"><ele>1298</ele><speed>4.76</speed><time>2017-03-19T14:21:50Z</time><pdop>4.0</pdop><geoidheight>0.00</geoidheight><course>59.4</course><type>1</type></trkpt>
      <trkpt lat="43.00015638" lon="-2.4008051"><ele>1298</ele><speed>4.46</speed><time>2017-03-19T14:21:52Z</time><pdop>3.0</pdop><geoidheight>0.00</geoidheight><course>73.2</course><type>1</type></trkpt>
      <trkpt lat="43.00016672" lon="-2.40069331"><ele>1298</ele><speed>4.07</speed><time>2017-03-19T14:21:54Z</time><pdop>3.0</pdop><geoidheight>0.00</geoidheight><course>82.7</course><type>1</type></trkpt>
      <trkpt lat="43.00015485" lon="-2.40055843"><ele>1295</ele><speed>5.71</speed><time>2017-03-19T14:21:56Z</time><pdop>3.0</pdop><geoidheight>0.00</geoidheight><course>93.6</course><type>1</type></trkpt>
      <trkpt lat="43.00014589" lon="-2.40048187"><ele>1294</ele><speed>6.29</speed><time>2017-03-19T14:21:57Z</time><pdop>3.0</pdop><geoidheight>0.00</geoidheight><course>95.5</course><type>1</type></trkpt>
      <trkpt lat="43.00012303" lon="-2.40035378"><ele>1293</ele><speed>4.90</speed><time>2017-03-19T14:21:59Z</time><pdop>4.0</pdop><geoidheight>0.00</geoidheight><course>103.3</course><type>1</type></trkpt>
      <trkpt lat="43.00007944" lon="-2.40024445"><ele>1291</ele><speed>5.03</speed><time>2017-03-19T14:22:01Z</time><pdop>4.0</pdop><geoidheight>0.00</geoidheight><course>116.1</course><type>1</type></trkpt>
      <trkpt lat="43.0000525" lon="-2.40014573"><ele>1291</ele><speed>6.46</speed><time>2017-03-19T14:22:02Z</time><pdop>3.0</pdop><geoidheight>0.00</geoidheight><course>115.1</course><type>1</type></trkpt>
      <trkpt lat="42.99998605" lon="-2.40000643"><ele>1289</ele><speed>6.67</speed><time>2017-03-19T14:22:04Z</time><pdop>4.0</pdop><geoidheight>0.00</geoidheight><course>121.2</course><type>1</type></trkpt>
      <trkpt lat="42.99990021" lon="-2.39989509"><ele>1289</ele><speed>7.08</speed><time>2017-03-19T14:22:06Z</time><pdop>4.0</pdop><geoidheight>0.00</geoidheight><course>142.8</course><type>1</type></trkpt>
      <trkpt lat="42.99978966" lon="-2.39977795"><ele>1286</ele><speed>8.58</speed><time>2017-03-19T14:22:08Z</time><pdop>3.0</pdop><geoidheight>0.00</geoidheight><course>146.8</course><type>1</type></trkpt>
      <trkpt lat="42.99972446" lon="-2.39971911"><ele>1285</ele><speed>9.24</speed><time>2017-03-19T14:22:09Z</time><pdop>3.0</pdop><geoidheight>0.00</geoidheight><course>149.2</course><type>1</type></trkpt>
      <trkpt lat="42.99964662" lon="-2.39966199"><ele>1285</ele><speed>9.73</speed><time>2017-03-19T14:22:10Z</time><pdop>3.0</pdop><geoidheight>0.00</geoidheight><course>153.9</course><type>1</type></trkpt>
      <trkpt lat="42.99956731" lon="-2.39961743"><ele>1285</ele><speed>9.90</speed><time>2017-03-19T14:22:11Z</time><pdop>3.0</pdop><geoidheight>0.00</geoidheight><course>157.9</course><type>1</type></trkpt>
      <trkpt lat="42.999489" lon="-2.39956861"><ele>1286</ele><speed>9.94</speed><time>2017-03-19T14:22:12Z</time><pdop>3.0</pdop><geoidheight>0.00</geoidheight><course>158.3</course><type>1</type></trkpt>
      <trkpt lat="42.99940419" lon="-2.39952476"><ele>1285</ele><speed>9.96</speed><time>2017-03-19T14:22:13Z</time><pdop>3.0</pdop><geoidheight>0.00</geoidheight><course>156.4</course><type>1</type></trkpt>
      <trkpt lat="42.99932956" lon="-2.39947293"><ele>1285</ele><speed>9.61</speed><time>2017-03-19T14:22:14Z</time><pdop>3.0</pdop><geoidheight>0.00</geoidheight><course>153.8</course><type>1</type></trkpt>
      <trkpt lat="42.99925355" lon="-2.39942713"><ele>1285</ele><speed>9.36</speed><time>2017-03-19T14:22:15Z</time><pdop>3.0</pdop><geoidheight>0.00</geoidheight><course>155.2</course><type>1</type></trkpt>
      <trkpt lat="42.99918825" lon="-2.39937119"><ele>1285</ele><speed>8.76</speed><time>2017-03-19T14:22:16Z</time><pdop>3.0</pdop><geoidheight>0.00</geoidheight><course>156.4</course><type>1</type></trkpt>
      <trkpt lat="42.99911285" lon="-2.39933899"><ele>1284</ele><speed>8.86</speed><time>2017-03-19T14:22:17Z</time><pdop>3.0</pdop><geoidheight>0.00</geoidheight><course>160.3</course><type>1</type></trkpt>
      <trkpt lat="42.99903688" lon="-2.3993012"><ele>1284</ele><speed>9.08</speed><time>2017-03-19T14:22:18Z</time><pdop>3.0</pdop><geoidheight>0.00</geoidheight><course>160.0</course><type>1</type></trkpt>
      <trkpt lat="42.99896105" lon="-2.39924008"><ele>1285</ele><speed>9.74</speed><time>2017-03-19T14:22:19Z</time><pdop>3.0</pdop><geoidheight>0.00</geoidheight><course>156.0</course><type>1</type></trkpt>
      <trkpt lat="42.998887" lon="-2.39918173"><ele>1286</ele><speed>9.86</speed><time>2017-03-19T14:22:20Z</time><pdop>3.0</pdop><geoidheight>0.00</geoidheight><course>150.8</course><type>1</type></trkpt>
      <trkpt lat="42.99882073" lon="-2.39911912"><ele>1286</ele><speed>9.00</speed><time>2017-03-19T14:22:21Z</time><pdop>3.0</pdop><geoidheight>0.00</geoidheight><course>146.1</course><type>1</type></trkpt>
      <trkpt lat="42.99875899" lon="-2.39905872"><ele>1287</ele><speed>8.45</speed><time>2017-03-19T14:22:22Z</time><pdop>3.0</pdop><geoidheight>0.00</geoidheight><course>144.2</course><type>1</type></trkpt>
      <trkpt lat="42.99869146" lon="-2.39900195"><ele>1289</ele><speed>8.70</speed><time>2017-03-19T14:22:23Z</time><pdop>3.0</pdop><geoidheight>0.00</geoidheight><course>144.3</course><type>1</type></trkpt>
      <trkpt lat="42.99862619" lon="-2.39893665"><ele>1289</ele><speed>9.09</speed><time>2017-03-19T14:22:24Z</time><pdop>3.0</pdop><geoidheight>0.00</geoidheight><course>143.8</course><type>1</type></trkpt>
      <trkpt lat="42.99855824" lon="-2.39886622"><ele>1290</ele><speed>9.76</speed><time>2017-03-19T14:22:25Z</time><pdop>3.0</pdop><geoidheight>0.00</geoidheight><course>143.0</course><type>1</type></trkpt>
      <trkpt lat="42.99848963" lon="-2.39879284"><ele>1291</ele><speed>10.06</speed><time>2017-03-19T14:22:26Z</time><pdop>3.0</pdop><geoidheight>0.00</geoidheight><course>141.6</course><type>1</type></trkpt>
      <trkpt lat="42.99842051" lon="-2.39871732"><ele>1292</ele><speed>9.76</speed><time>2017-03-19T14:22:27Z</time><pdop>3.0</pdop><geoidheight>0.00</geoidheight><course>139.6</course><type>1</type></trkpt>
      <trkpt lat="42.99835737" lon="-2.39864391"><ele>1292</ele><speed>9.45</speed><time>2017-03-19T14:22:28Z</time><pdop>3.0</pdop><geoidheight>0.00</geoidheight><course>139.7</course><type>1</type></trkpt>
      <trkpt lat="42.99828685" lon="-2.39857296"><ele>1293</ele><speed>9.48</speed><time>2017-03-19T14:22:29Z</time><pdop>3.0</pdop><geoidheight>0.00</geoidheight><course>141.5</course><type>1</type></trkpt>
      <trkpt lat="42.998217" lon="-2.39849539"><ele>1293</ele><speed>9.84</speed><time>2017-03-19T14:22:30Z</time><pdop>3.0</pdop><geoidheight>0.00</geoidheight><course>141.7</course><type>1</type></trkpt>
      <trkpt lat="42.99815072" lon="-2.39842003"><ele>1294</ele><speed>9.43</speed><time>2017-03-19T14:22:31Z</time><pdop>3.0</pdop><geoidheight>0.00</geoidheight><course>138.2</course><type>1</type></trkpt>
      <trkpt lat="42.99809513" lon="-2.39834026"><ele>1295</ele><speed>9.08</speed><time>2017-03-19T14:22:32Z</time><pdop>3.0</pdop><geoidheight>0.00</geoidheight><course>132.5</course><type>1</type></trkpt>
      <trkpt lat="42.99804504" lon="-2.39825717"><ele>1295</ele><speed>9.17</speed><time>2017-03-19T14:22:33Z</time><pdop>3.0</pdop><geoidheight>0.00</geoidheight><course>129.5</course><type>1</type></trkpt>
      <trkpt lat="42.99799097" lon="-2.39817056"><ele>1296</ele><speed>9.44</speed><time>2017-03-19T14:22:34Z</time><pdop>3.0</pdop><geoidheight>0.00</geoidheight><course>129.7</course><type>1</type></trkpt>
      <trkpt lat="42.99793882" lon="-2.39808374"><ele>1296</ele><speed>9.28</speed><time>2017-03-19T14:22:35Z</time><pdop>3.0</pdop><geoidheight>0.00</geoidheight><course>130.3</course><type>1</type></trkpt>
      <trkpt lat="42.99789342" lon="-2.39800205"><ele>1297</ele><speed>8.46</speed><time>2017-03-19T14:22:36Z</time><pdop>3.0</pdop><geoidheight>0.00</geoidheight><course>127.5</course><type>1</type></trkpt>
      <trkpt lat="42.9978649" lon="-2.39792468"><ele>1297</ele><speed>7.10</speed><time>2017-03-19T14:22:37Z</time><pdop>3.0</pdop><geoidheight>0.00</geoidheight><course>117.3</course><type>1</type></trkpt>
      <trkpt lat="42.99785199" lon="-2.39784859"><ele>1297</ele><speed>6.31</speed><time>2017-03-19T14:22:38Z</time><pdop>3.0</pdop><geoidheight>0.00</geoidheight><course>97.9</course><type>1</type></trkpt>
      <trkpt lat="42.99791526" lon="-2.39774022"><ele>1297</ele><speed>6.58</speed><time>2017-03-19T14:22:40Z</time><pdop>3.0</pdop><geoidheight>0.00</geoidheight><course>41.2</course><type>1</type></trkpt>
      <trkpt lat="42.99798307" lon="-2.39773028"><ele>1297</ele><speed>7.28</speed><time>2017-03-19T14:22:41Z</time><pdop>3.0</pdop><geoidheight>0.00</geoidheight><course>9.5</course><type>1</type></trkpt>
      <trkpt lat="42.99805191" lon="-2.39777165"><ele>1297</ele><speed>7.90</speed><time>2017-03-19T14:22:42Z</time><pdop>3.0</pdop><geoidheight>0.00</geoidheight><course>338.0</course><type>1</type></trkpt>
      <trkpt lat="42.99809463" lon="-2.39785736"><ele>1298</ele><speed>8.29</speed><time>2017-03-19T14:22:43Z</time><pdop>3.0</pdop><geoidheight>0.00</geoidheight><course>305.6</course><type>1</type></trkpt>
      <trkpt lat="42.99812784" lon="-2.39793533"><ele>1298</ele><speed>7.50</speed><time>2017-03-19T14:22:44Z</time><pdop>3.0</pdop><geoidheight>0.00</geoidheight><course>300.7</course><type>1</type></trkpt>
      <trkpt lat="42.99813465" lon="-2.39805627"><ele>1299</ele><speed>8.66</speed><time>2017-03-19T14:22:45Z</time><pdop>3.0</pdop><geoidheight>0.00</geoidheight><course>281.2</course><type>1</type></trkpt>
      <trkpt lat="42.99806132" lon="-2.39816906"><ele>1299</ele><speed>9.55</speed><time>2017-03-19T14:22:46Z</time><pdop>3.0</pdop><geoidheight>0.00</geoidheight><course>245.7</course><type>1</type></trkpt>
      <trkpt lat="42.99803948" lon="-2.39827271"><ele>1300</ele><speed>8.83</speed><time>2017-03-19T14:22:47Z</time><pdop>3.0</pdop><geoidheight>0.00</geoidheight><course>254.8</course><type>1</type></trkpt>
      <trkpt lat="42.99804489" lon="-2.39838554"><ele>1299</ele><speed>8.51</speed><time>2017-03-19T14:22:48Z</time><pdop>3.0</pdop><geoidheight>0.00</geoidheight><course>269.4</course><type>1</type></trkpt>
      <trkpt lat="42.99807652" lon="-2.39847053"><ele>1301</ele><speed>7.27</speed><time>2017-03-19T14:22:49Z</time><pdop>3.0</pdop><geoidheight>0.00</geoidheight><course>296.8</course><type>1</type></trkpt>
      <trkpt lat="42.99810823" lon="-2.39853167"><ele>1302</ele><speed>6.03</speed><time>2017-03-19T14:22:50Z</time><pdop>3.0</pdop><geoidheight>0.00</geoidheight><course>303.2</course><type>1</type></trkpt>
      <trkpt lat="42.99813392" lon="-2.39866827"><ele>1304</ele><speed>5.95</speed><time>2017-03-19T14:22:52Z</time><pdop>3.0</pdop><geoidheight>0.00</geoidheight><course>281.4</course><type>1</type></trkpt>
      <trkpt lat="42.99814073" lon="-2.39875966"><ele>1305</ele><speed>7.28</speed><time>2017-03-19T14:22:53Z</time><pdop>3.0</pdop><geoidheight>0.00</geoidheight><course>275.3</course><type>1</type></trkpt>
      <trkpt lat="42.99814709" lon="-2.39885548"><ele>1306</ele><speed>7.51</speed><time>2017-03-19T14:22:54Z</time><pdop>3.0</pdop><geoidheight>0.00</geoidheight><course>274.8</course><type>1</type></trkpt>
      <trkpt lat="42.99815567" lon="-2.39894427"><ele>1307</ele><speed>7.31</speed><time>2017-03-19T14:22:55Z</time><pdop>3.0</pdop><geoidheight>0.00</geoidheight><course>279.4</course><type>1</type></trkpt>
      <trkpt lat="42.99816596" lon="-2.39902372"><ele>1310</ele><speed>6.41</speed><time>2017-03-19T14:22:56Z</time><pdop>3.0</pdop><geoidheight>0.00</geoidheight><course>284.1</course><type>1</type></trkpt>
      <trkpt lat="42.99818397" lon="-2.39909891"><ele>1312</ele><speed>6.18</speed><time>2017-03-19T14:22:57Z</time><pdop>3.0</pdop><geoidheight>0.00</geoidheight><course>291.5</course><type>1</type></trkpt>
      <trkpt lat="42.99820523" lon="-2.39917409"><ele>1314</ele><speed>6.18</speed><time>2017-03-19T14:22:58Z</time><pdop>3.0</pdop><geoidheight>0.00</geoidheight><course>295.4</course><type>1</type></trkpt>
      <trkpt lat="42.99824876" lon="-2.39926215"><ele>1314</ele><speed>3.93</speed><time>2017-03-19T14:23:00Z</time><pdop>3.0</pdop><geoidheight>0.00</geoidheight><course>318.0</course><type>1</type></trkpt>
      <trkpt lat="42.99831782" lon="-2.39922166"><ele>1313</ele><speed>4.69</speed><time>2017-03-19T14:23:02Z</time><pdop>3.0</pdop><geoidheight>0.00</geoidheight><course>30.6</course><type>1</type></trkpt>
      <trkpt lat="42.99835144" lon="-2.39913488"><ele>1312</ele><speed>6.06</speed><time>2017-03-19T14:23:03Z</time><pdop>3.0</pdop><geoidheight>0.00</geoidheight><course>60.4</course><type>1</type></trkpt>
      <trkpt lat="42.99836015" lon="-2.39904286"><ele>1312</ele><speed>7.32</speed><time>2017-03-19T14:23:04Z</time><pdop>3.0</pdop><geoidheight>0.00</geoidheight><course>84.8</course><type>1</type></trkpt>
      <trkpt lat="42.99834165" lon="-2.39894444"><ele>1312</ele><speed>8.09</speed><time>2017-03-19T14:23:05Z</time><pdop>3.0</pdop><geoidheight>0.00</geoidheight><course>103.2</course><type>1</type></trkpt>
      <trkpt lat="42.99828805" lon="-2.39886813"><ele>1314</ele><speed>8.27</speed><time>2017-03-19T14:23:06Z</time><pdop>3.0</pdop><geoidheight>0.00</geoidheight><course>127.8</course><type>1</type></trkpt>
      <trkpt lat="42.99822526" lon="-2.39880456"><ele>1315</ele><speed>8.56</speed><time>2017-03-19T14:23:07Z</time><pdop>3.0</pdop><geoidheight>0.00</geoidheight><course>141.6</course><type>1</type></trkpt>
      <trkpt lat="42.99816251" lon="-2.39874313"><ele>1316</ele><speed>9.01</speed><time>2017-03-19T14:23:08Z</time><pdop>3.0</pdop><geoidheight>0.00</geoidheight><course>146.0</course><type>1</type></trkpt>
      <trkpt lat="42.99809433" lon="-2.3986707"><ele>1317</ele><speed>9.48</speed><time>2017-03-19T14:23:09Z</time><pdop>3.0</pdop><geoidheight>0.00</geoidheight><course>143.0</course><type>1</type></trkpt>
      <trkpt lat="42.99803102" lon="-2.39858881"><ele>1317</ele><speed>9.69</speed><time>2017-03-19T14:23:10Z</time><pdop>3.0</pdop><geoidheight>0.00</geoidheight><course>136.9</course><type>1</type></trkpt>
      <trkpt lat="42.99797555" lon="-2.3984992"><ele>1317</ele><speed>9.67</speed><time>2017-03-19T14:23:11Z</time><pdop>3.0</pdop><geoidheight>0.00</geoidheight><course>131.8</course><type>1</type></trkpt>
      <trkpt lat="42.99792424" lon="-2.3984171"><ele>1319</ele><speed>8.90</speed><time>2017-03-19T14:23:12Z</time><pdop>3.0</pdop><geoidheight>0.00</geoidheight><course>132.5</course><type>1</type></trkpt>
      <trkpt lat="42.99787009" lon="-2.39835273"><ele>1320</ele><speed>8.30</speed><time>2017-03-19T14:23:13Z</time><pdop>3.0</pdop><geoidheight>0.00</geoidheight><course>135.4</course><type>1</type></trkpt>
      <trkpt lat="42.99781929" lon="-2.3982791"><ele>1320</ele><speed>8.07</speed><time>2017-03-19T14:23:14Z</time><pdop>3.0</pdop><geoidheight>0.00</geoidheight><course>132.6</course><type>1</type></trkpt>
      <trkpt lat="42.99777632" lon="-2.39818965"><ele>1320</ele><speed>8.47</speed><time>2017-03-19T14:23:15Z</time><pdop>3.0</pdop><geoidheight>0.00</geoidheight><course>122.1</course><type>1</type></trkpt>
      <trkpt lat="42.99773853" lon="-2.39809861"><ele>1320</ele><speed>8.88</speed><time>2017-03-19T14:23:16Z</time><pdop>3.0</pdop><geoidheight>0.00</geoidheight><course>115.6</course><type>1</type></trkpt>
      <trkpt lat="42.99770293" lon="-2.39800806"><ele>1321</ele><speed>8.52</speed><time>2017-03-19T14:23:17Z</time><pdop>3.0</pdop><geoidheight>0.00</geoidheight><course>115.7</course><type>1</type></trkpt>
      <trkpt lat="42.99765975" lon="-2.39793024"><ele>1323</ele><speed>8.03</speed><time>2017-03-19T14:23:18Z</time><pdop>3.0</pdop><geoidheight>0.00</geoidheight><course>124.5</course><type>1</type></trkpt>
      <trkpt lat="42.9976176" lon="-2.39785203"><ele>1324</ele><speed>8.17</speed><time>2017-03-19T14:23:19Z</time><pdop>3.0</pdop><geoidheight>0.00</geoidheight><course>128.7</course><type>1</type></trkpt>
      <trkpt lat="42.99757058" lon="-2.39777568"><ele>1325</ele><speed>8.42</speed><time>2017-03-19T14:23:20Z</time><pdop>3.0</pdop><geoidheight>0.00</geoidheight><course>131.0</course><type>1</type></trkpt>
      <trkpt lat="42.99752315" lon="-2.39769912"><ele>1326</ele><speed>8.19</speed><time>2017-03-19T14:23:21Z</time><pdop>3.0</pdop><geoidheight>0.00</geoidheight><course>130.3</course><type>1</type></trkpt>
      <trkpt lat="42.9974847" lon="-2.39761801"><ele>1327</ele><speed>8.07</speed><time>2017-03-19T14:23:22Z</time><pdop>3.0</pdop><geoidheight>0.00</geoidheight><course>126.7</course><type>1</type></trkpt>
      <trkpt lat="42.99743395" lon="-2.39753869"><ele>1328</ele><speed>7.92</speed><time>2017-03-19T14:23:23Z</time><pdop>3.0</pdop><geoidheight>0.00</geoidheight><course>125.6</course><type>1</type></trkpt>
      <trkpt lat="42.99739229" lon="-2.3974688"><ele>1328</ele><speed>7.49</speed><time>2017-03-19T14:23:24Z</time><pdop>3.0</pdop><geoidheight>0.00</geoidheight><course>127.8</course><type>1</type></trkpt>
      <trkpt lat="42.99735296" lon="-2.39738343"><ele>1330</ele><speed>7.69</speed><time>2017-03-19T14:23:25Z</time><pdop>3.0</pdop><geoidheight>0.00</geoidheight><course>126.5</course><type>1</type></trkpt>
      <trkpt lat="42.9973162" lon="-2.39730536"><ele>1331</ele><speed>7.32</speed><time>2017-03-19T14:23:26Z</time><pdop>3.0</pdop><geoidheight>0.00</geoidheight><course>124.8</course><type>1</type></trkpt>
      <trkpt lat="42.99727799" lon="-2.39724367"><ele>1331</ele><speed>6.74</speed><time>2017-03-19T14:23:27Z</time><pdop>3.0</pdop><geoidheight>0.00</geoidheight><course>124.0</course><type>1</type></trkpt>
      <trkpt lat="42.99724209" lon="-2.39717352"><ele>1331</ele><speed>6.79</speed><time>2017-03-19T14:23:28Z</time><pdop>3.0</pdop><geoidheight>0.00</geoidheight><course>124.1</course><type>1</type></trkpt>
      <trkpt lat="42.99720312" lon="-2.39709479"><ele>1331</ele><speed>7.54</speed><time>2017-03-19T14:23:29Z</time><pdop>3.0</pdop><geoidheight>0.00</geoidheight><course>125.1</course><type>1</type></trkpt>
      <trkpt lat="42.99716105" lon="-2.39701285"><ele>1330</ele><speed>8.23</speed><time>2017-03-19T14:23:30Z</time><pdop>3.0</pdop><geoidheight>0.00</geoidheight><course>124.7</course><type>1</type></trkpt>
      <trkpt lat="42.99711729" lon="-2.39692681"><ele>1330</ele><speed>8.59</speed><time>2017-03-19T14:23:31Z</time><pdop>3.0</pdop><geoidheight>0.00</geoidheight><course>125.5</course><type>1</type></trkpt>
      <trkpt lat="42.99706946" lon="-2.39685221"><ele>1329</ele><speed>8.16</speed><time>2017-03-19T14:23:32Z</time><pdop>3.0</pdop><geoidheight>0.00</geoidheight><course>128.8</course><type>1</type></trkpt>
      <trkpt lat="42.99702595" lon="-2.39678232"><ele>1330</ele><speed>7.50</speed><time>2017-03-19T14:23:33Z</time><pdop>3.0</pdop><geoidheight>0.00</geoidheight><course>130.1</course><type>1</type></trkpt>
      <trkpt lat="42.99698989" lon="-2.39670978"><ele>1330</ele><speed>7.56</speed><time>2017-03-19T14:23:34Z</time><pdop>3.0</pdop><geoidheight>0.00</geoidheight><course>125.4</course><type>1</type></trkpt>
      <trkpt lat="42.99694701" lon="-2.39662271"><ele>1330</ele><speed>8.00</speed><time>2017-03-19T14:23:35Z</time><pdop>3.0</pdop><geoidheight>0.00</geoidheight><course>124.7</course><type>1</type></trkpt>
      <trkpt lat="42.99690117" lon="-2.39653495"><ele>1330</ele><speed>8.68</speed><time>2017-03-19T14:23:36Z</time><pdop>3.0</pdop><geoidheight>0.00</geoidheight><course>125.3</course><type>1</type></trkpt>
      <trkpt lat="42.99685309" lon="-2.39644932"><ele>1330</ele><speed>8.46</speed><time>2017-03-19T14:23:37Z</time><pdop>3.0</pdop><geoidheight>0.00</geoidheight><course>128.2</course><type>1</type></trkpt>
      <trkpt lat="42.99680779" lon="-2.39638124"><ele>1331</ele><speed>7.18</speed><time>2017-03-19T14:23:38Z</time><pdop>3.0</pdop><geoidheight>0.00</geoidheight><course>131.6</course><type>1</type></trkpt>
      <trkpt lat="42.99677568" lon="-2.39631356"><ele>1332</ele><speed>6.31</speed><time>2017-03-19T14:23:39Z</time><pdop>3.0</pdop><geoidheight>0.00</geoidheight><course>124.1</course><type>1</type></trkpt>
      <trkpt lat="42.99675638" lon="-2.39624341"><ele>1333</ele><speed>5.89</speed><time>2017-03-19T14:23:40Z</time><pdop>3.0</pdop><geoidheight>0.00</geoidheight><course>112.1</course><type>1</type></trkpt>
      <trkpt lat="42.99674197" lon="-2.39616598"><ele>1334</ele><speed>6.22</speed><time>2017-03-19T14:23:41Z</time><pdop>3.0</pdop><geoidheight>0.00</geoidheight><course>108.8</course><type>1</type></trkpt>
      <trkpt lat="42.99671789" lon="-2.39608872"><ele>1336</ele><speed>6.65</speed><time>2017-03-19T14:23:42Z</time><pdop>3.0</pdop><geoidheight>0.00</geoidheight><course>112.3</course><type>1</type></trkpt>
      <trkpt lat="42.99668621" lon="-2.3960173"><ele>1338</ele><speed>6.78</speed><time>2017-03-19T14:23:43Z</time><pdop>3.0</pdop><geoidheight>0.00</geoidheight><course>120.7</course><type>1</type></trkpt>
      <trkpt lat="42.99663981" lon="-2.39594791"><ele>1338</ele><speed>7.48</speed><time>2017-03-19T14:23:44Z</time><pdop>3.0</pdop><geoidheight>0.00</geoidheight><course>129.8</course><type>1</type></trkpt>
      <trkpt lat="42.99659141" lon="-2.39589811"><ele>1341</ele><speed>6.88</speed><time>2017-03-19T14:23:45Z</time><pdop>3.0</pdop><geoidheight>0.00</geoidheight><course>137.9</course><type>1</type></trkpt>
      <trkpt lat="42.99655175" lon="-2.39584451"><ele>1342</ele><speed>6.11</speed><time>2017-03-19T14:23:46Z</time><pdop>3.0</pdop><geoidheight>0.00</geoidheight><course>137.7</course><type>1</type></trkpt>
      <trkpt lat="42.99648659" lon="-2.39571755"><ele>1343</ele><speed>6.88</speed><time>2017-03-19T14:23:48Z</time><pdop>3.0</pdop><geoidheight>0.00</geoidheight><course>121.6</course><type>1</type></trkpt>
      <trkpt lat="42.9964516" lon="-2.39563534"><ele>1344</ele><speed>7.49</speed><time>2017-03-19T14:23:49Z</time><pdop>3.0</pdop><geoidheight>0.00</geoidheight><course>119.0</course><type>1</type></trkpt>
      <trkpt lat="42.99641817" lon="-2.39556425"><ele>1344</ele><speed>7.25</speed><time>2017-03-19T14:23:50Z</time><pdop>3.0</pdop><geoidheight>0.00</geoidheight><course>122.7</course><type>1</type></trkpt>
      <trkpt lat="42.99636607" lon="-2.39550008"><ele>1345</ele><speed>7.13</speed><time>2017-03-19T14:23:51Z</time><pdop>3.0</pdop><geoidheight>0.00</geoidheight><course>129.9</course><type>1</type></trkpt>
      <trkpt lat="42.99631976" lon="-2.39543545"><ele>1346</ele><speed>7.49</speed><time>2017-03-19T14:23:52Z</time><pdop>3.0</pdop><geoidheight>0.00</geoidheight><course>135.2</course><type>1</type></trkpt>
      <trkpt lat="42.99626859" lon="-2.39537348"><ele>1347</ele><speed>7.83</speed><time>2017-03-19T14:23:53Z</time><pdop>3.0</pdop><geoidheight>0.00</geoidheight><course>136.5</course><type>1</type></trkpt>
      <trkpt lat="42.99622017" lon="-2.39530391"><ele>1348</ele><speed>8.16</speed><time>2017-03-19T14:23:54Z</time><pdop>3.0</pdop><geoidheight>0.00</geoidheight><course>133.1</course><type>1</type></trkpt>
      <trkpt lat="42.99617875" lon="-2.39521793"><ele>1349</ele><speed>8.14</speed><time>2017-03-19T14:23:55Z</time><pdop>3.0</pdop><geoidheight>0.00</geoidheight><course>130.5</course><type>1</type></trkpt>
      <trkpt lat="42.99613117" lon="-2.39515181"><ele>1350</ele><speed>7.84</speed><time>2017-03-19T14:23:56Z</time><pdop>3.0</pdop><geoidheight>0.00</geoidheight><course>130.5</course><type>1</type></trkpt>
      <trkpt lat="42.9960878" lon="-2.39507225"><ele>1351</ele><speed>8.04</speed><time>2017-03-19T14:23:57Z</time><pdop>3.0</pdop><geoidheight>0.00</geoidheight><course>128.5</course><type>1</type></trkpt>
      <trkpt lat="42.99604734" lon="-2.39498766"><ele>1353</ele><speed>8.27</speed><time>2017-03-19T14:23:58Z</time><pdop>3.0</pdop><geoidheight>0.00</geoidheight><course>125.9</course><type>1</type></trkpt>
      <trkpt lat="42.99601078" lon="-2.39490634"><ele>1356</ele><speed>7.72</speed><time>2017-03-19T14:23:59Z</time><pdop>3.0</pdop><geoidheight>0.00</geoidheight><course>124.6</course><type>1</type></trkpt>
      <trkpt lat="42.99598106" lon="-2.39483702"><ele>1358</ele><speed>6.85</speed><time>2017-03-19T14:24:00Z</time><pdop>3.0</pdop><geoidheight>0.00</geoidheight><course>120.8</course><type>1</type></trkpt>
      <trkpt lat="42.99597071" lon="-2.39470413"><ele>1359</ele><speed>5.33</speed><time>2017-03-19T14:24:02Z</time><pdop>3.0</pdop><geoidheight>0.00</geoidheight><course>87.3</course><type>1</type></trkpt>
      <trkpt lat="42.99604616" lon="-2.39464663"><ele>1359</ele><speed>4.90</speed><time>2017-03-19T14:24:04Z</time><pdop>3.0</pdop><geoidheight>0.00</geoidheight><course>13.4</course><type>1</type></trkpt>
      <trkpt lat="42.9961041" lon="-2.3946596"><ele>1359</ele><speed>5.78</speed><time>2017-03-19T14:24:05Z</time><pdop>3.0</pdop><geoidheight>0.00</geoidheight><course>351.2</course><type>1</type></trkpt>
      <trkpt lat="42.99614675" lon="-2.39475554"><ele>1359</ele><speed>7.99</speed><time>2017-03-19T14:24:06Z</time><pdop>3.0</pdop><geoidheight>0.00</geoidheight><course>310.8</course><type>1</type></trkpt>
      <trkpt lat="42.99617017" lon="-2.39486774"><ele>1359</ele><speed>9.36</speed><time>2017-03-19T14:24:07Z</time><pdop>3.0</pdop><geoidheight>0.00</geoidheight><course>289.5</course><type>1</type></trkpt>
      <trkpt lat="42.99617636" lon="-2.39499408"><ele>1361</ele><speed>10.29</speed><time>2017-03-19T14:24:08Z</time><pdop>3.0</pdop><geoidheight>0.00</geoidheight><course>275.5</course><type>1</type></trkpt>
      <trkpt lat="42.9961787" lon="-2.39511017"><ele>1362</ele><speed>9.58</speed><time>2017-03-19T14:24:09Z</time><pdop>3.0</pdop><geoidheight>0.00</geoidheight><course>272.1</course><type>1</type></trkpt>
      <trkpt lat="42.99619981" lon="-2.3952101"><ele>1363</ele><speed>7.73</speed><time>2017-03-19T14:24:10Z</time><pdop>3.0</pdop><geoidheight>0.00</geoidheight><course>282.2</course><type>1</type></trkpt>
      <trkpt lat="42.99622446" lon="-2.39529307"><ele>1363</ele><speed>7.48</speed><time>2017-03-19T14:24:11Z</time><pdop>4.0</pdop><geoidheight>0.00</geoidheight><course>293.1</course><type>1</type></trkpt>
      <trkpt lat="42.99630685" lon="-2.39530187"><ele>1362</ele><speed>5.11</speed><time>2017-03-19T14:24:13Z</time><pdop>4.0</pdop><geoidheight>0.00</geoidheight><course>357.8</course><type>1</type></trkpt>
      <trkpt lat="42.99634561" lon="-2.39519902"><ele>1362</ele><speed>4.95</speed><time>2017-03-19T14:24:15Z</time><pdop>4.0</pdop><geoidheight>0.00</geoidheight><course>74.4</course><type>1</type></trkpt>
      <trkpt lat="42.99630116" lon="-2.39504612"><ele>1361</ele><speed>7.46</speed><time>2017-03-19T14:24:17Z</time><pdop>4.0</pdop><geoidheight>0.00</geoidheight><course>118.4</course><type>1</type></trkpt>
      <trkpt lat="42.99620465" lon="-2.39493384"><ele>1364</ele><speed>7.01</speed><time>2017-03-19T14:24:19Z</time><pdop>4.0</pdop><geoidheight>0.00</geoidheight><course>146.4</course><type>1</type></trkpt>
      <trkpt lat="42.99611858" lon="-2.3948459"><ele>1366</ele><speed>6.87</speed><time>2017-03-19T14:24:21Z</time><pdop>4.0</pdop><geoidheight>0.00</geoidheight><course>143.4</course><type>1</type></trkpt>
      <trkpt lat="42.99601411" lon="-2.39469494"><ele>1366</ele><speed>8.66</speed><time>2017-03-19T14:24:23Z</time><pdop>3.0</pdop><geoidheight>0.00</geoidheight><course>133.6</course><type>1</type></trkpt>
      <trkpt lat="42.99596229" lon="-2.39461533"><ele>1367</ele><speed>8.58</speed><time>2017-03-19T14:24:24Z</time><pdop>3.0</pdop><geoidheight>0.00</geoidheight><course>133.3</course><type>1</type></trkpt>
      <trkpt lat="42.99591538" lon="-2.39453987"><ele>1367</ele><speed>7.98</speed><time>2017-03-19T14:24:25Z</time><pdop>3.0</pdop><geoidheight>0.00</geoidheight><course>137.5</course><type>1</type></trkpt>
      <trkpt lat="42.99586413" lon="-2.39448354"><ele>1367</ele><speed>7.37</speed><time>2017-03-19T14:24:26Z</time><pdop>3.0</pdop><geoidheight>0.00</geoidheight><course>140.6</course><type>1</type></trkpt>
      <trkpt lat="42.99581441" lon="-2.3944255"><ele>1367</ele><speed>7.28</speed><time>2017-03-19T14:24:27Z</time><pdop>3.0</pdop><geoidheight>0.00</geoidheight><course>139.6</course><type>1</type></trkpt>
      <trkpt lat="42.99576716" lon="-2.39435851"><ele>1367</ele><speed>7.65</speed><time>2017-03-19T14:24:28Z</time><pdop>3.0</pdop><geoidheight>0.00</geoidheight><course>136.6</course><type>1</type></trkpt>
      <trkpt lat="42.99572519" lon="-2.39427536"><ele>1367</ele><speed>7.69</speed><time>2017-03-19T14:24:29Z</time><pdop>3.0</pdop><geoidheight>0.00</geoidheight><course>134.2</course><type>1</type></trkpt>
      <trkpt lat="42.99568" lon="-2.39420543"><ele>1367</ele><speed>7.48</speed><time>2017-03-19T14:24:30Z</time><pdop>3.0</pdop><geoidheight>0.00</geoidheight><course>133.0</course><type>1</type></trkpt>
      <trkpt lat="42.99562711" lon="-2.3941437"><ele>1366</ele><speed>7.22</speed><time>2017-03-19T14:24:31Z</time><pdop>3.0</pdop><geoidheight>0.00</geoidheight><course>134.4</course><type>1</type></trkpt>
      <trkpt lat="42.99558264" lon="-2.39408344"><ele>1366</ele><speed>7.13</speed><time>2017-03-19T14:24:32Z</time><pdop>3.0</pdop><geoidheight>0.00</geoidheight><course>133.2</course><type>1</type></trkpt>
      <trkpt lat="42.995545" lon="-2.39400516"><ele>1366</ele><speed>7.45</speed><time>2017-03-19T14:24:33Z</time><pdop>3.0</pdop><geoidheight>0.00</geoidheight><course>127.9</course><type>1</type></trkpt>
      <trkpt lat="42.99550454" lon="-2.39392678"><ele>1365</ele><speed>7.86</speed><time>2017-03-19T14:24:34Z</time><pdop>3.0</pdop><geoidheight>0.00</geoidheight><course>124.5</course><type>1</type></trkpt>
      <trkpt lat="42.99546522" lon="-2.39383455"><ele>1365</ele><speed>8.23</speed><time>2017-03-19T14:24:35Z</time><pdop>3.0</pdop><geoidheight>0.00</geoidheight><course>121.4</course><type>1</type></trkpt>
      <trkpt lat="42.99543201" lon="-2.39374565"><ele>1365</ele><speed>8.25</speed><time>2017-03-19T14:24:36Z</time><pdop>3.0</pdop><geoidheight>0.00</geoidheight><course>119.5</course><type>1</type></trkpt>
      <trkpt lat="42.99537945" lon="-2.3936591"><ele>1365</ele><speed>7.76</speed><time>2017-03-19T14:24:37Z</time><pdop>3.0</pdop><geoidheight>0.00</geoidheight><course>119.0</course><type>1</type></trkpt>
      <trkpt lat="42.99534586" lon="-2.39358296"><ele>1365</ele><speed>7.34</speed><time>2017-03-19T14:24:38Z</time><pdop>3.0</pdop><geoidheight>0.00</geoidheight><course>120.9</course><type>1</type></trkpt>
      <trkpt lat="42.99530774" lon="-2.39351037"><ele>1365</ele><speed>7.15</speed><time>2017-03-19T14:24:39Z</time><pdop>3.0</pdop><geoidheight>0.00</geoidheight><course>124.1</course><type>1</type></trkpt>
      <trkpt lat="42.99526572" lon="-2.39344037"><ele>1365</ele><speed>7.62</speed><time>2017-03-19T14:24:40Z</time><pdop>3.0</pdop><geoidheight>0.00</geoidheight><course>126.5</course><type>1</type></trkpt>
      <trkpt lat="42.99522137" lon="-2.39336153"><ele>1364</ele><speed>8.48</speed><time>2017-03-19T14:24:41Z</time><pdop>3.0</pdop><geoidheight>0.00</geoidheight><course>126.0</course><type>1</type></trkpt>
      <trkpt lat="42.99517811" lon="-2.39327143"><ele>1365</ele><speed>8.84</speed><time>2017-03-19T14:24:42Z</time><pdop>3.0</pdop><geoidheight>0.00</geoidheight><course>124.3</course><type>1</type></trkpt>
      <trkpt lat="42.99512612" lon="-2.39318202"><ele>1366</ele><speed>8.70</speed><time>2017-03-19T14:24:43Z</time><pdop>3.0</pdop><geoidheight>0.00</geoidheight><course>125.8</course><type>1</type></trkpt>
      <trkpt lat="42.99508039" lon="-2.39310645"><ele>1366</ele><speed>8.13</speed><time>2017-03-19T14:24:44Z</time><pdop>4.0</pdop><geoidheight>0.00</geoidheight><course>130.6</course><type>1</type></trkpt>
      <trkpt lat="42.99499242" lon="-2.39299682"><ele>1367</ele><speed>6.59</speed><time>2017-03-19T14:24:46Z</time><pdop>4.0</pdop><geoidheight>0.00</geoidheight><course>134.2</course><type>1</type></trkpt>
      <trkpt lat="42.99490204" lon="-2.39287416"><ele>1367</ele><speed>7.35</speed><time>2017-03-19T14:24:48Z</time><pdop>3.0</pdop><geoidheight>0.00</geoidheight><course>129.6</course><type>1</type></trkpt>
      <trkpt lat="42.99485515" lon="-2.39280432"><ele>1367</ele><speed>7.43</speed><time>2017-03-19T14:24:49Z</time><pdop>3.0</pdop><geoidheight>0.00</geoidheight><course>129.0</course><type>1</type></trkpt>
      <trkpt lat="42.99481936" lon="-2.39272772"><ele>1368</ele><speed>7.41</speed><time>2017-03-19T14:24:50Z</time><pdop>3.0</pdop><geoidheight>0.00</geoidheight><course>130.2</course><type>1</type></trkpt>
      <trkpt lat="42.99477348" lon="-2.39266304"><ele>1369</ele><speed>7.51</speed><time>2017-03-19T14:24:51Z</time><pdop>3.0</pdop><geoidheight>0.00</geoidheight><course>128.9</course><type>1</type></trkpt>
      <trkpt lat="42.99473163" lon="-2.39258079"><ele>1370</ele><speed>7.46</speed><time>2017-03-19T14:24:52Z</time><pdop>3.0</pdop><geoidheight>0.00</geoidheight><course>127.0</course><type>1</type></trkpt>
      <trkpt lat="42.9946892" lon="-2.39251062"><ele>1372</ele><speed>7.11</speed><time>2017-03-19T14:24:53Z</time><pdop>3.0</pdop><geoidheight>0.00</geoidheight><course>127.9</course><type>1</type></trkpt>
      <trkpt lat="42.99465063" lon="-2.39244628"><ele>1373</ele><speed>6.70</speed><time>2017-03-19T14:24:54Z</time><pdop>3.0</pdop><geoidheight>0.00</geoidheight><course>128.1</course><type>1</type></trkpt>
      <trkpt lat="42.99461868" lon="-2.39238441"><ele>1373</ele><speed>6.59</speed><time>2017-03-19T14:24:55Z</time><pdop>3.0</pdop><geoidheight>0.00</geoidheight><course>126.3</course><type>1</type></trkpt>
      <trkpt lat="42.99458386" lon="-2.39231594"><ele>1373</ele><speed>6.97</speed><time>2017-03-19T14:24:56Z</time><pdop>3.0</pdop><geoidheight>0.00</geoidheight><course>122.3</course><type>1</type></trkpt>
      <trkpt lat="42.99455875" lon="-2.39222763"><ele>1373</ele><speed>7.68</speed><time>2017-03-19T14:24:57Z</time><pdop>3.0</pdop><geoidheight>0.00</geoidheight><course>117.5</course><type>1</type></trkpt>
      <trkpt lat="42.99453518" lon="-2.39213067"><ele>1373</ele><speed>8.06</speed><time>2017-03-19T14:24:58Z</time><pdop>3.0</pdop><geoidheight>0.00</geoidheight><course>111.7</course><type>1</type></trkpt>
      <trkpt lat="42.99451558" lon="-2.39203623"><ele>1374</ele><speed>8.16</speed><time>2017-03-19T14:24:59Z</time><pdop>3.0</pdop><geoidheight>0.00</geoidheight><course>107.9</course><type>1</type></trkpt>
      <trkpt lat="42.99448956" lon="-2.391936"><ele>1375</ele><speed>8.32</speed><time>2017-03-19T14:25:00Z</time><pdop>3.0</pdop><geoidheight>0.00</geoidheight><course>108.6</course><type>1</type></trkpt>
      <trkpt lat="42.99446059" lon="-2.39184124"><ele>1375</ele><speed>8.61</speed><time>2017-03-19T14:25:01Z</time><pdop>3.0</pdop><geoidheight>0.00</geoidheight><course>113.0</course><type>1</type></trkpt>
      <trkpt lat="42.99442303" lon="-2.39174403"><ele>1376</ele><speed>8.85</speed><time>2017-03-19T14:25:02Z</time><pdop>3.0</pdop><geoidheight>0.00</geoidheight><course>117.8</course><type>1</type></trkpt>
      <trkpt lat="42.99439357" lon="-2.39165306"><ele>1376</ele><speed>8.20</speed><time>2017-03-19T14:25:03Z</time><pdop>3.0</pdop><geoidheight>0.00</geoidheight><course>115.1</course><type>1</type></trkpt>
      <trkpt lat="42.99438531" lon="-2.39157698"><ele>1377</ele><speed>6.75</speed><time>2017-03-19T14:25:04Z</time><pdop>3.0</pdop><geoidheight>0.00</geoidheight><course>99.7</course><type>1</type></trkpt>
      <trkpt lat="42.99444951" lon="-2.39151195"><ele>1376</ele><speed>4.26</speed><time>2017-03-19T14:25:06Z</time><pdop>3.0</pdop><geoidheight>0.00</geoidheight><course>18.6</course><type>1</type></trkpt>
      <trkpt lat="42.99450673" lon="-2.39163052"><ele>1376</ele><speed>6.20</speed><time>2017-03-19T14:25:08Z</time><pdop>3.0</pdop><geoidheight>0.00</geoidheight><course>287.2</course><type>1</type></trkpt>
      <trkpt lat="42.99450069" lon="-2.39172008"><ele>1376</ele><speed>7.08</speed><time>2017-03-19T14:25:09Z</time><pdop>3.0</pdop><geoidheight>0.00</geoidheight><course>266.5</course><type>1</type></trkpt>
      <trkpt lat="42.99449837" lon="-2.39180776"><ele>1376</ele><speed>7.05</speed><time>2017-03-19T14:25:10Z</time><pdop>3.0</pdop><geoidheight>0.00</geoidheight><course>263.6</course><type>1</type></trkpt>
      <trkpt lat="42.99450181" lon="-2.39188904"><ele>1376</ele><speed>5.94</speed><time>2017-03-19T14:25:11Z</time><pdop>3.0</pdop><geoidheight>0.00</geoidheight><course>272.3</course><type>1</type></trkpt>
      <trkpt lat="42.99451465" lon="-2.39196155"><ele>1376</ele><speed>5.76</speed><time>2017-03-19T14:25:12Z</time><pdop>3.0</pdop><geoidheight>0.00</geoidheight><course>284.4</course><type>1</type></trkpt>
      <trkpt lat="42.99453758" lon="-2.39202934"><ele>1376</ele><speed>5.89</speed><time>2017-03-19T14:25:13Z</time><pdop>3.0</pdop><geoidheight>0.00</geoidheight><course>289.7</course><type>1</type></trkpt>
      <trkpt lat="42.9945473" lon="-2.3921059"><ele>1377</ele><speed>6.32</speed><time>2017-03-19T14:25:14Z</time><pdop>3.0</pdop><geoidheight>0.00</geoidheight><course>280.1</course><type>1</type></trkpt>
      <trkpt lat="42.99455063" lon="-2.39219337"><ele>1377</ele><speed>6.40</speed><time>2017-03-19T14:25:15Z</time><pdop>3.0</pdop><geoidheight>0.00</geoidheight><course>274.8</course><type>1</type></trkpt>
      <trkpt lat="42.99458385" lon="-2.39230574"><ele>1375</ele><speed>4.51</speed><time>2017-03-19T14:25:17Z</time><pdop>3.0</pdop><geoidheight>0.00</geoidheight><course>308.6</course><type>1</type></trkpt>
      <trkpt lat="42.99465726" lon="-2.39226529"><ele>1375</ele><speed>5.36</speed><time>2017-03-19T14:25:19Z</time><pdop>3.0</pdop><geoidheight>0.00</geoidheight><course>32.5</course><type>1</type></trkpt>
      <trkpt lat="42.99467181" lon="-2.392182"><ele>1376</ele><speed>5.83</speed><time>2017-03-19T14:25:20Z</time><pdop>3.0</pdop><geoidheight>0.00</geoidheight><course>66.2</course><type>1</type></trkpt>
      <trkpt lat="42.99465601" lon="-2.39210861"><ele>1377</ele><speed>6.02</speed><time>2017-03-19T14:25:21Z</time><pdop>3.0</pdop><geoidheight>0.00</geoidheight><course>96.9</course><type>1</type></trkpt>
      <trkpt lat="42.99461792" lon="-2.39203181"><ele>1378</ele><speed>7.20</speed><time>2017-03-19T14:25:22Z</time><pdop>4.0</pdop><geoidheight>0.00</geoidheight><course>121.6</course><type>1</type></trkpt>
      <trkpt lat="42.99455365" lon="-2.39194824"><ele>1377</ele><speed>9.28</speed><time>2017-03-19T14:25:23Z</time><pdop>4.0</pdop><geoidheight>0.00</geoidheight><course>136.9</course><type>1</type></trkpt>
      <trkpt lat="42.99447678" lon="-2.39188277"><ele>1377</ele><speed>10.47</speed><time>2017-03-19T14:25:24Z</time><pdop>3.0</pdop><geoidheight>0.00</geoidheight><course>147.2</course><type>1</type></trkpt>
      <trkpt lat="42.99439026" lon="-2.39181992"><ele>1378</ele><speed>10.83</speed><time>2017-03-19T14:25:25Z</time><pdop>3.0</pdop><geoidheight>0.00</geoidheight><course>152.7</course><type>1</type></trkpt>
      <trkpt lat="42.99430954" lon="-2.3917582"><ele>1379</ele><speed>10.29</speed><time>2017-03-19T14:25:26Z</time><pdop>3.0</pdop><geoidheight>0.00</geoidheight><course>151.8</course><type>1</type></trkpt>
      <trkpt lat="42.99423859" lon="-2.39168571"><ele>1378</ele><speed>9.83</speed><time>2017-03-19T14:25:27Z</time><pdop>3.0</pdop><geoidheight>0.00</geoidheight><course>145.0</course><type>1</type></trkpt>
      <trkpt lat="42.99418201" lon="-2.39158067"><ele>1376</ele><speed>9.90</speed><time>2017-03-19T14:25:28Z</time><pdop>3.0</pdop><geoidheight>0.00</geoidheight><course>134.8</course><type>1</type></trkpt>
      <trkpt lat="42.99413396" lon="-2.39147842"><ele>1375</ele><speed>9.75</speed><time>2017-03-19T14:25:29Z</time><pdop>3.0</pdop><geoidheight>0.00</geoidheight><course>127.4</course><type>1</type></trkpt>
      <trkpt lat="42.99409285" lon="-2.39137503"><ele>1374</ele><speed>9.64</speed><time>2017-03-19T14:25:30Z</time><pdop>3.0</pdop><geoidheight>0.00</geoidheight><course>121.6</course><type>1</type></trkpt>
      <trkpt lat="42.99404883" lon="-2.39126706"><ele>1374</ele><speed>10.21</speed><time>2017-03-19T14:25:31Z</time><pdop>3.0</pdop><geoidheight>0.00</geoidheight><course>119.8</course><type>1</type></trkpt>
      <trkpt lat="42.99400123" lon="-2.391163"><ele>1374</ele><speed>10.11</speed><time>2017-03-19T14:25:32Z</time><pdop>3.0</pdop><geoidheight>0.00</geoidheight><course>119.0</course><type>1</type></trkpt>
      <trkpt lat="42.99396707" lon="-2.39106853"><ele>1375</ele><speed>8.54</speed><time>2017-03-19T14:25:33Z</time><pdop>3.0</pdop><geoidheight>0.00</geoidheight><course>117.7</course><type>1</type></trkpt>
      <trkpt lat="42.99394478" lon="-2.39098604"><ele>1374</ele><speed>6.94</speed><time>2017-03-19T14:25:34Z</time><pdop>3.0</pdop><geoidheight>0.00</geoidheight><course>111.4</course><type>1</type></trkpt>
      <trkpt lat="42.9939321" lon="-2.39091236"><ele>1373</ele><speed>6.68</speed><time>2017-03-19T14:25:35Z</time><pdop>3.0</pdop><geoidheight>0.00</geoidheight><course>103.2</course><type>1</type></trkpt>
      <trkpt lat="42.99393084" lon="-2.39081693"><ele>1371</ele><speed>7.36</speed><time>2017-03-19T14:25:36Z</time><pdop>3.0</pdop><geoidheight>0.00</geoidheight><course>96.0</course><type>1</type></trkpt>
      <trkpt lat="42.99392815" lon="-2.39072627"><ele>1371</ele><speed>7.43</speed><time>2017-03-19T14:25:37Z</time><pdop>3.0</pdop><geoidheight>0.00</geoidheight><course>91.4</course><type>1</type></trkpt>
      <trkpt lat="42.99394637" lon="-2.39063962"><ele>1370</ele><speed>3.00</speed><time>2017-03-19T14:25:39Z</time><pdop>3.0</pdop><geoidheight>0.00</geoidheight><course>57.1</course><type>1</type></trkpt>
      <trkpt lat="42.99400419" lon="-2.39067307"><ele>1367</ele><speed>3.86</speed><time>2017-03-19T14:25:41Z</time><pdop>3.0</pdop><geoidheight>0.00</geoidheight><course>321.3</course><type>1</type></trkpt>
      <trkpt lat="42.9940523" lon="-2.39079046"><ele>1367</ele><speed>5.22</speed><time>2017-03-19T14:25:43Z</time><pdop>3.0</pdop><geoidheight>0.00</geoidheight><course>294.1</course><type>1</type></trkpt>
      <trkpt lat="42.99407109" lon="-2.39090394"><ele>1366</ele><speed>3.98</speed><time>2017-03-19T14:25:45Z</time><pdop>3.0</pdop><geoidheight>0.00</geoidheight><course>288.6</course><type>1</type></trkpt>
      <trkpt lat="42.99412998" lon="-2.39101265"><ele>1366</ele><speed>4.02</speed><time>2017-03-19T14:25:48Z</time><pdop>5.0</pdop><geoidheight>0.00</geoidheight><course>309.3</course><type>1</type></trkpt>
      <trkpt lat="42.99415584" lon="-2.39114605"><ele>1366</ele><speed>3.81</speed><time>2017-03-19T14:25:51Z</time><pdop>6.0</pdop><geoidheight>0.00</geoidheight><course>287.2</course><type>1</type></trkpt>
      <trkpt lat="42.99423348" lon="-2.39125297"><ele>1366</ele><speed>2.91</speed><time>2017-03-19T14:25:56Z</time><pdop>6.0</pdop><geoidheight>0.00</geoidheight><course>313.5</course><type>1</type></trkpt>
      <trkpt lat="42.99432852" lon="-2.39139327"><ele>1366</ele><speed>3.37</speed><time>2017-03-19T14:26:01Z</time><pdop>5.0</pdop><geoidheight>0.00</geoidheight><course>326.7</course><type>1</type></trkpt>
      <trkpt lat="42.9944486" lon="-2.39149777"><ele>1360</ele><speed>3.52</speed><time>2017-03-19T14:26:07Z</time><pdop>5.0</pdop><geoidheight>0.00</geoidheight><course>359.8</course><type>1</type></trkpt>
      <trkpt lat="42.9945467" lon="-2.39160949"><ele>1356</ele><speed>4.16</speed><time>2017-03-19T14:26:10Z</time><pdop>5.0</pdop><geoidheight>0.00</geoidheight><course>307.0</course><type>1</type></trkpt>
      <trkpt lat="42.99458004" lon="-2.39174801"><ele>1355</ele><speed>5.14</speed><time>2017-03-19T14:26:12Z</time><pdop>4.0</pdop><geoidheight>0.00</geoidheight><course>285.8</course><type>1</type></trkpt>
      <trkpt lat="42.99459312" lon="-2.39186242"><ele>1355</ele><speed>5.33</speed><time>2017-03-19T14:26:14Z</time><pdop>3.0</pdop><geoidheight>0.00</geoidheight><course>283.4</course><type>1</type></trkpt>
      <trkpt lat="42.99463056" lon="-2.39200462"><ele>1356</ele><speed>6.06</speed><time>2017-03-19T14:26:16Z</time><pdop>3.0</pdop><geoidheight>0.00</geoidheight><course>290.0</course><type>1</type></trkpt>
      <trkpt lat="42.99463852" lon="-2.39209536"><ele>1355</ele><speed>6.28</speed><time>2017-03-19T14:26:17Z</time><pdop>3.0</pdop><geoidheight>0.00</geoidheight><course>282.6</course><type>1</type></trkpt>
      <trkpt lat="42.99467416" lon="-2.39224155"><ele>1356</ele><speed>6.09</speed><time>2017-03-19T14:26:19Z</time><pdop>3.0</pdop><geoidheight>0.00</geoidheight><course>295.8</course><type>1</type></trkpt>
      <trkpt lat="42.99475035" lon="-2.39237186"><ele>1356</ele><speed>6.97</speed><time>2017-03-19T14:26:21Z</time><pdop>4.0</pdop><geoidheight>0.00</geoidheight><course>305.2</course><type>1</type></trkpt>
      <trkpt lat="42.99480991" lon="-2.39251699"><ele>1357</ele><speed>6.63</speed><time>2017-03-19T14:26:23Z</time><pdop>4.0</pdop><geoidheight>0.00</geoidheight><course>294.8</course><type>1</type></trkpt>
      <trkpt lat="42.99484426" lon="-2.39265226"><ele>1358</ele><speed>5.87</speed><time>2017-03-19T14:26:25Z</time><pdop>4.0</pdop><geoidheight>0.00</geoidheight><course>283.7</course><type>1</type></trkpt>
      <trkpt lat="42.99486551" lon="-2.39280763"><ele>1358</ele><speed>6.03</speed><time>2017-03-19T14:26:27Z</time><pdop>3.0</pdop><geoidheight>0.00</geoidheight><course>284.9</course><type>1</type></trkpt>
      <trkpt lat="42.99491612" lon="-2.39296396"><ele>1358</ele><speed>6.91</speed><time>2017-03-19T14:26:29Z</time><pdop>4.0</pdop><geoidheight>0.00</geoidheight><course>302.2</course><type>1</type></trkpt>
      <trkpt lat="42.99497424" lon="-2.39308227"><ele>1359</ele><speed>5.45</speed><time>2017-03-19T14:26:31Z</time><pdop>4.0</pdop><geoidheight>0.00</geoidheight><course>303.4</course><type>1</type></trkpt>
      <trkpt lat="42.99505488" lon="-2.39298085"><ele>1357</ele><speed>4.64</speed><time>2017-03-19T14:26:36Z</time><pdop>5.0</pdop><geoidheight>0.00</geoidheight><course>53.9</course><type>1</type></trkpt>
      <trkpt lat="42.99502914" lon="-2.39286772"><ele>1356</ele><speed>7.35</speed><time>2017-03-19T14:26:37Z</time><pdop>4.0</pdop><geoidheight>0.00</geoidheight><course>97.4</course><type>1</type></trkpt>
      <trkpt lat="42.99499522" lon="-2.39276772"><ele>1356</ele><speed>8.76</speed><time>2017-03-19T14:26:38Z</time><pdop>4.0</pdop><geoidheight>0.00</geoidheight><course>112.8</course><type>1</type></trkpt>
      <trkpt lat="42.99495292" lon="-2.39268269"><ele>1356</ele><speed>9.38</speed><time>2017-03-19T14:26:39Z</time><pdop>4.0</pdop><geoidheight>0.00</geoidheight><course>127.3</course><type>1</type></trkpt>
      <trkpt lat="42.9948918" lon="-2.39259616"><ele>1357</ele><speed>9.99</speed><time>2017-03-19T14:26:40Z</time><pdop>4.0</pdop><geoidheight>0.00</geoidheight><course>136.2</course><type>1</type></trkpt>
      <trkpt lat="42.99481969" lon="-2.39249625"><ele>1358</ele><speed>10.28</speed><time>2017-03-19T14:26:41Z</time><pdop>3.0</pdop><geoidheight>0.00</geoidheight><course>136.1</course><type>1</type></trkpt>
      <trkpt lat="42.99476994" lon="-2.39237602"><ele>1360</ele><speed>10.04</speed><time>2017-03-19T14:26:42Z</time><pdop>3.0</pdop><geoidheight>0.00</geoidheight><course>129.2</course><type>1</type></trkpt>
      <trkpt lat="42.99473915" lon="-2.39224903"><ele>1364</ele><speed>9.71</speed><time>2017-03-19T14:26:43Z</time><pdop>3.0</pdop><geoidheight>0.00</geoidheight><course>119.7</course><type>1</type></trkpt>
      <trkpt lat="42.99471514" lon="-2.39214476"><ele>1365</ele><speed>8.82</speed><time>2017-03-19T14:26:44Z</time><pdop>3.0</pdop><geoidheight>0.00</geoidheight><course>109.4</course><type>1</type></trkpt>
      <trkpt lat="42.9947121" lon="-2.39204569"><ele>1366</ele><speed>7.62</speed><time>2017-03-19T14:26:45Z</time><pdop>3.0</pdop><geoidheight>0.00</geoidheight><course>97.7</course><type>1</type></trkpt>
      <trkpt lat="42.99471069" lon="-2.39195202"><ele>1366</ele><speed>7.57</speed><time>2017-03-19T14:26:46Z</time><pdop>3.0</pdop><geoidheight>0.00</geoidheight><course>92.2</course><type>1</type></trkpt>
      <trkpt lat="42.99476169" lon="-2.3919142"><ele>1366</ele><speed>5.71</speed><time>2017-03-19T14:26:47Z</time><pdop>3.0</pdop><geoidheight>0.00</geoidheight><course>52.5</course><type>1</type></trkpt>
      <trkpt lat="42.9948625" lon="-2.39194308"><ele>1365</ele><speed>5.31</speed><time>2017-03-19T14:26:49Z</time><pdop>3.0</pdop><geoidheight>0.00</geoidheight><course>335.9</course><type>1</type></trkpt>
      <trkpt lat="42.99489682" lon="-2.39201326"><ele>1365</ele><speed>6.27</speed><time>2017-03-19T14:26:50Z</time><pdop>3.0</pdop><geoidheight>0.00</geoidheight><course>302.1</course><type>1</type></trkpt>
      <trkpt lat="42.99490758" lon="-2.39210311"><ele>1366</ele><speed>7.19</speed><time>2017-03-19T14:26:51Z</time><pdop>3.0</pdop><geoidheight>0.00</geoidheight><course>279.7</course><type>1</type></trkpt>
      <trkpt lat="42.99490435" lon="-2.3921952"><ele>1367</ele><speed>7.54</speed><time>2017-03-19T14:26:52Z</time><pdop>3.0</pdop><geoidheight>0.00</geoidheight><course>268.7</course><type>1</type></trkpt>
      <trkpt lat="42.99489354" lon="-2.39228007"><ele>1367</ele><speed>7.06</speed><time>2017-03-19T14:26:53Z</time><pdop>3.0</pdop><geoidheight>0.00</geoidheight><course>263.0</course><type>1</type></trkpt>
      <trkpt lat="42.99489294" lon="-2.39236707"><ele>1367</ele><speed>6.68</speed><time>2017-03-19T14:26:54Z</time><pdop>3.0</pdop><geoidheight>0.00</geoidheight><course>264.8</course><type>1</type></trkpt>
      <trkpt lat="42.9948919" lon="-2.39245066"><ele>1368</ele><speed>6.51</speed><time>2017-03-19T14:26:55Z</time><pdop>3.0</pdop><geoidheight>0.00</geoidheight><course>273.8</course><type>1</type></trkpt>
      <trkpt lat="42.99490157" lon="-2.39253106"><ele>1368</ele><speed>6.84</speed><time>2017-03-19T14:26:56Z</time><pdop>3.0</pdop><geoidheight>0.00</geoidheight><course>283.4</course><type>1</type></trkpt>
      <trkpt lat="42.99490304" lon="-2.39261976"><ele>1369</ele><speed>6.59</speed><time>2017-03-19T14:26:57Z</time><pdop>3.0</pdop><geoidheight>0.00</geoidheight><course>274.2</course><type>1</type></trkpt>
      <trkpt lat="42.99493737" lon="-2.39269547"><ele>1369</ele><speed>6.08</speed><time>2017-03-19T14:26:58Z</time><pdop>3.0</pdop><geoidheight>0.00</geoidheight><course>292.9</course><type>1</type></trkpt>
      <trkpt lat="42.99496834" lon="-2.39283483"><ele>1373</ele><speed>5.43</speed><time>2017-03-19T14:27:00Z</time><pdop>3.0</pdop><geoidheight>0.00</geoidheight><course>287.1</course><type>1</type></trkpt>
      <trkpt lat="42.99500883" lon="-2.39295643"><ele>1373</ele><speed>5.26</speed><time>2017-03-19T14:27:02Z</time><pdop>3.0</pdop><geoidheight>0.00</geoidheight><course>296.3</course><type>1</type></trkpt>
      <trkpt lat="42.99510385" lon="-2.39291804"><ele>1372</ele><speed>5.17</speed><time>2017-03-19T14:27:05Z</time><pdop>4.0</pdop><geoidheight>0.00</geoidheight><course>38.0</course><type>1</type></trkpt>
      <trkpt lat="42.99511556" lon="-2.39273908"><ele>1374</ele><speed>7.36</speed><time>2017-03-19T14:27:07Z</time><pdop>4.0</pdop><geoidheight>0.00</geoidheight><course>89.7</course><type>1</type></trkpt>
      <trkpt lat="42.99508666" lon="-2.39263789"><ele>1374</ele><speed>8.34</speed><time>2017-03-19T14:27:08Z</time><pdop>4.0</pdop><geoidheight>0.00</geoidheight><course>110.9</course><type>1</type></trkpt>
      <trkpt lat="42.99504109" lon="-2.39255288"><ele>1375</ele><speed>8.82</speed><time>2017-03-19T14:27:09Z</time><pdop>4.0</pdop><geoidheight>0.00</geoidheight><course>126.5</course><type>1</type></trkpt>
      <trkpt lat="42.9949863" lon="-2.39247165"><ele>1375</ele><speed>9.31</speed><time>2017-03-19T14:27:10Z</time><pdop>4.0</pdop><geoidheight>0.00</geoidheight><course>132.9</course><type>1</type></trkpt>
      <trkpt lat="42.99492426" lon="-2.39238963"><ele>1376</ele><speed>9.31</speed><time>2017-03-19T14:27:11Z</time><pdop>3.0</pdop><geoidheight>0.00</geoidheight><course>136.2</course><type>1</type></trkpt>
      <trkpt lat="42.99486384" lon="-2.39231364"><ele>1376</ele><speed>9.34</speed><time>2017-03-19T14:27:12Z</time><pdop>3.0</pdop><geoidheight>0.00</geoidheight><course>139.0</course><type>1</type></trkpt>
      <trkpt lat="42.99480194" lon="-2.3922302"><ele>1377</ele><speed>9.60</speed><time>2017-03-19T14:27:13Z</time><pdop>3.0</pdop><geoidheight>0.00</geoidheight><course>139.0</course><type>1</type></trkpt>
      <trkpt lat="42.99473948" lon="-2.39214309"><ele>1377</ele><speed>10.13</speed><time>2017-03-19T14:27:14Z</time><pdop>3.0</pdop><geoidheight>0.00</geoidheight><course>137.2</course><type>1</type></trkpt>
      <trkpt lat="42.99467217" lon="-2.39205462"><ele>1378</ele><speed>10.16</speed><time>2017-03-19T14:27:15Z</time><pdop>3.0</pdop><geoidheight>0.00</geoidheight><course>138.0</course><type>1</type></trkpt>
      <trkpt lat="42.99460214" lon="-2.39197396"><ele>1379</ele><speed>10.00</speed><time>2017-03-19T14:27:16Z</time><pdop>3.0</pdop><geoidheight>0.00</geoidheight><course>139.6</course><type>1</type></trkpt>
      <trkpt lat="42.99453642" lon="-2.39189174"><ele>1380</ele><speed>9.64</speed><time>2017-03-19T14:27:17Z</time><pdop>3.0</pdop><geoidheight>0.00</geoidheight><course>137.8</course><type>1</type></trkpt>
      <trkpt lat="42.99444106" lon="-2.3917017"><ele>1379</ele><speed>9.88</speed><time>2017-03-19T14:27:19Z</time><pdop>3.0</pdop><geoidheight>0.00</geoidheight><course>120.9</course><type>1</type></trkpt>
      <trkpt lat="42.99440075" lon="-2.39158548"><ele>1379</ele><speed>10.06</speed><time>2017-03-19T14:27:20Z</time><pdop>3.0</pdop><geoidheight>0.00</geoidheight><course>115.5</course><type>1</type></trkpt>
      <trkpt lat="42.99435974" lon="-2.39147228"><ele>1379</ele><speed>9.96</speed><time>2017-03-19T14:27:21Z</time><pdop>3.0</pdop><geoidheight>0.00</geoidheight><course>116.6</course><type>1</type></trkpt>
      <trkpt lat="42.9943101" lon="-2.39137664"><ele>1379</ele><speed>9.64</speed><time>2017-03-19T14:27:22Z</time><pdop>3.0</pdop><geoidheight>0.00</geoidheight><course>124.4</course><type>1</type></trkpt>
      <trkpt lat="42.99426129" lon="-2.391283"><ele>1378</ele><speed>9.91</speed><time>2017-03-19T14:27:23Z</time><pdop>3.0</pdop><geoidheight>0.00</geoidheight><course>129.2</course><type>1</type></trkpt>
      <trkpt lat="42.9942022" lon="-2.39117974"><ele>1378</ele><speed>10.66</speed><time>2017-03-19T14:27:24Z</time><pdop>3.0</pdop><geoidheight>0.00</geoidheight><course>128.5</course><type>1</type></trkpt>
      <trkpt lat="42.99414266" lon="-2.39106713"><ele>1378</ele><speed>11.26</speed><time>2017-03-19T14:27:25Z</time><pdop>3.0</pdop><geoidheight>0.00</geoidheight><course>125.8</course><type>1</type></trkpt>
      <trkpt lat="42.99408932" lon="-2.39095392"><ele>1379</ele><speed>10.83</speed><time>2017-03-19T14:27:26Z</time><pdop>3.0</pdop><geoidheight>0.00</geoidheight><course>125.0</course><type>1</type></trkpt>
      <trkpt lat="42.99404199" lon="-2.39084974"><ele>1379</ele><speed>9.58</speed><time>2017-03-19T14:27:27Z</time><pdop>3.0</pdop><geoidheight>0.00</geoidheight><course>124.3</course><type>1</type></trkpt>
      <trkpt lat="42.9940025" lon="-2.39077234"><ele>1379</ele><speed>7.98</speed><time>2017-03-19T14:27:28Z</time><pdop>3.0</pdop><geoidheight>0.00</geoidheight><course>122.0</course><type>1</type></trkpt>
      <trkpt lat="42.99397658" lon="-2.39069766"><ele>1379</ele><speed>6.78</speed><time>2017-03-19T14:27:29Z</time><pdop>3.0</pdop><geoidheight>0.00</geoidheight><course>114.9</course><type>1</type></trkpt>
      <trkpt lat="42.99397118" lon="-2.3906166"><ele>1378</ele><speed>6.23</speed><time>2017-03-19T14:27:30Z</time><pdop>3.0</pdop><geoidheight>0.00</geoidheight><course>99.5</course><type>1</type></trkpt>
      <trkpt lat="42.9939826" lon="-2.39054139"><ele>1376</ele><speed>6.01</speed><time>2017-03-19T14:27:31Z</time><pdop>3.0</pdop><geoidheight>0.00</geoidheight><course>79.1</course><type>1</type></trkpt>
      <trkpt lat="42.99404485" lon="-2.39045577"><ele>1374</ele><speed>5.21</speed><time>2017-03-19T14:27:33Z</time><pdop>3.0</pdop><geoidheight>0.00</geoidheight><course>39.0</course><type>1</type></trkpt>
      <trkpt lat="42.99411596" lon="-2.3904827"><ele>1373</ele><speed>3.41</speed><time>2017-03-19T14:27:35Z</time><pdop>3.0</pdop><geoidheight>0.00</geoidheight><course>338.4</course><type>1</type></trkpt>
      <trkpt lat="42.99417035" lon="-2.39055597"><ele>1372</ele><speed>4.16</speed><time>2017-03-19T14:27:37Z</time><pdop>3.0</pdop><geoidheight>0.00</geoidheight><course>311.1</course><type>1</type></trkpt>
      <trkpt lat="42.99422796" lon="-2.39067313"><ele>1371</ele><speed>6.23</speed><time>2017-03-19T14:27:39Z</time><pdop>3.0</pdop><geoidheight>0.00</geoidheight><course>303.2</course><type>1</type></trkpt>
      <trkpt lat="42.99425806" lon="-2.39074165"><ele>1372</ele><speed>6.50</speed><time>2017-03-19T14:27:40Z</time><pdop>3.0</pdop><geoidheight>0.00</geoidheight><course>303.7</course><type>1</type></trkpt>
      <trkpt lat="42.9942905" lon="-2.39080491"><ele>1372</ele><speed>5.77</speed><time>2017-03-19T14:27:41Z</time><pdop>3.0</pdop><geoidheight>0.00</geoidheight><course>302.7</course><type>1</type></trkpt>
      <trkpt lat="42.99434494" lon="-2.39089902"><ele>1373</ele><speed>4.51</speed><time>2017-03-19T14:27:43Z</time><pdop>3.0</pdop><geoidheight>0.00</geoidheight><course>309.0</course><type>1</type></trkpt>
      <trkpt lat="42.99441187" lon="-2.39098888"><ele>1372</ele><speed>5.40</speed><time>2017-03-19T14:27:45Z</time><pdop>3.0</pdop><geoidheight>0.00</geoidheight><course>316.3</course><type>1</type></trkpt>
      <trkpt lat="42.99447549" lon="-2.39108886"><ele>1372</ele><speed>5.27</speed><time>2017-03-19T14:27:47Z</time><pdop>4.0</pdop><geoidheight>0.00</geoidheight><course>306.5</course><type>1</type></trkpt>
      <trkpt lat="42.99452464" lon="-2.39120576"><ele>1372</ele><speed>5.23</speed><time>2017-03-19T14:27:49Z</time><pdop>4.0</pdop><geoidheight>0.00</geoidheight><course>295.9</course><type>1</type></trkpt>
      <trkpt lat="42.99457133" lon="-2.39133463"><ele>1371</ele><speed>5.68</speed><time>2017-03-19T14:27:51Z</time><pdop>4.0</pdop><geoidheight>0.00</geoidheight><course>306.5</course><type>1</type></trkpt>
      <trkpt lat="42.99464604" lon="-2.39142881"><ele>1371</ele><speed>5.37</speed><time>2017-03-19T14:27:53Z</time><pdop>4.0</pdop><geoidheight>0.00</geoidheight><course>318.8</course><type>1</type></trkpt>
      <trkpt lat="42.99474359" lon="-2.39148672"><ele>1372</ele><speed>4.28</speed><time>2017-03-19T14:27:56Z</time><pdop>7.0</pdop><geoidheight>0.00</geoidheight><course>342.4</course><type>1</type></trkpt>
      <trkpt lat="42.99486949" lon="-2.3914695"><ele>1371</ele><speed>4.23</speed><time>2017-03-19T14:27:59Z</time><pdop>7.0</pdop><geoidheight>0.00</geoidheight><course>27.0</course><type>1</type></trkpt>
      <trkpt lat="42.99494865" lon="-2.39131829"><ele>1373</ele><speed>4.61</speed><time>2017-03-19T14:28:02Z</time><pdop>7.0</pdop><geoidheight>0.00</geoidheight><course>46.3</course><type>1</type></trkpt>
      <trkpt lat="42.99506158" lon="-2.39116434"><ele>1375</ele><speed>4.87</speed><time>2017-03-19T14:28:05Z</time><pdop>6.0</pdop><geoidheight>0.00</geoidheight><course>42.8</course><type>1</type></trkpt>
      <trkpt lat="42.99512375" lon="-2.39100548"><ele>1373</ele><speed>5.48</speed><time>2017-03-19T14:28:08Z</time><pdop>5.0</pdop><geoidheight>0.00</geoidheight><course>61.0</course><type>1</type></trkpt>
      <trkpt lat="42.9951752" lon="-2.39088475"><ele>1371</ele><speed>5.13</speed><time>2017-03-19T14:28:10Z</time><pdop>4.0</pdop><geoidheight>0.00</geoidheight><course>59.6</course><type>1</type></trkpt>
      <trkpt lat="42.99521839" lon="-2.39077656"><ele>1369</ele><speed>5.02</speed><time>2017-03-19T14:28:12Z</time><pdop>4.0</pdop><geoidheight>0.00</geoidheight><course>58.8</course><type>1</type></trkpt>
      <trkpt lat="42.99527808" lon="-2.39067958"><ele>1366</ele><speed>5.26</speed><time>2017-03-19T14:28:14Z</time><pdop>4.0</pdop><geoidheight>0.00</geoidheight><course>46.1</course><type>1</type></trkpt>
      <trkpt lat="42.99535912" lon="-2.39057743"><ele>1363</ele><speed>5.82</speed><time>2017-03-19T14:28:16Z</time><pdop>4.0</pdop><geoidheight>0.00</geoidheight><course>44.9</course><type>1</type></trkpt>
      <trkpt lat="42.9954201" lon="-2.39046498"><ele>1362</ele><speed>5.82</speed><time>2017-03-19T14:28:18Z</time><pdop>3.0</pdop><geoidheight>0.00</geoidheight><course>57.0</course><type>1</type></trkpt>
      <trkpt lat="42.99545168" lon="-2.39039739"><ele>1361</ele><speed>6.16</speed><time>2017-03-19T14:28:19Z</time><pdop>3.0</pdop><geoidheight>0.00</geoidheight><course>58.5</course><type>1</type></trkpt>
      <trkpt lat="42.99548683" lon="-2.39032802"><ele>1360</ele><speed>6.62</speed><time>2017-03-19T14:28:20Z</time><pdop>3.0</pdop><geoidheight>0.00</geoidheight><course>56.8</course><type>1</type></trkpt>
      <trkpt lat="42.99552263" lon="-2.39026532"><ele>1359</ele><speed>6.68</speed><time>2017-03-19T14:28:21Z</time><pdop>3.0</pdop><geoidheight>0.00</geoidheight><course>54.7</course><type>1</type></trkpt>
      <trkpt lat="42.99555561" lon="-2.39020239"><ele>1359</ele><speed>6.62</speed><time>2017-03-19T14:28:22Z</time><pdop>3.0</pdop><geoidheight>0.00</geoidheight><course>52.6</course><type>1</type></trkpt>
      <trkpt lat="42.99559468" lon="-2.39014086"><ele>1359</ele><speed>6.64</speed><time>2017-03-19T14:28:23Z</time><pdop>3.0</pdop><geoidheight>0.00</geoidheight><course>48.9</course><type>1</type></trkpt>
      <trkpt lat="42.99563492" lon="-2.39008193"><ele>1358</ele><speed>6.70</speed><time>2017-03-19T14:28:24Z</time><pdop>3.0</pdop><geoidheight>0.00</geoidheight><course>46.9</course><type>1</type></trkpt>
      <trkpt lat="42.99570466" lon="-2.38996789"><ele>1358</ele><speed>6.08</speed><time>2017-03-19T14:28:26Z</time><pdop>3.0</pdop><geoidheight>0.00</geoidheight><course>52.2</course><type>1</type></trkpt>
      <trkpt lat="42.99575627" lon="-2.38983506"><ele>1358</ele><speed>5.95</speed><time>2017-03-19T14:28:28Z</time><pdop>3.0</pdop><geoidheight>0.00</geoidheight><course>65.7</course><type>1</type></trkpt>
      <trkpt lat="42.99578088" lon="-2.38975932"><ele>1358</ele><speed>6.54</speed><time>2017-03-19T14:28:29Z</time><pdop>3.0</pdop><geoidheight>0.00</geoidheight><course>69.2</course><type>1</type></trkpt>
      <trkpt lat="42.99580146" lon="-2.38967781"><ele>1358</ele><speed>7.05</speed><time>2017-03-19T14:28:30Z</time><pdop>3.0</pdop><geoidheight>0.00</geoidheight><course>71.4</course><type>1</type></trkpt>
      <trkpt lat="42.99582229" lon="-2.38959477"><ele>1357</ele><speed>7.08</speed><time>2017-03-19T14:28:31Z</time><pdop>3.0</pdop><geoidheight>0.00</geoidheight><course>71.4</course><type>1</type></trkpt>
      <trkpt lat="42.99584385" lon="-2.38952036"><ele>1358</ele><speed>6.58</speed><time>2017-03-19T14:28:32Z</time><pdop>3.0</pdop><geoidheight>0.00</geoidheight><course>68.5</course><type>1</type></trkpt>
      <trkpt lat="42.99589653" lon="-2.38938966"><ele>1357</ele><speed>5.86</speed><time>2017-03-19T14:28:34Z</time><pdop>3.0</pdop><geoidheight>0.00</geoidheight><course>57.9</course><type>1</type></trkpt>
      <trkpt lat="42.99592826" lon="-2.38932588"><ele>1357</ele><speed>6.07</speed><time>2017-03-19T14:28:35Z</time><pdop>3.0</pdop><geoidheight>0.00</geoidheight><course>57.2</course><type>1</type></trkpt>
      <trkpt lat="42.99596047" lon="-2.38925834"><ele>1356</ele><speed>6.38</speed><time>2017-03-19T14:28:36Z</time><pdop>3.0</pdop><geoidheight>0.00</geoidheight><course>58.9</course><type>1</type></trkpt>
      <trkpt lat="42.99599182" lon="-2.38917903"><ele>1356</ele><speed>6.71</speed><time>2017-03-19T14:28:37Z</time><pdop>3.0</pdop><geoidheight>0.00</geoidheight><course>62.1</course><type>1</type></trkpt>
      <trkpt lat="42.99601693" lon="-2.3890974"><ele>1356</ele><speed>6.78</speed><time>2017-03-19T14:28:38Z</time><pdop>3.0</pdop><geoidheight>0.00</geoidheight><course>65.7</course><type>1</type></trkpt>
      <trkpt lat="42.99603733" lon="-2.38902231"><ele>1356</ele><speed>6.51</speed><time>2017-03-19T14:28:39Z</time><pdop>3.0</pdop><geoidheight>0.00</geoidheight><course>66.7</course><type>1</type></trkpt>
      <trkpt lat="42.99607414" lon="-2.38894064"><ele>1355</ele><speed>6.63</speed><time>2017-03-19T14:28:40Z</time><pdop>3.0</pdop><geoidheight>0.00</geoidheight><course>64.2</course><type>1</type></trkpt>
      <trkpt lat="42.99610334" lon="-2.38887023"><ele>1355</ele><speed>6.59</speed><time>2017-03-19T14:28:41Z</time><pdop>3.0</pdop><geoidheight>0.00</geoidheight><course>63.0</course><type>1</type></trkpt>
      <trkpt lat="42.99612633" lon="-2.38879764"><ele>1356</ele><speed>6.24</speed><time>2017-03-19T14:28:42Z</time><pdop>3.0</pdop><geoidheight>0.00</geoidheight><course>65.8</course><type>1</type></trkpt>
      <trkpt lat="42.99614394" lon="-2.38865289"><ele>1356</ele><speed>6.74</speed><time>2017-03-19T14:28:44Z</time><pdop>3.0</pdop><geoidheight>0.00</geoidheight><course>87.7</course><type>1</type></trkpt>
      <trkpt lat="42.99613316" lon="-2.38856557"><ele>1356</ele><speed>7.35</speed><time>2017-03-19T14:28:45Z</time><pdop>3.0</pdop><geoidheight>0.00</geoidheight><course>99.1</course><type>1</type></trkpt>
      <trkpt lat="42.99610611" lon="-2.38847871"><ele>1357</ele><speed>7.50</speed><time>2017-03-19T14:28:46Z</time><pdop>3.0</pdop><geoidheight>0.00</geoidheight><course>107.7</course><type>1</type></trkpt>
      <trkpt lat="42.99608743" lon="-2.38838927"><ele>1358</ele><speed>7.53</speed><time>2017-03-19T14:28:47Z</time><pdop>3.0</pdop><geoidheight>0.00</geoidheight><course>109.0</course><type>1</type></trkpt>
      <trkpt lat="42.99607492" lon="-2.38830098"><ele>1358</ele><speed>7.39</speed><time>2017-03-19T14:28:48Z</time><pdop>3.0</pdop><geoidheight>0.00</geoidheight><course>101.0</course><type>1</type></trkpt>
      <trkpt lat="42.99607983" lon="-2.38821646"><ele>1359</ele><speed>7.10</speed><time>2017-03-19T14:28:49Z</time><pdop>3.0</pdop><geoidheight>0.00</geoidheight><course>87.6</course><type>1</type></trkpt>
      <trkpt lat="42.99609927" lon="-2.38813568"><ele>1359</ele><speed>6.67</speed><time>2017-03-19T14:28:50Z</time><pdop>3.0</pdop><geoidheight>0.00</geoidheight><course>71.8</course><type>1</type></trkpt>
      <trkpt lat="42.9961243" lon="-2.38806386"><ele>1359</ele><speed>6.55</speed><time>2017-03-19T14:28:51Z</time><pdop>3.0</pdop><geoidheight>0.00</geoidheight><course>63.6</course><type>1</type></trkpt>
      <trkpt lat="42.9961421" lon="-2.38799072"><ele>1360</ele><speed>6.31</speed><time>2017-03-19T14:28:52Z</time><pdop>3.0</pdop><geoidheight>0.00</geoidheight><course>67.3</course><type>1</type></trkpt>
      <trkpt lat="42.99615745" lon="-2.38791692"><ele>1360</ele><speed>6.21</speed><time>2017-03-19T14:28:53Z</time><pdop>3.0</pdop><geoidheight>0.00</geoidheight><course>80.4</course><type>1</type></trkpt>
      <trkpt lat="42.9961586" lon="-2.38784171"><ele>1362</ele><speed>6.21</speed><time>2017-03-19T14:28:54Z</time><pdop>3.0</pdop><geoidheight>0.00</geoidheight><course>87.2</course><type>1</type></trkpt>
      <trkpt lat="42.99617595" lon="-2.38772009"><ele>1365</ele><speed>5.10</speed><time>2017-03-19T14:28:56Z</time><pdop>3.0</pdop><geoidheight>0.00</geoidheight><course>66.5</course><type>1</type></trkpt>
      <trkpt lat="42.99630071" lon="-2.38765888"><ele>1365</ele><speed>8.26</speed><time>2017-03-19T14:28:58Z</time><pdop>3.0</pdop><geoidheight>0.00</geoidheight><course>12.3</course><type>1</type></trkpt>
      <trkpt lat="42.99638723" lon="-2.3877091"><ele>1368</ele><speed>8.86</speed><time>2017-03-19T14:28:59Z</time><pdop>3.0</pdop><geoidheight>0.00</geoidheight><course>346.5</course><type>1</type></trkpt>
      <trkpt lat="42.99645646" lon="-2.38777001"><ele>1370</ele><speed>8.98</speed><time>2017-03-19T14:29:00Z</time><pdop>3.0</pdop><geoidheight>0.00</geoidheight><course>325.5</course><type>1</type></trkpt>
      <trkpt lat="42.99646009" lon="-2.38789072"><ele>1370</ele><speed>8.74</speed><time>2017-03-19T14:29:01Z</time><pdop>3.0</pdop><geoidheight>0.00</geoidheight><course>282.6</course><type>1</type></trkpt>
      <trkpt lat="42.99643524" lon="-2.38799921"><ele>1371</ele><speed>9.77</speed><time>2017-03-19T14:29:02Z</time><pdop>3.0</pdop><geoidheight>0.00</geoidheight><course>257.9</course><type>1</type></trkpt>
      <trkpt lat="42.996386" lon="-2.3881068"><ele>1371</ele><speed>10.44</speed><time>2017-03-19T14:29:03Z</time><pdop>3.0</pdop><geoidheight>0.00</geoidheight><course>239.8</course><type>1</type></trkpt>
      <trkpt lat="42.99631616" lon="-2.38820767"><ele>1371</ele><speed>10.56</speed><time>2017-03-19T14:29:04Z</time><pdop>3.0</pdop><geoidheight>0.00</geoidheight><course>224.8</course><type>1</type></trkpt>
      <trkpt lat="42.99622943" lon="-2.38826167"><ele>1371</ele><speed>10.67</speed><time>2017-03-19T14:29:05Z</time><pdop>3.0</pdop><geoidheight>0.00</geoidheight><course>208.5</course><type>1</type></trkpt>
      <trkpt lat="42.99613452" lon="-2.38827942"><ele>1371</ele><speed>11.34</speed><time>2017-03-19T14:29:06Z</time><pdop>3.0</pdop><geoidheight>0.00</geoidheight><course>190.9</course><type>1</type></trkpt>
      <trkpt lat="42.99603213" lon="-2.38826453"><ele>1372</ele><speed>11.64</speed><time>2017-03-19T14:29:07Z</time><pdop>3.0</pdop><geoidheight>0.00</geoidheight><course>175.8</course><type>1</type></trkpt>
      <trkpt lat="42.99593398" lon="-2.3882125"><ele>1373</ele><speed>11.21</speed><time>2017-03-19T14:29:08Z</time><pdop>3.0</pdop><geoidheight>0.00</geoidheight><course>161.1</course><type>1</type></trkpt>
      <trkpt lat="42.99585361" lon="-2.3881371"><ele>1374</ele><speed>10.15</speed><time>2017-03-19T14:29:09Z</time><pdop>3.0</pdop><geoidheight>0.00</geoidheight><course>146.9</course><type>1</type></trkpt>
      <trkpt lat="42.99580081" lon="-2.38805825"><ele>1374</ele><speed>9.19</speed><time>2017-03-19T14:29:10Z</time><pdop>3.0</pdop><geoidheight>0.00</geoidheight><course>133.0</course><type>1</type></trkpt>
      <trkpt lat="42.99576645" lon="-2.38796522"><ele>1374</ele><speed>8.57</speed><time>2017-03-19T14:29:11Z</time><pdop>3.0</pdop><geoidheight>0.00</geoidheight><course>117.4</course><type>1</type></trkpt>
      <trkpt lat="42.99575504" lon="-2.38786541"><ele>1375</ele><speed>7.83</speed><time>2017-03-19T14:29:12Z</time><pdop>3.0</pdop><geoidheight>0.00</geoidheight><course>101.4</course><type>1</type></trkpt>
      <trkpt lat="42.99575738" lon="-2.38778053"><ele>1376</ele><speed>7.01</speed><time>2017-03-19T14:29:13Z</time><pdop>3.0</pdop><geoidheight>0.00</geoidheight><course>89.2</course><type>1</type></trkpt>
      <trkpt lat="42.99577607" lon="-2.38765633"><ele>1378</ele><speed>4.91</speed><time>2017-03-19T14:29:15Z</time><pdop>3.0</pdop><geoidheight>0.00</geoidheight><course>74.9</course><type>1</type></trkpt>
      <trkpt lat="42.99580654" lon="-2.38753189"><ele>1376</ele><speed>5.93</speed><time>2017-03-19T14:29:17Z</time><pdop>3.0</pdop><geoidheight>0.00</geoidheight><course>66.4</course><type>1</type></trkpt>
      <trkpt lat="42.99582975" lon="-2.38745991"><ele>1375</ele><speed>6.39</speed><time>2017-03-19T14:29:18Z</time><pdop>3.0</pdop><geoidheight>0.00</geoidheight><course>66.2</course><type>1</type></trkpt>
      <trkpt lat="42.99584076" lon="-2.38738519"><ele>1375</ele><speed>6.12</speed><time>2017-03-19T14:29:19Z</time><pdop>3.0</pdop><geoidheight>0.00</geoidheight><course>76.8</course><type>1</type></trkpt>
      <trkpt lat="42.99584252" lon="-2.38731124"><ele>1375</ele><speed>5.96</speed><time>2017-03-19T14:29:20Z</time><pdop>3.0</pdop><geoidheight>0.00</geoidheight><course>90.6</course><type>1</type></trkpt>
      <trkpt lat="42.99584544" lon="-2.3871664"><ele>1373</ele><speed>5.87</speed><time>2017-03-19T14:29:22Z</time><pdop>3.0</pdop><geoidheight>0.00</geoidheight><course>83.1</course><type>1</type></trkpt>
      <trkpt lat="42.9958653" lon="-2.38708785"><ele>1371</ele><speed>6.29</speed><time>2017-03-19T14:29:23Z</time><pdop>3.0</pdop><geoidheight>0.00</geoidheight><course>70.3</course><type>1</type></trkpt>
      <trkpt lat="42.99589681" lon="-2.3870102"><ele>1370</ele><speed>6.84</speed><time>2017-03-19T14:29:24Z</time><pdop>3.0</pdop><geoidheight>0.00</geoidheight><course>65.0</course><type>1</type></trkpt>
      <trkpt lat="42.99592545" lon="-2.38693192"><ele>1369</ele><speed>6.67</speed><time>2017-03-19T14:29:25Z</time><pdop>3.0</pdop><geoidheight>0.00</geoidheight><course>65.7</course><type>1</type></trkpt>
      <trkpt lat="42.99595716" lon="-2.38680866"><ele>1368</ele><speed>5.53</speed><time>2017-03-19T14:29:27Z</time><pdop>3.0</pdop><geoidheight>0.00</geoidheight><course>70.8</course><type>1</type></trkpt>
      <trkpt lat="42.99598093" lon="-2.38668298"><ele>1366</ele><speed>5.54</speed><time>2017-03-19T14:29:29Z</time><pdop>3.0</pdop><geoidheight>0.00</geoidheight><course>77.2</course><type>1</type></trkpt>
      <trkpt lat="42.99599474" lon="-2.38654883"><ele>1364</ele><speed>5.66</speed><time>2017-03-19T14:29:31Z</time><pdop>3.0</pdop><geoidheight>0.00</geoidheight><course>82.6</course><type>1</type></trkpt>
      <trkpt lat="42.99602497" lon="-2.38641361"><ele>1360</ele><speed>5.97</speed><time>2017-03-19T14:29:33Z</time><pdop>3.0</pdop><geoidheight>0.00</geoidheight><course>71.0</course><type>1</type></trkpt>
      <trkpt lat="42.99605657" lon="-2.38635316"><ele>1359</ele><speed>6.04</speed><time>2017-03-19T14:29:34Z</time><pdop>3.0</pdop><geoidheight>0.00</geoidheight><course>55.2</course><type>1</type></trkpt>
      <trkpt lat="42.99614493" lon="-2.38628231"><ele>1358</ele><speed>6.06</speed><time>2017-03-19T14:29:36Z</time><pdop>3.0</pdop><geoidheight>0.00</geoidheight><course>26.8</course><type>1</type></trkpt>
      <trkpt lat="42.99620338" lon="-2.38628278"><ele>1357</ele><speed>6.16</speed><time>2017-03-19T14:29:37Z</time><pdop>3.0</pdop><geoidheight>0.00</geoidheight><course>6.7</course><type>1</type></trkpt>
      <trkpt lat="42.99625978" lon="-2.38628503"><ele>1356</ele><speed>5.91</speed><time>2017-03-19T14:29:38Z</time><pdop>3.0</pdop><geoidheight>0.00</geoidheight><course>358.8</course><type>1</type></trkpt>
      <trkpt lat="42.99635594" lon="-2.3862819"><ele>1356</ele><speed>5.59</speed><time>2017-03-19T14:29:40Z</time><pdop>3.0</pdop><geoidheight>0.00</geoidheight><course>2.3</course><type>1</type></trkpt>
      <trkpt lat="42.99643202" lon="-2.38632506"><ele>1354</ele><speed>6.81</speed><time>2017-03-19T14:29:41Z</time><pdop>3.0</pdop><geoidheight>0.00</geoidheight><course>346.0</course><type>1</type></trkpt>
      <trkpt lat="42.99650024" lon="-2.38636572"><ele>1353</ele><speed>7.50</speed><time>2017-03-19T14:29:42Z</time><pdop>3.0</pdop><geoidheight>0.00</geoidheight><course>339.4</course><type>1</type></trkpt>
      <trkpt lat="42.99656877" lon="-2.38641621"><ele>1351</ele><speed>7.66</speed><time>2017-03-19T14:29:43Z</time><pdop>3.0</pdop><geoidheight>0.00</geoidheight><course>333.7</course><type>1</type></trkpt>
      <trkpt lat="42.99662275" lon="-2.38645903"><ele>1351</ele><speed>7.27</speed><time>2017-03-19T14:29:44Z</time><pdop>3.0</pdop><geoidheight>0.00</geoidheight><course>330.3</course><type>1</type></trkpt>
      <trkpt lat="42.99667889" lon="-2.3865072"><ele>1350</ele><speed>7.10</speed><time>2017-03-19T14:29:45Z</time><pdop>3.0</pdop><geoidheight>0.00</geoidheight><course>327.9</course><type>1</type></trkpt>
      <trkpt lat="42.99673647" lon="-2.38655376"><ele>1349</ele><speed>7.15</speed><time>2017-03-19T14:29:46Z</time><pdop>3.0</pdop><geoidheight>0.00</geoidheight><course>329.3</course><type>1</type></trkpt>
      <trkpt lat="42.99678997" lon="-2.38660638"><ele>1349</ele><speed>7.40</speed><time>2017-03-19T14:29:47Z</time><pdop>3.0</pdop><geoidheight>0.00</geoidheight><course>324.7</course><type>1</type></trkpt>
      <trkpt lat="42.99684432" lon="-2.38667489"><ele>1348</ele><speed>7.92</speed><time>2017-03-19T14:29:48Z</time><pdop>3.0</pdop><geoidheight>0.00</geoidheight><course>317.8</course><type>1</type></trkpt>
      <trkpt lat="42.99689855" lon="-2.38673889"><ele>1347</ele><speed>7.68</speed><time>2017-03-19T14:29:49Z</time><pdop>3.0</pdop><geoidheight>0.00</geoidheight><course>316.8</course><type>1</type></trkpt>
      <trkpt lat="42.9969543" lon="-2.3868004"><ele>1346</ele><speed>7.04</speed><time>2017-03-19T14:29:50Z</time><pdop>3.0</pdop><geoidheight>0.00</geoidheight><course>317.6</course><type>1</type></trkpt>
      <trkpt lat="42.99704334" lon="-2.38687579"><ele>1344</ele><speed>6.64</speed><time>2017-03-19T14:29:52Z</time><pdop>3.0</pdop><geoidheight>0.00</geoidheight><course>321.9</course><type>1</type></trkpt>
      <trkpt lat="42.99709219" lon="-2.38692322"><ele>1343</ele><speed>7.26</speed><time>2017-03-19T14:29:53Z</time><pdop>3.0</pdop><geoidheight>0.00</geoidheight><course>324.2</course><type>1</type></trkpt>
      <trkpt lat="42.99715343" lon="-2.38697905"><ele>1341</ele><speed>7.71</speed><time>2017-03-19T14:29:54Z</time><pdop>3.0</pdop><geoidheight>0.00</geoidheight><course>323.8</course><type>1</type></trkpt>
      <trkpt lat="42.99721186" lon="-2.38705938"><ele>1340</ele><speed>7.91</speed><time>2017-03-19T14:29:55Z</time><pdop>3.0</pdop><geoidheight>0.00</geoidheight><course>320.4</course><type>1</type></trkpt>
      <trkpt lat="42.99726344" lon="-2.38711749"><ele>1340</ele><speed>7.84</speed><time>2017-03-19T14:29:56Z</time><pdop>3.0</pdop><geoidheight>0.00</geoidheight><course>316.9</course><type>1</type></trkpt>
      <trkpt lat="42.99731679" lon="-2.38719067"><ele>1340</ele><speed>7.94</speed><time>2017-03-19T14:29:57Z</time><pdop>3.0</pdop><geoidheight>0.00</geoidheight><course>314.0</course><type>1</type></trkpt>
      <trkpt lat="42.99736206" lon="-2.38724046"><ele>1341</ele><speed>7.29</speed><time>2017-03-19T14:29:58Z</time><pdop>3.0</pdop><geoidheight>0.00</geoidheight><course>315.4</course><type>1</type></trkpt>
      <trkpt lat="42.99740608" lon="-2.38731103"><ele>1339</ele><speed>7.21</speed><time>2017-03-19T14:29:59Z</time><pdop>3.0</pdop><geoidheight>0.00</geoidheight><course>314.2</course><type>1</type></trkpt>
      <trkpt lat="42.99745176" lon="-2.38738751"><ele>1339</ele><speed>7.67</speed><time>2017-03-19T14:30:00Z</time><pdop>3.0</pdop><geoidheight>0.00</geoidheight><course>311.9</course><type>1</type></trkpt>
      <trkpt lat="42.99749683" lon="-2.38747693"><ele>1338</ele><speed>8.43</speed><time>2017-03-19T14:30:01Z</time><pdop>3.0</pdop><geoidheight>0.00</geoidheight><course>309.1</course><type>1</type></trkpt>
      <trkpt lat="42.99754005" lon="-2.38756747"><ele>1338</ele><speed>8.91</speed><time>2017-03-19T14:30:02Z</time><pdop>3.0</pdop><geoidheight>0.00</geoidheight><course>302.9</course><type>1</type></trkpt>
      <trkpt lat="42.9975776" lon="-2.38766942"><ele>1338</ele><speed>9.00</speed><time>2017-03-19T14:30:03Z</time><pdop>3.0</pdop><geoidheight>0.00</geoidheight><course>296.8</course><type>1</type></trkpt>
      <trkpt lat="42.99761532" lon="-2.38778681"><ele>1339</ele><speed>8.64</speed><time>2017-03-19T14:30:04Z</time><pdop>3.0</pdop><geoidheight>0.00</geoidheight><course>293.1</course><type>1</type></trkpt>
      <trkpt lat="42.9976385" lon="-2.38788322"><ele>1339</ele><speed>8.21</speed><time>2017-03-19T14:30:05Z</time><pdop>3.0</pdop><geoidheight>0.00</geoidheight><course>290.5</course><type>1</type></trkpt>
      <trkpt lat="42.99767023" lon="-2.38796829"><ele>1340</ele><speed>7.68</speed><time>2017-03-19T14:30:06Z</time><pdop>3.0</pdop><geoidheight>0.00</geoidheight><course>295.7</course><type>1</type></trkpt>
      <trkpt lat="42.9977108" lon="-2.38804406"><ele>1340</ele><speed>7.62</speed><time>2017-03-19T14:30:07Z</time><pdop>3.0</pdop><geoidheight>0.00</geoidheight><course>305.7</course><type>1</type></trkpt>
      <trkpt lat="42.99776635" lon="-2.38811884"><ele>1339</ele><speed>8.32</speed><time>2017-03-19T14:30:08Z</time><pdop>3.0</pdop><geoidheight>0.00</geoidheight><course>315.5</course><type>1</type></trkpt>
      <trkpt lat="42.99781894" lon="-2.38819783"><ele>1339</ele><speed>8.74</speed><time>2017-03-19T14:30:09Z</time><pdop>3.0</pdop><geoidheight>0.00</geoidheight><course>313.4</course><type>1</type></trkpt>
      <trkpt lat="42.99786858" lon="-2.38828837"><ele>1340</ele><speed>8.90</speed><time>2017-03-19T14:30:10Z</time><pdop>3.0</pdop><geoidheight>0.00</geoidheight><course>308.3</course><type>1</type></trkpt>
      <trkpt lat="42.99792284" lon="-2.38837489"><ele>1340</ele><speed>8.89</speed><time>2017-03-19T14:30:11Z</time><pdop>3.0</pdop><geoidheight>0.00</geoidheight><course>310.3</course><type>1</type></trkpt>
      <trkpt lat="42.99798545" lon="-2.38844586"><ele>1340</ele><speed>8.91</speed><time>2017-03-19T14:30:12Z</time><pdop>3.0</pdop><geoidheight>0.00</geoidheight><course>317.9</course><type>1</type></trkpt>
      <trkpt lat="42.99805688" lon="-2.38851565"><ele>1339</ele><speed>9.49</speed><time>2017-03-19T14:30:13Z</time><pdop>4.0</pdop><geoidheight>0.00</geoidheight><course>322.2</course><type>1</type></trkpt>
      <trkpt lat="42.99812746" lon="-2.3885799"><ele>1339</ele><speed>9.68</speed><time>2017-03-19T14:30:14Z</time><pdop>3.0</pdop><geoidheight>0.00</geoidheight><course>324.8</course><type>1</type></trkpt>
      <trkpt lat="42.99819633" lon="-2.38863765"><ele>1339</ele><speed>9.29</speed><time>2017-03-19T14:30:15Z</time><pdop>3.0</pdop><geoidheight>0.00</geoidheight><course>325.9</course><type>1</type></trkpt>
      <trkpt lat="42.99825459" lon="-2.38875363"><ele>1336</ele><speed>9.14</speed><time>2017-03-19T14:30:16Z</time><pdop>3.0</pdop><geoidheight>0.00</geoidheight><course>319.2</course><type>1</type></trkpt>
      <trkpt lat="42.99830855" lon="-2.38881868"><ele>1334</ele><speed>8.19</speed><time>2017-03-19T14:30:17Z</time><pdop>3.0</pdop><geoidheight>0.00</geoidheight><course>318.1</course><type>1</type></trkpt>
      <trkpt lat="42.99835881" lon="-2.38889068"><ele>1332</ele><speed>8.33</speed><time>2017-03-19T14:30:18Z</time><pdop>3.0</pdop><geoidheight>0.00</geoidheight><course>317.1</course><type>1</type></trkpt>
      <trkpt lat="42.99842389" lon="-2.38895844"><ele>1328</ele><speed>9.25</speed><time>2017-03-19T14:30:19Z</time><pdop>3.0</pdop><geoidheight>0.00</geoidheight><course>317.4</course><type>1</type></trkpt>
      <trkpt lat="42.99848897" lon="-2.38905261"><ele>1325</ele><speed>10.01</speed><time>2017-03-19T14:30:20Z</time><pdop>3.0</pdop><geoidheight>0.00</geoidheight><course>314.4</course><type>1</type></trkpt>
      <trkpt lat="42.9985461" lon="-2.38915013"><ele>1322</ele><speed>10.45</speed><time>2017-03-19T14:30:21Z</time><pdop>3.0</pdop><geoidheight>0.00</geoidheight><course>309.1</course><type>1</type></trkpt>
      <trkpt lat="42.99859204" lon="-2.38926431"><ele>1320</ele><speed>10.19</speed><time>2017-03-19T14:30:22Z</time><pdop>3.0</pdop><geoidheight>0.00</geoidheight><course>299.9</course><type>1</type></trkpt>
      <trkpt lat="42.99862582" lon="-2.38937688"><ele>1319</ele><speed>9.68</speed><time>2017-03-19T14:30:23Z</time><pdop>3.0</pdop><geoidheight>0.00</geoidheight><course>292.1</course><type>1</type></trkpt>
      <trkpt lat="42.99865403" lon="-2.38947925"><ele>1318</ele><speed>9.18</speed><time>2017-03-19T14:30:24Z</time><pdop>3.0</pdop><geoidheight>0.00</geoidheight><course>289.6</course><type>1</type></trkpt>
      <trkpt lat="42.99867509" lon="-2.38956487"><ele>1317</ele><speed>8.74</speed><time>2017-03-19T14:30:25Z</time><pdop>3.0</pdop><geoidheight>0.00</geoidheight><course>289.0</course><type>1</type></trkpt>
      <trkpt lat="42.99869636" lon="-2.38967053"><ele>1315</ele><speed>9.00</speed><time>2017-03-19T14:30:26Z</time><pdop>3.0</pdop><geoidheight>0.00</geoidheight><course>286.9</course><type>1</type></trkpt>
      <trkpt lat="42.99870633" lon="-2.38977717"><ele>1314</ele><speed>9.38</speed><time>2017-03-19T14:30:27Z</time><pdop>3.0</pdop><geoidheight>0.00</geoidheight><course>281.1</course><type>1</type></trkpt>
      <trkpt lat="42.99871841" lon="-2.38990689"><ele>1314</ele><speed>10.16</speed><time>2017-03-19T14:30:28Z</time><pdop>3.0</pdop><geoidheight>0.00</geoidheight><course>278.7</course><type>1</type></trkpt>
      <trkpt lat="42.99872222" lon="-2.39001879"><ele>1313</ele><speed>9.33</speed><time>2017-03-19T14:30:29Z</time><pdop>3.0</pdop><geoidheight>0.00</geoidheight><course>276.5</course><type>1</type></trkpt>
      <trkpt lat="42.99871721" lon="-2.39011189"><ele>1315</ele><speed>7.78</speed><time>2017-03-19T14:30:30Z</time><pdop>3.0</pdop><geoidheight>0.00</geoidheight><course>268.6</course><type>1</type></trkpt>
      <trkpt lat="42.99871063" lon="-2.39019433"><ele>1315</ele><speed>6.91</speed><time>2017-03-19T14:30:31Z</time><pdop>3.0</pdop><geoidheight>0.00</geoidheight><course>263.6</course><type>1</type></trkpt>
      <trkpt lat="42.99870437" lon="-2.39027713"><ele>1315</ele><speed>6.51</speed><time>2017-03-19T14:30:32Z</time><pdop>3.0</pdop><geoidheight>0.00</geoidheight><course>263.8</course><type>1</type></trkpt>
      <trkpt lat="42.99870805" lon="-2.39036583"><ele>1315</ele><speed>7.21</speed><time>2017-03-19T14:30:33Z</time><pdop>3.0</pdop><geoidheight>0.00</geoidheight><course>270.6</course><type>1</type></trkpt>
      <trkpt lat="42.99873068" lon="-2.39046063"><ele>1316</ele><speed>7.93</speed><time>2017-03-19T14:30:34Z</time><pdop>3.0</pdop><geoidheight>0.00</geoidheight><course>282.1</course><type>1</type></trkpt>
      <trkpt lat="42.9987511" lon="-2.39054892"><ele>1317</ele><speed>7.61</speed><time>2017-03-19T14:30:35Z</time><pdop>3.0</pdop><geoidheight>0.00</geoidheight><course>288.4</course><type>1</type></trkpt>
      <trkpt lat="42.99878015" lon="-2.39061309"><ele>1318</ele><speed>6.77</speed><time>2017-03-19T14:30:36Z</time><pdop>3.0</pdop><geoidheight>0.00</geoidheight><course>296.9</course><type>1</type></trkpt>
      <trkpt lat="42.9988078" lon="-2.39069234"><ele>1318</ele><speed>6.79</speed><time>2017-03-19T14:30:37Z</time><pdop>3.0</pdop><geoidheight>0.00</geoidheight><course>295.0</course><type>1</type></trkpt>
      <trkpt lat="42.99885916" lon="-2.39073507"><ele>1318</ele><speed>5.06</speed><time>2017-03-19T14:30:38Z</time><pdop>3.0</pdop><geoidheight>0.00</geoidheight><course>318.6</course><type>1</type></trkpt>
      <trkpt lat="42.99891878" lon="-2.39076691"><ele>1317</ele><speed>6.10</speed><time>2017-03-19T14:30:39Z</time><pdop>4.0</pdop><geoidheight>0.00</geoidheight><course>332.1</course><type>1</type></trkpt>
      <trkpt lat="42.9990198" lon="-2.39072106"><ele>1316</ele><speed>5.96</speed><time>2017-03-19T14:30:41Z</time><pdop>4.0</pdop><geoidheight>0.00</geoidheight><course>21.0</course><type>1</type></trkpt>
      <trkpt lat="42.9990791" lon="-2.39062893"><ele>1316</ele><speed>6.47</speed><time>2017-03-19T14:30:42Z</time><pdop>4.0</pdop><geoidheight>0.00</geoidheight><course>33.3</course><type>1</type></trkpt>
      <trkpt lat="42.99905915" lon="-2.39051912"><ele>1314</ele><speed>6.92</speed><time>2017-03-19T14:30:43Z</time><pdop>3.0</pdop><geoidheight>0.00</geoidheight><course>79.4</course><type>1</type></trkpt>
      <trkpt lat="42.99905806" lon="-2.39043172"><ele>1313</ele><speed>7.20</speed><time>2017-03-19T14:30:44Z</time><pdop>3.0</pdop><geoidheight>0.00</geoidheight><course>88.8</course><type>1</type></trkpt>
      <trkpt lat="42.99904854" lon="-2.39034125"><ele>1311</ele><speed>7.26</speed><time>2017-03-19T14:30:45Z</time><pdop>3.0</pdop><geoidheight>0.00</geoidheight><course>95.3</course><type>1</type></trkpt>
      <trkpt lat="42.99902868" lon="-2.39025218"><ele>1311</ele><speed>7.45</speed><time>2017-03-19T14:30:46Z</time><pdop>3.0</pdop><geoidheight>0.00</geoidheight><course>105.1</course><type>1</type></trkpt>
      <trkpt lat="42.9989931" lon="-2.39014415"><ele>1312</ele><speed>8.48</speed><time>2017-03-19T14:30:47Z</time><pdop>3.0</pdop><geoidheight>0.00</geoidheight><course>118.0</course><type>1</type></trkpt>
      <trkpt lat="42.99893725" lon="-2.39006432"><ele>1310</ele><speed>9.24</speed><time>2017-03-19T14:30:48Z</time><pdop>3.0</pdop><geoidheight>0.00</geoidheight><course>131.7</course><type>1</type></trkpt>
      <trkpt lat="42.99888251" lon="-2.3899827"><ele>1310</ele><speed>8.49</speed><time>2017-03-19T14:30:49Z</time><pdop>4.0</pdop><geoidheight>0.00</geoidheight><course>134.1</course><type>1</type></trkpt>
      <trkpt lat="42.99878587" lon="-2.38995527"><ele>1310</ele><speed>9.79</speed><time>2017-03-19T14:30:50Z</time><pdop>3.0</pdop><geoidheight>0.00</geoidheight><course>160.0</course><type>1</type></trkpt>
      <trkpt lat="42.99870173" lon="-2.389934"><ele>1311</ele><speed>9.51</speed><time>2017-03-19T14:30:51Z</time><pdop>3.0</pdop><geoidheight>0.00</geoidheight><course>171.4</course><type>1</type></trkpt>
      <trkpt lat="42.99860419" lon="-2.38991621"><ele>1311</ele><speed>10.76</speed><time>2017-03-19T14:30:52Z</time><pdop>3.0</pdop><geoidheight>0.00</geoidheight><course>170.5</course><type>1</type></trkpt>
      <trkpt lat="42.99851617" lon="-2.38995221"><ele>1313</ele><speed>9.49</speed><time>2017-03-19T14:30:53Z</time><pdop>3.0</pdop><geoidheight>0.00</geoidheight><course>187.0</course><type>1</type></trkpt>
      <trkpt lat="42.99844519" lon="-2.38994271"><ele>1312</ele><speed>8.32</speed><time>2017-03-19T14:30:54Z</time><pdop>4.0</pdop><geoidheight>0.00</geoidheight><course>181.0</course><type>1</type></trkpt>
      <trkpt lat="42.99835703" lon="-2.39000962"><ele>1311</ele><speed>9.98</speed><time>2017-03-19T14:30:55Z</time><pdop>3.0</pdop><geoidheight>0.00</geoidheight><course>200.9</course><type>1</type></trkpt>
      <trkpt lat="42.99826651" lon="-2.39007856"><ele>1311</ele><speed>10.39</speed><time>2017-03-19T14:30:56Z</time><pdop>3.0</pdop><geoidheight>0.00</geoidheight><course>208.2</course><type>1</type></trkpt>
      <trkpt lat="42.99817678" lon="-2.39014418"><ele>1311</ele><speed>10.92</speed><time>2017-03-19T14:30:57Z</time><pdop>4.0</pdop><geoidheight>0.00</geoidheight><course>207.3</course><type>1</type></trkpt>
      <trkpt lat="42.99811639" lon="-2.39021811"><ele>1311</ele><speed>9.97</speed><time>2017-03-19T14:30:58Z</time><pdop>3.0</pdop><geoidheight>0.00</geoidheight><course>217.8</course><type>1</type></trkpt>
      <trkpt lat="42.99804373" lon="-2.39029323"><ele>1311</ele><speed>9.99</speed><time>2017-03-19T14:30:59Z</time><pdop>4.0</pdop><geoidheight>0.00</geoidheight><course>218.2</course><type>1</type></trkpt>
      <trkpt lat="42.99799055" lon="-2.39037724"><ele>1311</ele><speed>9.47</speed><time>2017-03-19T14:31:00Z</time><pdop>4.0</pdop><geoidheight>0.00</geoidheight><course>228.8</course><type>1</type></trkpt>
      <trkpt lat="42.99795439" lon="-2.39048286"><ele>1310</ele><speed>9.55</speed><time>2017-03-19T14:31:01Z</time><pdop>4.0</pdop><geoidheight>0.00</geoidheight><course>240.5</course><type>1</type></trkpt>
      <trkpt lat="42.99792359" lon="-2.39058978"><ele>1310</ele><speed>9.42</speed><time>2017-03-19T14:31:02Z</time><pdop>4.0</pdop><geoidheight>0.00</geoidheight><course>248.1</course><type>1</type></trkpt>
      <trkpt lat="42.99790503" lon="-2.39069432"><ele>1310</ele><speed>8.82</speed><time>2017-03-19T14:31:03Z</time><pdop>4.0</pdop><geoidheight>0.00</geoidheight><course>254.7</course><type>1</type></trkpt>
      <trkpt lat="42.99787536" lon="-2.39087781"><ele>1310</ele><speed>7.53</speed><time>2017-03-19T14:31:05Z</time><pdop>4.0</pdop><geoidheight>0.00</geoidheight><course>258.3</course><type>1</type></trkpt>
      <trkpt lat="42.99787105" lon="-2.3909796"><ele>1311</ele><speed>7.82</speed><time>2017-03-19T14:31:06Z</time><pdop>3.0</pdop><geoidheight>0.00</geoidheight><course>260.2</course><type>1</type></trkpt>
      <trkpt lat="42.99785505" lon="-2.39106745"><ele>1310</ele><speed>8.11</speed><time>2017-03-19T14:31:07Z</time><pdop>3.0</pdop><geoidheight>0.00</geoidheight><course>258.8</course><type>1</type></trkpt>
      <trkpt lat="42.99783889" lon="-2.39116938"><ele>1310</ele><speed>8.45</speed><time>2017-03-19T14:31:08Z</time><pdop>3.0</pdop><geoidheight>0.00</geoidheight><course>258.3</course><type>1</type></trkpt>
      <trkpt lat="42.99782054" lon="-2.3912663"><ele>1310</ele><speed>8.24</speed><time>2017-03-19T14:31:09Z</time><pdop>3.0</pdop><geoidheight>0.00</geoidheight><course>256.6</course><type>1</type></trkpt>
      <trkpt lat="42.99780896" lon="-2.39136114"><ele>1310</ele><speed>7.71</speed><time>2017-03-19T14:31:10Z</time><pdop>3.0</pdop><geoidheight>0.00</geoidheight><course>256.6</course><type>1</type></trkpt>
      <trkpt lat="42.99779008" lon="-2.39144637"><ele>1310</ele><speed>7.31</speed><time>2017-03-19T14:31:11Z</time><pdop>4.0</pdop><geoidheight>0.00</geoidheight><course>252.1</course><type>1</type></trkpt>
      <trkpt lat="42.99776332" lon="-2.39154528"><ele>1308</ele><speed>8.07</speed><time>2017-03-19T14:31:12Z</time><pdop>3.0</pdop><geoidheight>0.00</geoidheight><course>250.3</course><type>1</type></trkpt>
      <trkpt lat="42.99774936" lon="-2.39164866"><ele>1308</ele><speed>8.06</speed><time>2017-03-19T14:31:13Z</time><pdop>3.0</pdop><geoidheight>0.00</geoidheight><course>254.7</course><type>1</type></trkpt>
      <trkpt lat="42.99772392" lon="-2.39177616"><ele>1307</ele><speed>9.72</speed><time>2017-03-19T14:31:14Z</time><pdop>3.0</pdop><geoidheight>0.00</geoidheight><course>254.9</course><type>1</type></trkpt>
      <trkpt lat="42.99770892" lon="-2.39189034"><ele>1308</ele><speed>9.25</speed><time>2017-03-19T14:31:15Z</time><pdop>3.0</pdop><geoidheight>0.00</geoidheight><course>257.1</course><type>1</type></trkpt>
      <trkpt lat="42.99769123" lon="-2.39198745"><ele>1309</ele><speed>8.35</speed><time>2017-03-19T14:31:16Z</time><pdop>3.0</pdop><geoidheight>0.00</geoidheight><course>256.8</course><type>1</type></trkpt>
      <trkpt lat="42.99766729" lon="-2.39210009"><ele>1309</ele><speed>9.44</speed><time>2017-03-19T14:31:17Z</time><pdop>3.0</pdop><geoidheight>0.00</geoidheight><course>252.7</course><type>1</type></trkpt>
      <trkpt lat="42.99763845" lon="-2.39226636"><ele>1310</ele><speed>7.60</speed><time>2017-03-19T14:31:19Z</time><pdop>3.0</pdop><geoidheight>0.00</geoidheight><course>256.4</course><type>1</type></trkpt>
      <trkpt lat="42.99763502" lon="-2.39236889"><ele>1309</ele><speed>8.50</speed><time>2017-03-19T14:31:20Z</time><pdop>3.0</pdop><geoidheight>0.00</geoidheight><course>260.1</course><type>1</type></trkpt>
      <trkpt lat="42.99762743" lon="-2.3924754"><ele>1309</ele><speed>8.78</speed><time>2017-03-19T14:31:21Z</time><pdop>3.0</pdop><geoidheight>0.00</geoidheight><course>262.0</course><type>1</type></trkpt>
      <trkpt lat="42.99761236" lon="-2.39257676"><ele>1310</ele><speed>8.64</speed><time>2017-03-19T14:31:22Z</time><pdop>3.0</pdop><geoidheight>0.00</geoidheight><course>260.2</course><type>1</type></trkpt>
      <trkpt lat="42.99759174" lon="-2.39265623"><ele>1310</ele><speed>7.47</speed><time>2017-03-19T14:31:23Z</time><pdop>3.0</pdop><geoidheight>0.00</geoidheight><course>255.9</course><type>1</type></trkpt>
      <trkpt lat="42.99757931" lon="-2.39274182"><ele>1309</ele><speed>7.03</speed><time>2017-03-19T14:31:24Z</time><pdop>3.0</pdop><geoidheight>0.00</geoidheight><course>259.1</course><type>1</type></trkpt>
      <trkpt lat="42.99758091" lon="-2.39283252"><ele>1310</ele><speed>7.41</speed><time>2017-03-19T14:31:25Z</time><pdop>3.0</pdop><geoidheight>0.00</geoidheight><course>264.7</course><type>1</type></trkpt>
      <trkpt lat="42.99758043" lon="-2.39292367"><ele>1310</ele><speed>7.39</speed><time>2017-03-19T14:31:26Z</time><pdop>3.0</pdop><geoidheight>0.00</geoidheight><course>266.4</course><type>1</type></trkpt>
      <trkpt lat="42.99757433" lon="-2.39301028"><ele>1310</ele><speed>7.09</speed><time>2017-03-19T14:31:27Z</time><pdop>3.0</pdop><geoidheight>0.00</geoidheight><course>265.4</course><type>1</type></trkpt>
      <trkpt lat="42.9975659" lon="-2.39309539"><ele>1310</ele><speed>6.97</speed><time>2017-03-19T14:31:28Z</time><pdop>3.0</pdop><geoidheight>0.00</geoidheight><course>260.2</course><type>1</type></trkpt>
      <trkpt lat="42.99755154" lon="-2.39317094"><ele>1310</ele><speed>6.78</speed><time>2017-03-19T14:31:29Z</time><pdop>3.0</pdop><geoidheight>0.00</geoidheight><course>257.7</course><type>1</type></trkpt>
      <trkpt lat="42.99755048" lon="-2.39325416"><ele>1310</ele><speed>6.68</speed><time>2017-03-19T14:31:30Z</time><pdop>3.0</pdop><geoidheight>0.00</geoidheight><course>263.4</course><type>1</type></trkpt>
      <trkpt lat="42.99754756" lon="-2.39333646"><ele>1309</ele><speed>6.65</speed><time>2017-03-19T14:31:31Z</time><pdop>3.0</pdop><geoidheight>0.00</geoidheight><course>266.2</course><type>1</type></trkpt>
      <trkpt lat="42.99755165" lon="-2.39343384"><ele>1310</ele><speed>7.38</speed><time>2017-03-19T14:31:32Z</time><pdop>3.0</pdop><geoidheight>0.00</geoidheight><course>269.6</course><type>1</type></trkpt>
      <trkpt lat="42.99754828" lon="-2.39352907"><ele>1309</ele><speed>7.57</speed><time>2017-03-19T14:31:33Z</time><pdop>3.0</pdop><geoidheight>0.00</geoidheight><course>266.7</course><type>1</type></trkpt>
      <trkpt lat="42.99753785" lon="-2.39361565"><ele>1308</ele><speed>7.10</speed><time>2017-03-19T14:31:34Z</time><pdop>3.0</pdop><geoidheight>0.00</geoidheight><course>261.9</course><type>1</type></trkpt>
      <trkpt lat="42.99752498" lon="-2.39368961"><ele>1308</ele><speed>6.59</speed><time>2017-03-19T14:31:35Z</time><pdop>3.0</pdop><geoidheight>0.00</geoidheight><course>256.8</course><type>1</type></trkpt>
      <trkpt lat="42.99751457" lon="-2.39377547"><ele>1308</ele><speed>6.76</speed><time>2017-03-19T14:31:36Z</time><pdop>3.0</pdop><geoidheight>0.00</geoidheight><course>259.5</course><type>1</type></trkpt>
      <trkpt lat="42.99749844" lon="-2.39385906"><ele>1308</ele><speed>6.91</speed><time>2017-03-19T14:31:37Z</time><pdop>3.0</pdop><geoidheight>0.00</geoidheight><course>255.4</course><type>1</type></trkpt>
      <trkpt lat="42.99749043" lon="-2.39396183"><ele>1306</ele><speed>7.70</speed><time>2017-03-19T14:31:38Z</time><pdop>3.0</pdop><geoidheight>0.00</geoidheight><course>261.5</course><type>1</type></trkpt>
      <trkpt lat="42.99748074" lon="-2.39405816"><ele>1305</ele><speed>7.89</speed><time>2017-03-19T14:31:39Z</time><pdop>3.0</pdop><geoidheight>0.00</geoidheight><course>262.3</course><type>1</type></trkpt>
      <trkpt lat="42.99746995" lon="-2.39415329"><ele>1306</ele><speed>7.77</speed><time>2017-03-19T14:31:40Z</time><pdop>3.0</pdop><geoidheight>0.00</geoidheight><course>261.4</course><type>1</type></trkpt>
      <trkpt lat="42.99745523" lon="-2.39424317"><ele>1305</ele><speed>7.71</speed><time>2017-03-19T14:31:41Z</time><pdop>3.0</pdop><geoidheight>0.00</geoidheight><course>259.9</course><type>1</type></trkpt>
      <trkpt lat="42.99744632" lon="-2.39434203"><ele>1305</ele><speed>7.93</speed><time>2017-03-19T14:31:42Z</time><pdop>3.0</pdop><geoidheight>0.00</geoidheight><course>259.3</course><type>1</type></trkpt>
      <trkpt lat="42.99743034" lon="-2.39444294"><ele>1304</ele><speed>8.02</speed><time>2017-03-19T14:31:43Z</time><pdop>3.0</pdop><geoidheight>0.00</geoidheight><course>257.3</course><type>1</type></trkpt>
      <trkpt lat="42.9973979" lon="-2.39453273"><ele>1303</ele><speed>7.88</speed><time>2017-03-19T14:31:44Z</time><pdop>3.0</pdop><geoidheight>0.00</geoidheight><course>257.4</course><type>1</type></trkpt>
      <trkpt lat="42.997385" lon="-2.39462526"><ele>1303</ele><speed>7.53</speed><time>2017-03-19T14:31:45Z</time><pdop>3.0</pdop><geoidheight>0.00</geoidheight><course>260.8</course><type>1</type></trkpt>
      <trkpt lat="42.99738106" lon="-2.39471247"><ele>1303</ele><speed>7.27</speed><time>2017-03-19T14:31:46Z</time><pdop>3.0</pdop><geoidheight>0.00</geoidheight><course>264.4</course><type>1</type></trkpt>
      <trkpt lat="42.99737534" lon="-2.3947987"><ele>1306</ele><speed>7.05</speed><time>2017-03-19T14:31:47Z</time><pdop>4.0</pdop><geoidheight>0.00</geoidheight><course>260.6</course><type>1</type></trkpt>
      <trkpt lat="42.99741417" lon="-2.39499237"><ele>1305</ele><speed>8.26</speed><time>2017-03-19T14:31:49Z</time><pdop>3.0</pdop><geoidheight>0.00</geoidheight><course>290.2</course><type>1</type></trkpt>
      <trkpt lat="42.99744481" lon="-2.39508865"><ele>1306</ele><speed>8.90</speed><time>2017-03-19T14:31:50Z</time><pdop>3.0</pdop><geoidheight>0.00</geoidheight><course>291.5</course><type>1</type></trkpt>
      <trkpt lat="42.99746195" lon="-2.39518684"><ele>1304</ele><speed>8.58</speed><time>2017-03-19T14:31:51Z</time><pdop>3.0</pdop><geoidheight>0.00</geoidheight><course>285.0</course><type>1</type></trkpt>
      <trkpt lat="42.99745854" lon="-2.39528057"><ele>1302</ele><speed>7.88</speed><time>2017-03-19T14:31:52Z</time><pdop>3.0</pdop><geoidheight>0.00</geoidheight><course>278.8</course><type>1</type></trkpt>
      <trkpt lat="42.99746535" lon="-2.39538417"><ele>1301</ele><speed>8.34</speed><time>2017-03-19T14:31:53Z</time><pdop>3.0</pdop><geoidheight>0.00</geoidheight><course>275.9</course><type>1</type></trkpt>
      <trkpt lat="42.99747192" lon="-2.39546304"><ele>1300</ele><speed>7.04</speed><time>2017-03-19T14:31:54Z</time><pdop>3.0</pdop><geoidheight>0.00</geoidheight><course>274.7</course><type>1</type></trkpt>
      <trkpt lat="42.997484" lon="-2.39555993"><ele>1302</ele><speed>7.39</speed><time>2017-03-19T14:31:55Z</time><pdop>3.0</pdop><geoidheight>0.00</geoidheight><course>274.6</course><type>1</type></trkpt>
      <trkpt lat="42.99748727" lon="-2.39565965"><ele>1301</ele><speed>7.91</speed><time>2017-03-19T14:31:56Z</time><pdop>3.0</pdop><geoidheight>0.00</geoidheight><course>276.9</course><type>1</type></trkpt>
      <trkpt lat="42.99749958" lon="-2.39575653"><ele>1300</ele><speed>8.44</speed><time>2017-03-19T14:31:57Z</time><pdop>3.0</pdop><geoidheight>0.00</geoidheight><course>279.0</course><type>1</type></trkpt>
      <trkpt lat="42.99751234" lon="-2.39585837"><ele>1299</ele><speed>8.37</speed><time>2017-03-19T14:31:58Z</time><pdop>3.0</pdop><geoidheight>0.00</geoidheight><course>276.7</course><type>1</type></trkpt>
      <trkpt lat="42.99752142" lon="-2.39593614"><ele>1299</ele><speed>7.68</speed><time>2017-03-19T14:31:59Z</time><pdop>3.0</pdop><geoidheight>0.00</geoidheight><course>274.3</course><type>1</type></trkpt>
      <trkpt lat="42.99752854" lon="-2.39601837"><ele>1300</ele><speed>6.93</speed><time>2017-03-19T14:32:00Z</time><pdop>3.0</pdop><geoidheight>0.00</geoidheight><course>274.7</course><type>1</type></trkpt>
      <trkpt lat="42.99753813" lon="-2.39610556"><ele>1300</ele><speed>7.00</speed><time>2017-03-19T14:32:01Z</time><pdop>3.0</pdop><geoidheight>0.00</geoidheight><course>274.7</course><type>1</type></trkpt>
      <trkpt lat="42.997546" lon="-2.39619908"><ele>1300</ele><speed>7.07</speed><time>2017-03-19T14:32:02Z</time><pdop>3.0</pdop><geoidheight>0.00</geoidheight><course>278.3</course><type>1</type></trkpt>
      <trkpt lat="42.99755394" lon="-2.39628166"><ele>1300</ele><speed>6.96</speed><time>2017-03-19T14:32:03Z</time><pdop>3.0</pdop><geoidheight>0.00</geoidheight><course>275.7</course><type>1</type></trkpt>
      <trkpt lat="42.9975671" lon="-2.39637668"><ele>1299</ele><speed>7.56</speed><time>2017-03-19T14:32:04Z</time><pdop>3.0</pdop><geoidheight>0.00</geoidheight><course>282.8</course><type>1</type></trkpt>
      <trkpt lat="42.99758064" lon="-2.39646666"><ele>1299</ele><speed>7.56</speed><time>2017-03-19T14:32:05Z</time><pdop>4.0</pdop><geoidheight>0.00</geoidheight><course>284.7</course><type>1</type></trkpt>
      <trkpt lat="42.99759238" lon="-2.39663547"><ele>1299</ele><speed>6.65</speed><time>2017-03-19T14:32:07Z</time><pdop>3.0</pdop><geoidheight>0.00</geoidheight><course>279.9</course><type>1</type></trkpt>
      <trkpt lat="42.99761085" lon="-2.39672588"><ele>1299</ele><speed>6.74</speed><time>2017-03-19T14:32:08Z</time><pdop>4.0</pdop><geoidheight>0.00</geoidheight><course>279.8</course><type>1</type></trkpt>
      <trkpt lat="42.99760601" lon="-2.39687438"><ele>1298</ele><speed>5.94</speed><time>2017-03-19T14:32:10Z</time><pdop>5.0</pdop><geoidheight>0.00</geoidheight><course>276.4</course><type>1</type></trkpt>
      <trkpt lat="42.99762147" lon="-2.39707428"><ele>1302</ele><speed>7.48</speed><time>2017-03-19T14:32:12Z</time><pdop>3.0</pdop><geoidheight>0.00</geoidheight><course>277.4</course><type>1</type></trkpt>
      <trkpt lat="42.99762405" lon="-2.39716269"><ele>1303</ele><speed>7.32</speed><time>2017-03-19T14:32:13Z</time><pdop>3.0</pdop><geoidheight>0.00</geoidheight><course>276.7</course><type>1</type></trkpt>
      <trkpt lat="42.99762521" lon="-2.39725603"><ele>1302</ele><speed>7.49</speed><time>2017-03-19T14:32:14Z</time><pdop>4.0</pdop><geoidheight>0.00</geoidheight><course>275.7</course><type>1</type></trkpt>
      <trkpt lat="42.99766016" lon="-2.39747252"><ele>1304</ele><speed>8.23</speed><time>2017-03-19T14:32:16Z</time><pdop>3.0</pdop><geoidheight>0.00</geoidheight><course>279.1</course><type>1</type></trkpt>
      <trkpt lat="42.99766901" lon="-2.39756721"><ele>1305</ele><speed>7.92</speed><time>2017-03-19T14:32:17Z</time><pdop>3.0</pdop><geoidheight>0.00</geoidheight><course>276.9</course><type>1</type></trkpt>
      <trkpt lat="42.99766665" lon="-2.39765702"><ele>1305</ele><speed>7.68</speed><time>2017-03-19T14:32:18Z</time><pdop>3.0</pdop><geoidheight>0.00</geoidheight><course>276.5</course><type>1</type></trkpt>
      <trkpt lat="42.99766784" lon="-2.39775572"><ele>1306</ele><speed>7.95</speed><time>2017-03-19T14:32:19Z</time><pdop>3.0</pdop><geoidheight>0.00</geoidheight><course>272.1</course><type>1</type></trkpt>
      <trkpt lat="42.99767584" lon="-2.3978511"><ele>1307</ele><speed>8.12</speed><time>2017-03-19T14:32:20Z</time><pdop>3.0</pdop><geoidheight>0.00</geoidheight><course>278.2</course><type>1</type></trkpt>
      <trkpt lat="42.99769985" lon="-2.39795606"><ele>1310</ele><speed>8.12</speed><time>2017-03-19T14:32:21Z</time><pdop>3.0</pdop><geoidheight>0.00</geoidheight><course>279.0</course><type>1</type></trkpt>
      <trkpt lat="42.99771096" lon="-2.39805624"><ele>1312</ele><speed>7.73</speed><time>2017-03-19T14:32:22Z</time><pdop>3.0</pdop><geoidheight>0.00</geoidheight><course>279.9</course><type>1</type></trkpt>
      <trkpt lat="42.99772525" lon="-2.39813959"><ele>1313</ele><speed>7.26</speed><time>2017-03-19T14:32:23Z</time><pdop>3.0</pdop><geoidheight>0.00</geoidheight><course>283.3</course><type>1</type></trkpt>
      <trkpt lat="42.99775157" lon="-2.39821434"><ele>1315</ele><speed>6.71</speed><time>2017-03-19T14:32:24Z</time><pdop>3.0</pdop><geoidheight>0.00</geoidheight><course>288.9</course><type>1</type></trkpt>
      <trkpt lat="42.99776804" lon="-2.3982886"><ele>1316</ele><speed>5.96</speed><time>2017-03-19T14:32:25Z</time><pdop>3.0</pdop><geoidheight>0.00</geoidheight><course>294.5</course><type>1</type></trkpt>
      <trkpt lat="42.99784226" lon="-2.39837213"><ele>1317</ele><speed>5.35</speed><time>2017-03-19T14:32:27Z</time><pdop>3.0</pdop><geoidheight>0.00</geoidheight><course>326.5</course><type>1</type></trkpt>
      <trkpt lat="42.99794676" lon="-2.39838756"><ele>1317</ele><speed>5.79</speed><time>2017-03-19T14:32:29Z</time><pdop>4.0</pdop><geoidheight>0.00</geoidheight><course>350.5</course><type>1</type></trkpt>
      <trkpt lat="42.9979612" lon="-2.39829873"><ele>1318</ele><speed>5.44</speed><time>2017-03-19T14:32:30Z</time><pdop>3.0</pdop><geoidheight>0.00</geoidheight><course>53.6</course><type>1</type></trkpt>
      <trkpt lat="42.99794417" lon="-2.3981445"><ele>1317</ele><speed>7.36</speed><time>2017-03-19T14:32:32Z</time><pdop>3.0</pdop><geoidheight>0.00</geoidheight><course>105.5</course><type>1</type></trkpt>
      <trkpt lat="42.99789939" lon="-2.39805266"><ele>1317</ele><speed>8.88</speed><time>2017-03-19T14:32:33Z</time><pdop>3.0</pdop><geoidheight>0.00</geoidheight><course>123.5</course><type>1</type></trkpt>
      <trkpt lat="42.99783625" lon="-2.39797461"><ele>1317</ele><speed>9.96</speed><time>2017-03-19T14:32:34Z</time><pdop>3.0</pdop><geoidheight>0.00</geoidheight><course>136.7</course><type>1</type></trkpt>
      <trkpt lat="42.9977704" lon="-2.39788098"><ele>1317</ele><speed>10.74</speed><time>2017-03-19T14:32:35Z</time><pdop>4.0</pdop><geoidheight>0.00</geoidheight><course>134.5</course><type>1</type></trkpt>
      <trkpt lat="42.99771211" lon="-2.39779937"><ele>1317</ele><speed>9.61</speed><time>2017-03-19T14:32:36Z</time><pdop>4.0</pdop><geoidheight>0.00</geoidheight><course>136.4</course><type>1</type></trkpt>
      <trkpt lat="42.99765633" lon="-2.39771642"><ele>1317</ele><speed>9.21</speed><time>2017-03-19T14:32:37Z</time><pdop>5.0</pdop><geoidheight>0.00</geoidheight><course>136.0</course><type>1</type></trkpt>
      <trkpt lat="42.99756912" lon="-2.39757221"><ele>1317</ele><speed>8.71</speed><time>2017-03-19T14:32:39Z</time><pdop>4.0</pdop><geoidheight>0.00</geoidheight><course>130.9</course><type>1</type></trkpt>
      <trkpt lat="42.9975164" lon="-2.39748636"><ele>1317</ele><speed>9.25</speed><time>2017-03-19T14:32:40Z</time><pdop>3.0</pdop><geoidheight>0.00</geoidheight><course>129.7</course><type>1</type></trkpt>
      <trkpt lat="42.99746418" lon="-2.39741271"><ele>1318</ele><speed>8.82</speed><time>2017-03-19T14:32:41Z</time><pdop>3.0</pdop><geoidheight>0.00</geoidheight><course>131.3</course><type>1</type></trkpt>
      <trkpt lat="42.99741981" lon="-2.39734781"><ele>1319</ele><speed>8.15</speed><time>2017-03-19T14:32:42Z</time><pdop>3.0</pdop><geoidheight>0.00</geoidheight><course>131.6</course><type>1</type></trkpt>
      <trkpt lat="42.99737512" lon="-2.39726641"><ele>1320</ele><speed>8.02</speed><time>2017-03-19T14:32:43Z</time><pdop>3.0</pdop><geoidheight>0.00</geoidheight><course>128.6</course><type>1</type></trkpt>
      <trkpt lat="42.9973303" lon="-2.39719095"><ele>1320</ele><speed>7.82</speed><time>2017-03-19T14:32:44Z</time><pdop>3.0</pdop><geoidheight>0.00</geoidheight><course>125.4</course><type>1</type></trkpt>
      <trkpt lat="42.99730517" lon="-2.39710937"><ele>1321</ele><speed>6.52</speed><time>2017-03-19T14:32:45Z</time><pdop>3.0</pdop><geoidheight>0.00</geoidheight><course>116.6</course><type>1</type></trkpt>
      <trkpt lat="42.99731312" lon="-2.39698951"><ele>1320</ele><speed>5.20</speed><time>2017-03-19T14:32:47Z</time><pdop>3.0</pdop><geoidheight>0.00</geoidheight><course>66.6</course><type>1</type></trkpt>
      <trkpt lat="42.9974093" lon="-2.39696461"><ele>1321</ele><speed>5.20</speed><time>2017-03-19T14:32:49Z</time><pdop>3.0</pdop><geoidheight>0.00</geoidheight><course>1.2</course><type>1</type></trkpt>
      <trkpt lat="42.99745493" lon="-2.39700579"><ele>1322</ele><speed>5.73</speed><time>2017-03-19T14:32:50Z</time><pdop>3.0</pdop><geoidheight>0.00</geoidheight><course>329.8</course><type>1</type></trkpt>
      <trkpt lat="42.99748925" lon="-2.39707419"><ele>1322</ele><speed>6.49</speed><time>2017-03-19T14:32:51Z</time><pdop>3.0</pdop><geoidheight>0.00</geoidheight><course>304.6</course><type>1</type></trkpt>
      <trkpt lat="42.9975078" lon="-2.39716151"><ele>1322</ele><speed>7.26</speed><time>2017-03-19T14:32:52Z</time><pdop>3.0</pdop><geoidheight>0.00</geoidheight><course>286.7</course><type>1</type></trkpt>
      <trkpt lat="42.9975263" lon="-2.39726154"><ele>1323</ele><speed>7.84</speed><time>2017-03-19T14:32:53Z</time><pdop>3.0</pdop><geoidheight>0.00</geoidheight><course>277.8</course><type>1</type></trkpt>
      <trkpt lat="42.99754861" lon="-2.39737391"><ele>1322</ele><speed>8.50</speed><time>2017-03-19T14:32:54Z</time><pdop>3.0</pdop><geoidheight>0.00</geoidheight><course>283.8</course><type>1</type></trkpt>
      <trkpt lat="42.99755207" lon="-2.39747191"><ele>1324</ele><speed>7.94</speed><time>2017-03-19T14:32:55Z</time><pdop>3.0</pdop><geoidheight>0.00</geoidheight><course>277.9</course><type>1</type></trkpt>
      <trkpt lat="42.99756033" lon="-2.39756554"><ele>1324</ele><speed>7.59</speed><time>2017-03-19T14:32:56Z</time><pdop>3.0</pdop><geoidheight>0.00</geoidheight><course>279.1</course><type>1</type></trkpt>
      <trkpt lat="42.99757074" lon="-2.39768141"><ele>1325</ele><speed>7.67</speed><time>2017-03-19T14:32:57Z</time><pdop>4.0</pdop><geoidheight>0.00</geoidheight><course>280.6</course><type>1</type></trkpt>
      <trkpt lat="42.99759772" lon="-2.39781402"><ele>1325</ele><speed>5.96</speed><time>2017-03-19T14:32:59Z</time><pdop>4.0</pdop><geoidheight>0.00</geoidheight><course>295.4</course><type>1</type></trkpt>
      <trkpt lat="42.99770496" lon="-2.3977557"><ele>1326</ele><speed>4.89</speed><time>2017-03-19T14:33:02Z</time><pdop>5.0</pdop><geoidheight>0.00</geoidheight><course>41.0</course><type>1</type></trkpt>
      <trkpt lat="42.99768559" lon="-2.39759704"><ele>1325</ele><speed>7.00</speed><time>2017-03-19T14:33:04Z</time><pdop>5.0</pdop><geoidheight>0.00</geoidheight><course>105.7</course><type>1</type></trkpt>
      <trkpt lat="42.99758663" lon="-2.39742414"><ele>1326</ele><speed>9.18</speed><time>2017-03-19T14:33:06Z</time><pdop>4.0</pdop><geoidheight>0.00</geoidheight><course>137.2</course><type>1</type></trkpt>
      <trkpt lat="42.99752492" lon="-2.39735438"><ele>1327</ele><speed>8.79</speed><time>2017-03-19T14:33:07Z</time><pdop>4.0</pdop><geoidheight>0.00</geoidheight><course>143.2</course><type>1</type></trkpt>
      <trkpt lat="42.99746887" lon="-2.39729157"><ele>1329</ele><speed>7.98</speed><time>2017-03-19T14:33:08Z</time><pdop>4.0</pdop><geoidheight>0.00</geoidheight><course>142.5</course><type>1</type></trkpt>
      <trkpt lat="42.99738437" lon="-2.39715386"><ele>1330</ele><speed>7.45</speed><time>2017-03-19T14:33:10Z</time><pdop>4.0</pdop><geoidheight>0.00</geoidheight><course>127.1</course><type>1</type></trkpt>
      <trkpt lat="42.99736653" lon="-2.39705255"><ele>1332</ele><speed>7.13</speed><time>2017-03-19T14:33:11Z</time><pdop>3.0</pdop><geoidheight>0.00</geoidheight><course>114.9</course><type>1</type></trkpt>
      <trkpt lat="42.99736066" lon="-2.39692415"><ele>1333</ele><speed>5.18</speed><time>2017-03-19T14:33:13Z</time><pdop>3.0</pdop><geoidheight>0.00</geoidheight><course>86.5</course><type>1</type></trkpt>
      <trkpt lat="42.99740999" lon="-2.396832"><ele>1333</ele><speed>4.80</speed><time>2017-03-19T14:33:15Z</time><pdop>3.0</pdop><geoidheight>0.00</geoidheight><course>47.0</course><type>1</type></trkpt>
      <trkpt lat="42.99748547" lon="-2.39681154"><ele>1334</ele><speed>4.18</speed><time>2017-03-19T14:33:17Z</time><pdop>3.0</pdop><geoidheight>0.00</geoidheight><course>11.3</course><type>1</type></trkpt>
      <trkpt lat="42.99755098" lon="-2.39680994"><ele>1335</ele><speed>3.73</speed><time>2017-03-19T14:33:19Z</time><pdop>3.0</pdop><geoidheight>0.00</geoidheight><course>0.3</course><type>1</type></trkpt>
      <trkpt lat="42.99760738" lon="-2.39678003"><ele>1334</ele><speed>4.39</speed><time>2017-03-19T14:33:21Z</time><pdop>3.0</pdop><geoidheight>0.00</geoidheight><course>26.1</course><type>1</type></trkpt>
      <trkpt lat="42.99765884" lon="-2.39668543"><ele>1333</ele><speed>5.19</speed><time>2017-03-19T14:33:23Z</time><pdop>3.0</pdop><geoidheight>0.00</geoidheight><course>53.9</course><type>1</type></trkpt>
      <trkpt lat="42.99769954" lon="-2.39657295"><ele>1335</ele><speed>4.63</speed><time>2017-03-19T14:33:25Z</time><pdop>3.0</pdop><geoidheight>0.00</geoidheight><course>61.9</course><type>1</type></trkpt>
      <trkpt lat="42.99773535" lon="-2.39647885"><ele>1334</ele><speed>4.63</speed><time>2017-03-19T14:33:27Z</time><pdop>3.0</pdop><geoidheight>0.00</geoidheight><course>56.0</course><type>1</type></trkpt>
      <trkpt lat="42.99779474" lon="-2.39636589"><ele>1333</ele><speed>5.62</speed><time>2017-03-19T14:33:29Z</time><pdop>3.0</pdop><geoidheight>0.00</geoidheight><course>62.7</course><type>1</type></trkpt>
      <trkpt lat="42.99780041" lon="-2.39628767"><ele>1334</ele><speed>6.22</speed><time>2017-03-19T14:33:30Z</time><pdop>3.0</pdop><geoidheight>0.00</geoidheight><course>84.6</course><type>1</type></trkpt>
      <trkpt lat="42.99778772" lon="-2.39620138"><ele>1333</ele><speed>7.26</speed><time>2017-03-19T14:33:31Z</time><pdop>3.0</pdop><geoidheight>0.00</geoidheight><course>102.4</course><type>1</type></trkpt>
      <trkpt lat="42.99775549" lon="-2.3961128"><ele>1333</ele><speed>7.96</speed><time>2017-03-19T14:33:32Z</time><pdop>3.0</pdop><geoidheight>0.00</geoidheight><course>115.2</course><type>1</type></trkpt>
      <trkpt lat="42.99770882" lon="-2.39603923"><ele>1343</ele><speed>8.37</speed><time>2017-03-19T14:33:33Z</time><pdop>3.0</pdop><geoidheight>0.00</geoidheight><course>127.0</course><type>1</type></trkpt>
      <trkpt lat="42.99765601" lon="-2.39596164"><ele>1339</ele><speed>9.00</speed><time>2017-03-19T14:33:34Z</time><pdop>3.0</pdop><geoidheight>0.00</geoidheight><course>132.4</course><type>1</type></trkpt>
      <trkpt lat="42.99758985" lon="-2.39588232"><ele>1337</ele><speed>9.58</speed><time>2017-03-19T14:33:35Z</time><pdop>3.0</pdop><geoidheight>0.00</geoidheight><course>138.9</course><type>1</type></trkpt>
      <trkpt lat="42.99750901" lon="-2.39581719"><ele>1336</ele><speed>10.24</speed><time>2017-03-19T14:33:36Z</time><pdop>3.0</pdop><geoidheight>0.00</geoidheight><course>146.6</course><type>1</type></trkpt>
      <trkpt lat="42.99742579" lon="-2.39576067"><ele>1335</ele><speed>10.49</speed><time>2017-03-19T14:33:37Z</time><pdop>3.0</pdop><geoidheight>0.00</geoidheight><course>156.7</course><type>1</type></trkpt>
      <trkpt lat="42.9973352" lon="-2.39571232"><ele>1334</ele><speed>10.87</speed><time>2017-03-19T14:33:38Z</time><pdop>3.0</pdop><geoidheight>0.00</geoidheight><course>163.3</course><type>1</type></trkpt>
      <trkpt lat="42.99724067" lon="-2.39567085"><ele>1333</ele><speed>11.14</speed><time>2017-03-19T14:33:39Z</time><pdop>3.0</pdop><geoidheight>0.00</geoidheight><course>163.2</course><type>1</type></trkpt>
      <trkpt lat="42.99714749" lon="-2.39560822"><ele>1332</ele><speed>11.16</speed><time>2017-03-19T14:33:40Z</time><pdop>3.0</pdop><geoidheight>0.00</geoidheight><course>157.6</course><type>1</type></trkpt>
      <trkpt lat="42.9970666" lon="-2.39553947"><ele>1332</ele><speed>10.76</speed><time>2017-03-19T14:33:41Z</time><pdop>3.0</pdop><geoidheight>0.00</geoidheight><course>149.3</course><type>1</type></trkpt>
      <trkpt lat="42.99700353" lon="-2.39545338"><ele>1332</ele><speed>10.10</speed><time>2017-03-19T14:33:42Z</time><pdop>3.0</pdop><geoidheight>0.00</geoidheight><course>136.3</course><type>1</type></trkpt>
      <trkpt lat="42.99695789" lon="-2.39535676"><ele>1332</ele><speed>9.70</speed><time>2017-03-19T14:33:43Z</time><pdop>3.0</pdop><geoidheight>0.00</geoidheight><course>122.5</course><type>1</type></trkpt>
      <trkpt lat="42.99692486" lon="-2.39523921"><ele>1333</ele><speed>9.57</speed><time>2017-03-19T14:33:44Z</time><pdop>3.0</pdop><geoidheight>0.00</geoidheight><course>111.3</course><type>1</type></trkpt>
      <trkpt lat="42.99690377" lon="-2.39512969"><ele>1335</ele><speed>9.05</speed><time>2017-03-19T14:33:45Z</time><pdop>3.0</pdop><geoidheight>0.00</geoidheight><course>106.3</course><type>1</type></trkpt>
      <trkpt lat="42.99688296" lon="-2.39503378"><ele>1335</ele><speed>8.34</speed><time>2017-03-19T14:33:46Z</time><pdop>3.0</pdop><geoidheight>0.00</geoidheight><course>105.7</course><type>1</type></trkpt>
      <trkpt lat="42.99684582" lon="-2.39495637"><ele>1336</ele><speed>7.51</speed><time>2017-03-19T14:33:47Z</time><pdop>3.0</pdop><geoidheight>0.00</geoidheight><course>112.9</course><type>1</type></trkpt>
      <trkpt lat="42.99678283" lon="-2.39479946"><ele>1337</ele><speed>7.68</speed><time>2017-03-19T14:33:49Z</time><pdop>4.0</pdop><geoidheight>0.00</geoidheight><course>117.1</course><type>1</type></trkpt>
      <trkpt lat="42.99675222" lon="-2.39470764"><ele>1337</ele><speed>8.21</speed><time>2017-03-19T14:33:50Z</time><pdop>4.0</pdop><geoidheight>0.00</geoidheight><course>116.6</course><type>1</type></trkpt>
      <trkpt lat="42.99672101" lon="-2.3945728"><ele>1339</ele><speed>5.70</speed><time>2017-03-19T14:33:52Z</time><pdop>3.0</pdop><geoidheight>0.00</geoidheight><course>92.1</course><type>1</type></trkpt>
      <trkpt lat="42.99676818" lon="-2.39446756"><ele>1337</ele><speed>5.44</speed><time>2017-03-19T14:33:54Z</time><pdop>3.0</pdop><geoidheight>0.00</geoidheight><course>49.9</course><type>1</type></trkpt>
      <trkpt lat="42.99683065" lon="-2.39444325"><ele>1338</ele><speed>4.56</speed><time>2017-03-19T14:33:56Z</time><pdop>3.0</pdop><geoidheight>0.00</geoidheight><course>19.2</course><type>1</type></trkpt>
      <trkpt lat="42.99690522" lon="-2.39447504"><ele>1340</ele><speed>3.66</speed><time>2017-03-19T14:33:58Z</time><pdop>4.0</pdop><geoidheight>0.00</geoidheight><course>335.4</course><type>1</type></trkpt>
      <trkpt lat="42.9970108" lon="-2.39453019"><ele>1338</ele><speed>5.15</speed><time>2017-03-19T14:34:00Z</time><pdop>4.0</pdop><geoidheight>0.00</geoidheight><course>332.0</course><type>1</type></trkpt>
      <trkpt lat="42.9971257" lon="-2.39462134"><ele>1335</ele><speed>6.75</speed><time>2017-03-19T14:34:02Z</time><pdop>3.0</pdop><geoidheight>0.00</geoidheight><course>327.9</course><type>1</type></trkpt>
      <trkpt lat="42.99717558" lon="-2.39468973"><ele>1335</ele><speed>7.17</speed><time>2017-03-19T14:34:03Z</time><pdop>3.0</pdop><geoidheight>0.00</geoidheight><course>311.4</course><type>1</type></trkpt>
      <trkpt lat="42.99720039" lon="-2.39477816"><ele>1336</ele><speed>7.47</speed><time>2017-03-19T14:34:04Z</time><pdop>3.0</pdop><geoidheight>0.00</geoidheight><course>295.0</course><type>1</type></trkpt>
      <trkpt lat="42.99721351" lon="-2.39487127"><ele>1337</ele><speed>7.26</speed><time>2017-03-19T14:34:05Z</time><pdop>3.0</pdop><geoidheight>0.00</geoidheight><course>280.0</course><type>1</type></trkpt>
      <trkpt lat="42.99722015" lon="-2.39496364"><ele>1338</ele><speed>7.38</speed><time>2017-03-19T14:34:06Z</time><pdop>3.0</pdop><geoidheight>0.00</geoidheight><course>272.8</course><type>1</type></trkpt>
      <trkpt lat="42.99722376" lon="-2.39505534"><ele>1339</ele><speed>8.17</speed><time>2017-03-19T14:34:07Z</time><pdop>3.0</pdop><geoidheight>0.00</geoidheight><course>272.8</course><type>1</type></trkpt>
      <trkpt lat="42.99722113" lon="-2.39516205"><ele>1340</ele><speed>9.34</speed><time>2017-03-19T14:34:08Z</time><pdop>3.0</pdop><geoidheight>0.00</geoidheight><course>271.5</course><type>1</type></trkpt>
      <trkpt lat="42.99721777" lon="-2.39528709"><ele>1339</ele><speed>10.17</speed><time>2017-03-19T14:34:09Z</time><pdop>3.0</pdop><geoidheight>0.00</geoidheight><course>268.4</course><type>1</type></trkpt>
      <trkpt lat="42.99721532" lon="-2.39541588"><ele>1341</ele><speed>10.02</speed><time>2017-03-19T14:34:10Z</time><pdop>3.0</pdop><geoidheight>0.00</geoidheight><course>265.3</course><type>1</type></trkpt>
      <trkpt lat="42.99721042" lon="-2.39553423"><ele>1342</ele><speed>9.07</speed><time>2017-03-19T14:34:11Z</time><pdop>3.0</pdop><geoidheight>0.00</geoidheight><course>265.1</course><type>1</type></trkpt>
      <trkpt lat="42.99720915" lon="-2.39563669"><ele>1342</ele><speed>8.32</speed><time>2017-03-19T14:34:12Z</time><pdop>3.0</pdop><geoidheight>0.00</geoidheight><course>269.1</course><type>1</type></trkpt>
      <trkpt lat="42.99720817" lon="-2.39573014"><ele>1343</ele><speed>7.72</speed><time>2017-03-19T14:34:13Z</time><pdop>3.0</pdop><geoidheight>0.00</geoidheight><course>274.0</course><type>1</type></trkpt>
      <trkpt lat="42.99722041" lon="-2.39581984"><ele>1344</ele><speed>7.49</speed><time>2017-03-19T14:34:14Z</time><pdop>3.0</pdop><geoidheight>0.00</geoidheight><course>278.9</course><type>1</type></trkpt>
      <trkpt lat="42.99723592" lon="-2.395916"><ele>1344</ele><speed>7.86</speed><time>2017-03-19T14:34:15Z</time><pdop>3.0</pdop><geoidheight>0.00</geoidheight><course>278.8</course><type>1</type></trkpt>
      <trkpt lat="42.99725588" lon="-2.39601723"><ele>1343</ele><speed>7.80</speed><time>2017-03-19T14:34:16Z</time><pdop>3.0</pdop><geoidheight>0.00</geoidheight><course>279.8</course><type>1</type></trkpt>
      <trkpt lat="42.99725707" lon="-2.39612222"><ele>1347</ele><speed>8.53</speed><time>2017-03-19T14:34:17Z</time><pdop>3.0</pdop><geoidheight>0.00</geoidheight><course>271.8</course><type>1</type></trkpt>
      <trkpt lat="42.99725708" lon="-2.39620846"><ele>1349</ele><speed>7.22</speed><time>2017-03-19T14:34:18Z</time><pdop>3.0</pdop><geoidheight>0.00</geoidheight><course>274.2</course><type>1</type></trkpt>
      <trkpt lat="42.99729063" lon="-2.39636343"><ele>1351</ele><speed>6.71</speed><time>2017-03-19T14:34:20Z</time><pdop>6.0</pdop><geoidheight>0.00</geoidheight><course>293.6</course><type>1</type></trkpt>
      <trkpt lat="42.99740777" lon="-2.39647777"><ele>1350</ele><speed>7.94</speed><time>2017-03-19T14:34:22Z</time><pdop>10.0</pdop><geoidheight>0.00</geoidheight><course>325.5</course><type>1</type></trkpt>
      <trkpt lat="42.99742755" lon="-2.39625347"><ele>1352</ele><speed>4.47</speed><time>2017-03-19T14:34:24Z</time><pdop>6.0</pdop><geoidheight>0.00</geoidheight><course>67.1</course><type>1</type></trkpt>
      <trkpt lat="42.99739071" lon="-2.3961336"><ele>1352</ele><speed>4.77</speed><time>2017-03-19T14:34:25Z</time><pdop>4.0</pdop><geoidheight>0.00</geoidheight><course>100.5</course><type>1</type></trkpt>
      <trkpt lat="42.99733584" lon="-2.39600367"><ele>1352</ele><speed>6.84</speed><time>2017-03-19T14:34:27Z</time><pdop>3.0</pdop><geoidheight>0.00</geoidheight><course>127.9</course><type>1</type></trkpt>
      <trkpt lat="42.99729509" lon="-2.39590915"><ele>1352</ele><speed>8.65</speed><time>2017-03-19T14:34:28Z</time><pdop>3.0</pdop><geoidheight>0.00</geoidheight><course>125.4</course><type>1</type></trkpt>
      <trkpt lat="42.99723876" lon="-2.39584364"><ele>1352</ele><speed>8.36</speed><time>2017-03-19T14:34:29Z</time><pdop>3.0</pdop><geoidheight>0.00</geoidheight><course>138.1</course><type>1</type></trkpt>
      <trkpt lat="42.99717296" lon="-2.39578164"><ele>1353</ele><speed>8.86</speed><time>2017-03-19T14:34:30Z</time><pdop>3.0</pdop><geoidheight>0.00</geoidheight><course>144.3</course><type>1</type></trkpt>
      <trkpt lat="42.99709685" lon="-2.39572686"><ele>1353</ele><speed>9.43</speed><time>2017-03-19T14:34:31Z</time><pdop>3.0</pdop><geoidheight>0.00</geoidheight><course>151.2</course><type>1</type></trkpt>
      <trkpt lat="42.99701703" lon="-2.39568455"><ele>1353</ele><speed>9.87</speed><time>2017-03-19T14:34:32Z</time><pdop>3.0</pdop><geoidheight>0.00</geoidheight><course>158.4</course><type>1</type></trkpt>
      <trkpt lat="42.99692875" lon="-2.3956461"><ele>1354</ele><speed>10.42</speed><time>2017-03-19T14:34:33Z</time><pdop>3.0</pdop><geoidheight>0.00</geoidheight><course>162.0</course><type>1</type></trkpt>
      <trkpt lat="42.99683732" lon="-2.3956034"><ele>1355</ele><speed>10.58</speed><time>2017-03-19T14:34:34Z</time><pdop>3.0</pdop><geoidheight>0.00</geoidheight><course>161.9</course><type>1</type></trkpt>
      <trkpt lat="42.99674664" lon="-2.39555739"><ele>1356</ele><speed>10.21</speed><time>2017-03-19T14:34:35Z</time><pdop>3.0</pdop><geoidheight>0.00</geoidheight><course>159.2</course><type>1</type></trkpt>
      <trkpt lat="42.99667001" lon="-2.39550798"><ele>1357</ele><speed>9.66</speed><time>2017-03-19T14:34:36Z</time><pdop>3.0</pdop><geoidheight>0.00</geoidheight><course>156.3</course><type>1</type></trkpt>
      <trkpt lat="42.99659536" lon="-2.39545142"><ele>1358</ele><speed>9.09</speed><time>2017-03-19T14:34:37Z</time><pdop>3.0</pdop><geoidheight>0.00</geoidheight><course>154.0</course><type>1</type></trkpt>
      <trkpt lat="42.99652757" lon="-2.39539506"><ele>1358</ele><speed>8.73</speed><time>2017-03-19T14:34:38Z</time><pdop>3.0</pdop><geoidheight>0.00</geoidheight><course>151.8</course><type>1</type></trkpt>
      <trkpt lat="42.99646101" lon="-2.39533943"><ele>1358</ele><speed>8.84</speed><time>2017-03-19T14:34:39Z</time><pdop>3.0</pdop><geoidheight>0.00</geoidheight><course>150.1</course><type>1</type></trkpt>
      <trkpt lat="42.99639002" lon="-2.39526906"><ele>1359</ele><speed>9.75</speed><time>2017-03-19T14:34:40Z</time><pdop>3.0</pdop><geoidheight>0.00</geoidheight><course>143.9</course><type>1</type></trkpt>
      <trkpt lat="42.9963245" lon="-2.3951951"><ele>1360</ele><speed>9.96</speed><time>2017-03-19T14:34:41Z</time><pdop>3.0</pdop><geoidheight>0.00</geoidheight><course>140.1</course><type>1</type></trkpt>
      <trkpt lat="42.99626598" lon="-2.39512354"><ele>1362</ele><speed>8.94</speed><time>2017-03-19T14:34:42Z</time><pdop>3.0</pdop><geoidheight>0.00</geoidheight><course>140.1</course><type>1</type></trkpt>
      <trkpt lat="42.99621365" lon="-2.39506584"><ele>1363</ele><speed>8.08</speed><time>2017-03-19T14:34:43Z</time><pdop>3.0</pdop><geoidheight>0.00</geoidheight><course>141.7</course><type>1</type></trkpt>
      <trkpt lat="42.99615974" lon="-2.39500538"><ele>1364</ele><speed>7.91</speed><time>2017-03-19T14:34:44Z</time><pdop>3.0</pdop><geoidheight>0.00</geoidheight><course>141.2</course><type>1</type></trkpt>
      <trkpt lat="42.99610461" lon="-2.3949367"><ele>1364</ele><speed>8.44</speed><time>2017-03-19T14:34:45Z</time><pdop>3.0</pdop><geoidheight>0.00</geoidheight><course>138.6</course><type>1</type></trkpt>
      <trkpt lat="42.99604519" lon="-2.39485286"><ele>1364</ele><speed>9.37</speed><time>2017-03-19T14:34:46Z</time><pdop>3.0</pdop><geoidheight>0.00</geoidheight><course>134.7</course><type>1</type></trkpt>
      <trkpt lat="42.99598632" lon="-2.39476978"><ele>1365</ele><speed>9.64</speed><time>2017-03-19T14:34:47Z</time><pdop>3.0</pdop><geoidheight>0.00</geoidheight><course>134.3</course><type>1</type></trkpt>
      <trkpt lat="42.99592672" lon="-2.39469092"><ele>1365</ele><speed>9.44</speed><time>2017-03-19T14:34:48Z</time><pdop>3.0</pdop><geoidheight>0.00</geoidheight><course>135.2</course><type>1</type></trkpt>
      <trkpt lat="42.99587222" lon="-2.39461234"><ele>1366</ele><speed>9.04</speed><time>2017-03-19T14:34:49Z</time><pdop>3.0</pdop><geoidheight>0.00</geoidheight><course>134.7</course><type>1</type></trkpt>
      <trkpt lat="42.99582058" lon="-2.39453076"><ele>1367</ele><speed>8.88</speed><time>2017-03-19T14:34:50Z</time><pdop>3.0</pdop><geoidheight>0.00</geoidheight><course>131.7</course><type>1</type></trkpt>
      <trkpt lat="42.99577077" lon="-2.39445777"><ele>1368</ele><speed>8.74</speed><time>2017-03-19T14:34:51Z</time><pdop>3.0</pdop><geoidheight>0.00</geoidheight><course>130.3</course><type>1</type></trkpt>
      <trkpt lat="42.99571945" lon="-2.39437946"><ele>1369</ele><speed>8.70</speed><time>2017-03-19T14:34:52Z</time><pdop>3.0</pdop><geoidheight>0.00</geoidheight><course>131.7</course><type>1</type></trkpt>
      <trkpt lat="42.99566749" lon="-2.39429745"><ele>1371</ele><speed>8.88</speed><time>2017-03-19T14:34:53Z</time><pdop>3.0</pdop><geoidheight>0.00</geoidheight><course>130.1</course><type>1</type></trkpt>
      <trkpt lat="42.99562004" lon="-2.39421394"><ele>1371</ele><speed>8.75</speed><time>2017-03-19T14:34:54Z</time><pdop>3.0</pdop><geoidheight>0.00</geoidheight><course>128.9</course><type>1</type></trkpt>
      <trkpt lat="42.99557306" lon="-2.39413287"><ele>1372</ele><speed>8.80</speed><time>2017-03-19T14:34:55Z</time><pdop>3.0</pdop><geoidheight>0.00</geoidheight><course>128.9</course><type>1</type></trkpt>
      <trkpt lat="42.99551796" lon="-2.39404849"><ele>1372</ele><speed>9.11</speed><time>2017-03-19T14:34:56Z</time><pdop>3.0</pdop><geoidheight>0.00</geoidheight><course>131.5</course><type>1</type></trkpt>
      <trkpt lat="42.99546532" lon="-2.39395817"><ele>1372</ele><speed>9.53</speed><time>2017-03-19T14:34:57Z</time><pdop>3.0</pdop><geoidheight>0.00</geoidheight><course>131.6</course><type>1</type></trkpt>
      <trkpt lat="42.99541135" lon="-2.39386468"><ele>1373</ele><speed>9.74</speed><time>2017-03-19T14:34:58Z</time><pdop>3.0</pdop><geoidheight>0.00</geoidheight><course>129.5</course><type>1</type></trkpt>
      <trkpt lat="42.99536295" lon="-2.39376784"><ele>1375</ele><speed>9.62</speed><time>2017-03-19T14:34:59Z</time><pdop>3.0</pdop><geoidheight>0.00</geoidheight><course>127.4</course><type>1</type></trkpt>
      <trkpt lat="42.99531095" lon="-2.39367509"><ele>1376</ele><speed>9.29</speed><time>2017-03-19T14:35:00Z</time><pdop>3.0</pdop><geoidheight>0.00</geoidheight><course>127.2</course><type>1</type></trkpt>
      <trkpt lat="42.99526154" lon="-2.39358964"><ele>1377</ele><speed>8.66</speed><time>2017-03-19T14:35:01Z</time><pdop>3.0</pdop><geoidheight>0.00</geoidheight><course>127.1</course><type>1</type></trkpt>
      <trkpt lat="42.99522914" lon="-2.3935056"><ele>1378</ele><speed>7.63</speed><time>2017-03-19T14:35:02Z</time><pdop>3.0</pdop><geoidheight>0.00</geoidheight><course>123.1</course><type>1</type></trkpt>
      <trkpt lat="42.99519658" lon="-2.39343298"><ele>1379</ele><speed>6.96</speed><time>2017-03-19T14:35:03Z</time><pdop>3.0</pdop><geoidheight>0.00</geoidheight><course>119.2</course><type>1</type></trkpt>
      <trkpt lat="42.99516111" lon="-2.39335384"><ele>1379</ele><speed>6.99</speed><time>2017-03-19T14:35:04Z</time><pdop>3.0</pdop><geoidheight>0.00</geoidheight><course>117.5</course><type>1</type></trkpt>
      <trkpt lat="42.99512768" lon="-2.39327081"><ele>1378</ele><speed>7.87</speed><time>2017-03-19T14:35:05Z</time><pdop>3.0</pdop><geoidheight>0.00</geoidheight><course>118.4</course><type>1</type></trkpt>
      <trkpt lat="42.99508656" lon="-2.39317936"><ele>1378</ele><speed>8.68</speed><time>2017-03-19T14:35:06Z</time><pdop>3.0</pdop><geoidheight>0.00</geoidheight><course>122.7</course><type>1</type></trkpt>
      <trkpt lat="42.99503542" lon="-2.39309203"><ele>1379</ele><speed>9.25</speed><time>2017-03-19T14:35:07Z</time><pdop>3.0</pdop><geoidheight>0.00</geoidheight><course>128.6</course><type>1</type></trkpt>
      <trkpt lat="42.99497434" lon="-2.39300824"><ele>1379</ele><speed>9.18</speed><time>2017-03-19T14:35:08Z</time><pdop>3.0</pdop><geoidheight>0.00</geoidheight><course>133.2</course><type>1</type></trkpt>
      <trkpt lat="42.99492777" lon="-2.39294082"><ele>1379</ele><speed>7.83</speed><time>2017-03-19T14:35:09Z</time><pdop>3.0</pdop><geoidheight>0.00</geoidheight><course>136.2</course><type>1</type></trkpt>
      <trkpt lat="42.99489043" lon="-2.39287382"><ele>1378</ele><speed>6.96</speed><time>2017-03-19T14:35:10Z</time><pdop>3.0</pdop><geoidheight>0.00</geoidheight><course>131.4</course><type>1</type></trkpt>
      <trkpt lat="42.99485351" lon="-2.39278976"><ele>1376</ele><speed>7.07</speed><time>2017-03-19T14:35:11Z</time><pdop>3.0</pdop><geoidheight>0.00</geoidheight><course>122.3</course><type>1</type></trkpt>
      <trkpt lat="42.9948225" lon="-2.39269867"><ele>1375</ele><speed>8.07</speed><time>2017-03-19T14:35:12Z</time><pdop>3.0</pdop><geoidheight>0.00</geoidheight><course>117.6</course><type>1</type></trkpt>
      <trkpt lat="42.99477711" lon="-2.39260611"><ele>1375</ele><speed>8.89</speed><time>2017-03-19T14:35:13Z</time><pdop>3.0</pdop><geoidheight>0.00</geoidheight><course>120.3</course><type>1</type></trkpt>
      <trkpt lat="42.99472553" lon="-2.3925194"><ele>1376</ele><speed>8.72</speed><time>2017-03-19T14:35:14Z</time><pdop>3.0</pdop><geoidheight>0.00</geoidheight><course>125.1</course><type>1</type></trkpt>
      <trkpt lat="42.99467964" lon="-2.39244091"><ele>1378</ele><speed>7.83</speed><time>2017-03-19T14:35:15Z</time><pdop>3.0</pdop><geoidheight>0.00</geoidheight><course>124.1</course><type>1</type></trkpt>
      <trkpt lat="42.99464622" lon="-2.39236338"><ele>1379</ele><speed>7.02</speed><time>2017-03-19T14:35:16Z</time><pdop>3.0</pdop><geoidheight>0.00</geoidheight><course>118.0</course><type>1</type></trkpt>
      <trkpt lat="42.99462057" lon="-2.39228621"><ele>1379</ele><speed>6.17</speed><time>2017-03-19T14:35:17Z</time><pdop>3.0</pdop><geoidheight>0.00</geoidheight><course>115.2</course><type>1</type></trkpt>
      <trkpt lat="42.99459516" lon="-2.39221124"><ele>1380</ele><speed>6.63</speed><time>2017-03-19T14:35:18Z</time><pdop>3.0</pdop><geoidheight>0.00</geoidheight><course>117.3</course><type>1</type></trkpt>
      <trkpt lat="42.9945599" lon="-2.39212288"><ele>1380</ele><speed>8.05</speed><time>2017-03-19T14:35:19Z</time><pdop>3.0</pdop><geoidheight>0.00</geoidheight><course>118.1</course><type>1</type></trkpt>
      <trkpt lat="42.99451773" lon="-2.39201991"><ele>1381</ele><speed>9.36</speed><time>2017-03-19T14:35:20Z</time><pdop>3.0</pdop><geoidheight>0.00</geoidheight><course>116.5</course><type>1</type></trkpt>
      <trkpt lat="42.99448214" lon="-2.39190433"><ele>1382</ele><speed>9.87</speed><time>2017-03-19T14:35:21Z</time><pdop>3.0</pdop><geoidheight>0.00</geoidheight><course>115.9</course><type>1</type></trkpt>
      <trkpt lat="42.99443894" lon="-2.3917975"><ele>1384</ele><speed>9.63</speed><time>2017-03-19T14:35:22Z</time><pdop>3.0</pdop><geoidheight>0.00</geoidheight><course>116.8</course><type>1</type></trkpt>
      <trkpt lat="42.99439894" lon="-2.39170294"><ele>1385</ele><speed>9.22</speed><time>2017-03-19T14:35:23Z</time><pdop>3.0</pdop><geoidheight>0.00</geoidheight><course>119.6</course><type>1</type></trkpt>
      <trkpt lat="42.99435453" lon="-2.39161574"><ele>1386</ele><speed>8.82</speed><time>2017-03-19T14:35:24Z</time><pdop>3.0</pdop><geoidheight>0.00</geoidheight><course>122.6</course><type>1</type></trkpt>
      <trkpt lat="42.99430914" lon="-2.39151406"><ele>1386</ele><speed>9.25</speed><time>2017-03-19T14:35:25Z</time><pdop>3.0</pdop><geoidheight>0.00</geoidheight><course>120.7</course><type>1</type></trkpt>
      <trkpt lat="42.99426845" lon="-2.39140546"><ele>1386</ele><speed>9.57</speed><time>2017-03-19T14:35:26Z</time><pdop>3.0</pdop><geoidheight>0.00</geoidheight><course>119.3</course><type>1</type></trkpt>
      <trkpt lat="42.99423382" lon="-2.39130602"><ele>1386</ele><speed>9.02</speed><time>2017-03-19T14:35:27Z</time><pdop>3.0</pdop><geoidheight>0.00</geoidheight><course>116.5</course><type>1</type></trkpt>
      <trkpt lat="42.99420574" lon="-2.3912071"><ele>1387</ele><speed>8.80</speed><time>2017-03-19T14:35:28Z</time><pdop>3.0</pdop><geoidheight>0.00</geoidheight><course>111.9</course><type>1</type></trkpt>
      <trkpt lat="42.99417957" lon="-2.39111902"><ele>1387</ele><speed>8.17</speed><time>2017-03-19T14:35:29Z</time><pdop>3.0</pdop><geoidheight>0.00</geoidheight><course>111.0</course><type>1</type></trkpt>
      <trkpt lat="42.99415306" lon="-2.39103308"><ele>1387</ele><speed>7.69</speed><time>2017-03-19T14:35:30Z</time><pdop>3.0</pdop><geoidheight>0.00</geoidheight><course>113.1</course><type>1</type></trkpt>
      <trkpt lat="42.99412047" lon="-2.39094566"><ele>1387</ele><speed>8.04</speed><time>2017-03-19T14:35:31Z</time><pdop>3.0</pdop><geoidheight>0.00</geoidheight><course>113.4</course><type>1</type></trkpt>
      <trkpt lat="42.9940975" lon="-2.39083345"><ele>1385</ele><speed>8.77</speed><time>2017-03-19T14:35:32Z</time><pdop>3.0</pdop><geoidheight>0.00</geoidheight><course>110.0</course><type>1</type></trkpt>
      <trkpt lat="42.99407342" lon="-2.39073356"><ele>1383</ele><speed>9.02</speed><time>2017-03-19T14:35:33Z</time><pdop>3.0</pdop><geoidheight>0.00</geoidheight><course>105.6</course><type>1</type></trkpt>
      <trkpt lat="42.99406129" lon="-2.39063556"><ele>1382</ele><speed>8.50</speed><time>2017-03-19T14:35:34Z</time><pdop>3.0</pdop><geoidheight>0.00</geoidheight><course>99.2</course><type>1</type></trkpt>
      <trkpt lat="42.99406388" lon="-2.39055381"><ele>1381</ele><speed>7.22</speed><time>2017-03-19T14:35:35Z</time><pdop>3.0</pdop><geoidheight>0.00</geoidheight><course>97.0</course><type>1</type></trkpt>
      <trkpt lat="42.99404343" lon="-2.39047701"><ele>1380</ele><speed>6.40</speed><time>2017-03-19T14:35:36Z</time><pdop>3.0</pdop><geoidheight>0.00</geoidheight><course>103.3</course><type>1</type></trkpt>
      <trkpt lat="42.99401803" lon="-2.3903973"><ele>1378</ele><speed>6.89</speed><time>2017-03-19T14:35:37Z</time><pdop>3.0</pdop><geoidheight>0.00</geoidheight><course>111.3</course><type>1</type></trkpt>
      <trkpt lat="42.99399434" lon="-2.39030445"><ele>1376</ele><speed>8.07</speed><time>2017-03-19T14:35:38Z</time><pdop>3.0</pdop><geoidheight>0.00</geoidheight><course>110.8</course><type>1</type></trkpt>
      <trkpt lat="42.99396871" lon="-2.39018961"><ele>1375</ele><speed>9.59</speed><time>2017-03-19T14:35:39Z</time><pdop>3.0</pdop><geoidheight>0.00</geoidheight><course>107.7</course><type>1</type></trkpt>
      <trkpt lat="42.99394673" lon="-2.39007633"><ele>1374</ele><speed>9.31</speed><time>2017-03-19T14:35:40Z</time><pdop>3.0</pdop><geoidheight>0.00</geoidheight><course>107.4</course><type>1</type></trkpt>
      <trkpt lat="42.99392723" lon="-2.38998618"><ele>1374</ele><speed>8.03</speed><time>2017-03-19T14:35:41Z</time><pdop>3.0</pdop><geoidheight>0.00</geoidheight><course>106.8</course><type>1</type></trkpt>
      <trkpt lat="42.99391261" lon="-2.3899071"><ele>1372</ele><speed>7.05</speed><time>2017-03-19T14:35:42Z</time><pdop>3.0</pdop><geoidheight>0.00</geoidheight><course>105.8</course><type>1</type></trkpt>
      <trkpt lat="42.99389283" lon="-2.38982264"><ele>1370</ele><speed>7.36</speed><time>2017-03-19T14:35:43Z</time><pdop>3.0</pdop><geoidheight>0.00</geoidheight><course>105.6</course><type>1</type></trkpt>
      <trkpt lat="42.99387079" lon="-2.38972768"><ele>1368</ele><speed>8.08</speed><time>2017-03-19T14:35:44Z</time><pdop>3.0</pdop><geoidheight>0.00</geoidheight><course>107.4</course><type>1</type></trkpt>
      <trkpt lat="42.99384453" lon="-2.3896182"><ele>1366</ele><speed>9.02</speed><time>2017-03-19T14:35:45Z</time><pdop>3.0</pdop><geoidheight>0.00</geoidheight><course>108.0</course><type>1</type></trkpt>
      <trkpt lat="42.99381717" lon="-2.38951953"><ele>1365</ele><speed>9.05</speed><time>2017-03-19T14:35:46Z</time><pdop>3.0</pdop><geoidheight>0.00</geoidheight><course>108.6</course><type>1</type></trkpt>
      <trkpt lat="42.99379151" lon="-2.38941988"><ele>1365</ele><speed>8.67</speed><time>2017-03-19T14:35:47Z</time><pdop>3.0</pdop><geoidheight>0.00</geoidheight><course>110.3</course><type>1</type></trkpt>
      <trkpt lat="42.99376905" lon="-2.38932042"><ele>1364</ele><speed>8.50</speed><time>2017-03-19T14:35:48Z</time><pdop>3.0</pdop><geoidheight>0.00</geoidheight><course>110.4</course><type>1</type></trkpt>
      <trkpt lat="42.99373932" lon="-2.38922113"><ele>1362</ele><speed>8.83</speed><time>2017-03-19T14:35:49Z</time><pdop>3.0</pdop><geoidheight>0.00</geoidheight><course>109.2</course><type>1</type></trkpt>
      <trkpt lat="42.99372611" lon="-2.38911357"><ele>1360</ele><speed>9.04</speed><time>2017-03-19T14:35:50Z</time><pdop>3.0</pdop><geoidheight>0.00</geoidheight><course>101.1</course><type>1</type></trkpt>
      <trkpt lat="42.99373824" lon="-2.38902724"><ele>1360</ele><speed>7.61</speed><time>2017-03-19T14:35:51Z</time><pdop>3.0</pdop><geoidheight>0.00</geoidheight><course>83.0</course><type>1</type></trkpt>
      <trkpt lat="42.99377663" lon="-2.3889651"><ele>1358</ele><speed>5.64</speed><time>2017-03-19T14:35:52Z</time><pdop>3.0</pdop><geoidheight>0.00</geoidheight><course>53.4</course><type>1</type></trkpt>
      <trkpt lat="42.99386469" lon="-2.38896601"><ele>1358</ele><speed>4.25</speed><time>2017-03-19T14:35:54Z</time><pdop>3.0</pdop><geoidheight>0.00</geoidheight><course>356.7</course><type>1</type></trkpt>
      <trkpt lat="42.99391514" lon="-2.38903666"><ele>1359</ele><speed>3.71</speed><time>2017-03-19T14:35:56Z</time><pdop>3.0</pdop><geoidheight>0.00</geoidheight><course>316.2</course><type>1</type></trkpt>
      <trkpt lat="42.99396172" lon="-2.38913205"><ele>1359</ele><speed>4.17</speed><time>2017-03-19T14:35:58Z</time><pdop>4.0</pdop><geoidheight>0.00</geoidheight><course>310.6</course><type>1</type></trkpt>
      <trkpt lat="42.99397223" lon="-2.38923231"><ele>1358</ele><speed>6.23</speed><time>2017-03-19T14:35:59Z</time><pdop>3.0</pdop><geoidheight>0.00</geoidheight><course>291.8</course><type>1</type></trkpt>
      <trkpt lat="42.99398799" lon="-2.38933071"><ele>1358</ele><speed>6.89</speed><time>2017-03-19T14:36:00Z</time><pdop>4.0</pdop><geoidheight>0.00</geoidheight><course>285.6</course><type>1</type></trkpt>
      <trkpt lat="42.99399372" lon="-2.38944065"><ele>1357</ele><speed>6.93</speed><time>2017-03-19T14:36:01Z</time><pdop>4.0</pdop><geoidheight>0.00</geoidheight><course>280.3</course><type>1</type></trkpt>
      <trkpt lat="42.99398994" lon="-2.38959184"><ele>1355</ele><speed>5.43</speed><time>2017-03-19T14:36:03Z</time><pdop>4.0</pdop><geoidheight>0.00</geoidheight><course>271.2</course><type>1</type></trkpt>
      <trkpt lat="42.99401874" lon="-2.38970514"><ele>1355</ele><speed>4.84</speed><time>2017-03-19T14:36:05Z</time><pdop>5.0</pdop><geoidheight>0.00</geoidheight><course>292.7</course><type>1</type></trkpt>
      <trkpt lat="42.99408194" lon="-2.38988644"><ele>1353</ele><speed>5.19</speed><time>2017-03-19T14:36:08Z</time><pdop>5.0</pdop><geoidheight>0.00</geoidheight><course>292.1</course><type>1</type></trkpt>
      <trkpt lat="42.99414454" lon="-2.39005521"><ele>1353</ele><speed>3.48</speed><time>2017-03-19T14:36:12Z</time><pdop>6.0</pdop><geoidheight>0.00</geoidheight><course>291.9</course><type>1</type></trkpt>
      <trkpt lat="42.99423167" lon="-2.3901643"><ele>1350</ele><speed>5.16</speed><time>2017-03-19T14:36:15Z</time><pdop>4.0</pdop><geoidheight>0.00</geoidheight><course>315.7</course><type>1</type></trkpt>
      <trkpt lat="42.99430006" lon="-2.39032557"><ele>1348</ele><speed>4.88</speed><time>2017-03-19T14:36:18Z</time><pdop>5.0</pdop><geoidheight>0.00</geoidheight><course>298.8</course><type>1</type></trkpt>
      <trkpt lat="42.99436337" lon="-2.390447"><ele>1345</ele><speed>4.49</speed><time>2017-03-19T14:36:21Z</time><pdop>7.0</pdop><geoidheight>0.00</geoidheight><course>306.1</course><type>1</type></trkpt>
      <trkpt lat="42.99447496" lon="-2.39057734"><ele>1343</ele><speed>5.57</speed><time>2017-03-19T14:36:24Z</time><pdop>5.0</pdop><geoidheight>0.00</geoidheight><course>317.0</course><type>1</type></trkpt>
      <trkpt lat="42.99455285" lon="-2.39068136"><ele>1343</ele><speed>6.04</speed><time>2017-03-19T14:36:26Z</time><pdop>5.0</pdop><geoidheight>0.00</geoidheight><course>315.4</course><type>1</type></trkpt>
      <trkpt lat="42.9946242" lon="-2.3907788"><ele>1343</ele><speed>5.37</speed><time>2017-03-19T14:36:28Z</time><pdop>5.0</pdop><geoidheight>0.00</geoidheight><course>309.3</course><type>1</type></trkpt>
      <trkpt lat="42.99471012" lon="-2.39086894"><ele>1345</ele><speed>3.69</speed><time>2017-03-19T14:36:31Z</time><pdop>5.0</pdop><geoidheight>0.00</geoidheight><course>299.2</course><type>1</type></trkpt>
      <trkpt lat="42.99475932" lon="-2.39102849"><ele>1344</ele><speed>4.87</speed><time>2017-03-19T14:36:34Z</time><pdop>4.0</pdop><geoidheight>0.00</geoidheight><course>306.7</course><type>1</type></trkpt>
      <trkpt lat="42.99481794" lon="-2.39112411"><ele>1340</ele><speed>2.85</speed><time>2017-03-19T14:36:38Z</time><pdop>6.0</pdop><geoidheight>0.00</geoidheight><course>337.1</course><type>1</type></trkpt>
      <trkpt lat="42.99494823" lon="-2.39120527"><ele>1327</ele><speed>6.01</speed><time>2017-03-19T14:36:41Z</time><pdop>4.0</pdop><geoidheight>0.00</geoidheight><course>342.2</course><type>1</type></trkpt>
      <trkpt lat="42.99503148" lon="-2.39128981"><ele>1331</ele><speed>4.98</speed><time>2017-03-19T14:36:43Z</time><pdop>3.0</pdop><geoidheight>0.00</geoidheight><course>320.2</course><type>1</type></trkpt>
      <trkpt lat="42.99507946" lon="-2.39135994"><ele>1334</ele><speed>4.04</speed><time>2017-03-19T14:36:45Z</time><pdop>3.0</pdop><geoidheight>0.00</geoidheight><course>312.8</course><type>1</type></trkpt>
      <trkpt lat="42.99514691" lon="-2.39142887"><ele>1336</ele><speed>4.85</speed><time>2017-03-19T14:36:47Z</time><pdop>4.0</pdop><geoidheight>0.00</geoidheight><course>320.6</course><type>1</type></trkpt>
      <trkpt lat="42.99521407" lon="-2.39151988"><ele>1339</ele><speed>5.19</speed><time>2017-03-19T14:36:49Z</time><pdop>4.0</pdop><geoidheight>0.00</geoidheight><course>309.7</course><type>1</type></trkpt>
      <trkpt lat="42.99527108" lon="-2.39163083"><ele>1339</ele><speed>5.62</speed><time>2017-03-19T14:36:51Z</time><pdop>6.0</pdop><geoidheight>0.00</geoidheight><course>302.6</course><type>1</type></trkpt>
      <trkpt lat="42.99534581" lon="-2.39177303"><ele>1338</ele><speed>4.47</speed><time>2017-03-19T14:36:54Z</time><pdop>7.0</pdop><geoidheight>0.00</geoidheight><course>320.9</course><type>1</type></trkpt>
      <trkpt lat="42.99538725" lon="-2.3915134"><ele>1335</ele><speed>7.36</speed><time>2017-03-19T14:36:58Z</time><pdop>6.0</pdop><geoidheight>0.00</geoidheight><course>84.0</course><type>1</type></trkpt>
      <trkpt lat="42.99538985" lon="-2.3913672"><ele>1334</ele><speed>7.27</speed><time>2017-03-19T14:36:59Z</time><pdop>5.0</pdop><geoidheight>0.00</geoidheight><course>95.7</course><type>1</type></trkpt>
      <trkpt lat="42.9953647" lon="-2.39119288"><ele>1334</ele><speed>6.99</speed><time>2017-03-19T14:37:01Z</time><pdop>4.0</pdop><geoidheight>0.00</geoidheight><course>100.9</course><type>1</type></trkpt>
      <trkpt lat="42.99538032" lon="-2.39102323"><ele>1332</ele><speed>6.93</speed><time>2017-03-19T14:37:03Z</time><pdop>3.0</pdop><geoidheight>0.00</geoidheight><course>78.2</course><type>1</type></trkpt>
      <trkpt lat="42.99540634" lon="-2.39095013"><ele>1331</ele><speed>6.75</speed><time>2017-03-19T14:37:04Z</time><pdop>3.0</pdop><geoidheight>0.00</geoidheight><course>64.7</course><type>1</type></trkpt>
      <trkpt lat="42.99545677" lon="-2.39082954"><ele>1329</ele><speed>5.81</speed><time>2017-03-19T14:37:06Z</time><pdop>6.0</pdop><geoidheight>0.00</geoidheight><course>56.5</course><type>1</type></trkpt>
      <trkpt lat="42.99557654" lon="-2.39071979"><ele>1329</ele><speed>4.22</speed><time>2017-03-19T14:37:09Z</time><pdop>5.0</pdop><geoidheight>0.00</geoidheight><course>36.0</course><type>1</type></trkpt>
      <trkpt lat="42.99565723" lon="-2.3906646"><ele>1327</ele><speed>4.98</speed><time>2017-03-19T14:37:11Z</time><pdop>5.0</pdop><geoidheight>0.00</geoidheight><course>33.7</course><type>1</type></trkpt>
      <trkpt lat="42.99575292" lon="-2.39061821"><ele>1326</ele><speed>5.97</speed><time>2017-03-19T14:37:13Z</time><pdop>5.0</pdop><geoidheight>0.00</geoidheight><course>25.9</course><type>1</type></trkpt>
      <trkpt lat="42.9958511" lon="-2.39053887"><ele>1325</ele><speed>6.15</speed><time>2017-03-19T14:37:15Z</time><pdop>4.0</pdop><geoidheight>0.00</geoidheight><course>33.8</course><type>1</type></trkpt>
      <trkpt lat="42.99593387" lon="-2.39043055"><ele>1324</ele><speed>5.97</speed><time>2017-03-19T14:37:17Z</time><pdop>3.0</pdop><geoidheight>0.00</geoidheight><course>40.6</course><type>1</type></trkpt>
      <trkpt lat="42.99603055" lon="-2.39034649"><ele>1322</ele><speed>6.15</speed><time>2017-03-19T14:37:19Z</time><pdop>3.0</pdop><geoidheight>0.00</geoidheight><course>30.3</course><type>1</type></trkpt>
      <trkpt lat="42.99612894" lon="-2.39027554"><ele>1320</ele><speed>5.57</speed><time>2017-03-19T14:37:21Z</time><pdop>4.0</pdop><geoidheight>0.00</geoidheight><course>30.3</course><type>1</type></trkpt>
      <trkpt lat="42.996226" lon="-2.39020756"><ele>1317</ele><speed>6.31</speed><time>2017-03-19T14:37:23Z</time><pdop>4.0</pdop><geoidheight>0.00</geoidheight><course>34.2</course><type>1</type></trkpt>
      <trkpt lat="42.99632297" lon="-2.3901072"><ele>1318</ele><speed>6.47</speed><time>2017-03-19T14:37:25Z</time><pdop>3.0</pdop><geoidheight>0.00</geoidheight><course>35.2</course><type>1</type></trkpt>
      <trkpt lat="42.99639587" lon="-2.39001713"><ele>1317</ele><speed>6.16</speed><time>2017-03-19T14:37:27Z</time><pdop>3.0</pdop><geoidheight>0.00</geoidheight><course>40.6</course><type>1</type></trkpt>
      <trkpt lat="42.99644164" lon="-2.38994699"><ele>1316</ele><speed>7.19</speed><time>2017-03-19T14:37:28Z</time><pdop>3.0</pdop><geoidheight>0.00</geoidheight><course>42.3</course><type>1</type></trkpt>
      <trkpt lat="42.99651856" lon="-2.38980673"><ele>1313</ele><speed>7.18</speed><time>2017-03-19T14:37:30Z</time><pdop>4.0</pdop><geoidheight>0.00</geoidheight><course>47.7</course><type>1</type></trkpt>
      <trkpt lat="42.99660473" lon="-2.38966491"><ele>1314</ele><speed>7.28</speed><time>2017-03-19T14:37:32Z</time><pdop>3.0</pdop><geoidheight>0.00</geoidheight><course>52.0</course><type>1</type></trkpt>
      <trkpt lat="42.99664856" lon="-2.38958041"><ele>1315</ele><speed>7.40</speed><time>2017-03-19T14:37:33Z</time><pdop>3.0</pdop><geoidheight>0.00</geoidheight><course>58.7</course><type>1</type></trkpt>
      <trkpt lat="42.99667851" lon="-2.38949128"><ele>1315</ele><speed>7.80</speed><time>2017-03-19T14:37:34Z</time><pdop>3.0</pdop><geoidheight>0.00</geoidheight><course>62.7</course><type>1</type></trkpt>
      <trkpt lat="42.99671312" lon="-2.38940759"><ele>1314</ele><speed>7.78</speed><time>2017-03-19T14:37:35Z</time><pdop>3.0</pdop><geoidheight>0.00</geoidheight><course>60.2</course><type>1</type></trkpt>
      <trkpt lat="42.9967503" lon="-2.38933665"><ele>1314</ele><speed>7.39</speed><time>2017-03-19T14:37:36Z</time><pdop>3.0</pdop><geoidheight>0.00</geoidheight><course>53.8</course><type>1</type></trkpt>
      <trkpt lat="42.996799" lon="-2.38926304"><ele>1315</ele><speed>7.73</speed><time>2017-03-19T14:37:37Z</time><pdop>4.0</pdop><geoidheight>0.00</geoidheight><course>52.0</course><type>1</type></trkpt>
      <trkpt lat="42.99687005" lon="-2.38916142"><ele>1314</ele><speed>6.51</speed><time>2017-03-19T14:37:39Z</time><pdop>6.0</pdop><geoidheight>0.00</geoidheight><course>47.8</course><type>1</type></trkpt>
      <trkpt lat="42.99696979" lon="-2.38911918"><ele>1312</ele><speed>6.05</speed><time>2017-03-19T14:37:41Z</time><pdop>5.0</pdop><geoidheight>0.00</geoidheight><course>30.0</course><type>1</type></trkpt>
      <trkpt lat="42.99706103" lon="-2.38904314"><ele>1314</ele><speed>5.66</speed><time>2017-03-19T14:37:43Z</time><pdop>5.0</pdop><geoidheight>0.00</geoidheight><course>33.4</course><type>1</type></trkpt>
      <trkpt lat="42.99717164" lon="-2.3889223"><ele>1312</ele><speed>5.64</speed><time>2017-03-19T14:37:45Z</time><pdop>5.0</pdop><geoidheight>0.00</geoidheight><course>34.5</course><type>1</type></trkpt>
      <trkpt lat="42.997275" lon="-2.38886607"><ele>1311</ele><speed>6.50</speed><time>2017-03-19T14:37:47Z</time><pdop>4.0</pdop><geoidheight>0.00</geoidheight><course>26.5</course><type>1</type></trkpt>
      <trkpt lat="42.99739749" lon="-2.3888115"><ele>1311</ele><speed>6.08</speed><time>2017-03-19T14:37:49Z</time><pdop>4.0</pdop><geoidheight>0.00</geoidheight><course>24.1</course><type>1</type></trkpt>
      <trkpt lat="42.99746763" lon="-2.38873765"><ele>1308</ele><speed>5.79</speed><time>2017-03-19T14:37:51Z</time><pdop>4.0</pdop><geoidheight>0.00</geoidheight><course>31.1</course><type>1</type></trkpt>
      <trkpt lat="42.99753479" lon="-2.38869154"><ele>1306</ele><speed>6.49</speed><time>2017-03-19T14:37:52Z</time><pdop>4.0</pdop><geoidheight>0.00</geoidheight><course>29.6</course><type>1</type></trkpt>
      <trkpt lat="42.99761672" lon="-2.38863349"><ele>1301</ele><speed>6.03</speed><time>2017-03-19T14:37:54Z</time><pdop>5.0</pdop><geoidheight>0.00</geoidheight><course>18.0</course><type>1</type></trkpt>
      <trkpt lat="42.99771838" lon="-2.38858441"><ele>1295</ele><speed>4.67</speed><time>2017-03-19T14:37:57Z</time><pdop>4.0</pdop><geoidheight>0.00</geoidheight><course>21.8</course><type>1</type></trkpt>
      <trkpt lat="42.99779577" lon="-2.38854301"><ele>1293</ele><speed>5.32</speed><time>2017-03-19T14:37:59Z</time><pdop>5.0</pdop><geoidheight>0.00</geoidheight><course>22.2</course><type>1</type></trkpt>
      <trkpt lat="42.99790605" lon="-2.3884919"><ele>1292</ele><speed>5.82</speed><time>2017-03-19T14:38:01Z</time><pdop>6.0</pdop><geoidheight>0.00</geoidheight><course>23.2</course><type>1</type></trkpt>
      <trkpt lat="42.99800315" lon="-2.38843546"><ele>1291</ele><speed>5.52</speed><time>2017-03-19T14:38:03Z</time><pdop>4.0</pdop><geoidheight>0.00</geoidheight><course>22.9</course><type>1</type></trkpt>
      <trkpt lat="42.99810739" lon="-2.38839881"><ele>1289</ele><speed>6.32</speed><time>2017-03-19T14:38:05Z</time><pdop>4.0</pdop><geoidheight>0.00</geoidheight><course>20.1</course><type>1</type></trkpt>
      <trkpt lat="42.99822053" lon="-2.38834797"><ele>1288</ele><speed>7.26</speed><time>2017-03-19T14:38:07Z</time><pdop>4.0</pdop><geoidheight>0.00</geoidheight><course>23.5</course><type>1</type></trkpt>
      <trkpt lat="42.9982944" lon="-2.38829037"><ele>1288</ele><speed>8.25</speed><time>2017-03-19T14:38:08Z</time><pdop>4.0</pdop><geoidheight>0.00</geoidheight><course>27.6</course><type>1</type></trkpt>
      <trkpt lat="42.99837894" lon="-2.38824022"><ele>1287</ele><speed>5.69</speed><time>2017-03-19T14:38:10Z</time><pdop>6.0</pdop><geoidheight>0.00</geoidheight><course>32.6</course><type>1</type></trkpt>
      <trkpt lat="42.99846271" lon="-2.38830435"><ele>1308</ele><speed>6.95</speed><time>2017-03-19T14:38:11Z</time><pdop>4.0</pdop><geoidheight>0.00</geoidheight><course>6.5</course><type>1</type></trkpt>
      <trkpt lat="42.99859498" lon="-2.38826556"><ele>1296</ele><speed>7.65</speed><time>2017-03-19T14:38:13Z</time><pdop>3.0</pdop><geoidheight>0.00</geoidheight><course>5.5</course><type>1</type></trkpt>
      <trkpt lat="42.99866575" lon="-2.38825785"><ele>1292</ele><speed>7.44</speed><time>2017-03-19T14:38:14Z</time><pdop>3.0</pdop><geoidheight>0.00</geoidheight><course>4.1</course><type>1</type></trkpt>
      <trkpt lat="42.99873889" lon="-2.38827276"><ele>1289</ele><speed>7.11</speed><time>2017-03-19T14:38:15Z</time><pdop>3.0</pdop><geoidheight>0.00</geoidheight><course>357.4</course><type>1</type></trkpt>
      <trkpt lat="42.99879453" lon="-2.38830603"><ele>1286</ele><speed>6.25</speed><time>2017-03-19T14:38:16Z</time><pdop>3.0</pdop><geoidheight>0.00</geoidheight><course>346.1</course><type>1</type></trkpt>
      <trkpt lat="42.99884107" lon="-2.38834503"><ele>1284</ele><speed>5.61</speed><time>2017-03-19T14:38:17Z</time><pdop>3.0</pdop><geoidheight>0.00</geoidheight><course>339.7</course><type>1</type></trkpt>
      <trkpt lat="42.99894031" lon="-2.38837567"><ele>1280</ele><speed>4.98</speed><time>2017-03-19T14:38:19Z</time><pdop>3.0</pdop><geoidheight>0.00</geoidheight><course>350.0</course><type>1</type></trkpt>
      <trkpt lat="42.99903336" lon="-2.38837343"><ele>1278</ele><speed>5.66</speed><time>2017-03-19T14:38:21Z</time><pdop>3.0</pdop><geoidheight>0.00</geoidheight><course>4.0</course><type>1</type></trkpt>
      <trkpt lat="42.99908792" lon="-2.38836397"><ele>1278</ele><speed>5.90</speed><time>2017-03-19T14:38:22Z</time><pdop>3.0</pdop><geoidheight>0.00</geoidheight><course>5.8</course><type>1</type></trkpt>
      <trkpt lat="42.99918634" lon="-2.38832992"><ele>1277</ele><speed>5.24</speed><time>2017-03-19T14:38:24Z</time><pdop>3.0</pdop><geoidheight>0.00</geoidheight><course>9.5</course><type>1</type></trkpt>
      <trkpt lat="42.99924012" lon="-2.3883225"><ele>1277</ele><speed>5.66</speed><time>2017-03-19T14:38:25Z</time><pdop>3.0</pdop><geoidheight>0.00</geoidheight><course>11.9</course><type>1</type></trkpt>
      <trkpt lat="42.99934544" lon="-2.38826856"><ele>1277</ele><speed>6.61</speed><time>2017-03-19T14:38:27Z</time><pdop>3.0</pdop><geoidheight>0.00</geoidheight><course>15.9</course><type>1</type></trkpt>
      <trkpt lat="42.99940287" lon="-2.38821676"><ele>1274</ele><speed>6.90</speed><time>2017-03-19T14:38:28Z</time><pdop>4.0</pdop><geoidheight>0.00</geoidheight><course>27.2</course><type>1</type></trkpt>
      <trkpt lat="42.99950751" lon="-2.3880978"><ele>1272</ele><speed>7.16</speed><time>2017-03-19T14:38:30Z</time><pdop>4.0</pdop><geoidheight>0.00</geoidheight><course>32.8</course><type>1</type></trkpt>
      <trkpt lat="42.9995747" lon="-2.38802329"><ele>1272</ele><speed>7.83</speed><time>2017-03-19T14:38:31Z</time><pdop>4.0</pdop><geoidheight>0.00</geoidheight><course>36.6</course><type>1</type></trkpt>
      <trkpt lat="42.99965673" lon="-2.38805613"><ele>1277</ele><speed>7.14</speed><time>2017-03-19T14:38:32Z</time><pdop>4.0</pdop><geoidheight>0.00</geoidheight><course>12.0</course><type>1</type></trkpt>
      <trkpt lat="42.99978314" lon="-2.38809617"><ele>1279</ele><speed>7.75</speed><time>2017-03-19T14:38:34Z</time><pdop>4.0</pdop><geoidheight>0.00</geoidheight><course>339.6</course><type>1</type></trkpt>
      <trkpt lat="42.99983963" lon="-2.3881906"><ele>1278</ele><speed>8.56</speed><time>2017-03-19T14:38:35Z</time><pdop>3.0</pdop><geoidheight>0.00</geoidheight><course>318.8</course><type>1</type></trkpt>
      <trkpt lat="42.99989675" lon="-2.38827405"><ele>1282</ele><speed>8.98</speed><time>2017-03-19T14:38:36Z</time><pdop>3.0</pdop><geoidheight>0.00</geoidheight><course>314.5</course><type>1</type></trkpt>
      <trkpt lat="42.99989593" lon="-2.38837028"><ele>1282</ele><speed>8.35</speed><time>2017-03-19T14:38:37Z</time><pdop>3.0</pdop><geoidheight>0.00</geoidheight><course>290.0</course><type>1</type></trkpt>
      <trkpt lat="42.99990623" lon="-2.38846389"><ele>1282</ele><speed>7.75</speed><time>2017-03-19T14:38:38Z</time><pdop>3.0</pdop><geoidheight>0.00</geoidheight><course>281.1</course><type>1</type></trkpt>
      <trkpt lat="42.99990422" lon="-2.38855568"><ele>1281</ele><speed>7.65</speed><time>2017-03-19T14:38:39Z</time><pdop>3.0</pdop><geoidheight>0.00</geoidheight><course>272.5</course><type>1</type></trkpt>
      <trkpt lat="42.99989833" lon="-2.38865302"><ele>1281</ele><speed>8.65</speed><time>2017-03-19T14:38:40Z</time><pdop>3.0</pdop><geoidheight>0.00</geoidheight><course>270.4</course><type>1</type></trkpt>
      <trkpt lat="42.99989769" lon="-2.38877281"><ele>1280</ele><speed>9.40</speed><time>2017-03-19T14:38:41Z</time><pdop>3.0</pdop><geoidheight>0.00</geoidheight><course>268.7</course><type>1</type></trkpt>
      <trkpt lat="42.99989205" lon="-2.38887929"><ele>1280</ele><speed>8.99</speed><time>2017-03-19T14:38:42Z</time><pdop>3.0</pdop><geoidheight>0.00</geoidheight><course>269.3</course><type>1</type></trkpt>
      <trkpt lat="42.99988845" lon="-2.38898451"><ele>1279</ele><speed>8.89</speed><time>2017-03-19T14:38:43Z</time><pdop>3.0</pdop><geoidheight>0.00</geoidheight><course>269.0</course><type>1</type></trkpt>
      <trkpt lat="42.99988473" lon="-2.3890857"><ele>1279</ele><speed>8.54</speed><time>2017-03-19T14:38:44Z</time><pdop>3.0</pdop><geoidheight>0.00</geoidheight><course>267.7</course><type>1</type></trkpt>
      <trkpt lat="42.99987823" lon="-2.38917965"><ele>1279</ele><speed>8.49</speed><time>2017-03-19T14:38:45Z</time><pdop>3.0</pdop><geoidheight>0.00</geoidheight><course>266.6</course><type>1</type></trkpt>
      <trkpt lat="42.99987169" lon="-2.3892801"><ele>1279</ele><speed>8.37</speed><time>2017-03-19T14:38:46Z</time><pdop>3.0</pdop><geoidheight>0.00</geoidheight><course>264.7</course><type>1</type></trkpt>
      <trkpt lat="42.99986391" lon="-2.38938155"><ele>1279</ele><speed>8.99</speed><time>2017-03-19T14:38:47Z</time><pdop>3.0</pdop><geoidheight>0.00</geoidheight><course>263.8</course><type>1</type></trkpt>
      <trkpt lat="42.99985437" lon="-2.38949005"><ele>1278</ele><speed>8.86</speed><time>2017-03-19T14:38:48Z</time><pdop>3.0</pdop><geoidheight>0.00</geoidheight><course>260.7</course><type>1</type></trkpt>
      <trkpt lat="42.99984272" lon="-2.3895988"><ele>1278</ele><speed>8.88</speed><time>2017-03-19T14:38:49Z</time><pdop>3.0</pdop><geoidheight>0.00</geoidheight><course>262.5</course><type>1</type></trkpt>
      <trkpt lat="42.99981787" lon="-2.38969441"><ele>1279</ele><speed>8.32</speed><time>2017-03-19T14:38:50Z</time><pdop>3.0</pdop><geoidheight>0.00</geoidheight><course>255.9</course><type>1</type></trkpt>
      <trkpt lat="42.99981109" lon="-2.38978244"><ele>1279</ele><speed>7.81</speed><time>2017-03-19T14:38:51Z</time><pdop>3.0</pdop><geoidheight>0.00</geoidheight><course>258.9</course><type>1</type></trkpt>
      <trkpt lat="42.99981188" lon="-2.3898791"><ele>1280</ele><speed>7.78</speed><time>2017-03-19T14:38:52Z</time><pdop>3.0</pdop><geoidheight>0.00</geoidheight><course>267.7</course><type>1</type></trkpt>
      <trkpt lat="42.99981019" lon="-2.38997159"><ele>1280</ele><speed>7.95</speed><time>2017-03-19T14:38:53Z</time><pdop>3.0</pdop><geoidheight>0.00</geoidheight><course>268.7</course><type>1</type></trkpt>
      <trkpt lat="42.99980464" lon="-2.39007457"><ele>1281</ele><speed>8.40</speed><time>2017-03-19T14:38:54Z</time><pdop>3.0</pdop><geoidheight>0.00</geoidheight><course>268.6</course><type>1</type></trkpt>
      <trkpt lat="42.99980679" lon="-2.39019129"><ele>1280</ele><speed>8.82</speed><time>2017-03-19T14:38:55Z</time><pdop>4.0</pdop><geoidheight>0.00</geoidheight><course>266.6</course><type>1</type></trkpt>
      <trkpt lat="42.99978737" lon="-2.39027655"><ele>1279</ele><speed>7.83</speed><time>2017-03-19T14:38:56Z</time><pdop>3.0</pdop><geoidheight>0.00</geoidheight><course>259.7</course><type>1</type></trkpt>
      <trkpt lat="42.99977944" lon="-2.3903608"><ele>1280</ele><speed>7.46</speed><time>2017-03-19T14:38:57Z</time><pdop>3.0</pdop><geoidheight>0.00</geoidheight><course>263.2</course><type>1</type></trkpt>
      <trkpt lat="42.99976884" lon="-2.39044496"><ele>1279</ele><speed>7.54</speed><time>2017-03-19T14:38:58Z</time><pdop>3.0</pdop><geoidheight>0.00</geoidheight><course>264.9</course><type>1</type></trkpt>
      <trkpt lat="42.99975843" lon="-2.39053901"><ele>1279</ele><speed>7.86</speed><time>2017-03-19T14:38:59Z</time><pdop>3.0</pdop><geoidheight>0.00</geoidheight><course>262.7</course><type>1</type></trkpt>
      <trkpt lat="42.99975334" lon="-2.39063451"><ele>1278</ele><speed>7.72</speed><time>2017-03-19T14:39:00Z</time><pdop>3.0</pdop><geoidheight>0.00</geoidheight><course>262.5</course><type>1</type></trkpt>
      <trkpt lat="42.99973968" lon="-2.39074443"><ele>1277</ele><speed>8.29</speed><time>2017-03-19T14:39:01Z</time><pdop>3.0</pdop><geoidheight>0.00</geoidheight><course>260.3</course><type>1</type></trkpt>
      <trkpt lat="42.99973074" lon="-2.39085073"><ele>1277</ele><speed>8.62</speed><time>2017-03-19T14:39:02Z</time><pdop>3.0</pdop><geoidheight>0.00</geoidheight><course>263.8</course><type>1</type></trkpt>
      <trkpt lat="42.99972149" lon="-2.39094316"><ele>1275</ele><speed>8.08</speed><time>2017-03-19T14:39:03Z</time><pdop>3.0</pdop><geoidheight>0.00</geoidheight><course>259.5</course><type>1</type></trkpt>
      <trkpt lat="42.99970018" lon="-2.39104399"><ele>1274</ele><speed>8.40</speed><time>2017-03-19T14:39:04Z</time><pdop>3.0</pdop><geoidheight>0.00</geoidheight><course>256.1</course><type>1</type></trkpt>
      <trkpt lat="42.99967449" lon="-2.39114362"><ele>1274</ele><speed>8.55</speed><time>2017-03-19T14:39:05Z</time><pdop>3.0</pdop><geoidheight>0.00</geoidheight><course>251.6</course><type>1</type></trkpt>
      <trkpt lat="42.99965218" lon="-2.39122806"><ele>1275</ele><speed>7.84</speed><time>2017-03-19T14:39:06Z</time><pdop>3.0</pdop><geoidheight>0.00</geoidheight><course>249.0</course><type>1</type></trkpt>
      <trkpt lat="42.99963391" lon="-2.39132089"><ele>1275</ele><speed>8.12</speed><time>2017-03-19T14:39:07Z</time><pdop>3.0</pdop><geoidheight>0.00</geoidheight><course>254.7</course><type>1</type></trkpt>
      <trkpt lat="42.99960174" lon="-2.39146992"><ele>1276</ele><speed>7.02</speed><time>2017-03-19T14:39:09Z</time><pdop>3.0</pdop><geoidheight>0.00</geoidheight><course>256.1</course><type>1</type></trkpt>
      <trkpt lat="42.99958531" lon="-2.39155996"><ele>1275</ele><speed>7.72</speed><time>2017-03-19T14:39:10Z</time><pdop>3.0</pdop><geoidheight>0.00</geoidheight><course>255.7</course><type>1</type></trkpt>
      <trkpt lat="42.9995596" lon="-2.39164851"><ele>1275</ele><speed>7.87</speed><time>2017-03-19T14:39:11Z</time><pdop>3.0</pdop><geoidheight>0.00</geoidheight><course>249.2</course><type>1</type></trkpt>
      <trkpt lat="42.99952445" lon="-2.39173909"><ele>1274</ele><speed>8.03</speed><time>2017-03-19T14:39:12Z</time><pdop>3.0</pdop><geoidheight>0.00</geoidheight><course>240.7</course><type>1</type></trkpt>
      <trkpt lat="42.9994846" lon="-2.39181765"><ele>1274</ele><speed>8.02</speed><time>2017-03-19T14:39:13Z</time><pdop>3.0</pdop><geoidheight>0.00</geoidheight><course>237.2</course><type>1</type></trkpt>
      <trkpt lat="42.99945003" lon="-2.39189609"><ele>1275</ele><speed>7.48</speed><time>2017-03-19T14:39:14Z</time><pdop>3.0</pdop><geoidheight>0.00</geoidheight><course>240.4</course><type>1</type></trkpt>
      <trkpt lat="42.99942897" lon="-2.39197303"><ele>1274</ele><speed>6.95</speed><time>2017-03-19T14:39:15Z</time><pdop>3.0</pdop><geoidheight>0.00</geoidheight><course>248.4</course><type>1</type></trkpt>
      <trkpt lat="42.99940069" lon="-2.3920563"><ele>1274</ele><speed>7.39</speed><time>2017-03-19T14:39:16Z</time><pdop>3.0</pdop><geoidheight>0.00</geoidheight><course>243.7</course><type>1</type></trkpt>
      <trkpt lat="42.99938419" lon="-2.39213934"><ele>1271</ele><speed>6.58</speed><time>2017-03-19T14:39:17Z</time><pdop>3.0</pdop><geoidheight>0.00</geoidheight><course>258.7</course><type>1</type></trkpt>
      <trkpt lat="42.99937417" lon="-2.39221961"><ele>1271</ele><speed>6.73</speed><time>2017-03-19T14:39:18Z</time><pdop>3.0</pdop><geoidheight>0.00</geoidheight><course>262.7</course><type>1</type></trkpt>
      <trkpt lat="42.99935719" lon="-2.39231962"><ele>1270</ele><speed>7.63</speed><time>2017-03-19T14:39:19Z</time><pdop>3.0</pdop><geoidheight>0.00</geoidheight><course>259.8</course><type>1</type></trkpt>
      <trkpt lat="42.99934654" lon="-2.39241371"><ele>1270</ele><speed>8.62</speed><time>2017-03-19T14:39:20Z</time><pdop>3.0</pdop><geoidheight>0.00</geoidheight><course>258.0</course><type>1</type></trkpt>
      <trkpt lat="42.99932584" lon="-2.39251709"><ele>1269</ele><speed>8.67</speed><time>2017-03-19T14:39:21Z</time><pdop>3.0</pdop><geoidheight>0.00</geoidheight><course>256.7</course><type>1</type></trkpt>
      <trkpt lat="42.99931099" lon="-2.39259977"><ele>1270</ele><speed>7.42</speed><time>2017-03-19T14:39:22Z</time><pdop>3.0</pdop><geoidheight>0.00</geoidheight><course>258.2</course><type>1</type></trkpt>
      <trkpt lat="42.9993086" lon="-2.3926791"><ele>1271</ele><speed>6.44</speed><time>2017-03-19T14:39:23Z</time><pdop>3.0</pdop><geoidheight>0.00</geoidheight><course>258.7</course><type>1</type></trkpt>
      <trkpt lat="42.99929412" lon="-2.39282521"><ele>1270</ele><speed>6.26</speed><time>2017-03-19T14:39:25Z</time><pdop>3.0</pdop><geoidheight>0.00</geoidheight><course>255.9</course><type>1</type></trkpt>
      <trkpt lat="42.99928333" lon="-2.39291039"><ele>1270</ele><speed>7.10</speed><time>2017-03-19T14:39:26Z</time><pdop>3.0</pdop><geoidheight>0.00</geoidheight><course>256.8</course><type>1</type></trkpt>
      <trkpt lat="42.99926341" lon="-2.39300337"><ele>1270</ele><speed>7.74</speed><time>2017-03-19T14:39:27Z</time><pdop>3.0</pdop><geoidheight>0.00</geoidheight><course>256.1</course><type>1</type></trkpt>
      <trkpt lat="42.99925026" lon="-2.39310629"><ele>1269</ele><speed>8.29</speed><time>2017-03-19T14:39:28Z</time><pdop>4.0</pdop><geoidheight>0.00</geoidheight><course>257.5</course><type>1</type></trkpt>
      <trkpt lat="42.99923252" lon="-2.39321955"><ele>1268</ele><speed>8.21</speed><time>2017-03-19T14:39:29Z</time><pdop>4.0</pdop><geoidheight>0.00</geoidheight><course>259.0</course><type>1</type></trkpt>
      <trkpt lat="42.99921481" lon="-2.39337364"><ele>1271</ele><speed>7.19</speed><time>2017-03-19T14:39:31Z</time><pdop>5.0</pdop><geoidheight>0.00</geoidheight><course>258.5</course><type>1</type></trkpt>
      <trkpt lat="42.99917159" lon="-2.393492"><ele>1270</ele><speed>6.57</speed><time>2017-03-19T14:39:33Z</time><pdop>3.0</pdop><geoidheight>0.00</geoidheight><course>255.8</course><type>1</type></trkpt>
      <trkpt lat="42.99915614" lon="-2.39356997"><ele>1269</ele><speed>6.42</speed><time>2017-03-19T14:39:34Z</time><pdop>3.0</pdop><geoidheight>0.00</geoidheight><course>253.3</course><type>1</type></trkpt>
      <trkpt lat="42.99913743" lon="-2.39364859"><ele>1269</ele><speed>6.57</speed><time>2017-03-19T14:39:35Z</time><pdop>3.0</pdop><geoidheight>0.00</geoidheight><course>252.0</course><type>1</type></trkpt>
      <trkpt lat="42.99910927" lon="-2.39381265"><ele>1270</ele><speed>6.94</speed><time>2017-03-19T14:39:37Z</time><pdop>4.0</pdop><geoidheight>0.00</geoidheight><course>257.2</course><type>1</type></trkpt>
      <trkpt lat="42.99909083" lon="-2.39397556"><ele>1268</ele><speed>6.83</speed><time>2017-03-19T14:39:39Z</time><pdop>3.0</pdop><geoidheight>0.00</geoidheight><course>265.1</course><type>1</type></trkpt>
      <trkpt lat="42.99908486" lon="-2.3940609"><ele>1268</ele><speed>6.81</speed><time>2017-03-19T14:39:40Z</time><pdop>3.0</pdop><geoidheight>0.00</geoidheight><course>263.3</course><type>1</type></trkpt>
      <trkpt lat="42.99907176" lon="-2.3941379"><ele>1268</ele><speed>6.49</speed><time>2017-03-19T14:39:41Z</time><pdop>3.0</pdop><geoidheight>0.00</geoidheight><course>257.4</course><type>1</type></trkpt>
      <trkpt lat="42.99905541" lon="-2.3942124"><ele>1268</ele><speed>6.44</speed><time>2017-03-19T14:39:42Z</time><pdop>3.0</pdop><geoidheight>0.00</geoidheight><course>253.9</course><type>1</type></trkpt>
      <trkpt lat="42.99904006" lon="-2.39429299"><ele>1268</ele><speed>6.47</speed><time>2017-03-19T14:39:43Z</time><pdop>3.0</pdop><geoidheight>0.00</geoidheight><course>253.3</course><type>1</type></trkpt>
      <trkpt lat="42.99900566" lon="-2.39443361"><ele>1268</ele><speed>6.83</speed><time>2017-03-19T14:39:45Z</time><pdop>3.0</pdop><geoidheight>0.00</geoidheight><course>256.8</course><type>1</type></trkpt>
      <trkpt lat="42.99899539" lon="-2.39451454"><ele>1268</ele><speed>6.80</speed><time>2017-03-19T14:39:46Z</time><pdop>3.0</pdop><geoidheight>0.00</geoidheight><course>258.0</course><type>1</type></trkpt>
      <trkpt lat="42.99896984" lon="-2.39466131"><ele>1266</ele><speed>6.41</speed><time>2017-03-19T14:39:48Z</time><pdop>3.0</pdop><geoidheight>0.00</geoidheight><course>261.9</course><type>1</type></trkpt>
      <trkpt lat="42.99896496" lon="-2.39474203"><ele>1265</ele><speed>6.56</speed><time>2017-03-19T14:39:49Z</time><pdop>3.0</pdop><geoidheight>0.00</geoidheight><course>268.3</course><type>1</type></trkpt>
      <trkpt lat="42.99896699" lon="-2.39482441"><ele>1265</ele><speed>6.67</speed><time>2017-03-19T14:39:50Z</time><pdop>3.0</pdop><geoidheight>0.00</geoidheight><course>271.3</course><type>1</type></trkpt>
      <trkpt lat="42.99896399" lon="-2.39496113"><ele>1264</ele><speed>5.60</speed><time>2017-03-19T14:39:52Z</time><pdop>3.0</pdop><geoidheight>0.00</geoidheight><course>260.9</course><type>1</type></trkpt>
      <trkpt lat="42.99894951" lon="-2.3951174"><ele>1262</ele><speed>6.41</speed><time>2017-03-19T14:39:54Z</time><pdop>3.0</pdop><geoidheight>0.00</geoidheight><course>264.6</course><type>1</type></trkpt>
      <trkpt lat="42.99894722" lon="-2.39520166"><ele>1260</ele><speed>6.93</speed><time>2017-03-19T14:39:55Z</time><pdop>3.0</pdop><geoidheight>0.00</geoidheight><course>272.7</course><type>1</type></trkpt>
      <trkpt lat="42.99894243" lon="-2.3952769"><ele>1256</ele><speed>6.69</speed><time>2017-03-19T14:39:56Z</time><pdop>3.0</pdop><geoidheight>0.00</geoidheight><course>276.4</course><type>1</type></trkpt>
      <trkpt lat="42.99894421" lon="-2.39535694"><ele>1255</ele><speed>6.67</speed><time>2017-03-19T14:39:57Z</time><pdop>3.0</pdop><geoidheight>0.00</geoidheight><course>275.7</course><type>1</type></trkpt>
      <trkpt lat="42.99893911" lon="-2.39544156"><ele>1254</ele><speed>6.32</speed><time>2017-03-19T14:39:58Z</time><pdop>3.0</pdop><geoidheight>0.00</geoidheight><course>268.5</course><type>1</type></trkpt>
      <trkpt lat="42.99893026" lon="-2.39559658"><ele>1253</ele><speed>6.91</speed><time>2017-03-19T14:40:00Z</time><pdop>3.0</pdop><geoidheight>0.00</geoidheight><course>261.4</course><type>1</type></trkpt>
      <trkpt lat="42.998934" lon="-2.39567561"><ele>1253</ele><speed>6.17</speed><time>2017-03-19T14:40:01Z</time><pdop>3.0</pdop><geoidheight>0.00</geoidheight><course>265.3</course><type>1</type></trkpt>
      <trkpt lat="42.99891785" lon="-2.39574917"><ele>1252</ele><speed>5.93</speed><time>2017-03-19T14:40:02Z</time><pdop>3.0</pdop><geoidheight>0.00</geoidheight><course>268.6</course><type>1</type></trkpt>
      <trkpt lat="42.99890738" lon="-2.39582292"><ele>1252</ele><speed>5.86</speed><time>2017-03-19T14:40:03Z</time><pdop>3.0</pdop><geoidheight>0.00</geoidheight><course>266.5</course><type>1</type></trkpt>
      <trkpt lat="42.99890472" lon="-2.39598519"><ele>1251</ele><speed>7.14</speed><time>2017-03-19T14:40:05Z</time><pdop>3.0</pdop><geoidheight>0.00</geoidheight><course>265.6</course><type>1</type></trkpt>
      <trkpt lat="42.99888542" lon="-2.39605872"><ele>1251</ele><speed>6.70</speed><time>2017-03-19T14:40:06Z</time><pdop>3.0</pdop><geoidheight>0.00</geoidheight><course>261.4</course><type>1</type></trkpt>
      <trkpt lat="42.99886268" lon="-2.39618074"><ele>1252</ele><speed>4.91</speed><time>2017-03-19T14:40:08Z</time><pdop>3.0</pdop><geoidheight>0.00</geoidheight><course>251.8</course><type>1</type></trkpt>
      <trkpt lat="42.99881907" lon="-2.39630992"><ele>1252</ele><speed>5.64</speed><time>2017-03-19T14:40:10Z</time><pdop>3.0</pdop><geoidheight>0.00</geoidheight><course>261.1</course><type>1</type></trkpt>
      <trkpt lat="42.99882176" lon="-2.39638864"><ele>1254</ele><speed>6.03</speed><time>2017-03-19T14:40:11Z</time><pdop>3.0</pdop><geoidheight>0.00</geoidheight><course>260.3</course><type>1</type></trkpt>
      <trkpt lat="42.99878" lon="-2.39650999"><ele>1258</ele><speed>5.75</speed><time>2017-03-19T14:40:13Z</time><pdop>3.0</pdop><geoidheight>0.00</geoidheight><course>247.6</course><type>1</type></trkpt>
      <trkpt lat="42.99873887" lon="-2.39664146"><ele>1259</ele><speed>6.05</speed><time>2017-03-19T14:40:15Z</time><pdop>5.0</pdop><geoidheight>0.00</geoidheight><course>241.9</course><type>1</type></trkpt>
      <trkpt lat="42.99875895" lon="-2.39676805"><ele>1260</ele><speed>4.88</speed><time>2017-03-19T14:40:17Z</time><pdop>3.0</pdop><geoidheight>0.00</geoidheight><course>270.0</course><type>1</type></trkpt>
      <trkpt lat="42.99876199" lon="-2.39689185"><ele>1261</ele><speed>4.51</speed><time>2017-03-19T14:40:19Z</time><pdop>3.0</pdop><geoidheight>0.00</geoidheight><course>271.1</course><type>1</type></trkpt>
      <trkpt lat="42.99876837" lon="-2.39700281"><ele>1260</ele><speed>4.51</speed><time>2017-03-19T14:40:21Z</time><pdop>3.0</pdop><geoidheight>0.00</geoidheight><course>282.0</course><type>1</type></trkpt>
      <trkpt lat="42.99879908" lon="-2.39709057"><ele>1261</ele><speed>4.47</speed><time>2017-03-19T14:40:23Z</time><pdop>4.0</pdop><geoidheight>0.00</geoidheight><course>284.6</course><type>1</type></trkpt>
      <trkpt lat="42.9988008" lon="-2.39718664"><ele>1262</ele><speed>4.03</speed><time>2017-03-19T14:40:25Z</time><pdop>3.0</pdop><geoidheight>0.00</geoidheight><course>268.4</course><type>1</type></trkpt>
      <trkpt lat="42.99880496" lon="-2.39729479"><ele>1263</ele><speed>3.89</speed><time>2017-03-19T14:40:27Z</time><pdop>3.0</pdop><geoidheight>0.00</geoidheight><course>284.3</course><type>1</type></trkpt>
      <trkpt lat="42.99883107" lon="-2.39738368"><ele>1264</ele><speed>4.42</speed><time>2017-03-19T14:40:29Z</time><pdop>4.0</pdop><geoidheight>0.00</geoidheight><course>294.4</course><type>1</type></trkpt>
      <trkpt lat="42.99888975" lon="-2.39743198"><ele>1264</ele><speed>5.56</speed><time>2017-03-19T14:40:30Z</time><pdop>3.0</pdop><geoidheight>0.00</geoidheight><course>316.0</course><type>1</type></trkpt>
      <trkpt lat="42.99894157" lon="-2.39748121"><ele>1264</ele><speed>6.18</speed><time>2017-03-19T14:40:31Z</time><pdop>3.0</pdop><geoidheight>0.00</geoidheight><course>324.6</course><type>1</type></trkpt>
      <trkpt lat="42.99899182" lon="-2.39752251"><ele>1264</ele><speed>6.01</speed><time>2017-03-19T14:40:32Z</time><pdop>3.0</pdop><geoidheight>0.00</geoidheight><course>325.7</course><type>1</type></trkpt>
      <trkpt lat="42.99906479" lon="-2.39761775"><ele>1264</ele><speed>5.91</speed><time>2017-03-19T14:40:34Z</time><pdop>5.0</pdop><geoidheight>0.00</geoidheight><course>312.6</course><type>1</type></trkpt>
      <trkpt lat="42.9990786" lon="-2.3977359"><ele>1268</ele><speed>5.07</speed><time>2017-03-19T14:40:36Z</time><pdop>4.0</pdop><geoidheight>0.00</geoidheight><course>279.1</course><type>1</type></trkpt>
      <trkpt lat="42.99908851" lon="-2.39786075"><ele>1267</ele><speed>4.35</speed><time>2017-03-19T14:40:38Z</time><pdop>3.0</pdop><geoidheight>0.00</geoidheight><course>276.9</course><type>1</type></trkpt>
      <trkpt lat="42.99910705" lon="-2.39799096"><ele>1269</ele><speed>5.02</speed><time>2017-03-19T14:40:40Z</time><pdop>3.0</pdop><geoidheight>0.00</geoidheight><course>276.4</course><type>1</type></trkpt>
      <trkpt lat="42.99912006" lon="-2.39811111"><ele>1269</ele><speed>4.60</speed><time>2017-03-19T14:40:42Z</time><pdop>3.0</pdop><geoidheight>0.00</geoidheight><course>285.1</course><type>1</type></trkpt>
      <trkpt lat="42.99913945" lon="-2.39823525"><ele>1268</ele><speed>5.75</speed><time>2017-03-19T14:40:44Z</time><pdop>3.0</pdop><geoidheight>0.00</geoidheight><course>286.3</course><type>1</type></trkpt>
      <trkpt lat="42.99915865" lon="-2.39830895"><ele>1269</ele><speed>6.28</speed><time>2017-03-19T14:40:45Z</time><pdop>3.0</pdop><geoidheight>0.00</geoidheight><course>289.2</course><type>1</type></trkpt>
      <trkpt lat="42.99917395" lon="-2.39838621"><ele>1270</ele><speed>6.44</speed><time>2017-03-19T14:40:46Z</time><pdop>3.0</pdop><geoidheight>0.00</geoidheight><course>285.4</course><type>1</type></trkpt>
      <trkpt lat="42.99918518" lon="-2.39846099"><ele>1270</ele><speed>6.51</speed><time>2017-03-19T14:40:47Z</time><pdop>3.0</pdop><geoidheight>0.00</geoidheight><course>279.2</course><type>1</type></trkpt>
      <trkpt lat="42.99918936" lon="-2.39855165"><ele>1269</ele><speed>7.13</speed><time>2017-03-19T14:40:48Z</time><pdop>3.0</pdop><geoidheight>0.00</geoidheight><course>274.2</course><type>1</type></trkpt>
      <trkpt lat="42.99918801" lon="-2.39864971"><ele>1270</ele><speed>7.30</speed><time>2017-03-19T14:40:49Z</time><pdop>3.0</pdop><geoidheight>0.00</geoidheight><course>272.3</course><type>1</type></trkpt>
      <trkpt lat="42.99918304" lon="-2.39874283"><ele>1270</ele><speed>7.60</speed><time>2017-03-19T14:40:50Z</time><pdop>3.0</pdop><geoidheight>0.00</geoidheight><course>271.6</course><type>1</type></trkpt>
      <trkpt lat="42.99917881" lon="-2.39882535"><ele>1271</ele><speed>7.08</speed><time>2017-03-19T14:40:51Z</time><pdop>3.0</pdop><geoidheight>0.00</geoidheight><course>267.8</course><type>1</type></trkpt>
      <trkpt lat="42.9991763" lon="-2.3989004"><ele>1272</ele><speed>6.74</speed><time>2017-03-19T14:40:52Z</time><pdop>3.0</pdop><geoidheight>0.00</geoidheight><course>265.8</course><type>1</type></trkpt>
      <trkpt lat="42.99917397" lon="-2.39898642"><ele>1272</ele><speed>6.86</speed><time>2017-03-19T14:40:53Z</time><pdop>3.0</pdop><geoidheight>0.00</geoidheight><course>266.6</course><type>1</type></trkpt>
      <trkpt lat="42.99916726" lon="-2.39906896"><ele>1272</ele><speed>7.03</speed><time>2017-03-19T14:40:54Z</time><pdop>3.0</pdop><geoidheight>0.00</geoidheight><course>265.6</course><type>1</type></trkpt>
      <trkpt lat="42.99915779" lon="-2.39916606"><ele>1273</ele><speed>7.73</speed><time>2017-03-19T14:40:55Z</time><pdop>3.0</pdop><geoidheight>0.00</geoidheight><course>263.3</course><type>1</type></trkpt>
      <trkpt lat="42.99914189" lon="-2.39926592"><ele>1273</ele><speed>8.15</speed><time>2017-03-19T14:40:56Z</time><pdop>3.0</pdop><geoidheight>0.00</geoidheight><course>262.2</course><type>1</type></trkpt>
      <trkpt lat="42.99913234" lon="-2.39936698"><ele>1274</ele><speed>8.06</speed><time>2017-03-19T14:40:57Z</time><pdop>3.0</pdop><geoidheight>0.00</geoidheight><course>261.0</course><type>1</type></trkpt>
      <trkpt lat="42.99911555" lon="-2.39946342"><ele>1275</ele><speed>8.13</speed><time>2017-03-19T14:40:58Z</time><pdop>4.0</pdop><geoidheight>0.00</geoidheight><course>256.7</course><type>1</type></trkpt>
      <trkpt lat="42.99909987" lon="-2.39964541"><ele>1278</ele><speed>6.78</speed><time>2017-03-19T14:41:00Z</time><pdop>4.0</pdop><geoidheight>0.00</geoidheight><course>261.5</course><type>1</type></trkpt>
      <trkpt lat="42.99908676" lon="-2.39980759"><ele>1279</ele><speed>7.36</speed><time>2017-03-19T14:41:02Z</time><pdop>3.0</pdop><geoidheight>0.00</geoidheight><course>263.3</course><type>1</type></trkpt>
      <trkpt lat="42.99908436" lon="-2.39989635"><ele>1281</ele><speed>7.51</speed><time>2017-03-19T14:41:03Z</time><pdop>3.0</pdop><geoidheight>0.00</geoidheight><course>263.2</course><type>1</type></trkpt>
      <trkpt lat="42.99907013" lon="-2.39998227"><ele>1281</ele><speed>7.22</speed><time>2017-03-19T14:41:04Z</time><pdop>3.0</pdop><geoidheight>0.00</geoidheight><course>260.4</course><type>1</type></trkpt>
      <trkpt lat="42.99906391" lon="-2.40005619"><ele>1281</ele><speed>6.26</speed><time>2017-03-19T14:41:05Z</time><pdop>3.0</pdop><geoidheight>0.00</geoidheight><course>263.5</course><type>1</type></trkpt>
      <trkpt lat="42.99903372" lon="-2.40018765"><ele>1281</ele><speed>5.63</speed><time>2017-03-19T14:41:07Z</time><pdop>6.0</pdop><geoidheight>0.00</geoidheight><course>255.3</course><type>1</type></trkpt>
      <trkpt lat="42.99916168" lon="-2.40014157"><ele>1282</ele><speed>4.16</speed><time>2017-03-19T14:41:10Z</time><pdop>5.0</pdop><geoidheight>0.00</geoidheight><course>9.2</course><type>1</type></trkpt>
      <trkpt lat="42.99918592" lon="-2.40000787"><ele>1283</ele><speed>4.56</speed><time>2017-03-19T14:41:12Z</time><pdop>4.0</pdop><geoidheight>0.00</geoidheight><course>80.6</course><type>1</type></trkpt>
      <trkpt lat="42.99913173" lon="-2.39979866"><ele>1283</ele><speed>8.57</speed><time>2017-03-19T14:41:15Z</time><pdop>5.0</pdop><geoidheight>0.00</geoidheight><course>116.8</course><type>1</type></trkpt>
      <trkpt lat="42.99903362" lon="-2.39960473"><ele>1281</ele><speed>10.12</speed><time>2017-03-19T14:41:17Z</time><pdop>4.0</pdop><geoidheight>0.00</geoidheight><course>134.9</course><type>1</type></trkpt>
      <trkpt lat="42.99895866" lon="-2.39953069"><ele>1280</ele><speed>10.20</speed><time>2017-03-19T14:41:18Z</time><pdop>4.0</pdop><geoidheight>0.00</geoidheight><course>146.0</course><type>1</type></trkpt>
      <trkpt lat="42.99887516" lon="-2.39946173"><ele>1280</ele><speed>10.75</speed><time>2017-03-19T14:41:19Z</time><pdop>4.0</pdop><geoidheight>0.00</geoidheight><course>150.6</course><type>1</type></trkpt>
      <trkpt lat="42.99879478" lon="-2.39939279"><ele>1279</ele><speed>10.66</speed><time>2017-03-19T14:41:20Z</time><pdop>4.0</pdop><geoidheight>0.00</geoidheight><course>149.3</course><type>1</type></trkpt>
      <trkpt lat="42.9987159" lon="-2.39927207"><ele>1280</ele><speed>12.39</speed><time>2017-03-19T14:41:21Z</time><pdop>4.0</pdop><geoidheight>0.00</geoidheight><course>138.5</course><type>1</type></trkpt>
      <trkpt lat="42.99864796" lon="-2.39912216"><ele>1282</ele><speed>12.34</speed><time>2017-03-19T14:41:22Z</time><pdop>4.0</pdop><geoidheight>0.00</geoidheight><course>137.0</course><type>1</type></trkpt>
      <trkpt lat="42.99864672" lon="-2.39898815"><ele>1283</ele><speed>9.66</speed><time>2017-03-19T14:41:23Z</time><pdop>3.0</pdop><geoidheight>0.00</geoidheight><course>108.9</course><type>1</type></trkpt>
      <trkpt lat="42.99864508" lon="-2.39889406"><ele>1283</ele><speed>7.86</speed><time>2017-03-19T14:41:24Z</time><pdop>3.0</pdop><geoidheight>0.00</geoidheight><course>89.6</course><type>1</type></trkpt>
      <trkpt lat="42.99866713" lon="-2.39881649"><ele>1283</ele><speed>6.70</speed><time>2017-03-19T14:41:25Z</time><pdop>3.0</pdop><geoidheight>0.00</geoidheight><course>70.5</course><type>1</type></trkpt>
      <trkpt lat="42.99872304" lon="-2.39869872"><ele>1282</ele><speed>5.45</speed><time>2017-03-19T14:41:27Z</time><pdop>4.0</pdop><geoidheight>0.00</geoidheight><course>52.8</course><type>1</type></trkpt>
      <trkpt lat="42.99882629" lon="-2.39871078"><ele>1284</ele><speed>4.45</speed><time>2017-03-19T14:41:29Z</time><pdop>4.0</pdop><geoidheight>0.00</geoidheight><course>7.2</course><type>1</type></trkpt>
      <trkpt lat="42.99891027" lon="-2.39872402"><ele>1296</ele><speed>4.79</speed><time>2017-03-19T14:41:31Z</time><pdop>4.0</pdop><geoidheight>0.00</geoidheight><course>355.3</course><type>1</type></trkpt>
      <trkpt lat="42.99898323" lon="-2.39888"><ele>1293</ele><speed>5.97</speed><time>2017-03-19T14:41:33Z</time><pdop>5.0</pdop><geoidheight>0.00</geoidheight><course>321.2</course><type>1</type></trkpt>
      <trkpt lat="42.99902875" lon="-2.39901617"><ele>1293</ele><speed>4.16</speed><time>2017-03-19T14:41:36Z</time><pdop>4.0</pdop><geoidheight>0.00</geoidheight><course>299.0</course><type>1</type></trkpt>
      <trkpt lat="42.99903603" lon="-2.3991241"><ele>1293</ele><speed>3.87</speed><time>2017-03-19T14:41:38Z</time><pdop>4.0</pdop><geoidheight>0.00</geoidheight><course>280.1</course><type>1</type></trkpt>
      <trkpt lat="42.99903251" lon="-2.3992835"><ele>1294</ele><speed>5.08</speed><time>2017-03-19T14:41:41Z</time><pdop>3.0</pdop><geoidheight>0.00</geoidheight><course>269.6</course><type>1</type></trkpt>
      <trkpt lat="42.99903974" lon="-2.39935991"><ele>1295</ele><speed>6.01</speed><time>2017-03-19T14:41:42Z</time><pdop>3.0</pdop><geoidheight>0.00</geoidheight><course>272.5</course><type>1</type></trkpt>
      <trkpt lat="42.9990424" lon="-2.39944674"><ele>1296</ele><speed>7.02</speed><time>2017-03-19T14:41:43Z</time><pdop>3.0</pdop><geoidheight>0.00</geoidheight><course>271.1</course><type>1</type></trkpt>
      <trkpt lat="42.99903182" lon="-2.39953277"><ele>1298</ele><speed>6.88</speed><time>2017-03-19T14:41:44Z</time><pdop>3.0</pdop><geoidheight>0.00</geoidheight><course>266.0</course><type>1</type></trkpt>
      <trkpt lat="42.99901991" lon="-2.39961697"><ele>1300</ele><speed>6.60</speed><time>2017-03-19T14:41:45Z</time><pdop>3.0</pdop><geoidheight>0.00</geoidheight><course>260.5</course><type>1</type></trkpt>
      <trkpt lat="42.99900127" lon="-2.39968702"><ele>1301</ele><speed>6.23</speed><time>2017-03-19T14:41:46Z</time><pdop>3.0</pdop><geoidheight>0.00</geoidheight><course>258.7</course><type>1</type></trkpt>
      <trkpt lat="42.99899053" lon="-2.39975983"><ele>1302</ele><speed>6.00</speed><time>2017-03-19T14:41:47Z</time><pdop>3.0</pdop><geoidheight>0.00</geoidheight><course>261.5</course><type>1</type></trkpt>
      <trkpt lat="42.99901951" lon="-2.39991178"><ele>1303</ele><speed>6.65</speed><time>2017-03-19T14:41:49Z</time><pdop>3.0</pdop><geoidheight>0.00</geoidheight><course>282.8</course><type>1</type></trkpt>
      <trkpt lat="42.99903653" lon="-2.39999328"><ele>1304</ele><speed>7.24</speed><time>2017-03-19T14:41:50Z</time><pdop>3.0</pdop><geoidheight>0.00</geoidheight><course>288.5</course><type>1</type></trkpt>
      <trkpt lat="42.99904575" lon="-2.40008532"><ele>1307</ele><speed>7.05</speed><time>2017-03-19T14:41:51Z</time><pdop>3.0</pdop><geoidheight>0.00</geoidheight><course>286.1</course><type>1</type></trkpt>
      <trkpt lat="42.99905386" lon="-2.40016034"><ele>1310</ele><speed>6.14</speed><time>2017-03-19T14:41:52Z</time><pdop>3.0</pdop><geoidheight>0.00</geoidheight><course>279.1</course><type>1</type></trkpt>
      <trkpt lat="42.99908217" lon="-2.4002787"><ele>1315</ele><speed>4.69</speed><time>2017-03-19T14:41:54Z</time><pdop>3.0</pdop><geoidheight>0.00</geoidheight><course>291.4</course><type>1</type></trkpt>
      <trkpt lat="42.99914571" lon="-2.40033476"><ele>1315</ele><speed>4.51</speed><time>2017-03-19T14:41:56Z</time><pdop>4.0</pdop><geoidheight>0.00</geoidheight><course>326.5</course><type>1</type></trkpt>
      <trkpt lat="42.99924945" lon="-2.400198"><ele>1319</ele><speed>5.68</speed><time>2017-03-19T14:41:59Z</time><pdop>4.0</pdop><geoidheight>0.00</geoidheight><course>50.6</course><type>1</type></trkpt>
      <trkpt lat="42.99931092" lon="-2.40007611"><ele>1322</ele><speed>5.93</speed><time>2017-03-19T14:42:01Z</time><pdop>3.0</pdop><geoidheight>0.00</geoidheight><course>57.1</course><type>1</type></trkpt>
      <trkpt lat="42.99937465" lon="-2.40000736"><ele>1323</ele><speed>4.91</speed><time>2017-03-19T14:42:03Z</time><pdop>4.0</pdop><geoidheight>0.00</geoidheight><course>35.2</course><type>1</type></trkpt>
      <trkpt lat="42.99948088" lon="-2.40005494"><ele>1324</ele><speed>4.73</speed><time>2017-03-19T14:42:05Z</time><pdop>4.0</pdop><geoidheight>0.00</geoidheight><course>338.7</course><type>1</type></trkpt>
      <trkpt lat="42.99955094" lon="-2.40016545"><ele>1327</ele><speed>5.12</speed><time>2017-03-19T14:42:07Z</time><pdop>4.0</pdop><geoidheight>0.00</geoidheight><course>310.7</course><type>1</type></trkpt>
      <trkpt lat="42.99958355" lon="-2.40024726"><ele>1329</ele><speed>5.83</speed><time>2017-03-19T14:42:08Z</time><pdop>3.0</pdop><geoidheight>0.00</geoidheight><course>300.3</course><type>1</type></trkpt>
      <trkpt lat="42.99960573" lon="-2.40035966"><ele>1329</ele><speed>7.38</speed><time>2017-03-19T14:42:09Z</time><pdop>3.0</pdop><geoidheight>0.00</geoidheight><course>283.4</course><type>1</type></trkpt>
      <trkpt lat="42.9996095" lon="-2.40047432"><ele>1331</ele><speed>9.10</speed><time>2017-03-19T14:42:10Z</time><pdop>3.0</pdop><geoidheight>0.00</geoidheight><course>272.3</course><type>1</type></trkpt>
      <trkpt lat="42.9995851" lon="-2.40058538"><ele>1332</ele><speed>9.86</speed><time>2017-03-19T14:42:11Z</time><pdop>3.0</pdop><geoidheight>0.00</geoidheight><course>256.4</course><type>1</type></trkpt>
      <trkpt lat="42.99953753" lon="-2.40068613"><ele>1333</ele><speed>10.11</speed><time>2017-03-19T14:42:12Z</time><pdop>3.0</pdop><geoidheight>0.00</geoidheight><course>240.0</course><type>1</type></trkpt>
      <trkpt lat="42.99949629" lon="-2.40077935"><ele>1334</ele><speed>9.32</speed><time>2017-03-19T14:42:13Z</time><pdop>3.0</pdop><geoidheight>0.00</geoidheight><course>242.0</course><type>1</type></trkpt>
      <trkpt lat="42.99942944" lon="-2.40087198"><ele>1335</ele><speed>10.05</speed><time>2017-03-19T14:42:14Z</time><pdop>3.0</pdop><geoidheight>0.00</geoidheight><course>230.9</course><type>1</type></trkpt>
      <trkpt lat="42.99938996" lon="-2.40098179"><ele>1336</ele><speed>9.67</speed><time>2017-03-19T14:42:15Z</time><pdop>3.0</pdop><geoidheight>0.00</geoidheight><course>243.3</course><type>1</type></trkpt>
      <trkpt lat="42.99936994" lon="-2.40108855"><ele>1336</ele><speed>9.29</speed><time>2017-03-19T14:42:16Z</time><pdop>3.0</pdop><geoidheight>0.00</geoidheight><course>256.0</course><type>1</type></trkpt>
      <trkpt lat="42.99936584" lon="-2.40120076"><ele>1336</ele><speed>8.99</speed><time>2017-03-19T14:42:17Z</time><pdop>3.0</pdop><geoidheight>0.00</geoidheight><course>261.7</course><type>1</type></trkpt>
      <trkpt lat="42.99940856" lon="-2.40131466"><ele>1338</ele><speed>8.90</speed><time>2017-03-19T14:42:18Z</time><pdop>4.0</pdop><geoidheight>0.00</geoidheight><course>279.8</course><type>1</type></trkpt>
      <trkpt lat="42.99948894" lon="-2.40138986"><ele>1348</ele><speed>5.52</speed><time>2017-03-19T14:42:20Z</time><pdop>5.0</pdop><geoidheight>0.00</geoidheight><course>311.5</course><type>1</type></trkpt>
      <trkpt lat="42.99950491" lon="-2.40124471"><ele>1341</ele><speed>4.58</speed><time>2017-03-19T14:42:22Z</time><pdop>4.0</pdop><geoidheight>0.00</geoidheight><course>63.5</course><type>1</type></trkpt>
      <trkpt lat="42.99948048" lon="-2.40107872"><ele>1336</ele><speed>7.92</speed><time>2017-03-19T14:42:24Z</time><pdop>4.0</pdop><geoidheight>0.00</geoidheight><course>104.1</course><type>1</type></trkpt>
      <trkpt lat="42.99944113" lon="-2.40098886"><ele>1335</ele><speed>9.03</speed><time>2017-03-19T14:42:25Z</time><pdop>3.0</pdop><geoidheight>0.00</geoidheight><course>123.5</course><type>1</type></trkpt>
      <trkpt lat="42.99938442" lon="-2.40091294"><ele>1334</ele><speed>9.54</speed><time>2017-03-19T14:42:26Z</time><pdop>3.0</pdop><geoidheight>0.00</geoidheight><course>137.6</course><type>1</type></trkpt>
      <trkpt lat="42.99931684" lon="-2.40084739"><ele>1334</ele><speed>9.67</speed><time>2017-03-19T14:42:27Z</time><pdop>3.0</pdop><geoidheight>0.00</geoidheight><course>147.2</course><type>1</type></trkpt>
      <trkpt lat="42.99923663" lon="-2.40078792"><ele>1333</ele><speed>9.60</speed><time>2017-03-19T14:42:28Z</time><pdop>3.0</pdop><geoidheight>0.00</geoidheight><course>152.4</course><type>1</type></trkpt>
      <trkpt lat="42.99917159" lon="-2.4007369"><ele>1334</ele><speed>9.22</speed><time>2017-03-19T14:42:29Z</time><pdop>3.0</pdop><geoidheight>0.00</geoidheight><course>152.5</course><type>1</type></trkpt>
      <trkpt lat="42.99910993" lon="-2.40067421"><ele>1335</ele><speed>8.88</speed><time>2017-03-19T14:42:30Z</time><pdop>3.0</pdop><geoidheight>0.00</geoidheight><course>147.3</course><type>1</type></trkpt>
      <trkpt lat="42.9990587" lon="-2.40060258"><ele>1335</ele><speed>8.33</speed><time>2017-03-19T14:42:31Z</time><pdop>3.0</pdop><geoidheight>0.00</geoidheight><course>139.6</course><type>1</type></trkpt>
      <trkpt lat="42.99901572" lon="-2.40051694"><ele>1335</ele><speed>8.10</speed><time>2017-03-19T14:42:32Z</time><pdop>3.0</pdop><geoidheight>0.00</geoidheight><course>129.5</course><type>1</type></trkpt>
      <trkpt lat="42.99898646" lon="-2.40041894"><ele>1335</ele><speed>8.07</speed><time>2017-03-19T14:42:33Z</time><pdop>3.0</pdop><geoidheight>0.00</geoidheight><course>117.8</course><type>1</type></trkpt>
      <trkpt lat="42.99897221" lon="-2.40032264"><ele>1334</ele><speed>7.64</speed><time>2017-03-19T14:42:34Z</time><pdop>3.0</pdop><geoidheight>0.00</geoidheight><course>102.5</course><type>1</type></trkpt>
      <trkpt lat="42.9989745" lon="-2.40023651"><ele>1335</ele><speed>7.14</speed><time>2017-03-19T14:42:35Z</time><pdop>3.0</pdop><geoidheight>0.00</geoidheight><course>87.2</course><type>1</type></trkpt>
      <trkpt lat="42.99902192" lon="-2.40013557"><ele>1335</ele><speed>4.73</speed><time>2017-03-19T14:42:37Z</time><pdop>3.0</pdop><geoidheight>0.00</geoidheight><course>46.9</course><type>1</type></trkpt>
      <trkpt lat="42.99910585" lon="-2.40006598"><ele>1335</ele><speed>4.91</speed><time>2017-03-19T14:42:39Z</time><pdop>4.0</pdop><geoidheight>0.00</geoidheight><course>28.7</course><type>1</type></trkpt>
      <trkpt lat="42.99919598" lon="-2.40006188"><ele>1335</ele><speed>4.36</speed><time>2017-03-19T14:42:41Z</time><pdop>5.0</pdop><geoidheight>0.00</geoidheight><course>7.8</course><type>1</type></trkpt>
      <trkpt lat="42.99928825" lon="-2.40009465"><ele>1333</ele><speed>4.86</speed><time>2017-03-19T14:42:43Z</time><pdop>4.0</pdop><geoidheight>0.00</geoidheight><course>341.9</course><type>1</type></trkpt>
      <trkpt lat="42.99939454" lon="-2.40015601"><ele>1332</ele><speed>5.99</speed><time>2017-03-19T14:42:45Z</time><pdop>4.0</pdop><geoidheight>0.00</geoidheight><course>347.3</course><type>1</type></trkpt>
      <trkpt lat="42.99949785" lon="-2.4002043"><ele>1330</ele><speed>5.98</speed><time>2017-03-19T14:42:47Z</time><pdop>3.0</pdop><geoidheight>0.00</geoidheight><course>336.6</course><type>1</type></trkpt>
      <trkpt lat="42.99959291" lon="-2.40029739"><ele>1331</ele><speed>6.08</speed><time>2017-03-19T14:42:49Z</time><pdop>3.0</pdop><geoidheight>0.00</geoidheight><course>323.6</course><type>1</type></trkpt>
      <trkpt lat="42.99963559" lon="-2.40038135"><ele>1329</ele><speed>7.00</speed><time>2017-03-19T14:42:50Z</time><pdop>3.0</pdop><geoidheight>0.00</geoidheight><course>306.8</course><type>1</type></trkpt>
      <trkpt lat="42.99965211" lon="-2.40046249"><ele>1329</ele><speed>8.38</speed><time>2017-03-19T14:42:51Z</time><pdop>3.0</pdop><geoidheight>0.00</geoidheight><course>283.4</course><type>1</type></trkpt>
      <trkpt lat="42.99963293" lon="-2.40058913"><ele>1329</ele><speed>9.46</speed><time>2017-03-19T14:42:52Z</time><pdop>3.0</pdop><geoidheight>0.00</geoidheight><course>257.4</course><type>1</type></trkpt>
      <trkpt lat="42.99957312" lon="-2.40069228"><ele>1329</ele><speed>10.51</speed><time>2017-03-19T14:42:53Z</time><pdop>3.0</pdop><geoidheight>0.00</geoidheight><course>233.6</course><type>1</type></trkpt>
      <trkpt lat="42.99949851" lon="-2.40077902"><ele>1328</ele><speed>10.85</speed><time>2017-03-19T14:42:54Z</time><pdop>3.0</pdop><geoidheight>0.00</geoidheight><course>220.2</course><type>1</type></trkpt>
      <trkpt lat="42.99942073" lon="-2.40085265"><ele>1328</ele><speed>10.68</speed><time>2017-03-19T14:42:55Z</time><pdop>3.0</pdop><geoidheight>0.00</geoidheight><course>215.1</course><type>1</type></trkpt>
      <trkpt lat="42.9993403" lon="-2.40092549"><ele>1328</ele><speed>10.72</speed><time>2017-03-19T14:42:56Z</time><pdop>3.0</pdop><geoidheight>0.00</geoidheight><course>212.9</course><type>1</type></trkpt>
      <trkpt lat="42.99925536" lon="-2.40100127"><ele>1328</ele><speed>11.25</speed><time>2017-03-19T14:42:57Z</time><pdop>3.0</pdop><geoidheight>0.00</geoidheight><course>212.9</course><type>1</type></trkpt>
      <trkpt lat="42.99916433" lon="-2.40107759"><ele>1328</ele><speed>12.04</speed><time>2017-03-19T14:42:58Z</time><pdop>3.0</pdop><geoidheight>0.00</geoidheight><course>213.0</course><type>1</type></trkpt>
      <trkpt lat="42.99907744" lon="-2.40116592"><ele>1329</ele><speed>11.98</speed><time>2017-03-19T14:42:59Z</time><pdop>3.0</pdop><geoidheight>0.00</geoidheight><course>216.0</course><type>1</type></trkpt>
      <trkpt lat="42.99900523" lon="-2.40125723"><ele>1330</ele><speed>11.10</speed><time>2017-03-19T14:43:00Z</time><pdop>3.0</pdop><geoidheight>0.00</geoidheight><course>223.7</course><type>1</type></trkpt>
      <trkpt lat="42.99896067" lon="-2.40136028"><ele>1330</ele><speed>9.92</speed><time>2017-03-19T14:43:01Z</time><pdop>3.0</pdop><geoidheight>0.00</geoidheight><course>237.2</course><type>1</type></trkpt>
      <trkpt lat="42.99894915" lon="-2.4014751"><ele>1332</ele><speed>9.00</speed><time>2017-03-19T14:43:02Z</time><pdop>3.0</pdop><geoidheight>0.00</geoidheight><course>252.4</course><type>1</type></trkpt>
      <trkpt lat="42.99895866" lon="-2.40155912"><ele>1334</ele><speed>7.41</speed><time>2017-03-19T14:43:03Z</time><pdop>3.0</pdop><geoidheight>0.00</geoidheight><course>270.8</course><type>1</type></trkpt>
      <trkpt lat="42.99896027" lon="-2.40167745"><ele>1332</ele><speed>4.82</speed><time>2017-03-19T14:43:05Z</time><pdop>3.0</pdop><geoidheight>0.00</geoidheight><course>288.5</course><type>1</type></trkpt>
      <trkpt lat="42.99902427" lon="-2.40171542"><ele>1332</ele><speed>3.78</speed><time>2017-03-19T14:43:07Z</time><pdop>4.0</pdop><geoidheight>0.00</geoidheight><course>338.5</course><type>1</type></trkpt>
      <trkpt lat="42.99909017" lon="-2.4016231"><ele>1331</ele><speed>5.95</speed><time>2017-03-19T14:43:09Z</time><pdop>3.0</pdop><geoidheight>0.00</geoidheight><course>44.9</course><type>1</type></trkpt>
      <trkpt lat="42.99912001" lon="-2.40153568"><ele>1331</ele><speed>6.53</speed><time>2017-03-19T14:43:10Z</time><pdop>4.0</pdop><geoidheight>0.00</geoidheight><course>57.1</course><type>1</type></trkpt>
      <trkpt lat="42.99909133" lon="-2.40135516"><ele>1331</ele><speed>7.38</speed><time>2017-03-19T14:43:12Z</time><pdop>4.0</pdop><geoidheight>0.00</geoidheight><course>100.6</course><type>1</type></trkpt>
      <trkpt lat="42.99905995" lon="-2.4012717"><ele>1331</ele><speed>7.42</speed><time>2017-03-19T14:43:13Z</time><pdop>3.0</pdop><geoidheight>0.00</geoidheight><course>112.9</course><type>1</type></trkpt>
      <trkpt lat="42.99902811" lon="-2.40119174"><ele>1332</ele><speed>7.69</speed><time>2017-03-19T14:43:14Z</time><pdop>3.0</pdop><geoidheight>0.00</geoidheight><course>121.0</course><type>1</type></trkpt>
      <trkpt lat="42.99898212" lon="-2.40110855"><ele>1332</ele><speed>8.37</speed><time>2017-03-19T14:43:15Z</time><pdop>3.0</pdop><geoidheight>0.00</geoidheight><course>126.3</course><type>1</type></trkpt>
      <trkpt lat="42.99894847" lon="-2.40102602"><ele>1332</ele><speed>8.15</speed><time>2017-03-19T14:43:16Z</time><pdop>3.0</pdop><geoidheight>0.00</geoidheight><course>121.5</course><type>1</type></trkpt>
      <trkpt lat="42.99889695" lon="-2.40092969"><ele>1331</ele><speed>9.34</speed><time>2017-03-19T14:43:17Z</time><pdop>3.0</pdop><geoidheight>0.00</geoidheight><course>126.0</course><type>1</type></trkpt>
      <trkpt lat="42.99885418" lon="-2.4008291"><ele>1331</ele><speed>9.88</speed><time>2017-03-19T14:43:18Z</time><pdop>3.0</pdop><geoidheight>0.00</geoidheight><course>123.3</course><type>1</type></trkpt>
      <trkpt lat="42.99880958" lon="-2.40072784"><ele>1332</ele><speed>10.00</speed><time>2017-03-19T14:43:19Z</time><pdop>3.0</pdop><geoidheight>0.00</geoidheight><course>121.1</course><type>1</type></trkpt>
      <trkpt lat="42.99877408" lon="-2.40060561"><ele>1331</ele><speed>9.94</speed><time>2017-03-19T14:43:20Z</time><pdop>3.0</pdop><geoidheight>0.00</geoidheight><course>121.0</course><type>1</type></trkpt>
      <trkpt lat="42.99872589" lon="-2.40051049"><ele>1332</ele><speed>9.02</speed><time>2017-03-19T14:43:21Z</time><pdop>3.0</pdop><geoidheight>0.00</geoidheight><course>123.8</course><type>1</type></trkpt>
      <trkpt lat="42.99867991" lon="-2.40041983"><ele>1332</ele><speed>8.93</speed><time>2017-03-19T14:43:22Z</time><pdop>4.0</pdop><geoidheight>0.00</geoidheight><course>125.4</course><type>1</type></trkpt>
      <trkpt lat="42.99863092" lon="-2.40032899"><ele>1331</ele><speed>9.45</speed><time>2017-03-19T14:43:23Z</time><pdop>4.0</pdop><geoidheight>0.00</geoidheight><course>126.0</course><type>1</type></trkpt>
      <trkpt lat="42.99858301" lon="-2.4002294"><ele>1331</ele><speed>10.23</speed><time>2017-03-19T14:43:24Z</time><pdop>4.0</pdop><geoidheight>0.00</geoidheight><course>124.2</course><type>1</type></trkpt>
      <trkpt lat="42.99852622" lon="-2.40008203"><ele>1330</ele><speed>12.12</speed><time>2017-03-19T14:43:25Z</time><pdop>4.0</pdop><geoidheight>0.00</geoidheight><course>119.9</course><type>1</type></trkpt>
      <trkpt lat="42.99847904" lon="-2.39996547"><ele>1331</ele><speed>11.25</speed><time>2017-03-19T14:43:26Z</time><pdop>3.0</pdop><geoidheight>0.00</geoidheight><course>119.0</course><type>1</type></trkpt>
      <trkpt lat="42.99843022" lon="-2.39986542"><ele>1331</ele><speed>9.87</speed><time>2017-03-19T14:43:27Z</time><pdop>3.0</pdop><geoidheight>0.00</geoidheight><course>120.6</course><type>1</type></trkpt>
      <trkpt lat="42.99838972" lon="-2.39977519"><ele>1331</ele><speed>8.62</speed><time>2017-03-19T14:43:28Z</time><pdop>3.0</pdop><geoidheight>0.00</geoidheight><course>122.9</course><type>1</type></trkpt>
      <trkpt lat="42.99834597" lon="-2.39970203"><ele>1331</ele><speed>7.65</speed><time>2017-03-19T14:43:29Z</time><pdop>3.0</pdop><geoidheight>0.00</geoidheight><course>124.5</course><type>1</type></trkpt>
      <trkpt lat="42.99831431" lon="-2.39962215"><ele>1328</ele><speed>7.08</speed><time>2017-03-19T14:43:30Z</time><pdop>3.0</pdop><geoidheight>0.00</geoidheight><course>117.8</course><type>1</type></trkpt>
      <trkpt lat="42.99828719" lon="-2.39952922"><ele>1326</ele><speed>8.00</speed><time>2017-03-19T14:43:31Z</time><pdop>3.0</pdop><geoidheight>0.00</geoidheight><course>107.3</course><type>1</type></trkpt>
      <trkpt lat="42.99826564" lon="-2.39940789"><ele>1323</ele><speed>9.26</speed><time>2017-03-19T14:43:32Z</time><pdop>3.0</pdop><geoidheight>0.00</geoidheight><course>104.6</course><type>1</type></trkpt>
      <trkpt lat="42.99823866" lon="-2.39929159"><ele>1322</ele><speed>9.60</speed><time>2017-03-19T14:43:33Z</time><pdop>3.0</pdop><geoidheight>0.00</geoidheight><course>109.6</course><type>1</type></trkpt>
      <trkpt lat="42.9982071" lon="-2.39919594"><ele>1323</ele><speed>9.28</speed><time>2017-03-19T14:43:34Z</time><pdop>3.0</pdop><geoidheight>0.00</geoidheight><course>112.9</course><type>1</type></trkpt>
      <trkpt lat="42.99817651" lon="-2.39910343"><ele>1324</ele><speed>8.63</speed><time>2017-03-19T14:43:35Z</time><pdop>3.0</pdop><geoidheight>0.00</geoidheight><course>112.0</course><type>1</type></trkpt>
      <trkpt lat="42.99815376" lon="-2.39900241"><ele>1325</ele><speed>8.84</speed><time>2017-03-19T14:43:36Z</time><pdop>3.0</pdop><geoidheight>0.00</geoidheight><course>109.5</course><type>1</type></trkpt>
      <trkpt lat="42.99812963" lon="-2.39889109"><ele>1325</ele><speed>9.61</speed><time>2017-03-19T14:43:37Z</time><pdop>3.0</pdop><geoidheight>0.00</geoidheight><course>107.1</course><type>1</type></trkpt>
      <trkpt lat="42.99810148" lon="-2.39877681"><ele>1326</ele><speed>10.04</speed><time>2017-03-19T14:43:38Z</time><pdop>3.0</pdop><geoidheight>0.00</geoidheight><course>107.8</course><type>1</type></trkpt>
      <trkpt lat="42.99806133" lon="-2.39866161"><ele>1327</ele><speed>9.95</speed><time>2017-03-19T14:43:39Z</time><pdop>3.0</pdop><geoidheight>0.00</geoidheight><course>109.9</course><type>1</type></trkpt>
      <trkpt lat="42.99803573" lon="-2.39854131"><ele>1327</ele><speed>9.77</speed><time>2017-03-19T14:43:40Z</time><pdop>3.0</pdop><geoidheight>0.00</geoidheight><course>113.0</course><type>1</type></trkpt>
      <trkpt lat="42.99800229" lon="-2.39844887"><ele>1328</ele><speed>9.24</speed><time>2017-03-19T14:43:41Z</time><pdop>3.0</pdop><geoidheight>0.00</geoidheight><course>116.3</course><type>1</type></trkpt>
      <trkpt lat="42.99796112" lon="-2.39834901"><ele>1329</ele><speed>9.46</speed><time>2017-03-19T14:43:42Z</time><pdop>3.0</pdop><geoidheight>0.00</geoidheight><course>119.0</course><type>1</type></trkpt>
      <trkpt lat="42.99791343" lon="-2.3982424"><ele>1330</ele><speed>10.02</speed><time>2017-03-19T14:43:43Z</time><pdop>3.0</pdop><geoidheight>0.00</geoidheight><course>121.8</course><type>1</type></trkpt>
      <trkpt lat="42.99786069" lon="-2.3981343"><ele>1331</ele><speed>10.24</speed><time>2017-03-19T14:43:44Z</time><pdop>3.0</pdop><geoidheight>0.00</geoidheight><course>122.9</course><type>1</type></trkpt>
      <trkpt lat="42.99781907" lon="-2.39802941"><ele>1331</ele><speed>9.80</speed><time>2017-03-19T14:43:45Z</time><pdop>3.0</pdop><geoidheight>0.00</geoidheight><course>117.7</course><type>1</type></trkpt>
      <trkpt lat="42.99779228" lon="-2.39792641"><ele>1332</ele><speed>8.95</speed><time>2017-03-19T14:43:46Z</time><pdop>3.0</pdop><geoidheight>0.00</geoidheight><course>104.7</course><type>1</type></trkpt>
      <trkpt lat="42.99777702" lon="-2.39782815"><ele>1332</ele><speed>8.55</speed><time>2017-03-19T14:43:47Z</time><pdop>3.0</pdop><geoidheight>0.00</geoidheight><course>96.9</course><type>1</type></trkpt>
      <trkpt lat="42.99777426" lon="-2.39775062"><ele>1332</ele><speed>6.79</speed><time>2017-03-19T14:43:48Z</time><pdop>3.0</pdop><geoidheight>0.00</geoidheight><course>91.0</course><type>1</type></trkpt>
      <trkpt lat="42.9978323" lon="-2.39771149"><ele>1332</ele><speed>5.81</speed><time>2017-03-19T14:43:49Z</time><pdop>3.0</pdop><geoidheight>0.00</geoidheight><course>52.1</course><type>1</type></trkpt>
      <trkpt lat="42.99791071" lon="-2.3977157"><ele>1332</ele><speed>2.91</speed><time>2017-03-19T14:43:51Z</time><pdop>3.0</pdop><geoidheight>0.00</geoidheight><course>9.7</course><type>1</type></trkpt>
      <trkpt lat="42.99791981" lon="-2.39780121"><ele>1335</ele><speed>3.66</speed><time>2017-03-19T14:43:52Z</time><pdop>3.0</pdop><geoidheight>0.00</geoidheight><course>287.3</course><type>1</type></trkpt>
      <trkpt lat="42.99792684" lon="-2.39787431"><ele>1338</ele><speed>4.84</speed><time>2017-03-19T14:43:53Z</time><pdop>3.0</pdop><geoidheight>0.00</geoidheight><course>271.3</course><type>1</type></trkpt>
      <trkpt lat="42.99793564" lon="-2.39801103"><ele>1337</ele><speed>4.81</speed><time>2017-03-19T14:43:55Z</time><pdop>3.0</pdop><geoidheight>0.00</geoidheight><course>269.3</course><type>1</type></trkpt>
      <trkpt lat="42.99792475" lon="-2.39812866"><ele>1339</ele><speed>4.46</speed><time>2017-03-19T14:43:57Z</time><pdop>3.0</pdop><geoidheight>0.00</geoidheight><course>255.4</course><type>1</type></trkpt>
      <trkpt lat="42.99789993" lon="-2.39824824"><ele>1340</ele><speed>5.15</speed><time>2017-03-19T14:43:59Z</time><pdop>3.0</pdop><geoidheight>0.00</geoidheight><course>256.0</course><type>1</type></trkpt>
      <trkpt lat="42.99792771" lon="-2.39835882"><ele>1341</ele><speed>4.73</speed><time>2017-03-19T14:44:01Z</time><pdop>3.0</pdop><geoidheight>0.00</geoidheight><course>290.2</course><type>1</type></trkpt>
      <trkpt lat="42.99799793" lon="-2.39831534"><ele>1342</ele><speed>3.02</speed><time>2017-03-19T14:44:04Z</time><pdop>4.0</pdop><geoidheight>0.00</geoidheight><course>38.6</course><type>1</type></trkpt>
      <trkpt lat="42.99798011" lon="-2.39817685"><ele>1340</ele><speed>6.45</speed><time>2017-03-19T14:44:06Z</time><pdop>5.0</pdop><geoidheight>0.00</geoidheight><course>96.8</course><type>1</type></trkpt>
      <trkpt lat="42.99794066" lon="-2.39802114"><ele>1340</ele><speed>10.96</speed><time>2017-03-19T14:44:07Z</time><pdop>3.0</pdop><geoidheight>0.00</geoidheight><course>108.9</course><type>1</type></trkpt>
      <trkpt lat="42.99791173" lon="-2.39786638"><ele>1342</ele><speed>10.92</speed><time>2017-03-19T14:44:08Z</time><pdop>3.0</pdop><geoidheight>0.00</geoidheight><course>110.6</course><type>1</type></trkpt>
      <trkpt lat="42.99788737" lon="-2.39774141"><ele>1344</ele><speed>10.24</speed><time>2017-03-19T14:44:09Z</time><pdop>4.0</pdop><geoidheight>0.00</geoidheight><course>111.8</course><type>1</type></trkpt>
      <trkpt lat="42.99788313" lon="-2.3976395"><ele>1344</ele><speed>9.26</speed><time>2017-03-19T14:44:10Z</time><pdop>4.0</pdop><geoidheight>0.00</geoidheight><course>101.5</course><type>1</type></trkpt>
      <trkpt lat="42.99788751" lon="-2.39749668"><ele>1342</ele><speed>10.05</speed><time>2017-03-19T14:44:11Z</time><pdop>4.0</pdop><geoidheight>0.00</geoidheight><course>97.1</course><type>1</type></trkpt>
      <trkpt lat="42.99799848" lon="-2.39735029"><ele>1344</ele><speed>6.50</speed><time>2017-03-19T14:44:14Z</time><pdop>6.0</pdop><geoidheight>0.00</geoidheight><course>52.5</course><type>1</type></trkpt>
      <trkpt lat="42.99811676" lon="-2.39743045"><ele>1343</ele><speed>4.32</speed><time>2017-03-19T14:44:16Z</time><pdop>4.0</pdop><geoidheight>0.00</geoidheight><course>335.4</course><type>1</type></trkpt>
      <trkpt lat="42.99813746" lon="-2.39753236"><ele>1346</ele><speed>5.61</speed><time>2017-03-19T14:44:18Z</time><pdop>3.0</pdop><geoidheight>0.00</geoidheight><course>281.7</course><type>1</type></trkpt>
      <trkpt lat="42.99811605" lon="-2.39761503"><ele>1347</ele><speed>7.67</speed><time>2017-03-19T14:44:19Z</time><pdop>3.0</pdop><geoidheight>0.00</geoidheight><course>254.0</course><type>1</type></trkpt>
      <trkpt lat="42.99807466" lon="-2.39770569"><ele>1347</ele><speed>9.09</speed><time>2017-03-19T14:44:20Z</time><pdop>3.0</pdop><geoidheight>0.00</geoidheight><course>240.4</course><type>1</type></trkpt>
      <trkpt lat="42.997926" lon="-2.3977736"><ele>1346</ele><speed>13.62</speed><time>2017-03-19T14:44:21Z</time><pdop>3.0</pdop><geoidheight>0.00</geoidheight><course>202.9</course><type>1</type></trkpt>
      <trkpt lat="42.99780026" lon="-2.39776918"><ele>1347</ele><speed>14.95</speed><time>2017-03-19T14:44:22Z</time><pdop>3.0</pdop><geoidheight>0.00</geoidheight><course>178.2</course><type>1</type></trkpt>
      <trkpt lat="42.99767076" lon="-2.39773073"><ele>1347</ele><speed>14.67</speed><time>2017-03-19T14:44:23Z</time><pdop>3.0</pdop><geoidheight>0.00</geoidheight><course>169.1</course><type>1</type></trkpt>
      <trkpt lat="42.99760668" lon="-2.39756012"><ele>1345</ele><speed>13.48</speed><time>2017-03-19T14:44:24Z</time><pdop>3.0</pdop><geoidheight>0.00</geoidheight><course>129.9</course><type>1</type></trkpt>
      <trkpt lat="42.9975844" lon="-2.39742728"><ele>1345</ele><speed>10.89</speed><time>2017-03-19T14:44:25Z</time><pdop>3.0</pdop><geoidheight>0.00</geoidheight><course>105.2</course><type>1</type></trkpt>
      <trkpt lat="42.99758749" lon="-2.3973254"><ele>1345</ele><speed>8.45</speed><time>2017-03-19T14:44:26Z</time><pdop>3.0</pdop><geoidheight>0.00</geoidheight><course>86.0</course><type>1</type></trkpt>
      <trkpt lat="42.99763634" lon="-2.39723052"><ele>1345</ele><speed>3.92</speed><time>2017-03-19T14:44:28Z</time><pdop>3.0</pdop><geoidheight>0.00</geoidheight><course>48.3</course><type>1</type></trkpt>
      <trkpt lat="42.9977092" lon="-2.39725295"><ele>1345</ele><speed>4.33</speed><time>2017-03-19T14:44:30Z</time><pdop>3.0</pdop><geoidheight>0.00</geoidheight><course>339.0</course><type>1</type></trkpt>
      <trkpt lat="42.99775838" lon="-2.3973267"><ele>1345</ele><speed>4.14</speed><time>2017-03-19T14:44:32Z</time><pdop>3.0</pdop><geoidheight>0.00</geoidheight><course>308.0</course><type>1</type></trkpt>
      <trkpt lat="42.99778058" lon="-2.39743538"><ele>1346</ele><speed>4.46</speed><time>2017-03-19T14:44:34Z</time><pdop>3.0</pdop><geoidheight>0.00</geoidheight><course>285.3</course><type>1</type></trkpt>
      <trkpt lat="42.99780335" lon="-2.39760874"><ele>1347</ele><speed>7.01</speed><time>2017-03-19T14:44:36Z</time><pdop>3.0</pdop><geoidheight>0.00</geoidheight><course>277.5</course><type>1</type></trkpt>
      <trkpt lat="42.9978126" lon="-2.39771782"><ele>1348</ele><speed>7.43</speed><time>2017-03-19T14:44:37Z</time><pdop>3.0</pdop><geoidheight>0.00</geoidheight><course>278.0</course><type>1</type></trkpt>
      <trkpt lat="42.99782275" lon="-2.39779309"><ele>1347</ele><speed>6.89</speed><time>2017-03-19T14:44:38Z</time><pdop>3.0</pdop><geoidheight>0.00</geoidheight><course>280.0</course><type>1</type></trkpt>
      <trkpt lat="42.99783758" lon="-2.39787256"><ele>1347</ele><speed>6.58</speed><time>2017-03-19T14:44:39Z</time><pdop>3.0</pdop><geoidheight>0.00</geoidheight><course>285.9</course><type>1</type></trkpt>
      <trkpt lat="42.99791489" lon="-2.39790131"><ele>1348</ele><speed>4.80</speed><time>2017-03-19T14:44:41Z</time><pdop>4.0</pdop><geoidheight>0.00</geoidheight><course>336.9</course><type>1</type></trkpt>
      <trkpt lat="42.99798126" lon="-2.39779948"><ele>1350</ele><speed>4.86</speed><time>2017-03-19T14:44:43Z</time><pdop>3.0</pdop><geoidheight>0.00</geoidheight><course>37.4</course><type>1</type></trkpt>
      <trkpt lat="42.99800335" lon="-2.39773224"><ele>1350</ele><speed>5.47</speed><time>2017-03-19T14:44:44Z</time><pdop>3.0</pdop><geoidheight>0.00</geoidheight><course>57.6</course><type>1</type></trkpt>
      <trkpt lat="42.99798211" lon="-2.39762567"><ele>1353</ele><speed>4.18</speed><time>2017-03-19T14:44:46Z</time><pdop>3.0</pdop><geoidheight>0.00</geoidheight><course>78.1</course><type>1</type></trkpt>
      <trkpt lat="42.99803664" lon="-2.39751554"><ele>1352</ele><speed>5.14</speed><time>2017-03-19T14:44:48Z</time><pdop>3.0</pdop><geoidheight>0.00</geoidheight><course>41.4</course><type>1</type></trkpt>
      <trkpt lat="42.99808869" lon="-2.39748217"><ele>1352</ele><speed>5.04</speed><time>2017-03-19T14:44:49Z</time><pdop>3.0</pdop><geoidheight>0.00</geoidheight><course>28.0</course><type>1</type></trkpt>
      <trkpt lat="42.99817723" lon="-2.3975222"><ele>1352</ele><speed>4.40</speed><time>2017-03-19T14:44:51Z</time><pdop>3.0</pdop><geoidheight>0.00</geoidheight><course>323.1</course><type>1</type></trkpt>
      <trkpt lat="42.99818728" lon="-2.39760435"><ele>1352</ele><speed>6.32</speed><time>2017-03-19T14:44:52Z</time><pdop>3.0</pdop><geoidheight>0.00</geoidheight><course>285.2</course><type>1</type></trkpt>
      <trkpt lat="42.99816954" lon="-2.39772036"><ele>1352</ele><speed>8.92</speed><time>2017-03-19T14:44:53Z</time><pdop>3.0</pdop><geoidheight>0.00</geoidheight><course>259.1</course><type>1</type></trkpt>
      <trkpt lat="42.99811207" lon="-2.39782829"><ele>1354</ele><speed>10.73</speed><time>2017-03-19T14:44:54Z</time><pdop>3.0</pdop><geoidheight>0.00</geoidheight><course>234.8</course><type>1</type></trkpt>
      <trkpt lat="42.99801569" lon="-2.39790333"><ele>1354</ele><speed>11.94</speed><time>2017-03-19T14:44:55Z</time><pdop>3.0</pdop><geoidheight>0.00</geoidheight><course>210.5</course><type>1</type></trkpt>
      <trkpt lat="42.99792461" lon="-2.39793844"><ele>1356</ele><speed>11.44</speed><time>2017-03-19T14:44:56Z</time><pdop>3.0</pdop><geoidheight>0.00</geoidheight><course>198.0</course><type>1</type></trkpt>
      <trkpt lat="42.99779859" lon="-2.39784778"><ele>1356</ele><speed>13.78</speed><time>2017-03-19T14:44:57Z</time><pdop>3.0</pdop><geoidheight>0.00</geoidheight><course>161.7</course><type>1</type></trkpt>
      <trkpt lat="42.99771396" lon="-2.39773352"><ele>1355</ele><speed>13.45</speed><time>2017-03-19T14:44:58Z</time><pdop>3.0</pdop><geoidheight>0.00</geoidheight><course>138.3</course><type>1</type></trkpt>
      <trkpt lat="42.99767308" lon="-2.39760289"><ele>1356</ele><speed>11.30</speed><time>2017-03-19T14:44:59Z</time><pdop>3.0</pdop><geoidheight>0.00</geoidheight><course>113.6</course><type>1</type></trkpt>
      <trkpt lat="42.99768352" lon="-2.39749166"><ele>1357</ele><speed>8.72</speed><time>2017-03-19T14:45:00Z</time><pdop>3.0</pdop><geoidheight>0.00</geoidheight><course>85.2</course><type>1</type></trkpt>
      <trkpt lat="42.99771717" lon="-2.3974244"><ele>1358</ele><speed>6.85</speed><time>2017-03-19T14:45:01Z</time><pdop>3.0</pdop><geoidheight>0.00</geoidheight><course>53.9</course><type>1</type></trkpt>
      <trkpt lat="42.99775942" lon="-2.39737676"><ele>1359</ele><speed>6.16</speed><time>2017-03-19T14:45:02Z</time><pdop>3.0</pdop><geoidheight>0.00</geoidheight><course>46.7</course><type>1</type></trkpt>
      <trkpt lat="42.99782929" lon="-2.39734852"><ele>1359</ele><speed>4.07</speed><time>2017-03-19T14:45:04Z</time><pdop>3.0</pdop><geoidheight>0.00</geoidheight><course>23.5</course><type>1</type></trkpt>
      <trkpt lat="42.99789565" lon="-2.39735021"><ele>1360</ele><speed>3.75</speed><time>2017-03-19T14:45:06Z</time><pdop>3.0</pdop><geoidheight>0.00</geoidheight><course>4.5</course><type>1</type></trkpt>
      <trkpt lat="42.99796348" lon="-2.39740898"><ele>1361</ele><speed>4.36</speed><time>2017-03-19T14:45:08Z</time><pdop>3.0</pdop><geoidheight>0.00</geoidheight><course>323.2</course><type>1</type></trkpt>
      <trkpt lat="42.99799913" lon="-2.39752866"><ele>1361</ele><speed>5.28</speed><time>2017-03-19T14:45:10Z</time><pdop>3.0</pdop><geoidheight>0.00</geoidheight><course>287.7</course><type>1</type></trkpt>
      <trkpt lat="42.99800689" lon="-2.39760409"><ele>1360</ele><speed>5.75</speed><time>2017-03-19T14:45:11Z</time><pdop>3.0</pdop><geoidheight>0.00</geoidheight><course>276.1</course><type>1</type></trkpt>
      <trkpt lat="42.99799161" lon="-2.39774935"><ele>1361</ele><speed>6.19</speed><time>2017-03-19T14:45:13Z</time><pdop>3.0</pdop><geoidheight>0.00</geoidheight><course>257.9</course><type>1</type></trkpt>
      <trkpt lat="42.99797371" lon="-2.39782685"><ele>1362</ele><speed>6.71</speed><time>2017-03-19T14:45:14Z</time><pdop>3.0</pdop><geoidheight>0.00</geoidheight><course>254.5</course><type>1</type></trkpt>
      <trkpt lat="42.99794975" lon="-2.39790706"><ele>1361</ele><speed>6.88</speed><time>2017-03-19T14:45:15Z</time><pdop>3.0</pdop><geoidheight>0.00</geoidheight><course>250.2</course><type>1</type></trkpt>
      <trkpt lat="42.99791887" lon="-2.39798331"><ele>1361</ele><speed>6.77</speed><time>2017-03-19T14:45:16Z</time><pdop>3.0</pdop><geoidheight>0.00</geoidheight><course>243.4</course><type>1</type></trkpt>
      <trkpt lat="42.99792408" lon="-2.39806395"><ele>1360</ele><speed>6.40</speed><time>2017-03-19T14:45:17Z</time><pdop>3.0</pdop><geoidheight>0.00</geoidheight><course>264.7</course><type>1</type></trkpt>
      <trkpt lat="42.99793442" lon="-2.39819134"><ele>1358</ele><speed>5.29</speed><time>2017-03-19T14:45:19Z</time><pdop>3.0</pdop><geoidheight>0.00</geoidheight><course>282.4</course><type>1</type></trkpt>
      <trkpt lat="42.99795876" lon="-2.39832756"><ele>1355</ele><speed>5.61</speed><time>2017-03-19T14:45:21Z</time><pdop>3.0</pdop><geoidheight>0.00</geoidheight><course>280.8</course><type>1</type></trkpt>
      <trkpt lat="42.99797623" lon="-2.39845126"><ele>1352</ele><speed>4.90</speed><time>2017-03-19T14:45:23Z</time><pdop>3.0</pdop><geoidheight>0.00</geoidheight><course>285.5</course><type>1</type></trkpt>
      <trkpt lat="42.9980073" lon="-2.39855129"><ele>1350</ele><speed>4.51</speed><time>2017-03-19T14:45:25Z</time><pdop>3.0</pdop><geoidheight>0.00</geoidheight><course>289.2</course><type>1</type></trkpt>
      <trkpt lat="42.99803797" lon="-2.3986528"><ele>1350</ele><speed>4.87</speed><time>2017-03-19T14:45:27Z</time><pdop>3.0</pdop><geoidheight>0.00</geoidheight><course>293.8</course><type>1</type></trkpt>
      <trkpt lat="42.99809312" lon="-2.39875173"><ele>1350</ele><speed>5.11</speed><time>2017-03-19T14:45:29Z</time><pdop>3.0</pdop><geoidheight>0.00</geoidheight><course>305.5</course><type>1</type></trkpt>
      <trkpt lat="42.99813565" lon="-2.39884204"><ele>1350</ele><speed>4.31</speed><time>2017-03-19T14:45:31Z</time><pdop>3.0</pdop><geoidheight>0.00</geoidheight><course>299.5</course><type>1</type></trkpt>
      <trkpt lat="42.99818369" lon="-2.39894552"><ele>1348</ele><speed>5.24</speed><time>2017-03-19T14:45:33Z</time><pdop>3.0</pdop><geoidheight>0.00</geoidheight><course>301.0</course><type>1</type></trkpt>
      <trkpt lat="42.99823447" lon="-2.39906525"><ele>1349</ele><speed>5.28</speed><time>2017-03-19T14:45:35Z</time><pdop>3.0</pdop><geoidheight>0.00</geoidheight><course>300.6</course><type>1</type></trkpt>
      <trkpt lat="42.9982743" lon="-2.39916877"><ele>1350</ele><speed>4.58</speed><time>2017-03-19T14:45:37Z</time><pdop>3.0</pdop><geoidheight>0.00</geoidheight><course>296.0</course><type>1</type></trkpt>
      <trkpt lat="42.99831387" lon="-2.39928266"><ele>1352</ele><speed>4.93</speed><time>2017-03-19T14:45:39Z</time><pdop>3.0</pdop><geoidheight>0.00</geoidheight><course>293.4</course><type>1</type></trkpt>
      <trkpt lat="42.9983556" lon="-2.39938614"><ele>1353</ele><speed>4.83</speed><time>2017-03-19T14:45:41Z</time><pdop>3.0</pdop><geoidheight>0.00</geoidheight><course>299.1</course><type>1</type></trkpt>
      <trkpt lat="42.99840367" lon="-2.39949654"><ele>1355</ele><speed>5.11</speed><time>2017-03-19T14:45:43Z</time><pdop>3.0</pdop><geoidheight>0.00</geoidheight><course>300.9</course><type>1</type></trkpt>
      <trkpt lat="42.99844098" lon="-2.39960819"><ele>1356</ele><speed>5.10</speed><time>2017-03-19T14:45:45Z</time><pdop>3.0</pdop><geoidheight>0.00</geoidheight><course>290.9</course><type>1</type></trkpt>
      <trkpt lat="42.99847795" lon="-2.39972213"><ele>1360</ele><speed>4.75</speed><time>2017-03-19T14:45:47Z</time><pdop>3.0</pdop><geoidheight>0.00</geoidheight><course>289.5</course><type>1</type></trkpt>
      <trkpt lat="42.99851616" lon="-2.39980257"><ele>1361</ele><speed>3.59</speed><time>2017-03-19T14:45:49Z</time><pdop>3.0</pdop><geoidheight>0.00</geoidheight><course>311.9</course><type>1</type></trkpt>
      <trkpt lat="42.99857532" lon="-2.39978793"><ele>1362</ele><speed>3.81</speed><time>2017-03-19T14:45:51Z</time><pdop>3.0</pdop><geoidheight>0.00</geoidheight><course>15.7</course><type>1</type></trkpt>
      <trkpt lat="42.99858234" lon="-2.39970391"><ele>1362</ele><speed>5.74</speed><time>2017-03-19T14:45:52Z</time><pdop>3.0</pdop><geoidheight>0.00</geoidheight><course>67.5</course><type>1</type></trkpt>
      <trkpt lat="42.99859452" lon="-2.39962033"><ele>1362</ele><speed>6.82</speed><time>2017-03-19T14:45:53Z</time><pdop>3.0</pdop><geoidheight>0.00</geoidheight><course>80.1</course><type>1</type></trkpt>
      <trkpt lat="42.99854465" lon="-2.39949559"><ele>1363</ele><speed>9.62</speed><time>2017-03-19T14:45:54Z</time><pdop>3.0</pdop><geoidheight>0.00</geoidheight><course>108.8</course><type>1</type></trkpt>
      <trkpt lat="42.99850259" lon="-2.39938419"><ele>1363</ele><speed>10.45</speed><time>2017-03-19T14:45:55Z</time><pdop>3.0</pdop><geoidheight>0.00</geoidheight><course>116.9</course><type>1</type></trkpt>
      <trkpt lat="42.9984538" lon="-2.39927624"><ele>1363</ele><speed>10.12</speed><time>2017-03-19T14:45:56Z</time><pdop>3.0</pdop><geoidheight>0.00</geoidheight><course>122.7</course><type>1</type></trkpt>
      <trkpt lat="42.99841383" lon="-2.3991907"><ele>1363</ele><speed>8.38</speed><time>2017-03-19T14:45:57Z</time><pdop>3.0</pdop><geoidheight>0.00</geoidheight><course>118.3</course><type>1</type></trkpt>
      <trkpt lat="42.99840434" lon="-2.39910165"><ele>1362</ele><speed>7.20</speed><time>2017-03-19T14:45:58Z</time><pdop>3.0</pdop><geoidheight>0.00</geoidheight><course>98.6</course><type>1</type></trkpt>
      <trkpt lat="42.99840091" lon="-2.39901906"><ele>1361</ele><speed>6.88</speed><time>2017-03-19T14:45:59Z</time><pdop>3.0</pdop><geoidheight>0.00</geoidheight><course>91.3</course><type>1</type></trkpt>
      <trkpt lat="42.99845435" lon="-2.39889796"><ele>1361</ele><speed>5.35</speed><time>2017-03-19T14:46:01Z</time><pdop>4.0</pdop><geoidheight>0.00</geoidheight><course>65.0</course><type>1</type></trkpt>
      <trkpt lat="42.99852533" lon="-2.39891503"><ele>1362</ele><speed>3.02</speed><time>2017-03-19T14:46:03Z</time><pdop>4.0</pdop><geoidheight>0.00</geoidheight><course>24.6</course><type>1</type></trkpt>
      <trkpt lat="42.9986134" lon="-2.39896258"><ele>1364</ele><speed>3.53</speed><time>2017-03-19T14:46:06Z</time><pdop>3.0</pdop><geoidheight>0.00</geoidheight><course>339.9</course><type>1</type></trkpt>
      <trkpt lat="42.99867409" lon="-2.39906188"><ele>1364</ele><speed>5.05</speed><time>2017-03-19T14:46:08Z</time><pdop>3.0</pdop><geoidheight>0.00</geoidheight><course>302.9</course><type>1</type></trkpt>
      <trkpt lat="42.99870668" lon="-2.39920089"><ele>1366</ele><speed>6.63</speed><time>2017-03-19T14:46:10Z</time><pdop>3.0</pdop><geoidheight>0.00</geoidheight><course>285.5</course><type>1</type></trkpt>
      <trkpt lat="42.99872202" lon="-2.39928039"><ele>1367</ele><speed>6.74</speed><time>2017-03-19T14:46:11Z</time><pdop>3.0</pdop><geoidheight>0.00</geoidheight><course>282.2</course><type>1</type></trkpt>
      <trkpt lat="42.99872439" lon="-2.399431"><ele>1369</ele><speed>6.29</speed><time>2017-03-19T14:46:13Z</time><pdop>3.0</pdop><geoidheight>0.00</geoidheight><course>267.9</course><type>1</type></trkpt>
      <trkpt lat="42.99871604" lon="-2.39951191"><ele>1370</ele><speed>6.08</speed><time>2017-03-19T14:46:14Z</time><pdop>3.0</pdop><geoidheight>0.00</geoidheight><course>261.1</course><type>1</type></trkpt>
      <trkpt lat="42.99870415" lon="-2.39958729"><ele>1370</ele><speed>6.36</speed><time>2017-03-19T14:46:15Z</time><pdop>3.0</pdop><geoidheight>0.00</geoidheight><course>261.5</course><type>1</type></trkpt>
      <trkpt lat="42.9987043" lon="-2.39967399"><ele>1370</ele><speed>6.83</speed><time>2017-03-19T14:46:16Z</time><pdop>3.0</pdop><geoidheight>0.00</geoidheight><course>270.5</course><type>1</type></trkpt>
      <trkpt lat="42.99871478" lon="-2.39976373"><ele>1369</ele><speed>7.21</speed><time>2017-03-19T14:46:17Z</time><pdop>3.0</pdop><geoidheight>0.00</geoidheight><course>278.8</course><type>1</type></trkpt>
      <trkpt lat="42.9987241" lon="-2.39984396"><ele>1371</ele><speed>6.83</speed><time>2017-03-19T14:46:18Z</time><pdop>3.0</pdop><geoidheight>0.00</geoidheight><course>280.0</course><type>1</type></trkpt>
      <trkpt lat="42.99873141" lon="-2.39992059"><ele>1372</ele><speed>6.21</speed><time>2017-03-19T14:46:19Z</time><pdop>3.0</pdop><geoidheight>0.00</geoidheight><course>273.5</course><type>1</type></trkpt>
      <trkpt lat="42.99872332" lon="-2.40004662"><ele>1375</ele><speed>5.54</speed><time>2017-03-19T14:46:21Z</time><pdop>3.0</pdop><geoidheight>0.00</geoidheight><course>260.9</course><type>1</type></trkpt>
      <trkpt lat="42.99873745" lon="-2.40014469"><ele>1376</ele><speed>4.02</speed><time>2017-03-19T14:46:23Z</time><pdop>3.0</pdop><geoidheight>0.00</geoidheight><course>294.8</course><type>1</type></trkpt>
      <trkpt lat="42.99882518" lon="-2.40011211"><ele>1376</ele><speed>6.02</speed><time>2017-03-19T14:46:25Z</time><pdop>3.0</pdop><geoidheight>0.00</geoidheight><course>24.2</course><type>1</type></trkpt>
      <trkpt lat="42.99886464" lon="-2.39995151"><ele>1379</ele><speed>7.97</speed><time>2017-03-19T14:46:27Z</time><pdop>3.0</pdop><geoidheight>0.00</geoidheight><course>85.5</course><type>1</type></trkpt>
      <trkpt lat="42.99883576" lon="-2.39985196"><ele>1379</ele><speed>8.70</speed><time>2017-03-19T14:46:28Z</time><pdop>3.0</pdop><geoidheight>0.00</geoidheight><course>107.6</course><type>1</type></trkpt>
      <trkpt lat="42.99879292" lon="-2.39975884"><ele>1380</ele><speed>9.59</speed><time>2017-03-19T14:46:29Z</time><pdop>3.0</pdop><geoidheight>0.00</geoidheight><course>122.0</course><type>1</type></trkpt>
      <trkpt lat="42.99874045" lon="-2.39965992"><ele>1380</ele><speed>9.77</speed><time>2017-03-19T14:46:30Z</time><pdop>3.0</pdop><geoidheight>0.00</geoidheight><course>126.1</course><type>1</type></trkpt>
      <trkpt lat="42.99869249" lon="-2.3995538"><ele>1380</ele><speed>9.38</speed><time>2017-03-19T14:46:31Z</time><pdop>3.0</pdop><geoidheight>0.00</geoidheight><course>122.3</course><type>1</type></trkpt>
      <trkpt lat="42.99866023" lon="-2.39945872"><ele>1380</ele><speed>8.36</speed><time>2017-03-19T14:46:32Z</time><pdop>3.0</pdop><geoidheight>0.00</geoidheight><course>113.6</course><type>1</type></trkpt>
      <trkpt lat="42.99865197" lon="-2.39936518"><ele>1379</ele><speed>7.20</speed><time>2017-03-19T14:46:33Z</time><pdop>3.0</pdop><geoidheight>0.00</geoidheight><course>97.3</course><type>1</type></trkpt>
      <trkpt lat="42.99866293" lon="-2.39929141"><ele>1379</ele><speed>6.37</speed><time>2017-03-19T14:46:34Z</time><pdop>3.0</pdop><geoidheight>0.00</geoidheight><course>78.3</course><type>1</type></trkpt>
      <trkpt lat="42.99872218" lon="-2.39919937"><ele>1379</ele><speed>4.49</speed><time>2017-03-19T14:46:36Z</time><pdop>3.0</pdop><geoidheight>0.00</geoidheight><course>41.4</course><type>1</type></trkpt>
      <trkpt lat="42.99880494" lon="-2.39922928"><ele>1381</ele><speed>3.99</speed><time>2017-03-19T14:46:38Z</time><pdop>3.0</pdop><geoidheight>0.00</geoidheight><course>348.7</course><type>1</type></trkpt>
      <trkpt lat="42.99889145" lon="-2.39932351"><ele>1382</ele><speed>4.71</speed><time>2017-03-19T14:46:40Z</time><pdop>3.0</pdop><geoidheight>0.00</geoidheight><course>324.4</course><type>1</type></trkpt>
      <trkpt lat="42.99895505" lon="-2.39944855"><ele>1382</ele><speed>6.17</speed><time>2017-03-19T14:46:42Z</time><pdop>3.0</pdop><geoidheight>0.00</geoidheight><course>298.8</course><type>1</type></trkpt>
      <trkpt lat="42.99897539" lon="-2.39954093"><ele>1382</ele><speed>7.84</speed><time>2017-03-19T14:46:43Z</time><pdop>3.0</pdop><geoidheight>0.00</geoidheight><course>281.9</course><type>1</type></trkpt>
      <trkpt lat="42.99896738" lon="-2.39966272"><ele>1381</ele><speed>9.32</speed><time>2017-03-19T14:46:44Z</time><pdop>3.0</pdop><geoidheight>0.00</geoidheight><course>264.8</course><type>1</type></trkpt>
      <trkpt lat="42.99892422" lon="-2.39976274"><ele>1382</ele><speed>10.06</speed><time>2017-03-19T14:46:45Z</time><pdop>3.0</pdop><geoidheight>0.00</geoidheight><course>240.6</course><type>1</type></trkpt>
      <trkpt lat="42.99883461" lon="-2.39984106"><ele>1381</ele><speed>11.37</speed><time>2017-03-19T14:46:46Z</time><pdop>3.0</pdop><geoidheight>0.00</geoidheight><course>214.7</course><type>1</type></trkpt>
      <trkpt lat="42.99872795" lon="-2.39987168"><ele>1380</ele><speed>12.41</speed><time>2017-03-19T14:46:47Z</time><pdop>3.0</pdop><geoidheight>0.00</geoidheight><course>197.2</course><type>1</type></trkpt>
      <trkpt lat="42.99861413" lon="-2.39988475"><ele>1380</ele><speed>12.69</speed><time>2017-03-19T14:46:48Z</time><pdop>3.0</pdop><geoidheight>0.00</geoidheight><course>185.5</course><type>1</type></trkpt>
      <trkpt lat="42.99850945" lon="-2.39986972"><ele>1380</ele><speed>12.01</speed><time>2017-03-19T14:46:49Z</time><pdop>3.0</pdop><geoidheight>0.00</geoidheight><course>176.2</course><type>1</type></trkpt>
      <trkpt lat="42.99840387" lon="-2.39982907"><ele>1378</ele><speed>11.49</speed><time>2017-03-19T14:46:50Z</time><pdop>3.0</pdop><geoidheight>0.00</geoidheight><course>165.6</course><type>1</type></trkpt>
      <trkpt lat="42.99832129" lon="-2.39975875"><ele>1377</ele><speed>11.01</speed><time>2017-03-19T14:46:51Z</time><pdop>3.0</pdop><geoidheight>0.00</geoidheight><course>150.1</course><type>1</type></trkpt>
      <trkpt lat="42.99825264" lon="-2.39966147"><ele>1375</ele><speed>10.69</speed><time>2017-03-19T14:46:52Z</time><pdop>3.0</pdop><geoidheight>0.00</geoidheight><course>135.2</course><type>1</type></trkpt>
      <trkpt lat="42.99820052" lon="-2.39955677"><ele>1375</ele><speed>10.23</speed><time>2017-03-19T14:46:53Z</time><pdop>3.0</pdop><geoidheight>0.00</geoidheight><course>124.6</course><type>1</type></trkpt>
      <trkpt lat="42.99815928" lon="-2.39945815"><ele>1375</ele><speed>9.39</speed><time>2017-03-19T14:46:54Z</time><pdop>3.0</pdop><geoidheight>0.00</geoidheight><course>119.3</course><type>1</type></trkpt>
      <trkpt lat="42.99812635" lon="-2.3993653"><ele>1376</ele><speed>8.77</speed><time>2017-03-19T14:46:55Z</time><pdop>3.0</pdop><geoidheight>0.00</geoidheight><course>116.5</course><type>1</type></trkpt>
      <trkpt lat="42.99809188" lon="-2.39926095"><ele>1375</ele><speed>8.92</speed><time>2017-03-19T14:46:56Z</time><pdop>3.0</pdop><geoidheight>0.00</geoidheight><course>115.8</course><type>1</type></trkpt>
      <trkpt lat="42.99805539" lon="-2.39916148"><ele>1375</ele><speed>9.09</speed><time>2017-03-19T14:46:57Z</time><pdop>3.0</pdop><geoidheight>0.00</geoidheight><course>116.2</course><type>1</type></trkpt>
      <trkpt lat="42.99801795" lon="-2.39906009"><ele>1375</ele><speed>9.42</speed><time>2017-03-19T14:46:58Z</time><pdop>3.0</pdop><geoidheight>0.00</geoidheight><course>116.5</course><type>1</type></trkpt>
      <trkpt lat="42.99797719" lon="-2.39895626"><ele>1375</ele><speed>9.60</speed><time>2017-03-19T14:46:59Z</time><pdop>3.0</pdop><geoidheight>0.00</geoidheight><course>117.8</course><type>1</type></trkpt>
      <trkpt lat="42.99793263" lon="-2.39884708"><ele>1374</ele><speed>9.77</speed><time>2017-03-19T14:47:00Z</time><pdop>3.0</pdop><geoidheight>0.00</geoidheight><course>118.3</course><type>1</type></trkpt>
      <trkpt lat="42.99788656" lon="-2.39873413"><ele>1374</ele><speed>9.82</speed><time>2017-03-19T14:47:01Z</time><pdop>3.0</pdop><geoidheight>0.00</geoidheight><course>116.8</course><type>1</type></trkpt>
      <trkpt lat="42.99783846" lon="-2.39862023"><ele>1374</ele><speed>9.74</speed><time>2017-03-19T14:47:02Z</time><pdop>3.0</pdop><geoidheight>0.00</geoidheight><course>116.4</course><type>1</type></trkpt>
      <trkpt lat="42.99779648" lon="-2.39851448"><ele>1375</ele><speed>9.60</speed><time>2017-03-19T14:47:03Z</time><pdop>3.0</pdop><geoidheight>0.00</geoidheight><course>117.7</course><type>1</type></trkpt>
      <trkpt lat="42.99775518" lon="-2.39841242"><ele>1375</ele><speed>9.63</speed><time>2017-03-19T14:47:04Z</time><pdop>3.0</pdop><geoidheight>0.00</geoidheight><course>119.6</course><type>1</type></trkpt>
      <trkpt lat="42.99771218" lon="-2.3983068"><ele>1375</ele><speed>10.03</speed><time>2017-03-19T14:47:05Z</time><pdop>3.0</pdop><geoidheight>0.00</geoidheight><course>120.8</course><type>1</type></trkpt>
      <trkpt lat="42.99766247" lon="-2.39819747"><ele>1374</ele><speed>10.50</speed><time>2017-03-19T14:47:06Z</time><pdop>3.0</pdop><geoidheight>0.00</geoidheight><course>121.5</course><type>1</type></trkpt>
      <trkpt lat="42.99761323" lon="-2.39808803"><ele>1374</ele><speed>10.95</speed><time>2017-03-19T14:47:07Z</time><pdop>3.0</pdop><geoidheight>0.00</geoidheight><course>122.5</course><type>1</type></trkpt>
      <trkpt lat="42.99755945" lon="-2.39797248"><ele>1374</ele><speed>10.92</speed><time>2017-03-19T14:47:08Z</time><pdop>3.0</pdop><geoidheight>0.00</geoidheight><course>123.1</course><type>1</type></trkpt>
      <trkpt lat="42.99750605" lon="-2.39786554"><ele>1374</ele><speed>10.41</speed><time>2017-03-19T14:47:09Z</time><pdop>3.0</pdop><geoidheight>0.00</geoidheight><course>123.3</course><type>1</type></trkpt>
      <trkpt lat="42.99745135" lon="-2.39775972"><ele>1374</ele><speed>10.20</speed><time>2017-03-19T14:47:10Z</time><pdop>3.0</pdop><geoidheight>0.00</geoidheight><course>124.8</course><type>1</type></trkpt>
      <trkpt lat="42.99739921" lon="-2.39765909"><ele>1373</ele><speed>10.60</speed><time>2017-03-19T14:47:11Z</time><pdop>3.0</pdop><geoidheight>0.00</geoidheight><course>125.8</course><type>1</type></trkpt>
      <trkpt lat="42.99734748" lon="-2.39755945"><ele>1373</ele><speed>10.81</speed><time>2017-03-19T14:47:12Z</time><pdop>3.0</pdop><geoidheight>0.00</geoidheight><course>126.1</course><type>1</type></trkpt>
      <trkpt lat="42.99729497" lon="-2.39744693"><ele>1373</ele><speed>10.81</speed><time>2017-03-19T14:47:13Z</time><pdop>3.0</pdop><geoidheight>0.00</geoidheight><course>125.3</course><type>1</type></trkpt>
      <trkpt lat="42.99724078" lon="-2.39733628"><ele>1373</ele><speed>10.63</speed><time>2017-03-19T14:47:14Z</time><pdop>3.0</pdop><geoidheight>0.00</geoidheight><course>125.1</course><type>1</type></trkpt>
      <trkpt lat="42.99718533" lon="-2.39723157"><ele>1373</ele><speed>10.64</speed><time>2017-03-19T14:47:15Z</time><pdop>3.0</pdop><geoidheight>0.00</geoidheight><course>125.9</course><type>1</type></trkpt>
      <trkpt lat="42.9971284" lon="-2.39712772"><ele>1373</ele><speed>10.73</speed><time>2017-03-19T14:47:16Z</time><pdop>3.0</pdop><geoidheight>0.00</geoidheight><course>127.1</course><type>1</type></trkpt>
      <trkpt lat="42.99706466" lon="-2.39701842"><ele>1373</ele><speed>10.86</speed><time>2017-03-19T14:47:17Z</time><pdop>3.0</pdop><geoidheight>0.00</geoidheight><course>127.6</course><type>1</type></trkpt>
      <trkpt lat="42.99700767" lon="-2.39691395"><ele>1372</ele><speed>10.93</speed><time>2017-03-19T14:47:18Z</time><pdop>3.0</pdop><geoidheight>0.00</geoidheight><course>126.8</course><type>1</type></trkpt>
      <trkpt lat="42.99695258" lon="-2.3968072"><ele>1372</ele><speed>11.11</speed><time>2017-03-19T14:47:19Z</time><pdop>3.0</pdop><geoidheight>0.00</geoidheight><course>126.4</course><type>1</type></trkpt>
      <trkpt lat="42.99689266" lon="-2.3966961"><ele>1371</ele><speed>11.21</speed><time>2017-03-19T14:47:20Z</time><pdop>3.0</pdop><geoidheight>0.00</geoidheight><course>126.1</course><type>1</type></trkpt>
      <trkpt lat="42.99682929" lon="-2.3965838"><ele>1371</ele><speed>11.29</speed><time>2017-03-19T14:47:21Z</time><pdop>3.0</pdop><geoidheight>0.00</geoidheight><course>126.4</course><type>1</type></trkpt>
      <trkpt lat="42.99677033" lon="-2.39648155"><ele>1370</ele><speed>10.86</speed><time>2017-03-19T14:47:22Z</time><pdop>3.0</pdop><geoidheight>0.00</geoidheight><course>125.4</course><type>1</type></trkpt>
      <trkpt lat="42.99671742" lon="-2.39637495"><ele>1371</ele><speed>10.76</speed><time>2017-03-19T14:47:23Z</time><pdop>3.0</pdop><geoidheight>0.00</geoidheight><course>123.3</course><type>1</type></trkpt>
      <trkpt lat="42.99666487" lon="-2.39625158"><ele>1371</ele><speed>11.23</speed><time>2017-03-19T14:47:24Z</time><pdop>3.0</pdop><geoidheight>0.00</geoidheight><course>122.2</course><type>1</type></trkpt>
      <trkpt lat="42.99661253" lon="-2.39613238"><ele>1371</ele><speed>11.34</speed><time>2017-03-19T14:47:25Z</time><pdop>3.0</pdop><geoidheight>0.00</geoidheight><course>120.3</course><type>1</type></trkpt>
      <trkpt lat="42.99656554" lon="-2.39600914"><ele>1372</ele><speed>11.13</speed><time>2017-03-19T14:47:26Z</time><pdop>3.0</pdop><geoidheight>0.00</geoidheight><course>118.7</course><type>1</type></trkpt>
      <trkpt lat="42.99651813" lon="-2.39589604"><ele>1373</ele><speed>10.73</speed><time>2017-03-19T14:47:27Z</time><pdop>3.0</pdop><geoidheight>0.00</geoidheight><course>120.1</course><type>1</type></trkpt>
      <trkpt lat="42.99646587" lon="-2.39578667"><ele>1374</ele><speed>10.75</speed><time>2017-03-19T14:47:28Z</time><pdop>3.0</pdop><geoidheight>0.00</geoidheight><course>122.3</course><type>1</type></trkpt>
      <trkpt lat="42.99641715" lon="-2.39568157"><ele>1375</ele><speed>10.20</speed><time>2017-03-19T14:47:29Z</time><pdop>3.0</pdop><geoidheight>0.00</geoidheight><course>123.4</course><type>1</type></trkpt>
      <trkpt lat="42.99637882" lon="-2.39557686"><ele>1377</ele><speed>9.74</speed><time>2017-03-19T14:47:30Z</time><pdop>3.0</pdop><geoidheight>0.00</geoidheight><course>121.5</course><type>1</type></trkpt>
      <trkpt lat="42.99634789" lon="-2.39547778"><ele>1379</ele><speed>8.59</speed><time>2017-03-19T14:47:31Z</time><pdop>3.0</pdop><geoidheight>0.00</geoidheight><course>109.9</course><type>1</type></trkpt>
      <trkpt lat="42.99634298" lon="-2.39539183"><ele>1380</ele><speed>7.41</speed><time>2017-03-19T14:47:32Z</time><pdop>3.0</pdop><geoidheight>0.00</geoidheight><course>93.7</course><type>1</type></trkpt>
      <trkpt lat="42.99635429" lon="-2.39531889"><ele>1381</ele><speed>6.03</speed><time>2017-03-19T14:47:33Z</time><pdop>3.0</pdop><geoidheight>0.00</geoidheight><course>77.3</course><type>1</type></trkpt>
      <trkpt lat="42.99638436" lon="-2.39523332"><ele>1383</ele><speed>4.18</speed><time>2017-03-19T14:47:35Z</time><pdop>3.0</pdop><geoidheight>0.00</geoidheight><course>47.8</course><type>1</type></trkpt>
      <trkpt lat="42.9964574" lon="-2.39519659"><ele>1385</ele><speed>4.12</speed><time>2017-03-19T14:47:37Z</time><pdop>3.0</pdop><geoidheight>0.00</geoidheight><course>15.5</course><type>1</type></trkpt>
      <trkpt lat="42.99651924" lon="-2.39520497"><ele>1389</ele><speed>3.23</speed><time>2017-03-19T14:47:39Z</time><pdop>3.0</pdop><geoidheight>0.00</geoidheight><course>356.4</course><type>1</type></trkpt>
      <trkpt lat="42.99657046" lon="-2.39526616"><ele>1390</ele><speed>3.78</speed><time>2017-03-19T14:47:41Z</time><pdop>3.0</pdop><geoidheight>0.00</geoidheight><course>313.5</course><type>1</type></trkpt>
      <trkpt lat="42.99660032" lon="-2.39538197"><ele>1392</ele><speed>5.33</speed><time>2017-03-19T14:47:43Z</time><pdop>3.0</pdop><geoidheight>0.00</geoidheight><course>283.9</course><type>1</type></trkpt>
      <trkpt lat="42.99659981" lon="-2.3954625"><ele>1392</ele><speed>6.21</speed><time>2017-03-19T14:47:44Z</time><pdop>3.0</pdop><geoidheight>0.00</geoidheight><course>269.1</course><type>1</type></trkpt>
      <trkpt lat="42.99659369" lon="-2.39555246"><ele>1393</ele><speed>7.09</speed><time>2017-03-19T14:47:45Z</time><pdop>3.0</pdop><geoidheight>0.00</geoidheight><course>265.0</course><type>1</type></trkpt>
      <trkpt lat="42.99659308" lon="-2.39564001"><ele>1394</ele><speed>7.24</speed><time>2017-03-19T14:47:46Z</time><pdop>3.0</pdop><geoidheight>0.00</geoidheight><course>267.3</course><type>1</type></trkpt>
      <trkpt lat="42.9965968" lon="-2.39571743"><ele>1394</ele><speed>6.50</speed><time>2017-03-19T14:47:47Z</time><pdop>3.0</pdop><geoidheight>0.00</geoidheight><course>272.3</course><type>1</type></trkpt>
      <trkpt lat="42.99665349" lon="-2.39576222"><ele>1394</ele><speed>3.98</speed><time>2017-03-19T14:47:49Z</time><pdop>3.0</pdop><geoidheight>0.00</geoidheight><course>327.9</course><type>1</type></trkpt>
      <trkpt lat="42.99670514" lon="-2.39563423"><ele>1397</ele><speed>5.39</speed><time>2017-03-19T14:47:51Z</time><pdop>3.0</pdop><geoidheight>0.00</geoidheight><course>59.7</course><type>1</type></trkpt>
      <trkpt lat="42.99670834" lon="-2.3955603"><ele>1397</ele><speed>6.13</speed><time>2017-03-19T14:47:52Z</time><pdop>3.0</pdop><geoidheight>0.00</geoidheight><course>78.4</course><type>1</type></trkpt>
      <trkpt lat="42.99669017" lon="-2.39546092"><ele>1398</ele><speed>7.86</speed><time>2017-03-19T14:47:53Z</time><pdop>3.0</pdop><geoidheight>0.00</geoidheight><course>95.6</course><type>1</type></trkpt>
      <trkpt lat="42.99666234" lon="-2.39534596"><ele>1397</ele><speed>9.31</speed><time>2017-03-19T14:47:54Z</time><pdop>3.0</pdop><geoidheight>0.00</geoidheight><course>104.0</course><type>1</type></trkpt>
      <trkpt lat="42.99662564" lon="-2.39522912"><ele>1398</ele><speed>9.80</speed><time>2017-03-19T14:47:55Z</time><pdop>3.0</pdop><geoidheight>0.00</geoidheight><course>113.0</course><type>1</type></trkpt>
      <trkpt lat="42.99656972" lon="-2.39513148"><ele>1400</ele><speed>9.68</speed><time>2017-03-19T14:47:56Z</time><pdop>3.0</pdop><geoidheight>0.00</geoidheight><course>124.9</course><type>1</type></trkpt>
      <trkpt lat="42.99651115" lon="-2.39503996"><ele>1400</ele><speed>10.14</speed><time>2017-03-19T14:47:57Z</time><pdop>3.0</pdop><geoidheight>0.00</geoidheight><course>132.5</course><type>1</type></trkpt>
      <trkpt lat="42.99644057" lon="-2.3949414"><ele>1401</ele><speed>10.97</speed><time>2017-03-19T14:47:58Z</time><pdop>3.0</pdop><geoidheight>0.00</geoidheight><course>135.1</course><type>1</type></trkpt>
      <trkpt lat="42.99638253" lon="-2.39482858"><ele>1403</ele><speed>11.16</speed><time>2017-03-19T14:47:59Z</time><pdop>3.0</pdop><geoidheight>0.00</geoidheight><course>129.6</course><type>1</type></trkpt>
      <trkpt lat="42.99634241" lon="-2.39472384"><ele>1405</ele><speed>9.49</speed><time>2017-03-19T14:48:00Z</time><pdop>3.0</pdop><geoidheight>0.00</geoidheight><course>115.0</course><type>1</type></trkpt>
      <trkpt lat="42.99633941" lon="-2.39463541"><ele>1406</ele><speed>7.80</speed><time>2017-03-19T14:48:01Z</time><pdop>3.0</pdop><geoidheight>0.00</geoidheight><course>93.5</course><type>1</type></trkpt>
      <trkpt lat="42.99636676" lon="-2.39455923"><ele>1407</ele><speed>6.63</speed><time>2017-03-19T14:48:02Z</time><pdop>3.0</pdop><geoidheight>0.00</geoidheight><course>67.0</course><type>1</type></trkpt>
      <trkpt lat="42.99639449" lon="-2.3944921"><ele>1407</ele><speed>6.01</speed><time>2017-03-19T14:48:03Z</time><pdop>3.0</pdop><geoidheight>0.00</geoidheight><course>60.5</course><type>1</type></trkpt>
      <trkpt lat="42.99647689" lon="-2.3944323"><ele>1409</ele><speed>4.50</speed><time>2017-03-19T14:48:05Z</time><pdop>3.0</pdop><geoidheight>0.00</geoidheight><course>35.0</course><type>1</type></trkpt>
      <trkpt lat="42.99651633" lon="-2.39436811"><ele>1411</ele><speed>3.13</speed><time>2017-03-19T14:48:07Z</time><pdop>3.0</pdop><geoidheight>0.00</geoidheight><course>37.4</course><type>1</type></trkpt>
      <trkpt lat="42.99661272" lon="-2.39435801"><ele>1410</ele><speed>5.52</speed><time>2017-03-19T14:48:09Z</time><pdop>3.0</pdop><geoidheight>0.00</geoidheight><course>2.4</course><type>1</type></trkpt>
      <trkpt lat="42.99667706" lon="-2.39439286"><ele>1410</ele><speed>6.99</speed><time>2017-03-19T14:48:10Z</time><pdop>3.0</pdop><geoidheight>0.00</geoidheight><course>345.8</course><type>1</type></trkpt>
      <trkpt lat="42.99673588" lon="-2.39445536"><ele>1410</ele><speed>7.29</speed><time>2017-03-19T14:48:11Z</time><pdop>3.0</pdop><geoidheight>0.00</geoidheight><course>325.5</course><type>1</type></trkpt>
      <trkpt lat="42.99676857" lon="-2.39453442"><ele>1409</ele><speed>7.54</speed><time>2017-03-19T14:48:12Z</time><pdop>3.0</pdop><geoidheight>0.00</geoidheight><course>300.8</course><type>1</type></trkpt>
      <trkpt lat="42.99678582" lon="-2.39464287"><ele>1408</ele><speed>8.38</speed><time>2017-03-19T14:48:13Z</time><pdop>3.0</pdop><geoidheight>0.00</geoidheight><course>279.7</course><type>1</type></trkpt>
      <trkpt lat="42.9967719" lon="-2.39475375"><ele>1408</ele><speed>8.89</speed><time>2017-03-19T14:48:14Z</time><pdop>3.0</pdop><geoidheight>0.00</geoidheight><course>266.3</course><type>1</type></trkpt>
      <trkpt lat="42.99673928" lon="-2.39489115"><ele>1407</ele><speed>10.72</speed><time>2017-03-19T14:48:15Z</time><pdop>3.0</pdop><geoidheight>0.00</geoidheight><course>255.9</course><type>1</type></trkpt>
      <trkpt lat="42.99668339" lon="-2.39501424"><ele>1404</ele><speed>11.30</speed><time>2017-03-19T14:48:16Z</time><pdop>3.0</pdop><geoidheight>0.00</geoidheight><course>245.7</course><type>1</type></trkpt>
      <trkpt lat="42.99665523" lon="-2.39511827"><ele>1402</ele><speed>9.33</speed><time>2017-03-19T14:48:17Z</time><pdop>3.0</pdop><geoidheight>0.00</geoidheight><course>249.3</course><type>1</type></trkpt>
      <trkpt lat="42.99663679" lon="-2.39521486"><ele>1401</ele><speed>8.21</speed><time>2017-03-19T14:48:18Z</time><pdop>3.0</pdop><geoidheight>0.00</geoidheight><course>256.2</course><type>1</type></trkpt>
      <trkpt lat="42.99665399" lon="-2.39534499"><ele>1397</ele><speed>6.00</speed><time>2017-03-19T14:48:20Z</time><pdop>3.0</pdop><geoidheight>0.00</geoidheight><course>280.8</course><type>1</type></trkpt>
      <trkpt lat="42.99669318" lon="-2.39545119"><ele>1395</ele><speed>4.35</speed><time>2017-03-19T14:48:22Z</time><pdop>3.0</pdop><geoidheight>0.00</geoidheight><course>308.0</course><type>1</type></trkpt>
      <trkpt lat="42.99672672" lon="-2.39533665"><ele>1389</ele><speed>5.97</speed><time>2017-03-19T14:48:26Z</time><pdop>4.0</pdop><geoidheight>0.00</geoidheight><course>96.5</course><type>1</type></trkpt>
      <trkpt lat="42.99669392" lon="-2.39525173"><ele>1389</ele><speed>7.53</speed><time>2017-03-19T14:48:27Z</time><pdop>3.0</pdop><geoidheight>0.00</geoidheight><course>111.3</course><type>1</type></trkpt>
      <trkpt lat="42.99664573" lon="-2.39516998"><ele>1389</ele><speed>8.25</speed><time>2017-03-19T14:48:28Z</time><pdop>3.0</pdop><geoidheight>0.00</geoidheight><course>124.5</course><type>1</type></trkpt>
      <trkpt lat="42.99659913" lon="-2.39511276"><ele>1388</ele><speed>7.11</speed><time>2017-03-19T14:48:29Z</time><pdop>3.0</pdop><geoidheight>0.00</geoidheight><course>134.0</course><type>1</type></trkpt>
      <trkpt lat="42.99654437" lon="-2.39498555"><ele>1384</ele><speed>6.04</speed><time>2017-03-19T14:48:31Z</time><pdop>3.0</pdop><geoidheight>0.00</geoidheight><course>118.9</course><type>1</type></trkpt>
      <trkpt lat="42.99652908" lon="-2.39490131"><ele>1382</ele><speed>7.19</speed><time>2017-03-19T14:48:32Z</time><pdop>3.0</pdop><geoidheight>0.00</geoidheight><course>100.3</course><type>1</type></trkpt>
      <trkpt lat="42.99652888" lon="-2.39479455"><ele>1381</ele><speed>8.68</speed><time>2017-03-19T14:48:33Z</time><pdop>3.0</pdop><geoidheight>0.00</geoidheight><course>92.5</course><type>1</type></trkpt>
      <trkpt lat="42.99653261" lon="-2.39468404"><ele>1383</ele><speed>8.93</speed><time>2017-03-19T14:48:34Z</time><pdop>3.0</pdop><geoidheight>0.00</geoidheight><course>89.7</course><type>1</type></trkpt>
      <trkpt lat="42.99654053" lon="-2.39457666"><ele>1383</ele><speed>8.98</speed><time>2017-03-19T14:48:35Z</time><pdop>3.0</pdop><geoidheight>0.00</geoidheight><course>84.2</course><type>1</type></trkpt>
      <trkpt lat="42.99657474" lon="-2.39451829"><ele>1384</ele><speed>1.77</speed><time>2017-03-19T14:48:38Z</time><pdop>3.0</pdop><geoidheight>0.00</geoidheight><course>22.9</course><type>1</type></trkpt>
      <trkpt lat="42.99662859" lon="-2.39452668"><ele>1381</ele><speed>3.13</speed><time>2017-03-19T14:48:40Z</time><pdop>3.0</pdop><geoidheight>0.00</geoidheight><course>345.6</course><type>1</type></trkpt>
      <trkpt lat="42.99672783" lon="-2.39459048"><ele>1380</ele><speed>6.36</speed><time>2017-03-19T14:48:42Z</time><pdop>3.0</pdop><geoidheight>0.00</geoidheight><course>334.2</course><type>1</type></trkpt>
      <trkpt lat="42.99677645" lon="-2.39463366"><ele>1381</ele><speed>6.65</speed><time>2017-03-19T14:48:43Z</time><pdop>3.0</pdop><geoidheight>0.00</geoidheight><course>326.9</course><type>1</type></trkpt>
      <trkpt lat="42.99682371" lon="-2.39468257"><ele>1381</ele><speed>6.09</speed><time>2017-03-19T14:48:44Z</time><pdop>3.0</pdop><geoidheight>0.00</geoidheight><course>319.5</course><type>1</type></trkpt>
      <trkpt lat="42.99687921" lon="-2.39479672"><ele>1383</ele><speed>6.01</speed><time>2017-03-19T14:48:46Z</time><pdop>3.0</pdop><geoidheight>0.00</geoidheight><course>300.5</course><type>1</type></trkpt>
      <trkpt lat="42.99690418" lon="-2.39486731"><ele>1382</ele><speed>6.44</speed><time>2017-03-19T14:48:47Z</time><pdop>3.0</pdop><geoidheight>0.00</geoidheight><course>294.3</course><type>1</type></trkpt>
      <trkpt lat="42.99692775" lon="-2.3949415"><ele>1382</ele><speed>6.56</speed><time>2017-03-19T14:48:48Z</time><pdop>3.0</pdop><geoidheight>0.00</geoidheight><course>291.9</course><type>1</type></trkpt>
      <trkpt lat="42.99694775" lon="-2.39502159"><ele>1382</ele><speed>6.50</speed><time>2017-03-19T14:48:49Z</time><pdop>3.0</pdop><geoidheight>0.00</geoidheight><course>290.5</course><type>1</type></trkpt>
      <trkpt lat="42.99697115" lon="-2.3950987"><ele>1382</ele><speed>6.42</speed><time>2017-03-19T14:48:50Z</time><pdop>3.0</pdop><geoidheight>0.00</geoidheight><course>289.2</course><type>1</type></trkpt>
      <trkpt lat="42.99699436" lon="-2.39517174"><ele>1382</ele><speed>6.52</speed><time>2017-03-19T14:48:51Z</time><pdop>3.0</pdop><geoidheight>0.00</geoidheight><course>290.5</course><type>1</type></trkpt>
      <trkpt lat="42.99701695" lon="-2.39524061"><ele>1381</ele><speed>6.55</speed><time>2017-03-19T14:48:52Z</time><pdop>3.0</pdop><geoidheight>0.00</geoidheight><course>293.7</course><type>1</type></trkpt>
      <trkpt lat="42.99703755" lon="-2.39531957"><ele>1382</ele><speed>6.89</speed><time>2017-03-19T14:48:53Z</time><pdop>3.0</pdop><geoidheight>0.00</geoidheight><course>290.9</course><type>1</type></trkpt>
      <trkpt lat="42.99705626" lon="-2.39542236"><ele>1379</ele><speed>8.32</speed><time>2017-03-19T14:48:54Z</time><pdop>3.0</pdop><geoidheight>0.00</geoidheight><course>288.5</course><type>1</type></trkpt>
      <trkpt lat="42.99708357" lon="-2.39553278"><ele>1379</ele><speed>9.45</speed><time>2017-03-19T14:48:55Z</time><pdop>3.0</pdop><geoidheight>0.00</geoidheight><course>289.4</course><type>1</type></trkpt>
      <trkpt lat="42.99710846" lon="-2.39563335"><ele>1379</ele><speed>9.23</speed><time>2017-03-19T14:48:56Z</time><pdop>3.0</pdop><geoidheight>0.00</geoidheight><course>289.4</course><type>1</type></trkpt>
      <trkpt lat="42.99713564" lon="-2.3957262"><ele>1379</ele><speed>8.23</speed><time>2017-03-19T14:48:57Z</time><pdop>3.0</pdop><geoidheight>0.00</geoidheight><course>290.1</course><type>1</type></trkpt>
      <trkpt lat="42.99715866" lon="-2.39580219"><ele>1379</ele><speed>7.18</speed><time>2017-03-19T14:48:58Z</time><pdop>3.0</pdop><geoidheight>0.00</geoidheight><course>291.0</course><type>1</type></trkpt>
      <trkpt lat="42.99718741" lon="-2.39588064"><ele>1381</ele><speed>6.93</speed><time>2017-03-19T14:48:59Z</time><pdop>3.0</pdop><geoidheight>0.00</geoidheight><course>292.6</course><type>1</type></trkpt>
      <trkpt lat="42.99722076" lon="-2.39597461"><ele>1380</ele><speed>7.42</speed><time>2017-03-19T14:49:00Z</time><pdop>3.0</pdop><geoidheight>0.00</geoidheight><course>295.8</course><type>1</type></trkpt>
      <trkpt lat="42.99725317" lon="-2.39605346"><ele>1380</ele><speed>7.70</speed><time>2017-03-19T14:49:01Z</time><pdop>3.0</pdop><geoidheight>0.00</geoidheight><course>297.8</course><type>1</type></trkpt>
      <trkpt lat="42.99728401" lon="-2.39613707"><ele>1379</ele><speed>7.38</speed><time>2017-03-19T14:49:02Z</time><pdop>3.0</pdop><geoidheight>0.00</geoidheight><course>296.5</course><type>1</type></trkpt>
      <trkpt lat="42.99730863" lon="-2.39620292"><ele>1380</ele><speed>6.67</speed><time>2017-03-19T14:49:03Z</time><pdop>3.0</pdop><geoidheight>0.00</geoidheight><course>296.1</course><type>1</type></trkpt>
      <trkpt lat="42.99736205" lon="-2.39633088"><ele>1382</ele><speed>5.76</speed><time>2017-03-19T14:49:05Z</time><pdop>3.0</pdop><geoidheight>0.00</geoidheight><course>301.0</course><type>1</type></trkpt>
      <trkpt lat="42.99741814" lon="-2.39646"><ele>1381</ele><speed>5.74</speed><time>2017-03-19T14:49:07Z</time><pdop>3.0</pdop><geoidheight>0.00</geoidheight><course>297.9</course><type>1</type></trkpt>
      <trkpt lat="42.99743932" lon="-2.39652924"><ele>1382</ele><speed>6.20</speed><time>2017-03-19T14:49:08Z</time><pdop>3.0</pdop><geoidheight>0.00</geoidheight><course>294.2</course><type>1</type></trkpt>
      <trkpt lat="42.99748063" lon="-2.39665771"><ele>1383</ele><speed>5.70</speed><time>2017-03-19T14:49:10Z</time><pdop>3.0</pdop><geoidheight>0.00</geoidheight><course>296.1</course><type>1</type></trkpt>
      <trkpt lat="42.99753589" lon="-2.3967641"><ele>1383</ele><speed>5.19</speed><time>2017-03-19T14:49:12Z</time><pdop>3.0</pdop><geoidheight>0.00</geoidheight><course>304.7</course><type>1</type></trkpt>
      <trkpt lat="42.9975824" lon="-2.39689238"><ele>1381</ele><speed>5.93</speed><time>2017-03-19T14:49:14Z</time><pdop>3.0</pdop><geoidheight>0.00</geoidheight><course>294.5</course><type>1</type></trkpt>
      <trkpt lat="42.99760158" lon="-2.3969697"><ele>1379</ele><speed>6.61</speed><time>2017-03-19T14:49:15Z</time><pdop>3.0</pdop><geoidheight>0.00</geoidheight><course>291.3</course><type>1</type></trkpt>
      <trkpt lat="42.99762523" lon="-2.39704844"><ele>1379</ele><speed>6.79</speed><time>2017-03-19T14:49:16Z</time><pdop>3.0</pdop><geoidheight>0.00</geoidheight><course>288.5</course><type>1</type></trkpt>
      <trkpt lat="42.99763524" lon="-2.39712402"><ele>1379</ele><speed>6.48</speed><time>2017-03-19T14:49:17Z</time><pdop>3.0</pdop><geoidheight>0.00</geoidheight><course>284.7</course><type>1</type></trkpt>
      <trkpt lat="42.99765991" lon="-2.39725828"><ele>1378</ele><speed>5.52</speed><time>2017-03-19T14:49:19Z</time><pdop>3.0</pdop><geoidheight>0.00</geoidheight><course>286.3</course><type>1</type></trkpt>
      <trkpt lat="42.99770422" lon="-2.39738439"><ele>1378</ele><speed>6.13</speed><time>2017-03-19T14:49:21Z</time><pdop>3.0</pdop><geoidheight>0.00</geoidheight><course>296.4</course><type>1</type></trkpt>
      <trkpt lat="42.99773272" lon="-2.39745713"><ele>1378</ele><speed>6.44</speed><time>2017-03-19T14:49:22Z</time><pdop>3.0</pdop><geoidheight>0.00</geoidheight><course>298.7</course><type>1</type></trkpt>
      <trkpt lat="42.99777948" lon="-2.39756495"><ele>1377</ele><speed>5.08</speed><time>2017-03-19T14:49:24Z</time><pdop>3.0</pdop><geoidheight>0.00</geoidheight><course>301.1</course><type>1</type></trkpt>
      <trkpt lat="42.99781753" lon="-2.39767105"><ele>1376</ele><speed>4.88</speed><time>2017-03-19T14:49:26Z</time><pdop>3.0</pdop><geoidheight>0.00</geoidheight><course>294.7</course><type>1</type></trkpt>
      <trkpt lat="42.99785628" lon="-2.39781789"><ele>1374</ele><speed>6.88</speed><time>2017-03-19T14:49:28Z</time><pdop>3.0</pdop><geoidheight>0.00</geoidheight><course>291.8</course><type>1</type></trkpt>
      <trkpt lat="42.99788465" lon="-2.39789664"><ele>1374</ele><speed>6.69</speed><time>2017-03-19T14:49:29Z</time><pdop>3.0</pdop><geoidheight>0.00</geoidheight><course>294.3</course><type>1</type></trkpt>
      <trkpt lat="42.99793513" lon="-2.39800688"><ele>1374</ele><speed>4.89</speed><time>2017-03-19T14:49:31Z</time><pdop>3.0</pdop><geoidheight>0.00</geoidheight><course>302.2</course><type>1</type></trkpt>
      <trkpt lat="42.99798586" lon="-2.39810854"><ele>1372</ele><speed>4.78</speed><time>2017-03-19T14:49:33Z</time><pdop>3.0</pdop><geoidheight>0.00</geoidheight><course>299.3</course><type>1</type></trkpt>
      <trkpt lat="42.99804035" lon="-2.39822754"><ele>1370</ele><speed>5.69</speed><time>2017-03-19T14:49:35Z</time><pdop>3.0</pdop><geoidheight>0.00</geoidheight><course>298.6</course><type>1</type></trkpt>
      <trkpt lat="42.99806372" lon="-2.39833898"><ele>1371</ele><speed>4.87</speed><time>2017-03-19T14:49:37Z</time><pdop>3.0</pdop><geoidheight>0.00</geoidheight><course>288.1</course><type>1</type></trkpt>
      <trkpt lat="42.99811404" lon="-2.39845629"><ele>1371</ele><speed>5.82</speed><time>2017-03-19T14:49:39Z</time><pdop>3.0</pdop><geoidheight>0.00</geoidheight><course>301.3</course><type>1</type></trkpt>
      <trkpt lat="42.99816236" lon="-2.39856244"><ele>1373</ele><speed>5.12</speed><time>2017-03-19T14:49:41Z</time><pdop>3.0</pdop><geoidheight>0.00</geoidheight><course>297.7</course><type>1</type></trkpt>
      <trkpt lat="42.99821673" lon="-2.39867559"><ele>1374</ele><speed>5.42</speed><time>2017-03-19T14:49:43Z</time><pdop>3.0</pdop><geoidheight>0.00</geoidheight><course>307.3</course><type>1</type></trkpt>
      <trkpt lat="42.99826646" lon="-2.39877777"><ele>1375</ele><speed>4.80</speed><time>2017-03-19T14:49:45Z</time><pdop>3.0</pdop><geoidheight>0.00</geoidheight><course>299.8</course><type>1</type></trkpt>
      <trkpt lat="42.99829875" lon="-2.39885557"><ele>1377</ele><speed>3.81</speed><time>2017-03-19T14:49:47Z</time><pdop>3.0</pdop><geoidheight>0.00</geoidheight><course>295.9</course><type>1</type></trkpt>
      <trkpt lat="42.99834854" lon="-2.39894095"><ele>1376</ele><speed>4.32</speed><time>2017-03-19T14:49:49Z</time><pdop>3.0</pdop><geoidheight>0.00</geoidheight><course>317.2</course><type>1</type></trkpt>
      <trkpt lat="42.9984085" lon="-2.39902695"><ele>1377</ele><speed>4.73</speed><time>2017-03-19T14:49:51Z</time><pdop>3.0</pdop><geoidheight>0.00</geoidheight><course>314.4</course><type>1</type></trkpt>
      <trkpt lat="42.99844584" lon="-2.39912643"><ele>1377</ele><speed>4.52</speed><time>2017-03-19T14:49:53Z</time><pdop>3.0</pdop><geoidheight>0.00</geoidheight><course>298.0</course><type>1</type></trkpt>
      <trkpt lat="42.99849273" lon="-2.3992248"><ele>1374</ele><speed>4.91</speed><time>2017-03-19T14:49:55Z</time><pdop>3.0</pdop><geoidheight>0.00</geoidheight><course>305.7</course><type>1</type></trkpt>
      <trkpt lat="42.99855431" lon="-2.39932901"><ele>1372</ele><speed>5.40</speed><time>2017-03-19T14:49:57Z</time><pdop>3.0</pdop><geoidheight>0.00</geoidheight><course>309.3</course><type>1</type></trkpt>
      <trkpt lat="42.99858774" lon="-2.39939139"><ele>1371</ele><speed>5.74</speed><time>2017-03-19T14:49:58Z</time><pdop>3.0</pdop><geoidheight>0.00</geoidheight><course>306.9</course><type>1</type></trkpt>
      <trkpt lat="42.9986208" lon="-2.39945472"><ele>1371</ele><speed>6.21</speed><time>2017-03-19T14:49:59Z</time><pdop>3.0</pdop><geoidheight>0.00</geoidheight><course>305.6</course><type>1</type></trkpt>
      <trkpt lat="42.99865957" lon="-2.3995243"><ele>1371</ele><speed>6.68</speed><time>2017-03-19T14:50:00Z</time><pdop>3.0</pdop><geoidheight>0.00</geoidheight><course>305.9</course><type>1</type></trkpt>
      <trkpt lat="42.99873166" lon="-2.39964913"><ele>1373</ele><speed>6.64</speed><time>2017-03-19T14:50:02Z</time><pdop>3.0</pdop><geoidheight>0.00</geoidheight><course>304.5</course><type>1</type></trkpt>
      <trkpt lat="42.99878198" lon="-2.39976731"><ele>1376</ele><speed>5.69</speed><time>2017-03-19T14:50:04Z</time><pdop>3.0</pdop><geoidheight>0.00</geoidheight><course>300.0</course><type>1</type></trkpt>
      <trkpt lat="42.99883485" lon="-2.39986988"><ele>1376</ele><speed>5.03</speed><time>2017-03-19T14:50:06Z</time><pdop>3.0</pdop><geoidheight>0.00</geoidheight><course>307.2</course><type>1</type></trkpt>
      <trkpt lat="42.99891309" lon="-2.39989672"><ele>1377</ele><speed>4.79</speed><time>2017-03-19T14:50:08Z</time><pdop>3.0</pdop><geoidheight>0.00</geoidheight><course>350.3</course><type>1</type></trkpt>
      <trkpt lat="42.9989871" lon="-2.39976685"><ele>1379</ele><speed>6.35</speed><time>2017-03-19T14:50:11Z</time><pdop>3.0</pdop><geoidheight>0.00</geoidheight><course>75.0</course><type>1</type></trkpt>
      <trkpt lat="42.99897918" lon="-2.3996919"><ele>1380</ele><speed>6.99</speed><time>2017-03-19T14:50:12Z</time><pdop>3.0</pdop><geoidheight>0.00</geoidheight><course>94.3</course><type>1</type></trkpt>
      <trkpt lat="42.99895592" lon="-2.39959546"><ele>1381</ele><speed>7.77</speed><time>2017-03-19T14:50:13Z</time><pdop>3.0</pdop><geoidheight>0.00</geoidheight><course>103.8</course><type>1</type></trkpt>
      <trkpt lat="42.99892627" lon="-2.39949945"><ele>1382</ele><speed>8.44</speed><time>2017-03-19T14:50:14Z</time><pdop>3.0</pdop><geoidheight>0.00</geoidheight><course>110.3</course><type>1</type></trkpt>
      <trkpt lat="42.99889655" lon="-2.39939535"><ele>1382</ele><speed>8.55</speed><time>2017-03-19T14:50:15Z</time><pdop>3.0</pdop><geoidheight>0.00</geoidheight><course>110.5</course><type>1</type></trkpt>
      <trkpt lat="42.99889899" lon="-2.39931318"><ele>1384</ele><speed>7.23</speed><time>2017-03-19T14:50:16Z</time><pdop>3.0</pdop><geoidheight>0.00</geoidheight><course>100.9</course><type>1</type></trkpt>
      <trkpt lat="42.99890436" lon="-2.39923237"><ele>1383</ele><speed>6.56</speed><time>2017-03-19T14:50:17Z</time><pdop>3.0</pdop><geoidheight>0.00</geoidheight><course>81.3</course><type>1</type></trkpt>
      <trkpt lat="42.9989121" lon="-2.39914843"><ele>1381</ele><speed>6.05</speed><time>2017-03-19T14:50:18Z</time><pdop>3.0</pdop><geoidheight>0.00</geoidheight><course>76.6</course><type>1</type></trkpt>
      <trkpt lat="42.99900865" lon="-2.39911022"><ele>1383</ele><speed>4.80</speed><time>2017-03-19T14:50:20Z</time><pdop>3.0</pdop><geoidheight>0.00</geoidheight><course>12.5</course><type>1</type></trkpt>
      <trkpt lat="42.99907048" lon="-2.3991932"><ele>1384</ele><speed>5.13</speed><time>2017-03-19T14:50:22Z</time><pdop>3.0</pdop><geoidheight>0.00</geoidheight><course>299.7</course><type>1</type></trkpt>
      <trkpt lat="42.99908354" lon="-2.39928076"><ele>1383</ele><speed>6.52</speed><time>2017-03-19T14:50:23Z</time><pdop>3.0</pdop><geoidheight>0.00</geoidheight><course>278.4</course><type>1</type></trkpt>
      <trkpt lat="42.99906624" lon="-2.39938647"><ele>1385</ele><speed>8.28</speed><time>2017-03-19T14:50:24Z</time><pdop>3.0</pdop><geoidheight>0.00</geoidheight><course>264.1</course><type>1</type></trkpt>
      <trkpt lat="42.99905088" lon="-2.39948413"><ele>1386</ele><speed>8.03</speed><time>2017-03-19T14:50:25Z</time><pdop>3.0</pdop><geoidheight>0.00</geoidheight><course>258.7</course><type>1</type></trkpt>
      <trkpt lat="42.99903654" lon="-2.3995659"><ele>1387</ele><speed>6.73</speed><time>2017-03-19T14:50:26Z</time><pdop>3.0</pdop><geoidheight>0.00</geoidheight><course>254.6</course><type>1</type></trkpt>
      <trkpt lat="42.99901505" lon="-2.39970456"><ele>1386</ele><speed>6.22</speed><time>2017-03-19T14:50:28Z</time><pdop>3.0</pdop><geoidheight>0.00</geoidheight><course>259.5</course><type>1</type></trkpt>
      <trkpt lat="42.99901489" lon="-2.39978443"><ele>1386</ele><speed>6.05</speed><time>2017-03-19T14:50:29Z</time><pdop>3.0</pdop><geoidheight>0.00</geoidheight><course>269.6</course><type>1</type></trkpt>
      <trkpt lat="42.999048" lon="-2.39991454"><ele>1385</ele><speed>5.43</speed><time>2017-03-19T14:50:31Z</time><pdop>3.0</pdop><geoidheight>0.00</geoidheight><course>288.7</course><type>1</type></trkpt>
      <trkpt lat="42.99906325" lon="-2.40006282"><ele>1387</ele><speed>6.62</speed><time>2017-03-19T14:50:33Z</time><pdop>3.0</pdop><geoidheight>0.00</geoidheight><course>273.3</course><type>1</type></trkpt>
      <trkpt lat="42.99906193" lon="-2.40014783"><ele>1387</ele><speed>7.05</speed><time>2017-03-19T14:50:34Z</time><pdop>3.0</pdop><geoidheight>0.00</geoidheight><course>269.7</course><type>1</type></trkpt>
      <trkpt lat="42.99905681" lon="-2.40023389"><ele>1388</ele><speed>6.66</speed><time>2017-03-19T14:50:35Z</time><pdop>3.0</pdop><geoidheight>0.00</geoidheight><course>266.1</course><type>1</type></trkpt>
      <trkpt lat="42.99905759" lon="-2.40036691"><ele>1389</ele><speed>5.44</speed><time>2017-03-19T14:50:37Z</time><pdop>3.0</pdop><geoidheight>0.00</geoidheight><course>270.0</course><type>1</type></trkpt>
      <trkpt lat="42.99907093" lon="-2.40050236"><ele>1390</ele><speed>5.25</speed><time>2017-03-19T14:50:39Z</time><pdop>3.0</pdop><geoidheight>0.00</geoidheight><course>282.0</course><type>1</type></trkpt>
      <trkpt lat="42.99914988" lon="-2.40050663"><ele>1392</ele><speed>3.78</speed><time>2017-03-19T14:50:43Z</time><pdop>3.0</pdop><geoidheight>0.00</geoidheight><course>28.2</course><type>1</type></trkpt>
      <trkpt lat="42.99920743" lon="-2.40041822"><ele>1395</ele><speed>5.19</speed><time>2017-03-19T14:50:45Z</time><pdop>3.0</pdop><geoidheight>0.00</geoidheight><course>57.9</course><type>1</type></trkpt>
      <trkpt lat="42.99921071" lon="-2.40033601"><ele>1395</ele><speed>6.51</speed><time>2017-03-19T14:50:46Z</time><pdop>3.0</pdop><geoidheight>0.00</geoidheight><course>82.7</course><type>1</type></trkpt>
      <trkpt lat="42.99920294" lon="-2.40023205"><ele>1396</ele><speed>8.33</speed><time>2017-03-19T14:50:47Z</time><pdop>3.0</pdop><geoidheight>0.00</geoidheight><course>94.8</course><type>1</type></trkpt>
      <trkpt lat="42.99917251" lon="-2.40011244"><ele>1397</ele><speed>9.34</speed><time>2017-03-19T14:50:48Z</time><pdop>3.0</pdop><geoidheight>0.00</geoidheight><course>104.6</course><type>1</type></trkpt>
      <trkpt lat="42.99912421" lon="-2.39999797"><ele>1398</ele><speed>10.26</speed><time>2017-03-19T14:50:49Z</time><pdop>3.0</pdop><geoidheight>0.00</geoidheight><course>116.8</course><type>1</type></trkpt>
      <trkpt lat="42.99906664" lon="-2.39990453"><ele>1400</ele><speed>10.38</speed><time>2017-03-19T14:50:50Z</time><pdop>3.0</pdop><geoidheight>0.00</geoidheight><course>128.8</course><type>1</type></trkpt>
      <trkpt lat="42.99899923" lon="-2.39981989"><ele>1401</ele><speed>10.64</speed><time>2017-03-19T14:50:51Z</time><pdop>3.0</pdop><geoidheight>0.00</geoidheight><course>137.7</course><type>1</type></trkpt>
      <trkpt lat="42.99892246" lon="-2.39974461"><ele>1401</ele><speed>10.93</speed><time>2017-03-19T14:50:52Z</time><pdop>3.0</pdop><geoidheight>0.00</geoidheight><course>144.2</course><type>1</type></trkpt>
      <trkpt lat="42.99884285" lon="-2.39967139"><ele>1400</ele><speed>10.46</speed><time>2017-03-19T14:50:53Z</time><pdop>3.0</pdop><geoidheight>0.00</geoidheight><course>146.2</course><type>1</type></trkpt>
      <trkpt lat="42.99878191" lon="-2.39958409"><ele>1400</ele><speed>10.03</speed><time>2017-03-19T14:50:54Z</time><pdop>3.0</pdop><geoidheight>0.00</geoidheight><course>135.7</course><type>1</type></trkpt>
      <trkpt lat="42.99873191" lon="-2.39947257"><ele>1399</ele><speed>10.25</speed><time>2017-03-19T14:50:55Z</time><pdop>3.0</pdop><geoidheight>0.00</geoidheight><course>121.4</course><type>1</type></trkpt>
      <trkpt lat="42.99870228" lon="-2.39936031"><ele>1399</ele><speed>9.82</speed><time>2017-03-19T14:50:56Z</time><pdop>3.0</pdop><geoidheight>0.00</geoidheight><course>111.1</course><type>1</type></trkpt>
      <trkpt lat="42.99868157" lon="-2.39924088"><ele>1399</ele><speed>8.83</speed><time>2017-03-19T14:50:57Z</time><pdop>3.0</pdop><geoidheight>0.00</geoidheight><course>108.9</course><type>1</type></trkpt>
      <trkpt lat="42.99865757" lon="-2.39914693"><ele>1400</ele><speed>7.90</speed><time>2017-03-19T14:50:58Z</time><pdop>3.0</pdop><geoidheight>0.00</geoidheight><course>110.5</course><type>1</type></trkpt>
      <trkpt lat="42.99863054" lon="-2.39906293"><ele>1400</ele><speed>7.46</speed><time>2017-03-19T14:50:59Z</time><pdop>3.0</pdop><geoidheight>0.00</geoidheight><course>114.1</course><type>1</type></trkpt>
      <trkpt lat="42.99858369" lon="-2.39897077"><ele>1399</ele><speed>8.38</speed><time>2017-03-19T14:51:00Z</time><pdop>3.0</pdop><geoidheight>0.00</geoidheight><course>120.5</course><type>1</type></trkpt>
      <trkpt lat="42.9985305" lon="-2.39887092"><ele>1400</ele><speed>9.78</speed><time>2017-03-19T14:51:01Z</time><pdop>3.0</pdop><geoidheight>0.00</geoidheight><course>124.9</course><type>1</type></trkpt>
      <trkpt lat="42.99847628" lon="-2.3987725"><ele>1401</ele><speed>10.51</speed><time>2017-03-19T14:51:02Z</time><pdop>3.0</pdop><geoidheight>0.00</geoidheight><course>129.2</course><type>1</type></trkpt>
      <trkpt lat="42.99842358" lon="-2.39867595"><ele>1401</ele><speed>10.10</speed><time>2017-03-19T14:51:03Z</time><pdop>3.0</pdop><geoidheight>0.00</geoidheight><course>126.8</course><type>1</type></trkpt>
      <trkpt lat="42.99836733" lon="-2.39858307"><ele>1402</ele><speed>9.05</speed><time>2017-03-19T14:51:04Z</time><pdop>3.0</pdop><geoidheight>0.00</geoidheight><course>127.5</course><type>1</type></trkpt>
      <trkpt lat="42.99833554" lon="-2.39849035"><ele>1401</ele><speed>7.95</speed><time>2017-03-19T14:51:05Z</time><pdop>3.0</pdop><geoidheight>0.00</geoidheight><course>118.0</course><type>1</type></trkpt>
      <trkpt lat="42.99832098" lon="-2.39840021"><ele>1401</ele><speed>7.32</speed><time>2017-03-19T14:51:06Z</time><pdop>3.0</pdop><geoidheight>0.00</geoidheight><course>104.2</course><type>1</type></trkpt>
      <trkpt lat="42.99831849" lon="-2.39832388"><ele>1401</ele><speed>6.14</speed><time>2017-03-19T14:51:07Z</time><pdop>3.0</pdop><geoidheight>0.00</geoidheight><course>89.5</course><type>1</type></trkpt>
      <trkpt lat="42.99835371" lon="-2.39824943"><ele>1402</ele><speed>3.59</speed><time>2017-03-19T14:51:09Z</time><pdop>3.0</pdop><geoidheight>0.00</geoidheight><course>48.6</course><type>1</type></trkpt>
      <trkpt lat="42.99841915" lon="-2.39827542"><ele>1403</ele><speed>4.41</speed><time>2017-03-19T14:51:11Z</time><pdop>3.0</pdop><geoidheight>0.00</geoidheight><course>339.0</course><type>1</type></trkpt>
      <trkpt lat="42.99846419" lon="-2.39831825"><ele>1402</ele><speed>5.21</speed><time>2017-03-19T14:51:12Z</time><pdop>3.0</pdop><geoidheight>0.00</geoidheight><course>325.4</course><type>1</type></trkpt>
      <trkpt lat="42.9985066" lon="-2.39837652"><ele>1402</ele><speed>5.43</speed><time>2017-03-19T14:51:13Z</time><pdop>3.0</pdop><geoidheight>0.00</geoidheight><course>316.1</course><type>1</type></trkpt>
      <trkpt lat="42.99854279" lon="-2.39843858"><ele>1403</ele><speed>5.39</speed><time>2017-03-19T14:51:14Z</time><pdop>3.0</pdop><geoidheight>0.00</geoidheight><course>309.9</course><type>1</type></trkpt>
      <trkpt lat="42.99859157" lon="-2.39855026"><ele>1403</ele><speed>5.71</speed><time>2017-03-19T14:51:16Z</time><pdop>3.0</pdop><geoidheight>0.00</geoidheight><course>304.0</course><type>1</type></trkpt>
      <trkpt lat="42.99862603" lon="-2.39861929"><ele>1403</ele><speed>6.42</speed><time>2017-03-19T14:51:17Z</time><pdop>3.0</pdop><geoidheight>0.00</geoidheight><course>303.1</course><type>1</type></trkpt>
      <trkpt lat="42.99865676" lon="-2.39870791"><ele>1402</ele><speed>6.78</speed><time>2017-03-19T14:51:18Z</time><pdop>3.0</pdop><geoidheight>0.00</geoidheight><course>298.9</course><type>1</type></trkpt>
      <trkpt lat="42.99870518" lon="-2.39885834"><ele>1401</ele><speed>7.07</speed><time>2017-03-19T14:51:20Z</time><pdop>3.0</pdop><geoidheight>0.00</geoidheight><course>293.8</course><type>1</type></trkpt>
      <trkpt lat="42.99872747" lon="-2.39895192"><ele>1400</ele><speed>7.34</speed><time>2017-03-19T14:51:21Z</time><pdop>3.0</pdop><geoidheight>0.00</geoidheight><course>289.3</course><type>1</type></trkpt>
      <trkpt lat="42.99874922" lon="-2.39903123"><ele>1400</ele><speed>7.18</speed><time>2017-03-19T14:51:22Z</time><pdop>3.0</pdop><geoidheight>0.00</geoidheight><course>286.8</course><type>1</type></trkpt>
      <trkpt lat="42.99876343" lon="-2.39911313"><ele>1400</ele><speed>7.11</speed><time>2017-03-19T14:51:23Z</time><pdop>3.0</pdop><geoidheight>0.00</geoidheight><course>286.3</course><type>1</type></trkpt>
      <trkpt lat="42.99880504" lon="-2.39927825"><ele>1400</ele><speed>7.45</speed><time>2017-03-19T14:51:25Z</time><pdop>4.0</pdop><geoidheight>0.00</geoidheight><course>290.1</course><type>1</type></trkpt>
      <trkpt lat="42.99883289" lon="-2.39945439"><ele>1399</ele><speed>6.87</speed><time>2017-03-19T14:51:27Z</time><pdop>3.0</pdop><geoidheight>0.00</geoidheight><course>277.3</course><type>1</type></trkpt>
      <trkpt lat="42.99883674" lon="-2.39955449"><ele>1399</ele><speed>7.00</speed><time>2017-03-19T14:51:28Z</time><pdop>3.0</pdop><geoidheight>0.00</geoidheight><course>271.3</course><type>1</type></trkpt>
      <trkpt lat="42.99884183" lon="-2.39963962"><ele>1401</ele><speed>7.40</speed><time>2017-03-19T14:51:29Z</time><pdop>3.0</pdop><geoidheight>0.00</geoidheight><course>274.8</course><type>1</type></trkpt>
      <trkpt lat="42.99885846" lon="-2.39973447"><ele>1401</ele><speed>7.56</speed><time>2017-03-19T14:51:30Z</time><pdop>3.0</pdop><geoidheight>0.00</geoidheight><course>284.6</course><type>1</type></trkpt>
      <trkpt lat="42.99888855" lon="-2.39981364"><ele>1400</ele><speed>7.38</speed><time>2017-03-19T14:51:31Z</time><pdop>3.0</pdop><geoidheight>0.00</geoidheight><course>294.3</course><type>1</type></trkpt>
      <trkpt lat="42.99891608" lon="-2.39988781"><ele>1400</ele><speed>6.77</speed><time>2017-03-19T14:51:32Z</time><pdop>3.0</pdop><geoidheight>0.00</geoidheight><course>295.8</course><type>1</type></trkpt>
      <trkpt lat="42.99893628" lon="-2.39996326"><ele>1400</ele><speed>6.45</speed><time>2017-03-19T14:51:33Z</time><pdop>3.0</pdop><geoidheight>0.00</geoidheight><course>291.0</course><type>1</type></trkpt>
      <trkpt lat="42.9989565" lon="-2.40003975"><ele>1399</ele><speed>6.80</speed><time>2017-03-19T14:51:34Z</time><pdop>3.0</pdop><geoidheight>0.00</geoidheight><course>293.1</course><type>1</type></trkpt>
      <trkpt lat="42.99899314" lon="-2.40011267"><ele>1398</ele><speed>6.77</speed><time>2017-03-19T14:51:35Z</time><pdop>3.0</pdop><geoidheight>0.00</geoidheight><course>304.6</course><type>1</type></trkpt>
      <trkpt lat="42.99904376" lon="-2.40016562"><ele>1396</ele><speed>6.74</speed><time>2017-03-19T14:51:36Z</time><pdop>3.0</pdop><geoidheight>0.00</geoidheight><course>318.8</course><type>1</type></trkpt>
      <trkpt lat="42.99909346" lon="-2.40020652"><ele>1395</ele><speed>6.70</speed><time>2017-03-19T14:51:37Z</time><pdop>3.0</pdop><geoidheight>0.00</geoidheight><course>327.6</course><type>1</type></trkpt>
      <trkpt lat="42.99914473" lon="-2.40024617"><ele>1396</ele><speed>6.28</speed><time>2017-03-19T14:51:38Z</time><pdop>3.0</pdop><geoidheight>0.00</geoidheight><course>330.0</course><type>1</type></trkpt>
      <trkpt lat="42.99921538" lon="-2.40031527"><ele>1395</ele><speed>4.66</speed><time>2017-03-19T14:51:40Z</time><pdop>3.0</pdop><geoidheight>0.00</geoidheight><course>325.2</course><type>1</type></trkpt>
      <trkpt lat="42.99927207" lon="-2.40037787"><ele>1394</ele><speed>4.19</speed><time>2017-03-19T14:51:42Z</time><pdop>3.0</pdop><geoidheight>0.00</geoidheight><course>325.1</course><type>1</type></trkpt>
      <trkpt lat="42.99936078" lon="-2.40042568"><ele>1391</ele><speed>5.43</speed><time>2017-03-19T14:51:44Z</time><pdop>3.0</pdop><geoidheight>0.00</geoidheight><course>341.8</course><type>1</type></trkpt>
      <trkpt lat="42.999413" lon="-2.40044476"><ele>1390</ele><speed>5.83</speed><time>2017-03-19T14:51:45Z</time><pdop>3.0</pdop><geoidheight>0.00</geoidheight><course>346.0</course><type>1</type></trkpt>
      <trkpt lat="42.99946549" lon="-2.40047567"><ele>1389</ele><speed>6.17</speed><time>2017-03-19T14:51:46Z</time><pdop>3.0</pdop><geoidheight>0.00</geoidheight><course>336.8</course><type>1</type></trkpt>
      <trkpt lat="42.99951208" lon="-2.40051928"><ele>1388</ele><speed>6.34</speed><time>2017-03-19T14:51:47Z</time><pdop>3.0</pdop><geoidheight>0.00</geoidheight><course>326.4</course><type>1</type></trkpt>
      <trkpt lat="42.99955824" lon="-2.400584"><ele>1386</ele><speed>6.84</speed><time>2017-03-19T14:51:48Z</time><pdop>3.0</pdop><geoidheight>0.00</geoidheight><course>313.8</course><type>1</type></trkpt>
      <trkpt lat="42.99962831" lon="-2.40069646"><ele>1385</ele><speed>6.23</speed><time>2017-03-19T14:51:50Z</time><pdop>3.0</pdop><geoidheight>0.00</geoidheight><course>311.7</course><type>1</type></trkpt>
      <trkpt lat="42.99966587" lon="-2.40075222"><ele>1384</ele><speed>6.27</speed><time>2017-03-19T14:51:51Z</time><pdop>3.0</pdop><geoidheight>0.00</geoidheight><course>312.9</course><type>1</type></trkpt>
      <trkpt lat="42.99970614" lon="-2.40081183"><ele>1383</ele><speed>6.28</speed><time>2017-03-19T14:51:52Z</time><pdop>3.0</pdop><geoidheight>0.00</geoidheight><course>311.2</course><type>1</type></trkpt>
      <trkpt lat="42.99974429" lon="-2.40087472"><ele>1382</ele><speed>6.69</speed><time>2017-03-19T14:51:53Z</time><pdop>3.0</pdop><geoidheight>0.00</geoidheight><course>309.5</course><type>1</type></trkpt>
      <trkpt lat="42.99978422" lon="-2.40094307"><ele>1381</ele><speed>6.94</speed><time>2017-03-19T14:51:54Z</time><pdop>3.0</pdop><geoidheight>0.00</geoidheight><course>307.8</course><type>1</type></trkpt>
      <trkpt lat="42.99981963" lon="-2.40101277"><ele>1380</ele><speed>7.15</speed><time>2017-03-19T14:51:55Z</time><pdop>3.0</pdop><geoidheight>0.00</geoidheight><course>304.7</course><type>1</type></trkpt>
      <trkpt lat="42.99985302" lon="-2.4010834"><ele>1379</ele><speed>6.93</speed><time>2017-03-19T14:51:56Z</time><pdop>3.0</pdop><geoidheight>0.00</geoidheight><course>304.5</course><type>1</type></trkpt>
      <trkpt lat="42.9998862" lon="-2.40115002"><ele>1379</ele><speed>6.62</speed><time>2017-03-19T14:51:57Z</time><pdop>3.0</pdop><geoidheight>0.00</geoidheight><course>304.9</course><type>1</type></trkpt>
      <trkpt lat="42.99991734" lon="-2.40122392"><ele>1377</ele><speed>6.47</speed><time>2017-03-19T14:51:58Z</time><pdop>3.0</pdop><geoidheight>0.00</geoidheight><course>303.3</course><type>1</type></trkpt>
      <trkpt lat="42.99995008" lon="-2.40129827"><ele>1376</ele><speed>6.71</speed><time>2017-03-19T14:51:59Z</time><pdop>3.0</pdop><geoidheight>0.00</geoidheight><course>302.5</course><type>1</type></trkpt>
      <trkpt lat="42.99998921" lon="-2.40137078"><ele>1374</ele><speed>7.33</speed><time>2017-03-19T14:52:00Z</time><pdop>3.0</pdop><geoidheight>0.00</geoidheight><course>305.6</course><type>1</type></trkpt>
      <trkpt lat="43.00003372" lon="-2.40144987"><ele>1372</ele><speed>7.94</speed><time>2017-03-19T14:52:01Z</time><pdop>3.0</pdop><geoidheight>0.00</geoidheight><course>308.8</course><type>1</type></trkpt>
      <trkpt lat="43.00008015" lon="-2.40151879"><ele>1372</ele><speed>7.60</speed><time>2017-03-19T14:52:02Z</time><pdop>3.0</pdop><geoidheight>0.00</geoidheight><course>309.9</course><type>1</type></trkpt>
      <trkpt lat="43.00011323" lon="-2.40158065"><ele>1372</ele><speed>6.52</speed><time>2017-03-19T14:52:03Z</time><pdop>3.0</pdop><geoidheight>0.00</geoidheight><course>305.7</course><type>1</type></trkpt>
      <trkpt lat="43.0001583" lon="-2.40170325"><ele>1371</ele><speed>5.78</speed><time>2017-03-19T14:52:05Z</time><pdop>3.0</pdop><geoidheight>0.00</geoidheight><course>295.1</course><type>1</type></trkpt>
      <trkpt lat="43.0002169" lon="-2.40181594"><ele>1369</ele><speed>5.98</speed><time>2017-03-19T14:52:07Z</time><pdop>3.0</pdop><geoidheight>0.00</geoidheight><course>309.1</course><type>1</type></trkpt>
      <trkpt lat="43.00025505" lon="-2.4018721"><ele>1368</ele><speed>5.76</speed><time>2017-03-19T14:52:08Z</time><pdop>3.0</pdop><geoidheight>0.00</geoidheight><course>312.6</course><type>1</type></trkpt>
      <trkpt lat="43.00032332" lon="-2.40199094"><ele>1366</ele><speed>6.15</speed><time>2017-03-19T14:52:10Z</time><pdop>3.0</pdop><geoidheight>0.00</geoidheight><course>308.2</course><type>1</type></trkpt>
      <trkpt lat="43.00039455" lon="-2.40213314"><ele>1366</ele><speed>7.33</speed><time>2017-03-19T14:52:12Z</time><pdop>3.0</pdop><geoidheight>0.00</geoidheight><course>302.3</course><type>1</type></trkpt>
      <trkpt lat="43.00042981" lon="-2.40220932"><ele>1367</ele><speed>7.64</speed><time>2017-03-19T14:52:13Z</time><pdop>3.0</pdop><geoidheight>0.00</geoidheight><course>301.5</course><type>1</type></trkpt>
      <trkpt lat="43.00046603" lon="-2.4022864"><ele>1368</ele><speed>7.69</speed><time>2017-03-19T14:52:14Z</time><pdop>3.0</pdop><geoidheight>0.00</geoidheight><course>303.3</course><type>1</type></trkpt>
      <trkpt lat="43.00050519" lon="-2.40236037"><ele>1368</ele><speed>7.62</speed><time>2017-03-19T14:52:15Z</time><pdop>3.0</pdop><geoidheight>0.00</geoidheight><course>304.9</course><type>1</type></trkpt>
      <trkpt lat="43.00054217" lon="-2.40243352"><ele>1370</ele><speed>7.21</speed><time>2017-03-19T14:52:16Z</time><pdop>3.0</pdop><geoidheight>0.00</geoidheight><course>304.1</course><type>1</type></trkpt>
      <trkpt lat="43.00063104" lon="-2.4024438"><ele>1370</ele><speed>5.19</speed><time>2017-03-19T14:52:18Z</time><pdop>3.0</pdop><geoidheight>0.00</geoidheight><course>351.3</course><type>1</type></trkpt>
      <trkpt lat="43.00073794" lon="-2.40245498"><ele>1369</ele><speed>6.11</speed><time>2017-03-19T14:52:20Z</time><pdop>3.0</pdop><geoidheight>0.00</geoidheight><course>2.8</course><type>1</type></trkpt>
      <trkpt lat="43.00079644" lon="-2.40245712"><ele>1369</ele><speed>6.16</speed><time>2017-03-19T14:52:21Z</time><pdop>3.0</pdop><geoidheight>0.00</geoidheight><course>2.3</course><type>1</type></trkpt>
      <trkpt lat="43.0008917" lon="-2.40245822"><ele>1370</ele><speed>4.80</speed><time>2017-03-19T14:52:23Z</time><pdop>3.0</pdop><geoidheight>0.00</geoidheight><course>0.9</course><type>1</type></trkpt>
      <trkpt lat="43.00098144" lon="-2.40247084"><ele>1372</ele><speed>5.62</speed><time>2017-03-19T14:52:25Z</time><pdop>3.0</pdop><geoidheight>0.00</geoidheight><course>347.6</course><type>1</type></trkpt>
      <trkpt lat="43.00107022" lon="-2.40251395"><ele>1374</ele><speed>6.14</speed><time>2017-03-19T14:52:27Z</time><pdop>3.0</pdop><geoidheight>0.00</geoidheight><course>326.9</course><type>1</type></trkpt>
      <trkpt lat="43.00107967" lon="-2.40265532"><ele>1374</ele><speed>7.17</speed><time>2017-03-19T14:52:29Z</time><pdop>3.0</pdop><geoidheight>0.00</geoidheight><course>266.0</course><type>1</type></trkpt>
      <trkpt lat="43.00104395" lon="-2.40274233"><ele>1375</ele><speed>8.65</speed><time>2017-03-19T14:52:30Z</time><pdop>3.0</pdop><geoidheight>0.00</geoidheight><course>245.9</course><type>1</type></trkpt>
      <trkpt lat="43.0009847" lon="-2.40282683"><ele>1376</ele><speed>9.28</speed><time>2017-03-19T14:52:31Z</time><pdop>3.0</pdop><geoidheight>0.00</geoidheight><course>227.3</course><type>1</type></trkpt>
      <trkpt lat="43.00090962" lon="-2.40287132"><ele>1376</ele><speed>9.53</speed><time>2017-03-19T14:52:32Z</time><pdop>3.0</pdop><geoidheight>0.00</geoidheight><course>204.3</course><type>1</type></trkpt>
      <trkpt lat="43.00082226" lon="-2.40286019"><ele>1376</ele><speed>10.29</speed><time>2017-03-19T14:52:33Z</time><pdop>3.0</pdop><geoidheight>0.00</geoidheight><course>179.4</course><type>1</type></trkpt>
      <trkpt lat="43.00072919" lon="-2.40280152"><ele>1376</ele><speed>11.40</speed><time>2017-03-19T14:52:34Z</time><pdop>3.0</pdop><geoidheight>0.00</geoidheight><course>157.4</course><type>1</type></trkpt>
      <trkpt lat="43.0006515" lon="-2.40270425"><ele>1377</ele><speed>11.58</speed><time>2017-03-19T14:52:35Z</time><pdop>3.0</pdop><geoidheight>0.00</geoidheight><course>139.6</course><type>1</type></trkpt>
      <trkpt lat="43.00059997" lon="-2.40259587"><ele>1378</ele><speed>10.63</speed><time>2017-03-19T14:52:36Z</time><pdop>3.0</pdop><geoidheight>0.00</geoidheight><course>124.1</course><type>1</type></trkpt>
      <trkpt lat="43.00057523" lon="-2.40249006"><ele>1379</ele><speed>9.34</speed><time>2017-03-19T14:52:37Z</time><pdop>3.0</pdop><geoidheight>0.00</geoidheight><course>107.8</course><type>1</type></trkpt>
      <trkpt lat="43.00057318" lon="-2.40238923"><ele>1379</ele><speed>8.30</speed><time>2017-03-19T14:52:38Z</time><pdop>3.0</pdop><geoidheight>0.00</geoidheight><course>92.5</course><type>1</type></trkpt>
      <trkpt lat="43.00058615" lon="-2.40229892"><ele>1381</ele><speed>7.53</speed><time>2017-03-19T14:52:39Z</time><pdop>3.0</pdop><geoidheight>0.00</geoidheight><course>81.3</course><type>1</type></trkpt>
      <trkpt lat="43.00060023" lon="-2.4022172"><ele>1383</ele><speed>6.68</speed><time>2017-03-19T14:52:40Z</time><pdop>3.0</pdop><geoidheight>0.00</geoidheight><course>75.4</course><type>1</type></trkpt>
      <trkpt lat="43.00063676" lon="-2.40211004"><ele>1384</ele><speed>4.55</speed><time>2017-03-19T14:52:42Z</time><pdop>3.0</pdop><geoidheight>0.00</geoidheight><course>59.9</course><type>1</type></trkpt>
      <trkpt lat="43.00070808" lon="-2.40205732"><ele>1384</ele><speed>4.71</speed><time>2017-03-19T14:52:44Z</time><pdop>3.0</pdop><geoidheight>0.00</geoidheight><course>25.9</course><type>1</type></trkpt>
      <trkpt lat="43.00077783" lon="-2.40199613"><ele>1384</ele><speed>4.90</speed><time>2017-03-19T14:52:46Z</time><pdop>3.0</pdop><geoidheight>0.00</geoidheight><course>35.9</course><type>1</type></trkpt>
      <trkpt lat="43.00086439" lon="-2.40192333"><ele>1385</ele><speed>5.53</speed><time>2017-03-19T14:52:48Z</time><pdop>3.0</pdop><geoidheight>0.00</geoidheight><course>27.5</course><type>1</type></trkpt>
      <trkpt lat="43.00095951" lon="-2.40188516"><ele>1385</ele><speed>5.60</speed><time>2017-03-19T14:52:50Z</time><pdop>3.0</pdop><geoidheight>0.00</geoidheight><course>14.6</course><type>1</type></trkpt>
      <trkpt lat="43.00101685" lon="-2.40189349"><ele>1385</ele><speed>5.71</speed><time>2017-03-19T14:52:51Z</time><pdop>3.0</pdop><geoidheight>0.00</geoidheight><course>7.2</course><type>1</type></trkpt>
      <trkpt lat="43.00107987" lon="-2.40189668"><ele>1386</ele><speed>5.93</speed><time>2017-03-19T14:52:52Z</time><pdop>3.0</pdop><geoidheight>0.00</geoidheight><course>2.8</course><type>1</type></trkpt>
      <trkpt lat="43.00113365" lon="-2.40191151"><ele>1385</ele><speed>6.08</speed><time>2017-03-19T14:52:53Z</time><pdop>3.0</pdop><geoidheight>0.00</geoidheight><course>357.0</course><type>1</type></trkpt>
      <trkpt lat="43.0012319" lon="-2.40193464"><ele>1386</ele><speed>5.54</speed><time>2017-03-19T14:52:55Z</time><pdop>3.0</pdop><geoidheight>0.00</geoidheight><course>347.6</course><type>1</type></trkpt>
      <trkpt lat="43.0013138" lon="-2.40204896"><ele>1386</ele><speed>6.25</speed><time>2017-03-19T14:52:57Z</time><pdop>3.0</pdop><geoidheight>0.00</geoidheight><course>318.3</course><type>1</type></trkpt>
      <trkpt lat="43.00135477" lon="-2.40211783"><ele>1385</ele><speed>6.91</speed><time>2017-03-19T14:52:58Z</time><pdop>3.0</pdop><geoidheight>0.00</geoidheight><course>312.5</course><type>1</type></trkpt>
      <trkpt lat="43.00139999" lon="-2.40218339"><ele>1384</ele><speed>7.60</speed><time>2017-03-19T14:52:59Z</time><pdop>3.0</pdop><geoidheight>0.00</geoidheight><course>309.6</course><type>1</type></trkpt>
      <trkpt lat="43.00144765" lon="-2.40228921"><ele>1382</ele><speed>8.69</speed><time>2017-03-19T14:53:00Z</time><pdop>3.0</pdop><geoidheight>0.00</geoidheight><course>304.2</course><type>1</type></trkpt>
      <trkpt lat="43.00148585" lon="-2.40236775"><ele>1381</ele><speed>8.41</speed><time>2017-03-19T14:53:01Z</time><pdop>3.0</pdop><geoidheight>0.00</geoidheight><course>302.5</course><type>1</type></trkpt>
      <trkpt lat="43.0015232" lon="-2.40245973"><ele>1381</ele><speed>7.79</speed><time>2017-03-19T14:53:02Z</time><pdop>3.0</pdop><geoidheight>0.00</geoidheight><course>302.5</course><type>1</type></trkpt>
      <trkpt lat="43.00155982" lon="-2.40252258"><ele>1380</ele><speed>7.03</speed><time>2017-03-19T14:53:03Z</time><pdop>3.0</pdop><geoidheight>0.00</geoidheight><course>307.1</course><type>1</type></trkpt>
      <trkpt lat="43.001599" lon="-2.40259463"><ele>1377</ele><speed>7.32</speed><time>2017-03-19T14:53:04Z</time><pdop>3.0</pdop><geoidheight>0.00</geoidheight><course>307.2</course><type>1</type></trkpt>
      <trkpt lat="43.00164429" lon="-2.4026898"><ele>1375</ele><speed>8.55</speed><time>2017-03-19T14:53:05Z</time><pdop>3.0</pdop><geoidheight>0.00</geoidheight><course>304.1</course><type>1</type></trkpt>
      <trkpt lat="43.00169072" lon="-2.40278465"><ele>1374</ele><speed>9.67</speed><time>2017-03-19T14:53:06Z</time><pdop>3.0</pdop><geoidheight>0.00</geoidheight><course>303.8</course><type>1</type></trkpt>
      <trkpt lat="43.00173861" lon="-2.40288023"><ele>1373</ele><speed>9.45</speed><time>2017-03-19T14:53:07Z</time><pdop>3.0</pdop><geoidheight>0.00</geoidheight><course>305.9</course><type>1</type></trkpt>
      <trkpt lat="43.00178304" lon="-2.40295971"><ele>1373</ele><speed>8.24</speed><time>2017-03-19T14:53:08Z</time><pdop>3.0</pdop><geoidheight>0.00</geoidheight><course>305.3</course><type>1</type></trkpt>
      <trkpt lat="43.0018162" lon="-2.4030346"><ele>1372</ele><speed>7.48</speed><time>2017-03-19T14:53:09Z</time><pdop>3.0</pdop><geoidheight>0.00</geoidheight><course>302.3</course><type>1</type></trkpt>
      <trkpt lat="43.00184939" lon="-2.40313357"><ele>1371</ele><speed>7.92</speed><time>2017-03-19T14:53:10Z</time><pdop>3.0</pdop><geoidheight>0.00</geoidheight><course>297.6</course><type>1</type></trkpt>
      <trkpt lat="43.00189067" lon="-2.40323915"><ele>1369</ele><speed>9.31</speed><time>2017-03-19T14:53:11Z</time><pdop>3.0</pdop><geoidheight>0.00</geoidheight><course>296.8</course><type>1</type></trkpt>
      <trkpt lat="43.00193226" lon="-2.40333624"><ele>1370</ele><speed>10.01</speed><time>2017-03-19T14:53:12Z</time><pdop>3.0</pdop><geoidheight>0.00</geoidheight><course>298.1</course><type>1</type></trkpt>
      <trkpt lat="43.00197023" lon="-2.40342907"><ele>1370</ele><speed>8.86</speed><time>2017-03-19T14:53:13Z</time><pdop>3.0</pdop><geoidheight>0.00</geoidheight><course>300.4</course><type>1</type></trkpt>
      <trkpt lat="43.00200608" lon="-2.40350685"><ele>1370</ele><speed>7.45</speed><time>2017-03-19T14:53:14Z</time><pdop>3.0</pdop><geoidheight>0.00</geoidheight><course>300.2</course><type>1</type></trkpt>
      <trkpt lat="43.00203453" lon="-2.40357996"><ele>1370</ele><speed>6.98</speed><time>2017-03-19T14:53:15Z</time><pdop>3.0</pdop><geoidheight>0.00</geoidheight><course>297.2</course><type>1</type></trkpt>
      <trkpt lat="43.00206339" lon="-2.40366631"><ele>1368</ele><speed>7.83</speed><time>2017-03-19T14:53:16Z</time><pdop>3.0</pdop><geoidheight>0.00</geoidheight><course>294.7</course><type>1</type></trkpt>
      <trkpt lat="43.0020966" lon="-2.40376607"><ele>1367</ele><speed>8.95</speed><time>2017-03-19T14:53:17Z</time><pdop>3.0</pdop><geoidheight>0.00</geoidheight><course>294.9</course><type>1</type></trkpt>
      <trkpt lat="43.00213559" lon="-2.40386506"><ele>1367</ele><speed>9.39</speed><time>2017-03-19T14:53:18Z</time><pdop>3.0</pdop><geoidheight>0.00</geoidheight><course>296.1</course><type>1</type></trkpt>
      <trkpt lat="43.00217521" lon="-2.40396802"><ele>1367</ele><speed>9.24</speed><time>2017-03-19T14:53:19Z</time><pdop>3.0</pdop><geoidheight>0.00</geoidheight><course>297.2</course><type>1</type></trkpt>
      <trkpt lat="43.00221156" lon="-2.40406212"><ele>1367</ele><speed>8.49</speed><time>2017-03-19T14:53:20Z</time><pdop>3.0</pdop><geoidheight>0.00</geoidheight><course>297.5</course><type>1</type></trkpt>
      <trkpt lat="43.00224702" lon="-2.40414608"><ele>1368</ele><speed>8.06</speed><time>2017-03-19T14:53:21Z</time><pdop>3.0</pdop><geoidheight>0.00</geoidheight><course>298.0</course><type>1</type></trkpt>
      <trkpt lat="43.00228253" lon="-2.40423615"><ele>1367</ele><speed>8.43</speed><time>2017-03-19T14:53:22Z</time><pdop>3.0</pdop><geoidheight>0.00</geoidheight><course>298.3</course><type>1</type></trkpt>
      <trkpt lat="43.00232335" lon="-2.40433573"><ele>1366</ele><speed>9.23</speed><time>2017-03-19T14:53:23Z</time><pdop>3.0</pdop><geoidheight>0.00</geoidheight><course>298.2</course><type>1</type></trkpt>
      <trkpt lat="43.00236697" lon="-2.40444061"><ele>1365</ele><speed>9.53</speed><time>2017-03-19T14:53:24Z</time><pdop>3.0</pdop><geoidheight>0.00</geoidheight><course>298.7</course><type>1</type></trkpt>
      <trkpt lat="43.00240872" lon="-2.40453712"><ele>1365</ele><speed>9.33</speed><time>2017-03-19T14:53:25Z</time><pdop>3.0</pdop><geoidheight>0.00</geoidheight><course>300.3</course><type>1</type></trkpt>
      <trkpt lat="43.00245147" lon="-2.4046228"><ele>1365</ele><speed>8.84</speed><time>2017-03-19T14:53:26Z</time><pdop>3.0</pdop><geoidheight>0.00</geoidheight><course>303.6</course><type>1</type></trkpt>
      <trkpt lat="43.00249466" lon="-2.4047077"><ele>1365</ele><speed>8.45</speed><time>2017-03-19T14:53:27Z</time><pdop>3.0</pdop><geoidheight>0.00</geoidheight><course>307.7</course><type>1</type></trkpt>
      <trkpt lat="43.00254367" lon="-2.40478491"><ele>1364</ele><speed>8.19</speed><time>2017-03-19T14:53:28Z</time><pdop>3.0</pdop><geoidheight>0.00</geoidheight><course>311.5</course><type>1</type></trkpt>
      <trkpt lat="43.00258922" lon="-2.40486526"><ele>1362</ele><speed>8.13</speed><time>2017-03-19T14:53:29Z</time><pdop>3.0</pdop><geoidheight>0.00</geoidheight><course>314.5</course><type>1</type></trkpt>
      <trkpt lat="43.00264286" lon="-2.40493774"><ele>1361</ele><speed>8.41</speed><time>2017-03-19T14:53:30Z</time><pdop>3.0</pdop><geoidheight>0.00</geoidheight><course>317.1</course><type>1</type></trkpt>
      <trkpt lat="43.0027007" lon="-2.40500541"><ele>1360</ele><speed>8.67</speed><time>2017-03-19T14:53:31Z</time><pdop>3.0</pdop><geoidheight>0.00</geoidheight><course>319.9</course><type>1</type></trkpt>
      <trkpt lat="43.00276004" lon="-2.40506703"><ele>1360</ele><speed>8.35</speed><time>2017-03-19T14:53:32Z</time><pdop>3.0</pdop><geoidheight>0.00</geoidheight><course>322.4</course><type>1</type></trkpt>
      <trkpt lat="43.00281665" lon="-2.40512245"><ele>1359</ele><speed>7.77</speed><time>2017-03-19T14:53:33Z</time><pdop>3.0</pdop><geoidheight>0.00</geoidheight><course>324.6</course><type>1</type></trkpt>
      <trkpt lat="43.00286998" lon="-2.40517327"><ele>1358</ele><speed>7.31</speed><time>2017-03-19T14:53:34Z</time><pdop>3.0</pdop><geoidheight>0.00</geoidheight><course>325.7</course><type>1</type></trkpt>
      <trkpt lat="43.00292336" lon="-2.40522804"><ele>1357</ele><speed>7.42</speed><time>2017-03-19T14:53:35Z</time><pdop>3.0</pdop><geoidheight>0.00</geoidheight><course>326.3</course><type>1</type></trkpt>
      <trkpt lat="43.00298563" lon="-2.40528518"><ele>1356</ele><speed>8.08</speed><time>2017-03-19T14:53:36Z</time><pdop>3.0</pdop><geoidheight>0.00</geoidheight><course>326.0</course><type>1</type></trkpt>
      <trkpt lat="43.00305267" lon="-2.40535461"><ele>1355</ele><speed>8.60</speed><time>2017-03-19T14:53:37Z</time><pdop>3.0</pdop><geoidheight>0.00</geoidheight><course>325.9</course><type>1</type></trkpt>
      <trkpt lat="43.00311764" lon="-2.40541487"><ele>1355</ele><speed>8.50</speed><time>2017-03-19T14:53:38Z</time><pdop>3.0</pdop><geoidheight>0.00</geoidheight><course>326.8</course><type>1</type></trkpt>
      <trkpt lat="43.00317757" lon="-2.40547241"><ele>1354</ele><speed>7.96</speed><time>2017-03-19T14:53:39Z</time><pdop>3.0</pdop><geoidheight>0.00</geoidheight><course>327.0</course><type>1</type></trkpt>
      <trkpt lat="43.00323063" lon="-2.40552112"><ele>1354</ele><speed>7.40</speed><time>2017-03-19T14:53:40Z</time><pdop>3.0</pdop><geoidheight>0.00</geoidheight><course>326.6</course><type>1</type></trkpt>
      <trkpt lat="43.00328436" lon="-2.40557513"><ele>1353</ele><speed>7.29</speed><time>2017-03-19T14:53:41Z</time><pdop>3.0</pdop><geoidheight>0.00</geoidheight><course>326.5</course><type>1</type></trkpt>
      <trkpt lat="43.0033436" lon="-2.40562451"><ele>1351</ele><speed>7.67</speed><time>2017-03-19T14:53:42Z</time><pdop>3.0</pdop><geoidheight>0.00</geoidheight><course>327.6</course><type>1</type></trkpt>
      <trkpt lat="43.00340811" lon="-2.40567586"><ele>1350</ele><speed>8.13</speed><time>2017-03-19T14:53:43Z</time><pdop>3.0</pdop><geoidheight>0.00</geoidheight><course>328.6</course><type>1</type></trkpt>
      <trkpt lat="43.00347454" lon="-2.40572837"><ele>1349</ele><speed>8.30</speed><time>2017-03-19T14:53:44Z</time><pdop>3.0</pdop><geoidheight>0.00</geoidheight><course>328.4</course><type>1</type></trkpt>
      <trkpt lat="43.00353511" lon="-2.40577935"><ele>1348</ele><speed>8.07</speed><time>2017-03-19T14:53:45Z</time><pdop>3.0</pdop><geoidheight>0.00</geoidheight><course>327.0</course><type>1</type></trkpt>
      <trkpt lat="43.00359124" lon="-2.4058332"><ele>1348</ele><speed>7.72</speed><time>2017-03-19T14:53:46Z</time><pdop>3.0</pdop><geoidheight>0.00</geoidheight><course>325.5</course><type>1</type></trkpt>
      <trkpt lat="43.00364665" lon="-2.40588597"><ele>1347</ele><speed>7.53</speed><time>2017-03-19T14:53:47Z</time><pdop>3.0</pdop><geoidheight>0.00</geoidheight><course>325.1</course><type>1</type></trkpt>
      <trkpt lat="43.00370403" lon="-2.4059392"><ele>1346</ele><speed>7.78</speed><time>2017-03-19T14:53:48Z</time><pdop>3.0</pdop><geoidheight>0.00</geoidheight><course>325.9</course><type>1</type></trkpt>
      <trkpt lat="43.00376654" lon="-2.40599212"><ele>1345</ele><speed>8.25</speed><time>2017-03-19T14:53:49Z</time><pdop>3.0</pdop><geoidheight>0.00</geoidheight><course>326.9</course><type>1</type></trkpt>
      <trkpt lat="43.00382705" lon="-2.4060439"><ele>1344</ele><speed>8.11</speed><time>2017-03-19T14:53:50Z</time><pdop>3.0</pdop><geoidheight>0.00</geoidheight><course>328.6</course><type>1</type></trkpt>
      <trkpt lat="43.00388658" lon="-2.40608099"><ele>1343</ele><speed>7.25</speed><time>2017-03-19T14:53:51Z</time><pdop>3.0</pdop><geoidheight>0.00</geoidheight><course>333.9</course><type>1</type></trkpt>
      <trkpt lat="43.00399655" lon="-2.40610041"><ele>1341</ele><speed>6.32</speed><time>2017-03-19T14:53:53Z</time><pdop>3.0</pdop><geoidheight>0.00</geoidheight><course>357.4</course><type>1</type></trkpt>
      <trkpt lat="43.00405965" lon="-2.40607868"><ele>1339</ele><speed>7.07</speed><time>2017-03-19T14:53:54Z</time><pdop>3.0</pdop><geoidheight>0.00</geoidheight><course>10.1</course><type>1</type></trkpt>
      <trkpt lat="43.00412396" lon="-2.40604781"><ele>1338</ele><speed>7.64</speed><time>2017-03-19T14:53:55Z</time><pdop>3.0</pdop><geoidheight>0.00</geoidheight><course>21.6</course><type>1</type></trkpt>
      <trkpt lat="43.00417676" lon="-2.40598721"><ele>1337</ele><speed>7.59</speed><time>2017-03-19T14:53:56Z</time><pdop>3.0</pdop><geoidheight>0.00</geoidheight><course>35.8</course><type>1</type></trkpt>
      <trkpt lat="43.00421557" lon="-2.40591743"><ele>1336</ele><speed>7.16</speed><time>2017-03-19T14:53:57Z</time><pdop>3.0</pdop><geoidheight>0.00</geoidheight><course>50.1</course><type>1</type></trkpt>
      <trkpt lat="43.00423976" lon="-2.40583861"><ele>1334</ele><speed>6.89</speed><time>2017-03-19T14:53:58Z</time><pdop>3.0</pdop><geoidheight>0.00</geoidheight><course>64.2</course><type>1</type></trkpt>
      <trkpt lat="43.00425435" lon="-2.40575284"><ele>1333</ele><speed>6.68</speed><time>2017-03-19T14:53:59Z</time><pdop>3.0</pdop><geoidheight>0.00</geoidheight><course>75.7</course><type>1</type></trkpt>
      <trkpt lat="43.00425531" lon="-2.40566304"><ele>1332</ele><speed>7.20</speed><time>2017-03-19T14:54:00Z</time><pdop>3.0</pdop><geoidheight>0.00</geoidheight><course>87.2</course><type>1</type></trkpt>
      <trkpt lat="43.00424531" lon="-2.40556971"><ele>1331</ele><speed>7.67</speed><time>2017-03-19T14:54:01Z</time><pdop>3.0</pdop><geoidheight>0.00</geoidheight><course>98.3</course><type>1</type></trkpt>
      <trkpt lat="43.00421495" lon="-2.40547136"><ele>1331</ele><speed>7.77</speed><time>2017-03-19T14:54:02Z</time><pdop>3.0</pdop><geoidheight>0.00</geoidheight><course>111.9</course><type>1</type></trkpt>
      <trkpt lat="43.00417726" lon="-2.40539212"><ele>1330</ele><speed>7.84</speed><time>2017-03-19T14:54:03Z</time><pdop>3.0</pdop><geoidheight>0.00</geoidheight><course>123.8</course><type>1</type></trkpt>
      <trkpt lat="43.00412874" lon="-2.40532227"><ele>1329</ele><speed>7.95</speed><time>2017-03-19T14:54:04Z</time><pdop>3.0</pdop><geoidheight>0.00</geoidheight><course>133.7</course><type>1</type></trkpt>
      <trkpt lat="43.00407135" lon="-2.40525791"><ele>1328</ele><speed>8.21</speed><time>2017-03-19T14:54:05Z</time><pdop>3.0</pdop><geoidheight>0.00</geoidheight><course>140.7</course><type>1</type></trkpt>
      <trkpt lat="43.00400586" lon="-2.40519866"><ele>1327</ele><speed>8.48</speed><time>2017-03-19T14:54:06Z</time><pdop>3.0</pdop><geoidheight>0.00</geoidheight><course>146.0</course><type>1</type></trkpt>
      <trkpt lat="43.00393281" lon="-2.40514127"><ele>1325</ele><speed>8.81</speed><time>2017-03-19T14:54:07Z</time><pdop>3.0</pdop><geoidheight>0.00</geoidheight><course>149.3</course><type>1</type></trkpt>
      <trkpt lat="43.00386368" lon="-2.4050812"><ele>1324</ele><speed>9.16</speed><time>2017-03-19T14:54:08Z</time><pdop>3.0</pdop><geoidheight>0.00</geoidheight><course>150.5</course><type>1</type></trkpt>
      <trkpt lat="43.00379332" lon="-2.40502302"><ele>1323</ele><speed>9.22</speed><time>2017-03-19T14:54:09Z</time><pdop>3.0</pdop><geoidheight>0.00</geoidheight><course>148.8</course><type>1</type></trkpt>
      <trkpt lat="43.00372436" lon="-2.40495933"><ele>1322</ele><speed>9.16</speed><time>2017-03-19T14:54:10Z</time><pdop>3.0</pdop><geoidheight>0.00</geoidheight><course>144.7</course><type>1</type></trkpt>
      <trkpt lat="43.0036559" lon="-2.40489179"><ele>1321</ele><speed>9.37</speed><time>2017-03-19T14:54:11Z</time><pdop>3.0</pdop><geoidheight>0.00</geoidheight><course>143.8</course><type>1</type></trkpt>
      <trkpt lat="43.00358486" lon="-2.40483146"><ele>1321</ele><speed>9.60</speed><time>2017-03-19T14:54:12Z</time><pdop>3.0</pdop><geoidheight>0.00</geoidheight><course>148.7</course><type>1</type></trkpt>
      <trkpt lat="43.00350333" lon="-2.40478122"><ele>1320</ele><speed>9.90</speed><time>2017-03-19T14:54:13Z</time><pdop>3.0</pdop><geoidheight>0.00</geoidheight><course>157.2</course><type>1</type></trkpt>
      <trkpt lat="43.00341372" lon="-2.40475307"><ele>1319</ele><speed>10.17</speed><time>2017-03-19T14:54:14Z</time><pdop>3.0</pdop><geoidheight>0.00</geoidheight><course>164.8</course><type>1</type></trkpt>
      <trkpt lat="43.00332309" lon="-2.40472602"><ele>1319</ele><speed>10.38</speed><time>2017-03-19T14:54:15Z</time><pdop>3.0</pdop><geoidheight>0.00</geoidheight><course>167.6</course><type>1</type></trkpt>
      <trkpt lat="43.00323427" lon="-2.40470283"><ele>1319</ele><speed>10.22</speed><time>2017-03-19T14:54:16Z</time><pdop>3.0</pdop><geoidheight>0.00</geoidheight><course>168.6</course><type>1</type></trkpt>
      <trkpt lat="43.00314577" lon="-2.40467338"><ele>1319</ele><speed>10.09</speed><time>2017-03-19T14:54:17Z</time><pdop>3.0</pdop><geoidheight>0.00</geoidheight><course>166.5</course><type>1</type></trkpt>
      <trkpt lat="43.00306272" lon="-2.40464257"><ele>1318</ele><speed>9.96</speed><time>2017-03-19T14:54:18Z</time><pdop>3.0</pdop><geoidheight>0.00</geoidheight><course>164.2</course><type>1</type></trkpt>
      <trkpt lat="43.00297971" lon="-2.40460799"><ele>1318</ele><speed>9.92</speed><time>2017-03-19T14:54:19Z</time><pdop>3.0</pdop><geoidheight>0.00</geoidheight><course>163.1</course><type>1</type></trkpt>
      <trkpt lat="43.00289307" lon="-2.40456984"><ele>1318</ele><speed>9.92</speed><time>2017-03-19T14:54:20Z</time><pdop>3.0</pdop><geoidheight>0.00</geoidheight><course>163.0</course><type>1</type></trkpt>
      <trkpt lat="43.00280935" lon="-2.40453544"><ele>1318</ele><speed>9.49</speed><time>2017-03-19T14:54:21Z</time><pdop>3.0</pdop><geoidheight>0.00</geoidheight><course>164.8</course><type>1</type></trkpt>
      <trkpt lat="43.00272447" lon="-2.40450767"><ele>1317</ele><speed>9.46</speed><time>2017-03-19T14:54:22Z</time><pdop>3.0</pdop><geoidheight>0.00</geoidheight><course>167.7</course><type>1</type></trkpt>
      <trkpt lat="43.00264364" lon="-2.4044809"><ele>1317</ele><speed>9.43</speed><time>2017-03-19T14:54:23Z</time><pdop>3.0</pdop><geoidheight>0.00</geoidheight><course>168.1</course><type>1</type></trkpt>
      <trkpt lat="43.0025614" lon="-2.40445247"><ele>1317</ele><speed>9.26</speed><time>2017-03-19T14:54:24Z</time><pdop>3.0</pdop><geoidheight>0.00</geoidheight><course>166.0</course><type>1</type></trkpt>
      <trkpt lat="43.00248077" lon="-2.40441848"><ele>1317</ele><speed>9.31</speed><time>2017-03-19T14:54:25Z</time><pdop>3.0</pdop><geoidheight>0.00</geoidheight><course>159.9</course><type>1</type></trkpt>
      <trkpt lat="43.00240009" lon="-2.40436571"><ele>1317</ele><speed>9.53</speed><time>2017-03-19T14:54:26Z</time><pdop>3.0</pdop><geoidheight>0.00</geoidheight><course>153.0</course><type>1</type></trkpt>
      <trkpt lat="43.00232532" lon="-2.40431007"><ele>1317</ele><speed>9.60</speed><time>2017-03-19T14:54:27Z</time><pdop>3.0</pdop><geoidheight>0.00</geoidheight><course>150.4</course><type>1</type></trkpt>
      <trkpt lat="43.00224877" lon="-2.40425384"><ele>1317</ele><speed>9.42</speed><time>2017-03-19T14:54:28Z</time><pdop>3.0</pdop><geoidheight>0.00</geoidheight><course>152.1</course><type>1</type></trkpt>
      <trkpt lat="43.00217627" lon="-2.40420731"><ele>1317</ele><speed>9.07</speed><time>2017-03-19T14:54:29Z</time><pdop>3.0</pdop><geoidheight>0.00</geoidheight><course>154.2</course><type>1</type></trkpt>
      <trkpt lat="43.00209934" lon="-2.40415771"><ele>1317</ele><speed>9.13</speed><time>2017-03-19T14:54:30Z</time><pdop>3.0</pdop><geoidheight>0.00</geoidheight><course>152.3</course><type>1</type></trkpt>
      <trkpt lat="43.00202571" lon="-2.4040955"><ele>1316</ele><speed>9.59</speed><time>2017-03-19T14:54:31Z</time><pdop>3.0</pdop><geoidheight>0.00</geoidheight><course>149.5</course><type>1</type></trkpt>
      <trkpt lat="43.00195724" lon="-2.40402701"><ele>1316</ele><speed>9.78</speed><time>2017-03-19T14:54:32Z</time><pdop>3.0</pdop><geoidheight>0.00</geoidheight><course>146.5</course><type>1</type></trkpt>
      <trkpt lat="43.00188418" lon="-2.40395948"><ele>1317</ele><speed>9.75</speed><time>2017-03-19T14:54:33Z</time><pdop>3.0</pdop><geoidheight>0.00</geoidheight><course>145.0</course><type>1</type></trkpt>
      <trkpt lat="43.00180457" lon="-2.40389186"><ele>1317</ele><speed>10.16</speed><time>2017-03-19T14:54:34Z</time><pdop>3.0</pdop><geoidheight>0.00</geoidheight><course>146.7</course><type>1</type></trkpt>
      <trkpt lat="43.00172191" lon="-2.4038296"><ele>1318</ele><speed>10.49</speed><time>2017-03-19T14:54:35Z</time><pdop>3.0</pdop><geoidheight>0.00</geoidheight><course>149.6</course><type>1</type></trkpt>
      <trkpt lat="43.00163786" lon="-2.40377476"><ele>1319</ele><speed>10.18</speed><time>2017-03-19T14:54:36Z</time><pdop>3.0</pdop><geoidheight>0.00</geoidheight><course>152.9</course><type>1</type></trkpt>
      <trkpt lat="43.00155783" lon="-2.40372911"><ele>1320</ele><speed>9.73</speed><time>2017-03-19T14:54:37Z</time><pdop>3.0</pdop><geoidheight>0.00</geoidheight><course>155.5</course><type>1</type></trkpt>
      <trkpt lat="43.00147934" lon="-2.40369198"><ele>1322</ele><speed>9.44</speed><time>2017-03-19T14:54:38Z</time><pdop>3.0</pdop><geoidheight>0.00</geoidheight><course>157.2</course><type>1</type></trkpt>
      <trkpt lat="43.00140437" lon="-2.40364605"><ele>1323</ele><speed>9.33</speed><time>2017-03-19T14:54:39Z</time><pdop>3.0</pdop><geoidheight>0.00</geoidheight><course>157.6</course><type>1</type></trkpt>
      <trkpt lat="43.00132611" lon="-2.40360331"><ele>1323</ele><speed>9.60</speed><time>2017-03-19T14:54:40Z</time><pdop>3.0</pdop><geoidheight>0.00</geoidheight><course>159.0</course><type>1</type></trkpt>
      <trkpt lat="43.0012404" lon="-2.40356871"><ele>1324</ele><speed>10.13</speed><time>2017-03-19T14:54:41Z</time><pdop>3.0</pdop><geoidheight>0.00</geoidheight><course>162.4</course><type>1</type></trkpt>
      <trkpt lat="43.00115004" lon="-2.40353288"><ele>1325</ele><speed>10.53</speed><time>2017-03-19T14:54:42Z</time><pdop>3.0</pdop><geoidheight>0.00</geoidheight><course>164.5</course><type>1</type></trkpt>
      <trkpt lat="43.00105832" lon="-2.40349831"><ele>1325</ele><speed>10.46</speed><time>2017-03-19T14:54:43Z</time><pdop>3.0</pdop><geoidheight>0.00</geoidheight><course>165.3</course><type>1</type></trkpt>
      <trkpt lat="43.00097529" lon="-2.40346215"><ele>1327</ele><speed>9.99</speed><time>2017-03-19T14:54:44Z</time><pdop>3.0</pdop><geoidheight>0.00</geoidheight><course>164.1</course><type>1</type></trkpt>
      <trkpt lat="43.00089026" lon="-2.40342524"><ele>1327</ele><speed>9.81</speed><time>2017-03-19T14:54:45Z</time><pdop>3.0</pdop><geoidheight>0.00</geoidheight><course>162.5</course><type>1</type></trkpt>
      <trkpt lat="43.00080678" lon="-2.40338132"><ele>1329</ele><speed>10.05</speed><time>2017-03-19T14:54:46Z</time><pdop>3.0</pdop><geoidheight>0.00</geoidheight><course>161.8</course><type>1</type></trkpt>
      <trkpt lat="43.00071979" lon="-2.40333856"><ele>1329</ele><speed>10.48</speed><time>2017-03-19T14:54:47Z</time><pdop>3.0</pdop><geoidheight>0.00</geoidheight><course>160.2</course><type>1</type></trkpt>
      <trkpt lat="43.0006307" lon="-2.40329432"><ele>1330</ele><speed>10.85</speed><time>2017-03-19T14:54:48Z</time><pdop>3.0</pdop><geoidheight>0.00</geoidheight><course>158.3</course><type>1</type></trkpt>
      <trkpt lat="43.00053595" lon="-2.40323993"><ele>1332</ele><speed>10.96</speed><time>2017-03-19T14:54:49Z</time><pdop>3.0</pdop><geoidheight>0.00</geoidheight><course>156.0</course><type>1</type></trkpt>
      <trkpt lat="43.00044684" lon="-2.40317443"><ele>1332</ele><speed>10.83</speed><time>2017-03-19T14:54:50Z</time><pdop>3.0</pdop><geoidheight>0.00</geoidheight><course>154.5</course><type>1</type></trkpt>
      <trkpt lat="43.00035767" lon="-2.4031222"><ele>1333</ele><speed>10.59</speed><time>2017-03-19T14:54:51Z</time><pdop>3.0</pdop><geoidheight>0.00</geoidheight><course>154.8</course><type>1</type></trkpt>
      <trkpt lat="43.00027388" lon="-2.40307203"><ele>1334</ele><speed>10.26</speed><time>2017-03-19T14:54:52Z</time><pdop>3.0</pdop><geoidheight>0.00</geoidheight><course>155.8</course><type>1</type></trkpt>
      <trkpt lat="43.00018995" lon="-2.4030157"><ele>1335</ele><speed>10.23</speed><time>2017-03-19T14:54:53Z</time><pdop>3.0</pdop><geoidheight>0.00</geoidheight><course>154.2</course><type>1</type></trkpt>
      <trkpt lat="43.00010647" lon="-2.40295137"><ele>1335</ele><speed>10.52</speed><time>2017-03-19T14:54:54Z</time><pdop>3.0</pdop><geoidheight>0.00</geoidheight><course>150.4</course><type>1</type></trkpt>
      <trkpt lat="43.00002835" lon="-2.40287811"><ele>1335</ele><speed>10.54</speed><time>2017-03-19T14:54:55Z</time><pdop>3.0</pdop><geoidheight>0.00</geoidheight><course>146.6</course><type>1</type></trkpt>
      <trkpt lat="42.99995084" lon="-2.40280213"><ele>1336</ele><speed>10.52</speed><time>2017-03-19T14:54:56Z</time><pdop>3.0</pdop><geoidheight>0.00</geoidheight><course>144.4</course><type>1</type></trkpt>
      <trkpt lat="42.99987344" lon="-2.40272628"><ele>1337</ele><speed>10.40</speed><time>2017-03-19T14:54:57Z</time><pdop>3.0</pdop><geoidheight>0.00</geoidheight><course>144.4</course><type>1</type></trkpt>
      <trkpt lat="42.99979714" lon="-2.40265428"><ele>1337</ele><speed>10.07</speed><time>2017-03-19T14:54:58Z</time><pdop>3.0</pdop><geoidheight>0.00</geoidheight><course>145.0</course><type>1</type></trkpt>
      <trkpt lat="42.99972573" lon="-2.40257829"><ele>1337</ele><speed>9.86</speed><time>2017-03-19T14:54:59Z</time><pdop>3.0</pdop><geoidheight>0.00</geoidheight><course>144.8</course><type>1</type></trkpt>
      <trkpt lat="42.99965224" lon="-2.40250556"><ele>1337</ele><speed>10.04</speed><time>2017-03-19T14:55:00Z</time><pdop>3.0</pdop><geoidheight>0.00</geoidheight><course>143.9</course><type>1</type></trkpt>
      <trkpt lat="42.9995743" lon="-2.40242702"><ele>1337</ele><speed>10.61</speed><time>2017-03-19T14:55:01Z</time><pdop>3.0</pdop><geoidheight>0.00</geoidheight><course>143.3</course><type>1</type></trkpt>
      <trkpt lat="42.99949261" lon="-2.40234518"><ele>1336</ele><speed>11.17</speed><time>2017-03-19T14:55:02Z</time><pdop>3.0</pdop><geoidheight>0.00</geoidheight><course>144.2</course><type>1</type></trkpt>
      <trkpt lat="42.99940777" lon="-2.40226623"><ele>1336</ele><speed>11.45</speed><time>2017-03-19T14:55:03Z</time><pdop>3.0</pdop><geoidheight>0.00</geoidheight><course>145.7</course><type>1</type></trkpt>
      <trkpt lat="42.99932593" lon="-2.40218869"><ele>1337</ele><speed>11.13</speed><time>2017-03-19T14:55:04Z</time><pdop>3.0</pdop><geoidheight>0.00</geoidheight><course>146.4</course><type>1</type></trkpt>
      <trkpt lat="42.99924669" lon="-2.40211124"><ele>1337</ele><speed>10.88</speed><time>2017-03-19T14:55:05Z</time><pdop>3.0</pdop><geoidheight>0.00</geoidheight><course>144.7</course><type>1</type></trkpt>
      <trkpt lat="42.99917219" lon="-2.40202824"><ele>1337</ele><speed>10.95</speed><time>2017-03-19T14:55:06Z</time><pdop>3.0</pdop><geoidheight>0.00</geoidheight><course>141.2</course><type>1</type></trkpt>
      <trkpt lat="42.99910081" lon="-2.40193617"><ele>1337</ele><speed>11.06</speed><time>2017-03-19T14:55:07Z</time><pdop>3.0</pdop><geoidheight>0.00</geoidheight><course>137.6</course><type>1</type></trkpt>
      <trkpt lat="42.99903331" lon="-2.40184013"><ele>1337</ele><speed>11.01</speed><time>2017-03-19T14:55:08Z</time><pdop>3.0</pdop><geoidheight>0.00</geoidheight><course>135.0</course><type>1</type></trkpt>
      <trkpt lat="42.99897277" lon="-2.4017439"><ele>1337</ele><speed>10.50</speed><time>2017-03-19T14:55:09Z</time><pdop>3.0</pdop><geoidheight>0.00</geoidheight><course>131.3</course><type>1</type></trkpt>
      <trkpt lat="42.99891973" lon="-2.40164249"><ele>1337</ele><speed>10.17</speed><time>2017-03-19T14:55:10Z</time><pdop>3.0</pdop><geoidheight>0.00</geoidheight><course>126.7</course><type>1</type></trkpt>
      <trkpt lat="42.99887271" lon="-2.40153777"><ele>1337</ele><speed>10.15</speed><time>2017-03-19T14:55:11Z</time><pdop>3.0</pdop><geoidheight>0.00</geoidheight><course>123.4</course><type>1</type></trkpt>
      <trkpt lat="42.99882159" lon="-2.40143743"><ele>1337</ele><speed>10.38</speed><time>2017-03-19T14:55:12Z</time><pdop>3.0</pdop><geoidheight>0.00</geoidheight><course>123.6</course><type>1</type></trkpt>
      <trkpt lat="42.99876834" lon="-2.40133533"><ele>1337</ele><speed>10.30</speed><time>2017-03-19T14:55:13Z</time><pdop>3.0</pdop><geoidheight>0.00</geoidheight><course>124.8</course><type>1</type></trkpt>
      <trkpt lat="42.99871791" lon="-2.40123711"><ele>1337</ele><speed>9.89</speed><time>2017-03-19T14:55:14Z</time><pdop>3.0</pdop><geoidheight>0.00</geoidheight><course>124.0</course><type>1</type></trkpt>
      <trkpt lat="42.99867937" lon="-2.40114048"><ele>1338</ele><speed>9.58</speed><time>2017-03-19T14:55:15Z</time><pdop>3.0</pdop><geoidheight>0.00</geoidheight><course>121.1</course><type>1</type></trkpt>
      <trkpt lat="42.99863704" lon="-2.40103638"><ele>1338</ele><speed>9.64</speed><time>2017-03-19T14:55:16Z</time><pdop>3.0</pdop><geoidheight>0.00</geoidheight><course>119.1</course><type>1</type></trkpt>
      <trkpt lat="42.9985957" lon="-2.40093534"><ele>1338</ele><speed>9.64</speed><time>2017-03-19T14:55:17Z</time><pdop>3.0</pdop><geoidheight>0.00</geoidheight><course>119.1</course><type>1</type></trkpt>
      <trkpt lat="42.99855707" lon="-2.40083733"><ele>1338</ele><speed>9.10</speed><time>2017-03-19T14:55:18Z</time><pdop>3.0</pdop><geoidheight>0.00</geoidheight><course>117.9</course><type>1</type></trkpt>
      <trkpt lat="42.99853053" lon="-2.40074761"><ele>1338</ele><speed>8.32</speed><time>2017-03-19T14:55:19Z</time><pdop>3.0</pdop><geoidheight>0.00</geoidheight><course>111.8</course><type>1</type></trkpt>
      <trkpt lat="42.99851221" lon="-2.40065383"><ele>1337</ele><speed>7.91</speed><time>2017-03-19T14:55:20Z</time><pdop>3.0</pdop><geoidheight>0.00</geoidheight><course>103.5</course><type>1</type></trkpt>
      <trkpt lat="42.99850091" lon="-2.40056576"><ele>1336</ele><speed>7.53</speed><time>2017-03-19T14:55:21Z</time><pdop>3.0</pdop><geoidheight>0.00</geoidheight><course>98.7</course><type>1</type></trkpt>
      <trkpt lat="42.99848549" lon="-2.40047358"><ele>1336</ele><speed>7.89</speed><time>2017-03-19T14:55:22Z</time><pdop>3.0</pdop><geoidheight>0.00</geoidheight><course>101.1</course><type>1</type></trkpt>
      <trkpt lat="42.99846076" lon="-2.40037793"><ele>1336</ele><speed>7.98</speed><time>2017-03-19T14:55:23Z</time><pdop>3.0</pdop><geoidheight>0.00</geoidheight><course>105.2</course><type>1</type></trkpt>
      <trkpt lat="42.99842983" lon="-2.40028328"><ele>1337</ele><speed>8.16</speed><time>2017-03-19T14:55:24Z</time><pdop>3.0</pdop><geoidheight>0.00</geoidheight><course>111.5</course><type>1</type></trkpt>
      <trkpt lat="42.99838908" lon="-2.40019519"><ele>1337</ele><speed>8.28</speed><time>2017-03-19T14:55:25Z</time><pdop>3.0</pdop><geoidheight>0.00</geoidheight><course>116.5</course><type>1</type></trkpt>
      <trkpt lat="42.99835043" lon="-2.4001056"><ele>1336</ele><speed>8.23</speed><time>2017-03-19T14:55:26Z</time><pdop>3.0</pdop><geoidheight>0.00</geoidheight><course>118.4</course><type>1</type></trkpt>
      <trkpt lat="42.99830814" lon="-2.40001852"><ele>1336</ele><speed>8.32</speed><time>2017-03-19T14:55:27Z</time><pdop>3.0</pdop><geoidheight>0.00</geoidheight><course>120.3</course><type>1</type></trkpt>
      <trkpt lat="42.99827035" lon="-2.39992502"><ele>1337</ele><speed>8.42</speed><time>2017-03-19T14:55:28Z</time><pdop>3.0</pdop><geoidheight>0.00</geoidheight><course>120.3</course><type>1</type></trkpt>
      <trkpt lat="42.9982386" lon="-2.39983219"><ele>1337</ele><speed>8.39</speed><time>2017-03-19T14:55:29Z</time><pdop>3.0</pdop><geoidheight>0.00</geoidheight><course>116.5</course><type>1</type></trkpt>
      <trkpt lat="42.99821621" lon="-2.39974771"><ele>1338</ele><speed>7.35</speed><time>2017-03-19T14:55:30Z</time><pdop>3.0</pdop><geoidheight>0.00</geoidheight><course>109.9</course><type>1</type></trkpt>
      <trkpt lat="42.99820352" lon="-2.39961119"><ele>1336</ele><speed>5.20</speed><time>2017-03-19T14:55:32Z</time><pdop>3.0</pdop><geoidheight>0.00</geoidheight><course>96.0</course><type>1</type></trkpt>
      <trkpt lat="42.99818927" lon="-2.39948028"><ele>1333</ele><speed>5.41</speed><time>2017-03-19T14:55:34Z</time><pdop>3.0</pdop><geoidheight>0.00</geoidheight><course>93.0</course><type>1</type></trkpt>
      <trkpt lat="42.99820959" lon="-2.39938289"><ele>1332</ele><speed>3.79</speed><time>2017-03-19T14:55:36Z</time><pdop>3.0</pdop><geoidheight>0.00</geoidheight><course>63.1</course><type>1</type></trkpt>
      <trkpt lat="42.99827677" lon="-2.39933993"><ele>1332</ele><speed>3.70</speed><time>2017-03-19T14:55:38Z</time><pdop>3.0</pdop><geoidheight>0.00</geoidheight><course>24.9</course><type>1</type></trkpt>
      <trkpt lat="42.99834189" lon="-2.3993739"><ele>1334</ele><speed>3.46</speed><time>2017-03-19T14:55:40Z</time><pdop>3.0</pdop><geoidheight>0.00</geoidheight><course>334.5</course><type>1</type></trkpt>
      <trkpt lat="42.99839596" lon="-2.39948445"><ele>1334</ele><speed>4.85</speed><time>2017-03-19T14:55:42Z</time><pdop>3.0</pdop><geoidheight>0.00</geoidheight><course>296.9</course><type>1</type></trkpt>
      <trkpt lat="42.99841503" lon="-2.3995603"><ele>1334</ele><speed>5.60</speed><time>2017-03-19T14:55:43Z</time><pdop>3.0</pdop><geoidheight>0.00</geoidheight><course>285.0</course><type>1</type></trkpt>
      <trkpt lat="42.99842682" lon="-2.39963556"><ele>1334</ele><speed>6.07</speed><time>2017-03-19T14:55:44Z</time><pdop>3.0</pdop><geoidheight>0.00</geoidheight><course>281.6</course><type>1</type></trkpt>
      <trkpt lat="42.99844679" lon="-2.3997842"><ele>1335</ele><speed>5.63</speed><time>2017-03-19T14:55:46Z</time><pdop>3.0</pdop><geoidheight>0.00</geoidheight><course>281.1</course><type>1</type></trkpt>
      <trkpt lat="42.99845877" lon="-2.39990635"><ele>1337</ele><speed>5.29</speed><time>2017-03-19T14:55:48Z</time><pdop>3.0</pdop><geoidheight>0.00</geoidheight><course>277.0</course><type>1</type></trkpt>
      <trkpt lat="42.99847626" lon="-2.40003882"><ele>1337</ele><speed>5.51</speed><time>2017-03-19T14:55:50Z</time><pdop>3.0</pdop><geoidheight>0.00</geoidheight><course>278.2</course><type>1</type></trkpt>
      <trkpt lat="42.99849288" lon="-2.40017018"><ele>1337</ele><speed>5.61</speed><time>2017-03-19T14:55:52Z</time><pdop>3.0</pdop><geoidheight>0.00</geoidheight><course>279.8</course><type>1</type></trkpt>
      <trkpt lat="42.99849942" lon="-2.40028925"><ele>1338</ele><speed>4.92</speed><time>2017-03-19T14:55:54Z</time><pdop>3.0</pdop><geoidheight>0.00</geoidheight><course>276.9</course><type>1</type></trkpt>
      <trkpt lat="42.99851568" lon="-2.40040361"><ele>1337</ele><speed>4.67</speed><time>2017-03-19T14:55:56Z</time><pdop>3.0</pdop><geoidheight>0.00</geoidheight><course>283.5</course><type>1</type></trkpt>
      <trkpt lat="42.99854102" lon="-2.40052723"><ele>1336</ele><speed>5.11</speed><time>2017-03-19T14:55:58Z</time><pdop>3.0</pdop><geoidheight>0.00</geoidheight><course>282.4</course><type>1</type></trkpt>
      <trkpt lat="42.9985584" lon="-2.40064461"><ele>1335</ele><speed>5.15</speed><time>2017-03-19T14:56:00Z</time><pdop>3.0</pdop><geoidheight>0.00</geoidheight><course>280.6</course><type>1</type></trkpt>
      <trkpt lat="42.9985752" lon="-2.40074675"><ele>1334</ele><speed>4.19</speed><time>2017-03-19T14:56:02Z</time><pdop>3.0</pdop><geoidheight>0.00</geoidheight><course>283.5</course><type>1</type></trkpt>
      <trkpt lat="42.99859567" lon="-2.40083553"><ele>1332</ele><speed>3.69</speed><time>2017-03-19T14:56:04Z</time><pdop>3.0</pdop><geoidheight>0.00</geoidheight><course>288.3</course><type>1</type></trkpt>
      <trkpt lat="42.99862745" lon="-2.40095221"><ele>1331</ele><speed>5.39</speed><time>2017-03-19T14:56:06Z</time><pdop>3.0</pdop><geoidheight>0.00</geoidheight><course>291.8</course><type>1</type></trkpt>
      <trkpt lat="42.99865623" lon="-2.40108295"><ele>1331</ele><speed>5.46</speed><time>2017-03-19T14:56:08Z</time><pdop>3.0</pdop><geoidheight>0.00</geoidheight><course>285.2</course><type>1</type></trkpt>
      <trkpt lat="42.99866194" lon="-2.40120726"><ele>1331</ele><speed>4.95</speed><time>2017-03-19T14:56:10Z</time><pdop>3.0</pdop><geoidheight>0.00</geoidheight><course>273.2</course><type>1</type></trkpt>
      <trkpt lat="42.99867573" lon="-2.40131254"><ele>1330</ele><speed>4.41</speed><time>2017-03-19T14:56:12Z</time><pdop>3.0</pdop><geoidheight>0.00</geoidheight><course>286.3</course><type>1</type></trkpt>
      <trkpt lat="42.99870916" lon="-2.40137173"><ele>1329</ele><speed>2.84</speed><time>2017-03-19T14:56:14Z</time><pdop>3.0</pdop><geoidheight>0.00</geoidheight><course>322.4</course><type>1</type></trkpt>
      <trkpt lat="42.99875177" lon="-2.4013133"><ele>1327</ele><speed>3.97</speed><time>2017-03-19T14:56:16Z</time><pdop>3.0</pdop><geoidheight>0.00</geoidheight><course>57.0</course><type>1</type></trkpt>
      <trkpt lat="42.99875779" lon="-2.40123277"><ele>1326</ele><speed>6.29</speed><time>2017-03-19T14:56:17Z</time><pdop>3.0</pdop><geoidheight>0.00</geoidheight><course>81.3</course><type>1</type></trkpt>
      <trkpt lat="42.99874842" lon="-2.40113013"><ele>1326</ele><speed>8.36</speed><time>2017-03-19T14:56:18Z</time><pdop>3.0</pdop><geoidheight>0.00</geoidheight><course>97.2</course><type>1</type></trkpt>
      <trkpt lat="42.99872268" lon="-2.4010163"><ele>1326</ele><speed>9.46</speed><time>2017-03-19T14:56:19Z</time><pdop>3.0</pdop><geoidheight>0.00</geoidheight><course>106.6</course><type>1</type></trkpt>
      <trkpt lat="42.99868743" lon="-2.40091231"><ele>1327</ele><speed>9.34</speed><time>2017-03-19T14:56:20Z</time><pdop>3.0</pdop><geoidheight>0.00</geoidheight><course>114.0</course><type>1</type></trkpt>
      <trkpt lat="42.99864388" lon="-2.40082915"><ele>1328</ele><speed>8.63</speed><time>2017-03-19T14:56:21Z</time><pdop>3.0</pdop><geoidheight>0.00</geoidheight><course>121.4</course><type>1</type></trkpt>
      <trkpt lat="42.99860868" lon="-2.4007399"><ele>1328</ele><speed>8.49</speed><time>2017-03-19T14:56:22Z</time><pdop>3.0</pdop><geoidheight>0.00</geoidheight><course>121.6</course><type>1</type></trkpt>
      <trkpt lat="42.99857434" lon="-2.40063963"><ele>1327</ele><speed>8.97</speed><time>2017-03-19T14:56:23Z</time><pdop>3.0</pdop><geoidheight>0.00</geoidheight><course>117.3</course><type>1</type></trkpt>
      <trkpt lat="42.99854274" lon="-2.40053618"><ele>1327</ele><speed>9.17</speed><time>2017-03-19T14:56:24Z</time><pdop>3.0</pdop><geoidheight>0.00</geoidheight><course>113.9</course><type>1</type></trkpt>
      <trkpt lat="42.99851523" lon="-2.40043178"><ele>1326</ele><speed>9.03</speed><time>2017-03-19T14:56:25Z</time><pdop>3.0</pdop><geoidheight>0.00</geoidheight><course>109.4</course><type>1</type></trkpt>
      <trkpt lat="42.9984913" lon="-2.40033238"><ele>1327</ele><speed>8.75</speed><time>2017-03-19T14:56:26Z</time><pdop>3.0</pdop><geoidheight>0.00</geoidheight><course>109.0</course><type>1</type></trkpt>
      <trkpt lat="42.9984615" lon="-2.40024233"><ele>1327</ele><speed>8.23</speed><time>2017-03-19T14:56:27Z</time><pdop>3.0</pdop><geoidheight>0.00</geoidheight><course>112.4</course><type>1</type></trkpt>
      <trkpt lat="42.99842819" lon="-2.40015037"><ele>1327</ele><speed>8.05</speed><time>2017-03-19T14:56:28Z</time><pdop>3.0</pdop><geoidheight>0.00</geoidheight><course>117.1</course><type>1</type></trkpt>
      <trkpt lat="42.99839179" lon="-2.40006072"><ele>1327</ele><speed>8.20</speed><time>2017-03-19T14:56:29Z</time><pdop>3.0</pdop><geoidheight>0.00</geoidheight><course>116.7</course><type>1</type></trkpt>
      <trkpt lat="42.99836" lon="-2.39996419"><ele>1326</ele><speed>8.48</speed><time>2017-03-19T14:56:30Z</time><pdop>3.0</pdop><geoidheight>0.00</geoidheight><course>114.1</course><type>1</type></trkpt>
      <trkpt lat="42.99833728" lon="-2.39986246"><ele>1325</ele><speed>8.50</speed><time>2017-03-19T14:56:31Z</time><pdop>3.0</pdop><geoidheight>0.00</geoidheight><course>110.0</course><type>1</type></trkpt>
      <trkpt lat="42.99831571" lon="-2.39976165"><ele>1325</ele><speed>8.18</speed><time>2017-03-19T14:56:32Z</time><pdop>3.0</pdop><geoidheight>0.00</geoidheight><course>107.1</course><type>1</type></trkpt>
      <trkpt lat="42.99829273" lon="-2.39966564"><ele>1325</ele><speed>7.83</speed><time>2017-03-19T14:56:33Z</time><pdop>3.0</pdop><geoidheight>0.00</geoidheight><course>107.6</course><type>1</type></trkpt>
      <trkpt lat="42.99826717" lon="-2.39957552"><ele>1326</ele><speed>7.97</speed><time>2017-03-19T14:56:34Z</time><pdop>3.0</pdop><geoidheight>0.00</geoidheight><course>111.1</course><type>1</type></trkpt>
      <trkpt lat="42.99823331" lon="-2.39947815"><ele>1326</ele><speed>8.51</speed><time>2017-03-19T14:56:35Z</time><pdop>3.0</pdop><geoidheight>0.00</geoidheight><course>114.2</course><type>1</type></trkpt>
      <trkpt lat="42.9981936" lon="-2.39937932"><ele>1326</ele><speed>9.13</speed><time>2017-03-19T14:56:36Z</time><pdop>3.0</pdop><geoidheight>0.00</geoidheight><course>116.6</course><type>1</type></trkpt>
      <trkpt lat="42.9981582" lon="-2.39927938"><ele>1326</ele><speed>9.47</speed><time>2017-03-19T14:56:37Z</time><pdop>3.0</pdop><geoidheight>0.00</geoidheight><course>118.2</course><type>1</type></trkpt>
      <trkpt lat="42.99811964" lon="-2.39918418"><ele>1327</ele><speed>9.40</speed><time>2017-03-19T14:56:38Z</time><pdop>3.0</pdop><geoidheight>0.00</geoidheight><course>121.1</course><type>1</type></trkpt>
      <trkpt lat="42.99807165" lon="-2.39909174"><ele>1328</ele><speed>9.07</speed><time>2017-03-19T14:56:39Z</time><pdop>3.0</pdop><geoidheight>0.00</geoidheight><course>122.1</course><type>1</type></trkpt>
      <trkpt lat="42.99803398" lon="-2.39900311"><ele>1328</ele><speed>8.66</speed><time>2017-03-19T14:56:40Z</time><pdop>3.0</pdop><geoidheight>0.00</geoidheight><course>121.3</course><type>1</type></trkpt>
      <trkpt lat="42.99800098" lon="-2.39891349"><ele>1328</ele><speed>8.58</speed><time>2017-03-19T14:56:41Z</time><pdop>3.0</pdop><geoidheight>0.00</geoidheight><course>117.7</course><type>1</type></trkpt>
      <trkpt lat="42.99796729" lon="-2.3988172"><ele>1328</ele><speed>8.48</speed><time>2017-03-19T14:56:42Z</time><pdop>3.0</pdop><geoidheight>0.00</geoidheight><course>114.9</course><type>1</type></trkpt>
      <trkpt lat="42.99793578" lon="-2.39872489"><ele>1329</ele><speed>8.10</speed><time>2017-03-19T14:56:43Z</time><pdop>3.0</pdop><geoidheight>0.00</geoidheight><course>114.9</course><type>1</type></trkpt>
      <trkpt lat="42.99790569" lon="-2.39864243"><ele>1330</ele><speed>7.67</speed><time>2017-03-19T14:56:44Z</time><pdop>3.0</pdop><geoidheight>0.00</geoidheight><course>117.8</course><type>1</type></trkpt>
      <trkpt lat="42.99787377" lon="-2.39856445"><ele>1330</ele><speed>7.44</speed><time>2017-03-19T14:56:45Z</time><pdop>3.0</pdop><geoidheight>0.00</geoidheight><course>119.5</course><type>1</type></trkpt>
      <trkpt lat="42.99784016" lon="-2.39848808"><ele>1330</ele><speed>7.28</speed><time>2017-03-19T14:56:46Z</time><pdop>3.0</pdop><geoidheight>0.00</geoidheight><course>114.7</course><type>1</type></trkpt>
      <trkpt lat="42.99781577" lon="-2.39839785"><ele>1330</ele><speed>7.84</speed><time>2017-03-19T14:56:47Z</time><pdop>3.0</pdop><geoidheight>0.00</geoidheight><course>106.4</course><type>1</type></trkpt>
      <trkpt lat="42.99779888" lon="-2.39829404"><ele>1330</ele><speed>8.54</speed><time>2017-03-19T14:56:48Z</time><pdop>3.0</pdop><geoidheight>0.00</geoidheight><course>103.3</course><type>1</type></trkpt>
      <trkpt lat="42.99777685" lon="-2.39818327"><ele>1331</ele><speed>8.84</speed><time>2017-03-19T14:56:49Z</time><pdop>3.0</pdop><geoidheight>0.00</geoidheight><course>105.5</course><type>1</type></trkpt>
      <trkpt lat="42.9977432" lon="-2.39808879"><ele>1331</ele><speed>8.58</speed><time>2017-03-19T14:56:50Z</time><pdop>3.0</pdop><geoidheight>0.00</geoidheight><course>112.8</course><type>1</type></trkpt>
      <trkpt lat="42.99770466" lon="-2.39800458"><ele>1332</ele><speed>8.54</speed><time>2017-03-19T14:56:51Z</time><pdop>3.0</pdop><geoidheight>0.00</geoidheight><course>120.5</course><type>1</type></trkpt>
      <trkpt lat="42.9976606" lon="-2.39791827"><ele>1332</ele><speed>8.78</speed><time>2017-03-19T14:56:52Z</time><pdop>3.0</pdop><geoidheight>0.00</geoidheight><course>123.9</course><type>1</type></trkpt>
      <trkpt lat="42.99761668" lon="-2.3978154"><ele>1332</ele><speed>9.56</speed><time>2017-03-19T14:56:53Z</time><pdop>3.0</pdop><geoidheight>0.00</geoidheight><course>120.9</course><type>1</type></trkpt>
      <trkpt lat="42.99757203" lon="-2.39770739"><ele>1332</ele><speed>10.32</speed><time>2017-03-19T14:56:54Z</time><pdop>3.0</pdop><geoidheight>0.00</geoidheight><course>120.1</course><type>1</type></trkpt>
      <trkpt lat="42.9975209" lon="-2.39760143"><ele>1334</ele><speed>10.40</speed><time>2017-03-19T14:56:55Z</time><pdop>3.0</pdop><geoidheight>0.00</geoidheight><course>123.2</course><type>1</type></trkpt>
      <trkpt lat="42.99746613" lon="-2.39750129"><ele>1335</ele><speed>9.90</speed><time>2017-03-19T14:56:56Z</time><pdop>3.0</pdop><geoidheight>0.00</geoidheight><course>126.7</course><type>1</type></trkpt>
      <trkpt lat="42.9974167" lon="-2.39741214"><ele>1336</ele><speed>9.21</speed><time>2017-03-19T14:56:57Z</time><pdop>3.0</pdop><geoidheight>0.00</geoidheight><course>130.3</course><type>1</type></trkpt>
      <trkpt lat="42.99736341" lon="-2.39732758"><ele>1336</ele><speed>9.08</speed><time>2017-03-19T14:56:58Z</time><pdop>3.0</pdop><geoidheight>0.00</geoidheight><course>129.5</course><type>1</type></trkpt>
      <trkpt lat="42.997308" lon="-2.39723295"><ele>1336</ele><speed>9.71</speed><time>2017-03-19T14:56:59Z</time><pdop>3.0</pdop><geoidheight>0.00</geoidheight><course>126.4</course><type>1</type></trkpt>
      <trkpt lat="42.99725542" lon="-2.39713909"><ele>1337</ele><speed>10.06</speed><time>2017-03-19T14:57:00Z</time><pdop>3.0</pdop><geoidheight>0.00</geoidheight><course>125.8</course><type>1</type></trkpt>
      <trkpt lat="42.99719855" lon="-2.39703799"><ele>1338</ele><speed>9.94</speed><time>2017-03-19T14:57:01Z</time><pdop>3.0</pdop><geoidheight>0.00</geoidheight><course>126.8</course><type>1</type></trkpt>
      <trkpt lat="42.99714448" lon="-2.3969464"><ele>1340</ele><speed>9.40</speed><time>2017-03-19T14:57:02Z</time><pdop>3.0</pdop><geoidheight>0.00</geoidheight><course>128.1</course><type>1</type></trkpt>
      <trkpt lat="42.99709351" lon="-2.39686298"><ele>1340</ele><speed>8.83</speed><time>2017-03-19T14:57:03Z</time><pdop>3.0</pdop><geoidheight>0.00</geoidheight><course>128.2</course><type>1</type></trkpt>
      <trkpt lat="42.99704688" lon="-2.39677829"><ele>1340</ele><speed>8.97</speed><time>2017-03-19T14:57:04Z</time><pdop>3.0</pdop><geoidheight>0.00</geoidheight><course>127.1</course><type>1</type></trkpt>
      <trkpt lat="42.99699345" lon="-2.3966814"><ele>1341</ele><speed>9.84</speed><time>2017-03-19T14:57:05Z</time><pdop>3.0</pdop><geoidheight>0.00</geoidheight><course>126.1</course><type>1</type></trkpt>
      <trkpt lat="42.9969363" lon="-2.39658127"><ele>1341</ele><speed>10.58</speed><time>2017-03-19T14:57:06Z</time><pdop>3.0</pdop><geoidheight>0.00</geoidheight><course>126.9</course><type>1</type></trkpt>
      <trkpt lat="42.99687527" lon="-2.39647363"><ele>1342</ele><speed>10.97</speed><time>2017-03-19T14:57:07Z</time><pdop>3.0</pdop><geoidheight>0.00</geoidheight><course>128.7</course><type>1</type></trkpt>
      <trkpt lat="42.99682108" lon="-2.39636844"><ele>1343</ele><speed>10.53</speed><time>2017-03-19T14:57:08Z</time><pdop>3.0</pdop><geoidheight>0.00</geoidheight><course>128.0</course><type>1</type></trkpt>
      <trkpt lat="42.99676089" lon="-2.39627838"><ele>1345</ele><speed>9.57</speed><time>2017-03-19T14:57:09Z</time><pdop>3.0</pdop><geoidheight>0.00</geoidheight><course>132.7</course><type>1</type></trkpt>
      <trkpt lat="42.9967098" lon="-2.39619947"><ele>1346</ele><speed>8.65</speed><time>2017-03-19T14:57:10Z</time><pdop>3.0</pdop><geoidheight>0.00</geoidheight><course>134.6</course><type>1</type></trkpt>
      <trkpt lat="42.99665737" lon="-2.39611954"><ele>1347</ele><speed>8.55</speed><time>2017-03-19T14:57:11Z</time><pdop>3.0</pdop><geoidheight>0.00</geoidheight><course>132.6</course><type>1</type></trkpt>
      <trkpt lat="42.99660799" lon="-2.39603573"><ele>1347</ele><speed>8.76</speed><time>2017-03-19T14:57:12Z</time><pdop>3.0</pdop><geoidheight>0.00</geoidheight><course>129.8</course><type>1</type></trkpt>
      <trkpt lat="42.99655975" lon="-2.39594165"><ele>1347</ele><speed>9.34</speed><time>2017-03-19T14:57:13Z</time><pdop>3.0</pdop><geoidheight>0.00</geoidheight><course>126.4</course><type>1</type></trkpt>
      <trkpt lat="42.99651491" lon="-2.39583786"><ele>1348</ele><speed>9.59</speed><time>2017-03-19T14:57:14Z</time><pdop>3.0</pdop><geoidheight>0.00</geoidheight><course>123.5</course><type>1</type></trkpt>
      <trkpt lat="42.99647121" lon="-2.39574228"><ele>1350</ele><speed>9.26</speed><time>2017-03-19T14:57:15Z</time><pdop>3.0</pdop><geoidheight>0.00</geoidheight><course>122.7</course><type>1</type></trkpt>
      <trkpt lat="42.99642929" lon="-2.3956553"><ele>1351</ele><speed>8.49</speed><time>2017-03-19T14:57:16Z</time><pdop>3.0</pdop><geoidheight>0.00</geoidheight><course>123.9</course><type>1</type></trkpt>
      <trkpt lat="42.99639009" lon="-2.39558346"><ele>1352</ele><speed>7.38</speed><time>2017-03-19T14:57:17Z</time><pdop>3.0</pdop><geoidheight>0.00</geoidheight><course>122.7</course><type>1</type></trkpt>
      <trkpt lat="42.99636084" lon="-2.39550941"><ele>1351</ele><speed>6.81</speed><time>2017-03-19T14:57:18Z</time><pdop>3.0</pdop><geoidheight>0.00</geoidheight><course>116.3</course><type>1</type></trkpt>
      <trkpt lat="42.99634495" lon="-2.39542617"><ele>1351</ele><speed>6.76</speed><time>2017-03-19T14:57:19Z</time><pdop>3.0</pdop><geoidheight>0.00</geoidheight><course>105.9</course><type>1</type></trkpt>
      <trkpt lat="42.9963382" lon="-2.39534952"><ele>1351</ele><speed>6.39</speed><time>2017-03-19T14:57:20Z</time><pdop>3.0</pdop><geoidheight>0.00</geoidheight><course>96.4</course><type>1</type></trkpt>
      <trkpt lat="42.99635513" lon="-2.39526459"><ele>1353</ele><speed>3.35</speed><time>2017-03-19T14:57:22Z</time><pdop>3.0</pdop><geoidheight>0.00</geoidheight><course>59.5</course><type>1</type></trkpt>
      <trkpt lat="42.99641255" lon="-2.39530649"><ele>1355</ele><speed>2.78</speed><time>2017-03-19T14:57:26Z</time><pdop>3.0</pdop><geoidheight>0.00</geoidheight><course>309.0</course><type>1</type></trkpt>
      <trkpt lat="42.99644794" lon="-2.39541074"><ele>1353</ele><speed>5.38</speed><time>2017-03-19T14:57:28Z</time><pdop>3.0</pdop><geoidheight>0.00</geoidheight><course>291.0</course><type>1</type></trkpt>
      <trkpt lat="42.99647318" lon="-2.39549925"><ele>1354</ele><speed>5.83</speed><time>2017-03-19T14:57:29Z</time><pdop>3.0</pdop><geoidheight>0.00</geoidheight><course>292.3</course><type>1</type></trkpt>
      <trkpt lat="42.99651633" lon="-2.39560746"><ele>1356</ele><speed>4.91</speed><time>2017-03-19T14:57:31Z</time><pdop>3.0</pdop><geoidheight>0.00</geoidheight><course>304.5</course><type>1</type></trkpt>
      <trkpt lat="42.99655372" lon="-2.39567288"><ele>1358</ele><speed>3.31</speed><time>2017-03-19T14:57:33Z</time><pdop>3.0</pdop><geoidheight>0.00</geoidheight><course>311.0</course><type>1</type></trkpt>
      <trkpt lat="42.99659379" lon="-2.39578008"><ele>1358</ele><speed>4.98</speed><time>2017-03-19T14:57:35Z</time><pdop>3.0</pdop><geoidheight>0.00</geoidheight><course>295.2</course><type>1</type></trkpt>
      <trkpt lat="42.99661689" lon="-2.39585655"><ele>1358</ele><speed>5.71</speed><time>2017-03-19T14:57:36Z</time><pdop>3.0</pdop><geoidheight>0.00</geoidheight><course>290.5</course><type>1</type></trkpt>
      <trkpt lat="42.99664797" lon="-2.39597584"><ele>1360</ele><speed>4.51</speed><time>2017-03-19T14:57:38Z</time><pdop>3.0</pdop><geoidheight>0.00</geoidheight><course>289.1</course><type>1</type></trkpt>
      <trkpt lat="42.99668537" lon="-2.39606377"><ele>1360</ele><speed>4.42</speed><time>2017-03-19T14:57:40Z</time><pdop>3.0</pdop><geoidheight>0.00</geoidheight><course>295.4</course><type>1</type></trkpt>
      <trkpt lat="42.9967149" lon="-2.39619148"><ele>1360</ele><speed>5.65</speed><time>2017-03-19T14:57:42Z</time><pdop>3.0</pdop><geoidheight>0.00</geoidheight><course>288.9</course><type>1</type></trkpt>
      <trkpt lat="42.99675147" lon="-2.39633118"><ele>1359</ele><speed>5.78</speed><time>2017-03-19T14:57:44Z</time><pdop>3.0</pdop><geoidheight>0.00</geoidheight><course>290.8</course><type>1</type></trkpt>
      <trkpt lat="42.99678978" lon="-2.39638695"><ele>1358</ele><speed>2.86</speed><time>2017-03-19T14:57:46Z</time><pdop>3.0</pdop><geoidheight>0.00</geoidheight><course>323.5</course><type>1</type></trkpt>
      <trkpt lat="42.99684204" lon="-2.39627872"><ele>1357</ele><speed>5.09</speed><time>2017-03-19T14:57:49Z</time><pdop>3.0</pdop><geoidheight>0.00</geoidheight><course>70.3</course><type>1</type></trkpt>
      <trkpt lat="42.9968421" lon="-2.39619744"><ele>1357</ele><speed>6.23</speed><time>2017-03-19T14:57:50Z</time><pdop>3.0</pdop><geoidheight>0.00</geoidheight><course>86.7</course><type>1</type></trkpt>
      <trkpt lat="42.99682626" lon="-2.39610068"><ele>1357</ele><speed>7.33</speed><time>2017-03-19T14:57:51Z</time><pdop>3.0</pdop><geoidheight>0.00</geoidheight><course>100.0</course><type>1</type></trkpt>
      <trkpt lat="42.99678541" lon="-2.39600939"><ele>1358</ele><speed>8.24</speed><time>2017-03-19T14:57:52Z</time><pdop>3.0</pdop><geoidheight>0.00</geoidheight><course>118.0</course><type>1</type></trkpt>
      <trkpt lat="42.99672311" lon="-2.3959196"><ele>1358</ele><speed>9.71</speed><time>2017-03-19T14:57:53Z</time><pdop>3.0</pdop><geoidheight>0.00</geoidheight><course>133.0</course><type>1</type></trkpt>
      <trkpt lat="42.99664929" lon="-2.39583763"><ele>1359</ele><speed>10.62</speed><time>2017-03-19T14:57:54Z</time><pdop>3.0</pdop><geoidheight>0.00</geoidheight><course>141.5</course><type>1</type></trkpt>
      <trkpt lat="42.99656845" lon="-2.39574782"><ele>1359</ele><speed>11.05</speed><time>2017-03-19T14:57:55Z</time><pdop>3.0</pdop><geoidheight>0.00</geoidheight><course>143.0</course><type>1</type></trkpt>
      <trkpt lat="42.99649499" lon="-2.39566592"><ele>1360</ele><speed>10.93</speed><time>2017-03-19T14:57:56Z</time><pdop>3.0</pdop><geoidheight>0.00</geoidheight><course>141.8</course><type>1</type></trkpt>
      <trkpt lat="42.99642362" lon="-2.39557598"><ele>1361</ele><speed>11.19</speed><time>2017-03-19T14:57:57Z</time><pdop>3.0</pdop><geoidheight>0.00</geoidheight><course>139.3</course><type>1</type></trkpt>
      <trkpt lat="42.99635682" lon="-2.39547916"><ele>1361</ele><speed>11.32</speed><time>2017-03-19T14:57:58Z</time><pdop>3.0</pdop><geoidheight>0.00</geoidheight><course>137.6</course><type>1</type></trkpt>
      <trkpt lat="42.99628529" lon="-2.39538714"><ele>1363</ele><speed>10.89</speed><time>2017-03-19T14:57:59Z</time><pdop>3.0</pdop><geoidheight>0.00</geoidheight><course>137.6</course><type>1</type></trkpt>
      <trkpt lat="42.99621425" lon="-2.39529459"><ele>1363</ele><speed>10.82</speed><time>2017-03-19T14:58:00Z</time><pdop>3.0</pdop><geoidheight>0.00</geoidheight><course>137.7</course><type>1</type></trkpt>
      <trkpt lat="42.99614486" lon="-2.39520757"><ele>1364</ele><speed>10.65</speed><time>2017-03-19T14:58:01Z</time><pdop>3.0</pdop><geoidheight>0.00</geoidheight><course>139.2</course><type>1</type></trkpt>
      <trkpt lat="42.9960753" lon="-2.39512242"><ele>1365</ele><speed>10.47</speed><time>2017-03-19T14:58:02Z</time><pdop>3.0</pdop><geoidheight>0.00</geoidheight><course>139.3</course><type>1</type></trkpt>
      <trkpt lat="42.99600812" lon="-2.3950347"><ele>1366</ele><speed>10.36</speed><time>2017-03-19T14:58:03Z</time><pdop>3.0</pdop><geoidheight>0.00</geoidheight><course>137.7</course><type>1</type></trkpt>
      <trkpt lat="42.99594683" lon="-2.39494358"><ele>1366</ele><speed>10.27</speed><time>2017-03-19T14:58:04Z</time><pdop>3.0</pdop><geoidheight>0.00</geoidheight><course>134.8</course><type>1</type></trkpt>
      <trkpt lat="42.99588952" lon="-2.39485463"><ele>1367</ele><speed>10.02</speed><time>2017-03-19T14:58:05Z</time><pdop>3.0</pdop><geoidheight>0.00</geoidheight><course>132.7</course><type>1</type></trkpt>
      <trkpt lat="42.99583574" lon="-2.39476455"><ele>1368</ele><speed>9.51</speed><time>2017-03-19T14:58:06Z</time><pdop>3.0</pdop><geoidheight>0.00</geoidheight><course>130.7</course><type>1</type></trkpt>
      <trkpt lat="42.99578755" lon="-2.39467624"><ele>1368</ele><speed>9.27</speed><time>2017-03-19T14:58:07Z</time><pdop>3.0</pdop><geoidheight>0.00</geoidheight><course>126.7</course><type>1</type></trkpt>
      <trkpt lat="42.99574278" lon="-2.39457343"><ele>1368</ele><speed>9.59</speed><time>2017-03-19T14:58:08Z</time><pdop>3.0</pdop><geoidheight>0.00</geoidheight><course>121.8</course><type>1</type></trkpt>
      <trkpt lat="42.9957015" lon="-2.39447254"><ele>1369</ele><speed>9.40</speed><time>2017-03-19T14:58:09Z</time><pdop>3.0</pdop><geoidheight>0.00</geoidheight><course>120.5</course><type>1</type></trkpt>
      <trkpt lat="42.99565717" lon="-2.39437841"><ele>1369</ele><speed>8.86</speed><time>2017-03-19T14:58:10Z</time><pdop>3.0</pdop><geoidheight>0.00</geoidheight><course>120.8</course><type>1</type></trkpt>
      <trkpt lat="42.99561381" lon="-2.39429016"><ele>1370</ele><speed>8.47</speed><time>2017-03-19T14:58:11Z</time><pdop>3.0</pdop><geoidheight>0.00</geoidheight><course>121.5</course><type>1</type></trkpt>
      <trkpt lat="42.99557113" lon="-2.39420004"><ele>1371</ele><speed>8.72</speed><time>2017-03-19T14:58:12Z</time><pdop>3.0</pdop><geoidheight>0.00</geoidheight><course>122.7</course><type>1</type></trkpt>
      <trkpt lat="42.99552267" lon="-2.39409943"><ele>1371</ele><speed>9.27</speed><time>2017-03-19T14:58:13Z</time><pdop>3.0</pdop><geoidheight>0.00</geoidheight><course>123.0</course><type>1</type></trkpt>
      <trkpt lat="42.99547487" lon="-2.39400025"><ele>1371</ele><speed>9.98</speed><time>2017-03-19T14:58:14Z</time><pdop>3.0</pdop><geoidheight>0.00</geoidheight><course>122.9</course><type>1</type></trkpt>
      <trkpt lat="42.99542877" lon="-2.39388448"><ele>1372</ele><speed>10.74</speed><time>2017-03-19T14:58:15Z</time><pdop>3.0</pdop><geoidheight>0.00</geoidheight><course>120.6</course><type>1</type></trkpt>
      <trkpt lat="42.99537778" lon="-2.39376849"><ele>1373</ele><speed>10.96</speed><time>2017-03-19T14:58:16Z</time><pdop>3.0</pdop><geoidheight>0.00</geoidheight><course>120.2</course><type>1</type></trkpt>
      <trkpt lat="42.99532675" lon="-2.39365209"><ele>1375</ele><speed>10.80</speed><time>2017-03-19T14:58:17Z</time><pdop>3.0</pdop><geoidheight>0.00</geoidheight><course>120.1</course><type>1</type></trkpt>
      <trkpt lat="42.9952725" lon="-2.39354164"><ele>1376</ele><speed>10.78</speed><time>2017-03-19T14:58:18Z</time><pdop>3.0</pdop><geoidheight>0.00</geoidheight><course>121.3</course><type>1</type></trkpt>
      <trkpt lat="42.99522127" lon="-2.39342955"><ele>1377</ele><speed>10.80</speed><time>2017-03-19T14:58:19Z</time><pdop>3.0</pdop><geoidheight>0.00</geoidheight><course>123.2</course><type>1</type></trkpt>
      <trkpt lat="42.99516321" lon="-2.39331483"><ele>1377</ele><speed>11.20</speed><time>2017-03-19T14:58:20Z</time><pdop>3.0</pdop><geoidheight>0.00</geoidheight><course>122.9</course><type>1</type></trkpt>
      <trkpt lat="42.99510875" lon="-2.39319833"><ele>1379</ele><speed>11.43</speed><time>2017-03-19T14:58:21Z</time><pdop>3.0</pdop><geoidheight>0.00</geoidheight><course>123.1</course><type>1</type></trkpt>
      <trkpt lat="42.99505065" lon="-2.39308006"><ele>1381</ele><speed>11.57</speed><time>2017-03-19T14:58:22Z</time><pdop>3.0</pdop><geoidheight>0.00</geoidheight><course>124.0</course><type>1</type></trkpt>
      <trkpt lat="42.99499827" lon="-2.39296603"><ele>1385</ele><speed>11.00</speed><time>2017-03-19T14:58:23Z</time><pdop>3.0</pdop><geoidheight>0.00</geoidheight><course>124.2</course><type>1</type></trkpt>
      <trkpt lat="42.99496134" lon="-2.39286073"><ele>1389</ele><speed>9.49</speed><time>2017-03-19T14:58:24Z</time><pdop>3.0</pdop><geoidheight>0.00</geoidheight><course>119.7</course><type>1</type></trkpt>
      <trkpt lat="42.99493226" lon="-2.39277628"><ele>1390</ele><speed>7.86</speed><time>2017-03-19T14:58:25Z</time><pdop>3.0</pdop><geoidheight>0.00</geoidheight><course>111.6</course><type>1</type></trkpt>
      <trkpt lat="42.99494264" lon="-2.39264893"><ele>1391</ele><speed>5.08</speed><time>2017-03-19T14:58:27Z</time><pdop>3.0</pdop><geoidheight>0.00</geoidheight><course>72.4</course><type>1</type></trkpt>
      <trkpt lat="42.99503457" lon="-2.39258127"><ele>1390</ele><speed>6.55</speed><time>2017-03-19T14:58:29Z</time><pdop>3.0</pdop><geoidheight>0.00</geoidheight><course>22.6</course><type>1</type></trkpt>
      <trkpt lat="42.99508978" lon="-2.39258085"><ele>1392</ele><speed>6.25</speed><time>2017-03-19T14:58:30Z</time><pdop>3.0</pdop><geoidheight>0.00</geoidheight><course>2.2</course><type>1</type></trkpt>
      <trkpt lat="42.9951649" lon="-2.39266882"><ele>1396</ele><speed>5.62</speed><time>2017-03-19T14:58:32Z</time><pdop>3.0</pdop><geoidheight>0.00</geoidheight><course>306.0</course><type>1</type></trkpt>
      <trkpt lat="42.99517823" lon="-2.39274838"><ele>1400</ele><speed>6.34</speed><time>2017-03-19T14:58:33Z</time><pdop>3.0</pdop><geoidheight>0.00</geoidheight><course>286.8</course><type>1</type></trkpt>
      <trkpt lat="42.99518401" lon="-2.39282378"><ele>1403</ele><speed>6.24</speed><time>2017-03-19T14:58:34Z</time><pdop>3.0</pdop><geoidheight>0.00</geoidheight><course>276.2</course><type>1</type></trkpt>
      <trkpt lat="42.99516825" lon="-2.39292615"><ele>1407</ele><speed>3.67</speed><time>2017-03-19T14:58:36Z</time><pdop>3.0</pdop><geoidheight>0.00</geoidheight><course>255.6</course><type>1</type></trkpt>
      <trkpt lat="42.99522074" lon="-2.39295253"><ele>1406</ele><speed>2.68</speed><time>2017-03-19T14:58:40Z</time><pdop>3.0</pdop><geoidheight>0.00</geoidheight><course>356.0</course><type>1</type></trkpt>
      <trkpt lat="42.99522406" lon="-2.39285336"><ele>1404</ele><speed>5.28</speed><time>2017-03-19T14:58:41Z</time><pdop>3.0</pdop><geoidheight>0.00</geoidheight><course>71.9</course><type>1</type></trkpt>
      <trkpt lat="42.99516407" lon="-2.39266825"><ele>1400</ele><speed>9.53</speed><time>2017-03-19T14:58:43Z</time><pdop>3.0</pdop><geoidheight>0.00</geoidheight><course>115.6</course><type>1</type></trkpt>
      <trkpt lat="42.99510525" lon="-2.39255235"><ele>1399</ele><speed>11.51</speed><time>2017-03-19T14:58:44Z</time><pdop>3.0</pdop><geoidheight>0.00</geoidheight><course>129.1</course><type>1</type></trkpt>
      <trkpt lat="42.99502813" lon="-2.39246313"><ele>1399</ele><speed>12.20</speed><time>2017-03-19T14:58:45Z</time><pdop>3.0</pdop><geoidheight>0.00</geoidheight><course>141.2</course><type>1</type></trkpt>
      <trkpt lat="42.99493617" lon="-2.39237607"><ele>1400</ele><speed>12.63</speed><time>2017-03-19T14:58:46Z</time><pdop>3.0</pdop><geoidheight>0.00</geoidheight><course>145.4</course><type>1</type></trkpt>
      <trkpt lat="42.99485334" lon="-2.39228867"><ele>1401</ele><speed>12.43</speed><time>2017-03-19T14:58:47Z</time><pdop>3.0</pdop><geoidheight>0.00</geoidheight><course>142.3</course><type>1</type></trkpt>
      <trkpt lat="42.99477842" lon="-2.39219127"><ele>1403</ele><speed>11.64</speed><time>2017-03-19T14:58:48Z</time><pdop>3.0</pdop><geoidheight>0.00</geoidheight><course>135.8</course><type>1</type></trkpt>
      <trkpt lat="42.99472542" lon="-2.39208091"><ele>1405</ele><speed>10.78</speed><time>2017-03-19T14:58:49Z</time><pdop>3.0</pdop><geoidheight>0.00</geoidheight><course>125.7</course><type>1</type></trkpt>
      <trkpt lat="42.9946926" lon="-2.3919539"><ele>1406</ele><speed>10.62</speed><time>2017-03-19T14:58:50Z</time><pdop>3.0</pdop><geoidheight>0.00</geoidheight><course>114.4</course><type>1</type></trkpt>
      <trkpt lat="42.99467405" lon="-2.39184162"><ele>1408</ele><speed>9.69</speed><time>2017-03-19T14:58:51Z</time><pdop>3.0</pdop><geoidheight>0.00</geoidheight><course>103.5</course><type>1</type></trkpt>
      <trkpt lat="42.99467006" lon="-2.39173738"><ele>1408</ele><speed>8.25</speed><time>2017-03-19T14:58:52Z</time><pdop>3.0</pdop><geoidheight>0.00</geoidheight><course>89.7</course><type>1</type></trkpt>
      <trkpt lat="42.99468988" lon="-2.39165587"><ele>1408</ele><speed>7.22</speed><time>2017-03-19T14:58:53Z</time><pdop>3.0</pdop><geoidheight>0.00</geoidheight><course>73.6</course><type>1</type></trkpt>
      <trkpt lat="42.99473124" lon="-2.39158623"><ele>1409</ele><speed>6.84</speed><time>2017-03-19T14:58:54Z</time><pdop>3.0</pdop><geoidheight>0.00</geoidheight><course>56.5</course><type>1</type></trkpt>
      <trkpt lat="42.99477892" lon="-2.39152939"><ele>1410</ele><speed>6.93</speed><time>2017-03-19T14:58:55Z</time><pdop>3.0</pdop><geoidheight>0.00</geoidheight><course>42.3</course><type>1</type></trkpt>
      <trkpt lat="42.99483313" lon="-2.39149393"><ele>1412</ele><speed>6.56</speed><time>2017-03-19T14:58:56Z</time><pdop>3.0</pdop><geoidheight>0.00</geoidheight><course>29.2</course><type>1</type></trkpt>
      <trkpt lat="42.9949119" lon="-2.39151165"><ele>1412</ele><speed>4.18</speed><time>2017-03-19T14:58:58Z</time><pdop>3.0</pdop><geoidheight>0.00</geoidheight><course>342.7</course><type>1</type></trkpt>
      <trkpt lat="42.99498793" lon="-2.39161765"><ele>1410</ele><speed>6.57</speed><time>2017-03-19T14:59:00Z</time><pdop>3.0</pdop><geoidheight>0.00</geoidheight><course>314.9</course><type>1</type></trkpt>
      <trkpt lat="42.99502626" lon="-2.3916991"><ele>1410</ele><speed>7.85</speed><time>2017-03-19T14:59:01Z</time><pdop>3.0</pdop><geoidheight>0.00</geoidheight><course>303.6</course><type>1</type></trkpt>
      <trkpt lat="42.99505935" lon="-2.39179558"><ele>1410</ele><speed>8.48</speed><time>2017-03-19T14:59:02Z</time><pdop>3.0</pdop><geoidheight>0.00</geoidheight><course>298.0</course><type>1</type></trkpt>
      <trkpt lat="42.99503384" lon="-2.39189796"><ele>1411</ele><speed>7.98</speed><time>2017-03-19T14:59:03Z</time><pdop>3.0</pdop><geoidheight>0.00</geoidheight><course>263.7</course><type>1</type></trkpt>
      <trkpt lat="42.99500949" lon="-2.39198986"><ele>1411</ele><speed>8.21</speed><time>2017-03-19T14:59:04Z</time><pdop>3.0</pdop><geoidheight>0.00</geoidheight><course>249.4</course><type>1</type></trkpt>
      <trkpt lat="42.99498318" lon="-2.39208375"><ele>1410</ele><speed>8.28</speed><time>2017-03-19T14:59:05Z</time><pdop>3.0</pdop><geoidheight>0.00</geoidheight><course>247.1</course><type>1</type></trkpt>
      <trkpt lat="42.99496223" lon="-2.39218493"><ele>1409</ele><speed>8.23</speed><time>2017-03-19T14:59:06Z</time><pdop>3.0</pdop><geoidheight>0.00</geoidheight><course>254.6</course><type>1</type></trkpt>
      <trkpt lat="42.99495018" lon="-2.39228223"><ele>1408</ele><speed>7.86</speed><time>2017-03-19T14:59:07Z</time><pdop>3.0</pdop><geoidheight>0.00</geoidheight><course>261.5</course><type>1</type></trkpt>
      <trkpt lat="42.9949427" lon="-2.39237075"><ele>1409</ele><speed>7.27</speed><time>2017-03-19T14:59:08Z</time><pdop>3.0</pdop><geoidheight>0.00</geoidheight><course>265.0</course><type>1</type></trkpt>
      <trkpt lat="42.99494866" lon="-2.39248391"><ele>1409</ele><speed>3.66</speed><time>2017-03-19T14:59:10Z</time><pdop>3.0</pdop><geoidheight>0.00</geoidheight><course>285.4</course><type>1</type></trkpt>
      <trkpt lat="42.99501282" lon="-2.39247113"><ele>1408</ele><speed>4.38</speed><time>2017-03-19T14:59:12Z</time><pdop>3.0</pdop><geoidheight>0.00</geoidheight><course>22.1</course><type>1</type></trkpt>
      <trkpt lat="42.9950374" lon="-2.39231984"><ele>1408</ele><speed>7.17</speed><time>2017-03-19T14:59:14Z</time><pdop>3.0</pdop><geoidheight>0.00</geoidheight><course>83.1</course><type>1</type></trkpt>
      <trkpt lat="42.99502038" lon="-2.39221469"><ele>1408</ele><speed>8.48</speed><time>2017-03-19T14:59:15Z</time><pdop>3.0</pdop><geoidheight>0.00</geoidheight><course>101.6</course><type>1</type></trkpt>
      <trkpt lat="42.99497799" lon="-2.39211408"><ele>1408</ele><speed>9.42</speed><time>2017-03-19T14:59:16Z</time><pdop>3.0</pdop><geoidheight>0.00</geoidheight><course>116.7</course><type>1</type></trkpt>
      <trkpt lat="42.99494229" lon="-2.39201537"><ele>1408</ele><speed>9.60</speed><time>2017-03-19T14:59:17Z</time><pdop>3.0</pdop><geoidheight>0.00</geoidheight><course>123.3</course><type>1</type></trkpt>
      <trkpt lat="42.99489533" lon="-2.39191502"><ele>1407</ele><speed>9.46</speed><time>2017-03-19T14:59:18Z</time><pdop>3.0</pdop><geoidheight>0.00</geoidheight><course>125.4</course><type>1</type></trkpt>
      <trkpt lat="42.9948481" lon="-2.39182117"><ele>1407</ele><speed>10.13</speed><time>2017-03-19T14:59:19Z</time><pdop>3.0</pdop><geoidheight>0.00</geoidheight><course>126.9</course><type>1</type></trkpt>
      <trkpt lat="42.99478866" lon="-2.39171701"><ele>1406</ele><speed>10.61</speed><time>2017-03-19T14:59:20Z</time><pdop>3.0</pdop><geoidheight>0.00</geoidheight><course>130.0</course><type>1</type></trkpt>
      <trkpt lat="42.99472915" lon="-2.39161948"><ele>1406</ele><speed>10.61</speed><time>2017-03-19T14:59:21Z</time><pdop>3.0</pdop><geoidheight>0.00</geoidheight><course>131.5</course><type>1</type></trkpt>
      <trkpt lat="42.99467254" lon="-2.39152195"><ele>1406</ele><speed>9.92</speed><time>2017-03-19T14:59:22Z</time><pdop>3.0</pdop><geoidheight>0.00</geoidheight><course>130.0</course><type>1</type></trkpt>
      <trkpt lat="42.9946251" lon="-2.39142813"><ele>1405</ele><speed>9.33</speed><time>2017-03-19T14:59:23Z</time><pdop>3.0</pdop><geoidheight>0.00</geoidheight><course>126.8</course><type>1</type></trkpt>
      <trkpt lat="42.9945787" lon="-2.3913269"><ele>1403</ele><speed>9.80</speed><time>2017-03-19T14:59:24Z</time><pdop>3.0</pdop><geoidheight>0.00</geoidheight><course>124.3</course><type>1</type></trkpt>
      <trkpt lat="42.99452752" lon="-2.39121916"><ele>1401</ele><speed>10.55</speed><time>2017-03-19T14:59:25Z</time><pdop>3.0</pdop><geoidheight>0.00</geoidheight><course>122.9</course><type>1</type></trkpt>
      <trkpt lat="42.99448062" lon="-2.39110696"><ele>1400</ele><speed>10.80</speed><time>2017-03-19T14:59:26Z</time><pdop>3.0</pdop><geoidheight>0.00</geoidheight><course>120.4</course><type>1</type></trkpt>
      <trkpt lat="42.99444223" lon="-2.39099235"><ele>1399</ele><speed>10.53</speed><time>2017-03-19T14:59:27Z</time><pdop>3.0</pdop><geoidheight>0.00</geoidheight><course>115.5</course><type>1</type></trkpt>
      <trkpt lat="42.99440919" lon="-2.39087876"><ele>1398</ele><speed>9.94</speed><time>2017-03-19T14:59:28Z</time><pdop>3.0</pdop><geoidheight>0.00</geoidheight><course>111.9</course><type>1</type></trkpt>
      <trkpt lat="42.99438246" lon="-2.39077376"><ele>1398</ele><speed>9.33</speed><time>2017-03-19T14:59:29Z</time><pdop>3.0</pdop><geoidheight>0.00</geoidheight><course>111.6</course><type>1</type></trkpt>
      <trkpt lat="42.99435236" lon="-2.39067789"><ele>1397</ele><speed>8.87</speed><time>2017-03-19T14:59:30Z</time><pdop>3.0</pdop><geoidheight>0.00</geoidheight><course>113.8</course><type>1</type></trkpt>
      <trkpt lat="42.99431838" lon="-2.39058416"><ele>1397</ele><speed>8.67</speed><time>2017-03-19T14:59:31Z</time><pdop>3.0</pdop><geoidheight>0.00</geoidheight><course>115.3</course><type>1</type></trkpt>
      <trkpt lat="42.99428195" lon="-2.39048225"><ele>1395</ele><speed>9.05</speed><time>2017-03-19T14:59:32Z</time><pdop>3.0</pdop><geoidheight>0.00</geoidheight><course>114.5</course><type>1</type></trkpt>
      <trkpt lat="42.99424658" lon="-2.39037392"><ele>1394</ele><speed>9.71</speed><time>2017-03-19T14:59:33Z</time><pdop>3.0</pdop><geoidheight>0.00</geoidheight><course>113.6</course><type>1</type></trkpt>
      <trkpt lat="42.994211" lon="-2.39026162"><ele>1394</ele><speed>10.25</speed><time>2017-03-19T14:59:34Z</time><pdop>3.0</pdop><geoidheight>0.00</geoidheight><course>114.8</course><type>1</type></trkpt>
      <trkpt lat="42.99417037" lon="-2.39014841"><ele>1395</ele><speed>10.47</speed><time>2017-03-19T14:59:35Z</time><pdop>3.0</pdop><geoidheight>0.00</geoidheight><course>117.1</course><type>1</type></trkpt>
      <trkpt lat="42.99412821" lon="-2.3900393"><ele>1395</ele><speed>10.14</speed><time>2017-03-19T14:59:36Z</time><pdop>3.0</pdop><geoidheight>0.00</geoidheight><course>118.8</course><type>1</type></trkpt>
      <trkpt lat="42.99408963" lon="-2.38993077"><ele>1396</ele><speed>9.62</speed><time>2017-03-19T14:59:37Z</time><pdop>3.0</pdop><geoidheight>0.00</geoidheight><course>118.8</course><type>1</type></trkpt>
      <trkpt lat="42.99405766" lon="-2.38982962"><ele>1397</ele><speed>9.24</speed><time>2017-03-19T14:59:38Z</time><pdop>3.0</pdop><geoidheight>0.00</geoidheight><course>116.3</course><type>1</type></trkpt>
      <trkpt lat="42.99402925" lon="-2.38972692"><ele>1396</ele><speed>9.22</speed><time>2017-03-19T14:59:39Z</time><pdop>3.0</pdop><geoidheight>0.00</geoidheight><course>112.6</course><type>1</type></trkpt>
      <trkpt lat="42.99399912" lon="-2.38961231"><ele>1396</ele><speed>9.51</speed><time>2017-03-19T14:59:40Z</time><pdop>3.0</pdop><geoidheight>0.00</geoidheight><course>109.9</course><type>1</type></trkpt>
      <trkpt lat="42.99397687" lon="-2.38949804"><ele>1396</ele><speed>9.73</speed><time>2017-03-19T14:59:41Z</time><pdop>3.0</pdop><geoidheight>0.00</geoidheight><course>108.2</course><type>1</type></trkpt>
      <trkpt lat="42.99395209" lon="-2.38938543"><ele>1396</ele><speed>9.66</speed><time>2017-03-19T14:59:42Z</time><pdop>3.0</pdop><geoidheight>0.00</geoidheight><course>107.5</course><type>1</type></trkpt>
      <trkpt lat="42.99392534" lon="-2.38927325"><ele>1395</ele><speed>9.75</speed><time>2017-03-19T14:59:43Z</time><pdop>3.0</pdop><geoidheight>0.00</geoidheight><course>108.7</course><type>1</type></trkpt>
      <trkpt lat="42.99389239" lon="-2.3891551"><ele>1393</ele><speed>10.26</speed><time>2017-03-19T14:59:44Z</time><pdop>3.0</pdop><geoidheight>0.00</geoidheight><course>110.5</course><type>1</type></trkpt>
      <trkpt lat="42.9938532" lon="-2.38902785"><ele>1392</ele><speed>11.12</speed><time>2017-03-19T14:59:45Z</time><pdop>3.0</pdop><geoidheight>0.00</geoidheight><course>112.0</course><type>1</type></trkpt>
      <trkpt lat="42.99381137" lon="-2.3888914"><ele>1391</ele><speed>11.98</speed><time>2017-03-19T14:59:46Z</time><pdop>3.0</pdop><geoidheight>0.00</geoidheight><course>112.5</course><type>1</type></trkpt>
      <trkpt lat="42.99376558" lon="-2.38875592"><ele>1391</ele><speed>11.77</speed><time>2017-03-19T14:59:47Z</time><pdop>3.0</pdop><geoidheight>0.00</geoidheight><course>114.5</course><type>1</type></trkpt>
      <trkpt lat="42.99371629" lon="-2.3886469"><ele>1392</ele><speed>10.47</speed><time>2017-03-19T14:59:48Z</time><pdop>3.0</pdop><geoidheight>0.00</geoidheight><course>120.7</course><type>1</type></trkpt>
      <trkpt lat="42.99366863" lon="-2.38854926"><ele>1391</ele><speed>9.98</speed><time>2017-03-19T14:59:49Z</time><pdop>3.0</pdop><geoidheight>0.00</geoidheight><course>127.8</course><type>1</type></trkpt>
      <trkpt lat="42.99360214" lon="-2.38845063"><ele>1389</ele><speed>10.16</speed><time>2017-03-19T14:59:50Z</time><pdop>3.0</pdop><geoidheight>0.00</geoidheight><course>130.3</course><type>1</type></trkpt>
      <trkpt lat="42.99354537" lon="-2.38835232"><ele>1388</ele><speed>10.45</speed><time>2017-03-19T14:59:51Z</time><pdop>3.0</pdop><geoidheight>0.00</geoidheight><course>129.6</course><type>1</type></trkpt>
      <trkpt lat="42.99348013" lon="-2.38824032"><ele>1386</ele><speed>10.98</speed><time>2017-03-19T14:59:52Z</time><pdop>3.0</pdop><geoidheight>0.00</geoidheight><course>128.6</course><type>1</type></trkpt>
      <trkpt lat="42.99341949" lon="-2.38813942"><ele>1386</ele><speed>10.41</speed><time>2017-03-19T14:59:53Z</time><pdop>3.0</pdop><geoidheight>0.00</geoidheight><course>129.1</course><type>1</type></trkpt>
      <trkpt lat="42.99336692" lon="-2.38805476"><ele>1385</ele><speed>9.02</speed><time>2017-03-19T14:59:54Z</time><pdop>3.0</pdop><geoidheight>0.00</geoidheight><course>129.6</course><type>1</type></trkpt>
      <trkpt lat="42.99332536" lon="-2.38797797"><ele>1385</ele><speed>7.82</speed><time>2017-03-19T14:59:55Z</time><pdop>3.0</pdop><geoidheight>0.00</geoidheight><course>129.1</course><type>1</type></trkpt>
      <trkpt lat="42.99328171" lon="-2.38790637"><ele>1382</ele><speed>7.59</speed><time>2017-03-19T14:59:56Z</time><pdop>3.0</pdop><geoidheight>0.00</geoidheight><course>126.7</course><type>1</type></trkpt>
      <trkpt lat="42.99323864" lon="-2.38781937"><ele>1380</ele><speed>8.15</speed><time>2017-03-19T14:59:57Z</time><pdop>3.0</pdop><geoidheight>0.00</geoidheight><course>124.6</course><type>1</type></trkpt>
      <trkpt lat="42.99318924" lon="-2.38772185"><ele>1378</ele><speed>9.23</speed><time>2017-03-19T14:59:58Z</time><pdop>3.0</pdop><geoidheight>0.00</geoidheight><course>124.6</course><type>1</type></trkpt>
      <trkpt lat="42.99313815" lon="-2.38762909"><ele>1376</ele><speed>9.45</speed><time>2017-03-19T14:59:59Z</time><pdop>3.0</pdop><geoidheight>0.00</geoidheight><course>123.9</course><type>1</type></trkpt>
      <trkpt lat="42.99309788" lon="-2.38753485"><ele>1375</ele><speed>8.73</speed><time>2017-03-19T15:00:00Z</time><pdop>3.0</pdop><geoidheight>0.00</geoidheight><course>120.7</course><type>1</type></trkpt>
      <trkpt lat="42.99306107" lon="-2.38744535"><ele>1373</ele><speed>8.31</speed><time>2017-03-19T15:00:01Z</time><pdop>3.0</pdop><geoidheight>0.00</geoidheight><course>117.4</course><type>1</type></trkpt>
      <trkpt lat="42.99302226" lon="-2.38734968"><ele>1371</ele><speed>8.57</speed><time>2017-03-19T15:00:02Z</time><pdop>3.0</pdop><geoidheight>0.00</geoidheight><course>118.7</course><type>1</type></trkpt>
      <trkpt lat="42.99296827" lon="-2.38726054"><ele>1370</ele><speed>9.39</speed><time>2017-03-19T15:00:03Z</time><pdop>3.0</pdop><geoidheight>0.00</geoidheight><course>123.8</course><type>1</type></trkpt>
      <trkpt lat="42.99292261" lon="-2.38716315"><ele>1369</ele><speed>9.64</speed><time>2017-03-19T15:00:04Z</time><pdop>3.0</pdop><geoidheight>0.00</geoidheight><course>126.2</course><type>1</type></trkpt>
      <trkpt lat="42.99286728" lon="-2.38706194"><ele>1368</ele><speed>10.57</speed><time>2017-03-19T15:00:05Z</time><pdop>3.0</pdop><geoidheight>0.00</geoidheight><course>126.4</course><type>1</type></trkpt>
      <trkpt lat="42.99281306" lon="-2.38696616"><ele>1367</ele><speed>10.28</speed><time>2017-03-19T15:00:06Z</time><pdop>3.0</pdop><geoidheight>0.00</geoidheight><course>129.9</course><type>1</type></trkpt>
      <trkpt lat="42.99275839" lon="-2.38687568"><ele>1367</ele><speed>9.75</speed><time>2017-03-19T15:00:07Z</time><pdop>3.0</pdop><geoidheight>0.00</geoidheight><course>130.0</course><type>1</type></trkpt>
      <trkpt lat="42.99269767" lon="-2.38678358"><ele>1367</ele><speed>9.16</speed><time>2017-03-19T15:00:08Z</time><pdop>3.0</pdop><geoidheight>0.00</geoidheight><course>128.9</course><type>1</type></trkpt>
      <trkpt lat="42.99265301" lon="-2.38668728"><ele>1365</ele><speed>8.85</speed><time>2017-03-19T15:00:09Z</time><pdop>3.0</pdop><geoidheight>0.00</geoidheight><course>125.3</course><type>1</type></trkpt>
      <trkpt lat="42.99261023" lon="-2.38660009"><ele>1365</ele><speed>9.06</speed><time>2017-03-19T15:00:10Z</time><pdop>3.0</pdop><geoidheight>0.00</geoidheight><course>120.9</course><type>1</type></trkpt>
      <trkpt lat="42.9925665" lon="-2.38649115"><ele>1363</ele><speed>9.68</speed><time>2017-03-19T15:00:11Z</time><pdop>3.0</pdop><geoidheight>0.00</geoidheight><course>118.9</course><type>1</type></trkpt>
      <trkpt lat="42.99251829" lon="-2.38638492"><ele>1362</ele><speed>10.03</speed><time>2017-03-19T15:00:12Z</time><pdop>3.0</pdop><geoidheight>0.00</geoidheight><course>120.8</course><type>1</type></trkpt>
      <trkpt lat="42.9924686" lon="-2.38628365"><ele>1362</ele><speed>10.06</speed><time>2017-03-19T15:00:13Z</time><pdop>3.0</pdop><geoidheight>0.00</geoidheight><course>124.4</course><type>1</type></trkpt>
      <trkpt lat="42.99241292" lon="-2.38618606"><ele>1361</ele><speed>10.09</speed><time>2017-03-19T15:00:14Z</time><pdop>3.0</pdop><geoidheight>0.00</geoidheight><course>127.0</course><type>1</type></trkpt>
      <trkpt lat="42.9923551" lon="-2.38608784"><ele>1361</ele><speed>10.24</speed><time>2017-03-19T15:00:15Z</time><pdop>3.0</pdop><geoidheight>0.00</geoidheight><course>127.4</course><type>1</type></trkpt>
      <trkpt lat="42.99229589" lon="-2.38597497"><ele>1361</ele><speed>10.75</speed><time>2017-03-19T15:00:16Z</time><pdop>3.0</pdop><geoidheight>0.00</geoidheight><course>125.6</course><type>1</type></trkpt>
      <trkpt lat="42.99223392" lon="-2.38586893"><ele>1361</ele><speed>10.89</speed><time>2017-03-19T15:00:17Z</time><pdop>3.0</pdop><geoidheight>0.00</geoidheight><course>126.9</course><type>1</type></trkpt>
      <trkpt lat="42.99217628" lon="-2.38576061"><ele>1361</ele><speed>11.17</speed><time>2017-03-19T15:00:18Z</time><pdop>3.0</pdop><geoidheight>0.00</geoidheight><course>126.5</course><type>1</type></trkpt>
      <trkpt lat="42.99211718" lon="-2.38564404"><ele>1362</ele><speed>11.25</speed><time>2017-03-19T15:00:19Z</time><pdop>3.0</pdop><geoidheight>0.00</geoidheight><course>125.5</course><type>1</type></trkpt>
      <trkpt lat="42.99206039" lon="-2.3855396"><ele>1362</ele><speed>10.68</speed><time>2017-03-19T15:00:20Z</time><pdop>3.0</pdop><geoidheight>0.00</geoidheight><course>126.2</course><type>1</type></trkpt>
      <trkpt lat="42.9920024" lon="-2.38544736"><ele>1362</ele><speed>10.04</speed><time>2017-03-19T15:00:21Z</time><pdop>3.0</pdop><geoidheight>0.00</geoidheight><course>128.9</course><type>1</type></trkpt>
      <trkpt lat="42.9919476" lon="-2.38535387"><ele>1362</ele><speed>10.06</speed><time>2017-03-19T15:00:22Z</time><pdop>3.0</pdop><geoidheight>0.00</geoidheight><course>130.8</course><type>1</type></trkpt>
      <trkpt lat="42.99188625" lon="-2.3852582"><ele>1361</ele><speed>10.43</speed><time>2017-03-19T15:00:23Z</time><pdop>3.0</pdop><geoidheight>0.00</geoidheight><course>131.2</course><type>1</type></trkpt>
      <trkpt lat="42.99182868" lon="-2.38514861"><ele>1360</ele><speed>10.90</speed><time>2017-03-19T15:00:24Z</time><pdop>3.0</pdop><geoidheight>0.00</geoidheight><course>126.4</course><type>1</type></trkpt>
      <trkpt lat="42.99177598" lon="-2.38502266"><ele>1360</ele><speed>11.67</speed><time>2017-03-19T15:00:25Z</time><pdop>3.0</pdop><geoidheight>0.00</geoidheight><course>119.1</course><type>1</type></trkpt>
      <trkpt lat="42.99173739" lon="-2.38488406"><ele>1359</ele><speed>11.94</speed><time>2017-03-19T15:00:26Z</time><pdop>3.0</pdop><geoidheight>0.00</geoidheight><course>110.6</course><type>1</type></trkpt>
      <trkpt lat="42.99170559" lon="-2.3847537"><ele>1360</ele><speed>11.39</speed><time>2017-03-19T15:00:27Z</time><pdop>3.0</pdop><geoidheight>0.00</geoidheight><course>106.6</course><type>1</type></trkpt>
      <trkpt lat="42.99167026" lon="-2.38463643"><ele>1361</ele><speed>10.31</speed><time>2017-03-19T15:00:28Z</time><pdop>3.0</pdop><geoidheight>0.00</geoidheight><course>111.6</course><type>1</type></trkpt>
      <trkpt lat="42.99162959" lon="-2.38453604"><ele>1361</ele><speed>9.76</speed><time>2017-03-19T15:00:29Z</time><pdop>3.0</pdop><geoidheight>0.00</geoidheight><course>118.3</course><type>1</type></trkpt>
      <trkpt lat="42.99158815" lon="-2.38444549"><ele>1361</ele><speed>9.58</speed><time>2017-03-19T15:00:30Z</time><pdop>3.0</pdop><geoidheight>0.00</geoidheight><course>125.2</course><type>1</type></trkpt>
      <trkpt lat="42.99153372" lon="-2.38434646"><ele>1359</ele><speed>10.05</speed><time>2017-03-19T15:00:31Z</time><pdop>3.0</pdop><geoidheight>0.00</geoidheight><course>124.5</course><type>1</type></trkpt>
      <trkpt lat="42.99148354" lon="-2.38423327"><ele>1358</ele><speed>11.04</speed><time>2017-03-19T15:00:32Z</time><pdop>3.0</pdop><geoidheight>0.00</geoidheight><course>122.0</course><type>1</type></trkpt>
      <trkpt lat="42.99143131" lon="-2.38410273"><ele>1356</ele><speed>11.84</speed><time>2017-03-19T15:00:33Z</time><pdop>3.0</pdop><geoidheight>0.00</geoidheight><course>118.9</course><type>1</type></trkpt>
      <trkpt lat="42.99138481" lon="-2.38396829"><ele>1355</ele><speed>12.04</speed><time>2017-03-19T15:00:34Z</time><pdop>3.0</pdop><geoidheight>0.00</geoidheight><course>114.5</course><type>1</type></trkpt>
      <trkpt lat="42.99135151" lon="-2.38383659"><ele>1356</ele><speed>11.43</speed><time>2017-03-19T15:00:35Z</time><pdop>3.0</pdop><geoidheight>0.00</geoidheight><course>110.8</course><type>1</type></trkpt>
      <trkpt lat="42.99132029" lon="-2.38371151"><ele>1356</ele><speed>10.64</speed><time>2017-03-19T15:00:36Z</time><pdop>3.0</pdop><geoidheight>0.00</geoidheight><course>108.5</course><type>1</type></trkpt>
      <trkpt lat="42.99129232" lon="-2.38359638"><ele>1356</ele><speed>10.12</speed><time>2017-03-19T15:00:37Z</time><pdop>3.0</pdop><geoidheight>0.00</geoidheight><course>108.6</course><type>1</type></trkpt>
      <trkpt lat="42.99126344" lon="-2.38348807"><ele>1357</ele><speed>9.59</speed><time>2017-03-19T15:00:38Z</time><pdop>3.0</pdop><geoidheight>0.00</geoidheight><course>110.2</course><type>1</type></trkpt>
      <trkpt lat="42.99122956" lon="-2.3833773"><ele>1357</ele><speed>9.49</speed><time>2017-03-19T15:00:39Z</time><pdop>3.0</pdop><geoidheight>0.00</geoidheight><course>112.5</course><type>1</type></trkpt>
      <trkpt lat="42.99119078" lon="-2.38326345"><ele>1356</ele><speed>9.77</speed><time>2017-03-19T15:00:40Z</time><pdop>3.0</pdop><geoidheight>0.00</geoidheight><course>114.0</course><type>1</type></trkpt>
      <trkpt lat="42.99116193" lon="-2.38314319"><ele>1354</ele><speed>10.58</speed><time>2017-03-19T15:00:41Z</time><pdop>3.0</pdop><geoidheight>0.00</geoidheight><course>110.7</course><type>1</type></trkpt>
      <trkpt lat="42.99113165" lon="-2.38302197"><ele>1353</ele><speed>10.68</speed><time>2017-03-19T15:00:42Z</time><pdop>3.0</pdop><geoidheight>0.00</geoidheight><course>108.7</course><type>1</type></trkpt>
      <trkpt lat="42.99110243" lon="-2.38290823"><ele>1353</ele><speed>9.94</speed><time>2017-03-19T15:00:43Z</time><pdop>3.0</pdop><geoidheight>0.00</geoidheight><course>108.3</course><type>1</type></trkpt>
      <trkpt lat="42.9910774" lon="-2.38278394"><ele>1352</ele><speed>10.44</speed><time>2017-03-19T15:00:44Z</time><pdop>4.0</pdop><geoidheight>0.00</geoidheight><course>106.0</course><type>1</type></trkpt>
      <trkpt lat="42.99104579" lon="-2.38268958"><ele>1351</ele><speed>9.46</speed><time>2017-03-19T15:00:45Z</time><pdop>3.0</pdop><geoidheight>0.00</geoidheight><course>111.8</course><type>1</type></trkpt>
      <trkpt lat="42.9910141" lon="-2.38257056"><ele>1351</ele><speed>9.87</speed><time>2017-03-19T15:00:46Z</time><pdop>3.0</pdop><geoidheight>0.00</geoidheight><course>111.9</course><type>1</type></trkpt>
      <trkpt lat="42.99099371" lon="-2.38244718"><ele>1348</ele><speed>10.21</speed><time>2017-03-19T15:00:47Z</time><pdop>3.0</pdop><geoidheight>0.00</geoidheight><course>107.0</course><type>1</type></trkpt>
      <trkpt lat="42.99096823" lon="-2.38232676"><ele>1348</ele><speed>10.15</speed><time>2017-03-19T15:00:48Z</time><pdop>3.0</pdop><geoidheight>0.00</geoidheight><course>103.7</course><type>1</type></trkpt>
      <trkpt lat="42.99095413" lon="-2.38220259"><ele>1346</ele><speed>9.90</speed><time>2017-03-19T15:00:49Z</time><pdop>3.0</pdop><geoidheight>0.00</geoidheight><course>100.9</course><type>1</type></trkpt>
      <trkpt lat="42.99093532" lon="-2.38209066"><ele>1345</ele><speed>9.52</speed><time>2017-03-19T15:00:50Z</time><pdop>3.0</pdop><geoidheight>0.00</geoidheight><course>99.2</course><type>1</type></trkpt>
      <trkpt lat="42.99091514" lon="-2.38197938"><ele>1344</ele><speed>9.45</speed><time>2017-03-19T15:00:51Z</time><pdop>3.0</pdop><geoidheight>0.00</geoidheight><course>98.3</course><type>1</type></trkpt>
      <trkpt lat="42.99090445" lon="-2.38186049"><ele>1342</ele><speed>9.99</speed><time>2017-03-19T15:00:52Z</time><pdop>3.0</pdop><geoidheight>0.00</geoidheight><course>98.7</course><type>1</type></trkpt>
      <trkpt lat="42.99088205" lon="-2.38172963"><ele>1342</ele><speed>11.00</speed><time>2017-03-19T15:00:53Z</time><pdop>3.0</pdop><geoidheight>0.00</geoidheight><course>101.7</course><type>1</type></trkpt>
      <trkpt lat="42.9908624" lon="-2.38159033"><ele>1342</ele><speed>11.88</speed><time>2017-03-19T15:00:54Z</time><pdop>3.0</pdop><geoidheight>0.00</geoidheight><course>103.2</course><type>1</type></trkpt>
      <trkpt lat="42.9908325" lon="-2.38145225"><ele>1342</ele><speed>11.95</speed><time>2017-03-19T15:00:55Z</time><pdop>3.0</pdop><geoidheight>0.00</geoidheight><course>104.1</course><type>1</type></trkpt>
      <trkpt lat="42.99081224" lon="-2.38132337"><ele>1342</ele><speed>11.01</speed><time>2017-03-19T15:00:56Z</time><pdop>3.0</pdop><geoidheight>0.00</geoidheight><course>105.3</course><type>1</type></trkpt>
      <trkpt lat="42.99078463" lon="-2.38120691"><ele>1342</ele><speed>10.09</speed><time>2017-03-19T15:00:57Z</time><pdop>3.0</pdop><geoidheight>0.00</geoidheight><course>107.4</course><type>1</type></trkpt>
      <trkpt lat="42.99075586" lon="-2.38109001"><ele>1342</ele><speed>10.15</speed><time>2017-03-19T15:00:58Z</time><pdop>3.0</pdop><geoidheight>0.00</geoidheight><course>108.5</course><type>1</type></trkpt>
      <trkpt lat="42.99072463" lon="-2.38096574"><ele>1340</ele><speed>10.90</speed><time>2017-03-19T15:00:59Z</time><pdop>3.0</pdop><geoidheight>0.00</geoidheight><course>108.5</course><type>1</type></trkpt>
      <trkpt lat="42.99069693" lon="-2.38082925"><ele>1339</ele><speed>12.10</speed><time>2017-03-19T15:01:00Z</time><pdop>3.0</pdop><geoidheight>0.00</geoidheight><course>108.3</course><type>1</type></trkpt>
      <trkpt lat="42.99065233" lon="-2.38068027"><ele>1338</ele><speed>12.75</speed><time>2017-03-19T15:01:01Z</time><pdop>3.0</pdop><geoidheight>0.00</geoidheight><course>109.4</course><type>1</type></trkpt>
      <trkpt lat="42.9906101" lon="-2.38054236"><ele>1337</ele><speed>12.31</speed><time>2017-03-19T15:01:02Z</time><pdop>3.0</pdop><geoidheight>0.00</geoidheight><course>111.8</course><type>1</type></trkpt>
      <trkpt lat="42.99056695" lon="-2.3804108"><ele>1337</ele><speed>11.75</speed><time>2017-03-19T15:01:03Z</time><pdop>3.0</pdop><geoidheight>0.00</geoidheight><course>114.2</course><type>1</type></trkpt>
      <trkpt lat="42.990521" lon="-2.38027378"><ele>1337</ele><speed>11.81</speed><time>2017-03-19T15:01:04Z</time><pdop>3.0</pdop><geoidheight>0.00</geoidheight><course>114.9</course><type>1</type></trkpt>
      <trkpt lat="42.99047768" lon="-2.3801375"><ele>1335</ele><speed>12.18</speed><time>2017-03-19T15:01:05Z</time><pdop>3.0</pdop><geoidheight>0.00</geoidheight><course>112.6</course><type>1</type></trkpt>
      <trkpt lat="42.99044124" lon="-2.37999603"><ele>1334</ele><speed>12.27</speed><time>2017-03-19T15:01:06Z</time><pdop>3.0</pdop><geoidheight>0.00</geoidheight><course>109.1</course><type>1</type></trkpt>
      <trkpt lat="42.99040836" lon="-2.37985711"><ele>1333</ele><speed>11.64</speed><time>2017-03-19T15:01:07Z</time><pdop>3.0</pdop><geoidheight>0.00</geoidheight><course>108.3</course><type>1</type></trkpt>
      <trkpt lat="42.99037271" lon="-2.37972955"><ele>1333</ele><speed>10.90</speed><time>2017-03-19T15:01:08Z</time><pdop>3.0</pdop><geoidheight>0.00</geoidheight><course>109.9</course><type>1</type></trkpt>
      <trkpt lat="42.99033973" lon="-2.379608"><ele>1332</ele><speed>10.51</speed><time>2017-03-19T15:01:09Z</time><pdop>3.0</pdop><geoidheight>0.00</geoidheight><course>109.3</course><type>1</type></trkpt>
      <trkpt lat="42.99031092" lon="-2.37948186"><ele>1330</ele><speed>10.61</speed><time>2017-03-19T15:01:10Z</time><pdop>3.0</pdop><geoidheight>0.00</geoidheight><course>106.5</course><type>1</type></trkpt>
      <trkpt lat="42.99027981" lon="-2.37934686"><ele>1329</ele><speed>11.10</speed><time>2017-03-19T15:01:11Z</time><pdop>3.0</pdop><geoidheight>0.00</geoidheight><course>104.2</course><type>1</type></trkpt>
      <trkpt lat="42.99025414" lon="-2.37920691"><ele>1328</ele><speed>11.44</speed><time>2017-03-19T15:01:12Z</time><pdop>3.0</pdop><geoidheight>0.00</geoidheight><course>104.1</course><type>1</type></trkpt>
      <trkpt lat="42.99023235" lon="-2.37906563"><ele>1327</ele><speed>11.19</speed><time>2017-03-19T15:01:13Z</time><pdop>3.0</pdop><geoidheight>0.00</geoidheight><course>103.3</course><type>1</type></trkpt>
      <trkpt lat="42.99021023" lon="-2.37893896"><ele>1327</ele><speed>10.21</speed><time>2017-03-19T15:01:14Z</time><pdop>3.0</pdop><geoidheight>0.00</geoidheight><course>101.6</course><type>1</type></trkpt>
      <trkpt lat="42.99019356" lon="-2.37882334"><ele>1325</ele><speed>9.86</speed><time>2017-03-19T15:01:15Z</time><pdop>3.0</pdop><geoidheight>0.00</geoidheight><course>101.5</course><type>1</type></trkpt>
      <trkpt lat="42.99017403" lon="-2.37870371"><ele>1324</ele><speed>9.91</speed><time>2017-03-19T15:01:16Z</time><pdop>3.0</pdop><geoidheight>0.00</geoidheight><course>102.4</course><type>1</type></trkpt>
      <trkpt lat="42.99015105" lon="-2.37857885"><ele>1324</ele><speed>10.40</speed><time>2017-03-19T15:01:17Z</time><pdop>3.0</pdop><geoidheight>0.00</geoidheight><course>102.8</course><type>1</type></trkpt>
      <trkpt lat="42.99013727" lon="-2.37845231"><ele>1323</ele><speed>10.43</speed><time>2017-03-19T15:01:18Z</time><pdop>3.0</pdop><geoidheight>0.00</geoidheight><course>99.7</course><type>1</type></trkpt>
      <trkpt lat="42.99012337" lon="-2.37832179"><ele>1323</ele><speed>10.23</speed><time>2017-03-19T15:01:19Z</time><pdop>3.0</pdop><geoidheight>0.00</geoidheight><course>100.9</course><type>1</type></trkpt>
      <trkpt lat="42.99010705" lon="-2.37819742"><ele>1323</ele><speed>10.21</speed><time>2017-03-19T15:01:20Z</time><pdop>3.0</pdop><geoidheight>0.00</geoidheight><course>103.6</course><type>1</type></trkpt>
      <trkpt lat="42.99008528" lon="-2.37807466"><ele>1322</ele><speed>10.29</speed><time>2017-03-19T15:01:21Z</time><pdop>3.0</pdop><geoidheight>0.00</geoidheight><course>104.0</course><type>1</type></trkpt>
      <trkpt lat="42.99007077" lon="-2.37794858"><ele>1322</ele><speed>10.06</speed><time>2017-03-19T15:01:22Z</time><pdop>3.0</pdop><geoidheight>0.00</geoidheight><course>101.1</course><type>1</type></trkpt>
      <trkpt lat="42.99006365" lon="-2.37782845"><ele>1323</ele><speed>9.49</speed><time>2017-03-19T15:01:23Z</time><pdop>3.0</pdop><geoidheight>0.00</geoidheight><course>98.4</course><type>1</type></trkpt>
      <trkpt lat="42.99003713" lon="-2.37771813"><ele>1323</ele><speed>9.44</speed><time>2017-03-19T15:01:24Z</time><pdop>4.0</pdop><geoidheight>0.00</geoidheight><course>105.4</course><type>1</type></trkpt>
      <trkpt lat="42.99000889" lon="-2.3776083"><ele>1322</ele><speed>9.56</speed><time>2017-03-19T15:01:25Z</time><pdop>4.0</pdop><geoidheight>0.00</geoidheight><course>109.8</course><type>1</type></trkpt>
      <trkpt lat="42.98997521" lon="-2.37748876"><ele>1321</ele><speed>9.91</speed><time>2017-03-19T15:01:26Z</time><pdop>3.0</pdop><geoidheight>0.00</geoidheight><course>110.0</course><type>1</type></trkpt>
      <trkpt lat="42.98994727" lon="-2.37736078"><ele>1320</ele><speed>10.28</speed><time>2017-03-19T15:01:27Z</time><pdop>4.0</pdop><geoidheight>0.00</geoidheight><course>107.2</course><type>1</type></trkpt>
      <trkpt lat="42.98992674" lon="-2.37723647"><ele>1320</ele><speed>10.02</speed><time>2017-03-19T15:01:28Z</time><pdop>4.0</pdop><geoidheight>0.00</geoidheight><course>104.5</course><type>1</type></trkpt>
      <trkpt lat="42.98990376" lon="-2.37712151"><ele>1320</ele><speed>9.78</speed><time>2017-03-19T15:01:29Z</time><pdop>4.0</pdop><geoidheight>0.00</geoidheight><course>104.9</course><type>1</type></trkpt>
      <trkpt lat="42.98988133" lon="-2.37701518"><ele>1320</ele><speed>9.13</speed><time>2017-03-19T15:01:30Z</time><pdop>4.0</pdop><geoidheight>0.00</geoidheight><course>106.2</course><type>1</type></trkpt>
      <trkpt lat="42.98985499" lon="-2.37690281"><ele>1319</ele><speed>9.60</speed><time>2017-03-19T15:01:31Z</time><pdop>4.0</pdop><geoidheight>0.00</geoidheight><course>106.7</course><type>1</type></trkpt>
      <trkpt lat="42.98983682" lon="-2.37678681"><ele>1318</ele><speed>9.88</speed><time>2017-03-19T15:01:32Z</time><pdop>4.0</pdop><geoidheight>0.00</geoidheight><course>106.0</course><type>1</type></trkpt>
      <trkpt lat="42.98980516" lon="-2.37667451"><ele>1318</ele><speed>10.03</speed><time>2017-03-19T15:01:33Z</time><pdop>3.0</pdop><geoidheight>0.00</geoidheight><course>107.8</course><type>1</type></trkpt>
      <trkpt lat="42.98978795" lon="-2.37656211"><ele>1317</ele><speed>9.86</speed><time>2017-03-19T15:01:34Z</time><pdop>3.0</pdop><geoidheight>0.00</geoidheight><course>110.8</course><type>1</type></trkpt>
      <trkpt lat="42.98975804" lon="-2.37645377"><ele>1317</ele><speed>9.20</speed><time>2017-03-19T15:01:35Z</time><pdop>3.0</pdop><geoidheight>0.00</geoidheight><course>110.7</course><type>1</type></trkpt>
      <trkpt lat="42.98972721" lon="-2.37635264"><ele>1318</ele><speed>8.48</speed><time>2017-03-19T15:01:36Z</time><pdop>3.0</pdop><geoidheight>0.00</geoidheight><course>112.9</course><type>1</type></trkpt>
      <trkpt lat="42.98970178" lon="-2.37627099"><ele>1319</ele><speed>7.29</speed><time>2017-03-19T15:01:37Z</time><pdop>3.0</pdop><geoidheight>0.00</geoidheight><course>114.2</course><type>1</type></trkpt>
      <trkpt lat="42.98965676" lon="-2.37613493"><ele>1319</ele><speed>6.23</speed><time>2017-03-19T15:01:39Z</time><pdop>3.0</pdop><geoidheight>0.00</geoidheight><course>116.2</course><type>1</type></trkpt>
      <trkpt lat="42.98963653" lon="-2.37605799"><ele>1317</ele><speed>6.76</speed><time>2017-03-19T15:01:40Z</time><pdop>3.0</pdop><geoidheight>0.00</geoidheight><course>110.7</course><type>1</type></trkpt>
      <trkpt lat="42.98961306" lon="-2.37596913"><ele>1315</ele><speed>7.60</speed><time>2017-03-19T15:01:41Z</time><pdop>3.0</pdop><geoidheight>0.00</geoidheight><course>110.4</course><type>1</type></trkpt>
      <trkpt lat="42.98958613" lon="-2.37586828"><ele>1314</ele><speed>8.39</speed><time>2017-03-19T15:01:42Z</time><pdop>3.0</pdop><geoidheight>0.00</geoidheight><course>109.4</course><type>1</type></trkpt>
      <trkpt lat="42.98956858" lon="-2.37576812"><ele>1313</ele><speed>8.54</speed><time>2017-03-19T15:01:43Z</time><pdop>3.0</pdop><geoidheight>0.00</geoidheight><course>106.4</course><type>1</type></trkpt>
      <trkpt lat="42.98954171" lon="-2.37566519"><ele>1312</ele><speed>8.74</speed><time>2017-03-19T15:01:44Z</time><pdop>3.0</pdop><geoidheight>0.00</geoidheight><course>106.8</course><type>1</type></trkpt>
      <trkpt lat="42.98951125" lon="-2.37556652"><ele>1312</ele><speed>8.83</speed><time>2017-03-19T15:01:45Z</time><pdop>3.0</pdop><geoidheight>0.00</geoidheight><course>109.9</course><type>1</type></trkpt>
      <trkpt lat="42.98947264" lon="-2.37546896"><ele>1312</ele><speed>9.12</speed><time>2017-03-19T15:01:46Z</time><pdop>3.0</pdop><geoidheight>0.00</geoidheight><course>116.0</course><type>1</type></trkpt>
      <trkpt lat="42.98943198" lon="-2.37537545"><ele>1313</ele><speed>9.33</speed><time>2017-03-19T15:01:47Z</time><pdop>3.0</pdop><geoidheight>0.00</geoidheight><course>119.9</course><type>1</type></trkpt>
      <trkpt lat="42.98938577" lon="-2.37528338"><ele>1313</ele><speed>9.13</speed><time>2017-03-19T15:01:48Z</time><pdop>3.0</pdop><geoidheight>0.00</geoidheight><course>123.6</course><type>1</type></trkpt>
      <trkpt lat="42.98933533" lon="-2.37520277"><ele>1313</ele><speed>8.78</speed><time>2017-03-19T15:01:49Z</time><pdop>3.0</pdop><geoidheight>0.00</geoidheight><course>126.2</course><type>1</type></trkpt>
      <trkpt lat="42.98928727" lon="-2.3751152"><ele>1313</ele><speed>8.71</speed><time>2017-03-19T15:01:50Z</time><pdop>3.0</pdop><geoidheight>0.00</geoidheight><course>127.7</course><type>1</type></trkpt>
      <trkpt lat="42.98924467" lon="-2.37503423"><ele>1313</ele><speed>8.74</speed><time>2017-03-19T15:01:51Z</time><pdop>3.0</pdop><geoidheight>0.00</geoidheight><course>126.3</course><type>1</type></trkpt>
      <trkpt lat="42.98919731" lon="-2.37493884"><ele>1312</ele><speed>8.92</speed><time>2017-03-19T15:01:52Z</time><pdop>3.0</pdop><geoidheight>0.00</geoidheight><course>123.2</course><type>1</type></trkpt>
      <trkpt lat="42.98915436" lon="-2.37485234"><ele>1312</ele><speed>8.84</speed><time>2017-03-19T15:01:53Z</time><pdop>3.0</pdop><geoidheight>0.00</geoidheight><course>123.9</course><type>1</type></trkpt>
      <trkpt lat="42.98910796" lon="-2.3747645"><ele>1312</ele><speed>8.52</speed><time>2017-03-19T15:01:54Z</time><pdop>3.0</pdop><geoidheight>0.00</geoidheight><course>129.4</course><type>1</type></trkpt>
      <trkpt lat="42.98905635" lon="-2.37469198"><ele>1312</ele><speed>8.51</speed><time>2017-03-19T15:01:55Z</time><pdop>3.0</pdop><geoidheight>0.00</geoidheight><course>136.1</course><type>1</type></trkpt>
      <trkpt lat="42.98900528" lon="-2.37462672"><ele>1311</ele><speed>8.22</speed><time>2017-03-19T15:01:56Z</time><pdop>3.0</pdop><geoidheight>0.00</geoidheight><course>138.0</course><type>1</type></trkpt>
      <trkpt lat="42.98895645" lon="-2.37456479"><ele>1310</ele><speed>7.73</speed><time>2017-03-19T15:01:57Z</time><pdop>3.0</pdop><geoidheight>0.00</geoidheight><course>135.7</course><type>1</type></trkpt>
      <trkpt lat="42.98891271" lon="-2.3744937"><ele>1309</ele><speed>7.66</speed><time>2017-03-19T15:01:58Z</time><pdop>3.0</pdop><geoidheight>0.00</geoidheight><course>129.9</course><type>1</type></trkpt>
      <trkpt lat="42.98887529" lon="-2.3744119"><ele>1307</ele><speed>7.91</speed><time>2017-03-19T15:01:59Z</time><pdop>3.0</pdop><geoidheight>0.00</geoidheight><course>124.7</course><type>1</type></trkpt>
      <trkpt lat="42.9888406" lon="-2.37434192"><ele>1306</ele><speed>7.03</speed><time>2017-03-19T15:02:00Z</time><pdop>3.0</pdop><geoidheight>0.00</geoidheight><course>123.3</course><type>1</type></trkpt>
      <trkpt lat="42.98880421" lon="-2.37427314"><ele>1304</ele><speed>6.79</speed><time>2017-03-19T15:02:01Z</time><pdop>3.0</pdop><geoidheight>0.00</geoidheight><course>123.2</course><type>1</type></trkpt>
      <trkpt lat="42.98877099" lon="-2.37420244"><ele>1302</ele><speed>6.46</speed><time>2017-03-19T15:02:02Z</time><pdop>3.0</pdop><geoidheight>0.00</geoidheight><course>121.3</course><type>1</type></trkpt>
      <trkpt lat="42.98874799" lon="-2.37413246"><ele>1299</ele><speed>6.16</speed><time>2017-03-19T15:02:03Z</time><pdop>3.0</pdop><geoidheight>0.00</geoidheight><course>116.5</course><type>1</type></trkpt>
      <trkpt lat="42.98873265" lon="-2.37405921"><ele>1297</ele><speed>6.21</speed><time>2017-03-19T15:02:04Z</time><pdop>3.0</pdop><geoidheight>0.00</geoidheight><course>107.4</course><type>1</type></trkpt>
      <trkpt lat="42.98869965" lon="-2.3739219"><ele>1294</ele><speed>5.66</speed><time>2017-03-19T15:02:06Z</time><pdop>3.0</pdop><geoidheight>0.00</geoidheight><course>111.6</course><type>1</type></trkpt>
      <trkpt lat="42.98865757" lon="-2.37379296"><ele>1291</ele><speed>5.59</speed><time>2017-03-19T15:02:08Z</time><pdop>3.0</pdop><geoidheight>0.00</geoidheight><course>119.3</course><type>1</type></trkpt>
      <trkpt lat="42.98862936" lon="-2.37364723"><ele>1287</ele><speed>5.85</speed><time>2017-03-19T15:02:10Z</time><pdop>3.0</pdop><geoidheight>0.00</geoidheight><course>98.6</course><type>1</type></trkpt>
      <trkpt lat="42.98862553" lon="-2.37355457"><ele>1286</ele><speed>6.81</speed><time>2017-03-19T15:02:11Z</time><pdop>3.0</pdop><geoidheight>0.00</geoidheight><course>96.8</course><type>1</type></trkpt>
      <trkpt lat="42.98860388" lon="-2.37346602"><ele>1285</ele><speed>7.51</speed><time>2017-03-19T15:02:12Z</time><pdop>3.0</pdop><geoidheight>0.00</geoidheight><course>103.0</course><type>1</type></trkpt>
      <trkpt lat="42.98857678" lon="-2.37338198"><ele>1284</ele><speed>7.39</speed><time>2017-03-19T15:02:13Z</time><pdop>3.0</pdop><geoidheight>0.00</geoidheight><course>109.6</course><type>1</type></trkpt>
      <trkpt lat="42.98855464" lon="-2.37330694"><ele>1285</ele><speed>6.94</speed><time>2017-03-19T15:02:14Z</time><pdop>3.0</pdop><geoidheight>0.00</geoidheight><course>108.2</course><type>1</type></trkpt>
      <trkpt lat="42.98853615" lon="-2.37323533"><ele>1284</ele><speed>6.31</speed><time>2017-03-19T15:02:15Z</time><pdop>3.0</pdop><geoidheight>0.00</geoidheight><course>110.3</course><type>1</type></trkpt>
      <trkpt lat="42.98851889" lon="-2.37315178"><ele>1284</ele><speed>6.85</speed><time>2017-03-19T15:02:16Z</time><pdop>3.0</pdop><geoidheight>0.00</geoidheight><course>104.5</course><type>1</type></trkpt>
      <trkpt lat="42.98847721" lon="-2.37307612"><ele>1283</ele><speed>7.66</speed><time>2017-03-19T15:02:17Z</time><pdop>3.0</pdop><geoidheight>0.00</geoidheight><course>122.6</course><type>1</type></trkpt>
      <trkpt lat="42.98843905" lon="-2.3729861"><ele>1281</ele><speed>8.63</speed><time>2017-03-19T15:02:18Z</time><pdop>3.0</pdop><geoidheight>0.00</geoidheight><course>120.8</course><type>1</type></trkpt>
      <trkpt lat="42.98839662" lon="-2.37289881"><ele>1281</ele><speed>8.24</speed><time>2017-03-19T15:02:19Z</time><pdop>3.0</pdop><geoidheight>0.00</geoidheight><course>123.7</course><type>1</type></trkpt>
      <trkpt lat="42.98836726" lon="-2.37278119"><ele>1281</ele><speed>9.56</speed><time>2017-03-19T15:02:20Z</time><pdop>3.0</pdop><geoidheight>0.00</geoidheight><course>112.3</course><type>1</type></trkpt>
      <trkpt lat="42.98833191" lon="-2.37268711"><ele>1280</ele><speed>8.86</speed><time>2017-03-19T15:02:21Z</time><pdop>3.0</pdop><geoidheight>0.00</geoidheight><course>116.5</course><type>1</type></trkpt>
      <trkpt lat="42.98829871" lon="-2.37260273"><ele>1280</ele><speed>8.28</speed><time>2017-03-19T15:02:22Z</time><pdop>3.0</pdop><geoidheight>0.00</geoidheight><course>118.1</course><type>1</type></trkpt>
      <trkpt lat="42.98826886" lon="-2.37251413"><ele>1279</ele><speed>8.52</speed><time>2017-03-19T15:02:23Z</time><pdop>3.0</pdop><geoidheight>0.00</geoidheight><course>115.2</course><type>1</type></trkpt>
      <trkpt lat="42.98823669" lon="-2.3724179"><ele>1279</ele><speed>8.69</speed><time>2017-03-19T15:02:24Z</time><pdop>3.0</pdop><geoidheight>0.00</geoidheight><course>115.3</course><type>1</type></trkpt>
      <trkpt lat="42.98819162" lon="-2.37230412"><ele>1278</ele><speed>9.94</speed><time>2017-03-19T15:02:25Z</time><pdop>3.0</pdop><geoidheight>0.00</geoidheight><course>115.5</course><type>1</type></trkpt>
      <trkpt lat="42.98814046" lon="-2.37220455"><ele>1278</ele><speed>10.19</speed><time>2017-03-19T15:02:26Z</time><pdop>3.0</pdop><geoidheight>0.00</geoidheight><course>122.1</course><type>1</type></trkpt>
      <trkpt lat="42.9880827" lon="-2.37210346"><ele>1277</ele><speed>10.24</speed><time>2017-03-19T15:02:27Z</time><pdop>3.0</pdop><geoidheight>0.00</geoidheight><course>126.3</course><type>1</type></trkpt>
      <trkpt lat="42.98803049" lon="-2.37200299"><ele>1277</ele><speed>10.01</speed><time>2017-03-19T15:02:28Z</time><pdop>3.0</pdop><geoidheight>0.00</geoidheight><course>126.5</course><type>1</type></trkpt>
      <trkpt lat="42.98797762" lon="-2.37191424"><ele>1276</ele><speed>10.00</speed><time>2017-03-19T15:02:29Z</time><pdop>3.0</pdop><geoidheight>0.00</geoidheight><course>127.8</course><type>1</type></trkpt>
      <trkpt lat="42.98791395" lon="-2.3718111"><ele>1275</ele><speed>10.46</speed><time>2017-03-19T15:02:30Z</time><pdop>3.0</pdop><geoidheight>0.00</geoidheight><course>129.8</course><type>1</type></trkpt>
      <trkpt lat="42.98785284" lon="-2.3717102"><ele>1275</ele><speed>11.05</speed><time>2017-03-19T15:02:31Z</time><pdop>3.0</pdop><geoidheight>0.00</geoidheight><course>130.0</course><type>1</type></trkpt>
      <trkpt lat="42.98779103" lon="-2.37160608"><ele>1275</ele><speed>11.16</speed><time>2017-03-19T15:02:32Z</time><pdop>3.0</pdop><geoidheight>0.00</geoidheight><course>128.9</course><type>1</type></trkpt>
      <trkpt lat="42.98773095" lon="-2.37150548"><ele>1275</ele><speed>10.65</speed><time>2017-03-19T15:02:33Z</time><pdop>3.0</pdop><geoidheight>0.00</geoidheight><course>130.2</course><type>1</type></trkpt>
      <trkpt lat="42.9876742" lon="-2.37140709"><ele>1275</ele><speed>10.24</speed><time>2017-03-19T15:02:34Z</time><pdop>3.0</pdop><geoidheight>0.00</geoidheight><course>129.2</course><type>1</type></trkpt>
      <trkpt lat="42.98761231" lon="-2.37131671"><ele>1275</ele><speed>9.99</speed><time>2017-03-19T15:02:35Z</time><pdop>3.0</pdop><geoidheight>0.00</geoidheight><course>133.4</course><type>1</type></trkpt>
      <trkpt lat="42.9875522" lon="-2.37122709"><ele>1274</ele><speed>9.98</speed><time>2017-03-19T15:02:36Z</time><pdop>3.0</pdop><geoidheight>0.00</geoidheight><course>134.1</course><type>1</type></trkpt>
      <trkpt lat="42.98750101" lon="-2.3711367"><ele>1274</ele><speed>9.28</speed><time>2017-03-19T15:02:37Z</time><pdop>3.0</pdop><geoidheight>0.00</geoidheight><course>130.2</course><type>1</type></trkpt>
      <trkpt lat="42.98743019" lon="-2.37102459"><ele>1273</ele><speed>11.61</speed><time>2017-03-19T15:02:38Z</time><pdop>3.0</pdop><geoidheight>0.00</geoidheight><course>130.5</course><type>1</type></trkpt>
      <trkpt lat="42.98735153" lon="-2.37091894"><ele>1273</ele><speed>11.85</speed><time>2017-03-19T15:02:39Z</time><pdop>3.0</pdop><geoidheight>0.00</geoidheight><course>134.9</course><type>1</type></trkpt>
      <trkpt lat="42.98729121" lon="-2.37081804"><ele>1274</ele><speed>10.59</speed><time>2017-03-19T15:02:40Z</time><pdop>3.0</pdop><geoidheight>0.00</geoidheight><course>128.5</course><type>1</type></trkpt>
      <trkpt lat="42.98723234" lon="-2.37072324"><ele>1275</ele><speed>9.82</speed><time>2017-03-19T15:02:41Z</time><pdop>3.0</pdop><geoidheight>0.00</geoidheight><course>129.8</course><type>1</type></trkpt>
      <trkpt lat="42.9871741" lon="-2.37065224"><ele>1275</ele><speed>8.67</speed><time>2017-03-19T15:02:42Z</time><pdop>3.0</pdop><geoidheight>0.00</geoidheight><course>135.7</course><type>1</type></trkpt>
      <trkpt lat="42.98711734" lon="-2.37057768"><ele>1274</ele><speed>8.77</speed><time>2017-03-19T15:02:43Z</time><pdop>3.0</pdop><geoidheight>0.00</geoidheight><course>135.4</course><type>1</type></trkpt>
      <trkpt lat="42.98705394" lon="-2.37048163"><ele>1272</ele><speed>10.40</speed><time>2017-03-19T15:02:44Z</time><pdop>3.0</pdop><geoidheight>0.00</geoidheight><course>131.6</course><type>1</type></trkpt>
      <trkpt lat="42.98698351" lon="-2.37036575"><ele>1270</ele><speed>11.96</speed><time>2017-03-19T15:02:45Z</time><pdop>3.0</pdop><geoidheight>0.00</geoidheight><course>127.5</course><type>1</type></trkpt>
      <trkpt lat="42.98691507" lon="-2.37024158"><ele>1271</ele><speed>12.74</speed><time>2017-03-19T15:02:46Z</time><pdop>3.0</pdop><geoidheight>0.00</geoidheight><course>128.4</course><type>1</type></trkpt>
      <trkpt lat="42.9868409" lon="-2.37013538"><ele>1271</ele><speed>12.22</speed><time>2017-03-19T15:02:47Z</time><pdop>3.0</pdop><geoidheight>0.00</geoidheight><course>132.4</course><type>1</type></trkpt>
      <trkpt lat="42.9867713" lon="-2.37003922"><ele>1272</ele><speed>10.85</speed><time>2017-03-19T15:02:48Z</time><pdop>3.0</pdop><geoidheight>0.00</geoidheight><course>134.7</course><type>1</type></trkpt>
      <trkpt lat="42.98670746" lon="-2.36994005"><ele>1272</ele><speed>10.77</speed><time>2017-03-19T15:02:49Z</time><pdop>3.0</pdop><geoidheight>0.00</geoidheight><course>133.8</course><type>1</type></trkpt>
      <trkpt lat="42.98664131" lon="-2.36983161"><ele>1271</ele><speed>11.53</speed><time>2017-03-19T15:02:50Z</time><pdop>3.0</pdop><geoidheight>0.00</geoidheight><course>131.0</course><type>1</type></trkpt>
      <trkpt lat="42.98657234" lon="-2.36971729"><ele>1271</ele><speed>11.89</speed><time>2017-03-19T15:02:51Z</time><pdop>3.0</pdop><geoidheight>0.00</geoidheight><course>129.5</course><type>1</type></trkpt>
      <trkpt lat="42.98651411" lon="-2.36961804"><ele>1273</ele><speed>10.79</speed><time>2017-03-19T15:02:52Z</time><pdop>3.0</pdop><geoidheight>0.00</geoidheight><course>128.8</course><type>1</type></trkpt>
      <trkpt lat="42.98646833" lon="-2.36952258"><ele>1275</ele><speed>9.36</speed><time>2017-03-19T15:02:53Z</time><pdop>3.0</pdop><geoidheight>0.00</geoidheight><course>126.1</course><type>1</type></trkpt>
      <trkpt lat="42.98642572" lon="-2.36943839"><ele>1276</ele><speed>8.39</speed><time>2017-03-19T15:02:54Z</time><pdop>3.0</pdop><geoidheight>0.00</geoidheight><course>125.4</course><type>1</type></trkpt>
      <trkpt lat="42.98638721" lon="-2.36934114"><ele>1275</ele><speed>8.56</speed><time>2017-03-19T15:02:55Z</time><pdop>3.0</pdop><geoidheight>0.00</geoidheight><course>121.5</course><type>1</type></trkpt>
      <trkpt lat="42.98634592" lon="-2.36923443"><ele>1274</ele><speed>9.78</speed><time>2017-03-19T15:02:56Z</time><pdop>3.0</pdop><geoidheight>0.00</geoidheight><course>118.6</course><type>1</type></trkpt>
      <trkpt lat="42.98630234" lon="-2.36911671"><ele>1273</ele><speed>10.44</speed><time>2017-03-19T15:02:57Z</time><pdop>3.0</pdop><geoidheight>0.00</geoidheight><course>117.1</course><type>1</type></trkpt>
      <trkpt lat="42.98626146" lon="-2.36900795"><ele>1273</ele><speed>10.04</speed><time>2017-03-19T15:02:58Z</time><pdop>3.0</pdop><geoidheight>0.00</geoidheight><course>116.4</course><type>1</type></trkpt>
      <trkpt lat="42.98622843" lon="-2.3688951"><ele>1272</ele><speed>9.87</speed><time>2017-03-19T15:02:59Z</time><pdop>3.0</pdop><geoidheight>0.00</geoidheight><course>113.2</course><type>1</type></trkpt>
      <trkpt lat="42.9861928" lon="-2.36877241"><ele>1272</ele><speed>10.77</speed><time>2017-03-19T15:03:00Z</time><pdop>3.0</pdop><geoidheight>0.00</geoidheight><course>112.2</course><type>1</type></trkpt>
      <trkpt lat="42.98615093" lon="-2.36865152"><ele>1272</ele><speed>11.15</speed><time>2017-03-19T15:03:01Z</time><pdop>3.0</pdop><geoidheight>0.00</geoidheight><course>115.6</course><type>1</type></trkpt>
      <trkpt lat="42.98610458" lon="-2.36853526"><ele>1273</ele><speed>10.79</speed><time>2017-03-19T15:03:02Z</time><pdop>3.0</pdop><geoidheight>0.00</geoidheight><course>118.1</course><type>1</type></trkpt>
      <trkpt lat="42.98606292" lon="-2.36842377"><ele>1273</ele><speed>10.10</speed><time>2017-03-19T15:03:03Z</time><pdop>3.0</pdop><geoidheight>0.00</geoidheight><course>117.3</course><type>1</type></trkpt>
      <trkpt lat="42.9860259" lon="-2.36831607"><ele>1273</ele><speed>9.67</speed><time>2017-03-19T15:03:04Z</time><pdop>3.0</pdop><geoidheight>0.00</geoidheight><course>115.7</course><type>1</type></trkpt>
      <trkpt lat="42.98598655" lon="-2.36820638"><ele>1273</ele><speed>9.81</speed><time>2017-03-19T15:03:05Z</time><pdop>3.0</pdop><geoidheight>0.00</geoidheight><course>117.0</course><type>1</type></trkpt>
      <trkpt lat="42.9859372" lon="-2.36809383"><ele>1273</ele><speed>10.50</speed><time>2017-03-19T15:03:06Z</time><pdop>3.0</pdop><geoidheight>0.00</geoidheight><course>120.9</course><type>1</type></trkpt>
      <trkpt lat="42.985882" lon="-2.36798652"><ele>1272</ele><speed>10.65</speed><time>2017-03-19T15:03:07Z</time><pdop>3.0</pdop><geoidheight>0.00</geoidheight><course>124.5</course><type>1</type></trkpt>
      <trkpt lat="42.9858279" lon="-2.36788795"><ele>1272</ele><speed>10.24</speed><time>2017-03-19T15:03:08Z</time><pdop>3.0</pdop><geoidheight>0.00</geoidheight><course>125.7</course><type>1</type></trkpt>
      <trkpt lat="42.98577783" lon="-2.36778107"><ele>1272</ele><speed>10.00</speed><time>2017-03-19T15:03:09Z</time><pdop>3.0</pdop><geoidheight>0.00</geoidheight><course>123.9</course><type>1</type></trkpt>
      <trkpt lat="42.98572349" lon="-2.36767372"><ele>1271</ele><speed>10.23</speed><time>2017-03-19T15:03:10Z</time><pdop>3.0</pdop><geoidheight>0.00</geoidheight><course>126.9</course><type>1</type></trkpt>
      <trkpt lat="42.98566999" lon="-2.36757029"><ele>1271</ele><speed>10.53</speed><time>2017-03-19T15:03:11Z</time><pdop>3.0</pdop><geoidheight>0.00</geoidheight><course>127.0</course><type>1</type></trkpt>
      <trkpt lat="42.98562004" lon="-2.36746644"><ele>1270</ele><speed>10.20</speed><time>2017-03-19T15:03:12Z</time><pdop>3.0</pdop><geoidheight>0.00</geoidheight><course>123.2</course><type>1</type></trkpt>
      <trkpt lat="42.98558103" lon="-2.367359"><ele>1271</ele><speed>9.74</speed><time>2017-03-19T15:03:13Z</time><pdop>3.0</pdop><geoidheight>0.00</geoidheight><course>117.8</course><type>1</type></trkpt>
      <trkpt lat="42.98555422" lon="-2.36724527"><ele>1272</ele><speed>9.55</speed><time>2017-03-19T15:03:14Z</time><pdop>3.0</pdop><geoidheight>0.00</geoidheight><course>113.8</course><type>1</type></trkpt>
      <trkpt lat="42.98552306" lon="-2.36711837"><ele>1271</ele><speed>9.64</speed><time>2017-03-19T15:03:15Z</time><pdop>3.0</pdop><geoidheight>0.00</geoidheight><course>112.9</course><type>1</type></trkpt>
      <trkpt lat="42.98548805" lon="-2.36702425"><ele>1271</ele><speed>8.98</speed><time>2017-03-19T15:03:16Z</time><pdop>3.0</pdop><geoidheight>0.00</geoidheight><course>116.4</course><type>1</type></trkpt>
      <trkpt lat="42.98545082" lon="-2.36692387"><ele>1272</ele><speed>9.20</speed><time>2017-03-19T15:03:17Z</time><pdop>3.0</pdop><geoidheight>0.00</geoidheight><course>118.0</course><type>1</type></trkpt>
      <trkpt lat="42.98540654" lon="-2.36682434"><ele>1271</ele><speed>9.48</speed><time>2017-03-19T15:03:18Z</time><pdop>3.0</pdop><geoidheight>0.00</geoidheight><course>119.5</course><type>1</type></trkpt>
      <trkpt lat="42.98536163" lon="-2.36673711"><ele>1272</ele><speed>9.10</speed><time>2017-03-19T15:03:19Z</time><pdop>3.0</pdop><geoidheight>0.00</geoidheight><course>122.4</course><type>1</type></trkpt>
      <trkpt lat="42.98531444" lon="-2.36665484"><ele>1271</ele><speed>8.76</speed><time>2017-03-19T15:03:20Z</time><pdop>3.0</pdop><geoidheight>0.00</geoidheight><course>126.2</course><type>1</type></trkpt>
      <trkpt lat="42.98526678" lon="-2.36657033"><ele>1271</ele><speed>8.63</speed><time>2017-03-19T15:03:21Z</time><pdop>3.0</pdop><geoidheight>0.00</geoidheight><course>130.1</course><type>1</type></trkpt>
      <trkpt lat="42.98521479" lon="-2.36648422"><ele>1270</ele><speed>9.14</speed><time>2017-03-19T15:03:22Z</time><pdop>3.0</pdop><geoidheight>0.00</geoidheight><course>128.9</course><type>1</type></trkpt>
      <trkpt lat="42.98517053" lon="-2.36640791"><ele>1269</ele><speed>8.66</speed><time>2017-03-19T15:03:23Z</time><pdop>3.0</pdop><geoidheight>0.00</geoidheight><course>128.6</course><type>1</type></trkpt>
      <trkpt lat="42.98512958" lon="-2.36630943"><ele>1267</ele><speed>8.83</speed><time>2017-03-19T15:03:24Z</time><pdop>3.0</pdop><geoidheight>0.00</geoidheight><course>121.2</course><type>1</type></trkpt>
      <trkpt lat="42.98508815" lon="-2.36622798"><ele>1267</ele><speed>8.24</speed><time>2017-03-19T15:03:25Z</time><pdop>3.0</pdop><geoidheight>0.00</geoidheight><course>126.0</course><type>1</type></trkpt>
      <trkpt lat="42.98504596" lon="-2.36613228"><ele>1267</ele><speed>9.09</speed><time>2017-03-19T15:03:26Z</time><pdop>3.0</pdop><geoidheight>0.00</geoidheight><course>120.1</course><type>1</type></trkpt>
      <trkpt lat="42.9850174" lon="-2.36603915"><ele>1267</ele><speed>8.62</speed><time>2017-03-19T15:03:27Z</time><pdop>3.0</pdop><geoidheight>0.00</geoidheight><course>116.0</course><type>1</type></trkpt>
      <trkpt lat="42.98499425" lon="-2.36594616"><ele>1266</ele><speed>8.07</speed><time>2017-03-19T15:03:28Z</time><pdop>3.0</pdop><geoidheight>0.00</geoidheight><course>113.7</course><type>1</type></trkpt>
      <trkpt lat="42.9849529" lon="-2.36584055"><ele>1264</ele><speed>9.08</speed><time>2017-03-19T15:03:29Z</time><pdop>3.0</pdop><geoidheight>0.00</geoidheight><course>115.5</course><type>1</type></trkpt>
      <trkpt lat="42.98490793" lon="-2.36572064"><ele>1262</ele><speed>10.40</speed><time>2017-03-19T15:03:30Z</time><pdop>3.0</pdop><geoidheight>0.00</geoidheight><course>114.2</course><type>1</type></trkpt>
      <trkpt lat="42.9848697" lon="-2.36560158"><ele>1260</ele><speed>10.79</speed><time>2017-03-19T15:03:31Z</time><pdop>3.0</pdop><geoidheight>0.00</geoidheight><course>113.1</course><type>1</type></trkpt>
      <trkpt lat="42.98482933" lon="-2.3654827"><ele>1260</ele><speed>10.51</speed><time>2017-03-19T15:03:32Z</time><pdop>3.0</pdop><geoidheight>0.00</geoidheight><course>112.9</course><type>1</type></trkpt>
      <trkpt lat="42.98478682" lon="-2.36535813"><ele>1259</ele><speed>11.25</speed><time>2017-03-19T15:03:33Z</time><pdop>3.0</pdop><geoidheight>0.00</geoidheight><course>113.1</course><type>1</type></trkpt>
      <trkpt lat="42.98475495" lon="-2.36524631"><ele>1259</ele><speed>10.18</speed><time>2017-03-19T15:03:34Z</time><pdop>3.0</pdop><geoidheight>0.00</geoidheight><course>111.2</course><type>1</type></trkpt>
      <trkpt lat="42.98472435" lon="-2.36513067"><ele>1259</ele><speed>10.22</speed><time>2017-03-19T15:03:35Z</time><pdop>3.0</pdop><geoidheight>0.00</geoidheight><course>110.1</course><type>1</type></trkpt>
      <trkpt lat="42.98469347" lon="-2.36501578"><ele>1259</ele><speed>10.21</speed><time>2017-03-19T15:03:36Z</time><pdop>3.0</pdop><geoidheight>0.00</geoidheight><course>109.9</course><type>1</type></trkpt>
      <trkpt lat="42.98465609" lon="-2.36490976"><ele>1259</ele><speed>9.87</speed><time>2017-03-19T15:03:37Z</time><pdop>3.0</pdop><geoidheight>0.00</geoidheight><course>111.9</course><type>1</type></trkpt>
      <trkpt lat="42.98462045" lon="-2.36480584"><ele>1259</ele><speed>9.51</speed><time>2017-03-19T15:03:38Z</time><pdop>3.0</pdop><geoidheight>0.00</geoidheight><course>113.8</course><type>1</type></trkpt>
      <trkpt lat="42.9845884" lon="-2.36470375"><ele>1258</ele><speed>9.15</speed><time>2017-03-19T15:03:39Z</time><pdop>3.0</pdop><geoidheight>0.00</geoidheight><course>112.2</course><type>1</type></trkpt>
      <trkpt lat="42.98456379" lon="-2.36459082"><ele>1257</ele><speed>9.51</speed><time>2017-03-19T15:03:40Z</time><pdop>3.0</pdop><geoidheight>0.00</geoidheight><course>107.8</course><type>1</type></trkpt>
      <trkpt lat="42.98454496" lon="-2.36447064"><ele>1255</ele><speed>10.32</speed><time>2017-03-19T15:03:41Z</time><pdop>3.0</pdop><geoidheight>0.00</geoidheight><course>104.0</course><type>1</type></trkpt>
      <trkpt lat="42.98452599" lon="-2.36434258"><ele>1253</ele><speed>11.04</speed><time>2017-03-19T15:03:42Z</time><pdop>3.0</pdop><geoidheight>0.00</geoidheight><course>102.2</course><type>1</type></trkpt>
      <trkpt lat="42.98450149" lon="-2.36419547"><ele>1253</ele><speed>11.36</speed><time>2017-03-19T15:03:43Z</time><pdop>3.0</pdop><geoidheight>0.00</geoidheight><course>103.0</course><type>1</type></trkpt>
      <trkpt lat="42.9844765" lon="-2.36406612"><ele>1253</ele><speed>10.86</speed><time>2017-03-19T15:03:44Z</time><pdop>3.0</pdop><geoidheight>0.00</geoidheight><course>103.3</course><type>1</type></trkpt>
      <trkpt lat="42.98445484" lon="-2.36395084"><ele>1253</ele><speed>9.96</speed><time>2017-03-19T15:03:45Z</time><pdop>3.0</pdop><geoidheight>0.00</geoidheight><course>103.5</course><type>1</type></trkpt>
      <trkpt lat="42.9844294" lon="-2.36384762"><ele>1253</ele><speed>9.14</speed><time>2017-03-19T15:03:46Z</time><pdop>3.0</pdop><geoidheight>0.00</geoidheight><course>105.0</course><type>1</type></trkpt>
      <trkpt lat="42.98439808" lon="-2.36374714"><ele>1253</ele><speed>9.10</speed><time>2017-03-19T15:03:47Z</time><pdop>3.0</pdop><geoidheight>0.00</geoidheight><course>109.8</course><type>1</type></trkpt>
      <trkpt lat="42.98436419" lon="-2.363638"><ele>1252</ele><speed>10.03</speed><time>2017-03-19T15:03:48Z</time><pdop>3.0</pdop><geoidheight>0.00</geoidheight><course>111.7</course><type>1</type></trkpt>
      <trkpt lat="42.98432886" lon="-2.36351641"><ele>1251</ele><speed>10.65</speed><time>2017-03-19T15:03:49Z</time><pdop>3.0</pdop><geoidheight>0.00</geoidheight><course>111.4</course><type>1</type></trkpt>
      <trkpt lat="42.9842974" lon="-2.36339027"><ele>1251</ele><speed>10.29</speed><time>2017-03-19T15:03:50Z</time><pdop>3.0</pdop><geoidheight>0.00</geoidheight><course>110.1</course><type>1</type></trkpt>
      <trkpt lat="42.98426455" lon="-2.36327204"><ele>1251</ele><speed>9.58</speed><time>2017-03-19T15:03:51Z</time><pdop>3.0</pdop><geoidheight>0.00</geoidheight><course>109.9</course><type>1</type></trkpt>
      <trkpt lat="42.98423264" lon="-2.36316593"><ele>1250</ele><speed>9.46</speed><time>2017-03-19T15:03:52Z</time><pdop>3.0</pdop><geoidheight>0.00</geoidheight><course>110.8</course><type>1</type></trkpt>
      <trkpt lat="42.98420059" lon="-2.3630517"><ele>1249</ele><speed>10.21</speed><time>2017-03-19T15:03:53Z</time><pdop>3.0</pdop><geoidheight>0.00</geoidheight><course>110.7</course><type>1</type></trkpt>
      <trkpt lat="42.98416423" lon="-2.36292995"><ele>1248</ele><speed>10.65</speed><time>2017-03-19T15:03:54Z</time><pdop>3.0</pdop><geoidheight>0.00</geoidheight><course>111.3</course><type>1</type></trkpt>
      <trkpt lat="42.98412876" lon="-2.36279869"><ele>1248</ele><speed>11.60</speed><time>2017-03-19T15:03:55Z</time><pdop>3.0</pdop><geoidheight>0.00</geoidheight><course>109.9</course><type>1</type></trkpt>
      <trkpt lat="42.98409339" lon="-2.36266956"><ele>1248</ele><speed>11.45</speed><time>2017-03-19T15:03:56Z</time><pdop>3.0</pdop><geoidheight>0.00</geoidheight><course>110.3</course><type>1</type></trkpt>
      <trkpt lat="42.98405824" lon="-2.36255106"><ele>1248</ele><speed>10.44</speed><time>2017-03-19T15:03:57Z</time><pdop>3.0</pdop><geoidheight>0.00</geoidheight><course>111.4</course><type>1</type></trkpt>
      <trkpt lat="42.98402443" lon="-2.36244596"><ele>1248</ele><speed>9.73</speed><time>2017-03-19T15:03:58Z</time><pdop>3.0</pdop><geoidheight>0.00</geoidheight><course>112.6</course><type>1</type></trkpt>
      <trkpt lat="42.98398649" lon="-2.36234046"><ele>1247</ele><speed>9.82</speed><time>2017-03-19T15:03:59Z</time><pdop>3.0</pdop><geoidheight>0.00</geoidheight><course>114.0</course><type>1</type></trkpt>
      <trkpt lat="42.98394882" lon="-2.36222663"><ele>1246</ele><speed>10.19</speed><time>2017-03-19T15:04:00Z</time><pdop>3.0</pdop><geoidheight>0.00</geoidheight><course>113.5</course><type>1</type></trkpt>
      <trkpt lat="42.98391789" lon="-2.36210874"><ele>1246</ele><speed>10.04</speed><time>2017-03-19T15:04:01Z</time><pdop>3.0</pdop><geoidheight>0.00</geoidheight><course>111.3</course><type>1</type></trkpt>
      <trkpt lat="42.98388682" lon="-2.36199076"><ele>1246</ele><speed>10.18</speed><time>2017-03-19T15:04:02Z</time><pdop>3.0</pdop><geoidheight>0.00</geoidheight><course>108.6</course><type>1</type></trkpt>
      <trkpt lat="42.98386054" lon="-2.36186867"><ele>1245</ele><speed>10.29</speed><time>2017-03-19T15:04:03Z</time><pdop>3.0</pdop><geoidheight>0.00</geoidheight><course>107.7</course><type>1</type></trkpt>
      <trkpt lat="42.98383229" lon="-2.36175444"><ele>1244</ele><speed>9.95</speed><time>2017-03-19T15:04:04Z</time><pdop>3.0</pdop><geoidheight>0.00</geoidheight><course>108.3</course><type>1</type></trkpt>
      <trkpt lat="42.98380188" lon="-2.36163357"><ele>1243</ele><speed>10.49</speed><time>2017-03-19T15:04:05Z</time><pdop>3.0</pdop><geoidheight>0.00</geoidheight><course>108.3</course><type>1</type></trkpt>
      <trkpt lat="42.98376415" lon="-2.36150497"><ele>1242</ele><speed>10.97</speed><time>2017-03-19T15:04:06Z</time><pdop>3.0</pdop><geoidheight>0.00</geoidheight><course>109.1</course><type>1</type></trkpt>
      <trkpt lat="42.98372817" lon="-2.3613748"><ele>1241</ele><speed>11.20</speed><time>2017-03-19T15:04:07Z</time><pdop>3.0</pdop><geoidheight>0.00</geoidheight><course>110.0</course><type>1</type></trkpt>
      <trkpt lat="42.9836923" lon="-2.36124657"><ele>1240</ele><speed>11.17</speed><time>2017-03-19T15:04:08Z</time><pdop>3.0</pdop><geoidheight>0.00</geoidheight><course>111.6</course><type>1</type></trkpt>
      <trkpt lat="42.98365447" lon="-2.36110748"><ele>1240</ele><speed>11.63</speed><time>2017-03-19T15:04:09Z</time><pdop>3.0</pdop><geoidheight>0.00</geoidheight><course>111.6</course><type>1</type></trkpt>
      <trkpt lat="42.98361633" lon="-2.36097662"><ele>1240</ele><speed>11.43</speed><time>2017-03-19T15:04:10Z</time><pdop>3.0</pdop><geoidheight>0.00</geoidheight><course>110.8</course><type>1</type></trkpt>
      <trkpt lat="42.98358439" lon="-2.36084619"><ele>1241</ele><speed>11.20</speed><time>2017-03-19T15:04:11Z</time><pdop>3.0</pdop><geoidheight>0.00</geoidheight><course>108.9</course><type>1</type></trkpt>
      <trkpt lat="42.98354966" lon="-2.36071722"><ele>1240</ele><speed>11.10</speed><time>2017-03-19T15:04:12Z</time><pdop>3.0</pdop><geoidheight>0.00</geoidheight><course>109.3</course><type>1</type></trkpt>
      <trkpt lat="42.98351286" lon="-2.36059085"><ele>1241</ele><speed>10.89</speed><time>2017-03-19T15:04:13Z</time><pdop>3.0</pdop><geoidheight>0.00</geoidheight><course>112.9</course><type>1</type></trkpt>
      <trkpt lat="42.98346717" lon="-2.36047336"><ele>1241</ele><speed>10.92</speed><time>2017-03-19T15:04:14Z</time><pdop>3.0</pdop><geoidheight>0.00</geoidheight><course>117.2</course><type>1</type></trkpt>
      <trkpt lat="42.98341456" lon="-2.36034892"><ele>1240</ele><speed>10.69</speed><time>2017-03-19T15:04:15Z</time><pdop>3.0</pdop><geoidheight>0.00</geoidheight><course>119.6</course><type>1</type></trkpt>
      <trkpt lat="42.98336698" lon="-2.36022582"><ele>1240</ele><speed>10.72</speed><time>2017-03-19T15:04:16Z</time><pdop>3.0</pdop><geoidheight>0.00</geoidheight><course>120.5</course><type>1</type></trkpt>
      <trkpt lat="42.98331617" lon="-2.3601067"><ele>1240</ele><speed>11.05</speed><time>2017-03-19T15:04:17Z</time><pdop>3.0</pdop><geoidheight>0.00</geoidheight><course>121.4</course><type>1</type></trkpt>
      <trkpt lat="42.98326575" lon="-2.3599886"><ele>1240</ele><speed>11.33</speed><time>2017-03-19T15:04:18Z</time><pdop>3.0</pdop><geoidheight>0.00</geoidheight><course>121.8</course><type>1</type></trkpt>
      <trkpt lat="42.98321759" lon="-2.35987323"><ele>1240</ele><speed>11.40</speed><time>2017-03-19T15:04:19Z</time><pdop>3.0</pdop><geoidheight>0.00</geoidheight><course>119.6</course><type>1</type></trkpt>
      <trkpt lat="42.98317501" lon="-2.3597638"><ele>1241</ele><speed>10.46</speed><time>2017-03-19T15:04:20Z</time><pdop>3.0</pdop><geoidheight>0.00</geoidheight><course>118.3</course><type>1</type></trkpt>
      <trkpt lat="42.98314116" lon="-2.35966567"><ele>1242</ele><speed>9.22</speed><time>2017-03-19T15:04:21Z</time><pdop>3.0</pdop><geoidheight>0.00</geoidheight><course>117.8</course><type>1</type></trkpt>
      <trkpt lat="42.98310554" lon="-2.35957274"><ele>1243</ele><speed>8.75</speed><time>2017-03-19T15:04:22Z</time><pdop>3.0</pdop><geoidheight>0.00</geoidheight><course>117.2</course><type>1</type></trkpt>
      <trkpt lat="42.9830749" lon="-2.35947675"><ele>1243</ele><speed>8.32</speed><time>2017-03-19T15:04:23Z</time><pdop>3.0</pdop><geoidheight>0.00</geoidheight><course>115.3</course><type>1</type></trkpt>
      <trkpt lat="42.98304872" lon="-2.35938222"><ele>1244</ele><speed>8.24</speed><time>2017-03-19T15:04:24Z</time><pdop>3.0</pdop><geoidheight>0.00</geoidheight><course>112.0</course><type>1</type></trkpt>
      <trkpt lat="42.98302082" lon="-2.35928973"><ele>1244</ele><speed>8.04</speed><time>2017-03-19T15:04:25Z</time><pdop>3.0</pdop><geoidheight>0.00</geoidheight><course>111.5</course><type>1</type></trkpt>
      <trkpt lat="42.98300412" lon="-2.35921509"><ele>1244</ele><speed>6.75</speed><time>2017-03-19T15:04:26Z</time><pdop>3.0</pdop><geoidheight>0.00</geoidheight><course>107.7</course><type>1</type></trkpt>
      <trkpt lat="42.98298649" lon="-2.35912581"><ele>1243</ele><speed>7.29</speed><time>2017-03-19T15:04:27Z</time><pdop>3.0</pdop><geoidheight>0.00</geoidheight><course>102.8</course><type>1</type></trkpt>
      <trkpt lat="42.98297187" lon="-2.35903583"><ele>1242</ele><speed>7.60</speed><time>2017-03-19T15:04:28Z</time><pdop>3.0</pdop><geoidheight>0.00</geoidheight><course>103.5</course><type>1</type></trkpt>
      <trkpt lat="42.9829431" lon="-2.35894129"><ele>1241</ele><speed>8.36</speed><time>2017-03-19T15:04:29Z</time><pdop>3.0</pdop><geoidheight>0.00</geoidheight><course>110.7</course><type>1</type></trkpt>
      <trkpt lat="42.98290964" lon="-2.35883836"><ele>1241</ele><speed>9.12</speed><time>2017-03-19T15:04:30Z</time><pdop>3.0</pdop><geoidheight>0.00</geoidheight><course>114.7</course><type>1</type></trkpt>
      <trkpt lat="42.98286164" lon="-2.35874169"><ele>1241</ele><speed>9.34</speed><time>2017-03-19T15:04:31Z</time><pdop>3.0</pdop><geoidheight>0.00</geoidheight><course>123.3</course><type>1</type></trkpt>
      <trkpt lat="42.98280297" lon="-2.35866294"><ele>1241</ele><speed>9.02</speed><time>2017-03-19T15:04:32Z</time><pdop>3.0</pdop><geoidheight>0.00</geoidheight><course>134.5</course><type>1</type></trkpt>
      <trkpt lat="42.98274644" lon="-2.35859853"><ele>1242</ele><speed>8.54</speed><time>2017-03-19T15:04:33Z</time><pdop>3.0</pdop><geoidheight>0.00</geoidheight><course>140.0</course><type>1</type></trkpt>
      <trkpt lat="42.98269255" lon="-2.35853236"><ele>1243</ele><speed>8.26</speed><time>2017-03-19T15:04:34Z</time><pdop>3.0</pdop><geoidheight>0.00</geoidheight><course>137.6</course><type>1</type></trkpt>
      <trkpt lat="42.9826467" lon="-2.35845843"><ele>1243</ele><speed>8.35</speed><time>2017-03-19T15:04:35Z</time><pdop>3.0</pdop><geoidheight>0.00</geoidheight><course>130.8</course><type>1</type></trkpt>
      <trkpt lat="42.98259685" lon="-2.35837651"><ele>1243</ele><speed>8.58</speed><time>2017-03-19T15:04:36Z</time><pdop>3.0</pdop><geoidheight>0.00</geoidheight><course>130.1</course><type>1</type></trkpt>
      <trkpt lat="42.98254747" lon="-2.35831075"><ele>1242</ele><speed>8.14</speed><time>2017-03-19T15:04:37Z</time><pdop>3.0</pdop><geoidheight>0.00</geoidheight><course>133.9</course><type>1</type></trkpt>
      <trkpt lat="42.98249425" lon="-2.35824366"><ele>1241</ele><speed>7.71</speed><time>2017-03-19T15:04:38Z</time><pdop>3.0</pdop><geoidheight>0.00</geoidheight><course>138.1</course><type>1</type></trkpt>
      <trkpt lat="42.98244627" lon="-2.35817604"><ele>1240</ele><speed>7.93</speed><time>2017-03-19T15:04:39Z</time><pdop>3.0</pdop><geoidheight>0.00</geoidheight><course>135.1</course><type>1</type></trkpt>
      <trkpt lat="42.98239344" lon="-2.35809582"><ele>1237</ele><speed>8.77</speed><time>2017-03-19T15:04:40Z</time><pdop>3.0</pdop><geoidheight>0.00</geoidheight><course>131.0</course><type>1</type></trkpt>
      <trkpt lat="42.98234457" lon="-2.35799778"><ele>1236</ele><speed>9.99</speed><time>2017-03-19T15:04:41Z</time><pdop>3.0</pdop><geoidheight>0.00</geoidheight><course>124.5</course><type>1</type></trkpt>
      <trkpt lat="42.9822933" lon="-2.35789521"><ele>1235</ele><speed>10.19</speed><time>2017-03-19T15:04:42Z</time><pdop>3.0</pdop><geoidheight>0.00</geoidheight><course>123.6</course><type>1</type></trkpt>
      <trkpt lat="42.98224192" lon="-2.35780309"><ele>1234</ele><speed>9.80</speed><time>2017-03-19T15:04:43Z</time><pdop>3.0</pdop><geoidheight>0.00</geoidheight><course>124.8</course><type>1</type></trkpt>
      <trkpt lat="42.98219563" lon="-2.35770518"><ele>1235</ele><speed>9.32</speed><time>2017-03-19T15:04:44Z</time><pdop>3.0</pdop><geoidheight>0.00</geoidheight><course>125.6</course><type>1</type></trkpt>
      <trkpt lat="42.98214774" lon="-2.35761968"><ele>1235</ele><speed>8.71</speed><time>2017-03-19T15:04:45Z</time><pdop>3.0</pdop><geoidheight>0.00</geoidheight><course>127.8</course><type>1</type></trkpt>
      <trkpt lat="42.98210691" lon="-2.35754003"><ele>1235</ele><speed>7.97</speed><time>2017-03-19T15:04:46Z</time><pdop>3.0</pdop><geoidheight>0.00</geoidheight><course>127.4</course><type>1</type></trkpt>
      <trkpt lat="42.98207237" lon="-2.35744772"><ele>1232</ele><speed>8.18</speed><time>2017-03-19T15:04:47Z</time><pdop>3.0</pdop><geoidheight>0.00</geoidheight><course>121.1</course><type>1</type></trkpt>
      <trkpt lat="42.98204226" lon="-2.35735022"><ele>1231</ele><speed>8.91</speed><time>2017-03-19T15:04:48Z</time><pdop>3.0</pdop><geoidheight>0.00</geoidheight><course>113.6</course><type>1</type></trkpt>
      <trkpt lat="42.98200892" lon="-2.35723628"><ele>1229</ele><speed>10.27</speed><time>2017-03-19T15:04:49Z</time><pdop>3.0</pdop><geoidheight>0.00</geoidheight><course>111.1</course><type>1</type></trkpt>
      <trkpt lat="42.98197513" lon="-2.35711641"><ele>1228</ele><speed>10.89</speed><time>2017-03-19T15:04:50Z</time><pdop>3.0</pdop><geoidheight>0.00</geoidheight><course>111.7</course><type>1</type></trkpt>
      <trkpt lat="42.98193338" lon="-2.35699866"><ele>1228</ele><speed>10.14</speed><time>2017-03-19T15:04:51Z</time><pdop>3.0</pdop><geoidheight>0.00</geoidheight><course>112.3</course><type>1</type></trkpt>
      <trkpt lat="42.98190117" lon="-2.35688373"><ele>1227</ele><speed>9.87</speed><time>2017-03-19T15:04:52Z</time><pdop>3.0</pdop><geoidheight>0.00</geoidheight><course>112.9</course><type>1</type></trkpt>
      <trkpt lat="42.98186679" lon="-2.356786"><ele>1227</ele><speed>9.46</speed><time>2017-03-19T15:04:53Z</time><pdop>3.0</pdop><geoidheight>0.00</geoidheight><course>115.9</course><type>1</type></trkpt>
      <trkpt lat="42.98182536" lon="-2.35667368"><ele>1226</ele><speed>10.04</speed><time>2017-03-19T15:04:54Z</time><pdop>3.0</pdop><geoidheight>0.00</geoidheight><course>116.6</course><type>1</type></trkpt>
      <trkpt lat="42.98177187" lon="-2.35655218"><ele>1226</ele><speed>10.39</speed><time>2017-03-19T15:04:55Z</time><pdop>3.0</pdop><geoidheight>0.00</geoidheight><course>116.3</course><type>1</type></trkpt>
      <trkpt lat="42.98172331" lon="-2.35643422"><ele>1225</ele><speed>10.95</speed><time>2017-03-19T15:04:56Z</time><pdop>3.0</pdop><geoidheight>0.00</geoidheight><course>119.1</course><type>1</type></trkpt>
      <trkpt lat="42.98165825" lon="-2.35630687"><ele>1225</ele><speed>11.45</speed><time>2017-03-19T15:04:57Z</time><pdop>3.0</pdop><geoidheight>0.00</geoidheight><course>123.3</course><type>1</type></trkpt>
      <trkpt lat="42.98159699" lon="-2.3562014"><ele>1226</ele><speed>10.64</speed><time>2017-03-19T15:04:58Z</time><pdop>3.0</pdop><geoidheight>0.00</geoidheight><course>127.1</course><type>1</type></trkpt>
      <trkpt lat="42.98154457" lon="-2.35610545"><ele>1226</ele><speed>9.48</speed><time>2017-03-19T15:04:59Z</time><pdop>3.0</pdop><geoidheight>0.00</geoidheight><course>127.8</course><type>1</type></trkpt>
      <trkpt lat="42.98150868" lon="-2.35603098"><ele>1226</ele><speed>8.20</speed><time>2017-03-19T15:05:00Z</time><pdop>3.0</pdop><geoidheight>0.00</geoidheight><course>127.2</course><type>1</type></trkpt>
      <trkpt lat="42.98147514" lon="-2.35593514"><ele>1226</ele><speed>8.76</speed><time>2017-03-19T15:05:01Z</time><pdop>4.0</pdop><geoidheight>0.00</geoidheight><course>123.0</course><type>1</type></trkpt>
      <trkpt lat="42.98141882" lon="-2.35585317"><ele>1224</ele><speed>8.89</speed><time>2017-03-19T15:05:02Z</time><pdop>3.0</pdop><geoidheight>0.00</geoidheight><course>127.0</course><type>1</type></trkpt>
      <trkpt lat="42.98137785" lon="-2.35575608"><ele>1224</ele><speed>9.15</speed><time>2017-03-19T15:05:03Z</time><pdop>3.0</pdop><geoidheight>0.00</geoidheight><course>126.5</course><type>1</type></trkpt>
      <trkpt lat="42.98133234" lon="-2.35564957"><ele>1224</ele><speed>9.35</speed><time>2017-03-19T15:05:04Z</time><pdop>3.0</pdop><geoidheight>0.00</geoidheight><course>125.6</course><type>1</type></trkpt>
      <trkpt lat="42.98128581" lon="-2.35556344"><ele>1223</ele><speed>8.60</speed><time>2017-03-19T15:05:05Z</time><pdop>3.0</pdop><geoidheight>0.00</geoidheight><course>125.0</course><type>1</type></trkpt>
      <trkpt lat="42.98124963" lon="-2.35547652"><ele>1223</ele><speed>8.10</speed><time>2017-03-19T15:05:06Z</time><pdop>3.0</pdop><geoidheight>0.00</geoidheight><course>121.7</course><type>1</type></trkpt>
      <trkpt lat="42.98122478" lon="-2.35539044"><ele>1223</ele><speed>7.81</speed><time>2017-03-19T15:05:07Z</time><pdop>4.0</pdop><geoidheight>0.00</geoidheight><course>117.8</course><type>1</type></trkpt>
      <trkpt lat="42.98117679" lon="-2.35525878"><ele>1220</ele><speed>9.38</speed><time>2017-03-19T15:05:08Z</time><pdop>3.0</pdop><geoidheight>0.00</geoidheight><course>117.1</course><type>1</type></trkpt>
      <trkpt lat="42.981139" lon="-2.35515516"><ele>1220</ele><speed>9.67</speed><time>2017-03-19T15:05:09Z</time><pdop>3.0</pdop><geoidheight>0.00</geoidheight><course>114.2</course><type>1</type></trkpt>
      <trkpt lat="42.98111878" lon="-2.35503787"><ele>1220</ele><speed>9.00</speed><time>2017-03-19T15:05:10Z</time><pdop>3.0</pdop><geoidheight>0.00</geoidheight><course>108.6</course><type>1</type></trkpt>
      <trkpt lat="42.981107" lon="-2.35494855"><ele>1221</ele><speed>7.96</speed><time>2017-03-19T15:05:11Z</time><pdop>3.0</pdop><geoidheight>0.00</geoidheight><course>102.1</course><type>1</type></trkpt>
      <trkpt lat="42.98109458" lon="-2.35484452"><ele>1220</ele><speed>7.82</speed><time>2017-03-19T15:05:12Z</time><pdop>3.0</pdop><geoidheight>0.00</geoidheight><course>101.3</course><type>1</type></trkpt>
      <trkpt lat="42.981076" lon="-2.35476948"><ele>1219</ele><speed>7.14</speed><time>2017-03-19T15:05:13Z</time><pdop>3.0</pdop><geoidheight>0.00</geoidheight><course>101.5</course><type>1</type></trkpt>
      <trkpt lat="42.98106005" lon="-2.35467456"><ele>1219</ele><speed>7.36</speed><time>2017-03-19T15:05:14Z</time><pdop>3.0</pdop><geoidheight>0.00</geoidheight><course>101.2</course><type>1</type></trkpt>
      <trkpt lat="42.98103586" lon="-2.35457735"><ele>1219</ele><speed>7.81</speed><time>2017-03-19T15:05:15Z</time><pdop>3.0</pdop><geoidheight>0.00</geoidheight><course>105.9</course><type>1</type></trkpt>
      <trkpt lat="42.98100792" lon="-2.35449134"><ele>1218</ele><speed>8.32</speed><time>2017-03-19T15:05:16Z</time><pdop>3.0</pdop><geoidheight>0.00</geoidheight><course>109.2</course><type>1</type></trkpt>
      <trkpt lat="42.98096855" lon="-2.35439266"><ele>1218</ele><speed>9.03</speed><time>2017-03-19T15:05:17Z</time><pdop>3.0</pdop><geoidheight>0.00</geoidheight><course>112.8</course><type>1</type></trkpt>
      <trkpt lat="42.98093159" lon="-2.35429628"><ele>1218</ele><speed>9.13</speed><time>2017-03-19T15:05:18Z</time><pdop>3.0</pdop><geoidheight>0.00</geoidheight><course>116.4</course><type>1</type></trkpt>
      <trkpt lat="42.98089862" lon="-2.35421058"><ele>1219</ele><speed>8.43</speed><time>2017-03-19T15:05:19Z</time><pdop>3.0</pdop><geoidheight>0.00</geoidheight><course>116.1</course><type>1</type></trkpt>
      <trkpt lat="42.98086299" lon="-2.35410541"><ele>1219</ele><speed>8.90</speed><time>2017-03-19T15:05:20Z</time><pdop>3.0</pdop><geoidheight>0.00</geoidheight><course>115.9</course><type>1</type></trkpt>
      <trkpt lat="42.98083261" lon="-2.35401855"><ele>1220</ele><speed>8.97</speed><time>2017-03-19T15:05:21Z</time><pdop>3.0</pdop><geoidheight>0.00</geoidheight><course>118.2</course><type>1</type></trkpt>
      <trkpt lat="42.98078766" lon="-2.35391799"><ele>1220</ele><speed>10.34</speed><time>2017-03-19T15:05:22Z</time><pdop>3.0</pdop><geoidheight>0.00</geoidheight><course>118.1</course><type>1</type></trkpt>
      <trkpt lat="42.98073845" lon="-2.35379568"><ele>1219</ele><speed>11.39</speed><time>2017-03-19T15:05:23Z</time><pdop>3.0</pdop><geoidheight>0.00</geoidheight><course>118.7</course><type>1</type></trkpt>
      <trkpt lat="42.9806915" lon="-2.35367357"><ele>1220</ele><speed>11.33</speed><time>2017-03-19T15:05:24Z</time><pdop>3.0</pdop><geoidheight>0.00</geoidheight><course>119.9</course><type>1</type></trkpt>
      <trkpt lat="42.98062531" lon="-2.35353912"><ele>1219</ele><speed>11.04</speed><time>2017-03-19T15:05:25Z</time><pdop>3.0</pdop><geoidheight>0.00</geoidheight><course>119.3</course><type>1</type></trkpt>
      <trkpt lat="42.9805721" lon="-2.35343283"><ele>1219</ele><speed>10.32</speed><time>2017-03-19T15:05:26Z</time><pdop>3.0</pdop><geoidheight>0.00</geoidheight><course>123.3</course><type>1</type></trkpt>
      <trkpt lat="42.98052385" lon="-2.35333664"><ele>1219</ele><speed>9.14</speed><time>2017-03-19T15:05:27Z</time><pdop>3.0</pdop><geoidheight>0.00</geoidheight><course>126.8</course><type>1</type></trkpt>
      <trkpt lat="42.9804836" lon="-2.3532543"><ele>1221</ele><speed>8.75</speed><time>2017-03-19T15:05:28Z</time><pdop>3.0</pdop><geoidheight>0.00</geoidheight><course>124.7</course><type>1</type></trkpt>
      <trkpt lat="42.98044996" lon="-2.3531577"><ele>1221</ele><speed>8.66</speed><time>2017-03-19T15:05:29Z</time><pdop>3.0</pdop><geoidheight>0.00</geoidheight><course>116.8</course><type>1</type></trkpt>
      <trkpt lat="42.98041699" lon="-2.35305411"><ele>1222</ele><speed>8.79</speed><time>2017-03-19T15:05:30Z</time><pdop>3.0</pdop><geoidheight>0.00</geoidheight><course>114.6</course><type>1</type></trkpt>
      <trkpt lat="42.98039797" lon="-2.35296211"><ele>1224</ele><speed>8.68</speed><time>2017-03-19T15:05:31Z</time><pdop>3.0</pdop><geoidheight>0.00</geoidheight><course>109.9</course><type>1</type></trkpt>
      <trkpt lat="42.98037333" lon="-2.35287527"><ele>1224</ele><speed>7.82</speed><time>2017-03-19T15:05:32Z</time><pdop>3.0</pdop><geoidheight>0.00</geoidheight><course>109.8</course><type>1</type></trkpt>
      <trkpt lat="42.98039579" lon="-2.35278979"><ele>1223</ele><speed>6.55</speed><time>2017-03-19T15:05:33Z</time><pdop>4.0</pdop><geoidheight>0.00</geoidheight><course>93.6</course><type>1</type></trkpt>
      <trkpt lat="42.98046241" lon="-2.35271965"><ele>1225</ele><speed>5.93</speed><time>2017-03-19T15:05:34Z</time><pdop>4.0</pdop><geoidheight>0.00</geoidheight><course>74.0</course><type>1</type></trkpt>
      <trkpt lat="42.98053917" lon="-2.35275897"><ele>1226</ele><speed>3.51</speed><time>2017-03-19T15:05:35Z</time><pdop>4.0</pdop><geoidheight>0.00</geoidheight><course>17.8</course><type>1</type></trkpt>
      <trkpt lat="42.98057867" lon="-2.35287549"><ele>1227</ele><speed>6.19</speed><time>2017-03-19T15:05:36Z</time><pdop>3.0</pdop><geoidheight>0.00</geoidheight><course>308.1</course><type>1</type></trkpt>
      <trkpt lat="42.98063278" lon="-2.35294644"><ele>1228</ele><speed>7.69</speed><time>2017-03-19T15:05:37Z</time><pdop>3.0</pdop><geoidheight>0.00</geoidheight><course>303.8</course><type>1</type></trkpt>
      <trkpt lat="42.98059" lon="-2.35306172"><ele>1231</ele><speed>9.21</speed><time>2017-03-19T15:05:38Z</time><pdop>3.0</pdop><geoidheight>0.00</geoidheight><course>253.6</course><type>1</type></trkpt>
      <trkpt lat="42.98056246" lon="-2.353142"><ele>1234</ele><speed>8.57</speed><time>2017-03-19T15:05:39Z</time><pdop>3.0</pdop><geoidheight>0.00</geoidheight><course>240.6</course><type>1</type></trkpt>
      <trkpt lat="42.98050056" lon="-2.35324705"><ele>1237</ele><speed>5.19</speed><time>2017-03-19T15:05:41Z</time><pdop>3.0</pdop><geoidheight>0.00</geoidheight><course>232.2</course><type>1</type></trkpt>
      <trkpt lat="42.9804903" lon="-2.35337194"><ele>1236</ele><speed>6.26</speed><time>2017-03-19T15:05:43Z</time><pdop>3.0</pdop><geoidheight>0.00</geoidheight><course>264.6</course><type>1</type></trkpt>
      <trkpt lat="42.98049512" lon="-2.35347254"><ele>1236</ele><speed>8.25</speed><time>2017-03-19T15:05:44Z</time><pdop>3.0</pdop><geoidheight>0.00</geoidheight><course>271.5</course><type>1</type></trkpt>
      <trkpt lat="42.9804988" lon="-2.35358635"><ele>1236</ele><speed>9.51</speed><time>2017-03-19T15:05:45Z</time><pdop>3.0</pdop><geoidheight>0.00</geoidheight><course>269.5</course><type>1</type></trkpt>
      <trkpt lat="42.980488" lon="-2.35369922"><ele>1238</ele><speed>8.78</speed><time>2017-03-19T15:05:46Z</time><pdop>3.0</pdop><geoidheight>0.00</geoidheight><course>263.8</course><type>1</type></trkpt>
      <trkpt lat="42.98047495" lon="-2.35382104"><ele>1241</ele><speed>4.34</speed><time>2017-03-19T15:05:48Z</time><pdop>3.0</pdop><geoidheight>0.00</geoidheight><course>264.0</course><type>1</type></trkpt>
      <trkpt lat="42.98049073" lon="-2.35392576"><ele>1239</ele><speed>5.46</speed><time>2017-03-19T15:05:50Z</time><pdop>3.0</pdop><geoidheight>0.00</geoidheight><course>288.3</course><type>1</type></trkpt>
      <trkpt lat="42.9805059" lon="-2.35401273"><ele>1239</ele><speed>6.94</speed><time>2017-03-19T15:05:51Z</time><pdop>3.0</pdop><geoidheight>0.00</geoidheight><course>285.7</course><type>1</type></trkpt>
      <trkpt lat="42.98051832" lon="-2.35411337"><ele>1239</ele><speed>7.82</speed><time>2017-03-19T15:05:52Z</time><pdop>3.0</pdop><geoidheight>0.00</geoidheight><course>280.6</course><type>1</type></trkpt>
      <trkpt lat="42.98052514" lon="-2.35422925"><ele>1239</ele><speed>9.26</speed><time>2017-03-19T15:05:53Z</time><pdop>3.0</pdop><geoidheight>0.00</geoidheight><course>275.9</course><type>1</type></trkpt>
      <trkpt lat="42.98052905" lon="-2.35431486"><ele>1238</ele><speed>7.59</speed><time>2017-03-19T15:05:54Z</time><pdop>3.0</pdop><geoidheight>0.00</geoidheight><course>274.8</course><type>1</type></trkpt>
      <trkpt lat="42.98055031" lon="-2.35438334"><ele>1238</ele><speed>6.33</speed><time>2017-03-19T15:05:55Z</time><pdop>3.0</pdop><geoidheight>0.00</geoidheight><course>280.1</course><type>1</type></trkpt>
      <trkpt lat="42.98059294" lon="-2.35451038"><ele>1238</ele><speed>5.81</speed><time>2017-03-19T15:05:57Z</time><pdop>4.0</pdop><geoidheight>0.00</geoidheight><course>297.5</course><type>1</type></trkpt>
      <trkpt lat="42.98066975" lon="-2.35457141"><ele>1238</ele><speed>5.30</speed><time>2017-03-19T15:05:59Z</time><pdop>4.0</pdop><geoidheight>0.00</geoidheight><course>339.2</course><type>1</type></trkpt>
      <trkpt lat="42.98077512" lon="-2.35447753"><ele>1239</ele><speed>6.47</speed><time>2017-03-19T15:06:01Z</time><pdop>6.0</pdop><geoidheight>0.00</geoidheight><course>31.4</course><type>1</type></trkpt>
      <trkpt lat="42.98079648" lon="-2.3543056"><ele>1242</ele><speed>7.21</speed><time>2017-03-19T15:06:03Z</time><pdop>5.0</pdop><geoidheight>0.00</geoidheight><course>86.7</course><type>1</type></trkpt>
      <trkpt lat="42.98073046" lon="-2.35413173"><ele>1240</ele><speed>8.57</speed><time>2017-03-19T15:06:05Z</time><pdop>5.0</pdop><geoidheight>0.00</geoidheight><course>117.2</course><type>1</type></trkpt>
      <trkpt lat="42.98064372" lon="-2.35393663"><ele>1239</ele><speed>9.91</speed><time>2017-03-19T15:06:07Z</time><pdop>4.0</pdop><geoidheight>0.00</geoidheight><course>122.6</course><type>1</type></trkpt>
      <trkpt lat="42.98058561" lon="-2.35384099"><ele>1239</ele><speed>10.16</speed><time>2017-03-19T15:06:08Z</time><pdop>4.0</pdop><geoidheight>0.00</geoidheight><course>128.7</course><type>1</type></trkpt>
      <trkpt lat="42.98051675" lon="-2.35375948"><ele>1240</ele><speed>9.60</speed><time>2017-03-19T15:06:09Z</time><pdop>4.0</pdop><geoidheight>0.00</geoidheight><course>135.6</course><type>1</type></trkpt>
      <trkpt lat="42.98045068" lon="-2.3536901"><ele>1240</ele><speed>9.47</speed><time>2017-03-19T15:06:10Z</time><pdop>4.0</pdop><geoidheight>0.00</geoidheight><course>138.7</course><type>1</type></trkpt>
      <trkpt lat="42.98039131" lon="-2.35360865"><ele>1238</ele><speed>9.66</speed><time>2017-03-19T15:06:11Z</time><pdop>4.0</pdop><geoidheight>0.00</geoidheight><course>135.9</course><type>1</type></trkpt>
      <trkpt lat="42.98033365" lon="-2.35351442"><ele>1239</ele><speed>9.93</speed><time>2017-03-19T15:06:12Z</time><pdop>4.0</pdop><geoidheight>0.00</geoidheight><course>132.5</course><type>1</type></trkpt>
      <trkpt lat="42.98027631" lon="-2.3534095"><ele>1239</ele><speed>10.14</speed><time>2017-03-19T15:06:13Z</time><pdop>4.0</pdop><geoidheight>0.00</geoidheight><course>129.2</course><type>1</type></trkpt>
      <trkpt lat="42.98022557" lon="-2.35331325"><ele>1239</ele><speed>10.13</speed><time>2017-03-19T15:06:14Z</time><pdop>4.0</pdop><geoidheight>0.00</geoidheight><course>126.5</course><type>1</type></trkpt>
      <trkpt lat="42.9801856" lon="-2.35321225"><ele>1239</ele><speed>9.68</speed><time>2017-03-19T15:06:15Z</time><pdop>4.0</pdop><geoidheight>0.00</geoidheight><course>120.6</course><type>1</type></trkpt>
      <trkpt lat="42.98015062" lon="-2.35310709"><ele>1239</ele><speed>9.58</speed><time>2017-03-19T15:06:16Z</time><pdop>4.0</pdop><geoidheight>0.00</geoidheight><course>114.9</course><type>1</type></trkpt>
      <trkpt lat="42.98012566" lon="-2.35298885"><ele>1240</ele><speed>10.04</speed><time>2017-03-19T15:06:17Z</time><pdop>4.0</pdop><geoidheight>0.00</geoidheight><course>107.5</course><type>1</type></trkpt>
      <trkpt lat="42.98009235" lon="-2.3528589"><ele>1240</ele><speed>10.79</speed><time>2017-03-19T15:06:18Z</time><pdop>3.0</pdop><geoidheight>0.00</geoidheight><course>110.2</course><type>1</type></trkpt>
      <trkpt lat="42.98004651" lon="-2.3527366"><ele>1239</ele><speed>11.13</speed><time>2017-03-19T15:06:19Z</time><pdop>3.0</pdop><geoidheight>0.00</geoidheight><course>116.8</course><type>1</type></trkpt>
      <trkpt lat="42.97999371" lon="-2.35262937"><ele>1240</ele><speed>10.65</speed><time>2017-03-19T15:06:20Z</time><pdop>3.0</pdop><geoidheight>0.00</geoidheight><course>122.9</course><type>1</type></trkpt>
      <trkpt lat="42.9799443" lon="-2.35252053"><ele>1241</ele><speed>10.15</speed><time>2017-03-19T15:06:21Z</time><pdop>3.0</pdop><geoidheight>0.00</geoidheight><course>122.7</course><type>1</type></trkpt>
      <trkpt lat="42.97990944" lon="-2.35240643"><ele>1241</ele><speed>9.69</speed><time>2017-03-19T15:06:22Z</time><pdop>3.0</pdop><geoidheight>0.00</geoidheight><course>115.8</course><type>1</type></trkpt>
      <trkpt lat="42.97988125" lon="-2.3522878"><ele>1241</ele><speed>10.01</speed><time>2017-03-19T15:06:23Z</time><pdop>3.0</pdop><geoidheight>0.00</geoidheight><course>109.8</course><type>1</type></trkpt>
      <trkpt lat="42.97984795" lon="-2.3521645"><ele>1241</ele><speed>10.58</speed><time>2017-03-19T15:06:24Z</time><pdop>3.0</pdop><geoidheight>0.00</geoidheight><course>109.5</course><type>1</type></trkpt>
      <trkpt lat="42.97980785" lon="-2.35203752"><ele>1242</ele><speed>10.95</speed><time>2017-03-19T15:06:25Z</time><pdop>3.0</pdop><geoidheight>0.00</geoidheight><course>113.8</course><type>1</type></trkpt>
      <trkpt lat="42.97976596" lon="-2.35191502"><ele>1242</ele><speed>11.00</speed><time>2017-03-19T15:06:26Z</time><pdop>3.0</pdop><geoidheight>0.00</geoidheight><course>116.8</course><type>1</type></trkpt>
      <trkpt lat="42.97972224" lon="-2.35179437"><ele>1242</ele><speed>10.87</speed><time>2017-03-19T15:06:27Z</time><pdop>3.0</pdop><geoidheight>0.00</geoidheight><course>116.7</course><type>1</type></trkpt>
      <trkpt lat="42.97968364" lon="-2.35167738"><ele>1242</ele><speed>10.56</speed><time>2017-03-19T15:06:28Z</time><pdop>4.0</pdop><geoidheight>0.00</geoidheight><course>115.1</course><type>1</type></trkpt>
      <trkpt lat="42.97967889" lon="-2.3515571"><ele>1242</ele><speed>9.75</speed><time>2017-03-19T15:06:29Z</time><pdop>3.0</pdop><geoidheight>0.00</geoidheight><course>105.1</course><type>1</type></trkpt>
      <trkpt lat="42.97967621" lon="-2.35141582"><ele>1241</ele><speed>9.53</speed><time>2017-03-19T15:06:30Z</time><pdop>3.0</pdop><geoidheight>0.00</geoidheight><course>100.4</course><type>1</type></trkpt>
      <trkpt lat="42.97967349" lon="-2.35128939"><ele>1240</ele><speed>9.70</speed><time>2017-03-19T15:06:31Z</time><pdop>4.0</pdop><geoidheight>0.00</geoidheight><course>95.8</course><type>1</type></trkpt>
      <trkpt lat="42.9796722" lon="-2.3511719"><ele>1240</ele><speed>9.73</speed><time>2017-03-19T15:06:32Z</time><pdop>4.0</pdop><geoidheight>0.00</geoidheight><course>92.8</course><type>1</type></trkpt>
      <trkpt lat="42.97966324" lon="-2.35105052"><ele>1239</ele><speed>9.83</speed><time>2017-03-19T15:06:33Z</time><pdop>4.0</pdop><geoidheight>0.00</geoidheight><course>93.6</course><type>1</type></trkpt>
      <trkpt lat="42.97964591" lon="-2.35092096"><ele>1240</ele><speed>9.99</speed><time>2017-03-19T15:06:34Z</time><pdop>5.0</pdop><geoidheight>0.00</geoidheight><course>95.9</course><type>1</type></trkpt>
      <trkpt lat="42.97960402" lon="-2.35070548"><ele>1240</ele><speed>8.68</speed><time>2017-03-19T15:06:36Z</time><pdop>5.0</pdop><geoidheight>0.00</geoidheight><course>100.9</course><type>1</type></trkpt>
      <trkpt lat="42.97954747" lon="-2.35050304"><ele>1241</ele><speed>9.57</speed><time>2017-03-19T15:06:38Z</time><pdop>4.0</pdop><geoidheight>0.00</geoidheight><course>109.2</course><type>1</type></trkpt>
      <trkpt lat="42.97950682" lon="-2.3503862"><ele>1241</ele><speed>10.17</speed><time>2017-03-19T15:06:39Z</time><pdop>4.0</pdop><geoidheight>0.00</geoidheight><course>112.3</course><type>1</type></trkpt>
      <trkpt lat="42.9794661" lon="-2.35027821"><ele>1241</ele><speed>10.33</speed><time>2017-03-19T15:06:40Z</time><pdop>3.0</pdop><geoidheight>0.00</geoidheight><course>117.0</course><type>1</type></trkpt>
      <trkpt lat="42.97943204" lon="-2.35019058"><ele>1243</ele><speed>9.19</speed><time>2017-03-19T15:06:41Z</time><pdop>3.0</pdop><geoidheight>0.00</geoidheight><course>122.0</course><type>1</type></trkpt>
      <trkpt lat="42.9793868" lon="-2.35011523"><ele>1244</ele><speed>8.53</speed><time>2017-03-19T15:06:42Z</time><pdop>3.0</pdop><geoidheight>0.00</geoidheight><course>127.7</course><type>1</type></trkpt>
      <trkpt lat="42.97934342" lon="-2.35005182"><ele>1244</ele><speed>8.49</speed><time>2017-03-19T15:06:43Z</time><pdop>3.0</pdop><geoidheight>0.00</geoidheight><course>129.5</course><type>1</type></trkpt>
      <trkpt lat="42.97929175" lon="-2.34995678"><ele>1243</ele><speed>9.72</speed><time>2017-03-19T15:06:44Z</time><pdop>3.0</pdop><geoidheight>0.00</geoidheight><course>128.0</course><type>1</type></trkpt>
      <trkpt lat="42.97924066" lon="-2.34984343"><ele>1243</ele><speed>10.79</speed><time>2017-03-19T15:06:45Z</time><pdop>3.0</pdop><geoidheight>0.00</geoidheight><course>121.5</course><type>1</type></trkpt>
      <trkpt lat="42.97920136" lon="-2.34972526"><ele>1245</ele><speed>11.27</speed><time>2017-03-19T15:06:46Z</time><pdop>3.0</pdop><geoidheight>0.00</geoidheight><course>114.9</course><type>1</type></trkpt>
      <trkpt lat="42.97916684" lon="-2.34960623"><ele>1246</ele><speed>10.91</speed><time>2017-03-19T15:06:47Z</time><pdop>3.0</pdop><geoidheight>0.00</geoidheight><course>112.8</course><type>1</type></trkpt>
      <trkpt lat="42.97913063" lon="-2.3494955"><ele>1247</ele><speed>10.29</speed><time>2017-03-19T15:06:48Z</time><pdop>3.0</pdop><geoidheight>0.00</geoidheight><course>113.4</course><type>1</type></trkpt>
      <trkpt lat="42.97909572" lon="-2.34941796"><ele>1247</ele><speed>8.54</speed><time>2017-03-19T15:06:49Z</time><pdop>3.0</pdop><geoidheight>0.00</geoidheight><course>116.3</course><type>1</type></trkpt>
      <trkpt lat="42.97906561" lon="-2.34933485"><ele>1248</ele><speed>7.95</speed><time>2017-03-19T15:06:50Z</time><pdop>3.0</pdop><geoidheight>0.00</geoidheight><course>116.3</course><type>1</type></trkpt>
      <trkpt lat="42.9790421" lon="-2.34923922"><ele>1248</ele><speed>8.17</speed><time>2017-03-19T15:06:51Z</time><pdop>3.0</pdop><geoidheight>0.00</geoidheight><course>109.1</course><type>1</type></trkpt>
      <trkpt lat="42.97902384" lon="-2.34912854"><ele>1248</ele><speed>8.63</speed><time>2017-03-19T15:06:52Z</time><pdop>3.0</pdop><geoidheight>0.00</geoidheight><course>104.7</course><type>1</type></trkpt>
      <trkpt lat="42.97900219" lon="-2.34902471"><ele>1248</ele><speed>8.74</speed><time>2017-03-19T15:06:53Z</time><pdop>3.0</pdop><geoidheight>0.00</geoidheight><course>104.9</course><type>1</type></trkpt>
      <trkpt lat="42.97897642" lon="-2.34892949"><ele>1248</ele><speed>8.46</speed><time>2017-03-19T15:06:54Z</time><pdop>3.0</pdop><geoidheight>0.00</geoidheight><course>107.2</course><type>1</type></trkpt>
      <trkpt lat="42.97895264" lon="-2.34885173"><ele>1249</ele><speed>7.58</speed><time>2017-03-19T15:06:55Z</time><pdop>3.0</pdop><geoidheight>0.00</geoidheight><course>109.1</course><type>1</type></trkpt>
      <trkpt lat="42.97892312" lon="-2.34877576"><ele>1248</ele><speed>7.09</speed><time>2017-03-19T15:06:56Z</time><pdop>3.0</pdop><geoidheight>0.00</geoidheight><course>112.8</course><type>1</type></trkpt>
      <trkpt lat="42.97889614" lon="-2.34869755"><ele>1247</ele><speed>7.54</speed><time>2017-03-19T15:06:57Z</time><pdop>3.0</pdop><geoidheight>0.00</geoidheight><course>117.6</course><type>1</type></trkpt>
      <trkpt lat="42.97886752" lon="-2.34859219"><ele>1246</ele><speed>8.55</speed><time>2017-03-19T15:06:58Z</time><pdop>3.0</pdop><geoidheight>0.00</geoidheight><course>114.1</course><type>1</type></trkpt>
      <trkpt lat="42.97883045" lon="-2.34848164"><ele>1245</ele><speed>9.49</speed><time>2017-03-19T15:06:59Z</time><pdop>3.0</pdop><geoidheight>0.00</geoidheight><course>112.2</course><type>1</type></trkpt>
      <trkpt lat="42.9787903" lon="-2.34838857"><ele>1246</ele><speed>10.07</speed><time>2017-03-19T15:07:00Z</time><pdop>3.0</pdop><geoidheight>0.00</geoidheight><course>114.4</course><type>1</type></trkpt>
      <trkpt lat="42.97874577" lon="-2.34829493"><ele>1245</ele><speed>9.20</speed><time>2017-03-19T15:07:01Z</time><pdop>4.0</pdop><geoidheight>0.00</geoidheight><course>114.5</course><type>1</type></trkpt>
      <trkpt lat="42.9787065" lon="-2.34821245"><ele>1245</ele><speed>8.64</speed><time>2017-03-19T15:07:02Z</time><pdop>4.0</pdop><geoidheight>0.00</geoidheight><course>118.2</course><type>1</type></trkpt>
      <trkpt lat="42.97866621" lon="-2.3481175"><ele>1244</ele><speed>9.13</speed><time>2017-03-19T15:07:03Z</time><pdop>4.0</pdop><geoidheight>0.00</geoidheight><course>118.8</course><type>1</type></trkpt>
      <trkpt lat="42.97863045" lon="-2.34801177"><ele>1243</ele><speed>10.08</speed><time>2017-03-19T15:07:04Z</time><pdop>4.0</pdop><geoidheight>0.00</geoidheight><course>118.7</course><type>1</type></trkpt>
      <trkpt lat="42.97855765" lon="-2.34789923"><ele>1240</ele><speed>11.04</speed><time>2017-03-19T15:07:05Z</time><pdop>4.0</pdop><geoidheight>0.00</geoidheight><course>125.5</course><type>1</type></trkpt>
      <trkpt lat="42.97850115" lon="-2.34778314"><ele>1241</ele><speed>11.29</speed><time>2017-03-19T15:07:06Z</time><pdop>5.0</pdop><geoidheight>0.00</geoidheight><course>126.7</course><type>1</type></trkpt>
      <trkpt lat="42.97843627" lon="-2.34766776"><ele>1241</ele><speed>11.70</speed><time>2017-03-19T15:07:07Z</time><pdop>6.0</pdop><geoidheight>0.00</geoidheight><course>127.5</course><type>1</type></trkpt>
      <trkpt lat="42.97828845" lon="-2.34749782"><ele>1238</ele><speed>11.12</speed><time>2017-03-19T15:07:09Z</time><pdop>4.0</pdop><geoidheight>0.00</geoidheight><course>138.2</course><type>1</type></trkpt>
      <trkpt lat="42.97820623" lon="-2.34743752"><ele>1237</ele><speed>10.98</speed><time>2017-03-19T15:07:10Z</time><pdop>4.0</pdop><geoidheight>0.00</geoidheight><course>143.0</course><type>1</type></trkpt>
      <trkpt lat="42.9781229" lon="-2.34737585"><ele>1234</ele><speed>10.90</speed><time>2017-03-19T15:07:11Z</time><pdop>3.0</pdop><geoidheight>0.00</geoidheight><course>144.8</course><type>1</type></trkpt>
      <trkpt lat="42.9780499" lon="-2.34729293"><ele>1233</ele><speed>10.36</speed><time>2017-03-19T15:07:12Z</time><pdop>3.0</pdop><geoidheight>0.00</geoidheight><course>140.3</course><type>1</type></trkpt>
      <trkpt lat="42.97798522" lon="-2.34719172"><ele>1232</ele><speed>9.98</speed><time>2017-03-19T15:07:13Z</time><pdop>3.0</pdop><geoidheight>0.00</geoidheight><course>131.8</course><type>1</type></trkpt>
      <trkpt lat="42.97793833" lon="-2.34707962"><ele>1229</ele><speed>10.54</speed><time>2017-03-19T15:07:14Z</time><pdop>3.0</pdop><geoidheight>0.00</geoidheight><course>120.4</course><type>1</type></trkpt>
      <trkpt lat="42.97789832" lon="-2.34696268"><ele>1228</ele><speed>10.80</speed><time>2017-03-19T15:07:15Z</time><pdop>3.0</pdop><geoidheight>0.00</geoidheight><course>115.7</course><type>1</type></trkpt>
      <trkpt lat="42.97786219" lon="-2.34684594"><ele>1226</ele><speed>10.35</speed><time>2017-03-19T15:07:16Z</time><pdop>3.0</pdop><geoidheight>0.00</geoidheight><course>114.1</course><type>1</type></trkpt>
      <trkpt lat="42.97782873" lon="-2.34674465"><ele>1225</ele><speed>9.42</speed><time>2017-03-19T15:07:17Z</time><pdop>3.0</pdop><geoidheight>0.00</geoidheight><course>113.7</course><type>1</type></trkpt>
      <trkpt lat="42.97779693" lon="-2.34665325"><ele>1223</ele><speed>8.67</speed><time>2017-03-19T15:07:18Z</time><pdop>3.0</pdop><geoidheight>0.00</geoidheight><course>114.0</course><type>1</type></trkpt>
      <trkpt lat="42.97776138" lon="-2.34655528"><ele>1220</ele><speed>9.16</speed><time>2017-03-19T15:07:19Z</time><pdop>3.0</pdop><geoidheight>0.00</geoidheight><course>116.1</course><type>1</type></trkpt>
      <trkpt lat="42.97771971" lon="-2.34644277"><ele>1217</ele><speed>10.37</speed><time>2017-03-19T15:07:20Z</time><pdop>3.0</pdop><geoidheight>0.00</geoidheight><course>116.9</course><type>1</type></trkpt>
      <trkpt lat="42.97767492" lon="-2.34631034"><ele>1213</ele><speed>11.63</speed><time>2017-03-19T15:07:21Z</time><pdop>3.0</pdop><geoidheight>0.00</geoidheight><course>114.1</course><type>1</type></trkpt>
      <trkpt lat="42.9776371" lon="-2.34619089"><ele>1212</ele><speed>10.75</speed><time>2017-03-19T15:07:22Z</time><pdop>3.0</pdop><geoidheight>0.00</geoidheight><course>112.4</course><type>1</type></trkpt>
      <trkpt lat="42.97760293" lon="-2.34608045"><ele>1211</ele><speed>9.88</speed><time>2017-03-19T15:07:23Z</time><pdop>3.0</pdop><geoidheight>0.00</geoidheight><course>111.8</course><type>1</type></trkpt>
      <trkpt lat="42.97756554" lon="-2.34598683"><ele>1210</ele><speed>9.07</speed><time>2017-03-19T15:07:24Z</time><pdop>3.0</pdop><geoidheight>0.00</geoidheight><course>114.7</course><type>1</type></trkpt>
      <trkpt lat="42.97752427" lon="-2.34589036"><ele>1209</ele><speed>9.18</speed><time>2017-03-19T15:07:25Z</time><pdop>3.0</pdop><geoidheight>0.00</geoidheight><course>118.5</course><type>1</type></trkpt>
      <trkpt lat="42.97746402" lon="-2.34580396"><ele>1206</ele><speed>9.94</speed><time>2017-03-19T15:07:26Z</time><pdop>3.0</pdop><geoidheight>0.00</geoidheight><course>128.9</course><type>1</type></trkpt>
      <trkpt lat="42.9773934" lon="-2.34571417"><ele>1206</ele><speed>10.60</speed><time>2017-03-19T15:07:27Z</time><pdop>3.0</pdop><geoidheight>0.00</geoidheight><course>136.2</course><type>1</type></trkpt>
      <trkpt lat="42.97733032" lon="-2.34561445"><ele>1205</ele><speed>10.43</speed><time>2017-03-19T15:07:28Z</time><pdop>4.0</pdop><geoidheight>0.00</geoidheight><course>133.3</course><type>1</type></trkpt>
      <trkpt lat="42.97724256" lon="-2.34553137"><ele>1206</ele><speed>11.33</speed><time>2017-03-19T15:07:29Z</time><pdop>3.0</pdop><geoidheight>0.00</geoidheight><course>139.4</course><type>1</type></trkpt>
      <trkpt lat="42.9771665" lon="-2.34545975"><ele>1206</ele><speed>10.38</speed><time>2017-03-19T15:07:30Z</time><pdop>3.0</pdop><geoidheight>0.00</geoidheight><course>143.0</course><type>1</type></trkpt>
      <trkpt lat="42.97708947" lon="-2.3454165"><ele>1206</ele><speed>9.77</speed><time>2017-03-19T15:07:31Z</time><pdop>3.0</pdop><geoidheight>0.00</geoidheight><course>149.7</course><type>1</type></trkpt>
      <trkpt lat="42.97700338" lon="-2.34535582"><ele>1206</ele><speed>10.74</speed><time>2017-03-19T15:07:32Z</time><pdop>3.0</pdop><geoidheight>0.00</geoidheight><course>152.8</course><type>1</type></trkpt>
      <trkpt lat="42.97691287" lon="-2.34530122"><ele>1205</ele><speed>11.31</speed><time>2017-03-19T15:07:33Z</time><pdop>3.0</pdop><geoidheight>0.00</geoidheight><course>155.1</course><type>1</type></trkpt>
      <trkpt lat="42.97681199" lon="-2.34523208"><ele>1205</ele><speed>12.05</speed><time>2017-03-19T15:07:34Z</time><pdop>3.0</pdop><geoidheight>0.00</geoidheight><course>153.8</course><type>1</type></trkpt>
      <trkpt lat="42.97672002" lon="-2.34518102"><ele>1206</ele><speed>11.38</speed><time>2017-03-19T15:07:35Z</time><pdop>4.0</pdop><geoidheight>0.00</geoidheight><course>154.6</course><type>1</type></trkpt>
      <trkpt lat="42.97663779" lon="-2.34514411"><ele>1206</ele><speed>10.42</speed><time>2017-03-19T15:07:36Z</time><pdop>4.0</pdop><geoidheight>0.00</geoidheight><course>158.4</course><type>1</type></trkpt>
      <trkpt lat="42.97655411" lon="-2.34511138"><ele>1205</ele><speed>9.84</speed><time>2017-03-19T15:07:37Z</time><pdop>4.0</pdop><geoidheight>0.00</geoidheight><course>160.6</course><type>1</type></trkpt>
      <trkpt lat="42.97647354" lon="-2.34507776"><ele>1205</ele><speed>9.45</speed><time>2017-03-19T15:07:38Z</time><pdop>4.0</pdop><geoidheight>0.00</geoidheight><course>162.3</course><type>1</type></trkpt>
      <trkpt lat="42.97638051" lon="-2.34505061"><ele>1205</ele><speed>9.82</speed><time>2017-03-19T15:07:39Z</time><pdop>4.0</pdop><geoidheight>0.00</geoidheight><course>165.8</course><type>1</type></trkpt>
      <trkpt lat="42.97629043" lon="-2.34501154"><ele>1205</ele><speed>9.97</speed><time>2017-03-19T15:07:40Z</time><pdop>4.0</pdop><geoidheight>0.00</geoidheight><course>164.5</course><type>1</type></trkpt>
      <trkpt lat="42.97620206" lon="-2.34496798"><ele>1205</ele><speed>10.02</speed><time>2017-03-19T15:07:41Z</time><pdop>4.0</pdop><geoidheight>0.00</geoidheight><course>160.7</course><type>1</type></trkpt>
      <trkpt lat="42.97609736" lon="-2.34487878"><ele>1203</ele><speed>11.17</speed><time>2017-03-19T15:07:42Z</time><pdop>4.0</pdop><geoidheight>0.00</geoidheight><course>153.5</course><type>1</type></trkpt>
      <trkpt lat="42.97602459" lon="-2.34481241"><ele>1205</ele><speed>10.63</speed><time>2017-03-19T15:07:43Z</time><pdop>4.0</pdop><geoidheight>0.00</geoidheight><course>152.5</course><type>1</type></trkpt>
      <trkpt lat="42.97594912" lon="-2.34475058"><ele>1205</ele><speed>9.62</speed><time>2017-03-19T15:07:44Z</time><pdop>4.0</pdop><geoidheight>0.00</geoidheight><course>155.1</course><type>1</type></trkpt>
      <trkpt lat="42.97583627" lon="-2.34473426"><ele>1206</ele><speed>7.72</speed><time>2017-03-19T15:07:46Z</time><pdop>3.0</pdop><geoidheight>0.00</geoidheight><course>162.4</course><type>1</type></trkpt>
      <trkpt lat="42.97577092" lon="-2.34469564"><ele>1205</ele><speed>7.65</speed><time>2017-03-19T15:07:47Z</time><pdop>3.0</pdop><geoidheight>0.00</geoidheight><course>154.2</course><type>1</type></trkpt>
      <trkpt lat="42.97571376" lon="-2.34462416"><ele>1204</ele><speed>8.61</speed><time>2017-03-19T15:07:48Z</time><pdop>3.0</pdop><geoidheight>0.00</geoidheight><course>142.1</course><type>1</type></trkpt>
      <trkpt lat="42.9756532" lon="-2.34453797"><ele>1203</ele><speed>9.45</speed><time>2017-03-19T15:07:49Z</time><pdop>3.0</pdop><geoidheight>0.00</geoidheight><course>133.2</course><type>1</type></trkpt>
      <trkpt lat="42.97558288" lon="-2.34439484"><ele>1204</ele><speed>9.21</speed><time>2017-03-19T15:07:50Z</time><pdop>4.0</pdop><geoidheight>0.00</geoidheight><course>131.2</course><type>1</type></trkpt>
      <trkpt lat="42.97546607" lon="-2.34423054"><ele>1202</ele><speed>8.00</speed><time>2017-03-19T15:07:52Z</time><pdop>4.0</pdop><geoidheight>0.00</geoidheight><course>133.3</course><type>1</type></trkpt>
      <trkpt lat="42.975367" lon="-2.34405817"><ele>1200</ele><speed>9.47</speed><time>2017-03-19T15:07:54Z</time><pdop>4.0</pdop><geoidheight>0.00</geoidheight><course>125.2</course><type>1</type></trkpt>
      <trkpt lat="42.97524955" lon="-2.34386599"><ele>1198</ele><speed>9.58</speed><time>2017-03-19T15:07:56Z</time><pdop>6.0</pdop><geoidheight>0.00</geoidheight><course>129.7</course><type>1</type></trkpt>
      <trkpt lat="42.97516871" lon="-2.34368163"><ele>1198</ele><speed>8.47</speed><time>2017-03-19T15:07:58Z</time><pdop>5.0</pdop><geoidheight>0.00</geoidheight><course>120.3</course><type>1</type></trkpt>
      <trkpt lat="42.9751152" lon="-2.34345376"><ele>1198</ele><speed>9.39</speed><time>2017-03-19T15:08:00Z</time><pdop>5.0</pdop><geoidheight>0.00</geoidheight><course>109.3</course><type>1</type></trkpt>
      <trkpt lat="42.97504453" lon="-2.34318541"><ele>1196</ele><speed>10.19</speed><time>2017-03-19T15:08:02Z</time><pdop>5.0</pdop><geoidheight>0.00</geoidheight><course>109.9</course><type>1</type></trkpt>
      <trkpt lat="42.9749699" lon="-2.34300461"><ele>1197</ele><speed>8.74</speed><time>2017-03-19T15:08:04Z</time><pdop>4.0</pdop><geoidheight>0.00</geoidheight><course>115.4</course><type>1</type></trkpt>
      <trkpt lat="42.97492938" lon="-2.34288845"><ele>1194</ele><speed>9.31</speed><time>2017-03-19T15:08:05Z</time><pdop>4.0</pdop><geoidheight>0.00</geoidheight><course>113.7</course><type>1</type></trkpt>
      <trkpt lat="42.97489502" lon="-2.34276433"><ele>1194</ele><speed>10.17</speed><time>2017-03-19T15:08:06Z</time><pdop>4.0</pdop><geoidheight>0.00</geoidheight><course>112.6</course><type>1</type></trkpt>
      <trkpt lat="42.97485834" lon="-2.34264434"><ele>1193</ele><speed>10.40</speed><time>2017-03-19T15:08:07Z</time><pdop>3.0</pdop><geoidheight>0.00</geoidheight><course>111.9</course><type>1</type></trkpt>
      <trkpt lat="42.97482296" lon="-2.34252932"><ele>1193</ele><speed>10.12</speed><time>2017-03-19T15:08:08Z</time><pdop>3.0</pdop><geoidheight>0.00</geoidheight><course>111.3</course><type>1</type></trkpt>
      <trkpt lat="42.97479034" lon="-2.34241585"><ele>1192</ele><speed>9.82</speed><time>2017-03-19T15:08:09Z</time><pdop>4.0</pdop><geoidheight>0.00</geoidheight><course>111.1</course><type>1</type></trkpt>
      <trkpt lat="42.97476558" lon="-2.34231252"><ele>1192</ele><speed>9.06</speed><time>2017-03-19T15:08:10Z</time><pdop>3.0</pdop><geoidheight>0.00</geoidheight><course>108.6</course><type>1</type></trkpt>
      <trkpt lat="42.97474946" lon="-2.34220354"><ele>1193</ele><speed>9.08</speed><time>2017-03-19T15:08:11Z</time><pdop>3.0</pdop><geoidheight>0.00</geoidheight><course>106.3</course><type>1</type></trkpt>
      <trkpt lat="42.97472935" lon="-2.34208145"><ele>1192</ele><speed>9.64</speed><time>2017-03-19T15:08:12Z</time><pdop>3.0</pdop><geoidheight>0.00</geoidheight><course>103.8</course><type>1</type></trkpt>
      <trkpt lat="42.97470383" lon="-2.34196159"><ele>1192</ele><speed>10.16</speed><time>2017-03-19T15:08:13Z</time><pdop>3.0</pdop><geoidheight>0.00</geoidheight><course>106.0</course><type>1</type></trkpt>
      <trkpt lat="42.97466892" lon="-2.34183935"><ele>1192</ele><speed>10.28</speed><time>2017-03-19T15:08:14Z</time><pdop>3.0</pdop><geoidheight>0.00</geoidheight><course>110.1</course><type>1</type></trkpt>
      <trkpt lat="42.97463637" lon="-2.34173562"><ele>1192</ele><speed>9.51</speed><time>2017-03-19T15:08:15Z</time><pdop>3.0</pdop><geoidheight>0.00</geoidheight><course>112.1</course><type>1</type></trkpt>
      <trkpt lat="42.97460069" lon="-2.3416252"><ele>1190</ele><speed>9.44</speed><time>2017-03-19T15:08:16Z</time><pdop>3.0</pdop><geoidheight>0.00</geoidheight><course>110.0</course><type>1</type></trkpt>
      <trkpt lat="42.97457504" lon="-2.34150986"><ele>1190</ele><speed>9.87</speed><time>2017-03-19T15:08:17Z</time><pdop>3.0</pdop><geoidheight>0.00</geoidheight><course>108.8</course><type>1</type></trkpt>
      <trkpt lat="42.97453742" lon="-2.3413826"><ele>1190</ele><speed>10.39</speed><time>2017-03-19T15:08:18Z</time><pdop>3.0</pdop><geoidheight>0.00</geoidheight><course>110.2</course><type>1</type></trkpt>
      <trkpt lat="42.97448778" lon="-2.34127947"><ele>1190</ele><speed>9.98</speed><time>2017-03-19T15:08:19Z</time><pdop>3.0</pdop><geoidheight>0.00</geoidheight><course>114.0</course><type>1</type></trkpt>
      <trkpt lat="42.97445133" lon="-2.341178"><ele>1189</ele><speed>9.47</speed><time>2017-03-19T15:08:20Z</time><pdop>4.0</pdop><geoidheight>0.00</geoidheight><course>116.8</course><type>1</type></trkpt>
      <trkpt lat="42.97441779" lon="-2.34108627"><ele>1190</ele><speed>8.42</speed><time>2017-03-19T15:08:21Z</time><pdop>4.0</pdop><geoidheight>0.00</geoidheight><course>118.8</course><type>1</type></trkpt>
      <trkpt lat="42.97434069" lon="-2.34093574"><ele>1190</ele><speed>7.48</speed><time>2017-03-19T15:08:23Z</time><pdop>4.0</pdop><geoidheight>0.00</geoidheight><course>126.6</course><type>1</type></trkpt>
      <trkpt lat="42.97424379" lon="-2.34079296"><ele>1190</ele><speed>8.33</speed><time>2017-03-19T15:08:25Z</time><pdop>4.0</pdop><geoidheight>0.00</geoidheight><course>132.6</course><type>1</type></trkpt>
      <trkpt lat="42.97419707" lon="-2.34071764"><ele>1190</ele><speed>8.28</speed><time>2017-03-19T15:08:26Z</time><pdop>4.0</pdop><geoidheight>0.00</geoidheight><course>131.1</course><type>1</type></trkpt>
      <trkpt lat="42.97412323" lon="-2.34055433"><ele>1188</ele><speed>8.06</speed><time>2017-03-19T15:08:28Z</time><pdop>5.0</pdop><geoidheight>0.00</geoidheight><course>120.8</course><type>1</type></trkpt>
      <trkpt lat="42.97407524" lon="-2.34044981"><ele>1186</ele><speed>8.89</speed><time>2017-03-19T15:08:29Z</time><pdop>4.0</pdop><geoidheight>0.00</geoidheight><course>118.6</course><type>1</type></trkpt>
      <trkpt lat="42.97403417" lon="-2.34035205"><ele>1186</ele><speed>9.32</speed><time>2017-03-19T15:08:30Z</time><pdop>4.0</pdop><geoidheight>0.00</geoidheight><course>120.1</course><type>1</type></trkpt>
      <trkpt lat="42.97399915" lon="-2.34025747"><ele>1188</ele><speed>8.97</speed><time>2017-03-19T15:08:31Z</time><pdop>4.0</pdop><geoidheight>0.00</geoidheight><course>119.3</course><type>1</type></trkpt>
      <trkpt lat="42.97392435" lon="-2.34009165"><ele>1190</ele><speed>8.20</speed><time>2017-03-19T15:08:33Z</time><pdop>3.0</pdop><geoidheight>0.00</geoidheight><course>123.3</course><type>1</type></trkpt>
      <trkpt lat="42.97388235" lon="-2.34000116"><ele>1190</ele><speed>8.56</speed><time>2017-03-19T15:08:34Z</time><pdop>3.0</pdop><geoidheight>0.00</geoidheight><course>124.3</course><type>1</type></trkpt>
      <trkpt lat="42.9738306" lon="-2.3399015"><ele>1190</ele><speed>9.21</speed><time>2017-03-19T15:08:35Z</time><pdop>3.0</pdop><geoidheight>0.00</geoidheight><course>127.0</course><type>1</type></trkpt>
      <trkpt lat="42.97377119" lon="-2.33980713"><ele>1190</ele><speed>9.98</speed><time>2017-03-19T15:08:36Z</time><pdop>3.0</pdop><geoidheight>0.00</geoidheight><course>130.1</course><type>1</type></trkpt>
      <trkpt lat="42.97372027" lon="-2.33972826"><ele>1191</ele><speed>9.44</speed><time>2017-03-19T15:08:37Z</time><pdop>4.0</pdop><geoidheight>0.00</geoidheight><course>131.5</course><type>1</type></trkpt>
      <trkpt lat="42.97367245" lon="-2.33965066"><ele>1191</ele><speed>8.17</speed><time>2017-03-19T15:08:38Z</time><pdop>4.0</pdop><geoidheight>0.00</geoidheight><course>131.1</course><type>1</type></trkpt>
      <trkpt lat="42.97358163" lon="-2.33953024"><ele>1192</ele><speed>7.10</speed><time>2017-03-19T15:08:40Z</time><pdop>5.0</pdop><geoidheight>0.00</geoidheight><course>137.8</course><type>1</type></trkpt>
      <trkpt lat="42.97347558" lon="-2.33941299"><ele>1191</ele><speed>8.34</speed><time>2017-03-19T15:08:42Z</time><pdop>4.0</pdop><geoidheight>0.00</geoidheight><course>141.0</course><type>1</type></trkpt>
      <trkpt lat="42.97341984" lon="-2.33932782"><ele>1191</ele><speed>9.12</speed><time>2017-03-19T15:08:43Z</time><pdop>3.0</pdop><geoidheight>0.00</geoidheight><course>132.3</course><type>1</type></trkpt>
      <trkpt lat="42.9733752" lon="-2.33923943"><ele>1191</ele><speed>8.91</speed><time>2017-03-19T15:08:44Z</time><pdop>3.0</pdop><geoidheight>0.00</geoidheight><course>126.4</course><type>1</type></trkpt>
      <trkpt lat="42.9733275" lon="-2.33916417"><ele>1192</ele><speed>8.46</speed><time>2017-03-19T15:08:45Z</time><pdop>5.0</pdop><geoidheight>0.00</geoidheight><course>127.5</course><type>1</type></trkpt>
      <trkpt lat="42.97323045" lon="-2.33904198"><ele>1191</ele><speed>5.24</speed><time>2017-03-19T15:08:48Z</time><pdop>8.0</pdop><geoidheight>0.00</geoidheight><course>136.0</course><type>1</type></trkpt>
      <trkpt lat="42.97307064" lon="-2.33894081"><ele>1190</ele><speed>7.61</speed><time>2017-03-19T15:08:51Z</time><pdop>6.0</pdop><geoidheight>0.00</geoidheight><course>156.1</course><type>1</type></trkpt>
      <trkpt lat="42.97295221" lon="-2.33884202"><ele>1191</ele><speed>7.56</speed><time>2017-03-19T15:08:53Z</time><pdop>5.0</pdop><geoidheight>0.00</geoidheight><course>148.5</course><type>1</type></trkpt>
      <trkpt lat="42.97287686" lon="-2.33870754"><ele>1191</ele><speed>7.77</speed><time>2017-03-19T15:08:55Z</time><pdop>4.0</pdop><geoidheight>0.00</geoidheight><course>124.6</course><type>1</type></trkpt>
      <trkpt lat="42.97283908" lon="-2.33861554"><ele>1192</ele><speed>8.55</speed><time>2017-03-19T15:08:56Z</time><pdop>4.0</pdop><geoidheight>0.00</geoidheight><course>120.8</course><type>1</type></trkpt>
      <trkpt lat="42.97276148" lon="-2.33846451"><ele>1194</ele><speed>7.84</speed><time>2017-03-19T15:08:58Z</time><pdop>3.0</pdop><geoidheight>0.00</geoidheight><course>126.0</course><type>1</type></trkpt>
      <trkpt lat="42.97272655" lon="-2.33840039"><ele>1194</ele><speed>7.24</speed><time>2017-03-19T15:08:59Z</time><pdop>3.0</pdop><geoidheight>0.00</geoidheight><course>128.0</course><type>1</type></trkpt>
      <trkpt lat="42.9726313" lon="-2.33833259"><ele>1196</ele><speed>6.40</speed><time>2017-03-19T15:09:01Z</time><pdop>3.0</pdop><geoidheight>0.00</geoidheight><course>147.1</course><type>1</type></trkpt>
      <trkpt lat="42.97257818" lon="-2.3382899"><ele>1196</ele><speed>7.10</speed><time>2017-03-19T15:09:02Z</time><pdop>3.0</pdop><geoidheight>0.00</geoidheight><course>150.3</course><type>1</type></trkpt>
      <trkpt lat="42.97251987" lon="-2.33824267"><ele>1195</ele><speed>7.62</speed><time>2017-03-19T15:09:03Z</time><pdop>3.0</pdop><geoidheight>0.00</geoidheight><course>149.4</course><type>1</type></trkpt>
      <trkpt lat="42.9724655" lon="-2.33817804"><ele>1195</ele><speed>7.93</speed><time>2017-03-19T15:09:04Z</time><pdop>3.0</pdop><geoidheight>0.00</geoidheight><course>141.4</course><type>1</type></trkpt>
      <trkpt lat="42.97241467" lon="-2.3381194"><ele>1195</ele><speed>8.00</speed><time>2017-03-19T15:09:05Z</time><pdop>3.0</pdop><geoidheight>0.00</geoidheight><course>136.9</course><type>1</type></trkpt>
      <trkpt lat="42.97235985" lon="-2.3380431"><ele>1196</ele><speed>7.64</speed><time>2017-03-19T15:09:06Z</time><pdop>3.0</pdop><geoidheight>0.00</geoidheight><course>138.2</course><type>1</type></trkpt>
      <trkpt lat="42.97227953" lon="-2.33793569"><ele>1199</ele><speed>6.99</speed><time>2017-03-19T15:09:08Z</time><pdop>3.0</pdop><geoidheight>0.00</geoidheight><course>139.3</course><type>1</type></trkpt>
      <trkpt lat="42.97222928" lon="-2.33789883"><ele>1200</ele><speed>7.13</speed><time>2017-03-19T15:09:09Z</time><pdop>3.0</pdop><geoidheight>0.00</geoidheight><course>148.6</course><type>1</type></trkpt>
      <trkpt lat="42.97217337" lon="-2.33784724"><ele>1200</ele><speed>7.86</speed><time>2017-03-19T15:09:10Z</time><pdop>3.0</pdop><geoidheight>0.00</geoidheight><course>150.5</course><type>1</type></trkpt>
      <trkpt lat="42.97210899" lon="-2.33779209"><ele>1201</ele><speed>8.58</speed><time>2017-03-19T15:09:11Z</time><pdop>3.0</pdop><geoidheight>0.00</geoidheight><course>148.3</course><type>1</type></trkpt>
      <trkpt lat="42.97204098" lon="-2.33773762"><ele>1201</ele><speed>8.56</speed><time>2017-03-19T15:09:12Z</time><pdop>3.0</pdop><geoidheight>0.00</geoidheight><course>148.9</course><type>1</type></trkpt>
      <trkpt lat="42.97197766" lon="-2.33769565"><ele>1202</ele><speed>8.10</speed><time>2017-03-19T15:09:13Z</time><pdop>3.0</pdop><geoidheight>0.00</geoidheight><course>151.8</course><type>1</type></trkpt>
      <trkpt lat="42.97191138" lon="-2.33764922"><ele>1203</ele><speed>8.26</speed><time>2017-03-19T15:09:14Z</time><pdop>3.0</pdop><geoidheight>0.00</geoidheight><course>150.7</course><type>1</type></trkpt>
      <trkpt lat="42.97185245" lon="-2.33760628"><ele>1203</ele><speed>7.83</speed><time>2017-03-19T15:09:15Z</time><pdop>3.0</pdop><geoidheight>0.00</geoidheight><course>150.6</course><type>1</type></trkpt>
      <trkpt lat="42.97179905" lon="-2.33756066"><ele>1204</ele><speed>7.48</speed><time>2017-03-19T15:09:16Z</time><pdop>3.0</pdop><geoidheight>0.00</geoidheight><course>150.7</course><type>1</type></trkpt>
      <trkpt lat="42.97175534" lon="-2.33749359"><ele>1204</ele><speed>7.06</speed><time>2017-03-19T15:09:17Z</time><pdop>4.0</pdop><geoidheight>0.00</geoidheight><course>141.6</course><type>1</type></trkpt>
      <trkpt lat="42.97170034" lon="-2.33742825"><ele>1204</ele><speed>7.76</speed><time>2017-03-19T15:09:18Z</time><pdop>3.0</pdop><geoidheight>0.00</geoidheight><course>141.7</course><type>1</type></trkpt>
      <trkpt lat="42.97164034" lon="-2.33735507"><ele>1204</ele><speed>8.35</speed><time>2017-03-19T15:09:19Z</time><pdop>3.0</pdop><geoidheight>0.00</geoidheight><course>141.3</course><type>1</type></trkpt>
      <trkpt lat="42.9715827" lon="-2.33727903"><ele>1204</ele><speed>8.73</speed><time>2017-03-19T15:09:20Z</time><pdop>4.0</pdop><geoidheight>0.00</geoidheight><course>139.7</course><type>1</type></trkpt>
      <trkpt lat="42.97152898" lon="-2.33717993"><ele>1204</ele><speed>9.14</speed><time>2017-03-19T15:09:21Z</time><pdop>5.0</pdop><geoidheight>0.00</geoidheight><course>135.2</course><type>1</type></trkpt>
      <trkpt lat="42.97149051" lon="-2.336986"><ele>1204</ele><speed>7.66</speed><time>2017-03-19T15:09:23Z</time><pdop>6.0</pdop><geoidheight>0.00</geoidheight><course>118.5</course><type>1</type></trkpt>
      <trkpt lat="42.97147103" lon="-2.33677861"><ele>1204</ele><speed>6.61</speed><time>2017-03-19T15:09:26Z</time><pdop>4.0</pdop><geoidheight>0.00</geoidheight><course>108.4</course><type>1</type></trkpt>
      <trkpt lat="42.97144431" lon="-2.33666225"><ele>1202</ele><speed>7.80</speed><time>2017-03-19T15:09:27Z</time><pdop>5.0</pdop><geoidheight>0.00</geoidheight><course>107.5</course><type>1</type></trkpt>
      <trkpt lat="42.97139049" lon="-2.3364873"><ele>1201</ele><speed>7.19</speed><time>2017-03-19T15:09:29Z</time><pdop>4.0</pdop><geoidheight>0.00</geoidheight><course>113.8</course><type>1</type></trkpt>
      <trkpt lat="42.97134235" lon="-2.33632445"><ele>1201</ele><speed>7.47</speed><time>2017-03-19T15:09:31Z</time><pdop>5.0</pdop><geoidheight>0.00</geoidheight><course>111.3</course><type>1</type></trkpt>
      <trkpt lat="42.97129264" lon="-2.33612794"><ele>1200</ele><speed>8.33</speed><time>2017-03-19T15:09:33Z</time><pdop>4.0</pdop><geoidheight>0.00</geoidheight><course>109.4</course><type>1</type></trkpt>
      <trkpt lat="42.9712316" lon="-2.33598379"><ele>1200</ele><speed>6.79</speed><time>2017-03-19T15:09:35Z</time><pdop>6.0</pdop><geoidheight>0.00</geoidheight><course>116.0</course><type>1</type></trkpt>
      <trkpt lat="42.97117184" lon="-2.33584835"><ele>1199</ele><speed>6.92</speed><time>2017-03-19T15:09:37Z</time><pdop>6.0</pdop><geoidheight>0.00</geoidheight><course>123.8</course><type>1</type></trkpt>
      <trkpt lat="42.97108044" lon="-2.33568939"><ele>1198</ele><speed>8.19</speed><time>2017-03-19T15:09:39Z</time><pdop>6.0</pdop><geoidheight>0.00</geoidheight><course>130.7</course><type>1</type></trkpt>
      <trkpt lat="42.97100711" lon="-2.3355486"><ele>1197</ele><speed>6.92</speed><time>2017-03-19T15:09:41Z</time><pdop>5.0</pdop><geoidheight>0.00</geoidheight><course>122.6</course><type>1</type></trkpt>
      <trkpt lat="42.97094977" lon="-2.33537383"><ele>1194</ele><speed>7.03</speed><time>2017-03-19T15:09:43Z</time><pdop>5.0</pdop><geoidheight>0.00</geoidheight><course>112.5</course><type>1</type></trkpt>
      <trkpt lat="42.97088747" lon="-2.33521301"><ele>1193</ele><speed>7.21</speed><time>2017-03-19T15:09:45Z</time><pdop>4.0</pdop><geoidheight>0.00</geoidheight><course>116.2</course><type>1</type></trkpt>
      <trkpt lat="42.97083013" lon="-2.33505216"><ele>1192</ele><speed>6.93</speed><time>2017-03-19T15:09:47Z</time><pdop>4.0</pdop><geoidheight>0.00</geoidheight><course>115.0</course><type>1</type></trkpt>
      <trkpt lat="42.97076285" lon="-2.33488631"><ele>1188</ele><speed>7.81</speed><time>2017-03-19T15:09:49Z</time><pdop>4.0</pdop><geoidheight>0.00</geoidheight><course>116.9</course><type>1</type></trkpt>
      <trkpt lat="42.97073227" lon="-2.33479621"><ele>1188</ele><speed>8.07</speed><time>2017-03-19T15:09:50Z</time><pdop>4.0</pdop><geoidheight>0.00</geoidheight><course>115.8</course><type>1</type></trkpt>
      <trkpt lat="42.97067427" lon="-2.33463159"><ele>1187</ele><speed>7.14</speed><time>2017-03-19T15:09:52Z</time><pdop>3.0</pdop><geoidheight>0.00</geoidheight><course>114.8</course><type>1</type></trkpt>
      <trkpt lat="42.9706431" lon="-2.33454745"><ele>1186</ele><speed>7.24</speed><time>2017-03-19T15:09:53Z</time><pdop>4.0</pdop><geoidheight>0.00</geoidheight><course>115.1</course><type>1</type></trkpt>
      <trkpt lat="42.97053737" lon="-2.334416"><ele>1181</ele><speed>7.74</speed><time>2017-03-19T15:09:55Z</time><pdop>4.0</pdop><geoidheight>0.00</geoidheight><course>129.1</course><type>1</type></trkpt>
      <trkpt lat="42.97049582" lon="-2.33433236"><ele>1182</ele><speed>8.34</speed><time>2017-03-19T15:09:56Z</time><pdop>4.0</pdop><geoidheight>0.00</geoidheight><course>127.9</course><type>1</type></trkpt>
      <trkpt lat="42.97041606" lon="-2.33417786"><ele>1181</ele><speed>7.86</speed><time>2017-03-19T15:09:58Z</time><pdop>5.0</pdop><geoidheight>0.00</geoidheight><course>131.3</course><type>1</type></trkpt>
      <trkpt lat="42.97030371" lon="-2.33403067"><ele>1178</ele><speed>8.80</speed><time>2017-03-19T15:10:00Z</time><pdop>4.0</pdop><geoidheight>0.00</geoidheight><course>136.3</course><type>1</type></trkpt>
      <trkpt lat="42.97019731" lon="-2.33384354"><ele>1176</ele><speed>9.04</speed><time>2017-03-19T15:10:02Z</time><pdop>5.0</pdop><geoidheight>0.00</geoidheight><course>134.8</course><type>1</type></trkpt>
      <trkpt lat="42.97008735" lon="-2.33369346"><ele>1175</ele><speed>7.90</speed><time>2017-03-19T15:10:04Z</time><pdop>5.0</pdop><geoidheight>0.00</geoidheight><course>136.6</course><type>1</type></trkpt>
      <trkpt lat="42.96998793" lon="-2.33355181"><ele>1174</ele><speed>8.16</speed><time>2017-03-19T15:10:06Z</time><pdop>4.0</pdop><geoidheight>0.00</geoidheight><course>130.1</course><type>1</type></trkpt>
      <trkpt lat="42.96990286" lon="-2.33344064"><ele>1175</ele><speed>6.41</speed><time>2017-03-19T15:10:08Z</time><pdop>5.0</pdop><geoidheight>0.00</geoidheight><course>134.1</course><type>1</type></trkpt>
      <trkpt lat="42.96977625" lon="-2.33331812"><ele>1174</ele><speed>8.02</speed><time>2017-03-19T15:10:10Z</time><pdop>5.0</pdop><geoidheight>0.00</geoidheight><course>146.6</course><type>1</type></trkpt>
      <trkpt lat="42.96966484" lon="-2.33321899"><ele>1173</ele><speed>7.43</speed><time>2017-03-19T15:10:12Z</time><pdop>5.0</pdop><geoidheight>0.00</geoidheight><course>152.6</course><type>1</type></trkpt>
      <trkpt lat="42.96951715" lon="-2.33313932"><ele>1170</ele><speed>9.31</speed><time>2017-03-19T15:10:14Z</time><pdop>5.0</pdop><geoidheight>0.00</geoidheight><course>160.8</course><type>1</type></trkpt>
      <trkpt lat="42.96942954" lon="-2.33309331"><ele>1169</ele><speed>10.05</speed><time>2017-03-19T15:10:15Z</time><pdop>5.0</pdop><geoidheight>0.00</geoidheight><course>157.7</course><type>1</type></trkpt>
      <trkpt lat="42.9693503" lon="-2.33304145"><ele>1168</ele><speed>9.87</speed><time>2017-03-19T15:10:16Z</time><pdop>4.0</pdop><geoidheight>0.00</geoidheight><course>155.6</course><type>1</type></trkpt>
      <trkpt lat="42.96927552" lon="-2.33298772"><ele>1168</ele><speed>9.51</speed><time>2017-03-19T15:10:17Z</time><pdop>4.0</pdop><geoidheight>0.00</geoidheight><course>150.4</course><type>1</type></trkpt>
      <trkpt lat="42.96920908" lon="-2.33290608"><ele>1168</ele><speed>8.98</speed><time>2017-03-19T15:10:18Z</time><pdop>4.0</pdop><geoidheight>0.00</geoidheight><course>145.2</course><type>1</type></trkpt>
      <trkpt lat="42.96914991" lon="-2.33283758"><ele>1168</ele><speed>8.76</speed><time>2017-03-19T15:10:19Z</time><pdop>4.0</pdop><geoidheight>0.00</geoidheight><course>140.3</course><type>1</type></trkpt>
      <trkpt lat="42.96909305" lon="-2.33275269"><ele>1168</ele><speed>9.22</speed><time>2017-03-19T15:10:20Z</time><pdop>4.0</pdop><geoidheight>0.00</geoidheight><course>134.6</course><type>1</type></trkpt>
      <trkpt lat="42.96903432" lon="-2.33264865"><ele>1168</ele><speed>9.69</speed><time>2017-03-19T15:10:21Z</time><pdop>4.0</pdop><geoidheight>0.00</geoidheight><course>132.8</course><type>1</type></trkpt>
      <trkpt lat="42.9689643" lon="-2.33255048"><ele>1166</ele><speed>9.79</speed><time>2017-03-19T15:10:22Z</time><pdop>6.0</pdop><geoidheight>0.00</geoidheight><course>131.7</course><type>1</type></trkpt>
      <trkpt lat="42.96887037" lon="-2.33236623"><ele>1165</ele><speed>9.34</speed><time>2017-03-19T15:10:24Z</time><pdop>7.0</pdop><geoidheight>0.00</geoidheight><course>127.3</course><type>1</type></trkpt>
      <trkpt lat="42.96878511" lon="-2.33218377"><ele>1164</ele><speed>8.66</speed><time>2017-03-19T15:10:26Z</time><pdop>8.0</pdop><geoidheight>0.00</geoidheight><course>123.9</course><type>1</type></trkpt>
      <trkpt lat="42.96869048" lon="-2.3320011"><ele>1163</ele><speed>9.54</speed><time>2017-03-19T15:10:28Z</time><pdop>6.0</pdop><geoidheight>0.00</geoidheight><course>126.0</course><type>1</type></trkpt>
      <trkpt lat="42.9685889" lon="-2.33183682"><ele>1163</ele><speed>8.74</speed><time>2017-03-19T15:10:30Z</time><pdop>7.0</pdop><geoidheight>0.00</geoidheight><course>130.6</course><type>1</type></trkpt>
      <trkpt lat="42.96848477" lon="-2.33170256"><ele>1161</ele><speed>7.58</speed><time>2017-03-19T15:10:32Z</time><pdop>8.0</pdop><geoidheight>0.00</geoidheight><course>134.3</course><type>1</type></trkpt>
      <trkpt lat="42.96836942" lon="-2.33155131"><ele>1160</ele><speed>9.09</speed><time>2017-03-19T15:10:34Z</time><pdop>7.0</pdop><geoidheight>0.00</geoidheight><course>135.4</course><type>1</type></trkpt>
      <trkpt lat="42.96823981" lon="-2.33142413"><ele>1161</ele><speed>8.76</speed><time>2017-03-19T15:10:36Z</time><pdop>7.0</pdop><geoidheight>0.00</geoidheight><course>141.9</course><type>1</type></trkpt>
      <trkpt lat="42.96813138" lon="-2.33131255"><ele>1161</ele><speed>7.73</speed><time>2017-03-19T15:10:38Z</time><pdop>6.0</pdop><geoidheight>0.00</geoidheight><course>139.5</course><type>1</type></trkpt>
      <trkpt lat="42.96805593" lon="-2.33116919"><ele>1163</ele><speed>6.78</speed><time>2017-03-19T15:10:40Z</time><pdop>5.0</pdop><geoidheight>0.00</geoidheight><course>123.0</course><type>1</type></trkpt>
      <trkpt lat="42.96804079" lon="-2.33100841"><ele>1161</ele><speed>6.53</speed><time>2017-03-19T15:10:42Z</time><pdop>5.0</pdop><geoidheight>0.00</geoidheight><course>98.4</course><type>1</type></trkpt>
      <trkpt lat="42.96808702" lon="-2.33081017"><ele>1160</ele><speed>8.50</speed><time>2017-03-19T15:10:44Z</time><pdop>5.0</pdop><geoidheight>0.00</geoidheight><course>78.6</course><type>1</type></trkpt>
      <trkpt lat="42.96808712" lon="-2.33059249"><ele>1157</ele><speed>8.54</speed><time>2017-03-19T15:10:46Z</time><pdop>4.0</pdop><geoidheight>0.00</geoidheight><course>89.4</course><type>1</type></trkpt>
      <trkpt lat="42.96808727" lon="-2.33049397"><ele>1156</ele><speed>7.57</speed><time>2017-03-19T15:10:47Z</time><pdop>4.0</pdop><geoidheight>0.00</geoidheight><course>90.6</course><type>1</type></trkpt>
      <trkpt lat="42.96808018" lon="-2.33033133"><ele>1156</ele><speed>6.72</speed><time>2017-03-19T15:10:49Z</time><pdop>4.0</pdop><geoidheight>0.00</geoidheight><course>95.7</course><type>1</type></trkpt>
      <trkpt lat="42.9680566" lon="-2.33023535"><ele>1152</ele><speed>7.44</speed><time>2017-03-19T15:10:50Z</time><pdop>4.0</pdop><geoidheight>0.00</geoidheight><course>104.7</course><type>1</type></trkpt>
      <trkpt lat="42.96801523" lon="-2.33004892"><ele>1151</ele><speed>8.79</speed><time>2017-03-19T15:10:52Z</time><pdop>3.0</pdop><geoidheight>0.00</geoidheight><course>113.6</course><type>1</type></trkpt>
      <trkpt lat="42.9679832" lon="-2.329947"><ele>1150</ele><speed>9.16</speed><time>2017-03-19T15:10:53Z</time><pdop>3.0</pdop><geoidheight>0.00</geoidheight><course>116.2</course><type>1</type></trkpt>
      <trkpt lat="42.96793627" lon="-2.32985574"><ele>1149</ele><speed>9.02</speed><time>2017-03-19T15:10:54Z</time><pdop>4.0</pdop><geoidheight>0.00</geoidheight><course>117.7</course><type>1</type></trkpt>
      <trkpt lat="42.96790139" lon="-2.32975919"><ele>1150</ele><speed>8.67</speed><time>2017-03-19T15:10:55Z</time><pdop>4.0</pdop><geoidheight>0.00</geoidheight><course>119.6</course><type>1</type></trkpt>
      <trkpt lat="42.9678263" lon="-2.32960422"><ele>1150</ele><speed>7.84</speed><time>2017-03-19T15:10:57Z</time><pdop>4.0</pdop><geoidheight>0.00</geoidheight><course>122.5</course><type>1</type></trkpt>
      <trkpt lat="42.96778458" lon="-2.32952257"><ele>1150</ele><speed>8.24</speed><time>2017-03-19T15:10:58Z</time><pdop>4.0</pdop><geoidheight>0.00</geoidheight><course>122.3</course><type>1</type></trkpt>
      <trkpt lat="42.96774104" lon="-2.32943502"><ele>1150</ele><speed>8.78</speed><time>2017-03-19T15:10:59Z</time><pdop>4.0</pdop><geoidheight>0.00</geoidheight><course>124.0</course><type>1</type></trkpt>
      <trkpt lat="42.967692" lon="-2.3293479"><ele>1151</ele><speed>8.84</speed><time>2017-03-19T15:11:00Z</time><pdop>4.0</pdop><geoidheight>0.00</geoidheight><course>127.2</course><type>1</type></trkpt>
      <trkpt lat="42.96760526" lon="-2.32921678"><ele>1149</ele><speed>6.71</speed><time>2017-03-19T15:11:02Z</time><pdop>4.0</pdop><geoidheight>0.00</geoidheight><course>128.2</course><type>1</type></trkpt>
      <trkpt lat="42.96754195" lon="-2.3290645"><ele>1147</ele><speed>7.66</speed><time>2017-03-19T15:11:04Z</time><pdop>4.0</pdop><geoidheight>0.00</geoidheight><course>120.6</course><type>1</type></trkpt>
      <trkpt lat="42.96749984" lon="-2.32898457"><ele>1146</ele><speed>8.45</speed><time>2017-03-19T15:11:05Z</time><pdop>4.0</pdop><geoidheight>0.00</geoidheight><course>124.0</course><type>1</type></trkpt>
      <trkpt lat="42.96740952" lon="-2.32884097"><ele>1146</ele><speed>7.65</speed><time>2017-03-19T15:11:07Z</time><pdop>4.0</pdop><geoidheight>0.00</geoidheight><course>128.3</course><type>1</type></trkpt>
      <trkpt lat="42.9673426" lon="-2.32871197"><ele>1144</ele><speed>6.72</speed><time>2017-03-19T15:11:09Z</time><pdop>3.0</pdop><geoidheight>0.00</geoidheight><course>121.3</course><type>1</type></trkpt>
      <trkpt lat="42.96729797" lon="-2.32864198"><ele>1143</ele><speed>7.09</speed><time>2017-03-19T15:11:10Z</time><pdop>3.0</pdop><geoidheight>0.00</geoidheight><course>127.4</course><type>1</type></trkpt>
      <trkpt lat="42.96725557" lon="-2.32858047"><ele>1143</ele><speed>7.59</speed><time>2017-03-19T15:11:11Z</time><pdop>3.0</pdop><geoidheight>0.00</geoidheight><course>132.1</course><type>1</type></trkpt>
      <trkpt lat="42.96720923" lon="-2.32849323"><ele>1142</ele><speed>8.02</speed><time>2017-03-19T15:11:12Z</time><pdop>3.0</pdop><geoidheight>0.00</geoidheight><course>133.0</course><type>1</type></trkpt>
      <trkpt lat="42.96716321" lon="-2.32841964"><ele>1143</ele><speed>8.00</speed><time>2017-03-19T15:11:13Z</time><pdop>3.0</pdop><geoidheight>0.00</geoidheight><course>129.4</course><type>1</type></trkpt>
      <trkpt lat="42.9671317" lon="-2.32833191"><ele>1143</ele><speed>7.07</speed><time>2017-03-19T15:11:14Z</time><pdop>3.0</pdop><geoidheight>0.00</geoidheight><course>127.4</course><type>1</type></trkpt>
      <trkpt lat="42.96709879" lon="-2.32825943"><ele>1143</ele><speed>6.62</speed><time>2017-03-19T15:11:15Z</time><pdop>3.0</pdop><geoidheight>0.00</geoidheight><course>128.1</course><type>1</type></trkpt>
      <trkpt lat="42.96706585" lon="-2.32819469"><ele>1141</ele><speed>7.13</speed><time>2017-03-19T15:11:16Z</time><pdop>3.0</pdop><geoidheight>0.00</geoidheight><course>126.2</course><type>1</type></trkpt>
      <trkpt lat="42.96702954" lon="-2.32811375"><ele>1140</ele><speed>7.71</speed><time>2017-03-19T15:11:17Z</time><pdop>3.0</pdop><geoidheight>0.00</geoidheight><course>122.8</course><type>1</type></trkpt>
      <trkpt lat="42.96699089" lon="-2.32802377"><ele>1140</ele><speed>7.94</speed><time>2017-03-19T15:11:18Z</time><pdop>3.0</pdop><geoidheight>0.00</geoidheight><course>121.5</course><type>1</type></trkpt>
      <trkpt lat="42.96695877" lon="-2.32793669"><ele>1138</ele><speed>7.31</speed><time>2017-03-19T15:11:19Z</time><pdop>3.0</pdop><geoidheight>0.00</geoidheight><course>124.6</course><type>1</type></trkpt>
      <trkpt lat="42.96691579" lon="-2.32786383"><ele>1137</ele><speed>7.29</speed><time>2017-03-19T15:11:20Z</time><pdop>4.0</pdop><geoidheight>0.00</geoidheight><course>126.9</course><type>1</type></trkpt>
      <trkpt lat="42.96683818" lon="-2.32774798"><ele>1136</ele><speed>6.87</speed><time>2017-03-19T15:11:22Z</time><pdop>3.0</pdop><geoidheight>0.00</geoidheight><course>129.9</course><type>1</type></trkpt>
      <trkpt lat="42.96679197" lon="-2.32768882"><ele>1134</ele><speed>7.20</speed><time>2017-03-19T15:11:23Z</time><pdop>3.0</pdop><geoidheight>0.00</geoidheight><course>134.0</course><type>1</type></trkpt>
      <trkpt lat="42.96674181" lon="-2.32762574"><ele>1134</ele><speed>7.43</speed><time>2017-03-19T15:11:24Z</time><pdop>3.0</pdop><geoidheight>0.00</geoidheight><course>134.7</course><type>1</type></trkpt>
      <trkpt lat="42.96668784" lon="-2.32756467"><ele>1134</ele><speed>7.73</speed><time>2017-03-19T15:11:25Z</time><pdop>4.0</pdop><geoidheight>0.00</geoidheight><course>137.4</course><type>1</type></trkpt>
      <trkpt lat="42.96660155" lon="-2.32747969"><ele>1134</ele><speed>5.91</speed><time>2017-03-19T15:11:27Z</time><pdop>3.0</pdop><geoidheight>0.00</geoidheight><course>139.8</course><type>1</type></trkpt>
      <trkpt lat="42.9665228" lon="-2.32740619"><ele>1132</ele><speed>5.59</speed><time>2017-03-19T15:11:29Z</time><pdop>3.0</pdop><geoidheight>0.00</geoidheight><course>140.0</course><type>1</type></trkpt>
      <trkpt lat="42.96648068" lon="-2.32735744"><ele>1132</ele><speed>6.30</speed><time>2017-03-19T15:11:30Z</time><pdop>3.0</pdop><geoidheight>0.00</geoidheight><course>139.5</course><type>1</type></trkpt>
      <trkpt lat="42.96642748" lon="-2.32729217"><ele>1131</ele><speed>7.51</speed><time>2017-03-19T15:11:31Z</time><pdop>4.0</pdop><geoidheight>0.00</geoidheight><course>137.6</course><type>1</type></trkpt>
      <trkpt lat="42.966398" lon="-2.32716217"><ele>1131</ele><speed>8.41</speed><time>2017-03-19T15:11:32Z</time><pdop>3.0</pdop><geoidheight>0.00</geoidheight><course>122.9</course><type>1</type></trkpt>
      <trkpt lat="42.96635193" lon="-2.32708645"><ele>1130</ele><speed>7.85</speed><time>2017-03-19T15:11:33Z</time><pdop>3.0</pdop><geoidheight>0.00</geoidheight><course>120.8</course><type>1</type></trkpt>
      <trkpt lat="42.96632291" lon="-2.32701527"><ele>1129</ele><speed>6.80</speed><time>2017-03-19T15:11:34Z</time><pdop>3.0</pdop><geoidheight>0.00</geoidheight><course>116.8</course><type>1</type></trkpt>
      <trkpt lat="42.96630104" lon="-2.32693858"><ele>1128</ele><speed>6.56</speed><time>2017-03-19T15:11:35Z</time><pdop>3.0</pdop><geoidheight>0.00</geoidheight><course>112.6</course><type>1</type></trkpt>
      <trkpt lat="42.9662741" lon="-2.32685989"><ele>1126</ele><speed>7.12</speed><time>2017-03-19T15:11:36Z</time><pdop>3.0</pdop><geoidheight>0.00</geoidheight><course>110.2</course><type>1</type></trkpt>
      <trkpt lat="42.96625297" lon="-2.32677317"><ele>1124</ele><speed>7.69</speed><time>2017-03-19T15:11:37Z</time><pdop>3.0</pdop><geoidheight>0.00</geoidheight><course>109.5</course><type>1</type></trkpt>
      <trkpt lat="42.96622489" lon="-2.32669115"><ele>1123</ele><speed>7.74</speed><time>2017-03-19T15:11:38Z</time><pdop>3.0</pdop><geoidheight>0.00</geoidheight><course>110.3</course><type>1</type></trkpt>
      <trkpt lat="42.96619462" lon="-2.32660916"><ele>1121</ele><speed>7.38</speed><time>2017-03-19T15:11:39Z</time><pdop>3.0</pdop><geoidheight>0.00</geoidheight><course>113.5</course><type>1</type></trkpt>
      <trkpt lat="42.96616307" lon="-2.32653554"><ele>1121</ele><speed>6.91</speed><time>2017-03-19T15:11:40Z</time><pdop>3.0</pdop><geoidheight>0.00</geoidheight><course>119.9</course><type>1</type></trkpt>
      <trkpt lat="42.96613201" lon="-2.32647026"><ele>1120</ele><speed>6.67</speed><time>2017-03-19T15:11:41Z</time><pdop>3.0</pdop><geoidheight>0.00</geoidheight><course>122.2</course><type>1</type></trkpt>
      <trkpt lat="42.96609841" lon="-2.32640372"><ele>1119</ele><speed>6.57</speed><time>2017-03-19T15:11:42Z</time><pdop>3.0</pdop><geoidheight>0.00</geoidheight><course>122.7</course><type>1</type></trkpt>
      <trkpt lat="42.96606186" lon="-2.32632952"><ele>1117</ele><speed>6.96</speed><time>2017-03-19T15:11:43Z</time><pdop>3.0</pdop><geoidheight>0.00</geoidheight><course>122.5</course><type>1</type></trkpt>
      <trkpt lat="42.96602466" lon="-2.32626384"><ele>1116</ele><speed>7.17</speed><time>2017-03-19T15:11:44Z</time><pdop>3.0</pdop><geoidheight>0.00</geoidheight><course>126.0</course><type>1</type></trkpt>
      <trkpt lat="42.96598234" lon="-2.32619746"><ele>1116</ele><speed>7.15</speed><time>2017-03-19T15:11:45Z</time><pdop>3.0</pdop><geoidheight>0.00</geoidheight><course>129.3</course><type>1</type></trkpt>
      <trkpt lat="42.96593837" lon="-2.32614364"><ele>1115</ele><speed>6.83</speed><time>2017-03-19T15:11:46Z</time><pdop>3.0</pdop><geoidheight>0.00</geoidheight><course>134.2</course><type>1</type></trkpt>
      <trkpt lat="42.96589307" lon="-2.3260886"><ele>1114</ele><speed>6.67</speed><time>2017-03-19T15:11:47Z</time><pdop>3.0</pdop><geoidheight>0.00</geoidheight><course>135.2</course><type>1</type></trkpt>
      <trkpt lat="42.96584642" lon="-2.32603289"><ele>1112</ele><speed>6.87</speed><time>2017-03-19T15:11:48Z</time><pdop>3.0</pdop><geoidheight>0.00</geoidheight><course>135.4</course><type>1</type></trkpt>
      <trkpt lat="42.96579737" lon="-2.32597424"><ele>1111</ele><speed>7.19</speed><time>2017-03-19T15:11:49Z</time><pdop>3.0</pdop><geoidheight>0.00</geoidheight><course>137.7</course><type>1</type></trkpt>
      <trkpt lat="42.9657491" lon="-2.32591693"><ele>1110</ele><speed>7.41</speed><time>2017-03-19T15:11:50Z</time><pdop>3.0</pdop><geoidheight>0.00</geoidheight><course>139.6</course><type>1</type></trkpt>
      <trkpt lat="42.96569373" lon="-2.32587589"><ele>1109</ele><speed>7.20</speed><time>2017-03-19T15:11:51Z</time><pdop>3.0</pdop><geoidheight>0.00</geoidheight><course>142.1</course><type>1</type></trkpt>
      <trkpt lat="42.96563616" lon="-2.32583836"><ele>1108</ele><speed>7.13</speed><time>2017-03-19T15:11:52Z</time><pdop>3.0</pdop><geoidheight>0.00</geoidheight><course>147.0</course><type>1</type></trkpt>
      <trkpt lat="42.96557439" lon="-2.32579935"><ele>1107</ele><speed>7.40</speed><time>2017-03-19T15:11:53Z</time><pdop>3.0</pdop><geoidheight>0.00</geoidheight><course>150.9</course><type>1</type></trkpt>
      <trkpt lat="42.96551018" lon="-2.32576584"><ele>1106</ele><speed>7.88</speed><time>2017-03-19T15:11:54Z</time><pdop>3.0</pdop><geoidheight>0.00</geoidheight><course>156.4</course><type>1</type></trkpt>
      <trkpt lat="42.96544106" lon="-2.32573319"><ele>1105</ele><speed>8.14</speed><time>2017-03-19T15:11:55Z</time><pdop>3.0</pdop><geoidheight>0.00</geoidheight><course>159.9</course><type>1</type></trkpt>
      <trkpt lat="42.96537301" lon="-2.32571153"><ele>1104</ele><speed>7.92</speed><time>2017-03-19T15:11:56Z</time><pdop>3.0</pdop><geoidheight>0.00</geoidheight><course>160.9</course><type>1</type></trkpt>
      <trkpt lat="42.9653019" lon="-2.32568212"><ele>1103</ele><speed>7.80</speed><time>2017-03-19T15:11:57Z</time><pdop>3.0</pdop><geoidheight>0.00</geoidheight><course>159.3</course><type>1</type></trkpt>
      <trkpt lat="42.96523704" lon="-2.32565938"><ele>1102</ele><speed>7.43</speed><time>2017-03-19T15:11:58Z</time><pdop>3.0</pdop><geoidheight>0.00</geoidheight><course>162.3</course><type>1</type></trkpt>
      <trkpt lat="42.96517442" lon="-2.32563928"><ele>1102</ele><speed>7.00</speed><time>2017-03-19T15:11:59Z</time><pdop>3.0</pdop><geoidheight>0.00</geoidheight><course>164.1</course><type>1</type></trkpt>
      <trkpt lat="42.96504414" lon="-2.32562932"><ele>1100</ele><speed>7.18</speed><time>2017-03-19T15:12:01Z</time><pdop>3.0</pdop><geoidheight>0.00</geoidheight><course>167.6</course><type>1</type></trkpt>
      <trkpt lat="42.96497707" lon="-2.32561263"><ele>1099</ele><speed>7.62</speed><time>2017-03-19T15:12:02Z</time><pdop>3.0</pdop><geoidheight>0.00</geoidheight><course>166.8</course><type>1</type></trkpt>
      <trkpt lat="42.96490985" lon="-2.32559476"><ele>1098</ele><speed>7.71</speed><time>2017-03-19T15:12:03Z</time><pdop>3.0</pdop><geoidheight>0.00</geoidheight><course>168.9</course><type>1</type></trkpt>
      <trkpt lat="42.96485011" lon="-2.32557691"><ele>1097</ele><speed>7.34</speed><time>2017-03-19T15:12:04Z</time><pdop>3.0</pdop><geoidheight>0.00</geoidheight><course>172.5</course><type>1</type></trkpt>
      <trkpt lat="42.96478785" lon="-2.32556615"><ele>1096</ele><speed>7.15</speed><time>2017-03-19T15:12:05Z</time><pdop>3.0</pdop><geoidheight>0.00</geoidheight><course>176.7</course><type>1</type></trkpt>
      <trkpt lat="42.96471095" lon="-2.3255636"><ele>1095</ele><speed>7.30</speed><time>2017-03-19T15:12:06Z</time><pdop>3.0</pdop><geoidheight>0.00</geoidheight><course>175.1</course><type>1</type></trkpt>
      <trkpt lat="42.96464245" lon="-2.32555877"><ele>1094</ele><speed>7.66</speed><time>2017-03-19T15:12:07Z</time><pdop>3.0</pdop><geoidheight>0.00</geoidheight><course>173.9</course><type>1</type></trkpt>
      <trkpt lat="42.96457767" lon="-2.32551846"><ele>1094</ele><speed>7.90</speed><time>2017-03-19T15:12:08Z</time><pdop>3.0</pdop><geoidheight>0.00</geoidheight><course>162.3</course><type>1</type></trkpt>
      <trkpt lat="42.96451396" lon="-2.32547332"><ele>1094</ele><speed>7.98</speed><time>2017-03-19T15:12:09Z</time><pdop>3.0</pdop><geoidheight>0.00</geoidheight><course>152.9</course><type>1</type></trkpt>
      <trkpt lat="42.96446278" lon="-2.32541638"><ele>1094</ele><speed>7.24</speed><time>2017-03-19T15:12:10Z</time><pdop>3.0</pdop><geoidheight>0.00</geoidheight><course>145.4</course><type>1</type></trkpt>
      <trkpt lat="42.96439497" lon="-2.32529067"><ele>1094</ele><speed>6.47</speed><time>2017-03-19T15:12:12Z</time><pdop>4.0</pdop><geoidheight>0.00</geoidheight><course>130.9</course><type>1</type></trkpt>
      <trkpt lat="42.96432241" lon="-2.32513509"><ele>1094</ele><speed>7.45</speed><time>2017-03-19T15:12:14Z</time><pdop>4.0</pdop><geoidheight>0.00</geoidheight><course>120.4</course><type>1</type></trkpt>
      <trkpt lat="42.96426066" lon="-2.32496232"><ele>1094</ele><speed>7.23</speed><time>2017-03-19T15:12:16Z</time><pdop>6.0</pdop><geoidheight>0.00</geoidheight><course>120.2</course><type>1</type></trkpt>
      <trkpt lat="42.96423997" lon="-2.32478402"><ele>1095</ele><speed>6.81</speed><time>2017-03-19T15:12:18Z</time><pdop>5.0</pdop><geoidheight>0.00</geoidheight><course>104.7</course><type>1</type></trkpt>
      <trkpt lat="42.96424414" lon="-2.32461032"><ele>1096</ele><speed>6.54</speed><time>2017-03-19T15:12:20Z</time><pdop>4.0</pdop><geoidheight>0.00</geoidheight><course>85.6</course><type>1</type></trkpt>
      <trkpt lat="42.96428723" lon="-2.32446834"><ele>1096</ele><speed>6.03</speed><time>2017-03-19T15:12:22Z</time><pdop>4.0</pdop><geoidheight>0.00</geoidheight><course>65.3</course><type>1</type></trkpt>
      <trkpt lat="42.96435904" lon="-2.32434387"><ele>1096</ele><speed>6.00</speed><time>2017-03-19T15:12:24Z</time><pdop>3.0</pdop><geoidheight>0.00</geoidheight><course>52.2</course><type>1</type></trkpt>
      <trkpt lat="42.96440423" lon="-2.32429474"><ele>1096</ele><speed>6.41</speed><time>2017-03-19T15:12:25Z</time><pdop>3.0</pdop><geoidheight>0.00</geoidheight><course>41.3</course><type>1</type></trkpt>
      <trkpt lat="42.9644611" lon="-2.32424509"><ele>1096</ele><speed>7.18</speed><time>2017-03-19T15:12:26Z</time><pdop>3.0</pdop><geoidheight>0.00</geoidheight><course>33.8</course><type>1</type></trkpt>
      <trkpt lat="42.96452017" lon="-2.32419817"><ele>1096</ele><speed>7.50</speed><time>2017-03-19T15:12:27Z</time><pdop>3.0</pdop><geoidheight>0.00</geoidheight><course>29.0</course><type>1</type></trkpt>
      <trkpt lat="42.96457505" lon="-2.32415297"><ele>1096</ele><speed>7.17</speed><time>2017-03-19T15:12:28Z</time><pdop>3.0</pdop><geoidheight>0.00</geoidheight><course>29.5</course><type>1</type></trkpt>
      <trkpt lat="42.96462121" lon="-2.32410623"><ele>1096</ele><speed>6.57</speed><time>2017-03-19T15:12:29Z</time><pdop>3.0</pdop><geoidheight>0.00</geoidheight><course>33.5</course><type>1</type></trkpt>
      <trkpt lat="42.96471735" lon="-2.3240099"><ele>1095</ele><speed>7.27</speed><time>2017-03-19T15:12:31Z</time><pdop>3.0</pdop><geoidheight>0.00</geoidheight><course>36.5</course><type>1</type></trkpt>
      <trkpt lat="42.96477454" lon="-2.32395148"><ele>1095</ele><speed>7.66</speed><time>2017-03-19T15:12:32Z</time><pdop>3.0</pdop><geoidheight>0.00</geoidheight><course>36.8</course><type>1</type></trkpt>
      <trkpt lat="42.96483216" lon="-2.32388153"><ele>1097</ele><speed>7.97</speed><time>2017-03-19T15:12:33Z</time><pdop>3.0</pdop><geoidheight>0.00</geoidheight><course>37.8</course><type>1</type></trkpt>
      <trkpt lat="42.96488681" lon="-2.32380886"><ele>1099</ele><speed>8.03</speed><time>2017-03-19T15:12:34Z</time><pdop>3.0</pdop><geoidheight>0.00</geoidheight><course>40.8</course><type>1</type></trkpt>
      <trkpt lat="42.96492222" lon="-2.32373067"><ele>1100</ele><speed>7.34</speed><time>2017-03-19T15:12:35Z</time><pdop>3.0</pdop><geoidheight>0.00</geoidheight><course>48.7</course><type>1</type></trkpt>
      <trkpt lat="42.96494805" lon="-2.32365937"><ele>1101</ele><speed>6.53</speed><time>2017-03-19T15:12:36Z</time><pdop>3.0</pdop><geoidheight>0.00</geoidheight><course>58.9</course><type>1</type></trkpt>
      <trkpt lat="42.96497417" lon="-2.32357948"><ele>1102</ele><speed>6.61</speed><time>2017-03-19T15:12:37Z</time><pdop>3.0</pdop><geoidheight>0.00</geoidheight><course>62.0</course><type>1</type></trkpt>
      <trkpt lat="42.96500261" lon="-2.32349747"><ele>1103</ele><speed>6.83</speed><time>2017-03-19T15:12:38Z</time><pdop>4.0</pdop><geoidheight>0.00</geoidheight><course>65.0</course><type>1</type></trkpt>
      <trkpt lat="42.96497063" lon="-2.32334816"><ele>1099</ele><speed>7.46</speed><time>2017-03-19T15:12:40Z</time><pdop>3.0</pdop><geoidheight>0.00</geoidheight><course>99.9</course><type>1</type></trkpt>
      <trkpt lat="42.96495219" lon="-2.32325463"><ele>1100</ele><speed>7.28</speed><time>2017-03-19T15:12:41Z</time><pdop>3.0</pdop><geoidheight>0.00</geoidheight><course>101.9</course><type>1</type></trkpt>
      <trkpt lat="42.96494074" lon="-2.32317078"><ele>1100</ele><speed>7.03</speed><time>2017-03-19T15:12:42Z</time><pdop>3.0</pdop><geoidheight>0.00</geoidheight><course>102.1</course><type>1</type></trkpt>
      <trkpt lat="42.96493653" lon="-2.32308549"><ele>1099</ele><speed>7.29</speed><time>2017-03-19T15:12:43Z</time><pdop>3.0</pdop><geoidheight>0.00</geoidheight><course>99.6</course><type>1</type></trkpt>
      <trkpt lat="42.96492675" lon="-2.32299233"><ele>1098</ele><speed>7.63</speed><time>2017-03-19T15:12:44Z</time><pdop>3.0</pdop><geoidheight>0.00</geoidheight><course>97.6</course><type>1</type></trkpt>
      <trkpt lat="42.96491758" lon="-2.32289473"><ele>1098</ele><speed>7.77</speed><time>2017-03-19T15:12:45Z</time><pdop>3.0</pdop><geoidheight>0.00</geoidheight><course>100.0</course><type>1</type></trkpt>
      <trkpt lat="42.9648949" lon="-2.32280125"><ele>1097</ele><speed>7.83</speed><time>2017-03-19T15:12:46Z</time><pdop>3.0</pdop><geoidheight>0.00</geoidheight><course>108.2</course><type>1</type></trkpt>
      <trkpt lat="42.96486558" lon="-2.3227128"><ele>1096</ele><speed>7.83</speed><time>2017-03-19T15:12:47Z</time><pdop>3.0</pdop><geoidheight>0.00</geoidheight><course>113.2</course><type>1</type></trkpt>
      <trkpt lat="42.96483746" lon="-2.32261908"><ele>1094</ele><speed>7.93</speed><time>2017-03-19T15:12:48Z</time><pdop>3.0</pdop><geoidheight>0.00</geoidheight><course>111.0</course><type>1</type></trkpt>
      <trkpt lat="42.96481755" lon="-2.32251994"><ele>1093</ele><speed>8.14</speed><time>2017-03-19T15:12:49Z</time><pdop>3.0</pdop><geoidheight>0.00</geoidheight><course>107.0</course><type>1</type></trkpt>
      <trkpt lat="42.96479893" lon="-2.32241251"><ele>1092</ele><speed>8.55</speed><time>2017-03-19T15:12:50Z</time><pdop>3.0</pdop><geoidheight>0.00</geoidheight><course>104.9</course><type>1</type></trkpt>
      <trkpt lat="42.96477549" lon="-2.3223079"><ele>1091</ele><speed>8.70</speed><time>2017-03-19T15:12:51Z</time><pdop>3.0</pdop><geoidheight>0.00</geoidheight><course>109.9</course><type>1</type></trkpt>
      <trkpt lat="42.96474286" lon="-2.32221275"><ele>1091</ele><speed>8.69</speed><time>2017-03-19T15:12:52Z</time><pdop>3.0</pdop><geoidheight>0.00</geoidheight><course>115.8</course><type>1</type></trkpt>
      <trkpt lat="42.96470418" lon="-2.32211683"><ele>1090</ele><speed>8.79</speed><time>2017-03-19T15:12:53Z</time><pdop>3.0</pdop><geoidheight>0.00</geoidheight><course>119.6</course><type>1</type></trkpt>
      <trkpt lat="42.96466435" lon="-2.32202775"><ele>1090</ele><speed>8.65</speed><time>2017-03-19T15:12:54Z</time><pdop>3.0</pdop><geoidheight>0.00</geoidheight><course>122.8</course><type>1</type></trkpt>
      <trkpt lat="42.96462083" lon="-2.32193695"><ele>1090</ele><speed>8.58</speed><time>2017-03-19T15:12:55Z</time><pdop>3.0</pdop><geoidheight>0.00</geoidheight><course>124.8</course><type>1</type></trkpt>
      <trkpt lat="42.96457747" lon="-2.32184636"><ele>1090</ele><speed>8.57</speed><time>2017-03-19T15:12:56Z</time><pdop>3.0</pdop><geoidheight>0.00</geoidheight><course>124.5</course><type>1</type></trkpt>
      <trkpt lat="42.96453165" lon="-2.32175724"><ele>1090</ele><speed>8.66</speed><time>2017-03-19T15:12:57Z</time><pdop>3.0</pdop><geoidheight>0.00</geoidheight><course>125.6</course><type>1</type></trkpt>
      <trkpt lat="42.9644793" lon="-2.32167237"><ele>1089</ele><speed>8.99</speed><time>2017-03-19T15:12:58Z</time><pdop>3.0</pdop><geoidheight>0.00</geoidheight><course>128.4</course><type>1</type></trkpt>
      <trkpt lat="42.9644203" lon="-2.32159325"><ele>1088</ele><speed>9.31</speed><time>2017-03-19T15:12:59Z</time><pdop>3.0</pdop><geoidheight>0.00</geoidheight><course>130.9</course><type>1</type></trkpt>
      <trkpt lat="42.96436923" lon="-2.3215028"><ele>1089</ele><speed>8.89</speed><time>2017-03-19T15:13:00Z</time><pdop>3.0</pdop><geoidheight>0.00</geoidheight><course>130.5</course><type>1</type></trkpt>
      <trkpt lat="42.96432109" lon="-2.32141359"><ele>1088</ele><speed>8.51</speed><time>2017-03-19T15:13:01Z</time><pdop>3.0</pdop><geoidheight>0.00</geoidheight><course>128.6</course><type>1</type></trkpt>
      <trkpt lat="42.96427325" lon="-2.32134055"><ele>1088</ele><speed>8.20</speed><time>2017-03-19T15:13:02Z</time><pdop>3.0</pdop><geoidheight>0.00</geoidheight><course>127.5</course><type>1</type></trkpt>
      <trkpt lat="42.96423615" lon="-2.32125079"><ele>1087</ele><speed>8.37</speed><time>2017-03-19T15:13:03Z</time><pdop>3.0</pdop><geoidheight>0.00</geoidheight><course>129.0</course><type>1</type></trkpt>
      <trkpt lat="42.96419323" lon="-2.32116623"><ele>1087</ele><speed>8.49</speed><time>2017-03-19T15:13:04Z</time><pdop>3.0</pdop><geoidheight>0.00</geoidheight><course>130.5</course><type>1</type></trkpt>
      <trkpt lat="42.96414133" lon="-2.32108996"><ele>1087</ele><speed>8.38</speed><time>2017-03-19T15:13:05Z</time><pdop>3.0</pdop><geoidheight>0.00</geoidheight><course>130.5</course><type>1</type></trkpt>
      <trkpt lat="42.9640957" lon="-2.32101581"><ele>1088</ele><speed>7.95</speed><time>2017-03-19T15:13:06Z</time><pdop>3.0</pdop><geoidheight>0.00</geoidheight><course>129.1</course><type>1</type></trkpt>
      <trkpt lat="42.96405082" lon="-2.32094188"><ele>1087</ele><speed>7.11</speed><time>2017-03-19T15:13:07Z</time><pdop>3.0</pdop><geoidheight>0.00</geoidheight><course>128.1</course><type>1</type></trkpt>
      <trkpt lat="42.96401187" lon="-2.32087835"><ele>1088</ele><speed>6.99</speed><time>2017-03-19T15:13:08Z</time><pdop>3.0</pdop><geoidheight>0.00</geoidheight><course>128.9</course><type>1</type></trkpt>
      <trkpt lat="42.96396694" lon="-2.32080801"><ele>1087</ele><speed>8.00</speed><time>2017-03-19T15:13:09Z</time><pdop>4.0</pdop><geoidheight>0.00</geoidheight><course>131.6</course><type>1</type></trkpt>
      <trkpt lat="42.9639093" lon="-2.32072997"><ele>1086</ele><speed>8.87</speed><time>2017-03-19T15:13:10Z</time><pdop>4.0</pdop><geoidheight>0.00</geoidheight><course>136.1</course><type>1</type></trkpt>
      <trkpt lat="42.96379876" lon="-2.32061292"><ele>1086</ele><speed>8.00</speed><time>2017-03-19T15:13:12Z</time><pdop>4.0</pdop><geoidheight>0.00</geoidheight><course>145.2</course><type>1</type></trkpt>
      <trkpt lat="42.96373601" lon="-2.32055588"><ele>1086</ele><speed>7.82</speed><time>2017-03-19T15:13:13Z</time><pdop>4.0</pdop><geoidheight>0.00</geoidheight><course>142.7</course><type>1</type></trkpt>
      <trkpt lat="42.96361756" lon="-2.32045486"><ele>1084</ele><speed>8.18</speed><time>2017-03-19T15:13:15Z</time><pdop>4.0</pdop><geoidheight>0.00</geoidheight><course>148.6</course><type>1</type></trkpt>
      <trkpt lat="42.96354947" lon="-2.32039816"><ele>1083</ele><speed>9.22</speed><time>2017-03-19T15:13:16Z</time><pdop>4.0</pdop><geoidheight>0.00</geoidheight><course>147.6</course><type>1</type></trkpt>
      <trkpt lat="42.96348278" lon="-2.32033541"><ele>1084</ele><speed>9.02</speed><time>2017-03-19T15:13:17Z</time><pdop>4.0</pdop><geoidheight>0.00</geoidheight><course>146.3</course><type>1</type></trkpt>
      <trkpt lat="42.96341968" lon="-2.32028315"><ele>1084</ele><speed>8.26</speed><time>2017-03-19T15:13:18Z</time><pdop>4.0</pdop><geoidheight>0.00</geoidheight><course>146.3</course><type>1</type></trkpt>
      <trkpt lat="42.96335397" lon="-2.32023947"><ele>1084</ele><speed>7.68</speed><time>2017-03-19T15:13:19Z</time><pdop>4.0</pdop><geoidheight>0.00</geoidheight><course>149.4</course><type>1</type></trkpt>
      <trkpt lat="42.96322385" lon="-2.32016986"><ele>1084</ele><speed>8.08</speed><time>2017-03-19T15:13:21Z</time><pdop>3.0</pdop><geoidheight>0.00</geoidheight><course>156.7</course><type>1</type></trkpt>
      <trkpt lat="42.96315884" lon="-2.32013213"><ele>1084</ele><speed>7.92</speed><time>2017-03-19T15:13:22Z</time><pdop>3.0</pdop><geoidheight>0.00</geoidheight><course>153.2</course><type>1</type></trkpt>
      <trkpt lat="42.96310892" lon="-2.32009571"><ele>1084</ele><speed>6.93</speed><time>2017-03-19T15:13:23Z</time><pdop>3.0</pdop><geoidheight>0.00</geoidheight><course>142.7</course><type>1</type></trkpt>
      <trkpt lat="42.96307364" lon="-2.32002655"><ele>1083</ele><speed>6.55</speed><time>2017-03-19T15:13:24Z</time><pdop>3.0</pdop><geoidheight>0.00</geoidheight><course>128.4</course><type>1</type></trkpt>
      <trkpt lat="42.96303004" lon="-2.31995783"><ele>1081</ele><speed>6.85</speed><time>2017-03-19T15:13:25Z</time><pdop>3.0</pdop><geoidheight>0.00</geoidheight><course>129.1</course><type>1</type></trkpt>
      <trkpt lat="42.96297507" lon="-2.31988308"><ele>1079</ele><speed>8.00</speed><time>2017-03-19T15:13:26Z</time><pdop>3.0</pdop><geoidheight>0.00</geoidheight><course>132.4</course><type>1</type></trkpt>
      <trkpt lat="42.96291337" lon="-2.31981349"><ele>1078</ele><speed>8.81</speed><time>2017-03-19T15:13:27Z</time><pdop>3.0</pdop><geoidheight>0.00</geoidheight><course>136.6</course><type>1</type></trkpt>
      <trkpt lat="42.9628531" lon="-2.31973849"><ele>1078</ele><speed>9.04</speed><time>2017-03-19T15:13:28Z</time><pdop>3.0</pdop><geoidheight>0.00</geoidheight><course>133.9</course><type>1</type></trkpt>
      <trkpt lat="42.96279751" lon="-2.31967028"><ele>1079</ele><speed>8.43</speed><time>2017-03-19T15:13:29Z</time><pdop>3.0</pdop><geoidheight>0.00</geoidheight><course>135.3</course><type>1</type></trkpt>
      <trkpt lat="42.9627398" lon="-2.31959385"><ele>1078</ele><speed>8.29</speed><time>2017-03-19T15:13:30Z</time><pdop>3.0</pdop><geoidheight>0.00</geoidheight><course>134.3</course><type>1</type></trkpt>
      <trkpt lat="42.96268029" lon="-2.31954743"><ele>1079</ele><speed>8.02</speed><time>2017-03-19T15:13:31Z</time><pdop>3.0</pdop><geoidheight>0.00</geoidheight><course>142.6</course><type>1</type></trkpt>
      <trkpt lat="42.96261307" lon="-2.31949579"><ele>1078</ele><speed>8.65</speed><time>2017-03-19T15:13:32Z</time><pdop>3.0</pdop><geoidheight>0.00</geoidheight><course>146.3</course><type>1</type></trkpt>
      <trkpt lat="42.96254054" lon="-2.3194394"><ele>1078</ele><speed>9.22</speed><time>2017-03-19T15:13:33Z</time><pdop>3.0</pdop><geoidheight>0.00</geoidheight><course>147.4</course><type>1</type></trkpt>
      <trkpt lat="42.96246883" lon="-2.31937735"><ele>1078</ele><speed>9.51</speed><time>2017-03-19T15:13:34Z</time><pdop>3.0</pdop><geoidheight>0.00</geoidheight><course>148.0</course><type>1</type></trkpt>
      <trkpt lat="42.96239914" lon="-2.3193236"><ele>1079</ele><speed>9.22</speed><time>2017-03-19T15:13:35Z</time><pdop>3.0</pdop><geoidheight>0.00</geoidheight><course>148.3</course><type>1</type></trkpt>
      <trkpt lat="42.9623324" lon="-2.31926649"><ele>1079</ele><speed>8.94</speed><time>2017-03-19T15:13:36Z</time><pdop>3.0</pdop><geoidheight>0.00</geoidheight><course>149.0</course><type>1</type></trkpt>
      <trkpt lat="42.96226079" lon="-2.31921947"><ele>1079</ele><speed>8.94</speed><time>2017-03-19T15:13:37Z</time><pdop>3.0</pdop><geoidheight>0.00</geoidheight><course>150.5</course><type>1</type></trkpt>
      <trkpt lat="42.96218976" lon="-2.31916504"><ele>1079</ele><speed>9.26</speed><time>2017-03-19T15:13:38Z</time><pdop>3.0</pdop><geoidheight>0.00</geoidheight><course>151.9</course><type>1</type></trkpt>
      <trkpt lat="42.96211551" lon="-2.31910692"><ele>1079</ele><speed>9.49</speed><time>2017-03-19T15:13:39Z</time><pdop>3.0</pdop><geoidheight>0.00</geoidheight><course>151.4</course><type>1</type></trkpt>
      <trkpt lat="42.96203781" lon="-2.31904813"><ele>1079</ele><speed>9.64</speed><time>2017-03-19T15:13:40Z</time><pdop>3.0</pdop><geoidheight>0.00</geoidheight><course>150.8</course><type>1</type></trkpt>
      <trkpt lat="42.96196201" lon="-2.31899087"><ele>1079</ele><speed>9.53</speed><time>2017-03-19T15:13:41Z</time><pdop>3.0</pdop><geoidheight>0.00</geoidheight><course>148.9</course><type>1</type></trkpt>
      <trkpt lat="42.96190181" lon="-2.31892872"><ele>1079</ele><speed>9.07</speed><time>2017-03-19T15:13:42Z</time><pdop>3.0</pdop><geoidheight>0.00</geoidheight><course>147.7</course><type>1</type></trkpt>
      <trkpt lat="42.96183454" lon="-2.31886741"><ele>1079</ele><speed>9.24</speed><time>2017-03-19T15:13:43Z</time><pdop>3.0</pdop><geoidheight>0.00</geoidheight><course>147.7</course><type>1</type></trkpt>
      <trkpt lat="42.96176584" lon="-2.31881262"><ele>1078</ele><speed>9.39</speed><time>2017-03-19T15:13:44Z</time><pdop>3.0</pdop><geoidheight>0.00</geoidheight><course>150.7</course><type>1</type></trkpt>
      <trkpt lat="42.96169072" lon="-2.31876384"><ele>1077</ele><speed>9.44</speed><time>2017-03-19T15:13:45Z</time><pdop>3.0</pdop><geoidheight>0.00</geoidheight><course>152.1</course><type>1</type></trkpt>
      <trkpt lat="42.96160925" lon="-2.3187123"><ele>1078</ele><speed>9.56</speed><time>2017-03-19T15:13:46Z</time><pdop>3.0</pdop><geoidheight>0.00</geoidheight><course>151.8</course><type>1</type></trkpt>
      <trkpt lat="42.96153023" lon="-2.31865437"><ele>1078</ele><speed>9.79</speed><time>2017-03-19T15:13:47Z</time><pdop>3.0</pdop><geoidheight>0.00</geoidheight><course>151.0</course><type>1</type></trkpt>
      <trkpt lat="42.96145106" lon="-2.31860102"><ele>1078</ele><speed>9.85</speed><time>2017-03-19T15:13:48Z</time><pdop>3.0</pdop><geoidheight>0.00</geoidheight><course>151.5</course><type>1</type></trkpt>
      <trkpt lat="42.96137202" lon="-2.31854973"><ele>1078</ele><speed>9.75</speed><time>2017-03-19T15:13:49Z</time><pdop>3.0</pdop><geoidheight>0.00</geoidheight><course>152.8</course><type>1</type></trkpt>
      <trkpt lat="42.9613" lon="-2.31850529"><ele>1079</ele><speed>8.91</speed><time>2017-03-19T15:13:50Z</time><pdop>3.0</pdop><geoidheight>0.00</geoidheight><course>154.3</course><type>1</type></trkpt>
      <trkpt lat="42.96123592" lon="-2.3184688"><ele>1079</ele><speed>7.90</speed><time>2017-03-19T15:13:51Z</time><pdop>3.0</pdop><geoidheight>0.00</geoidheight><course>155.6</course><type>1</type></trkpt>
      <trkpt lat="42.96117302" lon="-2.3184296"><ele>1079</ele><speed>8.05</speed><time>2017-03-19T15:13:52Z</time><pdop>3.0</pdop><geoidheight>0.00</geoidheight><course>155.7</course><type>1</type></trkpt>
      <trkpt lat="42.96110314" lon="-2.3183903"><ele>1079</ele><speed>8.67</speed><time>2017-03-19T15:13:53Z</time><pdop>3.0</pdop><geoidheight>0.00</geoidheight><course>154.9</course><type>1</type></trkpt>
      <trkpt lat="42.96104134" lon="-2.31831271"><ele>1078</ele><speed>9.38</speed><time>2017-03-19T15:13:54Z</time><pdop>3.0</pdop><geoidheight>0.00</geoidheight><course>150.4</course><type>1</type></trkpt>
      <trkpt lat="42.96096557" lon="-2.31826973"><ele>1077</ele><speed>9.00</speed><time>2017-03-19T15:13:55Z</time><pdop>3.0</pdop><geoidheight>0.00</geoidheight><course>154.6</course><type>1</type></trkpt>
      <trkpt lat="42.96089371" lon="-2.31822809"><ele>1076</ele><speed>8.58</speed><time>2017-03-19T15:13:56Z</time><pdop>3.0</pdop><geoidheight>0.00</geoidheight><course>154.9</course><type>1</type></trkpt>
      <trkpt lat="42.96082198" lon="-2.31820019"><ele>1075</ele><speed>8.80</speed><time>2017-03-19T15:13:57Z</time><pdop>3.0</pdop><geoidheight>0.00</geoidheight><course>157.2</course><type>1</type></trkpt>
      <trkpt lat="42.96073878" lon="-2.31815851"><ele>1073</ele><speed>9.59</speed><time>2017-03-19T15:13:58Z</time><pdop>3.0</pdop><geoidheight>0.00</geoidheight><course>157.9</course><type>1</type></trkpt>
      <trkpt lat="42.96064611" lon="-2.31810303"><ele>1072</ele><speed>10.53</speed><time>2017-03-19T15:13:59Z</time><pdop>3.0</pdop><geoidheight>0.00</geoidheight><course>157.6</course><type>1</type></trkpt>
      <trkpt lat="42.96055769" lon="-2.31804467"><ele>1071</ele><speed>10.79</speed><time>2017-03-19T15:14:00Z</time><pdop>3.0</pdop><geoidheight>0.00</geoidheight><course>155.3</course><type>1</type></trkpt>
      <trkpt lat="42.96047447" lon="-2.31799391"><ele>1072</ele><speed>10.08</speed><time>2017-03-19T15:14:01Z</time><pdop>3.0</pdop><geoidheight>0.00</geoidheight><course>153.5</course><type>1</type></trkpt>
      <trkpt lat="42.96040088" lon="-2.31794791"><ele>1072</ele><speed>9.23</speed><time>2017-03-19T15:14:02Z</time><pdop>3.0</pdop><geoidheight>0.00</geoidheight><course>154.6</course><type>1</type></trkpt>
      <trkpt lat="42.9603291" lon="-2.31790511"><ele>1071</ele><speed>8.89</speed><time>2017-03-19T15:14:03Z</time><pdop>3.0</pdop><geoidheight>0.00</geoidheight><course>157.0</course><type>1</type></trkpt>
      <trkpt lat="42.96024082" lon="-2.31786217"><ele>1070</ele><speed>9.57</speed><time>2017-03-19T15:14:04Z</time><pdop>3.0</pdop><geoidheight>0.00</geoidheight><course>159.7</course><type>1</type></trkpt>
      <trkpt lat="42.96014798" lon="-2.31784025"><ele>1070</ele><speed>10.36</speed><time>2017-03-19T15:14:05Z</time><pdop>3.0</pdop><geoidheight>0.00</geoidheight><course>165.5</course><type>1</type></trkpt>
      <trkpt lat="42.96005575" lon="-2.3178236"><ele>1070</ele><speed>10.11</speed><time>2017-03-19T15:14:06Z</time><pdop>3.0</pdop><geoidheight>0.00</geoidheight><course>169.8</course><type>1</type></trkpt>
      <trkpt lat="42.95997518" lon="-2.31780205"><ele>1071</ele><speed>9.50</speed><time>2017-03-19T15:14:07Z</time><pdop>3.0</pdop><geoidheight>0.00</geoidheight><course>169.8</course><type>1</type></trkpt>
      <trkpt lat="42.95989098" lon="-2.31777637"><ele>1071</ele><speed>9.30</speed><time>2017-03-19T15:14:08Z</time><pdop>3.0</pdop><geoidheight>0.00</geoidheight><course>165.9</course><type>1</type></trkpt>
      <trkpt lat="42.95981244" lon="-2.31774743"><ele>1071</ele><speed>9.48</speed><time>2017-03-19T15:14:09Z</time><pdop>3.0</pdop><geoidheight>0.00</geoidheight><course>163.8</course><type>1</type></trkpt>
      <trkpt lat="42.95972337" lon="-2.31771639"><ele>1070</ele><speed>10.01</speed><time>2017-03-19T15:14:10Z</time><pdop>3.0</pdop><geoidheight>0.00</geoidheight><course>164.1</course><type>1</type></trkpt>
      <trkpt lat="42.95963258" lon="-2.31768165"><ele>1069</ele><speed>10.12</speed><time>2017-03-19T15:14:11Z</time><pdop>3.0</pdop><geoidheight>0.00</geoidheight><course>164.4</course><type>1</type></trkpt>
      <trkpt lat="42.95954121" lon="-2.31765979"><ele>1069</ele><speed>10.04</speed><time>2017-03-19T15:14:12Z</time><pdop>3.0</pdop><geoidheight>0.00</geoidheight><course>168.0</course><type>1</type></trkpt>
      <trkpt lat="42.95945493" lon="-2.31764795"><ele>1070</ele><speed>9.68</speed><time>2017-03-19T15:14:13Z</time><pdop>3.0</pdop><geoidheight>0.00</geoidheight><course>170.5</course><type>1</type></trkpt>
      <trkpt lat="42.95936836" lon="-2.31764235"><ele>1070</ele><speed>9.61</speed><time>2017-03-19T15:14:14Z</time><pdop>3.0</pdop><geoidheight>0.00</geoidheight><course>173.0</course><type>1</type></trkpt>
      <trkpt lat="42.95928149" lon="-2.31762373"><ele>1070</ele><speed>9.98</speed><time>2017-03-19T15:14:15Z</time><pdop>3.0</pdop><geoidheight>0.00</geoidheight><course>173.9</course><type>1</type></trkpt>
      <trkpt lat="42.95918319" lon="-2.31762559"><ele>1069</ele><speed>10.77</speed><time>2017-03-19T15:14:16Z</time><pdop>3.0</pdop><geoidheight>0.00</geoidheight><course>178.1</course><type>1</type></trkpt>
      <trkpt lat="42.95907901" lon="-2.3176355"><ele>1069</ele><speed>11.32</speed><time>2017-03-19T15:14:17Z</time><pdop>3.0</pdop><geoidheight>0.00</geoidheight><course>181.1</course><type>1</type></trkpt>
      <trkpt lat="42.95897939" lon="-2.31764331"><ele>1069</ele><speed>10.92</speed><time>2017-03-19T15:14:18Z</time><pdop>3.0</pdop><geoidheight>0.00</geoidheight><course>181.8</course><type>1</type></trkpt>
      <trkpt lat="42.95888961" lon="-2.31763365"><ele>1070</ele><speed>10.15</speed><time>2017-03-19T15:14:19Z</time><pdop>3.0</pdop><geoidheight>0.00</geoidheight><course>177.2</course><type>1</type></trkpt>
      <trkpt lat="42.95879353" lon="-2.31762219"><ele>1070</ele><speed>9.73</speed><time>2017-03-19T15:14:20Z</time><pdop>3.0</pdop><geoidheight>0.00</geoidheight><course>173.5</course><type>1</type></trkpt>
      <trkpt lat="42.95870961" lon="-2.31760273"><ele>1069</ele><speed>9.71</speed><time>2017-03-19T15:14:21Z</time><pdop>3.0</pdop><geoidheight>0.00</geoidheight><course>171.8</course><type>1</type></trkpt>
      <trkpt lat="42.95862064" lon="-2.31758888"><ele>1069</ele><speed>10.04</speed><time>2017-03-19T15:14:22Z</time><pdop>3.0</pdop><geoidheight>0.00</geoidheight><course>173.3</course><type>1</type></trkpt>
      <trkpt lat="42.95852622" lon="-2.31758353"><ele>1069</ele><speed>10.41</speed><time>2017-03-19T15:14:23Z</time><pdop>3.0</pdop><geoidheight>0.00</geoidheight><course>175.2</course><type>1</type></trkpt>
      <trkpt lat="42.9584297" lon="-2.31757902"><ele>1068</ele><speed>10.75</speed><time>2017-03-19T15:14:24Z</time><pdop>3.0</pdop><geoidheight>0.00</geoidheight><course>177.5</course><type>1</type></trkpt>
      <trkpt lat="42.95833576" lon="-2.31757102"><ele>1068</ele><speed>10.64</speed><time>2017-03-19T15:14:25Z</time><pdop>3.0</pdop><geoidheight>0.00</geoidheight><course>179.0</course><type>1</type></trkpt>
      <trkpt lat="42.95824862" lon="-2.31756359"><ele>1069</ele><speed>9.87</speed><time>2017-03-19T15:14:26Z</time><pdop>3.0</pdop><geoidheight>0.00</geoidheight><course>180.3</course><type>1</type></trkpt>
      <trkpt lat="42.95816981" lon="-2.31756037"><ele>1070</ele><speed>9.61</speed><time>2017-03-19T15:14:27Z</time><pdop>3.0</pdop><geoidheight>0.00</geoidheight><course>181.9</course><type>1</type></trkpt>
      <trkpt lat="42.95808269" lon="-2.31756788"><ele>1069</ele><speed>9.45</speed><time>2017-03-19T15:14:28Z</time><pdop>3.0</pdop><geoidheight>0.00</geoidheight><course>182.6</course><type>1</type></trkpt>
      <trkpt lat="42.95799111" lon="-2.3175685"><ele>1069</ele><speed>9.39</speed><time>2017-03-19T15:14:29Z</time><pdop>3.0</pdop><geoidheight>0.00</geoidheight><course>181.3</course><type>1</type></trkpt>
      <trkpt lat="42.95790761" lon="-2.31756555"><ele>1067</ele><speed>9.63</speed><time>2017-03-19T15:14:30Z</time><pdop>3.0</pdop><geoidheight>0.00</geoidheight><course>177.5</course><type>1</type></trkpt>
      <trkpt lat="42.95781726" lon="-2.31755349"><ele>1067</ele><speed>10.27</speed><time>2017-03-19T15:14:31Z</time><pdop>3.0</pdop><geoidheight>0.00</geoidheight><course>174.0</course><type>1</type></trkpt>
      <trkpt lat="42.95772081" lon="-2.31753953"><ele>1066</ele><speed>10.71</speed><time>2017-03-19T15:14:32Z</time><pdop>3.0</pdop><geoidheight>0.00</geoidheight><course>173.2</course><type>1</type></trkpt>
      <trkpt lat="42.95762352" lon="-2.3175265"><ele>1065</ele><speed>10.91</speed><time>2017-03-19T15:14:33Z</time><pdop>3.0</pdop><geoidheight>0.00</geoidheight><course>174.1</course><type>1</type></trkpt>
      <trkpt lat="42.95752504" lon="-2.31751581"><ele>1065</ele><speed>10.81</speed><time>2017-03-19T15:14:34Z</time><pdop>3.0</pdop><geoidheight>0.00</geoidheight><course>174.4</course><type>1</type></trkpt>
      <trkpt lat="42.9574259" lon="-2.31750405"><ele>1065</ele><speed>10.66</speed><time>2017-03-19T15:14:35Z</time><pdop>3.0</pdop><geoidheight>0.00</geoidheight><course>174.6</course><type>1</type></trkpt>
      <trkpt lat="42.95733254" lon="-2.31749363"><ele>1064</ele><speed>10.52</speed><time>2017-03-19T15:14:36Z</time><pdop>3.0</pdop><geoidheight>0.00</geoidheight><course>174.9</course><type>1</type></trkpt>
      <trkpt lat="42.95724234" lon="-2.31747765"><ele>1063</ele><speed>10.37</speed><time>2017-03-19T15:14:37Z</time><pdop>3.0</pdop><geoidheight>0.00</geoidheight><course>172.8</course><type>1</type></trkpt>
      <trkpt lat="42.95715388" lon="-2.317449"><ele>1063</ele><speed>10.18</speed><time>2017-03-19T15:14:38Z</time><pdop>3.0</pdop><geoidheight>0.00</geoidheight><course>168.6</course><type>1</type></trkpt>
      <trkpt lat="42.95706573" lon="-2.31741848"><ele>1062</ele><speed>10.13</speed><time>2017-03-19T15:14:39Z</time><pdop>3.0</pdop><geoidheight>0.00</geoidheight><course>165.6</course><type>1</type></trkpt>
      <trkpt lat="42.95697385" lon="-2.31738556"><ele>1061</ele><speed>10.46</speed><time>2017-03-19T15:14:40Z</time><pdop>3.0</pdop><geoidheight>0.00</geoidheight><course>164.2</course><type>1</type></trkpt>
      <trkpt lat="42.95688152" lon="-2.31734643"><ele>1061</ele><speed>10.60</speed><time>2017-03-19T15:14:41Z</time><pdop>3.0</pdop><geoidheight>0.00</geoidheight><course>165.3</course><type>1</type></trkpt>
      <trkpt lat="42.95678615" lon="-2.31728978"><ele>1061</ele><speed>10.87</speed><time>2017-03-19T15:14:42Z</time><pdop>3.0</pdop><geoidheight>0.00</geoidheight><course>159.3</course><type>1</type></trkpt>
      <trkpt lat="42.95669303" lon="-2.31726207"><ele>1060</ele><speed>10.43</speed><time>2017-03-19T15:14:43Z</time><pdop>3.0</pdop><geoidheight>0.00</geoidheight><course>157.5</course><type>1</type></trkpt>
      <trkpt lat="42.95660562" lon="-2.31722116"><ele>1060</ele><speed>9.96</speed><time>2017-03-19T15:14:44Z</time><pdop>3.0</pdop><geoidheight>0.00</geoidheight><course>160.0</course><type>1</type></trkpt>
      <trkpt lat="42.95651548" lon="-2.31718072"><ele>1060</ele><speed>10.52</speed><time>2017-03-19T15:14:45Z</time><pdop>3.0</pdop><geoidheight>0.00</geoidheight><course>161.0</course><type>1</type></trkpt>
      <trkpt lat="42.95642656" lon="-2.3171678"><ele>1060</ele><speed>10.14</speed><time>2017-03-19T15:14:46Z</time><pdop>3.0</pdop><geoidheight>0.00</geoidheight><course>166.9</course><type>1</type></trkpt>
      <trkpt lat="42.95633756" lon="-2.31715204"><ele>1060</ele><speed>10.01</speed><time>2017-03-19T15:14:47Z</time><pdop>3.0</pdop><geoidheight>0.00</geoidheight><course>168.4</course><type>1</type></trkpt>
      <trkpt lat="42.95625151" lon="-2.31712653"><ele>1060</ele><speed>10.11</speed><time>2017-03-19T15:14:48Z</time><pdop>4.0</pdop><geoidheight>0.00</geoidheight><course>169.4</course><type>1</type></trkpt>
      <trkpt lat="42.95616294" lon="-2.31710378"><ele>1059</ele><speed>10.23</speed><time>2017-03-19T15:14:49Z</time><pdop>4.0</pdop><geoidheight>0.00</geoidheight><course>171.2</course><type>1</type></trkpt>
      <trkpt lat="42.95607215" lon="-2.31709534"><ele>1059</ele><speed>10.22</speed><time>2017-03-19T15:14:50Z</time><pdop>4.0</pdop><geoidheight>0.00</geoidheight><course>175.3</course><type>1</type></trkpt>
      <trkpt lat="42.95597378" lon="-2.31709109"><ele>1058</ele><speed>10.69</speed><time>2017-03-19T15:14:51Z</time><pdop>3.0</pdop><geoidheight>0.00</geoidheight><course>176.5</course><type>1</type></trkpt>
      <trkpt lat="42.95587907" lon="-2.31708311"><ele>1058</ele><speed>10.73</speed><time>2017-03-19T15:14:52Z</time><pdop>3.0</pdop><geoidheight>0.00</geoidheight><course>178.3</course><type>1</type></trkpt>
      <trkpt lat="42.9557853" lon="-2.31708229"><ele>1058</ele><speed>10.48</speed><time>2017-03-19T15:14:53Z</time><pdop>3.0</pdop><geoidheight>0.00</geoidheight><course>179.4</course><type>1</type></trkpt>
      <trkpt lat="42.95569224" lon="-2.31708832"><ele>1059</ele><speed>10.37</speed><time>2017-03-19T15:14:54Z</time><pdop>3.0</pdop><geoidheight>0.00</geoidheight><course>182.8</course><type>1</type></trkpt>
      <trkpt lat="42.95560449" lon="-2.31710321"><ele>1058</ele><speed>9.89</speed><time>2017-03-19T15:14:55Z</time><pdop>3.0</pdop><geoidheight>0.00</geoidheight><course>186.2</course><type>1</type></trkpt>
      <trkpt lat="42.95552678" lon="-2.31711264"><ele>1059</ele><speed>9.75</speed><time>2017-03-19T15:14:56Z</time><pdop>3.0</pdop><geoidheight>0.00</geoidheight><course>187.2</course><type>1</type></trkpt>
      <trkpt lat="42.95543061" lon="-2.31712096"><ele>1059</ele><speed>10.23</speed><time>2017-03-19T15:14:57Z</time><pdop>3.0</pdop><geoidheight>0.00</geoidheight><course>184.8</course><type>1</type></trkpt>
      <trkpt lat="42.95532457" lon="-2.31712881"><ele>1057</ele><speed>11.31</speed><time>2017-03-19T15:14:58Z</time><pdop>3.0</pdop><geoidheight>0.00</geoidheight><course>182.4</course><type>1</type></trkpt>
      <trkpt lat="42.95523128" lon="-2.3171202"><ele>1058</ele><speed>11.09</speed><time>2017-03-19T15:14:59Z</time><pdop>4.0</pdop><geoidheight>0.00</geoidheight><course>184.8</course><type>1</type></trkpt>
      <trkpt lat="42.95512427" lon="-2.31713839"><ele>1057</ele><speed>11.45</speed><time>2017-03-19T15:15:00Z</time><pdop>4.0</pdop><geoidheight>0.00</geoidheight><course>182.9</course><type>1</type></trkpt>
      <trkpt lat="42.95503859" lon="-2.31712384"><ele>1057</ele><speed>10.69</speed><time>2017-03-19T15:15:01Z</time><pdop>4.0</pdop><geoidheight>0.00</geoidheight><course>175.6</course><type>1</type></trkpt>
      <trkpt lat="42.9549182" lon="-2.31712794"><ele>1059</ele><speed>7.51</speed><time>2017-03-19T15:15:03Z</time><pdop>3.0</pdop><geoidheight>0.00</geoidheight><course>182.1</course><type>1</type></trkpt>
      <trkpt lat="42.9548312" lon="-2.3171267"><ele>1058</ele><speed>8.44</speed><time>2017-03-19T15:15:04Z</time><pdop>3.0</pdop><geoidheight>0.00</geoidheight><course>186.0</course><type>1</type></trkpt>
      <trkpt lat="42.95474903" lon="-2.31711961"><ele>1057</ele><speed>9.62</speed><time>2017-03-19T15:15:05Z</time><pdop>3.0</pdop><geoidheight>0.00</geoidheight><course>187.5</course><type>1</type></trkpt>
      <trkpt lat="42.95465213" lon="-2.31711213"><ele>1056</ele><speed>10.28</speed><time>2017-03-19T15:15:06Z</time><pdop>3.0</pdop><geoidheight>0.00</geoidheight><course>183.9</course><type>1</type></trkpt>
      <trkpt lat="42.95455154" lon="-2.31710546"><ele>1056</ele><speed>10.70</speed><time>2017-03-19T15:15:07Z</time><pdop>3.0</pdop><geoidheight>0.00</geoidheight><course>179.1</course><type>1</type></trkpt>
      <trkpt lat="42.95445875" lon="-2.31709409"><ele>1056</ele><speed>10.23</speed><time>2017-03-19T15:15:08Z</time><pdop>3.0</pdop><geoidheight>0.00</geoidheight><course>174.0</course><type>1</type></trkpt>
      <trkpt lat="42.95437659" lon="-2.3170522"><ele>1056</ele><speed>9.63</speed><time>2017-03-19T15:15:09Z</time><pdop>3.0</pdop><geoidheight>0.00</geoidheight><course>163.1</course><type>1</type></trkpt>
      <trkpt lat="42.95429987" lon="-2.31700424"><ele>1055</ele><speed>9.74</speed><time>2017-03-19T15:15:10Z</time><pdop>3.0</pdop><geoidheight>0.00</geoidheight><course>156.4</course><type>1</type></trkpt>
      <trkpt lat="42.95422215" lon="-2.31694567"><ele>1054</ele><speed>9.92</speed><time>2017-03-19T15:15:11Z</time><pdop>3.0</pdop><geoidheight>0.00</geoidheight><course>152.1</course><type>1</type></trkpt>
      <trkpt lat="42.9541415" lon="-2.31689414"><ele>1053</ele><speed>10.17</speed><time>2017-03-19T15:15:12Z</time><pdop>3.0</pdop><geoidheight>0.00</geoidheight><course>153.1</course><type>1</type></trkpt>
      <trkpt lat="42.95405861" lon="-2.3168267"><ele>1052</ele><speed>10.77</speed><time>2017-03-19T15:15:13Z</time><pdop>3.0</pdop><geoidheight>0.00</geoidheight><course>150.5</course><type>1</type></trkpt>
      <trkpt lat="42.95396327" lon="-2.31678356"><ele>1053</ele><speed>10.71</speed><time>2017-03-19T15:15:14Z</time><pdop>3.0</pdop><geoidheight>0.00</geoidheight><course>155.2</course><type>1</type></trkpt>
      <trkpt lat="42.95387338" lon="-2.3167291"><ele>1052</ele><speed>10.69</speed><time>2017-03-19T15:15:15Z</time><pdop>4.0</pdop><geoidheight>0.00</geoidheight><course>154.2</course><type>1</type></trkpt>
      <trkpt lat="42.95380818" lon="-2.31670019"><ele>1054</ele><speed>8.58</speed><time>2017-03-19T15:15:16Z</time><pdop>3.0</pdop><geoidheight>0.00</geoidheight><course>154.5</course><type>1</type></trkpt>
      <trkpt lat="42.95373994" lon="-2.31666865"><ele>1053</ele><speed>8.00</speed><time>2017-03-19T15:15:17Z</time><pdop>3.0</pdop><geoidheight>0.00</geoidheight><course>157.3</course><type>1</type></trkpt>
      <trkpt lat="42.9536681" lon="-2.31663146"><ele>1054</ele><speed>8.41</speed><time>2017-03-19T15:15:18Z</time><pdop>3.0</pdop><geoidheight>0.00</geoidheight><course>157.0</course><type>1</type></trkpt>
      <trkpt lat="42.95359306" lon="-2.31659569"><ele>1054</ele><speed>9.19</speed><time>2017-03-19T15:15:19Z</time><pdop>3.0</pdop><geoidheight>0.00</geoidheight><course>158.2</course><type>1</type></trkpt>
      <trkpt lat="42.95348457" lon="-2.31656668"><ele>1053</ele><speed>10.84</speed><time>2017-03-19T15:15:20Z</time><pdop>3.0</pdop><geoidheight>0.00</geoidheight><course>161.1</course><type>1</type></trkpt>
      <trkpt lat="42.95339332" lon="-2.31652685"><ele>1053</ele><speed>11.04</speed><time>2017-03-19T15:15:21Z</time><pdop>3.0</pdop><geoidheight>0.00</geoidheight><course>163.2</course><type>1</type></trkpt>
      <trkpt lat="42.95330537" lon="-2.31650425"><ele>1054</ele><speed>10.32</speed><time>2017-03-19T15:15:22Z</time><pdop>3.0</pdop><geoidheight>0.00</geoidheight><course>171.7</course><type>1</type></trkpt>
      <trkpt lat="42.95322796" lon="-2.31649022"><ele>1054</ele><speed>9.32</speed><time>2017-03-19T15:15:23Z</time><pdop>3.0</pdop><geoidheight>0.00</geoidheight><course>174.0</course><type>1</type></trkpt>
      <trkpt lat="42.9531304" lon="-2.31652108"><ele>1054</ele><speed>10.04</speed><time>2017-03-19T15:15:24Z</time><pdop>3.0</pdop><geoidheight>0.00</geoidheight><course>182.7</course><type>1</type></trkpt>
      <trkpt lat="42.95303967" lon="-2.31653177"><ele>1054</ele><speed>9.84</speed><time>2017-03-19T15:15:25Z</time><pdop>3.0</pdop><geoidheight>0.00</geoidheight><course>179.6</course><type>1</type></trkpt>
      <trkpt lat="42.95296142" lon="-2.31652485"><ele>1055</ele><speed>8.99</speed><time>2017-03-19T15:15:26Z</time><pdop>3.0</pdop><geoidheight>0.00</geoidheight><course>178.0</course><type>1</type></trkpt>
      <trkpt lat="42.95288424" lon="-2.31652916"><ele>1055</ele><speed>8.58</speed><time>2017-03-19T15:15:27Z</time><pdop>3.0</pdop><geoidheight>0.00</geoidheight><course>181.0</course><type>1</type></trkpt>
      <trkpt lat="42.95280733" lon="-2.31654111"><ele>1057</ele><speed>8.95</speed><time>2017-03-19T15:15:28Z</time><pdop>3.0</pdop><geoidheight>0.00</geoidheight><course>186.4</course><type>1</type></trkpt>
      <trkpt lat="42.95271398" lon="-2.31655624"><ele>1056</ele><speed>10.08</speed><time>2017-03-19T15:15:29Z</time><pdop>3.0</pdop><geoidheight>0.00</geoidheight><course>189.1</course><type>1</type></trkpt>
      <trkpt lat="42.95262498" lon="-2.31656775"><ele>1057</ele><speed>10.24</speed><time>2017-03-19T15:15:30Z</time><pdop>3.0</pdop><geoidheight>0.00</geoidheight><course>188.8</course><type>1</type></trkpt>
      <trkpt lat="42.95253685" lon="-2.31657594"><ele>1057</ele><speed>10.20</speed><time>2017-03-19T15:15:31Z</time><pdop>3.0</pdop><geoidheight>0.00</geoidheight><course>187.3</course><type>1</type></trkpt>
      <trkpt lat="42.95245811" lon="-2.31658875"><ele>1058</ele><speed>8.91</speed><time>2017-03-19T15:15:32Z</time><pdop>3.0</pdop><geoidheight>0.00</geoidheight><course>182.6</course><type>1</type></trkpt>
      <trkpt lat="42.95238129" lon="-2.31657404"><ele>1059</ele><speed>8.54</speed><time>2017-03-19T15:15:33Z</time><pdop>3.0</pdop><geoidheight>0.00</geoidheight><course>172.5</course><type>1</type></trkpt>
      <trkpt lat="42.95229906" lon="-2.3165282"><ele>1059</ele><speed>9.11</speed><time>2017-03-19T15:15:34Z</time><pdop>3.0</pdop><geoidheight>0.00</geoidheight><course>160.7</course><type>1</type></trkpt>
      <trkpt lat="42.95222787" lon="-2.31647692"><ele>1059</ele><speed>9.11</speed><time>2017-03-19T15:15:35Z</time><pdop>3.0</pdop><geoidheight>0.00</geoidheight><course>154.0</course><type>1</type></trkpt>
      <trkpt lat="42.95220979" lon="-2.31634845"><ele>1060</ele><speed>8.28</speed><time>2017-03-19T15:15:36Z</time><pdop>3.0</pdop><geoidheight>0.00</geoidheight><course>117.0</course><type>1</type></trkpt>
      <trkpt lat="42.95222606" lon="-2.31624959"><ele>1060</ele><speed>7.51</speed><time>2017-03-19T15:15:37Z</time><pdop>3.0</pdop><geoidheight>0.00</geoidheight><course>82.3</course><type>1</type></trkpt>
      <trkpt lat="42.95226558" lon="-2.31618976"><ele>1060</ele><speed>6.56</speed><time>2017-03-19T15:15:38Z</time><pdop>3.0</pdop><geoidheight>0.00</geoidheight><course>50.0</course><type>1</type></trkpt>
      <trkpt lat="42.95236825" lon="-2.31617708"><ele>1060</ele><speed>5.60</speed><time>2017-03-19T15:15:40Z</time><pdop>3.0</pdop><geoidheight>0.00</geoidheight><course>0.2</course><type>1</type></trkpt>
      <trkpt lat="42.95238813" lon="-2.31625369"><ele>1060</ele><speed>5.58</speed><time>2017-03-19T15:15:41Z</time><pdop>3.0</pdop><geoidheight>0.00</geoidheight><course>313.0</course><type>1</type></trkpt>
      <trkpt lat="42.95243317" lon="-2.31630623"><ele>1060</ele><speed>6.34</speed><time>2017-03-19T15:15:42Z</time><pdop>3.0</pdop><geoidheight>0.00</geoidheight><course>314.3</course><type>1</type></trkpt>
      <trkpt lat="42.95248324" lon="-2.31634067"><ele>1061</ele><speed>6.39</speed><time>2017-03-19T15:15:43Z</time><pdop>3.0</pdop><geoidheight>0.00</geoidheight><course>332.7</course><type>1</type></trkpt>
      <trkpt lat="42.95253795" lon="-2.31633682"><ele>1062</ele><speed>6.43</speed><time>2017-03-19T15:15:44Z</time><pdop>3.0</pdop><geoidheight>0.00</geoidheight><course>356.6</course><type>1</type></trkpt>
      <trkpt lat="42.95264234" lon="-2.316311"><ele>1061</ele><speed>5.67</speed><time>2017-03-19T15:15:46Z</time><pdop>3.0</pdop><geoidheight>0.00</geoidheight><course>6.3</course><type>1</type></trkpt>
      <trkpt lat="42.95270813" lon="-2.31631277"><ele>1060</ele><speed>7.04</speed><time>2017-03-19T15:15:47Z</time><pdop>3.0</pdop><geoidheight>0.00</geoidheight><course>357.4</course><type>1</type></trkpt>
      <trkpt lat="42.95278131" lon="-2.31632681"><ele>1060</ele><speed>8.12</speed><time>2017-03-19T15:15:48Z</time><pdop>3.0</pdop><geoidheight>0.00</geoidheight><course>353.7</course><type>1</type></trkpt>
      <trkpt lat="42.95283964" lon="-2.31630506"><ele>1061</ele><speed>6.94</speed><time>2017-03-19T15:15:49Z</time><pdop>3.0</pdop><geoidheight>0.00</geoidheight><course>9.4</course><type>1</type></trkpt>
      <trkpt lat="42.95287899" lon="-2.31625314"><ele>1060</ele><speed>6.02</speed><time>2017-03-19T15:15:50Z</time><pdop>3.0</pdop><geoidheight>0.00</geoidheight><course>37.1</course><type>1</type></trkpt>
      <trkpt lat="42.95289895" lon="-2.31610746"><ele>1059</ele><speed>7.44</speed><time>2017-03-19T15:15:52Z</time><pdop>3.0</pdop><geoidheight>0.00</geoidheight><course>86.7</course><type>1</type></trkpt>
      <trkpt lat="42.95289166" lon="-2.31601596"><ele>1058</ele><speed>7.77</speed><time>2017-03-19T15:15:53Z</time><pdop>4.0</pdop><geoidheight>0.00</geoidheight><course>102.5</course><type>1</type></trkpt>
      <trkpt lat="42.95280049" lon="-2.3158466"><ele>1057</ele><speed>8.94</speed><time>2017-03-19T15:15:55Z</time><pdop>5.0</pdop><geoidheight>0.00</geoidheight><course>124.9</course><type>1</type></trkpt>
      <trkpt lat="42.95262217" lon="-2.31575776"><ele>1056</ele><speed>10.64</speed><time>2017-03-19T15:15:57Z</time><pdop>7.0</pdop><geoidheight>0.00</geoidheight><course>156.1</course><type>1</type></trkpt>
      <trkpt lat="42.95241956" lon="-2.31576279"><ele>1055</ele><speed>10.83</speed><time>2017-03-19T15:15:59Z</time><pdop>5.0</pdop><geoidheight>0.00</geoidheight><course>178.2</course><type>1</type></trkpt>
      <trkpt lat="42.95232837" lon="-2.31576849"><ele>1055</ele><speed>10.11</speed><time>2017-03-19T15:16:00Z</time><pdop>5.0</pdop><geoidheight>0.00</geoidheight><course>182.0</course><type>1</type></trkpt>
      <trkpt lat="42.95223575" lon="-2.31576913"><ele>1054</ele><speed>10.24</speed><time>2017-03-19T15:16:01Z</time><pdop>5.0</pdop><geoidheight>0.00</geoidheight><course>180.0</course><type>1</type></trkpt>
      <trkpt lat="42.95213335" lon="-2.31576109"><ele>1053</ele><speed>11.09</speed><time>2017-03-19T15:16:02Z</time><pdop>4.0</pdop><geoidheight>0.00</geoidheight><course>176.1</course><type>1</type></trkpt>
      <trkpt lat="42.9520239" lon="-2.31575648"><ele>1053</ele><speed>11.68</speed><time>2017-03-19T15:16:03Z</time><pdop>4.0</pdop><geoidheight>0.00</geoidheight><course>175.7</course><type>1</type></trkpt>
      <trkpt lat="42.95191819" lon="-2.3157472"><ele>1053</ele><speed>11.68</speed><time>2017-03-19T15:16:04Z</time><pdop>4.0</pdop><geoidheight>0.00</geoidheight><course>176.0</course><type>1</type></trkpt>
      <trkpt lat="42.95181799" lon="-2.31573962"><ele>1053</ele><speed>11.18</speed><time>2017-03-19T15:16:05Z</time><pdop>4.0</pdop><geoidheight>0.00</geoidheight><course>176.6</course><type>1</type></trkpt>
      <trkpt lat="42.95172396" lon="-2.31573305"><ele>1053</ele><speed>10.65</speed><time>2017-03-19T15:16:06Z</time><pdop>4.0</pdop><geoidheight>0.00</geoidheight><course>176.0</course><type>1</type></trkpt>
      <trkpt lat="42.95162958" lon="-2.31573222"><ele>1052</ele><speed>10.04</speed><time>2017-03-19T15:16:07Z</time><pdop>4.0</pdop><geoidheight>0.00</geoidheight><course>177.8</course><type>1</type></trkpt>
      <trkpt lat="42.95153001" lon="-2.31573061"><ele>1052</ele><speed>10.43</speed><time>2017-03-19T15:16:08Z</time><pdop>5.0</pdop><geoidheight>0.00</geoidheight><course>177.9</course><type>1</type></trkpt>
      <trkpt lat="42.95143387" lon="-2.31571876"><ele>1052</ele><speed>10.84</speed><time>2017-03-19T15:16:09Z</time><pdop>5.0</pdop><geoidheight>0.00</geoidheight><course>175.4</course><type>1</type></trkpt>
      <trkpt lat="42.95133146" lon="-2.31570616"><ele>1051</ele><speed>10.99</speed><time>2017-03-19T15:16:10Z</time><pdop>5.0</pdop><geoidheight>0.00</geoidheight><course>173.9</course><type>1</type></trkpt>
      <trkpt lat="42.95122816" lon="-2.31569326"><ele>1051</ele><speed>11.20</speed><time>2017-03-19T15:16:11Z</time><pdop>6.0</pdop><geoidheight>0.00</geoidheight><course>168.4</course><type>1</type></trkpt>
      <trkpt lat="42.95105125" lon="-2.31564646"><ele>1050</ele><speed>10.15</speed><time>2017-03-19T15:16:13Z</time><pdop>5.0</pdop><geoidheight>0.00</geoidheight><course>168.0</course><type>1</type></trkpt>
      <trkpt lat="42.95095887" lon="-2.31561717"><ele>1049</ele><speed>10.51</speed><time>2017-03-19T15:16:14Z</time><pdop>5.0</pdop><geoidheight>0.00</geoidheight><course>164.8</course><type>1</type></trkpt>
      <trkpt lat="42.95087051" lon="-2.31558035"><ele>1048</ele><speed>10.53</speed><time>2017-03-19T15:16:15Z</time><pdop>4.0</pdop><geoidheight>0.00</geoidheight><course>162.6</course><type>1</type></trkpt>
      <trkpt lat="42.95078208" lon="-2.31552641"><ele>1047</ele><speed>10.88</speed><time>2017-03-19T15:16:16Z</time><pdop>4.0</pdop><geoidheight>0.00</geoidheight><course>158.9</course><type>1</type></trkpt>
      <trkpt lat="42.95068837" lon="-2.31546763"><ele>1046</ele><speed>11.16</speed><time>2017-03-19T15:16:17Z</time><pdop>4.0</pdop><geoidheight>0.00</geoidheight><course>155.3</course><type>1</type></trkpt>
      <trkpt lat="42.95060299" lon="-2.31540337"><ele>1046</ele><speed>11.10</speed><time>2017-03-19T15:16:18Z</time><pdop>4.0</pdop><geoidheight>0.00</geoidheight><course>153.1</course><type>1</type></trkpt>
      <trkpt lat="42.95050586" lon="-2.31528523"><ele>1046</ele><speed>10.60</speed><time>2017-03-19T15:16:19Z</time><pdop>3.0</pdop><geoidheight>0.00</geoidheight><course>150.3</course><type>1</type></trkpt>
      <trkpt lat="42.95041524" lon="-2.3151974"><ele>1046</ele><speed>10.14</speed><time>2017-03-19T15:16:20Z</time><pdop>4.0</pdop><geoidheight>0.00</geoidheight><course>148.5</course><type>1</type></trkpt>
      <trkpt lat="42.95033879" lon="-2.31512169"><ele>1046</ele><speed>9.91</speed><time>2017-03-19T15:16:21Z</time><pdop>3.0</pdop><geoidheight>0.00</geoidheight><course>144.6</course><type>1</type></trkpt>
      <trkpt lat="42.95026545" lon="-2.3150467"><ele>1045</ele><speed>9.86</speed><time>2017-03-19T15:16:22Z</time><pdop>3.0</pdop><geoidheight>0.00</geoidheight><course>141.2</course><type>1</type></trkpt>
      <trkpt lat="42.9501916" lon="-2.31495516"><ele>1044</ele><speed>10.02</speed><time>2017-03-19T15:16:23Z</time><pdop>3.0</pdop><geoidheight>0.00</geoidheight><course>138.7</course><type>1</type></trkpt>
      <trkpt lat="42.9501213" lon="-2.31485563"><ele>1043</ele><speed>10.09</speed><time>2017-03-19T15:16:24Z</time><pdop>3.0</pdop><geoidheight>0.00</geoidheight><course>137.5</course><type>1</type></trkpt>
      <trkpt lat="42.95006037" lon="-2.3147686"><ele>1043</ele><speed>10.03</speed><time>2017-03-19T15:16:25Z</time><pdop>3.0</pdop><geoidheight>0.00</geoidheight><course>134.8</course><type>1</type></trkpt>
      <trkpt lat="42.95000006" lon="-2.31467831"><ele>1042</ele><speed>9.98</speed><time>2017-03-19T15:16:26Z</time><pdop>3.0</pdop><geoidheight>0.00</geoidheight><course>130.9</course><type>1</type></trkpt>
      <trkpt lat="42.9499515" lon="-2.31458873"><ele>1042</ele><speed>9.79</speed><time>2017-03-19T15:16:27Z</time><pdop>3.0</pdop><geoidheight>0.00</geoidheight><course>129.0</course><type>1</type></trkpt>
      <trkpt lat="42.94990311" lon="-2.31448868"><ele>1043</ele><speed>9.37</speed><time>2017-03-19T15:16:28Z</time><pdop>3.0</pdop><geoidheight>0.00</geoidheight><course>125.6</course><type>1</type></trkpt>
      <trkpt lat="42.94986396" lon="-2.31439068"><ele>1043</ele><speed>9.24</speed><time>2017-03-19T15:16:29Z</time><pdop>3.0</pdop><geoidheight>0.00</geoidheight><course>119.6</course><type>1</type></trkpt>
      <trkpt lat="42.94983257" lon="-2.31428603"><ele>1044</ele><speed>8.85</speed><time>2017-03-19T15:16:30Z</time><pdop>3.0</pdop><geoidheight>0.00</geoidheight><course>115.9</course><type>1</type></trkpt>
      <trkpt lat="42.94981809" lon="-2.31417838"><ele>1045</ele><speed>8.50</speed><time>2017-03-19T15:16:31Z</time><pdop>3.0</pdop><geoidheight>0.00</geoidheight><course>106.2</course><type>1</type></trkpt>
      <trkpt lat="42.9498014" lon="-2.3140823"><ele>1046</ele><speed>8.23</speed><time>2017-03-19T15:16:32Z</time><pdop>3.0</pdop><geoidheight>0.00</geoidheight><course>108.4</course><type>1</type></trkpt>
      <trkpt lat="42.94976421" lon="-2.31400417"><ele>1047</ele><speed>7.91</speed><time>2017-03-19T15:16:33Z</time><pdop>3.0</pdop><geoidheight>0.00</geoidheight><course>120.2</course><type>1</type></trkpt>
      <trkpt lat="42.9497145" lon="-2.31392701"><ele>1046</ele><speed>8.45</speed><time>2017-03-19T15:16:34Z</time><pdop>3.0</pdop><geoidheight>0.00</geoidheight><course>130.9</course><type>1</type></trkpt>
      <trkpt lat="42.94964866" lon="-2.31386347"><ele>1045</ele><speed>9.01</speed><time>2017-03-19T15:16:35Z</time><pdop>3.0</pdop><geoidheight>0.00</geoidheight><course>142.2</course><type>1</type></trkpt>
      <trkpt lat="42.9495802" lon="-2.31380137"><ele>1043</ele><speed>9.36</speed><time>2017-03-19T15:16:36Z</time><pdop>3.0</pdop><geoidheight>0.00</geoidheight><course>145.6</course><type>1</type></trkpt>
      <trkpt lat="42.94951675" lon="-2.31373233"><ele>1042</ele><speed>9.30</speed><time>2017-03-19T15:16:37Z</time><pdop>3.0</pdop><geoidheight>0.00</geoidheight><course>142.5</course><type>1</type></trkpt>
      <trkpt lat="42.94944331" lon="-2.31363788"><ele>1042</ele><speed>10.30</speed><time>2017-03-19T15:16:38Z</time><pdop>3.0</pdop><geoidheight>0.00</geoidheight><course>140.8</course><type>1</type></trkpt>
      <trkpt lat="42.94937849" lon="-2.31354554"><ele>1042</ele><speed>10.53</speed><time>2017-03-19T15:16:39Z</time><pdop>3.0</pdop><geoidheight>0.00</geoidheight><course>135.1</course><type>1</type></trkpt>
      <trkpt lat="42.9493213" lon="-2.31345966"><ele>1041</ele><speed>9.75</speed><time>2017-03-19T15:16:40Z</time><pdop>3.0</pdop><geoidheight>0.00</geoidheight><course>132.1</course><type>1</type></trkpt>
      <trkpt lat="42.94928902" lon="-2.31336572"><ele>1041</ele><speed>8.33</speed><time>2017-03-19T15:16:41Z</time><pdop>3.0</pdop><geoidheight>0.00</geoidheight><course>120.9</course><type>1</type></trkpt>
      <trkpt lat="42.94925573" lon="-2.31330638"><ele>1041</ele><speed>6.95</speed><time>2017-03-19T15:16:42Z</time><pdop>3.0</pdop><geoidheight>0.00</geoidheight><course>120.9</course><type>1</type></trkpt>
      <trkpt lat="42.94922366" lon="-2.31323023"><ele>1041</ele><speed>7.30</speed><time>2017-03-19T15:16:43Z</time><pdop>3.0</pdop><geoidheight>0.00</geoidheight><course>119.8</course><type>1</type></trkpt>
      <trkpt lat="42.9491909" lon="-2.3131437"><ele>1040</ele><speed>8.13</speed><time>2017-03-19T15:16:44Z</time><pdop>3.0</pdop><geoidheight>0.00</geoidheight><course>119.1</course><type>1</type></trkpt>
      <trkpt lat="42.94915895" lon="-2.31304602"><ele>1040</ele><speed>8.74</speed><time>2017-03-19T15:16:45Z</time><pdop>3.0</pdop><geoidheight>0.00</geoidheight><course>117.2</course><type>1</type></trkpt>
      <trkpt lat="42.94912772" lon="-2.31294347"><ele>1040</ele><speed>8.59</speed><time>2017-03-19T15:16:46Z</time><pdop>3.0</pdop><geoidheight>0.00</geoidheight><course>113.8</course><type>1</type></trkpt>
      <trkpt lat="42.94909304" lon="-2.31284915"><ele>1041</ele><speed>8.49</speed><time>2017-03-19T15:16:47Z</time><pdop>3.0</pdop><geoidheight>0.00</geoidheight><course>116.1</course><type>1</type></trkpt>
      <trkpt lat="42.94904894" lon="-2.31275737"><ele>1041</ele><speed>8.71</speed><time>2017-03-19T15:16:48Z</time><pdop>3.0</pdop><geoidheight>0.00</geoidheight><course>125.3</course><type>1</type></trkpt>
      <trkpt lat="42.94898656" lon="-2.3126748"><ele>1041</ele><speed>9.31</speed><time>2017-03-19T15:16:49Z</time><pdop>3.0</pdop><geoidheight>0.00</geoidheight><course>134.4</course><type>1</type></trkpt>
      <trkpt lat="42.94892829" lon="-2.31259753"><ele>1040</ele><speed>9.10</speed><time>2017-03-19T15:16:50Z</time><pdop>3.0</pdop><geoidheight>0.00</geoidheight><course>134.7</course><type>1</type></trkpt>
      <trkpt lat="42.9488884" lon="-2.31251415"><ele>1040</ele><speed>8.07</speed><time>2017-03-19T15:16:51Z</time><pdop>3.0</pdop><geoidheight>0.00</geoidheight><course>123.3</course><type>1</type></trkpt>
      <trkpt lat="42.94887506" lon="-2.31243808"><ele>1039</ele><speed>6.80</speed><time>2017-03-19T15:16:52Z</time><pdop>3.0</pdop><geoidheight>0.00</geoidheight><course>100.3</course><type>1</type></trkpt>
      <trkpt lat="42.94892242" lon="-2.31230868"><ele>1039</ele><speed>5.92</speed><time>2017-03-19T15:16:54Z</time><pdop>3.0</pdop><geoidheight>0.00</geoidheight><course>57.8</course><type>1</type></trkpt>
      <trkpt lat="42.94895644" lon="-2.31220562"><ele>1040</ele><speed>4.66</speed><time>2017-03-19T15:16:56Z</time><pdop>3.0</pdop><geoidheight>0.00</geoidheight><course>66.2</course><type>1</type></trkpt>
      <trkpt lat="42.94898018" lon="-2.31205814"><ele>1038</ele><speed>6.19</speed><time>2017-03-19T15:16:58Z</time><pdop>3.0</pdop><geoidheight>0.00</geoidheight><course>84.9</course><type>1</type></trkpt>
      <trkpt lat="42.9489776" lon="-2.31196839"><ele>1038</ele><speed>7.00</speed><time>2017-03-19T15:16:59Z</time><pdop>3.0</pdop><geoidheight>0.00</geoidheight><course>91.9</course><type>1</type></trkpt>
      <trkpt lat="42.94897388" lon="-2.31188571"><ele>1037</ele><speed>7.25</speed><time>2017-03-19T15:17:00Z</time><pdop>3.0</pdop><geoidheight>0.00</geoidheight><course>95.3</course><type>1</type></trkpt>
      <trkpt lat="42.94896409" lon="-2.31179583"><ele>1036</ele><speed>7.52</speed><time>2017-03-19T15:17:01Z</time><pdop>3.0</pdop><geoidheight>0.00</geoidheight><course>96.7</course><type>1</type></trkpt>
      <trkpt lat="42.94895662" lon="-2.31170666"><ele>1035</ele><speed>7.55</speed><time>2017-03-19T15:17:02Z</time><pdop>3.0</pdop><geoidheight>0.00</geoidheight><course>98.3</course><type>1</type></trkpt>
      <trkpt lat="42.94894682" lon="-2.31161801"><ele>1034</ele><speed>7.50</speed><time>2017-03-19T15:17:03Z</time><pdop>3.0</pdop><geoidheight>0.00</geoidheight><course>98.8</course><type>1</type></trkpt>
      <trkpt lat="42.94893285" lon="-2.31152503"><ele>1034</ele><speed>7.80</speed><time>2017-03-19T15:17:04Z</time><pdop>3.0</pdop><geoidheight>0.00</geoidheight><course>99.6</course><type>1</type></trkpt>
      <trkpt lat="42.94892096" lon="-2.31142476"><ele>1033</ele><speed>8.11</speed><time>2017-03-19T15:17:05Z</time><pdop>3.0</pdop><geoidheight>0.00</geoidheight><course>99.3</course><type>1</type></trkpt>
      <trkpt lat="42.9489077" lon="-2.31131469"><ele>1033</ele><speed>8.84</speed><time>2017-03-19T15:17:06Z</time><pdop>4.0</pdop><geoidheight>0.00</geoidheight><course>99.5</course><type>1</type></trkpt>
      <trkpt lat="42.94890507" lon="-2.3112113"><ele>1034</ele><speed>8.36</speed><time>2017-03-19T15:17:07Z</time><pdop>4.0</pdop><geoidheight>0.00</geoidheight><course>93.2</course><type>1</type></trkpt>
      <trkpt lat="42.94889706" lon="-2.31104312"><ele>1034</ele><speed>6.85</speed><time>2017-03-19T15:17:09Z</time><pdop>4.0</pdop><geoidheight>0.00</geoidheight><course>90.6</course><type>1</type></trkpt>
      <trkpt lat="42.948904" lon="-2.31087575"><ele>1033</ele><speed>7.09</speed><time>2017-03-19T15:17:11Z</time><pdop>3.0</pdop><geoidheight>0.00</geoidheight><course>86.3</course><type>1</type></trkpt>
      <trkpt lat="42.94890627" lon="-2.31078444"><ele>1033</ele><speed>7.41</speed><time>2017-03-19T15:17:12Z</time><pdop>4.0</pdop><geoidheight>0.00</geoidheight><course>87.0</course><type>1</type></trkpt>
      <trkpt lat="42.94890123" lon="-2.31062225"><ele>1033</ele><speed>6.74</speed><time>2017-03-19T15:17:14Z</time><pdop>3.0</pdop><geoidheight>0.00</geoidheight><course>93.0</course><type>1</type></trkpt>
      <trkpt lat="42.94889748" lon="-2.31054628"><ele>1032</ele><speed>6.74</speed><time>2017-03-19T15:17:15Z</time><pdop>3.0</pdop><geoidheight>0.00</geoidheight><course>93.3</course><type>1</type></trkpt>
      <trkpt lat="42.94889218" lon="-2.31045733"><ele>1031</ele><speed>7.29</speed><time>2017-03-19T15:17:16Z</time><pdop>3.0</pdop><geoidheight>0.00</geoidheight><course>92.6</course><type>1</type></trkpt>
      <trkpt lat="42.94888266" lon="-2.31035869"><ele>1031</ele><speed>8.11</speed><time>2017-03-19T15:17:17Z</time><pdop>3.0</pdop><geoidheight>0.00</geoidheight><course>95.4</course><type>1</type></trkpt>
      <trkpt lat="42.94886824" lon="-2.31025919"><ele>1030</ele><speed>8.23</speed><time>2017-03-19T15:17:18Z</time><pdop>3.0</pdop><geoidheight>0.00</geoidheight><course>98.1</course><type>1</type></trkpt>
      <trkpt lat="42.94885004" lon="-2.31016129"><ele>1030</ele><speed>8.05</speed><time>2017-03-19T15:17:19Z</time><pdop>3.0</pdop><geoidheight>0.00</geoidheight><course>102.3</course><type>1</type></trkpt>
      <trkpt lat="42.94883855" lon="-2.31007357"><ele>1029</ele><speed>8.08</speed><time>2017-03-19T15:17:20Z</time><pdop>3.0</pdop><geoidheight>0.00</geoidheight><course>105.9</course><type>1</type></trkpt>
      <trkpt lat="42.94881687" lon="-2.30996577"><ele>1029</ele><speed>8.46</speed><time>2017-03-19T15:17:21Z</time><pdop>4.0</pdop><geoidheight>0.00</geoidheight><course>105.6</course><type>1</type></trkpt>
      <trkpt lat="42.94880356" lon="-2.30986504"><ele>1028</ele><speed>8.90</speed><time>2017-03-19T15:17:22Z</time><pdop>3.0</pdop><geoidheight>0.00</geoidheight><course>102.4</course><type>1</type></trkpt>
      <trkpt lat="42.94878508" lon="-2.30975686"><ele>1027</ele><speed>9.06</speed><time>2017-03-19T15:17:23Z</time><pdop>4.0</pdop><geoidheight>0.00</geoidheight><course>100.9</course><type>1</type></trkpt>
      <trkpt lat="42.94876616" lon="-2.30965433"><ele>1027</ele><speed>8.70</speed><time>2017-03-19T15:17:24Z</time><pdop>4.0</pdop><geoidheight>0.00</geoidheight><course>103.9</course><type>1</type></trkpt>
      <trkpt lat="42.94874333" lon="-2.30954499"><ele>1028</ele><speed>8.61</speed><time>2017-03-19T15:17:25Z</time><pdop>4.0</pdop><geoidheight>0.00</geoidheight><course>109.4</course><type>1</type></trkpt>
      <trkpt lat="42.9487155" lon="-2.3094388"><ele>1027</ele><speed>8.89</speed><time>2017-03-19T15:17:26Z</time><pdop>4.0</pdop><geoidheight>0.00</geoidheight><course>112.4</course><type>1</type></trkpt>
      <trkpt lat="42.94868304" lon="-2.30932812"><ele>1027</ele><speed>9.24</speed><time>2017-03-19T15:17:27Z</time><pdop>4.0</pdop><geoidheight>0.00</geoidheight><course>112.1</course><type>1</type></trkpt>
      <trkpt lat="42.94865143" lon="-2.30920995"><ele>1028</ele><speed>9.68</speed><time>2017-03-19T15:17:28Z</time><pdop>4.0</pdop><geoidheight>0.00</geoidheight><course>112.0</course><type>1</type></trkpt>
      <trkpt lat="42.9486152" lon="-2.3091038"><ele>1027</ele><speed>9.52</speed><time>2017-03-19T15:17:29Z</time><pdop>3.0</pdop><geoidheight>0.00</geoidheight><course>113.8</course><type>1</type></trkpt>
      <trkpt lat="42.94857477" lon="-2.3090004"><ele>1028</ele><speed>9.07</speed><time>2017-03-19T15:17:30Z</time><pdop>3.0</pdop><geoidheight>0.00</geoidheight><course>117.3</course><type>1</type></trkpt>
      <trkpt lat="42.94854328" lon="-2.30890499"><ele>1027</ele><speed>8.52</speed><time>2017-03-19T15:17:31Z</time><pdop>3.0</pdop><geoidheight>0.00</geoidheight><course>118.8</course><type>1</type></trkpt>
      <trkpt lat="42.94851392" lon="-2.30880624"><ele>1026</ele><speed>8.74</speed><time>2017-03-19T15:17:32Z</time><pdop>3.0</pdop><geoidheight>0.00</geoidheight><course>113.8</course><type>1</type></trkpt>
      <trkpt lat="42.94848722" lon="-2.30869365"><ele>1025</ele><speed>9.38</speed><time>2017-03-19T15:17:33Z</time><pdop>3.0</pdop><geoidheight>0.00</geoidheight><course>110.7</course><type>1</type></trkpt>
      <trkpt lat="42.94846011" lon="-2.30858381"><ele>1025</ele><speed>9.63</speed><time>2017-03-19T15:17:34Z</time><pdop>3.0</pdop><geoidheight>0.00</geoidheight><course>108.5</course><type>1</type></trkpt>
      <trkpt lat="42.94843493" lon="-2.3084764"><ele>1025</ele><speed>8.95</speed><time>2017-03-19T15:17:35Z</time><pdop>3.0</pdop><geoidheight>0.00</geoidheight><course>110.6</course><type>1</type></trkpt>
      <trkpt lat="42.94840504" lon="-2.30838597"><ele>1025</ele><speed>8.15</speed><time>2017-03-19T15:17:36Z</time><pdop>3.0</pdop><geoidheight>0.00</geoidheight><course>114.9</course><type>1</type></trkpt>
      <trkpt lat="42.94837103" lon="-2.30829944"><ele>1025</ele><speed>8.19</speed><time>2017-03-19T15:17:37Z</time><pdop>4.0</pdop><geoidheight>0.00</geoidheight><course>116.1</course><type>1</type></trkpt>
      <trkpt lat="42.94833466" lon="-2.30820199"><ele>1024</ele><speed>8.84</speed><time>2017-03-19T15:17:38Z</time><pdop>3.0</pdop><geoidheight>0.00</geoidheight><course>112.8</course><type>1</type></trkpt>
      <trkpt lat="42.94830688" lon="-2.30808875"><ele>1022</ele><speed>9.71</speed><time>2017-03-19T15:17:39Z</time><pdop>3.0</pdop><geoidheight>0.00</geoidheight><course>108.8</course><type>1</type></trkpt>
      <trkpt lat="42.94827916" lon="-2.30797007"><ele>1022</ele><speed>9.86</speed><time>2017-03-19T15:17:40Z</time><pdop>3.0</pdop><geoidheight>0.00</geoidheight><course>107.9</course><type>1</type></trkpt>
      <trkpt lat="42.94825243" lon="-2.30785469"><ele>1021</ele><speed>9.65</speed><time>2017-03-19T15:17:41Z</time><pdop>3.0</pdop><geoidheight>0.00</geoidheight><course>112.0</course><type>1</type></trkpt>
      <trkpt lat="42.94822475" lon="-2.30775236"><ele>1018</ele><speed>9.47</speed><time>2017-03-19T15:17:42Z</time><pdop>3.0</pdop><geoidheight>0.00</geoidheight><course>116.9</course><type>1</type></trkpt>
      <trkpt lat="42.94818659" lon="-2.30764949"><ele>1017</ele><speed>9.46</speed><time>2017-03-19T15:17:43Z</time><pdop>3.0</pdop><geoidheight>0.00</geoidheight><course>118.6</course><type>1</type></trkpt>
      <trkpt lat="42.94814472" lon="-2.30754314"><ele>1015</ele><speed>9.91</speed><time>2017-03-19T15:17:44Z</time><pdop>3.0</pdop><geoidheight>0.00</geoidheight><course>117.6</course><type>1</type></trkpt>
      <trkpt lat="42.94810257" lon="-2.30742981"><ele>1014</ele><speed>10.47</speed><time>2017-03-19T15:17:45Z</time><pdop>3.0</pdop><geoidheight>0.00</geoidheight><course>116.6</course><type>1</type></trkpt>
      <trkpt lat="42.94806373" lon="-2.30731158"><ele>1013</ele><speed>10.56</speed><time>2017-03-19T15:17:46Z</time><pdop>3.0</pdop><geoidheight>0.00</geoidheight><course>116.3</course><type>1</type></trkpt>
      <trkpt lat="42.94801992" lon="-2.30719329"><ele>1012</ele><speed>10.46</speed><time>2017-03-19T15:17:47Z</time><pdop>3.0</pdop><geoidheight>0.00</geoidheight><course>117.9</course><type>1</type></trkpt>
      <trkpt lat="42.94798102" lon="-2.3070834"><ele>1012</ele><speed>10.11</speed><time>2017-03-19T15:17:48Z</time><pdop>3.0</pdop><geoidheight>0.00</geoidheight><course>118.3</course><type>1</type></trkpt>
      <trkpt lat="42.94794351" lon="-2.30697224"><ele>1011</ele><speed>9.88</speed><time>2017-03-19T15:17:49Z</time><pdop>3.0</pdop><geoidheight>0.00</geoidheight><course>116.6</course><type>1</type></trkpt>
      <trkpt lat="42.94790925" lon="-2.30686278"><ele>1010</ele><speed>9.85</speed><time>2017-03-19T15:17:50Z</time><pdop>3.0</pdop><geoidheight>0.00</geoidheight><course>114.2</course><type>1</type></trkpt>
      <trkpt lat="42.94787444" lon="-2.30674967"><ele>1008</ele><speed>9.87</speed><time>2017-03-19T15:17:51Z</time><pdop>3.0</pdop><geoidheight>0.00</geoidheight><course>113.0</course><type>1</type></trkpt>
      <trkpt lat="42.94783955" lon="-2.30663477"><ele>1007</ele><speed>9.92</speed><time>2017-03-19T15:17:52Z</time><pdop>3.0</pdop><geoidheight>0.00</geoidheight><course>112.2</course><type>1</type></trkpt>
      <trkpt lat="42.94781005" lon="-2.3065264"><ele>1006</ele><speed>9.53</speed><time>2017-03-19T15:17:53Z</time><pdop>3.0</pdop><geoidheight>0.00</geoidheight><course>110.8</course><type>1</type></trkpt>
      <trkpt lat="42.94778536" lon="-2.30642146"><ele>1005</ele><speed>9.00</speed><time>2017-03-19T15:17:54Z</time><pdop>3.0</pdop><geoidheight>0.00</geoidheight><course>106.6</course><type>1</type></trkpt>
      <trkpt lat="42.94776476" lon="-2.30632169"><ele>1005</ele><speed>8.65</speed><time>2017-03-19T15:17:55Z</time><pdop>3.0</pdop><geoidheight>0.00</geoidheight><course>106.1</course><type>1</type></trkpt>
      <trkpt lat="42.94773855" lon="-2.30621248"><ele>1003</ele><speed>8.86</speed><time>2017-03-19T15:17:56Z</time><pdop>3.0</pdop><geoidheight>0.00</geoidheight><course>107.1</course><type>1</type></trkpt>
      <trkpt lat="42.94771278" lon="-2.30610125"><ele>1002</ele><speed>9.34</speed><time>2017-03-19T15:17:57Z</time><pdop>3.0</pdop><geoidheight>0.00</geoidheight><course>107.6</course><type>1</type></trkpt>
      <trkpt lat="42.94768" lon="-2.30599165"><ele>1001</ele><speed>9.59</speed><time>2017-03-19T15:17:58Z</time><pdop>3.0</pdop><geoidheight>0.00</geoidheight><course>109.8</course><type>1</type></trkpt>
      <trkpt lat="42.94765403" lon="-2.30588177"><ele>1000</ele><speed>9.50</speed><time>2017-03-19T15:17:59Z</time><pdop>3.0</pdop><geoidheight>0.00</geoidheight><course>107.9</course><type>1</type></trkpt>
      <trkpt lat="42.94763553" lon="-2.30577647"><ele>998</ele><speed>8.97</speed><time>2017-03-19T15:18:00Z</time><pdop>3.0</pdop><geoidheight>0.00</geoidheight><course>103.1</course><type>1</type></trkpt>
      <trkpt lat="42.94762037" lon="-2.3056757"><ele>997</ele><speed>8.48</speed><time>2017-03-19T15:18:01Z</time><pdop>3.0</pdop><geoidheight>0.00</geoidheight><course>99.7</course><type>1</type></trkpt>
      <trkpt lat="42.94760839" lon="-2.30557898"><ele>995</ele><speed>8.22</speed><time>2017-03-19T15:18:02Z</time><pdop>3.0</pdop><geoidheight>0.00</geoidheight><course>98.7</course><type>1</type></trkpt>
      <trkpt lat="42.94759463" lon="-2.30548586"><ele>994</ele><speed>8.23</speed><time>2017-03-19T15:18:03Z</time><pdop>3.0</pdop><geoidheight>0.00</geoidheight><course>99.7</course><type>1</type></trkpt>
      <trkpt lat="42.94758426" lon="-2.30537634"><ele>993</ele><speed>8.58</speed><time>2017-03-19T15:18:04Z</time><pdop>3.0</pdop><geoidheight>0.00</geoidheight><course>100.1</course><type>1</type></trkpt>
      <trkpt lat="42.94756617" lon="-2.30526606"><ele>992</ele><speed>8.85</speed><time>2017-03-19T15:18:05Z</time><pdop>3.0</pdop><geoidheight>0.00</geoidheight><course>101.5</course><type>1</type></trkpt>
      <trkpt lat="42.94754341" lon="-2.3051572"><ele>992</ele><speed>9.21</speed><time>2017-03-19T15:18:06Z</time><pdop>3.0</pdop><geoidheight>0.00</geoidheight><course>105.3</course><type>1</type></trkpt>
      <trkpt lat="42.947515" lon="-2.3050494"><ele>991</ele><speed>9.47</speed><time>2017-03-19T15:18:07Z</time><pdop>3.0</pdop><geoidheight>0.00</geoidheight><course>109.3</course><type>1</type></trkpt>
      <trkpt lat="42.94748939" lon="-2.30494322"><ele>991</ele><speed>9.01</speed><time>2017-03-19T15:18:08Z</time><pdop>3.0</pdop><geoidheight>0.00</geoidheight><course>106.0</course><type>1</type></trkpt>
      <trkpt lat="42.94747538" lon="-2.30484446"><ele>991</ele><speed>8.72</speed><time>2017-03-19T15:18:09Z</time><pdop>3.0</pdop><geoidheight>0.00</geoidheight><course>101.6</course><type>1</type></trkpt>
      <trkpt lat="42.94745764" lon="-2.30474021"><ele>990</ele><speed>8.88</speed><time>2017-03-19T15:18:10Z</time><pdop>3.0</pdop><geoidheight>0.00</geoidheight><course>102.7</course><type>1</type></trkpt>
      <trkpt lat="42.94743171" lon="-2.30462472"><ele>989</ele><speed>9.32</speed><time>2017-03-19T15:18:11Z</time><pdop>3.0</pdop><geoidheight>0.00</geoidheight><course>107.1</course><type>1</type></trkpt>
      <trkpt lat="42.94739885" lon="-2.30450688"><ele>989</ele><speed>9.87</speed><time>2017-03-19T15:18:12Z</time><pdop>3.0</pdop><geoidheight>0.00</geoidheight><course>110.5</course><type>1</type></trkpt>
      <trkpt lat="42.94737339" lon="-2.30439677"><ele>986</ele><speed>9.98</speed><time>2017-03-19T15:18:13Z</time><pdop>3.0</pdop><geoidheight>0.00</geoidheight><course>111.8</course><type>1</type></trkpt>
      <trkpt lat="42.94733814" lon="-2.3042857"><ele>986</ele><speed>9.60</speed><time>2017-03-19T15:18:14Z</time><pdop>3.0</pdop><geoidheight>0.00</geoidheight><course>114.3</course><type>1</type></trkpt>
      <trkpt lat="42.94730643" lon="-2.30418179"><ele>984</ele><speed>9.50</speed><time>2017-03-19T15:18:15Z</time><pdop>3.0</pdop><geoidheight>0.00</geoidheight><course>114.1</course><type>1</type></trkpt>
      <trkpt lat="42.94728831" lon="-2.30406285"><ele>980</ele><speed>10.19</speed><time>2017-03-19T15:18:16Z</time><pdop>3.0</pdop><geoidheight>0.00</geoidheight><course>111.7</course><type>1</type></trkpt>
      <trkpt lat="42.94724122" lon="-2.30393496"><ele>980</ele><speed>11.08</speed><time>2017-03-19T15:18:17Z</time><pdop>3.0</pdop><geoidheight>0.00</geoidheight><course>114.3</course><type>1</type></trkpt>
      <trkpt lat="42.9471913" lon="-2.30380942"><ele>979</ele><speed>11.64</speed><time>2017-03-19T15:18:18Z</time><pdop>3.0</pdop><geoidheight>0.00</geoidheight><course>118.6</course><type>1</type></trkpt>
      <trkpt lat="42.94714381" lon="-2.30368884"><ele>979</ele><speed>11.21</speed><time>2017-03-19T15:18:19Z</time><pdop>3.0</pdop><geoidheight>0.00</geoidheight><course>120.3</course><type>1</type></trkpt>
      <trkpt lat="42.94709524" lon="-2.30357766"><ele>978</ele><speed>10.64</speed><time>2017-03-19T15:18:20Z</time><pdop>3.0</pdop><geoidheight>0.00</geoidheight><course>123.3</course><type>1</type></trkpt>
      <trkpt lat="42.94704725" lon="-2.30348322"><ele>978</ele><speed>9.89</speed><time>2017-03-19T15:18:21Z</time><pdop>3.0</pdop><geoidheight>0.00</geoidheight><course>127.1</course><type>1</type></trkpt>
      <trkpt lat="42.94699226" lon="-2.30339568"><ele>976</ele><speed>9.76</speed><time>2017-03-19T15:18:22Z</time><pdop>3.0</pdop><geoidheight>0.00</geoidheight><course>131.5</course><type>1</type></trkpt>
      <trkpt lat="42.94692811" lon="-2.30330441"><ele>975</ele><speed>10.13</speed><time>2017-03-19T15:18:23Z</time><pdop>3.0</pdop><geoidheight>0.00</geoidheight><course>134.7</course><type>1</type></trkpt>
      <trkpt lat="42.94686572" lon="-2.30321531"><ele>972</ele><speed>10.49</speed><time>2017-03-19T15:18:24Z</time><pdop>3.0</pdop><geoidheight>0.00</geoidheight><course>134.9</course><type>1</type></trkpt>
      <trkpt lat="42.94679979" lon="-2.30311795"><ele>970</ele><speed>11.07</speed><time>2017-03-19T15:18:25Z</time><pdop>3.0</pdop><geoidheight>0.00</geoidheight><course>131.0</course><type>1</type></trkpt>
      <trkpt lat="42.94673703" lon="-2.30301011"><ele>968</ele><speed>11.34</speed><time>2017-03-19T15:18:26Z</time><pdop>3.0</pdop><geoidheight>0.00</geoidheight><course>128.5</course><type>1</type></trkpt>
      <trkpt lat="42.94667684" lon="-2.30289956"><ele>966</ele><speed>11.18</speed><time>2017-03-19T15:18:27Z</time><pdop>3.0</pdop><geoidheight>0.00</geoidheight><course>128.8</course><type>1</type></trkpt>
      <trkpt lat="42.94661571" lon="-2.30279237"><ele>965</ele><speed>11.02</speed><time>2017-03-19T15:18:28Z</time><pdop>3.0</pdop><geoidheight>0.00</geoidheight><course>128.5</course><type>1</type></trkpt>
      <trkpt lat="42.94655411" lon="-2.30268728"><ele>963</ele><speed>11.07</speed><time>2017-03-19T15:18:29Z</time><pdop>3.0</pdop><geoidheight>0.00</geoidheight><course>128.4</course><type>1</type></trkpt>
      <trkpt lat="42.94649207" lon="-2.30257418"><ele>962</ele><speed>11.37</speed><time>2017-03-19T15:18:30Z</time><pdop>3.0</pdop><geoidheight>0.00</geoidheight><course>127.8</course><type>1</type></trkpt>
      <trkpt lat="42.94643002" lon="-2.30246292"><ele>960</ele><speed>11.43</speed><time>2017-03-19T15:18:31Z</time><pdop>3.0</pdop><geoidheight>0.00</geoidheight><course>126.2</course><type>1</type></trkpt>
      <trkpt lat="42.94637441" lon="-2.30234047"><ele>960</ele><speed>11.13</speed><time>2017-03-19T15:18:32Z</time><pdop>3.0</pdop><geoidheight>0.00</geoidheight><course>123.9</course><type>1</type></trkpt>
      <trkpt lat="42.94632347" lon="-2.30223572"><ele>960</ele><speed>10.68</speed><time>2017-03-19T15:18:33Z</time><pdop>3.0</pdop><geoidheight>0.00</geoidheight><course>123.2</course><type>1</type></trkpt>
      <trkpt lat="42.94627474" lon="-2.30212142"><ele>960</ele><speed>10.34</speed><time>2017-03-19T15:18:34Z</time><pdop>3.0</pdop><geoidheight>0.00</geoidheight><course>122.3</course><type>1</type></trkpt>
      <trkpt lat="42.94622626" lon="-2.30201614"><ele>960</ele><speed>10.00</speed><time>2017-03-19T15:18:35Z</time><pdop>3.0</pdop><geoidheight>0.00</geoidheight><course>123.2</course><type>1</type></trkpt>
      <trkpt lat="42.94618751" lon="-2.30192194"><ele>959</ele><speed>9.01</speed><time>2017-03-19T15:18:36Z</time><pdop>3.0</pdop><geoidheight>0.00</geoidheight><course>119.9</course><type>1</type></trkpt>
      <trkpt lat="42.9461411" lon="-2.30183033"><ele>958</ele><speed>9.02</speed><time>2017-03-19T15:18:37Z</time><pdop>3.0</pdop><geoidheight>0.00</geoidheight><course>123.6</course><type>1</type></trkpt>
      <trkpt lat="42.94609723" lon="-2.30173349"><ele>956</ele><speed>9.44</speed><time>2017-03-19T15:18:38Z</time><pdop>3.0</pdop><geoidheight>0.00</geoidheight><course>122.1</course><type>1</type></trkpt>
      <trkpt lat="42.94605143" lon="-2.30162965"><ele>954</ele><speed>9.71</speed><time>2017-03-19T15:18:39Z</time><pdop>3.0</pdop><geoidheight>0.00</geoidheight><course>121.4</course><type>1</type></trkpt>
      <trkpt lat="42.94600805" lon="-2.30152618"><ele>953</ele><speed>9.70</speed><time>2017-03-19T15:18:40Z</time><pdop>3.0</pdop><geoidheight>0.00</geoidheight><course>119.9</course><type>1</type></trkpt>
      <trkpt lat="42.94596785" lon="-2.30142523"><ele>953</ele><speed>9.43</speed><time>2017-03-19T15:18:41Z</time><pdop>3.0</pdop><geoidheight>0.00</geoidheight><course>120.5</course><type>1</type></trkpt>
      <trkpt lat="42.94592003" lon="-2.30133302"><ele>951</ele><speed>9.22</speed><time>2017-03-19T15:18:42Z</time><pdop>3.0</pdop><geoidheight>0.00</geoidheight><course>123.7</course><type>1</type></trkpt>
      <trkpt lat="42.94586899" lon="-2.30124103"><ele>950</ele><speed>9.41</speed><time>2017-03-19T15:18:43Z</time><pdop>3.0</pdop><geoidheight>0.00</geoidheight><course>125.7</course><type>1</type></trkpt>
      <trkpt lat="42.94581396" lon="-2.30114212"><ele>948</ele><speed>9.96</speed><time>2017-03-19T15:18:44Z</time><pdop>3.0</pdop><geoidheight>0.00</geoidheight><course>126.2</course><type>1</type></trkpt>
      <trkpt lat="42.94575903" lon="-2.30104203"><ele>948</ele><speed>10.28</speed><time>2017-03-19T15:18:45Z</time><pdop>3.0</pdop><geoidheight>0.00</geoidheight><course>126.6</course><type>1</type></trkpt>
      <trkpt lat="42.94570474" lon="-2.30095461"><ele>948</ele><speed>9.87</speed><time>2017-03-19T15:18:46Z</time><pdop>3.0</pdop><geoidheight>0.00</geoidheight><course>129.9</course><type>1</type></trkpt>
      <trkpt lat="42.94564549" lon="-2.30086853"><ele>949</ele><speed>9.38</speed><time>2017-03-19T15:18:47Z</time><pdop>3.0</pdop><geoidheight>0.00</geoidheight><course>133.8</course><type>1</type></trkpt>
      <trkpt lat="42.94558575" lon="-2.30079246"><ele>948</ele><speed>9.35</speed><time>2017-03-19T15:18:48Z</time><pdop>3.0</pdop><geoidheight>0.00</geoidheight><course>135.3</course><type>1</type></trkpt>
      <trkpt lat="42.94552475" lon="-2.30070803"><ele>947</ele><speed>9.67</speed><time>2017-03-19T15:18:49Z</time><pdop>3.0</pdop><geoidheight>0.00</geoidheight><course>135.3</course><type>1</type></trkpt>
      <trkpt lat="42.94546429" lon="-2.30061504"><ele>946</ele><speed>10.27</speed><time>2017-03-19T15:18:50Z</time><pdop>3.0</pdop><geoidheight>0.00</geoidheight><course>134.7</course><type>1</type></trkpt>
      <trkpt lat="42.94539261" lon="-2.30052042"><ele>945</ele><speed>10.85</speed><time>2017-03-19T15:18:51Z</time><pdop>3.0</pdop><geoidheight>0.00</geoidheight><course>135.1</course><type>1</type></trkpt>
      <trkpt lat="42.94532289" lon="-2.30042386"><ele>944</ele><speed>11.00</speed><time>2017-03-19T15:18:52Z</time><pdop>3.0</pdop><geoidheight>0.00</geoidheight><course>135.1</course><type>1</type></trkpt>
      <trkpt lat="42.94525217" lon="-2.3003251"><ele>943</ele><speed>11.15</speed><time>2017-03-19T15:18:53Z</time><pdop>3.0</pdop><geoidheight>0.00</geoidheight><course>135.5</course><type>1</type></trkpt>
      <trkpt lat="42.94518022" lon="-2.30023112"><ele>942</ele><speed>10.81</speed><time>2017-03-19T15:18:54Z</time><pdop>3.0</pdop><geoidheight>0.00</geoidheight><course>137.2</course><type>1</type></trkpt>
      <trkpt lat="42.94511558" lon="-2.30016274"><ele>941</ele><speed>9.54</speed><time>2017-03-19T15:18:55Z</time><pdop>3.0</pdop><geoidheight>0.00</geoidheight><course>140.6</course><type>1</type></trkpt>
      <trkpt lat="42.94505609" lon="-2.30010084"><ele>940</ele><speed>8.96</speed><time>2017-03-19T15:18:56Z</time><pdop>3.0</pdop><geoidheight>0.00</geoidheight><course>140.5</course><type>1</type></trkpt>
      <trkpt lat="42.94499655" lon="-2.30001851"><ele>936</ele><speed>9.63</speed><time>2017-03-19T15:18:57Z</time><pdop>3.0</pdop><geoidheight>0.00</geoidheight><course>133.3</course><type>1</type></trkpt>
      <trkpt lat="42.94493778" lon="-2.29990267"><ele>932</ele><speed>11.01</speed><time>2017-03-19T15:18:58Z</time><pdop>3.0</pdop><geoidheight>0.00</geoidheight><course>124.8</course><type>1</type></trkpt>
      <trkpt lat="42.94488396" lon="-2.29977136"><ele>931</ele><speed>12.19</speed><time>2017-03-19T15:18:59Z</time><pdop>3.0</pdop><geoidheight>0.00</geoidheight><course>120.5</course><type>1</type></trkpt>
      <trkpt lat="42.94482631" lon="-2.29965143"><ele>931</ele><speed>11.88</speed><time>2017-03-19T15:19:00Z</time><pdop>3.0</pdop><geoidheight>0.00</geoidheight><course>121.6</course><type>1</type></trkpt>
      <trkpt lat="42.94477274" lon="-2.29954447"><ele>931</ele><speed>10.59</speed><time>2017-03-19T15:19:01Z</time><pdop>3.0</pdop><geoidheight>0.00</geoidheight><course>123.8</course><type>1</type></trkpt>
      <trkpt lat="42.94472793" lon="-2.29945148"><ele>931</ele><speed>9.03</speed><time>2017-03-19T15:19:02Z</time><pdop>3.0</pdop><geoidheight>0.00</geoidheight><course>124.0</course><type>1</type></trkpt>
      <trkpt lat="42.94469181" lon="-2.29936964"><ele>931</ele><speed>8.32</speed><time>2017-03-19T15:19:03Z</time><pdop>3.0</pdop><geoidheight>0.00</geoidheight><course>122.6</course><type>1</type></trkpt>
      <trkpt lat="42.94465154" lon="-2.29927808"><ele>929</ele><speed>8.46</speed><time>2017-03-19T15:19:04Z</time><pdop>3.0</pdop><geoidheight>0.00</geoidheight><course>120.6</course><type>1</type></trkpt>
      <trkpt lat="42.94461595" lon="-2.29917947"><ele>928</ele><speed>9.22</speed><time>2017-03-19T15:19:05Z</time><pdop>3.0</pdop><geoidheight>0.00</geoidheight><course>116.1</course><type>1</type></trkpt>
      <trkpt lat="42.94458107" lon="-2.29905775"><ele>927</ele><speed>10.49</speed><time>2017-03-19T15:19:06Z</time><pdop>3.0</pdop><geoidheight>0.00</geoidheight><course>111.1</course><type>1</type></trkpt>
      <trkpt lat="42.94454435" lon="-2.29893046"><ele>927</ele><speed>10.85</speed><time>2017-03-19T15:19:07Z</time><pdop>3.0</pdop><geoidheight>0.00</geoidheight><course>110.0</course><type>1</type></trkpt>
      <trkpt lat="42.9445092" lon="-2.2988175"><ele>928</ele><speed>10.18</speed><time>2017-03-19T15:19:08Z</time><pdop>3.0</pdop><geoidheight>0.00</geoidheight><course>112.1</course><type>1</type></trkpt>
      <trkpt lat="42.94447333" lon="-2.29872343"><ele>929</ele><speed>8.99</speed><time>2017-03-19T15:19:09Z</time><pdop>3.0</pdop><geoidheight>0.00</geoidheight><course>116.2</course><type>1</type></trkpt>
      <trkpt lat="42.94443623" lon="-2.29863735"><ele>929</ele><speed>8.24</speed><time>2017-03-19T15:19:10Z</time><pdop>3.0</pdop><geoidheight>0.00</geoidheight><course>119.9</course><type>1</type></trkpt>
      <trkpt lat="42.94439815" lon="-2.29854997"><ele>929</ele><speed>8.58</speed><time>2017-03-19T15:19:11Z</time><pdop>3.0</pdop><geoidheight>0.00</geoidheight><course>120.0</course><type>1</type></trkpt>
      <trkpt lat="42.94435391" lon="-2.29844972"><ele>928</ele><speed>9.48</speed><time>2017-03-19T15:19:12Z</time><pdop>3.0</pdop><geoidheight>0.00</geoidheight><course>119.7</course><type>1</type></trkpt>
      <trkpt lat="42.94430583" lon="-2.29834256"><ele>927</ele><speed>10.21</speed><time>2017-03-19T15:19:13Z</time><pdop>3.0</pdop><geoidheight>0.00</geoidheight><course>121.4</course><type>1</type></trkpt>
      <trkpt lat="42.94425404" lon="-2.2982411"><ele>927</ele><speed>10.43</speed><time>2017-03-19T15:19:14Z</time><pdop>3.0</pdop><geoidheight>0.00</geoidheight><course>125.3</course><type>1</type></trkpt>
      <trkpt lat="42.94419385" lon="-2.29814002"><ele>927</ele><speed>10.34</speed><time>2017-03-19T15:19:15Z</time><pdop>3.0</pdop><geoidheight>0.00</geoidheight><course>129.7</course><type>1</type></trkpt>
      <trkpt lat="42.94412756" lon="-2.29804557"><ele>927</ele><speed>10.41</speed><time>2017-03-19T15:19:16Z</time><pdop>3.0</pdop><geoidheight>0.00</geoidheight><course>132.3</course><type>1</type></trkpt>
      <trkpt lat="42.94406274" lon="-2.29795126"><ele>927</ele><speed>10.65</speed><time>2017-03-19T15:19:17Z</time><pdop>3.0</pdop><geoidheight>0.00</geoidheight><course>133.3</course><type>1</type></trkpt>
      <trkpt lat="42.94399241" lon="-2.2978533"><ele>927</ele><speed>11.04</speed><time>2017-03-19T15:19:18Z</time><pdop>3.0</pdop><geoidheight>0.00</geoidheight><course>134.5</course><type>1</type></trkpt>
      <trkpt lat="42.94391505" lon="-2.29776394"><ele>927</ele><speed>11.26</speed><time>2017-03-19T15:19:19Z</time><pdop>3.0</pdop><geoidheight>0.00</geoidheight><course>136.5</course><type>1</type></trkpt>
      <trkpt lat="42.94384141" lon="-2.29766537"><ele>928</ele><speed>10.95</speed><time>2017-03-19T15:19:20Z</time><pdop>3.0</pdop><geoidheight>0.00</geoidheight><course>138.2</course><type>1</type></trkpt>
      <trkpt lat="42.94375882" lon="-2.29758507"><ele>928</ele><speed>10.59</speed><time>2017-03-19T15:19:21Z</time><pdop>3.0</pdop><geoidheight>0.00</geoidheight><course>142.4</course><type>1</type></trkpt>
      <trkpt lat="42.94367863" lon="-2.29749879"><ele>928</ele><speed>11.03</speed><time>2017-03-19T15:19:22Z</time><pdop>3.0</pdop><geoidheight>0.00</geoidheight><course>143.2</course><type>1</type></trkpt>
      <trkpt lat="42.94359116" lon="-2.29740941"><ele>929</ele><speed>11.72</speed><time>2017-03-19T15:19:23Z</time><pdop>4.0</pdop><geoidheight>0.00</geoidheight><course>143.8</course><type>1</type></trkpt>
      <trkpt lat="42.94351686" lon="-2.29729818"><ele>930</ele><speed>11.59</speed><time>2017-03-19T15:19:24Z</time><pdop>4.0</pdop><geoidheight>0.00</geoidheight><course>137.4</course><type>1</type></trkpt>
      <trkpt lat="42.94344708" lon="-2.29721231"><ele>931</ele><speed>10.56</speed><time>2017-03-19T15:19:25Z</time><pdop>4.0</pdop><geoidheight>0.00</geoidheight><course>135.9</course><type>1</type></trkpt>
      <trkpt lat="42.94339262" lon="-2.29712504"><ele>931</ele><speed>9.73</speed><time>2017-03-19T15:19:26Z</time><pdop>4.0</pdop><geoidheight>0.00</geoidheight><course>134.8</course><type>1</type></trkpt>
      <trkpt lat="42.94333616" lon="-2.29703618"><ele>932</ele><speed>9.92</speed><time>2017-03-19T15:19:27Z</time><pdop>4.0</pdop><geoidheight>0.00</geoidheight><course>133.8</course><type>1</type></trkpt>
      <trkpt lat="42.94327856" lon="-2.29693166"><ele>932</ele><speed>10.34</speed><time>2017-03-19T15:19:28Z</time><pdop>4.0</pdop><geoidheight>0.00</geoidheight><course>134.6</course><type>1</type></trkpt>
      <trkpt lat="42.94321293" lon="-2.29683735"><ele>932</ele><speed>10.62</speed><time>2017-03-19T15:19:29Z</time><pdop>4.0</pdop><geoidheight>0.00</geoidheight><course>135.0</course><type>1</type></trkpt>
      <trkpt lat="42.94314942" lon="-2.29675039"><ele>930</ele><speed>10.51</speed><time>2017-03-19T15:19:30Z</time><pdop>4.0</pdop><geoidheight>0.00</geoidheight><course>135.5</course><type>1</type></trkpt>
      <trkpt lat="42.94307929" lon="-2.29666646"><ele>931</ele><speed>10.46</speed><time>2017-03-19T15:19:31Z</time><pdop>4.0</pdop><geoidheight>0.00</geoidheight><course>137.0</course><type>1</type></trkpt>
      <trkpt lat="42.94300461" lon="-2.29657855"><ele>931</ele><speed>10.70</speed><time>2017-03-19T15:19:32Z</time><pdop>3.0</pdop><geoidheight>0.00</geoidheight><course>138.4</course><type>1</type></trkpt>
      <trkpt lat="42.94293362" lon="-2.29649014"><ele>931</ele><speed>10.94</speed><time>2017-03-19T15:19:33Z</time><pdop>3.0</pdop><geoidheight>0.00</geoidheight><course>138.4</course><type>1</type></trkpt>
      <trkpt lat="42.94285935" lon="-2.29640134"><ele>931</ele><speed>10.99</speed><time>2017-03-19T15:19:34Z</time><pdop>3.0</pdop><geoidheight>0.00</geoidheight><course>138.4</course><type>1</type></trkpt>
      <trkpt lat="42.94278615" lon="-2.29632285"><ele>932</ele><speed>10.70</speed><time>2017-03-19T15:19:35Z</time><pdop>3.0</pdop><geoidheight>0.00</geoidheight><course>139.2</course><type>1</type></trkpt>
      <trkpt lat="42.94271476" lon="-2.29624318"><ele>932</ele><speed>10.33</speed><time>2017-03-19T15:19:36Z</time><pdop>3.0</pdop><geoidheight>0.00</geoidheight><course>140.6</course><type>1</type></trkpt>
      <trkpt lat="42.9426478" lon="-2.29616711"><ele>933</ele><speed>9.98</speed><time>2017-03-19T15:19:37Z</time><pdop>3.0</pdop><geoidheight>0.00</geoidheight><course>142.4</course><type>1</type></trkpt>
      <trkpt lat="42.94257368" lon="-2.29608779"><ele>934</ele><speed>10.32</speed><time>2017-03-19T15:19:38Z</time><pdop>3.0</pdop><geoidheight>0.00</geoidheight><course>143.8</course><type>1</type></trkpt>
      <trkpt lat="42.94248995" lon="-2.2960122"><ele>934</ele><speed>10.97</speed><time>2017-03-19T15:19:39Z</time><pdop>3.0</pdop><geoidheight>0.00</geoidheight><course>145.4</course><type>1</type></trkpt>
      <trkpt lat="42.94240139" lon="-2.29594002"><ele>935</ele><speed>11.37</speed><time>2017-03-19T15:19:40Z</time><pdop>3.0</pdop><geoidheight>0.00</geoidheight><course>148.0</course><type>1</type></trkpt>
      <trkpt lat="42.94231591" lon="-2.2958645"><ele>935</ele><speed>11.20</speed><time>2017-03-19T15:19:41Z</time><pdop>3.0</pdop><geoidheight>0.00</geoidheight><course>149.2</course><type>1</type></trkpt>
      <trkpt lat="42.94223241" lon="-2.29580802"><ele>935</ele><speed>10.52</speed><time>2017-03-19T15:19:42Z</time><pdop>3.0</pdop><geoidheight>0.00</geoidheight><course>152.8</course><type>1</type></trkpt>
      <trkpt lat="42.94214829" lon="-2.29575915"><ele>936</ele><speed>9.82</speed><time>2017-03-19T15:19:43Z</time><pdop>3.0</pdop><geoidheight>0.00</geoidheight><course>153.9</course><type>1</type></trkpt>
      <trkpt lat="42.94206524" lon="-2.29569196"><ele>935</ele><speed>10.45</speed><time>2017-03-19T15:19:44Z</time><pdop>3.0</pdop><geoidheight>0.00</geoidheight><course>151.0</course><type>1</type></trkpt>
      <trkpt lat="42.94197793" lon="-2.29559803"><ele>935</ele><speed>11.72</speed><time>2017-03-19T15:19:45Z</time><pdop>4.0</pdop><geoidheight>0.00</geoidheight><course>145.9</course><type>1</type></trkpt>
      <trkpt lat="42.94188302" lon="-2.29551225"><ele>935</ele><speed>12.66</speed><time>2017-03-19T15:19:46Z</time><pdop>4.0</pdop><geoidheight>0.00</geoidheight><course>144.4</course><type>1</type></trkpt>
      <trkpt lat="42.94179299" lon="-2.2954187"><ele>935</ele><speed>12.52</speed><time>2017-03-19T15:19:47Z</time><pdop>3.0</pdop><geoidheight>0.00</geoidheight><course>145.5</course><type>1</type></trkpt>
      <trkpt lat="42.94169121" lon="-2.29536377"><ele>935</ele><speed>12.01</speed><time>2017-03-19T15:19:48Z</time><pdop>3.0</pdop><geoidheight>0.00</geoidheight><course>152.5</course><type>1</type></trkpt>
      <trkpt lat="42.94159692" lon="-2.29530237"><ele>934</ele><speed>12.12</speed><time>2017-03-19T15:19:49Z</time><pdop>3.0</pdop><geoidheight>0.00</geoidheight><course>155.4</course><type>1</type></trkpt>
      <trkpt lat="42.94149313" lon="-2.29524572"><ele>935</ele><speed>12.49</speed><time>2017-03-19T15:19:50Z</time><pdop>4.0</pdop><geoidheight>0.00</geoidheight><course>154.9</course><type>1</type></trkpt>
      <trkpt lat="42.94139299" lon="-2.29517364"><ele>935</ele><speed>12.49</speed><time>2017-03-19T15:19:51Z</time><pdop>4.0</pdop><geoidheight>0.00</geoidheight><course>152.3</course><type>1</type></trkpt>
      <trkpt lat="42.94129716" lon="-2.295101"><ele>936</ele><speed>12.11</speed><time>2017-03-19T15:19:52Z</time><pdop>4.0</pdop><geoidheight>0.00</geoidheight><course>150.4</course><type>1</type></trkpt>
      <trkpt lat="42.94120763" lon="-2.29502984"><ele>937</ele><speed>11.63</speed><time>2017-03-19T15:19:53Z</time><pdop>3.0</pdop><geoidheight>0.00</geoidheight><course>149.4</course><type>1</type></trkpt>
      <trkpt lat="42.94112491" lon="-2.29493794"><ele>938</ele><speed>10.94</speed><time>2017-03-19T15:19:54Z</time><pdop>3.0</pdop><geoidheight>0.00</geoidheight><course>149.9</course><type>1</type></trkpt>
      <trkpt lat="42.9410427" lon="-2.29487859"><ele>938</ele><speed>10.36</speed><time>2017-03-19T15:19:55Z</time><pdop>3.0</pdop><geoidheight>0.00</geoidheight><course>150.1</course><type>1</type></trkpt>
      <trkpt lat="42.94095909" lon="-2.29480613"><ele>937</ele><speed>10.93</speed><time>2017-03-19T15:19:56Z</time><pdop>3.0</pdop><geoidheight>0.00</geoidheight><course>148.8</course><type>1</type></trkpt>
      <trkpt lat="42.94086917" lon="-2.29471615"><ele>937</ele><speed>12.33</speed><time>2017-03-19T15:19:57Z</time><pdop>3.0</pdop><geoidheight>0.00</geoidheight><course>147.2</course><type>1</type></trkpt>
      <trkpt lat="42.94076577" lon="-2.29464066"><ele>937</ele><speed>13.03</speed><time>2017-03-19T15:19:58Z</time><pdop>3.0</pdop><geoidheight>0.00</geoidheight><course>147.8</course><type>1</type></trkpt>
      <trkpt lat="42.94066622" lon="-2.29456773"><ele>938</ele><speed>12.84</speed><time>2017-03-19T15:19:59Z</time><pdop>3.0</pdop><geoidheight>0.00</geoidheight><course>150.8</course><type>1</type></trkpt>
      <trkpt lat="42.94056866" lon="-2.29449582"><ele>939</ele><speed>12.33</speed><time>2017-03-19T15:20:00Z</time><pdop>3.0</pdop><geoidheight>0.00</geoidheight><course>152.1</course><type>1</type></trkpt>
      <trkpt lat="42.94048045" lon="-2.29442671"><ele>940</ele><speed>11.55</speed><time>2017-03-19T15:20:01Z</time><pdop>3.0</pdop><geoidheight>0.00</geoidheight><course>151.9</course><type>1</type></trkpt>
      <trkpt lat="42.9403952" lon="-2.29436309"><ele>940</ele><speed>10.88</speed><time>2017-03-19T15:20:02Z</time><pdop>3.0</pdop><geoidheight>0.00</geoidheight><course>151.6</course><type>1</type></trkpt>
      <trkpt lat="42.94031342" lon="-2.2943035"><ele>940</ele><speed>10.75</speed><time>2017-03-19T15:20:03Z</time><pdop>3.0</pdop><geoidheight>0.00</geoidheight><course>149.5</course><type>1</type></trkpt>
      <trkpt lat="42.94022846" lon="-2.29422773"><ele>940</ele><speed>11.05</speed><time>2017-03-19T15:20:04Z</time><pdop>3.0</pdop><geoidheight>0.00</geoidheight><course>146.3</course><type>1</type></trkpt>
      <trkpt lat="42.94015862" lon="-2.29412736"><ele>939</ele><speed>11.51</speed><time>2017-03-19T15:20:05Z</time><pdop>3.0</pdop><geoidheight>0.00</geoidheight><course>137.0</course><type>1</type></trkpt>
      <trkpt lat="42.940085" lon="-2.29402141"><ele>940</ele><speed>11.76</speed><time>2017-03-19T15:20:06Z</time><pdop>3.0</pdop><geoidheight>0.00</geoidheight><course>133.8</course><type>1</type></trkpt>
      <trkpt lat="42.94001961" lon="-2.29392273"><ele>940</ele><speed>10.87</speed><time>2017-03-19T15:20:07Z</time><pdop>3.0</pdop><geoidheight>0.00</geoidheight><course>131.2</course><type>1</type></trkpt>
      <trkpt lat="42.93996914" lon="-2.29383096"><ele>942</ele><speed>9.61</speed><time>2017-03-19T15:20:08Z</time><pdop>3.0</pdop><geoidheight>0.00</geoidheight><course>125.3</course><type>1</type></trkpt>
      <trkpt lat="42.93992754" lon="-2.29373968"><ele>942</ele><speed>8.69</speed><time>2017-03-19T15:20:09Z</time><pdop>3.0</pdop><geoidheight>0.00</geoidheight><course>121.1</course><type>1</type></trkpt>
      <trkpt lat="42.93988989" lon="-2.29364546"><ele>942</ele><speed>8.69</speed><time>2017-03-19T15:20:10Z</time><pdop>3.0</pdop><geoidheight>0.00</geoidheight><course>119.6</course><type>1</type></trkpt>
      <trkpt lat="42.93985678" lon="-2.29354593"><ele>942</ele><speed>9.21</speed><time>2017-03-19T15:20:11Z</time><pdop>3.0</pdop><geoidheight>0.00</geoidheight><course>115.2</course><type>1</type></trkpt>
      <trkpt lat="42.93983289" lon="-2.29343432"><ele>941</ele><speed>9.59</speed><time>2017-03-19T15:20:12Z</time><pdop>3.0</pdop><geoidheight>0.00</geoidheight><course>106.3</course><type>1</type></trkpt>
      <trkpt lat="42.93982213" lon="-2.29331594"><ele>941</ele><speed>9.62</speed><time>2017-03-19T15:20:13Z</time><pdop>3.0</pdop><geoidheight>0.00</geoidheight><course>97.4</course><type>1</type></trkpt>
      <trkpt lat="42.93981966" lon="-2.29320471"><ele>941</ele><speed>9.04</speed><time>2017-03-19T15:20:14Z</time><pdop>3.0</pdop><geoidheight>0.00</geoidheight><course>91.8</course><type>1</type></trkpt>
      <trkpt lat="42.93981644" lon="-2.29310631"><ele>942</ele><speed>8.07</speed><time>2017-03-19T15:20:15Z</time><pdop>3.0</pdop><geoidheight>0.00</geoidheight><course>91.7</course><type>1</type></trkpt>
      <trkpt lat="42.93981181" lon="-2.29301117"><ele>942</ele><speed>7.50</speed><time>2017-03-19T15:20:16Z</time><pdop>3.0</pdop><geoidheight>0.00</geoidheight><course>92.4</course><type>1</type></trkpt>
      <trkpt lat="42.93980687" lon="-2.2929177"><ele>941</ele><speed>7.63</speed><time>2017-03-19T15:20:17Z</time><pdop>3.0</pdop><geoidheight>0.00</geoidheight><course>92.2</course><type>1</type></trkpt>
      <trkpt lat="42.93979994" lon="-2.29282243"><ele>940</ele><speed>8.24</speed><time>2017-03-19T15:20:18Z</time><pdop>3.0</pdop><geoidheight>0.00</geoidheight><course>93.1</course><type>1</type></trkpt>
      <trkpt lat="42.93979311" lon="-2.2927081"><ele>940</ele><speed>9.09</speed><time>2017-03-19T15:20:19Z</time><pdop>3.0</pdop><geoidheight>0.00</geoidheight><course>94.1</course><type>1</type></trkpt>
      <trkpt lat="42.93978405" lon="-2.2925963"><ele>939</ele><speed>9.19</speed><time>2017-03-19T15:20:20Z</time><pdop>3.0</pdop><geoidheight>0.00</geoidheight><course>94.9</course><type>1</type></trkpt>
      <trkpt lat="42.93977697" lon="-2.29249952"><ele>940</ele><speed>8.38</speed><time>2017-03-19T15:20:21Z</time><pdop>3.0</pdop><geoidheight>0.00</geoidheight><course>93.8</course><type>1</type></trkpt>
      <trkpt lat="42.9397757" lon="-2.2924083"><ele>940</ele><speed>7.49</speed><time>2017-03-19T15:20:22Z</time><pdop>3.0</pdop><geoidheight>0.00</geoidheight><course>90.2</course><type>1</type></trkpt>
      <trkpt lat="42.93977653" lon="-2.29232669"><ele>940</ele><speed>6.89</speed><time>2017-03-19T15:20:23Z</time><pdop>3.0</pdop><geoidheight>0.00</geoidheight><course>88.5</course><type>1</type></trkpt>
      <trkpt lat="42.93977488" lon="-2.29224373"><ele>940</ele><speed>7.02</speed><time>2017-03-19T15:20:24Z</time><pdop>3.0</pdop><geoidheight>0.00</geoidheight><course>89.6</course><type>1</type></trkpt>
      <trkpt lat="42.93977834" lon="-2.29214416"><ele>940</ele><speed>7.68</speed><time>2017-03-19T15:20:25Z</time><pdop>3.0</pdop><geoidheight>0.00</geoidheight><course>86.7</course><type>1</type></trkpt>
      <trkpt lat="42.93978037" lon="-2.29205134"><ele>941</ele><speed>7.85</speed><time>2017-03-19T15:20:26Z</time><pdop>3.0</pdop><geoidheight>0.00</geoidheight><course>84.8</course><type>1</type></trkpt>
      <trkpt lat="42.93978575" lon="-2.29195685"><ele>942</ele><speed>7.21</speed><time>2017-03-19T15:20:27Z</time><pdop>3.0</pdop><geoidheight>0.00</geoidheight><course>84.2</course><type>1</type></trkpt>
      <trkpt lat="42.93979565" lon="-2.29187725"><ele>942</ele><speed>6.45</speed><time>2017-03-19T15:20:28Z</time><pdop>3.0</pdop><geoidheight>0.00</geoidheight><course>82.4</course><type>1</type></trkpt>
      <trkpt lat="42.93979712" lon="-2.29180022"><ele>943</ele><speed>6.11</speed><time>2017-03-19T15:20:29Z</time><pdop>3.0</pdop><geoidheight>0.00</geoidheight><course>85.4</course><type>1</type></trkpt>
      <trkpt lat="42.93980459" lon="-2.29171431"><ele>943</ele><speed>6.52</speed><time>2017-03-19T15:20:30Z</time><pdop>3.0</pdop><geoidheight>0.00</geoidheight><course>89.5</course><type>1</type></trkpt>
      <trkpt lat="42.9397999" lon="-2.29162771"><ele>944</ele><speed>7.24</speed><time>2017-03-19T15:20:31Z</time><pdop>3.0</pdop><geoidheight>0.00</geoidheight><course>92.3</course><type>1</type></trkpt>
      <trkpt lat="42.93978949" lon="-2.2915374"><ele>945</ele><speed>7.56</speed><time>2017-03-19T15:20:32Z</time><pdop>3.0</pdop><geoidheight>0.00</geoidheight><course>95.0</course><type>1</type></trkpt>
      <trkpt lat="42.93977738" lon="-2.29144258"><ele>945</ele><speed>7.79</speed><time>2017-03-19T15:20:33Z</time><pdop>3.0</pdop><geoidheight>0.00</geoidheight><course>97.4</course><type>1</type></trkpt>
      <trkpt lat="42.93976125" lon="-2.29134113"><ele>946</ele><speed>8.09</speed><time>2017-03-19T15:20:34Z</time><pdop>3.0</pdop><geoidheight>0.00</geoidheight><course>100.7</course><type>1</type></trkpt>
      <trkpt lat="42.9397449" lon="-2.29123578"><ele>947</ele><speed>8.55</speed><time>2017-03-19T15:20:35Z</time><pdop>3.0</pdop><geoidheight>0.00</geoidheight><course>101.8</course><type>1</type></trkpt>
      <trkpt lat="42.93972638" lon="-2.29113346"><ele>947</ele><speed>8.56</speed><time>2017-03-19T15:20:36Z</time><pdop>3.0</pdop><geoidheight>0.00</geoidheight><course>102.2</course><type>1</type></trkpt>
      <trkpt lat="42.93970611" lon="-2.29103773"><ele>948</ele><speed>8.19</speed><time>2017-03-19T15:20:37Z</time><pdop>3.0</pdop><geoidheight>0.00</geoidheight><course>104.2</course><type>1</type></trkpt>
      <trkpt lat="42.93969039" lon="-2.29093977"><ele>949</ele><speed>8.01</speed><time>2017-03-19T15:20:38Z</time><pdop>3.0</pdop><geoidheight>0.00</geoidheight><course>101.6</course><type>1</type></trkpt>
      <trkpt lat="42.93967591" lon="-2.29084847"><ele>950</ele><speed>7.81</speed><time>2017-03-19T15:20:39Z</time><pdop>3.0</pdop><geoidheight>0.00</geoidheight><course>98.4</course><type>1</type></trkpt>
      <trkpt lat="42.93967214" lon="-2.29075259"><ele>951</ele><speed>7.57</speed><time>2017-03-19T15:20:40Z</time><pdop>3.0</pdop><geoidheight>0.00</geoidheight><course>93.5</course><type>1</type></trkpt>
      <trkpt lat="42.93967736" lon="-2.29066771"><ele>952</ele><speed>7.08</speed><time>2017-03-19T15:20:41Z</time><pdop>3.0</pdop><geoidheight>0.00</geoidheight><course>84.7</course><type>1</type></trkpt>
      <trkpt lat="42.9396954" lon="-2.29059761"><ele>953</ele><speed>6.25</speed><time>2017-03-19T15:20:42Z</time><pdop>3.0</pdop><geoidheight>0.00</geoidheight><course>72.7</course><type>1</type></trkpt>
      <trkpt lat="42.93977933" lon="-2.29055038"><ele>954</ele><speed>4.01</speed><time>2017-03-19T15:20:44Z</time><pdop>3.0</pdop><geoidheight>0.00</geoidheight><course>9.7</course><type>1</type></trkpt>
      <trkpt lat="42.93981113" lon="-2.29065974"><ele>956</ele><speed>5.45</speed><time>2017-03-19T15:20:46Z</time><pdop>3.0</pdop><geoidheight>0.00</geoidheight><course>273.6</course><type>1</type></trkpt>
      <trkpt lat="42.93978872" lon="-2.29074914"><ele>957</ele><speed>7.39</speed><time>2017-03-19T15:20:47Z</time><pdop>3.0</pdop><geoidheight>0.00</geoidheight><course>251.3</course><type>1</type></trkpt>
      <trkpt lat="42.93974107" lon="-2.29084599"><ele>957</ele><speed>9.13</speed><time>2017-03-19T15:20:48Z</time><pdop>3.0</pdop><geoidheight>0.00</geoidheight><course>232.9</course><type>1</type></trkpt>
      <trkpt lat="42.93966072" lon="-2.29091914"><ele>958</ele><speed>10.41</speed><time>2017-03-19T15:20:49Z</time><pdop>3.0</pdop><geoidheight>0.00</geoidheight><course>216.1</course><type>1</type></trkpt>
      <trkpt lat="42.93956911" lon="-2.29097562"><ele>960</ele><speed>11.14</speed><time>2017-03-19T15:20:50Z</time><pdop>3.0</pdop><geoidheight>0.00</geoidheight><course>206.8</course><type>1</type></trkpt>
      <trkpt lat="42.93947481" lon="-2.29102671"><ele>960</ele><speed>11.06</speed><time>2017-03-19T15:20:51Z</time><pdop>3.0</pdop><geoidheight>0.00</geoidheight><course>201.5</course><type>1</type></trkpt>
      <trkpt lat="42.93938373" lon="-2.29106782"><ele>961</ele><speed>10.86</speed><time>2017-03-19T15:20:52Z</time><pdop>3.0</pdop><geoidheight>0.00</geoidheight><course>198.8</course><type>1</type></trkpt>
      <trkpt lat="42.93928823" lon="-2.29110449"><ele>961</ele><speed>11.40</speed><time>2017-03-19T15:20:53Z</time><pdop>3.0</pdop><geoidheight>0.00</geoidheight><course>195.7</course><type>1</type></trkpt>
      <trkpt lat="42.93918954" lon="-2.29115282"><ele>961</ele><speed>11.77</speed><time>2017-03-19T15:20:54Z</time><pdop>3.0</pdop><geoidheight>0.00</geoidheight><course>198.4</course><type>1</type></trkpt>
      <trkpt lat="42.93909477" lon="-2.29121867"><ele>962</ele><speed>11.48</speed><time>2017-03-19T15:20:55Z</time><pdop>3.0</pdop><geoidheight>0.00</geoidheight><course>205.9</course><type>1</type></trkpt>
      <trkpt lat="42.93902095" lon="-2.29129564"><ele>961</ele><speed>10.22</speed><time>2017-03-19T15:20:56Z</time><pdop>3.0</pdop><geoidheight>0.00</geoidheight><course>214.9</course><type>1</type></trkpt>
      <trkpt lat="42.9389818" lon="-2.2913805"><ele>961</ele><speed>8.49</speed><time>2017-03-19T15:20:57Z</time><pdop>3.0</pdop><geoidheight>0.00</geoidheight><course>232.3</course><type>1</type></trkpt>
      <trkpt lat="42.93894235" lon="-2.29147123"><ele>960</ele><speed>8.46</speed><time>2017-03-19T15:20:58Z</time><pdop>3.0</pdop><geoidheight>0.00</geoidheight><course>236.5</course><type>1</type></trkpt>
      <trkpt lat="42.93898046" lon="-2.29157665"><ele>961</ele><speed>4.21</speed><time>2017-03-19T15:21:00Z</time><pdop>3.0</pdop><geoidheight>0.00</geoidheight><course>284.0</course><type>1</type></trkpt>
      <trkpt lat="42.93906833" lon="-2.2914776"><ele>959</ele><speed>3.54</speed><time>2017-03-19T15:21:05Z</time><pdop>8.0</pdop><geoidheight>0.00</geoidheight><course>48.6</course><type>1</type></trkpt>
      <trkpt lat="42.93905144" lon="-2.29125041"><ele>960</ele><speed>7.46</speed><time>2017-03-19T15:21:07Z</time><pdop>5.0</pdop><geoidheight>0.00</geoidheight><course>94.2</course><type>1</type></trkpt>
      <trkpt lat="42.93906146" lon="-2.29106208"><ele>964</ele><speed>5.76</speed><time>2017-03-19T15:21:09Z</time><pdop>3.0</pdop><geoidheight>0.00</geoidheight><course>87.9</course><type>1</type></trkpt>
      <trkpt lat="42.93905755" lon="-2.29093673"><ele>967</ele><speed>5.57</speed><time>2017-03-19T15:21:11Z</time><pdop>3.0</pdop><geoidheight>0.00</geoidheight><course>89.4</course><type>1</type></trkpt>
      <trkpt lat="42.93905021" lon="-2.29085867"><ele>968</ele><speed>6.36</speed><time>2017-03-19T15:21:12Z</time><pdop>3.0</pdop><geoidheight>0.00</geoidheight><course>92.7</course><type>1</type></trkpt>
      <trkpt lat="42.93904443" lon="-2.2907652"><ele>968</ele><speed>7.38</speed><time>2017-03-19T15:21:13Z</time><pdop>3.0</pdop><geoidheight>0.00</geoidheight><course>94.9</course><type>1</type></trkpt>
      <trkpt lat="42.9390329" lon="-2.29066516"><ele>969</ele><speed>8.32</speed><time>2017-03-19T15:21:14Z</time><pdop>3.0</pdop><geoidheight>0.00</geoidheight><course>98.0</course><type>1</type></trkpt>
      <trkpt lat="42.93901994" lon="-2.29055431"><ele>971</ele><speed>9.04</speed><time>2017-03-19T15:21:15Z</time><pdop>3.0</pdop><geoidheight>0.00</geoidheight><course>99.5</course><type>1</type></trkpt>
      <trkpt lat="42.93901748" lon="-2.29045505"><ele>973</ele><speed>8.32</speed><time>2017-03-19T15:21:16Z</time><pdop>3.0</pdop><geoidheight>0.00</geoidheight><course>95.6</course><type>1</type></trkpt>
      <trkpt lat="42.93902441" lon="-2.2903788"><ele>974</ele><speed>6.59</speed><time>2017-03-19T15:21:17Z</time><pdop>3.0</pdop><geoidheight>0.00</geoidheight><course>86.4</course><type>1</type></trkpt>
      <trkpt lat="42.93908538" lon="-2.29029542"><ele>975</ele><speed>3.95</speed><time>2017-03-19T15:21:19Z</time><pdop>3.0</pdop><geoidheight>0.00</geoidheight><course>35.8</course><type>1</type></trkpt>
      <trkpt lat="42.93913234" lon="-2.29035079"><ele>976</ele><speed>3.22</speed><time>2017-03-19T15:21:21Z</time><pdop>3.0</pdop><geoidheight>0.00</geoidheight><course>298.1</course><type>1</type></trkpt>
      <trkpt lat="42.93909378" lon="-2.29049837"><ele>977</ele><speed>7.38</speed><time>2017-03-19T15:21:23Z</time><pdop>3.0</pdop><geoidheight>0.00</geoidheight><course>248.5</course><type>1</type></trkpt>
      <trkpt lat="42.93908057" lon="-2.2905857"><ele>978</ele><speed>7.09</speed><time>2017-03-19T15:21:24Z</time><pdop>3.0</pdop><geoidheight>0.00</geoidheight><course>255.6</course><type>1</type></trkpt>
      <trkpt lat="42.93902209" lon="-2.2906846"><ele>979</ele><speed>8.57</speed><time>2017-03-19T15:21:25Z</time><pdop>3.0</pdop><geoidheight>0.00</geoidheight><course>238.3</course><type>1</type></trkpt>
      <trkpt lat="42.93890357" lon="-2.29073266"><ele>981</ele><speed>10.24</speed><time>2017-03-19T15:21:26Z</time><pdop>3.0</pdop><geoidheight>0.00</geoidheight><course>211.4</course><type>1</type></trkpt>
      <trkpt lat="42.93884164" lon="-2.29079829"><ele>981</ele><speed>8.80</speed><time>2017-03-19T15:21:27Z</time><pdop>3.0</pdop><geoidheight>0.00</geoidheight><course>219.4</course><type>1</type></trkpt>
      <trkpt lat="42.93880499" lon="-2.29087155"><ele>980</ele><speed>7.21</speed><time>2017-03-19T15:21:28Z</time><pdop>3.0</pdop><geoidheight>0.00</geoidheight><course>236.7</course><type>1</type></trkpt>
      <trkpt lat="42.93879219" lon="-2.29094699"><ele>979</ele><speed>6.32</speed><time>2017-03-19T15:21:29Z</time><pdop>3.0</pdop><geoidheight>0.00</geoidheight><course>265.2</course><type>1</type></trkpt>
      <trkpt lat="42.93881011" lon="-2.29101661"><ele>979</ele><speed>6.09</speed><time>2017-03-19T15:21:30Z</time><pdop>3.0</pdop><geoidheight>0.00</geoidheight><course>289.9</course><type>1</type></trkpt>
      <trkpt lat="42.93887491" lon="-2.29104875"><ele>977</ele><speed>3.13</speed><time>2017-03-19T15:21:33Z</time><pdop>3.0</pdop><geoidheight>0.00</geoidheight><course>7.0</course><type>1</type></trkpt>
      <trkpt lat="42.93888264" lon="-2.29089138"><ele>977</ele><speed>6.61</speed><time>2017-03-19T15:21:35Z</time><pdop>4.0</pdop><geoidheight>0.00</geoidheight><course>87.1</course><type>1</type></trkpt>
      <trkpt lat="42.93886262" lon="-2.29077673"><ele>979</ele><speed>9.08</speed><time>2017-03-19T15:21:36Z</time><pdop>3.0</pdop><geoidheight>0.00</geoidheight><course>101.3</course><type>1</type></trkpt>
      <trkpt lat="42.93881972" lon="-2.29065146"><ele>980</ele><speed>10.88</speed><time>2017-03-19T15:21:37Z</time><pdop>3.0</pdop><geoidheight>0.00</geoidheight><course>114.6</course><type>1</type></trkpt>
      <trkpt lat="42.93875696" lon="-2.29052758"><ele>981</ele><speed>11.84</speed><time>2017-03-19T15:21:38Z</time><pdop>3.0</pdop><geoidheight>0.00</geoidheight><course>123.8</course><type>1</type></trkpt>
      <trkpt lat="42.93868522" lon="-2.29042107"><ele>982</ele><speed>11.55</speed><time>2017-03-19T15:21:39Z</time><pdop>3.0</pdop><geoidheight>0.00</geoidheight><course>129.6</course><type>1</type></trkpt>
      <trkpt lat="42.93862846" lon="-2.29031052"><ele>983</ele><speed>11.42</speed><time>2017-03-19T15:21:40Z</time><pdop>3.0</pdop><geoidheight>0.00</geoidheight><course>126.7</course><type>1</type></trkpt>
      <trkpt lat="42.93858642" lon="-2.29022972"><ele>984</ele><speed>9.59</speed><time>2017-03-19T15:21:41Z</time><pdop>3.0</pdop><geoidheight>0.00</geoidheight><course>125.6</course><type>1</type></trkpt>
      <trkpt lat="42.93858645" lon="-2.2901049"><ele>982</ele><speed>9.69</speed><time>2017-03-19T15:21:42Z</time><pdop>3.0</pdop><geoidheight>0.00</geoidheight><course>102.9</course><type>1</type></trkpt>
      <trkpt lat="42.9385581" lon="-2.28996576"><ele>982</ele><speed>11.43</speed><time>2017-03-19T15:21:43Z</time><pdop>3.0</pdop><geoidheight>0.00</geoidheight><course>106.1</course><type>1</type></trkpt>
      <trkpt lat="42.93851679" lon="-2.28984631"><ele>983</ele><speed>11.18</speed><time>2017-03-19T15:21:44Z</time><pdop>3.0</pdop><geoidheight>0.00</geoidheight><course>114.5</course><type>1</type></trkpt>
      <trkpt lat="42.93843107" lon="-2.28975443"><ele>983</ele><speed>11.64</speed><time>2017-03-19T15:21:45Z</time><pdop>3.0</pdop><geoidheight>0.00</geoidheight><course>134.6</course><type>1</type></trkpt>
      <trkpt lat="42.93834762" lon="-2.2896776"><ele>984</ele><speed>11.02</speed><time>2017-03-19T15:21:46Z</time><pdop>3.0</pdop><geoidheight>0.00</geoidheight><course>142.1</course><type>1</type></trkpt>
      <trkpt lat="42.93826594" lon="-2.28960705"><ele>986</ele><speed>10.81</speed><time>2017-03-19T15:21:47Z</time><pdop>3.0</pdop><geoidheight>0.00</geoidheight><course>144.1</course><type>1</type></trkpt>
      <trkpt lat="42.93818873" lon="-2.28952003"><ele>986</ele><speed>11.13</speed><time>2017-03-19T15:21:48Z</time><pdop>3.0</pdop><geoidheight>0.00</geoidheight><course>140.0</course><type>1</type></trkpt>
      <trkpt lat="42.93812816" lon="-2.28942088"><ele>987</ele><speed>10.71</speed><time>2017-03-19T15:21:49Z</time><pdop>3.0</pdop><geoidheight>0.00</geoidheight><course>130.9</course><type>1</type></trkpt>
      <trkpt lat="42.93808138" lon="-2.28931811"><ele>988</ele><speed>10.24</speed><time>2017-03-19T15:21:50Z</time><pdop>3.0</pdop><geoidheight>0.00</geoidheight><course>123.2</course><type>1</type></trkpt>
      <trkpt lat="42.93803636" lon="-2.28921953"><ele>988</ele><speed>9.90</speed><time>2017-03-19T15:21:51Z</time><pdop>3.0</pdop><geoidheight>0.00</geoidheight><course>120.9</course><type>1</type></trkpt>
      <trkpt lat="42.9379833" lon="-2.28912443"><ele>987</ele><speed>9.68</speed><time>2017-03-19T15:21:52Z</time><pdop>3.0</pdop><geoidheight>0.00</geoidheight><course>125.7</course><type>1</type></trkpt>
      <trkpt lat="42.93792504" lon="-2.28904397"><ele>987</ele><speed>9.13</speed><time>2017-03-19T15:21:53Z</time><pdop>3.0</pdop><geoidheight>0.00</geoidheight><course>134.4</course><type>1</type></trkpt>
      <trkpt lat="42.93786398" lon="-2.2889566"><ele>986</ele><speed>9.66</speed><time>2017-03-19T15:21:54Z</time><pdop>3.0</pdop><geoidheight>0.00</geoidheight><course>130.7</course><type>1</type></trkpt>
      <trkpt lat="42.93780952" lon="-2.28883963"><ele>985</ele><speed>11.06</speed><time>2017-03-19T15:21:55Z</time><pdop>3.0</pdop><geoidheight>0.00</geoidheight><course>123.8</course><type>1</type></trkpt>
      <trkpt lat="42.93775527" lon="-2.28871789"><ele>982</ele><speed>11.67</speed><time>2017-03-19T15:21:56Z</time><pdop>3.0</pdop><geoidheight>0.00</geoidheight><course>120.3</course><type>1</type></trkpt>
      <trkpt lat="42.93770498" lon="-2.28860255"><ele>981</ele><speed>11.07</speed><time>2017-03-19T15:21:57Z</time><pdop>3.0</pdop><geoidheight>0.00</geoidheight><course>121.6</course><type>1</type></trkpt>
      <trkpt lat="42.9376631" lon="-2.28849462"><ele>981</ele><speed>10.19</speed><time>2017-03-19T15:21:58Z</time><pdop>3.0</pdop><geoidheight>0.00</geoidheight><course>118.6</course><type>1</type></trkpt>
      <trkpt lat="42.93763026" lon="-2.28839108"><ele>982</ele><speed>8.97</speed><time>2017-03-19T15:21:59Z</time><pdop>3.0</pdop><geoidheight>0.00</geoidheight><course>114.3</course><type>1</type></trkpt>
      <trkpt lat="42.93761288" lon="-2.2883008"><ele>982</ele><speed>8.13</speed><time>2017-03-19T15:22:00Z</time><pdop>3.0</pdop><geoidheight>0.00</geoidheight><course>105.5</course><type>1</type></trkpt>
      <trkpt lat="42.93759603" lon="-2.28819983"><ele>981</ele><speed>8.58</speed><time>2017-03-19T15:22:01Z</time><pdop>3.0</pdop><geoidheight>0.00</geoidheight><course>102.2</course><type>1</type></trkpt>
      <trkpt lat="42.93757508" lon="-2.28807619"><ele>980</ele><speed>10.31</speed><time>2017-03-19T15:22:02Z</time><pdop>3.0</pdop><geoidheight>0.00</geoidheight><course>102.7</course><type>1</type></trkpt>
      <trkpt lat="42.93754553" lon="-2.28793466"><ele>980</ele><speed>11.61</speed><time>2017-03-19T15:22:03Z</time><pdop>3.0</pdop><geoidheight>0.00</geoidheight><course>107.1</course><type>1</type></trkpt>
      <trkpt lat="42.93750418" lon="-2.28780337"><ele>980</ele><speed>11.66</speed><time>2017-03-19T15:22:04Z</time><pdop>3.0</pdop><geoidheight>0.00</geoidheight><course>112.9</course><type>1</type></trkpt>
      <trkpt lat="42.93745094" lon="-2.28769027"><ele>979</ele><speed>11.24</speed><time>2017-03-19T15:22:05Z</time><pdop>3.0</pdop><geoidheight>0.00</geoidheight><course>121.5</course><type>1</type></trkpt>
      <trkpt lat="42.9373871" lon="-2.28759378"><ele>979</ele><speed>10.74</speed><time>2017-03-19T15:22:06Z</time><pdop>3.0</pdop><geoidheight>0.00</geoidheight><course>130.5</course><type>1</type></trkpt>
      <trkpt lat="42.93731755" lon="-2.28749092"><ele>978</ele><speed>11.30</speed><time>2017-03-19T15:22:07Z</time><pdop>3.0</pdop><geoidheight>0.00</geoidheight><course>132.4</course><type>1</type></trkpt>
      <trkpt lat="42.93724717" lon="-2.2873794"><ele>977</ele><speed>11.58</speed><time>2017-03-19T15:22:08Z</time><pdop>3.0</pdop><geoidheight>0.00</geoidheight><course>131.6</course><type>1</type></trkpt>
      <trkpt lat="42.9371679" lon="-2.28723738"><ele>974</ele><speed>13.36</speed><time>2017-03-19T15:22:09Z</time><pdop>3.0</pdop><geoidheight>0.00</geoidheight><course>128.8</course><type>1</type></trkpt>
      <trkpt lat="42.9371001" lon="-2.28710483"><ele>974</ele><speed>12.92</speed><time>2017-03-19T15:22:10Z</time><pdop>3.0</pdop><geoidheight>0.00</geoidheight><course>125.0</course><type>1</type></trkpt>
      <trkpt lat="42.93704507" lon="-2.28698148"><ele>973</ele><speed>11.61</speed><time>2017-03-19T15:22:11Z</time><pdop>3.0</pdop><geoidheight>0.00</geoidheight><course>120.0</course><type>1</type></trkpt>
      <trkpt lat="42.93701428" lon="-2.28687021"><ele>972</ele><speed>9.89</speed><time>2017-03-19T15:22:12Z</time><pdop>3.0</pdop><geoidheight>0.00</geoidheight><course>113.0</course><type>1</type></trkpt>
      <trkpt lat="42.93698489" lon="-2.28676407"><ele>971</ele><speed>9.47</speed><time>2017-03-19T15:22:13Z</time><pdop>3.0</pdop><geoidheight>0.00</geoidheight><course>108.7</course><type>1</type></trkpt>
      <trkpt lat="42.93695278" lon="-2.28664501"><ele>969</ele><speed>10.39</speed><time>2017-03-19T15:22:14Z</time><pdop>3.0</pdop><geoidheight>0.00</geoidheight><course>109.2</course><type>1</type></trkpt>
      <trkpt lat="42.93691232" lon="-2.28651552"><ele>968</ele><speed>11.47</speed><time>2017-03-19T15:22:15Z</time><pdop>3.0</pdop><geoidheight>0.00</geoidheight><course>112.1</course><type>1</type></trkpt>
      <trkpt lat="42.93686469" lon="-2.28638501"><ele>967</ele><speed>11.67</speed><time>2017-03-19T15:22:16Z</time><pdop>3.0</pdop><geoidheight>0.00</geoidheight><course>114.5</course><type>1</type></trkpt>
      <trkpt lat="42.93682058" lon="-2.28625992"><ele>968</ele><speed>11.10</speed><time>2017-03-19T15:22:17Z</time><pdop>3.0</pdop><geoidheight>0.00</geoidheight><course>116.2</course><type>1</type></trkpt>
      <trkpt lat="42.93677662" lon="-2.28613898"><ele>968</ele><speed>10.67</speed><time>2017-03-19T15:22:18Z</time><pdop>3.0</pdop><geoidheight>0.00</geoidheight><course>117.6</course><type>1</type></trkpt>
      <trkpt lat="42.93673371" lon="-2.28603307"><ele>968</ele><speed>10.42</speed><time>2017-03-19T15:22:19Z</time><pdop>3.0</pdop><geoidheight>0.00</geoidheight><course>119.1</course><type>1</type></trkpt>
      <trkpt lat="42.93668997" lon="-2.28591416"><ele>967</ele><speed>10.50</speed><time>2017-03-19T15:22:20Z</time><pdop>3.0</pdop><geoidheight>0.00</geoidheight><course>118.0</course><type>1</type></trkpt>
      <trkpt lat="42.93664951" lon="-2.28578792"><ele>966</ele><speed>11.07</speed><time>2017-03-19T15:22:21Z</time><pdop>3.0</pdop><geoidheight>0.00</geoidheight><course>114.3</course><type>1</type></trkpt>
      <trkpt lat="42.93660866" lon="-2.28565938"><ele>966</ele><speed>11.29</speed><time>2017-03-19T15:22:22Z</time><pdop>3.0</pdop><geoidheight>0.00</geoidheight><course>114.1</course><type>1</type></trkpt>
      <trkpt lat="42.93656128" lon="-2.28553287"><ele>965</ele><speed>11.33</speed><time>2017-03-19T15:22:23Z</time><pdop>3.0</pdop><geoidheight>0.00</geoidheight><course>116.4</course><type>1</type></trkpt>
      <trkpt lat="42.93651264" lon="-2.28541172"><ele>965</ele><speed>11.28</speed><time>2017-03-19T15:22:24Z</time><pdop>3.0</pdop><geoidheight>0.00</geoidheight><course>118.0</course><type>1</type></trkpt>
      <trkpt lat="42.93646724" lon="-2.28528634"><ele>965</ele><speed>11.43</speed><time>2017-03-19T15:22:25Z</time><pdop>3.0</pdop><geoidheight>0.00</geoidheight><course>116.7</course><type>1</type></trkpt>
      <trkpt lat="42.93642474" lon="-2.28515054"><ele>965</ele><speed>11.70</speed><time>2017-03-19T15:22:26Z</time><pdop>3.0</pdop><geoidheight>0.00</geoidheight><course>114.7</course><type>1</type></trkpt>
      <trkpt lat="42.93637679" lon="-2.28502173"><ele>965</ele><speed>11.67</speed><time>2017-03-19T15:22:27Z</time><pdop>3.0</pdop><geoidheight>0.00</geoidheight><course>114.0</course><type>1</type></trkpt>
      <trkpt lat="42.93633535" lon="-2.28488715"><ele>965</ele><speed>11.48</speed><time>2017-03-19T15:22:28Z</time><pdop>3.0</pdop><geoidheight>0.00</geoidheight><course>114.2</course><type>1</type></trkpt>
      <trkpt lat="42.9362927" lon="-2.28475559"><ele>965</ele><speed>11.15</speed><time>2017-03-19T15:22:29Z</time><pdop>3.0</pdop><geoidheight>0.00</geoidheight><course>114.7</course><type>1</type></trkpt>
      <trkpt lat="42.93625447" lon="-2.28462794"><ele>965</ele><speed>11.13</speed><time>2017-03-19T15:22:30Z</time><pdop>3.0</pdop><geoidheight>0.00</geoidheight><course>114.0</course><type>1</type></trkpt>
      <trkpt lat="42.93621235" lon="-2.28449922"><ele>965</ele><speed>11.46</speed><time>2017-03-19T15:22:31Z</time><pdop>3.0</pdop><geoidheight>0.00</geoidheight><course>110.9</course><type>1</type></trkpt>
      <trkpt lat="42.93617011" lon="-2.28435931"><ele>966</ele><speed>11.86</speed><time>2017-03-19T15:22:32Z</time><pdop>3.0</pdop><geoidheight>0.00</geoidheight><course>109.9</course><type>1</type></trkpt>
      <trkpt lat="42.9361421" lon="-2.28422507"><ele>966</ele><speed>11.69</speed><time>2017-03-19T15:22:33Z</time><pdop>3.0</pdop><geoidheight>0.00</geoidheight><course>110.5</course><type>1</type></trkpt>
      <trkpt lat="42.9361019" lon="-2.28408819"><ele>967</ele><speed>11.58</speed><time>2017-03-19T15:22:34Z</time><pdop>3.0</pdop><geoidheight>0.00</geoidheight><course>111.9</course><type>1</type></trkpt>
      <trkpt lat="42.93605736" lon="-2.28394849"><ele>967</ele><speed>11.88</speed><time>2017-03-19T15:22:35Z</time><pdop>3.0</pdop><geoidheight>0.00</geoidheight><course>113.7</course><type>1</type></trkpt>
      <trkpt lat="42.93601802" lon="-2.28381967"><ele>968</ele><speed>11.87</speed><time>2017-03-19T15:22:36Z</time><pdop>3.0</pdop><geoidheight>0.00</geoidheight><course>113.1</course><type>1</type></trkpt>
      <trkpt lat="42.93599135" lon="-2.28369393"><ele>968</ele><speed>11.14</speed><time>2017-03-19T15:22:37Z</time><pdop>3.0</pdop><geoidheight>0.00</geoidheight><course>105.5</course><type>1</type></trkpt>
      <trkpt lat="42.93599569" lon="-2.28357268"><ele>969</ele><speed>10.57</speed><time>2017-03-19T15:22:38Z</time><pdop>3.0</pdop><geoidheight>0.00</geoidheight><course>93.8</course><type>1</type></trkpt>
      <trkpt lat="42.93601518" lon="-2.28345709"><ele>970</ele><speed>9.66</speed><time>2017-03-19T15:22:39Z</time><pdop>3.0</pdop><geoidheight>0.00</geoidheight><course>84.1</course><type>1</type></trkpt>
      <trkpt lat="42.93606416" lon="-2.28334705"><ele>970</ele><speed>9.57</speed><time>2017-03-19T15:22:40Z</time><pdop>3.0</pdop><geoidheight>0.00</geoidheight><course>69.3</course><type>1</type></trkpt>
      <trkpt lat="42.93611586" lon="-2.28328632"><ele>969</ele><speed>7.78</speed><time>2017-03-19T15:22:41Z</time><pdop>3.0</pdop><geoidheight>0.00</geoidheight><course>57.0</course><type>1</type></trkpt>
      <trkpt lat="42.93619206" lon="-2.28327253"><ele>972</ele><speed>2.93</speed><time>2017-03-19T15:22:43Z</time><pdop>3.0</pdop><geoidheight>0.00</geoidheight><course>19.2</course><type>1</type></trkpt>
      <trkpt lat="42.93622616" lon="-2.28320711"><ele>972</ele><speed>4.09</speed><time>2017-03-19T15:22:45Z</time><pdop>3.0</pdop><geoidheight>0.00</geoidheight><course>56.5</course><type>1</type></trkpt>
      <trkpt lat="42.93628912" lon="-2.28309013"><ele>971</ele><speed>6.74</speed><time>2017-03-19T15:22:47Z</time><pdop>3.0</pdop><geoidheight>0.00</geoidheight><course>53.7</course><type>1</type></trkpt>
      <trkpt lat="42.93632403" lon="-2.28303266"><ele>971</ele><speed>6.04</speed><time>2017-03-19T15:22:48Z</time><pdop>3.0</pdop><geoidheight>0.00</geoidheight><course>47.4</course><type>1</type></trkpt>
      <trkpt lat="42.93638642" lon="-2.28295217"><ele>973</ele><speed>4.28</speed><time>2017-03-19T15:22:50Z</time><pdop>3.0</pdop><geoidheight>0.00</geoidheight><course>40.7</course><type>1</type></trkpt>
      <trkpt lat="42.936447" lon="-2.28291485"><ele>974</ele><speed>3.20</speed><time>2017-03-19T15:22:52Z</time><pdop>3.0</pdop><geoidheight>0.00</geoidheight><course>29.2</course><type>1</type></trkpt>
      <trkpt lat="42.93649843" lon="-2.28298882"><ele>975</ele><speed>2.33</speed><time>2017-03-19T15:22:55Z</time><pdop>3.0</pdop><geoidheight>0.00</geoidheight><course>292.5</course><type>1</type></trkpt>
      <trkpt lat="42.93649086" lon="-2.2830695"><ele>974</ele><speed>3.24</speed><time>2017-03-19T15:22:57Z</time><pdop>3.0</pdop><geoidheight>0.00</geoidheight><course>263.2</course><type>1</type></trkpt>
      <trkpt lat="42.93649602" lon="-2.28316036"><ele>973</ele><speed>1.73</speed><time>2017-03-19T15:23:00Z</time><pdop>3.0</pdop><geoidheight>0.00</geoidheight><course>271.0</course><type>1</type></trkpt>
      <trkpt lat="42.9365571" lon="-2.28311006"><ele>968</ele><speed>4.39</speed><time>2017-03-19T15:23:03Z</time><pdop>3.0</pdop><geoidheight>0.00</geoidheight><course>38.4</course><type>1</type></trkpt>
      <trkpt lat="42.93661399" lon="-2.28299238"><ele>967</ele><speed>6.42</speed><time>2017-03-19T15:23:05Z</time><pdop>3.0</pdop><geoidheight>0.00</geoidheight><course>57.7</course><type>1</type></trkpt>
      <trkpt lat="42.93663975" lon="-2.28291103"><ele>967</ele><speed>6.80</speed><time>2017-03-19T15:23:06Z</time><pdop>3.0</pdop><geoidheight>0.00</geoidheight><course>70.8</course><type>1</type></trkpt>
      <trkpt lat="42.93665005" lon="-2.28282676"><ele>967</ele><speed>7.11</speed><time>2017-03-19T15:23:07Z</time><pdop>3.0</pdop><geoidheight>0.00</geoidheight><course>80.7</course><type>1</type></trkpt>
      <trkpt lat="42.93665331" lon="-2.2827354"><ele>968</ele><speed>7.69</speed><time>2017-03-19T15:23:08Z</time><pdop>3.0</pdop><geoidheight>0.00</geoidheight><course>87.2</course><type>1</type></trkpt>
      <trkpt lat="42.93665163" lon="-2.2826276"><ele>967</ele><speed>8.26</speed><time>2017-03-19T15:23:09Z</time><pdop>3.0</pdop><geoidheight>0.00</geoidheight><course>87.8</course><type>1</type></trkpt>
      <trkpt lat="42.93666124" lon="-2.28252395"><ele>967</ele><speed>8.43</speed><time>2017-03-19T15:23:10Z</time><pdop>3.0</pdop><geoidheight>0.00</geoidheight><course>83.8</course><type>1</type></trkpt>
      <trkpt lat="42.93667399" lon="-2.28243145"><ele>968</ele><speed>7.76</speed><time>2017-03-19T15:23:11Z</time><pdop>3.0</pdop><geoidheight>0.00</geoidheight><course>77.9</course><type>1</type></trkpt>
      <trkpt lat="42.93668917" lon="-2.28234673"><ele>967</ele><speed>7.04</speed><time>2017-03-19T15:23:12Z</time><pdop>3.0</pdop><geoidheight>0.00</geoidheight><course>76.0</course><type>1</type></trkpt>
      <trkpt lat="42.93669845" lon="-2.28227226"><ele>967</ele><speed>6.78</speed><time>2017-03-19T15:23:13Z</time><pdop>3.0</pdop><geoidheight>0.00</geoidheight><course>80.2</course><type>1</type></trkpt>
      <trkpt lat="42.93670378" lon="-2.28217506"><ele>965</ele><speed>7.66</speed><time>2017-03-19T15:23:14Z</time><pdop>3.0</pdop><geoidheight>0.00</geoidheight><course>84.4</course><type>1</type></trkpt>
      <trkpt lat="42.93671375" lon="-2.28206505"><ele>964</ele><speed>8.77</speed><time>2017-03-19T15:23:15Z</time><pdop>3.0</pdop><geoidheight>0.00</geoidheight><course>84.3</course><type>1</type></trkpt>
      <trkpt lat="42.93672412" lon="-2.2819434"><ele>963</ele><speed>9.64</speed><time>2017-03-19T15:23:16Z</time><pdop>3.0</pdop><geoidheight>0.00</geoidheight><course>82.9</course><type>1</type></trkpt>
      <trkpt lat="42.93674116" lon="-2.28183412"><ele>963</ele><speed>9.46</speed><time>2017-03-19T15:23:17Z</time><pdop>3.0</pdop><geoidheight>0.00</geoidheight><course>79.6</course><type>1</type></trkpt>
      <trkpt lat="42.93675251" lon="-2.28173039"><ele>963</ele><speed>8.42</speed><time>2017-03-19T15:23:18Z</time><pdop>3.0</pdop><geoidheight>0.00</geoidheight><course>80.2</course><type>1</type></trkpt>
      <trkpt lat="42.93676483" lon="-2.28163298"><ele>963</ele><speed>8.17</speed><time>2017-03-19T15:23:19Z</time><pdop>3.0</pdop><geoidheight>0.00</geoidheight><course>80.6</course><type>1</type></trkpt>
      <trkpt lat="42.93678044" lon="-2.28152419"><ele>961</ele><speed>8.87</speed><time>2017-03-19T15:23:20Z</time><pdop>3.0</pdop><geoidheight>0.00</geoidheight><course>79.3</course><type>1</type></trkpt>
      <trkpt lat="42.93679742" lon="-2.28141057"><ele>961</ele><speed>9.54</speed><time>2017-03-19T15:23:21Z</time><pdop>3.0</pdop><geoidheight>0.00</geoidheight><course>79.5</course><type>1</type></trkpt>
      <trkpt lat="42.93681005" lon="-2.28129192"><ele>962</ele><speed>9.75</speed><time>2017-03-19T15:23:22Z</time><pdop>3.0</pdop><geoidheight>0.00</geoidheight><course>82.0</course><type>1</type></trkpt>
      <trkpt lat="42.9368174" lon="-2.28117405"><ele>963</ele><speed>9.33</speed><time>2017-03-19T15:23:23Z</time><pdop>3.0</pdop><geoidheight>0.00</geoidheight><course>85.1</course><type>1</type></trkpt>
      <trkpt lat="42.936823" lon="-2.2810746"><ele>962</ele><speed>8.59</speed><time>2017-03-19T15:23:24Z</time><pdop>3.0</pdop><geoidheight>0.00</geoidheight><course>88.6</course><type>1</type></trkpt>
      <trkpt lat="42.93682579" lon="-2.28096918"><ele>961</ele><speed>8.68</speed><time>2017-03-19T15:23:25Z</time><pdop>3.0</pdop><geoidheight>0.00</geoidheight><course>88.9</course><type>1</type></trkpt>
      <trkpt lat="42.93682953" lon="-2.28085557"><ele>961</ele><speed>9.34</speed><time>2017-03-19T15:23:26Z</time><pdop>3.0</pdop><geoidheight>0.00</geoidheight><course>86.8</course><type>1</type></trkpt>
      <trkpt lat="42.93684136" lon="-2.28073761"><ele>960</ele><speed>9.92</speed><time>2017-03-19T15:23:27Z</time><pdop>3.0</pdop><geoidheight>0.00</geoidheight><course>83.8</course><type>1</type></trkpt>
      <trkpt lat="42.93685166" lon="-2.28061333"><ele>959</ele><speed>10.39</speed><time>2017-03-19T15:23:28Z</time><pdop>3.0</pdop><geoidheight>0.00</geoidheight><course>82.8</course><type>1</type></trkpt>
      <trkpt lat="42.93685966" lon="-2.28048929"><ele>959</ele><speed>10.38</speed><time>2017-03-19T15:23:29Z</time><pdop>3.0</pdop><geoidheight>0.00</geoidheight><course>84.0</course><type>1</type></trkpt>
      <trkpt lat="42.93686326" lon="-2.28036556"><ele>960</ele><speed>9.93</speed><time>2017-03-19T15:23:30Z</time><pdop>3.0</pdop><geoidheight>0.00</geoidheight><course>87.3</course><type>1</type></trkpt>
      <trkpt lat="42.93686293" lon="-2.28024349"><ele>960</ele><speed>9.93</speed><time>2017-03-19T15:23:31Z</time><pdop>3.0</pdop><geoidheight>0.00</geoidheight><course>89.7</course><type>1</type></trkpt>
      <trkpt lat="42.93686473" lon="-2.28011683"><ele>960</ele><speed>10.42</speed><time>2017-03-19T15:23:32Z</time><pdop>3.0</pdop><geoidheight>0.00</geoidheight><course>89.1</course><type>1</type></trkpt>
      <trkpt lat="42.93687034" lon="-2.27998277"><ele>960</ele><speed>10.89</speed><time>2017-03-19T15:23:33Z</time><pdop>3.0</pdop><geoidheight>0.00</geoidheight><course>88.5</course><type>1</type></trkpt>
      <trkpt lat="42.9368714" lon="-2.27985022"><ele>959</ele><speed>10.98</speed><time>2017-03-19T15:23:34Z</time><pdop>3.0</pdop><geoidheight>0.00</geoidheight><course>88.3</course><type>1</type></trkpt>
      <trkpt lat="42.93687809" lon="-2.27971651"><ele>959</ele><speed>10.99</speed><time>2017-03-19T15:23:35Z</time><pdop>3.0</pdop><geoidheight>0.00</geoidheight><course>86.7</course><type>1</type></trkpt>
      <trkpt lat="42.93688335" lon="-2.27958082"><ele>959</ele><speed>11.13</speed><time>2017-03-19T15:23:36Z</time><pdop>3.0</pdop><geoidheight>0.00</geoidheight><course>87.5</course><type>1</type></trkpt>
      <trkpt lat="42.93688404" lon="-2.2794354"><ele>960</ele><speed>11.69</speed><time>2017-03-19T15:23:37Z</time><pdop>3.0</pdop><geoidheight>0.00</geoidheight><course>90.0</course><type>1</type></trkpt>
      <trkpt lat="42.93688229" lon="-2.27928777"><ele>961</ele><speed>11.87</speed><time>2017-03-19T15:23:38Z</time><pdop>3.0</pdop><geoidheight>0.00</geoidheight><course>92.3</course><type>1</type></trkpt>
      <trkpt lat="42.93687984" lon="-2.27915137"><ele>962</ele><speed>11.23</speed><time>2017-03-19T15:23:39Z</time><pdop>3.0</pdop><geoidheight>0.00</geoidheight><course>92.9</course><type>1</type></trkpt>
      <trkpt lat="42.93687745" lon="-2.27902301"><ele>963</ele><speed>10.42</speed><time>2017-03-19T15:23:40Z</time><pdop>3.0</pdop><geoidheight>0.00</geoidheight><course>92.6</course><type>1</type></trkpt>
      <trkpt lat="42.93687547" lon="-2.27889566"><ele>963</ele><speed>10.15</speed><time>2017-03-19T15:23:41Z</time><pdop>3.0</pdop><geoidheight>0.00</geoidheight><course>91.7</course><type>1</type></trkpt>
      <trkpt lat="42.93687279" lon="-2.27876985"><ele>962</ele><speed>10.34</speed><time>2017-03-19T15:23:42Z</time><pdop>3.0</pdop><geoidheight>0.00</geoidheight><course>91.4</course><type>1</type></trkpt>
      <trkpt lat="42.93687425" lon="-2.27863766"><ele>961</ele><speed>10.85</speed><time>2017-03-19T15:23:43Z</time><pdop>3.0</pdop><geoidheight>0.00</geoidheight><course>90.0</course><type>1</type></trkpt>
      <trkpt lat="42.93687746" lon="-2.27849412"><ele>961</ele><speed>11.36</speed><time>2017-03-19T15:23:44Z</time><pdop>3.0</pdop><geoidheight>0.00</geoidheight><course>89.7</course><type>1</type></trkpt>
      <trkpt lat="42.93688135" lon="-2.27835288"><ele>962</ele><speed>11.33</speed><time>2017-03-19T15:23:45Z</time><pdop>3.0</pdop><geoidheight>0.00</geoidheight><course>90.1</course><type>1</type></trkpt>
      <trkpt lat="42.93687227" lon="-2.27821647"><ele>963</ele><speed>10.84</speed><time>2017-03-19T15:23:46Z</time><pdop>3.0</pdop><geoidheight>0.00</geoidheight><course>95.9</course><type>1</type></trkpt>
      <trkpt lat="42.93685546" lon="-2.27809187"><ele>963</ele><speed>10.30</speed><time>2017-03-19T15:23:47Z</time><pdop>3.0</pdop><geoidheight>0.00</geoidheight><course>100.9</course><type>1</type></trkpt>
      <trkpt lat="42.93684152" lon="-2.27797356"><ele>963</ele><speed>10.02</speed><time>2017-03-19T15:23:48Z</time><pdop>3.0</pdop><geoidheight>0.00</geoidheight><course>98.6</course><type>1</type></trkpt>
      <trkpt lat="42.93683878" lon="-2.27783677"><ele>963</ele><speed>10.60</speed><time>2017-03-19T15:23:49Z</time><pdop>3.0</pdop><geoidheight>0.00</geoidheight><course>99.0</course><type>1</type></trkpt>
      <trkpt lat="42.93684286" lon="-2.277716"><ele>963</ele><speed>9.71</speed><time>2017-03-19T15:23:50Z</time><pdop>3.0</pdop><geoidheight>0.00</geoidheight><course>91.9</course><type>1</type></trkpt>
      <trkpt lat="42.93683926" lon="-2.27760562"><ele>963</ele><speed>9.24</speed><time>2017-03-19T15:23:51Z</time><pdop>3.0</pdop><geoidheight>0.00</geoidheight><course>92.9</course><type>1</type></trkpt>
      <trkpt lat="42.93683518" lon="-2.27748885"><ele>963</ele><speed>9.17</speed><time>2017-03-19T15:23:52Z</time><pdop>3.0</pdop><geoidheight>0.00</geoidheight><course>94.3</course><type>1</type></trkpt>
      <trkpt lat="42.93683448" lon="-2.27737356"><ele>963</ele><speed>9.37</speed><time>2017-03-19T15:23:53Z</time><pdop>3.0</pdop><geoidheight>0.00</geoidheight><course>89.9</course><type>1</type></trkpt>
      <trkpt lat="42.93684224" lon="-2.27725733"><ele>963</ele><speed>9.55</speed><time>2017-03-19T15:23:54Z</time><pdop>3.0</pdop><geoidheight>0.00</geoidheight><course>87.0</course><type>1</type></trkpt>
      <trkpt lat="42.93684293" lon="-2.27714082"><ele>963</ele><speed>9.40</speed><time>2017-03-19T15:23:55Z</time><pdop>3.0</pdop><geoidheight>0.00</geoidheight><course>88.8</course><type>1</type></trkpt>
      <trkpt lat="42.93683699" lon="-2.27702818"><ele>964</ele><speed>9.17</speed><time>2017-03-19T15:23:56Z</time><pdop>3.0</pdop><geoidheight>0.00</geoidheight><course>94.4</course><type>1</type></trkpt>
      <trkpt lat="42.93682241" lon="-2.27692012"><ele>965</ele><speed>9.34</speed><time>2017-03-19T15:23:57Z</time><pdop>3.0</pdop><geoidheight>0.00</geoidheight><course>98.0</course><type>1</type></trkpt>
      <trkpt lat="42.93681153" lon="-2.27680677"><ele>964</ele><speed>9.58</speed><time>2017-03-19T15:23:58Z</time><pdop>3.0</pdop><geoidheight>0.00</geoidheight><course>97.8</course><type>1</type></trkpt>
      <trkpt lat="42.93680421" lon="-2.27668784"><ele>964</ele><speed>9.66</speed><time>2017-03-19T15:23:59Z</time><pdop>3.0</pdop><geoidheight>0.00</geoidheight><course>95.3</course><type>1</type></trkpt>
      <trkpt lat="42.93679778" lon="-2.27657952"><ele>964</ele><speed>9.37</speed><time>2017-03-19T15:24:00Z</time><pdop>3.0</pdop><geoidheight>0.00</geoidheight><course>94.7</course><type>1</type></trkpt>
      <trkpt lat="42.93678661" lon="-2.27647114"><ele>964</ele><speed>9.34</speed><time>2017-03-19T15:24:01Z</time><pdop>3.0</pdop><geoidheight>0.00</geoidheight><course>96.5</course><type>1</type></trkpt>
      <trkpt lat="42.93677287" lon="-2.27635964"><ele>964</ele><speed>9.20</speed><time>2017-03-19T15:24:02Z</time><pdop>3.0</pdop><geoidheight>0.00</geoidheight><course>99.0</course><type>1</type></trkpt>
      <trkpt lat="42.93676607" lon="-2.27624778"><ele>965</ele><speed>9.15</speed><time>2017-03-19T15:24:03Z</time><pdop>3.0</pdop><geoidheight>0.00</geoidheight><course>98.4</course><type>1</type></trkpt>
      <trkpt lat="42.93675788" lon="-2.2761351"><ele>965</ele><speed>9.58</speed><time>2017-03-19T15:24:04Z</time><pdop>3.0</pdop><geoidheight>0.00</geoidheight><course>94.6</course><type>1</type></trkpt>
      <trkpt lat="42.93675606" lon="-2.27600964"><ele>965</ele><speed>9.94</speed><time>2017-03-19T15:24:05Z</time><pdop>3.0</pdop><geoidheight>0.00</geoidheight><course>92.1</course><type>1</type></trkpt>
      <trkpt lat="42.93675279" lon="-2.27588613"><ele>965</ele><speed>10.00</speed><time>2017-03-19T15:24:06Z</time><pdop>3.0</pdop><geoidheight>0.00</geoidheight><course>91.4</course><type>1</type></trkpt>
      <trkpt lat="42.93675066" lon="-2.27576797"><ele>966</ele><speed>9.52</speed><time>2017-03-19T15:24:07Z</time><pdop>3.0</pdop><geoidheight>0.00</geoidheight><course>91.9</course><type>1</type></trkpt>
      <trkpt lat="42.93674723" lon="-2.27565438"><ele>966</ele><speed>8.95</speed><time>2017-03-19T15:24:08Z</time><pdop>3.0</pdop><geoidheight>0.00</geoidheight><course>93.3</course><type>1</type></trkpt>
      <trkpt lat="42.93673633" lon="-2.27554942"><ele>966</ele><speed>8.75</speed><time>2017-03-19T15:24:09Z</time><pdop>3.0</pdop><geoidheight>0.00</geoidheight><course>96.6</course><type>1</type></trkpt>
      <trkpt lat="42.93672538" lon="-2.27543496"><ele>964</ele><speed>9.43</speed><time>2017-03-19T15:24:10Z</time><pdop>3.0</pdop><geoidheight>0.00</geoidheight><course>98.1</course><type>1</type></trkpt>
      <trkpt lat="42.93671801" lon="-2.27530979"><ele>962</ele><speed>10.50</speed><time>2017-03-19T15:24:11Z</time><pdop>3.0</pdop><geoidheight>0.00</geoidheight><course>95.8</course><type>1</type></trkpt>
      <trkpt lat="42.93671815" lon="-2.27517105"><ele>960</ele><speed>11.10</speed><time>2017-03-19T15:24:12Z</time><pdop>3.0</pdop><geoidheight>0.00</geoidheight><course>91.7</course><type>1</type></trkpt>
      <trkpt lat="42.93672031" lon="-2.27503141"><ele>960</ele><speed>11.00</speed><time>2017-03-19T15:24:13Z</time><pdop>3.0</pdop><geoidheight>0.00</geoidheight><course>89.3</course><type>1</type></trkpt>
      <trkpt lat="42.93671626" lon="-2.2749084"><ele>960</ele><speed>10.48</speed><time>2017-03-19T15:24:14Z</time><pdop>3.0</pdop><geoidheight>0.00</geoidheight><course>93.1</course><type>1</type></trkpt>
      <trkpt lat="42.93669669" lon="-2.2747866"><ele>960</ele><speed>10.22</speed><time>2017-03-19T15:24:15Z</time><pdop>3.0</pdop><geoidheight>0.00</geoidheight><course>98.9</course><type>1</type></trkpt>
      <trkpt lat="42.93667629" lon="-2.27467047"><ele>960</ele><speed>9.97</speed><time>2017-03-19T15:24:16Z</time><pdop>3.0</pdop><geoidheight>0.00</geoidheight><course>102.7</course><type>1</type></trkpt>
      <trkpt lat="42.93665612" lon="-2.27455405"><ele>960</ele><speed>9.83</speed><time>2017-03-19T15:24:17Z</time><pdop>3.0</pdop><geoidheight>0.00</geoidheight><course>103.8</course><type>1</type></trkpt>
      <trkpt lat="42.93663746" lon="-2.27443673"><ele>959</ele><speed>9.79</speed><time>2017-03-19T15:24:18Z</time><pdop>3.0</pdop><geoidheight>0.00</geoidheight><course>103.8</course><type>1</type></trkpt>
      <trkpt lat="42.93660932" lon="-2.27432772"><ele>960</ele><speed>9.30</speed><time>2017-03-19T15:24:19Z</time><pdop>3.0</pdop><geoidheight>0.00</geoidheight><course>107.0</course><type>1</type></trkpt>
      <trkpt lat="42.9365865" lon="-2.27422046"><ele>960</ele><speed>9.33</speed><time>2017-03-19T15:24:20Z</time><pdop>3.0</pdop><geoidheight>0.00</geoidheight><course>108.8</course><type>1</type></trkpt>
      <trkpt lat="42.93655534" lon="-2.27411586"><ele>960</ele><speed>9.27</speed><time>2017-03-19T15:24:21Z</time><pdop>3.0</pdop><geoidheight>0.00</geoidheight><course>110.2</course><type>1</type></trkpt>
      <trkpt lat="42.93652952" lon="-2.27400964"><ele>959</ele><speed>9.22</speed><time>2017-03-19T15:24:22Z</time><pdop>3.0</pdop><geoidheight>0.00</geoidheight><course>108.6</course><type>1</type></trkpt>
      <trkpt lat="42.9365097" lon="-2.27390609"><ele>959</ele><speed>8.83</speed><time>2017-03-19T15:24:23Z</time><pdop>3.0</pdop><geoidheight>0.00</geoidheight><course>105.9</course><type>1</type></trkpt>
      <trkpt lat="42.93649085" lon="-2.27380081"><ele>959</ele><speed>9.01</speed><time>2017-03-19T15:24:24Z</time><pdop>3.0</pdop><geoidheight>0.00</geoidheight><course>103.0</course><type>1</type></trkpt>
      <trkpt lat="42.93647577" lon="-2.27368544"><ele>959</ele><speed>9.19</speed><time>2017-03-19T15:24:25Z</time><pdop>3.0</pdop><geoidheight>0.00</geoidheight><course>101.0</course><type>1</type></trkpt>
      <trkpt lat="42.93646002" lon="-2.2735729"><ele>959</ele><speed>9.39</speed><time>2017-03-19T15:24:26Z</time><pdop>3.0</pdop><geoidheight>0.00</geoidheight><course>100.7</course><type>1</type></trkpt>
      <trkpt lat="42.93644651" lon="-2.27345358"><ele>959</ele><speed>9.56</speed><time>2017-03-19T15:24:27Z</time><pdop>3.0</pdop><geoidheight>0.00</geoidheight><course>100.6</course><type>1</type></trkpt>
      <trkpt lat="42.93642243" lon="-2.27334055"><ele>960</ele><speed>9.88</speed><time>2017-03-19T15:24:28Z</time><pdop>3.0</pdop><geoidheight>0.00</geoidheight><course>104.5</course><type>1</type></trkpt>
      <trkpt lat="42.93639379" lon="-2.27321731"><ele>961</ele><speed>10.75</speed><time>2017-03-19T15:24:29Z</time><pdop>3.0</pdop><geoidheight>0.00</geoidheight><course>106.9</course><type>1</type></trkpt>
      <trkpt lat="42.93636261" lon="-2.27309146"><ele>963</ele><speed>10.94</speed><time>2017-03-19T15:24:30Z</time><pdop>3.0</pdop><geoidheight>0.00</geoidheight><course>109.4</course><type>1</type></trkpt>
      <trkpt lat="42.93632482" lon="-2.27296638"><ele>965</ele><speed>10.67</speed><time>2017-03-19T15:24:31Z</time><pdop>3.0</pdop><geoidheight>0.00</geoidheight><course>112.4</course><type>1</type></trkpt>
      <trkpt lat="42.93628485" lon="-2.27284771"><ele>967</ele><speed>10.52</speed><time>2017-03-19T15:24:32Z</time><pdop>3.0</pdop><geoidheight>0.00</geoidheight><course>115.4</course><type>1</type></trkpt>
      <trkpt lat="42.93624566" lon="-2.27273596"><ele>968</ele><speed>9.98</speed><time>2017-03-19T15:24:33Z</time><pdop>3.0</pdop><geoidheight>0.00</geoidheight><course>116.0</course><type>1</type></trkpt>
      <trkpt lat="42.93621802" lon="-2.27263654"><ele>969</ele><speed>8.70</speed><time>2017-03-19T15:24:34Z</time><pdop>3.0</pdop><geoidheight>0.00</geoidheight><course>110.7</course><type>1</type></trkpt>
      <trkpt lat="42.93620612" lon="-2.27253214"><ele>968</ele><speed>8.34</speed><time>2017-03-19T15:24:35Z</time><pdop>3.0</pdop><geoidheight>0.00</geoidheight><course>103.5</course><type>1</type></trkpt>
      <trkpt lat="42.93620657" lon="-2.27242717"><ele>968</ele><speed>8.37</speed><time>2017-03-19T15:24:36Z</time><pdop>3.0</pdop><geoidheight>0.00</geoidheight><course>94.5</course><type>1</type></trkpt>
      <trkpt lat="42.9362582" lon="-2.27233358"><ele>968</ele><speed>8.49</speed><time>2017-03-19T15:24:37Z</time><pdop>3.0</pdop><geoidheight>0.00</geoidheight><course>65.6</course><type>1</type></trkpt>
      <trkpt lat="42.93629654" lon="-2.27227252"><ele>969</ele><speed>6.95</speed><time>2017-03-19T15:24:38Z</time><pdop>3.0</pdop><geoidheight>0.00</geoidheight><course>51.3</course><type>1</type></trkpt>
      <trkpt lat="42.93636608" lon="-2.27229189"><ele>971</ele><speed>3.46</speed><time>2017-03-19T15:24:40Z</time><pdop>3.0</pdop><geoidheight>0.00</geoidheight><course>318.6</course><type>1</type></trkpt>
      <trkpt lat="42.93636971" lon="-2.27243146"><ele>968</ele><speed>6.23</speed><time>2017-03-19T15:24:42Z</time><pdop>3.0</pdop><geoidheight>0.00</geoidheight><course>265.0</course><type>1</type></trkpt>
      <trkpt lat="42.93631531" lon="-2.27252506"><ele>967</ele><speed>8.59</speed><time>2017-03-19T15:24:43Z</time><pdop>3.0</pdop><geoidheight>0.00</geoidheight><course>235.7</course><type>1</type></trkpt>
      <trkpt lat="42.93623235" lon="-2.27260638"><ele>965</ele><speed>10.48</speed><time>2017-03-19T15:24:44Z</time><pdop>3.0</pdop><geoidheight>0.00</geoidheight><course>215.9</course><type>1</type></trkpt>
      <trkpt lat="42.93612746" lon="-2.27265127"><ele>964</ele><speed>12.52</speed><time>2017-03-19T15:24:45Z</time><pdop>3.0</pdop><geoidheight>0.00</geoidheight><course>197.8</course><type>1</type></trkpt>
      <trkpt lat="42.93599263" lon="-2.2726486"><ele>963</ele><speed>14.44</speed><time>2017-03-19T15:24:46Z</time><pdop>3.0</pdop><geoidheight>0.00</geoidheight><course>180.5</course><type>1</type></trkpt>
      <trkpt lat="42.93585454" lon="-2.27260075"><ele>963</ele><speed>15.86</speed><time>2017-03-19T15:24:47Z</time><pdop>3.0</pdop><geoidheight>0.00</geoidheight><course>167.0</course><type>1</type></trkpt>
      <trkpt lat="42.93572426" lon="-2.27251967"><ele>964</ele><speed>15.58</speed><time>2017-03-19T15:24:48Z</time><pdop>3.0</pdop><geoidheight>0.00</geoidheight><course>157.0</course><type>1</type></trkpt>
      <trkpt lat="42.9356176" lon="-2.27242222"><ele>966</ele><speed>14.04</speed><time>2017-03-19T15:24:49Z</time><pdop>3.0</pdop><geoidheight>0.00</geoidheight><course>147.3</course><type>1</type></trkpt>
      <trkpt lat="42.93553785" lon="-2.2723107"><ele>968</ele><speed>12.47</speed><time>2017-03-19T15:24:50Z</time><pdop>3.0</pdop><geoidheight>0.00</geoidheight><course>136.5</course><type>1</type></trkpt>
      <trkpt lat="42.93548322" lon="-2.27220186"><ele>968</ele><speed>11.01</speed><time>2017-03-19T15:24:51Z</time><pdop>3.0</pdop><geoidheight>0.00</geoidheight><course>125.4</course><type>1</type></trkpt>
      <trkpt lat="42.93544495" lon="-2.27208724"><ele>967</ele><speed>10.31</speed><time>2017-03-19T15:24:52Z</time><pdop>3.0</pdop><geoidheight>0.00</geoidheight><course>116.2</course><type>1</type></trkpt>
      <trkpt lat="42.93541577" lon="-2.27196041"><ele>966</ele><speed>10.67</speed><time>2017-03-19T15:24:53Z</time><pdop>3.0</pdop><geoidheight>0.00</geoidheight><course>107.5</course><type>1</type></trkpt>
      <trkpt lat="42.93539773" lon="-2.27182797"><ele>966</ele><speed>10.87</speed><time>2017-03-19T15:24:54Z</time><pdop>3.0</pdop><geoidheight>0.00</geoidheight><course>99.9</course><type>1</type></trkpt>
      <trkpt lat="42.93539207" lon="-2.27170526"><ele>967</ele><speed>10.10</speed><time>2017-03-19T15:24:55Z</time><pdop>3.0</pdop><geoidheight>0.00</geoidheight><course>93.8</course><type>1</type></trkpt>
      <trkpt lat="42.9353846" lon="-2.27159007"><ele>967</ele><speed>9.66</speed><time>2017-03-19T15:24:56Z</time><pdop>3.0</pdop><geoidheight>0.00</geoidheight><course>94.1</course><type>1</type></trkpt>
      <trkpt lat="42.93536282" lon="-2.2714686"><ele>968</ele><speed>10.00</speed><time>2017-03-19T15:24:57Z</time><pdop>3.0</pdop><geoidheight>0.00</geoidheight><course>101.5</course><type>1</type></trkpt>
      <trkpt lat="42.93533191" lon="-2.27134261"><ele>967</ele><speed>11.06</speed><time>2017-03-19T15:24:58Z</time><pdop>3.0</pdop><geoidheight>0.00</geoidheight><course>109.1</course><type>1</type></trkpt>
      <trkpt lat="42.93528515" lon="-2.27119678"><ele>968</ele><speed>12.14</speed><time>2017-03-19T15:24:59Z</time><pdop>3.0</pdop><geoidheight>0.00</geoidheight><course>114.7</course><type>1</type></trkpt>
      <trkpt lat="42.93523191" lon="-2.27107015"><ele>968</ele><speed>12.32</speed><time>2017-03-19T15:25:00Z</time><pdop>3.0</pdop><geoidheight>0.00</geoidheight><course>118.7</course><type>1</type></trkpt>
      <trkpt lat="42.93517327" lon="-2.27093693"><ele>968</ele><speed>12.26</speed><time>2017-03-19T15:25:01Z</time><pdop>3.0</pdop><geoidheight>0.00</geoidheight><course>122.6</course><type>1</type></trkpt>
      <trkpt lat="42.93511074" lon="-2.27081539"><ele>969</ele><speed>12.46</speed><time>2017-03-19T15:25:02Z</time><pdop>3.0</pdop><geoidheight>0.00</geoidheight><course>124.9</course><type>1</type></trkpt>
      <trkpt lat="42.93505392" lon="-2.2706933"><ele>970</ele><speed>12.24</speed><time>2017-03-19T15:25:03Z</time><pdop>3.0</pdop><geoidheight>0.00</geoidheight><course>123.5</course><type>1</type></trkpt>
      <trkpt lat="42.9349999" lon="-2.27056851"><ele>970</ele><speed>11.99</speed><time>2017-03-19T15:25:04Z</time><pdop>3.0</pdop><geoidheight>0.00</geoidheight><course>119.8</course><type>1</type></trkpt>
      <trkpt lat="42.93495194" lon="-2.27043416"><ele>970</ele><speed>12.17</speed><time>2017-03-19T15:25:05Z</time><pdop>3.0</pdop><geoidheight>0.00</geoidheight><course>116.5</course><type>1</type></trkpt>
      <trkpt lat="42.93490529" lon="-2.27030157"><ele>970</ele><speed>11.83</speed><time>2017-03-19T15:25:06Z</time><pdop>3.0</pdop><geoidheight>0.00</geoidheight><course>115.1</course><type>1</type></trkpt>
      <trkpt lat="42.93486311" lon="-2.27017681"><ele>971</ele><speed>11.24</speed><time>2017-03-19T15:25:07Z</time><pdop>3.0</pdop><geoidheight>0.00</geoidheight><course>114.1</course><type>1</type></trkpt>
      <trkpt lat="42.93482582" lon="-2.2700515"><ele>971</ele><speed>10.74</speed><time>2017-03-19T15:25:08Z</time><pdop>3.0</pdop><geoidheight>0.00</geoidheight><course>112.3</course><type>1</type></trkpt>
      <trkpt lat="42.93479118" lon="-2.26993255"><ele>971</ele><speed>10.45</speed><time>2017-03-19T15:25:09Z</time><pdop>3.0</pdop><geoidheight>0.00</geoidheight><course>110.4</course><type>1</type></trkpt>
      <trkpt lat="42.93476256" lon="-2.26981405"><ele>971</ele><speed>10.24</speed><time>2017-03-19T15:25:10Z</time><pdop>3.0</pdop><geoidheight>0.00</geoidheight><course>108.8</course><type>1</type></trkpt>
      <trkpt lat="42.9347384" lon="-2.26969563"><ele>970</ele><speed>9.96</speed><time>2017-03-19T15:25:11Z</time><pdop>3.0</pdop><geoidheight>0.00</geoidheight><course>105.8</course><type>1</type></trkpt>
      <trkpt lat="42.93471652" lon="-2.26957792"><ele>969</ele><speed>10.04</speed><time>2017-03-19T15:25:12Z</time><pdop>3.0</pdop><geoidheight>0.00</geoidheight><course>103.6</course><type>1</type></trkpt>
      <trkpt lat="42.93470387" lon="-2.26945456"><ele>967</ele><speed>10.34</speed><time>2017-03-19T15:25:13Z</time><pdop>3.0</pdop><geoidheight>0.00</geoidheight><course>98.4</course><type>1</type></trkpt>
      <trkpt lat="42.93470372" lon="-2.26932467"><ele>966</ele><speed>10.51</speed><time>2017-03-19T15:25:14Z</time><pdop>3.0</pdop><geoidheight>0.00</geoidheight><course>93.3</course><type>1</type></trkpt>
      <trkpt lat="42.93470391" lon="-2.26920259"><ele>966</ele><speed>10.14</speed><time>2017-03-19T15:25:15Z</time><pdop>3.0</pdop><geoidheight>0.00</geoidheight><course>89.4</course><type>1</type></trkpt>
      <trkpt lat="42.93470882" lon="-2.2690902"><ele>967</ele><speed>9.42</speed><time>2017-03-19T15:25:16Z</time><pdop>3.0</pdop><geoidheight>0.00</geoidheight><course>85.0</course><type>1</type></trkpt>
      <trkpt lat="42.93471409" lon="-2.26899558"><ele>966</ele><speed>8.28</speed><time>2017-03-19T15:25:17Z</time><pdop>3.0</pdop><geoidheight>0.00</geoidheight><course>84.6</course><type>1</type></trkpt>
      <trkpt lat="42.93471361" lon="-2.26890834"><ele>965</ele><speed>7.29</speed><time>2017-03-19T15:25:18Z</time><pdop>3.0</pdop><geoidheight>0.00</geoidheight><course>88.8</course><type>1</type></trkpt>
      <trkpt lat="42.93471157" lon="-2.26882009"><ele>964</ele><speed>7.42</speed><time>2017-03-19T15:25:19Z</time><pdop>3.0</pdop><geoidheight>0.00</geoidheight><course>91.4</course><type>1</type></trkpt>
      <trkpt lat="42.93471004" lon="-2.26872196"><ele>963</ele><speed>8.41</speed><time>2017-03-19T15:25:20Z</time><pdop>3.0</pdop><geoidheight>0.00</geoidheight><course>89.4</course><type>1</type></trkpt>
      <trkpt lat="42.93471688" lon="-2.26861265"><ele>961</ele><speed>9.16</speed><time>2017-03-19T15:25:21Z</time><pdop>3.0</pdop><geoidheight>0.00</geoidheight><course>85.6</course><type>1</type></trkpt>
      <trkpt lat="42.93474334" lon="-2.26849681"><ele>959</ele><speed>9.26</speed><time>2017-03-19T15:25:22Z</time><pdop>3.0</pdop><geoidheight>0.00</geoidheight><course>78.8</course><type>1</type></trkpt>
      <trkpt lat="42.93477224" lon="-2.26839097"><ele>958</ele><speed>8.94</speed><time>2017-03-19T15:25:23Z</time><pdop>3.0</pdop><geoidheight>0.00</geoidheight><course>73.2</course><type>1</type></trkpt>
      <trkpt lat="42.9347935" lon="-2.2682923"><ele>956</ele><speed>8.51</speed><time>2017-03-19T15:25:24Z</time><pdop>3.0</pdop><geoidheight>0.00</geoidheight><course>73.0</course><type>1</type></trkpt>
      <trkpt lat="42.9348102" lon="-2.26820032"><ele>955</ele><speed>8.29</speed><time>2017-03-19T15:25:25Z</time><pdop>3.0</pdop><geoidheight>0.00</geoidheight><course>76.4</course><type>1</type></trkpt>
      <trkpt lat="42.93483076" lon="-2.26809399"><ele>953</ele><speed>8.86</speed><time>2017-03-19T15:25:26Z</time><pdop>3.0</pdop><geoidheight>0.00</geoidheight><course>77.1</course><type>1</type></trkpt>
      <trkpt lat="42.93485337" lon="-2.26797847"><ele>951</ele><speed>9.91</speed><time>2017-03-19T15:25:27Z</time><pdop>3.0</pdop><geoidheight>0.00</geoidheight><course>73.8</course><type>1</type></trkpt>
      <trkpt lat="42.93488546" lon="-2.26785541"><ele>949</ele><speed>10.68</speed><time>2017-03-19T15:25:28Z</time><pdop>3.0</pdop><geoidheight>0.00</geoidheight><course>69.2</course><type>1</type></trkpt>
      <trkpt lat="42.93492218" lon="-2.26773752"><ele>949</ele><speed>10.52</speed><time>2017-03-19T15:25:29Z</time><pdop>3.0</pdop><geoidheight>0.00</geoidheight><course>67.2</course><type>1</type></trkpt>
      <trkpt lat="42.934952" lon="-2.26762496"><ele>949</ele><speed>9.63</speed><time>2017-03-19T15:25:30Z</time><pdop>3.0</pdop><geoidheight>0.00</geoidheight><course>69.0</course><type>1</type></trkpt>
      <trkpt lat="42.93497002" lon="-2.2675236"><ele>949</ele><speed>8.69</speed><time>2017-03-19T15:25:31Z</time><pdop>3.0</pdop><geoidheight>0.00</geoidheight><course>74.4</course><type>1</type></trkpt>
      <trkpt lat="42.93498107" lon="-2.2674216"><ele>950</ele><speed>8.24</speed><time>2017-03-19T15:25:32Z</time><pdop>3.0</pdop><geoidheight>0.00</geoidheight><course>80.0</course><type>1</type></trkpt>
      <trkpt lat="42.93498956" lon="-2.26732241"><ele>949</ele><speed>8.32</speed><time>2017-03-19T15:25:33Z</time><pdop>3.0</pdop><geoidheight>0.00</geoidheight><course>80.3</course><type>1</type></trkpt>
      <trkpt lat="42.93500888" lon="-2.26723113"><ele>949</ele><speed>8.10</speed><time>2017-03-19T15:25:34Z</time><pdop>3.0</pdop><geoidheight>0.00</geoidheight><course>74.2</course><type>1</type></trkpt>
      <trkpt lat="42.93504456" lon="-2.26714462"><ele>948</ele><speed>7.92</speed><time>2017-03-19T15:25:35Z</time><pdop>3.0</pdop><geoidheight>0.00</geoidheight><course>63.8</course><type>1</type></trkpt>
      <trkpt lat="42.93508984" lon="-2.26707046"><ele>948</ele><speed>7.64</speed><time>2017-03-19T15:25:36Z</time><pdop>3.0</pdop><geoidheight>0.00</geoidheight><course>54.3</course><type>1</type></trkpt>
      <trkpt lat="42.93512881" lon="-2.26699361"><ele>948</ele><speed>7.72</speed><time>2017-03-19T15:25:37Z</time><pdop>3.0</pdop><geoidheight>0.00</geoidheight><course>54.9</course><type>1</type></trkpt>
      <trkpt lat="42.9351598" lon="-2.2669081"><ele>949</ele><speed>7.78</speed><time>2017-03-19T15:25:38Z</time><pdop>3.0</pdop><geoidheight>0.00</geoidheight><course>63.3</course><type>1</type></trkpt>
      <trkpt lat="42.93518143" lon="-2.26681199"><ele>948</ele><speed>8.18</speed><time>2017-03-19T15:25:39Z</time><pdop>3.0</pdop><geoidheight>0.00</geoidheight><course>70.5</course><type>1</type></trkpt>
      <trkpt lat="42.93520845" lon="-2.26670921"><ele>947</ele><speed>8.66</speed><time>2017-03-19T15:25:40Z</time><pdop>3.0</pdop><geoidheight>0.00</geoidheight><course>74.5</course><type>1</type></trkpt>
      <trkpt lat="42.935228" lon="-2.26660012"><ele>945</ele><speed>9.07</speed><time>2017-03-19T15:25:41Z</time><pdop>3.0</pdop><geoidheight>0.00</geoidheight><course>75.7</course><type>1</type></trkpt>
      <trkpt lat="42.93525032" lon="-2.26649085"><ele>944</ele><speed>9.52</speed><time>2017-03-19T15:25:42Z</time><pdop>3.0</pdop><geoidheight>0.00</geoidheight><course>77.2</course><type>1</type></trkpt>
      <trkpt lat="42.93526558" lon="-2.26636104"><ele>943</ele><speed>10.47</speed><time>2017-03-19T15:25:43Z</time><pdop>3.0</pdop><geoidheight>0.00</geoidheight><course>78.8</course><type>1</type></trkpt>
      <trkpt lat="42.93529478" lon="-2.26622581"><ele>941</ele><speed>11.18</speed><time>2017-03-19T15:25:44Z</time><pdop>3.0</pdop><geoidheight>0.00</geoidheight><course>74.1</course><type>1</type></trkpt>
      <trkpt lat="42.93532712" lon="-2.26609442"><ele>941</ele><speed>11.64</speed><time>2017-03-19T15:25:45Z</time><pdop>3.0</pdop><geoidheight>0.00</geoidheight><course>72.8</course><type>1</type></trkpt>
      <trkpt lat="42.93535832" lon="-2.26598015"><ele>939</ele><speed>10.48</speed><time>2017-03-19T15:25:46Z</time><pdop>3.0</pdop><geoidheight>0.00</geoidheight><course>69.8</course><type>1</type></trkpt>
      <trkpt lat="42.93537916" lon="-2.26587469"><ele>939</ele><speed>9.13</speed><time>2017-03-19T15:25:47Z</time><pdop>3.0</pdop><geoidheight>0.00</geoidheight><course>72.5</course><type>1</type></trkpt>
      <trkpt lat="42.93539448" lon="-2.26576134"><ele>939</ele><speed>9.46</speed><time>2017-03-19T15:25:48Z</time><pdop>3.0</pdop><geoidheight>0.00</geoidheight><course>78.5</course><type>1</type></trkpt>
      <trkpt lat="42.93540882" lon="-2.26563601"><ele>938</ele><speed>10.20</speed><time>2017-03-19T15:25:49Z</time><pdop>3.0</pdop><geoidheight>0.00</geoidheight><course>78.9</course><type>1</type></trkpt>
      <trkpt lat="42.93541615" lon="-2.26548917"><ele>936</ele><speed>11.69</speed><time>2017-03-19T15:25:50Z</time><pdop>3.0</pdop><geoidheight>0.00</geoidheight><course>84.3</course><type>1</type></trkpt>
      <trkpt lat="42.93542701" lon="-2.2653411"><ele>935</ele><speed>12.21</speed><time>2017-03-19T15:25:51Z</time><pdop>3.0</pdop><geoidheight>0.00</geoidheight><course>84.9</course><type>1</type></trkpt>
      <trkpt lat="42.93542628" lon="-2.26520088"><ele>934</ele><speed>12.14</speed><time>2017-03-19T15:25:52Z</time><pdop>3.0</pdop><geoidheight>0.00</geoidheight><course>88.9</course><type>1</type></trkpt>
      <trkpt lat="42.93542813" lon="-2.26505374"><ele>935</ele><speed>11.79</speed><time>2017-03-19T15:25:53Z</time><pdop>3.0</pdop><geoidheight>0.00</geoidheight><course>89.8</course><type>1</type></trkpt>
      <trkpt lat="42.93540285" lon="-2.26492573"><ele>934</ele><speed>11.33</speed><time>2017-03-19T15:25:54Z</time><pdop>3.0</pdop><geoidheight>0.00</geoidheight><course>98.3</course><type>1</type></trkpt>
      <trkpt lat="42.93539123" lon="-2.2647898"><ele>932</ele><speed>11.78</speed><time>2017-03-19T15:25:55Z</time><pdop>3.0</pdop><geoidheight>0.00</geoidheight><course>97.3</course><type>1</type></trkpt>
      <trkpt lat="42.9353812" lon="-2.26464307"><ele>930</ele><speed>12.40</speed><time>2017-03-19T15:25:56Z</time><pdop>3.0</pdop><geoidheight>0.00</geoidheight><course>95.9</course><type>1</type></trkpt>
      <trkpt lat="42.93536992" lon="-2.26448825"><ele>929</ele><speed>12.46</speed><time>2017-03-19T15:25:57Z</time><pdop>3.0</pdop><geoidheight>0.00</geoidheight><course>95.4</course><type>1</type></trkpt>
      <trkpt lat="42.93535484" lon="-2.26435339"><ele>930</ele><speed>11.00</speed><time>2017-03-19T15:25:58Z</time><pdop>3.0</pdop><geoidheight>0.00</geoidheight><course>96.6</course><type>1</type></trkpt>
      <trkpt lat="42.93534153" lon="-2.26423553"><ele>930</ele><speed>9.97</speed><time>2017-03-19T15:25:59Z</time><pdop>3.0</pdop><geoidheight>0.00</geoidheight><course>98.3</course><type>1</type></trkpt>
      <trkpt lat="42.93532561" lon="-2.26411986"><ele>930</ele><speed>9.77</speed><time>2017-03-19T15:26:00Z</time><pdop>3.0</pdop><geoidheight>0.00</geoidheight><course>98.9</course><type>1</type></trkpt>
      <trkpt lat="42.93531805" lon="-2.26400214"><ele>930</ele><speed>9.78</speed><time>2017-03-19T15:26:01Z</time><pdop>3.0</pdop><geoidheight>0.00</geoidheight><course>96.7</course><type>1</type></trkpt>
      <trkpt lat="42.93531079" lon="-2.26388193"><ele>931</ele><speed>10.13</speed><time>2017-03-19T15:26:02Z</time><pdop>3.0</pdop><geoidheight>0.00</geoidheight><course>96.3</course><type>1</type></trkpt>
      <trkpt lat="42.93529769" lon="-2.26377007"><ele>933</ele><speed>9.64</speed><time>2017-03-19T15:26:03Z</time><pdop>3.0</pdop><geoidheight>0.00</geoidheight><course>95.2</course><type>1</type></trkpt>
      <trkpt lat="42.93530251" lon="-2.26367908"><ele>933</ele><speed>8.13</speed><time>2017-03-19T15:26:04Z</time><pdop>3.0</pdop><geoidheight>0.00</geoidheight><course>91.4</course><type>1</type></trkpt>
      <trkpt lat="42.93531538" lon="-2.26359047"><ele>933</ele><speed>7.52</speed><time>2017-03-19T15:26:05Z</time><pdop>3.0</pdop><geoidheight>0.00</geoidheight><course>79.9</course><type>1</type></trkpt>
      <trkpt lat="42.93534003" lon="-2.26349491"><ele>932</ele><speed>8.36</speed><time>2017-03-19T15:26:06Z</time><pdop>3.0</pdop><geoidheight>0.00</geoidheight><course>72.1</course><type>1</type></trkpt>
      <trkpt lat="42.93535438" lon="-2.26339097"><ele>931</ele><speed>8.98</speed><time>2017-03-19T15:26:07Z</time><pdop>3.0</pdop><geoidheight>0.00</geoidheight><course>78.3</course><type>1</type></trkpt>
      <trkpt lat="42.93535462" lon="-2.26327152"><ele>930</ele><speed>9.63</speed><time>2017-03-19T15:26:08Z</time><pdop>3.0</pdop><geoidheight>0.00</geoidheight><course>87.8</course><type>1</type></trkpt>
      <trkpt lat="42.93534386" lon="-2.26315118"><ele>930</ele><speed>10.01</speed><time>2017-03-19T15:26:09Z</time><pdop>3.0</pdop><geoidheight>0.00</geoidheight><course>95.0</course><type>1</type></trkpt>
      <trkpt lat="42.93532917" lon="-2.26303178"><ele>930</ele><speed>10.12</speed><time>2017-03-19T15:26:10Z</time><pdop>3.0</pdop><geoidheight>0.00</geoidheight><course>99.8</course><type>1</type></trkpt>
      <trkpt lat="42.93530679" lon="-2.26290319"><ele>930</ele><speed>10.36</speed><time>2017-03-19T15:26:11Z</time><pdop>3.0</pdop><geoidheight>0.00</geoidheight><course>105.9</course><type>1</type></trkpt>
      <trkpt lat="42.93527527" lon="-2.26278364"><ele>929</ele><speed>10.67</speed><time>2017-03-19T15:26:12Z</time><pdop>3.0</pdop><geoidheight>0.00</geoidheight><course>112.3</course><type>1</type></trkpt>
      <trkpt lat="42.93523324" lon="-2.26264833"><ele>928</ele><speed>11.22</speed><time>2017-03-19T15:26:13Z</time><pdop>3.0</pdop><geoidheight>0.00</geoidheight><course>116.1</course><type>1</type></trkpt>
      <trkpt lat="42.9351866" lon="-2.26252058"><ele>928</ele><speed>11.62</speed><time>2017-03-19T15:26:14Z</time><pdop>3.0</pdop><geoidheight>0.00</geoidheight><course>116.5</course><type>1</type></trkpt>
      <trkpt lat="42.93514424" lon="-2.26239206"><ele>929</ele><speed>11.28</speed><time>2017-03-19T15:26:15Z</time><pdop>3.0</pdop><geoidheight>0.00</geoidheight><course>116.9</course><type>1</type></trkpt>
      <trkpt lat="42.93509511" lon="-2.2622747"><ele>930</ele><speed>10.63</speed><time>2017-03-19T15:26:16Z</time><pdop>3.0</pdop><geoidheight>0.00</geoidheight><course>119.5</course><type>1</type></trkpt>
      <trkpt lat="42.93504484" lon="-2.26216195"><ele>930</ele><speed>10.69</speed><time>2017-03-19T15:26:17Z</time><pdop>3.0</pdop><geoidheight>0.00</geoidheight><course>122.9</course><type>1</type></trkpt>
      <trkpt lat="42.93499405" lon="-2.2620438"><ele>929</ele><speed>11.40</speed><time>2017-03-19T15:26:18Z</time><pdop>3.0</pdop><geoidheight>0.00</geoidheight><course>123.4</course><type>1</type></trkpt>
      <trkpt lat="42.93493769" lon="-2.26191497"><ele>928</ele><speed>12.15</speed><time>2017-03-19T15:26:19Z</time><pdop>3.0</pdop><geoidheight>0.00</geoidheight><course>122.2</course><type>1</type></trkpt>
      <trkpt lat="42.93488087" lon="-2.26178861"><ele>928</ele><speed>12.46</speed><time>2017-03-19T15:26:20Z</time><pdop>3.0</pdop><geoidheight>0.00</geoidheight><course>123.4</course><type>1</type></trkpt>
      <trkpt lat="42.93481105" lon="-2.26167042"><ele>929</ele><speed>12.23</speed><time>2017-03-19T15:26:21Z</time><pdop>3.0</pdop><geoidheight>0.00</geoidheight><course>128.2</course><type>1</type></trkpt>
      <trkpt lat="42.93474416" lon="-2.26156362"><ele>928</ele><speed>12.05</speed><time>2017-03-19T15:26:22Z</time><pdop>3.0</pdop><geoidheight>0.00</geoidheight><course>130.4</course><type>1</type></trkpt>
      <trkpt lat="42.93468289" lon="-2.26145793"><ele>928</ele><speed>11.37</speed><time>2017-03-19T15:26:23Z</time><pdop>3.0</pdop><geoidheight>0.00</geoidheight><course>127.9</course><type>1</type></trkpt>
      <trkpt lat="42.93461465" lon="-2.26133512"><ele>927</ele><speed>12.27</speed><time>2017-03-19T15:26:24Z</time><pdop>3.0</pdop><geoidheight>0.00</geoidheight><course>126.4</course><type>1</type></trkpt>
      <trkpt lat="42.93453407" lon="-2.2612112"><ele>928</ele><speed>13.06</speed><time>2017-03-19T15:26:25Z</time><pdop>3.0</pdop><geoidheight>0.00</geoidheight><course>130.4</course><type>1</type></trkpt>
      <trkpt lat="42.93445634" lon="-2.26111039"><ele>929</ele><speed>12.14</speed><time>2017-03-19T15:26:26Z</time><pdop>3.0</pdop><geoidheight>0.00</geoidheight><course>136.5</course><type>1</type></trkpt>
      <trkpt lat="42.93439053" lon="-2.26102408"><ele>929</ele><speed>10.25</speed><time>2017-03-19T15:26:27Z</time><pdop>3.0</pdop><geoidheight>0.00</geoidheight><course>136.9</course><type>1</type></trkpt>
      <trkpt lat="42.93433841" lon="-2.26093131"><ele>929</ele><speed>9.50</speed><time>2017-03-19T15:26:28Z</time><pdop>3.0</pdop><geoidheight>0.00</geoidheight><course>127.5</course><type>1</type></trkpt>
      <trkpt lat="42.93429672" lon="-2.26082015"><ele>928</ele><speed>10.16</speed><time>2017-03-19T15:26:29Z</time><pdop>3.0</pdop><geoidheight>0.00</geoidheight><course>116.3</course><type>1</type></trkpt>
      <trkpt lat="42.93426105" lon="-2.26070721"><ele>928</ele><speed>10.34</speed><time>2017-03-19T15:26:30Z</time><pdop>3.0</pdop><geoidheight>0.00</geoidheight><course>112.1</course><type>1</type></trkpt>
      <trkpt lat="42.93422515" lon="-2.26060036"><ele>928</ele><speed>9.64</speed><time>2017-03-19T15:26:31Z</time><pdop>3.0</pdop><geoidheight>0.00</geoidheight><course>113.0</course><type>1</type></trkpt>
      <trkpt lat="42.93419635" lon="-2.26050181"><ele>928</ele><speed>8.88</speed><time>2017-03-19T15:26:32Z</time><pdop>3.0</pdop><geoidheight>0.00</geoidheight><course>111.7</course><type>1</type></trkpt>
      <trkpt lat="42.93417468" lon="-2.26040041"><ele>926</ele><speed>8.77</speed><time>2017-03-19T15:26:33Z</time><pdop>3.0</pdop><geoidheight>0.00</geoidheight><course>106.2</course><type>1</type></trkpt>
      <trkpt lat="42.93415721" lon="-2.26028292"><ele>925</ele><speed>9.55</speed><time>2017-03-19T15:26:34Z</time><pdop>3.0</pdop><geoidheight>0.00</geoidheight><course>100.4</course><type>1</type></trkpt>
      <trkpt lat="42.93414069" lon="-2.26015508"><ele>925</ele><speed>10.37</speed><time>2017-03-19T15:26:35Z</time><pdop>3.0</pdop><geoidheight>0.00</geoidheight><course>98.9</course><type>1</type></trkpt>
      <trkpt lat="42.93411542" lon="-2.26004008"><ele>925</ele><speed>9.87</speed><time>2017-03-19T15:26:36Z</time><pdop>3.0</pdop><geoidheight>0.00</geoidheight><course>103.1</course><type>1</type></trkpt>
      <trkpt lat="42.9340879" lon="-2.25994082"><ele>926</ele><speed>9.29</speed><time>2017-03-19T15:26:37Z</time><pdop>3.0</pdop><geoidheight>0.00</geoidheight><course>109.0</course><type>1</type></trkpt>
      <trkpt lat="42.93405622" lon="-2.25984084"><ele>926</ele><speed>9.00</speed><time>2017-03-19T15:26:38Z</time><pdop>3.0</pdop><geoidheight>0.00</geoidheight><course>110.1</course><type>1</type></trkpt>
      <trkpt lat="42.93403114" lon="-2.25972737"><ele>925</ele><speed>9.52</speed><time>2017-03-19T15:26:39Z</time><pdop>3.0</pdop><geoidheight>0.00</geoidheight><course>106.7</course><type>1</type></trkpt>
      <trkpt lat="42.93400587" lon="-2.25960762"><ele>925</ele><speed>10.15</speed><time>2017-03-19T15:26:40Z</time><pdop>3.0</pdop><geoidheight>0.00</geoidheight><course>105.5</course><type>1</type></trkpt>
      <trkpt lat="42.93397286" lon="-2.25949453"><ele>926</ele><speed>10.21</speed><time>2017-03-19T15:26:41Z</time><pdop>3.0</pdop><geoidheight>0.00</geoidheight><course>108.3</course><type>1</type></trkpt>
      <trkpt lat="42.93394059" lon="-2.25937556"><ele>927</ele><speed>10.08</speed><time>2017-03-19T15:26:42Z</time><pdop>3.0</pdop><geoidheight>0.00</geoidheight><course>110.3</course><type>1</type></trkpt>
      <trkpt lat="42.93391549" lon="-2.25925513"><ele>927</ele><speed>10.14</speed><time>2017-03-19T15:26:43Z</time><pdop>3.0</pdop><geoidheight>0.00</geoidheight><course>107.9</course><type>1</type></trkpt>
      <trkpt lat="42.93389259" lon="-2.25913445"><ele>927</ele><speed>10.15</speed><time>2017-03-19T15:26:44Z</time><pdop>3.0</pdop><geoidheight>0.00</geoidheight><course>103.9</course><type>1</type></trkpt>
      <trkpt lat="42.93387741" lon="-2.25902012"><ele>928</ele><speed>9.85</speed><time>2017-03-19T15:26:45Z</time><pdop>3.0</pdop><geoidheight>0.00</geoidheight><course>100.6</course><type>1</type></trkpt>
      <trkpt lat="42.93386002" lon="-2.25889541"><ele>929</ele><speed>10.04</speed><time>2017-03-19T15:26:46Z</time><pdop>3.0</pdop><geoidheight>0.00</geoidheight><course>102.2</course><type>1</type></trkpt>
      <trkpt lat="42.93383521" lon="-2.25877125"><ele>930</ele><speed>10.35</speed><time>2017-03-19T15:26:47Z</time><pdop>3.0</pdop><geoidheight>0.00</geoidheight><course>106.3</course><type>1</type></trkpt>
      <trkpt lat="42.93380134" lon="-2.25864542"><ele>931</ele><speed>10.82</speed><time>2017-03-19T15:26:48Z</time><pdop>3.0</pdop><geoidheight>0.00</geoidheight><course>110.9</course><type>1</type></trkpt>
      <trkpt lat="42.9337578" lon="-2.25852178"><ele>934</ele><speed>11.03</speed><time>2017-03-19T15:26:49Z</time><pdop>3.0</pdop><geoidheight>0.00</geoidheight><course>114.2</course><type>1</type></trkpt>
      <trkpt lat="42.93371599" lon="-2.25840627"><ele>937</ele><speed>10.49</speed><time>2017-03-19T15:26:50Z</time><pdop>3.0</pdop><geoidheight>0.00</geoidheight><course>115.6</course><type>1</type></trkpt>
      <trkpt lat="42.93368345" lon="-2.25830727"><ele>939</ele><speed>9.05</speed><time>2017-03-19T15:26:51Z</time><pdop>3.0</pdop><geoidheight>0.00</geoidheight><course>114.0</course><type>1</type></trkpt>
      <trkpt lat="42.93366703" lon="-2.25823645"><ele>941</ele><speed>6.57</speed><time>2017-03-19T15:26:52Z</time><pdop>3.0</pdop><geoidheight>0.00</geoidheight><course>106.6</course><type>1</type></trkpt>
      <trkpt lat="42.93368738" lon="-2.25815748"><ele>940</ele><speed>5.34</speed><time>2017-03-19T15:26:53Z</time><pdop>3.0</pdop><geoidheight>0.00</geoidheight><course>79.3</course><type>1</type></trkpt>
      <trkpt lat="42.93375932" lon="-2.25805823"><ele>941</ele><speed>5.67</speed><time>2017-03-19T15:26:55Z</time><pdop>3.0</pdop><geoidheight>0.00</geoidheight><course>42.7</course><type>1</type></trkpt>
      <trkpt lat="42.93383328" lon="-2.25802684"><ele>942</ele><speed>3.78</speed><time>2017-03-19T15:26:57Z</time><pdop>3.0</pdop><geoidheight>0.00</geoidheight><course>5.7</course><type>1</type></trkpt>
      <trkpt lat="42.93387648" lon="-2.25810118"><ele>942</ele><speed>4.76</speed><time>2017-03-19T15:26:59Z</time><pdop>3.0</pdop><geoidheight>0.00</geoidheight><course>287.6</course><type>1</type></trkpt>
      <trkpt lat="42.93386153" lon="-2.25818061"><ele>944</ele><speed>6.68</speed><time>2017-03-19T15:27:00Z</time><pdop>3.0</pdop><geoidheight>0.00</geoidheight><course>256.2</course><type>1</type></trkpt>
      <trkpt lat="42.93380958" lon="-2.25826399"><ele>945</ele><speed>8.76</speed><time>2017-03-19T15:27:01Z</time><pdop>3.0</pdop><geoidheight>0.00</geoidheight><course>233.3</course><type>1</type></trkpt>
      <trkpt lat="42.93371453" lon="-2.25834"><ele>947</ele><speed>11.48</speed><time>2017-03-19T15:27:02Z</time><pdop>3.0</pdop><geoidheight>0.00</geoidheight><course>211.9</course><type>1</type></trkpt>
      <trkpt lat="42.93359237" lon="-2.25836712"><ele>948</ele><speed>13.27</speed><time>2017-03-19T15:27:03Z</time><pdop>3.0</pdop><geoidheight>0.00</geoidheight><course>191.1</course><type>1</type></trkpt>
      <trkpt lat="42.93346719" lon="-2.25832721"><ele>949</ele><speed>13.72</speed><time>2017-03-19T15:27:04Z</time><pdop>3.0</pdop><geoidheight>0.00</geoidheight><course>168.6</course><type>1</type></trkpt>
      <trkpt lat="42.93337409" lon="-2.2582252"><ele>949</ele><speed>13.43</speed><time>2017-03-19T15:27:05Z</time><pdop>3.0</pdop><geoidheight>0.00</geoidheight><course>145.2</course><type>1</type></trkpt>
      <trkpt lat="42.93330883" lon="-2.25809282"><ele>950</ele><speed>12.81</speed><time>2017-03-19T15:27:06Z</time><pdop>3.0</pdop><geoidheight>0.00</geoidheight><course>126.1</course><type>1</type></trkpt>
      <trkpt lat="42.93327187" lon="-2.25796893"><ele>951</ele><speed>11.32</speed><time>2017-03-19T15:27:07Z</time><pdop>3.0</pdop><geoidheight>0.00</geoidheight><course>114.1</course><type>1</type></trkpt>
      <trkpt lat="42.93325194" lon="-2.25786269"><ele>952</ele><speed>9.09</speed><time>2017-03-19T15:27:08Z</time><pdop>3.0</pdop><geoidheight>0.00</geoidheight><course>105.9</course><type>1</type></trkpt>
      <trkpt lat="42.9332485" lon="-2.25777733"><ele>953</ele><speed>6.89</speed><time>2017-03-19T15:27:09Z</time><pdop>3.0</pdop><geoidheight>0.00</geoidheight><course>97.6</course><type>1</type></trkpt>
      <trkpt lat="42.93325574" lon="-2.25770281"><ele>953</ele><speed>6.10</speed><time>2017-03-19T15:27:10Z</time><pdop>3.0</pdop><geoidheight>0.00</geoidheight><course>83.6</course><type>1</type></trkpt>
      <trkpt lat="42.93327423" lon="-2.25762959"><ele>952</ele><speed>6.24</speed><time>2017-03-19T15:27:11Z</time><pdop>3.0</pdop><geoidheight>0.00</geoidheight><course>72.6</course><type>1</type></trkpt>
      <trkpt lat="42.9332993" lon="-2.2575588"><ele>953</ele><speed>6.48</speed><time>2017-03-19T15:27:12Z</time><pdop>3.0</pdop><geoidheight>0.00</geoidheight><course>66.2</course><type>1</type></trkpt>
      <trkpt lat="42.93331456" lon="-2.25747808"><ele>954</ele><speed>6.80</speed><time>2017-03-19T15:27:13Z</time><pdop>3.0</pdop><geoidheight>0.00</geoidheight><course>74.9</course><type>1</type></trkpt>
      <trkpt lat="42.93331562" lon="-2.25738586"><ele>954</ele><speed>7.47</speed><time>2017-03-19T15:27:14Z</time><pdop>3.0</pdop><geoidheight>0.00</geoidheight><course>89.1</course><type>1</type></trkpt>
      <trkpt lat="42.93329374" lon="-2.25727966"><ele>954</ele><speed>8.58</speed><time>2017-03-19T15:27:15Z</time><pdop>3.0</pdop><geoidheight>0.00</geoidheight><course>104.1</course><type>1</type></trkpt>
      <trkpt lat="42.93326145" lon="-2.25715933"><ele>955</ele><speed>10.14</speed><time>2017-03-19T15:27:16Z</time><pdop>3.0</pdop><geoidheight>0.00</geoidheight><course>109.7</course><type>1</type></trkpt>
      <trkpt lat="42.93322515" lon="-2.25702331"><ele>955</ele><speed>11.66</speed><time>2017-03-19T15:27:17Z</time><pdop>3.0</pdop><geoidheight>0.00</geoidheight><course>109.8</course><type>1</type></trkpt>
      <trkpt lat="42.93318631" lon="-2.25690818"><ele>956</ele><speed>10.26</speed><time>2017-03-19T15:27:18Z</time><pdop>3.0</pdop><geoidheight>0.00</geoidheight><course>114.2</course><type>1</type></trkpt>
      <trkpt lat="42.93314661" lon="-2.25681126"><ele>956</ele><speed>9.13</speed><time>2017-03-19T15:27:19Z</time><pdop>3.0</pdop><geoidheight>0.00</geoidheight><course>117.5</course><type>1</type></trkpt>
      <trkpt lat="42.93310862" lon="-2.25672211"><ele>955</ele><speed>8.67</speed><time>2017-03-19T15:27:20Z</time><pdop>3.0</pdop><geoidheight>0.00</geoidheight><course>119.8</course><type>1</type></trkpt>
      <trkpt lat="42.9330639" lon="-2.25662639"><ele>954</ele><speed>9.19</speed><time>2017-03-19T15:27:21Z</time><pdop>3.0</pdop><geoidheight>0.00</geoidheight><course>122.6</course><type>1</type></trkpt>
      <trkpt lat="42.93301865" lon="-2.25652369"><ele>952</ele><speed>10.04</speed><time>2017-03-19T15:27:22Z</time><pdop>3.0</pdop><geoidheight>0.00</geoidheight><course>121.8</course><type>1</type></trkpt>
      <trkpt lat="42.93297137" lon="-2.25640835"><ele>950</ele><speed>10.87</speed><time>2017-03-19T15:27:23Z</time><pdop>3.0</pdop><geoidheight>0.00</geoidheight><course>118.8</course><type>1</type></trkpt>
      <trkpt lat="42.93293012" lon="-2.25627887"><ele>949</ele><speed>11.20</speed><time>2017-03-19T15:27:24Z</time><pdop>3.0</pdop><geoidheight>0.00</geoidheight><course>114.4</course><type>1</type></trkpt>
      <trkpt lat="42.93289779" lon="-2.25615562"><ele>948</ele><speed>10.87</speed><time>2017-03-19T15:27:25Z</time><pdop>3.0</pdop><geoidheight>0.00</geoidheight><course>111.0</course><type>1</type></trkpt>
      <trkpt lat="42.93286847" lon="-2.25604058"><ele>947</ele><speed>10.32</speed><time>2017-03-19T15:27:26Z</time><pdop>3.0</pdop><geoidheight>0.00</geoidheight><course>109.8</course><type>1</type></trkpt>
      <trkpt lat="42.93283611" lon="-2.25593164"><ele>947</ele><speed>10.03</speed><time>2017-03-19T15:27:27Z</time><pdop>3.0</pdop><geoidheight>0.00</geoidheight><course>110.5</course><type>1</type></trkpt>
      <trkpt lat="42.93280001" lon="-2.2558177"><ele>946</ele><speed>10.33</speed><time>2017-03-19T15:27:28Z</time><pdop>3.0</pdop><geoidheight>0.00</geoidheight><course>111.0</course><type>1</type></trkpt>
      <trkpt lat="42.93276289" lon="-2.2556961"><ele>945</ele><speed>10.77</speed><time>2017-03-19T15:27:29Z</time><pdop>3.0</pdop><geoidheight>0.00</geoidheight><course>112.9</course><type>1</type></trkpt>
      <trkpt lat="42.93271722" lon="-2.25556594"><ele>944</ele><speed>11.32</speed><time>2017-03-19T15:27:30Z</time><pdop>3.0</pdop><geoidheight>0.00</geoidheight><course>115.9</course><type>1</type></trkpt>
      <trkpt lat="42.93266406" lon="-2.25542539"><ele>944</ele><speed>12.12</speed><time>2017-03-19T15:27:31Z</time><pdop>3.0</pdop><geoidheight>0.00</geoidheight><course>118.3</course><type>1</type></trkpt>
      <trkpt lat="42.93260544" lon="-2.25529461"><ele>942</ele><speed>12.64</speed><time>2017-03-19T15:27:32Z</time><pdop>3.0</pdop><geoidheight>0.00</geoidheight><course>121.5</course><type>1</type></trkpt>
      <trkpt lat="42.93255434" lon="-2.25515754"><ele>941</ele><speed>12.79</speed><time>2017-03-19T15:27:33Z</time><pdop>3.0</pdop><geoidheight>0.00</geoidheight><course>119.3</course><type>1</type></trkpt>
      <trkpt lat="42.93250652" lon="-2.2550205"><ele>939</ele><speed>12.41</speed><time>2017-03-19T15:27:34Z</time><pdop>3.0</pdop><geoidheight>0.00</geoidheight><course>115.3</course><type>1</type></trkpt>
      <trkpt lat="42.93246564" lon="-2.25488998"><ele>939</ele><speed>11.68</speed><time>2017-03-19T15:27:35Z</time><pdop>3.0</pdop><geoidheight>0.00</geoidheight><course>114.4</course><type>1</type></trkpt>
      <trkpt lat="42.93241632" lon="-2.25476639"><ele>938</ele><speed>11.25</speed><time>2017-03-19T15:27:36Z</time><pdop>3.0</pdop><geoidheight>0.00</geoidheight><course>117.7</course><type>1</type></trkpt>
      <trkpt lat="42.93236525" lon="-2.25465245"><ele>937</ele><speed>11.05</speed><time>2017-03-19T15:27:37Z</time><pdop>3.0</pdop><geoidheight>0.00</geoidheight><course>120.9</course><type>1</type></trkpt>
      <trkpt lat="42.93231473" lon="-2.25453017"><ele>935</ele><speed>11.29</speed><time>2017-03-19T15:27:38Z</time><pdop>3.0</pdop><geoidheight>0.00</geoidheight><course>119.9</course><type>1</type></trkpt>
      <trkpt lat="42.93226938" lon="-2.25440216"><ele>933</ele><speed>11.59</speed><time>2017-03-19T15:27:39Z</time><pdop>3.0</pdop><geoidheight>0.00</geoidheight><course>116.1</course><type>1</type></trkpt>
      <trkpt lat="42.93222303" lon="-2.25426951"><ele>931</ele><speed>11.91</speed><time>2017-03-19T15:27:40Z</time><pdop>3.0</pdop><geoidheight>0.00</geoidheight><course>114.0</course><type>1</type></trkpt>
      <trkpt lat="42.93217606" lon="-2.25413939"><ele>930</ele><speed>11.83</speed><time>2017-03-19T15:27:41Z</time><pdop>3.0</pdop><geoidheight>0.00</geoidheight><course>114.8</course><type>1</type></trkpt>
      <trkpt lat="42.93212683" lon="-2.25400753"><ele>929</ele><speed>11.71</speed><time>2017-03-19T15:27:42Z</time><pdop>3.0</pdop><geoidheight>0.00</geoidheight><course>117.3</course><type>1</type></trkpt>
      <trkpt lat="42.93207358" lon="-2.25388496"><ele>928</ele><speed>11.49</speed><time>2017-03-19T15:27:43Z</time><pdop>3.0</pdop><geoidheight>0.00</geoidheight><course>121.8</course><type>1</type></trkpt>
      <trkpt lat="42.93201002" lon="-2.25376927"><ele>928</ele><speed>11.78</speed><time>2017-03-19T15:27:44Z</time><pdop>3.0</pdop><geoidheight>0.00</geoidheight><course>125.9</course><type>1</type></trkpt>
      <trkpt lat="42.93194329" lon="-2.25365169"><ele>927</ele><speed>12.14</speed><time>2017-03-19T15:27:45Z</time><pdop>3.0</pdop><geoidheight>0.00</geoidheight><course>127.4</course><type>1</type></trkpt>
      <trkpt lat="42.93187467" lon="-2.25353283"><ele>926</ele><speed>12.45</speed><time>2017-03-19T15:27:46Z</time><pdop>3.0</pdop><geoidheight>0.00</geoidheight><course>128.7</course><type>1</type></trkpt>
      <trkpt lat="42.93180368" lon="-2.25340395"><ele>926</ele><speed>12.84</speed><time>2017-03-19T15:27:47Z</time><pdop>3.0</pdop><geoidheight>0.00</geoidheight><course>128.3</course><type>1</type></trkpt>
      <trkpt lat="42.93173648" lon="-2.25329814"><ele>924</ele><speed>12.10</speed><time>2017-03-19T15:27:48Z</time><pdop>3.0</pdop><geoidheight>0.00</geoidheight><course>129.3</course><type>1</type></trkpt>
      <trkpt lat="42.93167039" lon="-2.25318143"><ele>923</ele><speed>12.00</speed><time>2017-03-19T15:27:49Z</time><pdop>3.0</pdop><geoidheight>0.00</geoidheight><course>127.3</course><type>1</type></trkpt>
      <trkpt lat="42.93160857" lon="-2.25306192"><ele>922</ele><speed>12.01</speed><time>2017-03-19T15:27:50Z</time><pdop>3.0</pdop><geoidheight>0.00</geoidheight><course>124.4</course><type>1</type></trkpt>
      <trkpt lat="42.93155315" lon="-2.25293052"><ele>922</ele><speed>12.04</speed><time>2017-03-19T15:27:51Z</time><pdop>3.0</pdop><geoidheight>0.00</geoidheight><course>121.9</course><type>1</type></trkpt>
      <trkpt lat="42.93150125" lon="-2.25280837"><ele>922</ele><speed>11.80</speed><time>2017-03-19T15:27:52Z</time><pdop>3.0</pdop><geoidheight>0.00</geoidheight><course>122.6</course><type>1</type></trkpt>
      <trkpt lat="42.93144114" lon="-2.25269676"><ele>922</ele><speed>11.10</speed><time>2017-03-19T15:27:53Z</time><pdop>3.0</pdop><geoidheight>0.00</geoidheight><course>125.7</course><type>1</type></trkpt>
      <trkpt lat="42.9313847" lon="-2.25258978"><ele>922</ele><speed>10.72</speed><time>2017-03-19T15:27:54Z</time><pdop>3.0</pdop><geoidheight>0.00</geoidheight><course>125.4</course><type>1</type></trkpt>
      <trkpt lat="42.93133398" lon="-2.25247068"><ele>921</ele><speed>10.93</speed><time>2017-03-19T15:27:55Z</time><pdop>3.0</pdop><geoidheight>0.00</geoidheight><course>121.3</course><type>1</type></trkpt>
      <trkpt lat="42.93129011" lon="-2.25234545"><ele>921</ele><speed>11.34</speed><time>2017-03-19T15:27:56Z</time><pdop>3.0</pdop><geoidheight>0.00</geoidheight><course>117.5</course><type>1</type></trkpt>
      <trkpt lat="42.93124349" lon="-2.25221894"><ele>921</ele><speed>11.59</speed><time>2017-03-19T15:27:57Z</time><pdop>3.0</pdop><geoidheight>0.00</geoidheight><course>116.3</course><type>1</type></trkpt>
      <trkpt lat="42.93119641" lon="-2.25209241"><ele>921</ele><speed>11.60</speed><time>2017-03-19T15:27:58Z</time><pdop>3.0</pdop><geoidheight>0.00</geoidheight><course>116.9</course><type>1</type></trkpt>
      <trkpt lat="42.93114699" lon="-2.25197624"><ele>922</ele><speed>11.26</speed><time>2017-03-19T15:27:59Z</time><pdop>3.0</pdop><geoidheight>0.00</geoidheight><course>119.9</course><type>1</type></trkpt>
      <trkpt lat="42.93108788" lon="-2.25186688"><ele>923</ele><speed>11.01</speed><time>2017-03-19T15:28:00Z</time><pdop>3.0</pdop><geoidheight>0.00</geoidheight><course>124.6</course><type>1</type></trkpt>
      <trkpt lat="42.93102593" lon="-2.25176227"><ele>923</ele><speed>11.13</speed><time>2017-03-19T15:28:01Z</time><pdop>3.0</pdop><geoidheight>0.00</geoidheight><course>128.7</course><type>1</type></trkpt>
      <trkpt lat="42.93095578" lon="-2.25165485"><ele>923</ele><speed>11.60</speed><time>2017-03-19T15:28:02Z</time><pdop>3.0</pdop><geoidheight>0.00</geoidheight><course>130.1</course><type>1</type></trkpt>
      <trkpt lat="42.93088723" lon="-2.25154081"><ele>923</ele><speed>12.06</speed><time>2017-03-19T15:28:03Z</time><pdop>3.0</pdop><geoidheight>0.00</geoidheight><course>127.9</course><type>1</type></trkpt>
      <trkpt lat="42.93082196" lon="-2.25141099"><ele>923</ele><speed>12.41</speed><time>2017-03-19T15:28:04Z</time><pdop>3.0</pdop><geoidheight>0.00</geoidheight><course>124.9</course><type>1</type></trkpt>
      <trkpt lat="42.93076425" lon="-2.25128047"><ele>923</ele><speed>12.40</speed><time>2017-03-19T15:28:05Z</time><pdop>3.0</pdop><geoidheight>0.00</geoidheight><course>122.3</course><type>1</type></trkpt>
      <trkpt lat="42.93071136" lon="-2.25115417"><ele>924</ele><speed>12.09</speed><time>2017-03-19T15:28:06Z</time><pdop>3.0</pdop><geoidheight>0.00</geoidheight><course>120.5</course><type>1</type></trkpt>
      <trkpt lat="42.93066363" lon="-2.25102975"><ele>924</ele><speed>11.64</speed><time>2017-03-19T15:28:07Z</time><pdop>3.0</pdop><geoidheight>0.00</geoidheight><course>118.2</course><type>1</type></trkpt>
      <trkpt lat="42.93062001" lon="-2.25090619"><ele>924</ele><speed>11.26</speed><time>2017-03-19T15:28:08Z</time><pdop>3.0</pdop><geoidheight>0.00</geoidheight><course>115.5</course><type>1</type></trkpt>
      <trkpt lat="42.93057972" lon="-2.25078322"><ele>925</ele><speed>11.03</speed><time>2017-03-19T15:28:09Z</time><pdop>3.0</pdop><geoidheight>0.00</geoidheight><course>113.5</course><type>1</type></trkpt>
      <trkpt lat="42.93054021" lon="-2.25066403"><ele>925</ele><speed>10.53</speed><time>2017-03-19T15:28:10Z</time><pdop>3.0</pdop><geoidheight>0.00</geoidheight><course>113.2</course><type>1</type></trkpt>
      <trkpt lat="42.93050355" lon="-2.25054348"><ele>925</ele><speed>10.57</speed><time>2017-03-19T15:28:11Z</time><pdop>3.0</pdop><geoidheight>0.00</geoidheight><course>111.8</course><type>1</type></trkpt>
      <trkpt lat="42.93046952" lon="-2.25043046"><ele>926</ele><speed>10.33</speed><time>2017-03-19T15:28:12Z</time><pdop>3.0</pdop><geoidheight>0.00</geoidheight><course>110.5</course><type>1</type></trkpt>
      <trkpt lat="42.93044339" lon="-2.25031882"><ele>926</ele><speed>10.14</speed><time>2017-03-19T15:28:13Z</time><pdop>3.0</pdop><geoidheight>0.00</geoidheight><course>107.5</course><type>1</type></trkpt>
      <trkpt lat="42.93041374" lon="-2.2502058"><ele>926</ele><speed>9.96</speed><time>2017-03-19T15:28:14Z</time><pdop>3.0</pdop><geoidheight>0.00</geoidheight><course>108.0</course><type>1</type></trkpt>
      <trkpt lat="42.93038146" lon="-2.25009201"><ele>926</ele><speed>10.12</speed><time>2017-03-19T15:28:15Z</time><pdop>3.0</pdop><geoidheight>0.00</geoidheight><course>109.9</course><type>1</type></trkpt>
      <trkpt lat="42.93034841" lon="-2.24997361"><ele>925</ele><speed>10.31</speed><time>2017-03-19T15:28:16Z</time><pdop>3.0</pdop><geoidheight>0.00</geoidheight><course>111.2</course><type>1</type></trkpt>
      <trkpt lat="42.93031708" lon="-2.24984486"><ele>925</ele><speed>10.72</speed><time>2017-03-19T15:28:17Z</time><pdop>3.0</pdop><geoidheight>0.00</geoidheight><course>107.7</course><type>1</type></trkpt>
      <trkpt lat="42.9302935" lon="-2.24972781"><ele>924</ele><speed>10.55</speed><time>2017-03-19T15:28:18Z</time><pdop>3.0</pdop><geoidheight>0.00</geoidheight><course>104.7</course><type>1</type></trkpt>
      <trkpt lat="42.93027766" lon="-2.2496029"><ele>924</ele><speed>10.52</speed><time>2017-03-19T15:28:19Z</time><pdop>3.0</pdop><geoidheight>0.00</geoidheight><course>100.9</course><type>1</type></trkpt>
      <trkpt lat="42.93025521" lon="-2.24949099"><ele>923</ele><speed>9.79</speed><time>2017-03-19T15:28:20Z</time><pdop>3.0</pdop><geoidheight>0.00</geoidheight><course>103.3</course><type>1</type></trkpt>
      <trkpt lat="42.93023582" lon="-2.24937852"><ele>922</ele><speed>9.45</speed><time>2017-03-19T15:28:21Z</time><pdop>3.0</pdop><geoidheight>0.00</geoidheight><course>103.3</course><type>1</type></trkpt>
      <trkpt lat="42.93021505" lon="-2.24926796"><ele>921</ele><speed>9.33</speed><time>2017-03-19T15:28:22Z</time><pdop>3.0</pdop><geoidheight>0.00</geoidheight><course>101.9</course><type>1</type></trkpt>
      <trkpt lat="42.93019177" lon="-2.24916169"><ele>920</ele><speed>9.12</speed><time>2017-03-19T15:28:23Z</time><pdop>3.0</pdop><geoidheight>0.00</geoidheight><course>103.3</course><type>1</type></trkpt>
      <trkpt lat="42.93016565" lon="-2.24905116"><ele>920</ele><speed>9.52</speed><time>2017-03-19T15:28:24Z</time><pdop>3.0</pdop><geoidheight>0.00</geoidheight><course>106.9</course><type>1</type></trkpt>
      <trkpt lat="42.93013072" lon="-2.24893041"><ele>918</ele><speed>10.42</speed><time>2017-03-19T15:28:25Z</time><pdop>3.0</pdop><geoidheight>0.00</geoidheight><course>109.8</course><type>1</type></trkpt>
      <trkpt lat="42.93009716" lon="-2.24878555"><ele>916</ele><speed>11.34</speed><time>2017-03-19T15:28:26Z</time><pdop>3.0</pdop><geoidheight>0.00</geoidheight><course>109.5</course><type>1</type></trkpt>
      <trkpt lat="42.93006054" lon="-2.24865135"><ele>914</ele><speed>11.72</speed><time>2017-03-19T15:28:27Z</time><pdop>3.0</pdop><geoidheight>0.00</geoidheight><course>108.2</course><type>1</type></trkpt>
      <trkpt lat="42.93003209" lon="-2.2485108"><ele>914</ele><speed>11.59</speed><time>2017-03-19T15:28:28Z</time><pdop>3.0</pdop><geoidheight>0.00</geoidheight><course>106.2</course><type>1</type></trkpt>
      <trkpt lat="42.92999875" lon="-2.24838976"><ele>913</ele><speed>10.93</speed><time>2017-03-19T15:28:29Z</time><pdop>3.0</pdop><geoidheight>0.00</geoidheight><course>107.3</course><type>1</type></trkpt>
      <trkpt lat="42.92996946" lon="-2.24826805"><ele>911</ele><speed>10.75</speed><time>2017-03-19T15:28:30Z</time><pdop>3.0</pdop><geoidheight>0.00</geoidheight><course>109.7</course><type>1</type></trkpt>
      <trkpt lat="42.92993336" lon="-2.24814038"><ele>910</ele><speed>10.80</speed><time>2017-03-19T15:28:31Z</time><pdop>3.0</pdop><geoidheight>0.00</geoidheight><course>112.0</course><type>1</type></trkpt>
      <trkpt lat="42.92989298" lon="-2.24801726"><ele>907</ele><speed>10.92</speed><time>2017-03-19T15:28:32Z</time><pdop>3.0</pdop><geoidheight>0.00</geoidheight><course>112.2</course><type>1</type></trkpt>
      <trkpt lat="42.92985808" lon="-2.24788664"><ele>904</ele><speed>11.13</speed><time>2017-03-19T15:28:33Z</time><pdop>3.0</pdop><geoidheight>0.00</geoidheight><course>109.9</course><type>1</type></trkpt>
      <trkpt lat="42.92983313" lon="-2.24775168"><ele>902</ele><speed>11.26</speed><time>2017-03-19T15:28:34Z</time><pdop>3.0</pdop><geoidheight>0.00</geoidheight><course>103.3</course><type>1</type></trkpt>
      <trkpt lat="42.9298165" lon="-2.24761282"><ele>901</ele><speed>11.34</speed><time>2017-03-19T15:28:35Z</time><pdop>3.0</pdop><geoidheight>0.00</geoidheight><course>99.7</course><type>1</type></trkpt>
      <trkpt lat="42.92979706" lon="-2.24748684"><ele>902</ele><speed>10.69</speed><time>2017-03-19T15:28:36Z</time><pdop>3.0</pdop><geoidheight>0.00</geoidheight><course>100.4</course><type>1</type></trkpt>
      <trkpt lat="42.92977251" lon="-2.24736732"><ele>904</ele><speed>9.86</speed><time>2017-03-19T15:28:37Z</time><pdop>3.0</pdop><geoidheight>0.00</geoidheight><course>106.3</course><type>1</type></trkpt>
      <trkpt lat="42.92973796" lon="-2.24726633"><ele>905</ele><speed>8.96</speed><time>2017-03-19T15:28:38Z</time><pdop>3.0</pdop><geoidheight>0.00</geoidheight><course>115.1</course><type>1</type></trkpt>
      <trkpt lat="42.92970082" lon="-2.24717298"><ele>906</ele><speed>9.20</speed><time>2017-03-19T15:28:39Z</time><pdop>3.0</pdop><geoidheight>0.00</geoidheight><course>117.0</course><type>1</type></trkpt>
      <trkpt lat="42.92966551" lon="-2.24706514"><ele>907</ele><speed>9.71</speed><time>2017-03-19T15:28:40Z</time><pdop>3.0</pdop><geoidheight>0.00</geoidheight><course>114.2</course><type>1</type></trkpt>
      <trkpt lat="42.92964243" lon="-2.24693951"><ele>909</ele><speed>10.18</speed><time>2017-03-19T15:28:41Z</time><pdop>3.0</pdop><geoidheight>0.00</geoidheight><course>106.7</course><type>1</type></trkpt>
      <trkpt lat="42.92962267" lon="-2.24681921"><ele>911</ele><speed>10.10</speed><time>2017-03-19T15:28:42Z</time><pdop>3.0</pdop><geoidheight>0.00</geoidheight><course>103.3</course><type>1</type></trkpt>
      <trkpt lat="42.92960743" lon="-2.24669677"><ele>914</ele><speed>9.93</speed><time>2017-03-19T15:28:43Z</time><pdop>3.0</pdop><geoidheight>0.00</geoidheight><course>100.9</course><type>1</type></trkpt>
      <trkpt lat="42.92959827" lon="-2.24658068"><ele>917</ele><speed>9.39</speed><time>2017-03-19T15:28:44Z</time><pdop>3.0</pdop><geoidheight>0.00</geoidheight><course>96.2</course><type>1</type></trkpt>
      <trkpt lat="42.92961343" lon="-2.24647198"><ele>917</ele><speed>7.86</speed><time>2017-03-19T15:28:45Z</time><pdop>3.0</pdop><geoidheight>0.00</geoidheight><course>87.5</course><type>1</type></trkpt>
      <trkpt lat="42.92965212" lon="-2.24634557"><ele>917</ele><speed>5.30</speed><time>2017-03-19T15:28:47Z</time><pdop>3.0</pdop><geoidheight>0.00</geoidheight><course>62.6</course><type>1</type></trkpt>
      <trkpt lat="42.92968772" lon="-2.24620933"><ele>920</ele><speed>6.46</speed><time>2017-03-19T15:28:49Z</time><pdop>3.0</pdop><geoidheight>0.00</geoidheight><course>74.2</course><type>1</type></trkpt>
      <trkpt lat="42.92969516" lon="-2.24612268"><ele>921</ele><speed>7.19</speed><time>2017-03-19T15:28:50Z</time><pdop>3.0</pdop><geoidheight>0.00</geoidheight><course>82.8</course><type>1</type></trkpt>
      <trkpt lat="42.92970278" lon="-2.24603016"><ele>923</ele><speed>7.69</speed><time>2017-03-19T15:28:51Z</time><pdop>3.0</pdop><geoidheight>0.00</geoidheight><course>83.2</course><type>1</type></trkpt>
      <trkpt lat="42.9297116" lon="-2.24593369"><ele>924</ele><speed>7.82</speed><time>2017-03-19T15:28:52Z</time><pdop>3.0</pdop><geoidheight>0.00</geoidheight><course>81.3</course><type>1</type></trkpt>
      <trkpt lat="42.92972531" lon="-2.24584651"><ele>926</ele><speed>7.24</speed><time>2017-03-19T15:28:53Z</time><pdop>3.0</pdop><geoidheight>0.00</geoidheight><course>80.0</course><type>1</type></trkpt>
      <trkpt lat="42.92974046" lon="-2.24577293"><ele>927</ele><speed>6.12</speed><time>2017-03-19T15:28:54Z</time><pdop>3.0</pdop><geoidheight>0.00</geoidheight><course>77.1</course><type>1</type></trkpt>
      <trkpt lat="42.9297767" lon="-2.24571348"><ele>929</ele><speed>2.83</speed><time>2017-03-19T15:28:56Z</time><pdop>3.0</pdop><geoidheight>0.00</geoidheight><course>29.8</course><type>1</type></trkpt>
      <trkpt lat="42.92981716" lon="-2.24578904"><ele>929</ele><speed>4.50</speed><time>2017-03-19T15:28:58Z</time><pdop>3.0</pdop><geoidheight>0.00</geoidheight><course>296.0</course><type>1</type></trkpt>
      <trkpt lat="42.92982707" lon="-2.24586551"><ele>929</ele><speed>5.87</speed><time>2017-03-19T15:28:59Z</time><pdop>3.0</pdop><geoidheight>0.00</geoidheight><course>280.8</course><type>1</type></trkpt>
      <trkpt lat="42.92982241" lon="-2.24595074"><ele>930</ele><speed>6.77</speed><time>2017-03-19T15:29:00Z</time><pdop>3.0</pdop><geoidheight>0.00</geoidheight><course>263.5</course><type>1</type></trkpt>
      <trkpt lat="42.92979197" lon="-2.2460448"><ele>930</ele><speed>8.08</speed><time>2017-03-19T15:29:01Z</time><pdop>3.0</pdop><geoidheight>0.00</geoidheight><course>245.8</course><type>1</type></trkpt>
      <trkpt lat="42.92972591" lon="-2.24614675"><ele>931</ele><speed>10.22</speed><time>2017-03-19T15:29:02Z</time><pdop>3.0</pdop><geoidheight>0.00</geoidheight><course>226.8</course><type>1</type></trkpt>
      <trkpt lat="42.92962441" lon="-2.2462181"><ele>932</ele><speed>12.60</speed><time>2017-03-19T15:29:03Z</time><pdop>3.0</pdop><geoidheight>0.00</geoidheight><course>209.5</course><type>1</type></trkpt>
      <trkpt lat="42.92949823" lon="-2.24624227"><ele>933</ele><speed>14.33</speed><time>2017-03-19T15:29:04Z</time><pdop>3.0</pdop><geoidheight>0.00</geoidheight><course>190.2</course><type>1</type></trkpt>
      <trkpt lat="42.92936592" lon="-2.24620152"><ele>933</ele><speed>14.93</speed><time>2017-03-19T15:29:05Z</time><pdop>3.0</pdop><geoidheight>0.00</geoidheight><course>169.8</course><type>1</type></trkpt>
      <trkpt lat="42.92924961" lon="-2.24610535"><ele>935</ele><speed>14.69</speed><time>2017-03-19T15:29:06Z</time><pdop>3.0</pdop><geoidheight>0.00</geoidheight><course>149.9</course><type>1</type></trkpt>
      <trkpt lat="42.92917541" lon="-2.24597118"><ele>935</ele><speed>13.79</speed><time>2017-03-19T15:29:07Z</time><pdop>3.0</pdop><geoidheight>0.00</geoidheight><course>129.5</course><type>1</type></trkpt>
      <trkpt lat="42.92914975" lon="-2.24581583"><ele>935</ele><speed>12.84</speed><time>2017-03-19T15:29:08Z</time><pdop>3.0</pdop><geoidheight>0.00</geoidheight><course>108.1</course><type>1</type></trkpt>
      <trkpt lat="42.92915504" lon="-2.24568559"><ele>936</ele><speed>10.62</speed><time>2017-03-19T15:29:09Z</time><pdop>3.0</pdop><geoidheight>0.00</geoidheight><course>88.0</course><type>1</type></trkpt>
      <trkpt lat="42.92917678" lon="-2.24559733"><ele>938</ele><speed>7.72</speed><time>2017-03-19T15:29:10Z</time><pdop>3.0</pdop><geoidheight>0.00</geoidheight><course>73.8</course><type>1</type></trkpt>
      <trkpt lat="42.9291927" lon="-2.2454873"><ele>942</ele><speed>4.53</speed><time>2017-03-19T15:29:12Z</time><pdop>3.0</pdop><geoidheight>0.00</geoidheight><course>83.7</course><type>1</type></trkpt>
      <trkpt lat="42.92918234" lon="-2.24533823"><ele>943</ele><speed>6.07</speed><time>2017-03-19T15:29:14Z</time><pdop>3.0</pdop><geoidheight>0.00</geoidheight><course>95.8</course><type>1</type></trkpt>
      <trkpt lat="42.92917442" lon="-2.24525326"><ele>943</ele><speed>6.34</speed><time>2017-03-19T15:29:15Z</time><pdop>3.0</pdop><geoidheight>0.00</geoidheight><course>97.9</course><type>1</type></trkpt>
      <trkpt lat="42.92916198" lon="-2.24517611"><ele>943</ele><speed>6.63</speed><time>2017-03-19T15:29:16Z</time><pdop>3.0</pdop><geoidheight>0.00</geoidheight><course>97.8</course><type>1</type></trkpt>
      <trkpt lat="42.92915231" lon="-2.24509106"><ele>943</ele><speed>7.16</speed><time>2017-03-19T15:29:17Z</time><pdop>3.0</pdop><geoidheight>0.00</geoidheight><course>98.2</course><type>1</type></trkpt>
      <trkpt lat="42.92913965" lon="-2.24499367"><ele>943</ele><speed>8.18</speed><time>2017-03-19T15:29:18Z</time><pdop>3.0</pdop><geoidheight>0.00</geoidheight><course>99.7</course><type>1</type></trkpt>
      <trkpt lat="42.92912115" lon="-2.24488475"><ele>943</ele><speed>9.03</speed><time>2017-03-19T15:29:19Z</time><pdop>3.0</pdop><geoidheight>0.00</geoidheight><course>102.1</course><type>1</type></trkpt>
      <trkpt lat="42.92910131" lon="-2.24477557"><ele>942</ele><speed>9.15</speed><time>2017-03-19T15:29:20Z</time><pdop>3.0</pdop><geoidheight>0.00</geoidheight><course>102.8</course><type>1</type></trkpt>
      <trkpt lat="42.92907895" lon="-2.24467374"><ele>942</ele><speed>8.97</speed><time>2017-03-19T15:29:21Z</time><pdop>3.0</pdop><geoidheight>0.00</geoidheight><course>104.9</course><type>1</type></trkpt>
      <trkpt lat="42.92906051" lon="-2.24456338"><ele>942</ele><speed>9.22</speed><time>2017-03-19T15:29:22Z</time><pdop>3.0</pdop><geoidheight>0.00</geoidheight><course>102.8</course><type>1</type></trkpt>
      <trkpt lat="42.92904465" lon="-2.24444703"><ele>941</ele><speed>9.96</speed><time>2017-03-19T15:29:23Z</time><pdop>3.0</pdop><geoidheight>0.00</geoidheight><course>100.5</course><type>1</type></trkpt>
      <trkpt lat="42.92902787" lon="-2.24432136"><ele>941</ele><speed>10.12</speed><time>2017-03-19T15:29:24Z</time><pdop>3.0</pdop><geoidheight>0.00</geoidheight><course>101.4</course><type>1</type></trkpt>
      <trkpt lat="42.92900483" lon="-2.24420688"><ele>941</ele><speed>9.80</speed><time>2017-03-19T15:29:25Z</time><pdop>3.0</pdop><geoidheight>0.00</geoidheight><course>104.3</course><type>1</type></trkpt>
      <trkpt lat="42.92897779" lon="-2.24408842"><ele>942</ele><speed>9.89</speed><time>2017-03-19T15:29:26Z</time><pdop>3.0</pdop><geoidheight>0.00</geoidheight><course>108.3</course><type>1</type></trkpt>
      <trkpt lat="42.92894164" lon="-2.24397316"><ele>943</ele><speed>9.88</speed><time>2017-03-19T15:29:27Z</time><pdop>3.0</pdop><geoidheight>0.00</geoidheight><course>113.3</course><type>1</type></trkpt>
      <trkpt lat="42.92890343" lon="-2.24386103"><ele>944</ele><speed>10.23</speed><time>2017-03-19T15:29:28Z</time><pdop>3.0</pdop><geoidheight>0.00</geoidheight><course>115.9</course><type>1</type></trkpt>
      <trkpt lat="42.92886213" lon="-2.24375359"><ele>945</ele><speed>10.07</speed><time>2017-03-19T15:29:29Z</time><pdop>3.0</pdop><geoidheight>0.00</geoidheight><course>119.2</course><type>1</type></trkpt>
      <trkpt lat="42.92882283" lon="-2.24365256"><ele>946</ele><speed>9.72</speed><time>2017-03-19T15:29:30Z</time><pdop>3.0</pdop><geoidheight>0.00</geoidheight><course>120.1</course><type>1</type></trkpt>
      <trkpt lat="42.92878004" lon="-2.24354688"><ele>946</ele><speed>9.95</speed><time>2017-03-19T15:29:31Z</time><pdop>3.0</pdop><geoidheight>0.00</geoidheight><course>117.9</course><type>1</type></trkpt>
      <trkpt lat="42.92874045" lon="-2.24342707"><ele>945</ele><speed>10.44</speed><time>2017-03-19T15:29:32Z</time><pdop>3.0</pdop><geoidheight>0.00</geoidheight><course>113.4</course><type>1</type></trkpt>
      <trkpt lat="42.92870533" lon="-2.24330788"><ele>945</ele><speed>10.40</speed><time>2017-03-19T15:29:33Z</time><pdop>3.0</pdop><geoidheight>0.00</geoidheight><course>111.5</course><type>1</type></trkpt>
      <trkpt lat="42.92867317" lon="-2.24318324"><ele>945</ele><speed>10.69</speed><time>2017-03-19T15:29:34Z</time><pdop>3.0</pdop><geoidheight>0.00</geoidheight><course>109.8</course><type>1</type></trkpt>
      <trkpt lat="42.92863918" lon="-2.24305558"><ele>946</ele><speed>11.08</speed><time>2017-03-19T15:29:35Z</time><pdop>3.0</pdop><geoidheight>0.00</geoidheight><course>109.6</course><type>1</type></trkpt>
      <trkpt lat="42.92860255" lon="-2.24293443"><ele>946</ele><speed>10.79</speed><time>2017-03-19T15:29:36Z</time><pdop>3.0</pdop><geoidheight>0.00</geoidheight><course>111.3</course><type>1</type></trkpt>
      <trkpt lat="42.92856745" lon="-2.24281402"><ele>945</ele><speed>10.51</speed><time>2017-03-19T15:29:37Z</time><pdop>3.0</pdop><geoidheight>0.00</geoidheight><course>110.1</course><type>1</type></trkpt>
      <trkpt lat="42.92853637" lon="-2.24268922"><ele>944</ele><speed>10.60</speed><time>2017-03-19T15:29:38Z</time><pdop>3.0</pdop><geoidheight>0.00</geoidheight><course>107.0</course><type>1</type></trkpt>
      <trkpt lat="42.92851929" lon="-2.24254904"><ele>942</ele><speed>11.32</speed><time>2017-03-19T15:29:39Z</time><pdop>3.0</pdop><geoidheight>0.00</geoidheight><course>98.9</course><type>1</type></trkpt>
      <trkpt lat="42.92851322" lon="-2.24239563"><ele>940</ele><speed>12.26</speed><time>2017-03-19T15:29:40Z</time><pdop>3.0</pdop><geoidheight>0.00</geoidheight><course>95.5</course><type>1</type></trkpt>
      <trkpt lat="42.92849902" lon="-2.24224555"><ele>941</ele><speed>12.63</speed><time>2017-03-19T15:29:41Z</time><pdop>3.0</pdop><geoidheight>0.00</geoidheight><course>97.1</course><type>1</type></trkpt>
      <trkpt lat="42.92846997" lon="-2.24210988"><ele>943</ele><speed>11.99</speed><time>2017-03-19T15:29:42Z</time><pdop>3.0</pdop><geoidheight>0.00</geoidheight><course>105.6</course><type>1</type></trkpt>
      <trkpt lat="42.92842248" lon="-2.24199435"><ele>943</ele><speed>10.77</speed><time>2017-03-19T15:29:43Z</time><pdop>3.0</pdop><geoidheight>0.00</geoidheight><course>118.3</course><type>1</type></trkpt>
      <trkpt lat="42.92837372" lon="-2.24188606"><ele>943</ele><speed>10.52</speed><time>2017-03-19T15:29:44Z</time><pdop>3.0</pdop><geoidheight>0.00</geoidheight><course>124.5</course><type>1</type></trkpt>
      <trkpt lat="42.92832608" lon="-2.24176915"><ele>942</ele><speed>11.02</speed><time>2017-03-19T15:29:45Z</time><pdop>3.0</pdop><geoidheight>0.00</geoidheight><course>120.3</course><type>1</type></trkpt>
      <trkpt lat="42.92829035" lon="-2.24164167"><ele>941</ele><speed>11.38</speed><time>2017-03-19T15:29:46Z</time><pdop>3.0</pdop><geoidheight>0.00</geoidheight><course>112.7</course><type>1</type></trkpt>
      <trkpt lat="42.92825829" lon="-2.24149953"><ele>940</ele><speed>11.75</speed><time>2017-03-19T15:29:47Z</time><pdop>3.0</pdop><geoidheight>0.00</geoidheight><course>107.8</course><type>1</type></trkpt>
      <trkpt lat="42.92822764" lon="-2.24136195"><ele>939</ele><speed>11.64</speed><time>2017-03-19T15:29:48Z</time><pdop>3.0</pdop><geoidheight>0.00</geoidheight><course>108.2</course><type>1</type></trkpt>
      <trkpt lat="42.92819286" lon="-2.24123439"><ele>939</ele><speed>11.31</speed><time>2017-03-19T15:29:49Z</time><pdop>3.0</pdop><geoidheight>0.00</geoidheight><course>111.4</course><type>1</type></trkpt>
      <trkpt lat="42.9281518" lon="-2.24110534"><ele>938</ele><speed>11.32</speed><time>2017-03-19T15:29:50Z</time><pdop>3.0</pdop><geoidheight>0.00</geoidheight><course>114.1</course><type>1</type></trkpt>
      <trkpt lat="42.9281098" lon="-2.24096963"><ele>937</ele><speed>11.99</speed><time>2017-03-19T15:29:51Z</time><pdop>3.0</pdop><geoidheight>0.00</geoidheight><course>115.2</course><type>1</type></trkpt>
      <trkpt lat="42.92805862" lon="-2.24082956"><ele>936</ele><speed>12.48</speed><time>2017-03-19T15:29:52Z</time><pdop>3.0</pdop><geoidheight>0.00</geoidheight><course>116.6</course><type>1</type></trkpt>
      <trkpt lat="42.92800805" lon="-2.24069065"><ele>935</ele><speed>12.68</speed><time>2017-03-19T15:29:53Z</time><pdop>3.0</pdop><geoidheight>0.00</geoidheight><course>117.2</course><type>1</type></trkpt>
      <trkpt lat="42.92795506" lon="-2.24055102"><ele>934</ele><speed>12.49</speed><time>2017-03-19T15:29:54Z</time><pdop>3.0</pdop><geoidheight>0.00</geoidheight><course>117.4</course><type>1</type></trkpt>
      <trkpt lat="42.92790255" lon="-2.24041889"><ele>933</ele><speed>12.43</speed><time>2017-03-19T15:29:55Z</time><pdop>3.0</pdop><geoidheight>0.00</geoidheight><course>117.5</course><type>1</type></trkpt>
      <trkpt lat="42.92784995" lon="-2.24028757"><ele>932</ele><speed>12.54</speed><time>2017-03-19T15:29:56Z</time><pdop>3.0</pdop><geoidheight>0.00</geoidheight><course>119.1</course><type>1</type></trkpt>
      <trkpt lat="42.92779254" lon="-2.24015209"><ele>931</ele><speed>12.70</speed><time>2017-03-19T15:29:57Z</time><pdop>3.0</pdop><geoidheight>0.00</geoidheight><course>120.4</course><type>1</type></trkpt>
      <trkpt lat="42.92773154" lon="-2.24001796"><ele>930</ele><speed>12.75</speed><time>2017-03-19T15:29:58Z</time><pdop>3.0</pdop><geoidheight>0.00</geoidheight><course>121.8</course><type>1</type></trkpt>
      <trkpt lat="42.92766981" lon="-2.23989211"><ele>929</ele><speed>12.62</speed><time>2017-03-19T15:29:59Z</time><pdop>3.0</pdop><geoidheight>0.00</geoidheight><course>123.1</course><type>1</type></trkpt>
      <trkpt lat="42.92760675" lon="-2.23977046"><ele>929</ele><speed>12.20</speed><time>2017-03-19T15:30:00Z</time><pdop>3.0</pdop><geoidheight>0.00</geoidheight><course>125.0</course><type>1</type></trkpt>
      <trkpt lat="42.92754195" lon="-2.23964061"><ele>927</ele><speed>12.80</speed><time>2017-03-19T15:30:01Z</time><pdop>3.0</pdop><geoidheight>0.00</geoidheight><course>125.3</course><type>1</type></trkpt>
      <trkpt lat="42.92746672" lon="-2.23951054"><ele>925</ele><speed>13.24</speed><time>2017-03-19T15:30:02Z</time><pdop>3.0</pdop><geoidheight>0.00</geoidheight><course>127.0</course><type>1</type></trkpt>
      <trkpt lat="42.92739495" lon="-2.23937757"><ele>923</ele><speed>13.56</speed><time>2017-03-19T15:30:03Z</time><pdop>3.0</pdop><geoidheight>0.00</geoidheight><course>127.6</course><type>1</type></trkpt>
      <trkpt lat="42.92732849" lon="-2.23923775"><ele>922</ele><speed>13.68</speed><time>2017-03-19T15:30:04Z</time><pdop>3.0</pdop><geoidheight>0.00</geoidheight><course>125.8</course><type>1</type></trkpt>
      <trkpt lat="42.9272553" lon="-2.2390988"><ele>920</ele><speed>13.66</speed><time>2017-03-19T15:30:05Z</time><pdop>3.0</pdop><geoidheight>0.00</geoidheight><course>123.2</course><type>1</type></trkpt>
      <trkpt lat="42.92718891" lon="-2.23896078"><ele>919</ele><speed>13.45</speed><time>2017-03-19T15:30:06Z</time><pdop>3.0</pdop><geoidheight>0.00</geoidheight><course>122.1</course><type>1</type></trkpt>
      <trkpt lat="42.92712737" lon="-2.23882702"><ele>917</ele><speed>13.16</speed><time>2017-03-19T15:30:07Z</time><pdop>3.0</pdop><geoidheight>0.00</geoidheight><course>121.9</course><type>1</type></trkpt>
      <trkpt lat="42.92706245" lon="-2.23869152"><ele>916</ele><speed>13.27</speed><time>2017-03-19T15:30:08Z</time><pdop>3.0</pdop><geoidheight>0.00</geoidheight><course>121.3</course><type>1</type></trkpt>
      <trkpt lat="42.92699962" lon="-2.23855522"><ele>913</ele><speed>13.05</speed><time>2017-03-19T15:30:09Z</time><pdop>3.0</pdop><geoidheight>0.00</geoidheight><course>121.4</course><type>1</type></trkpt>
      <trkpt lat="42.92694325" lon="-2.2384167"><ele>910</ele><speed>13.02</speed><time>2017-03-19T15:30:10Z</time><pdop>3.0</pdop><geoidheight>0.00</geoidheight><course>118.8</course><type>1</type></trkpt>
      <trkpt lat="42.92689224" lon="-2.23826895"><ele>908</ele><speed>12.98</speed><time>2017-03-19T15:30:11Z</time><pdop>3.0</pdop><geoidheight>0.00</geoidheight><course>114.9</course><type>1</type></trkpt>
      <trkpt lat="42.92684887" lon="-2.23811675"><ele>906</ele><speed>13.05</speed><time>2017-03-19T15:30:12Z</time><pdop>3.0</pdop><geoidheight>0.00</geoidheight><course>112.3</course><type>1</type></trkpt>
      <trkpt lat="42.92680249" lon="-2.23796691"><ele>905</ele><speed>13.23</speed><time>2017-03-19T15:30:13Z</time><pdop>3.0</pdop><geoidheight>0.00</geoidheight><course>112.3</course><type>1</type></trkpt>
      <trkpt lat="42.92675425" lon="-2.2378194"><ele>903</ele><speed>13.11</speed><time>2017-03-19T15:30:14Z</time><pdop>3.0</pdop><geoidheight>0.00</geoidheight><course>113.4</course><type>1</type></trkpt>
      <trkpt lat="42.92670674" lon="-2.23768026"><ele>901</ele><speed>12.85</speed><time>2017-03-19T15:30:15Z</time><pdop>3.0</pdop><geoidheight>0.00</geoidheight><course>114.3</course><type>1</type></trkpt>
      <trkpt lat="42.92665909" lon="-2.23753592"><ele>899</ele><speed>12.74</speed><time>2017-03-19T15:30:16Z</time><pdop>3.0</pdop><geoidheight>0.00</geoidheight><course>114.5</course><type>1</type></trkpt>
      <trkpt lat="42.92661171" lon="-2.23739002"><ele>897</ele><speed>12.60</speed><time>2017-03-19T15:30:17Z</time><pdop>3.0</pdop><geoidheight>0.00</geoidheight><course>113.9</course><type>1</type></trkpt>
      <trkpt lat="42.92656713" lon="-2.23724526"><ele>895</ele><speed>12.85</speed><time>2017-03-19T15:30:18Z</time><pdop>3.0</pdop><geoidheight>0.00</geoidheight><course>112.4</course><type>1</type></trkpt>
      <trkpt lat="42.92652351" lon="-2.23709257"><ele>893</ele><speed>13.26</speed><time>2017-03-19T15:30:19Z</time><pdop>3.0</pdop><geoidheight>0.00</geoidheight><course>111.9</course><type>1</type></trkpt>
      <trkpt lat="42.92647678" lon="-2.23694531"><ele>892</ele><speed>13.17</speed><time>2017-03-19T15:30:20Z</time><pdop>3.0</pdop><geoidheight>0.00</geoidheight><course>112.7</course><type>1</type></trkpt>
      <trkpt lat="42.92643075" lon="-2.23679717"><ele>891</ele><speed>12.81</speed><time>2017-03-19T15:30:21Z</time><pdop>3.0</pdop><geoidheight>0.00</geoidheight><course>113.6</course><type>1</type></trkpt>
      <trkpt lat="42.92638663" lon="-2.23666157"><ele>889</ele><speed>12.33</speed><time>2017-03-19T15:30:22Z</time><pdop>3.0</pdop><geoidheight>0.00</geoidheight><course>113.3</course><type>1</type></trkpt>
      <trkpt lat="42.92634391" lon="-2.23652583"><ele>887</ele><speed>12.21</speed><time>2017-03-19T15:30:23Z</time><pdop>3.0</pdop><geoidheight>0.00</geoidheight><course>112.3</course><type>1</type></trkpt>
      <trkpt lat="42.92630715" lon="-2.23638279"><ele>887</ele><speed>12.35</speed><time>2017-03-19T15:30:24Z</time><pdop>3.0</pdop><geoidheight>0.00</geoidheight><course>110.1</course><type>1</type></trkpt>
      <trkpt lat="42.92626478" lon="-2.23623134"><ele>884</ele><speed>12.99</speed><time>2017-03-19T15:30:25Z</time><pdop>3.0</pdop><geoidheight>0.00</geoidheight><course>110.4</course><type>1</type></trkpt>
      <trkpt lat="42.92622203" lon="-2.23608128"><ele>883</ele><speed>13.14</speed><time>2017-03-19T15:30:26Z</time><pdop>3.0</pdop><geoidheight>0.00</geoidheight><course>110.3</course><type>1</type></trkpt>
      <trkpt lat="42.9261817" lon="-2.23593228"><ele>882</ele><speed>12.84</speed><time>2017-03-19T15:30:27Z</time><pdop>3.0</pdop><geoidheight>0.00</geoidheight><course>110.0</course><type>1</type></trkpt>
      <trkpt lat="42.92614354" lon="-2.23579602"><ele>881</ele><speed>12.27</speed><time>2017-03-19T15:30:28Z</time><pdop>3.0</pdop><geoidheight>0.00</geoidheight><course>110.1</course><type>1</type></trkpt>
      <trkpt lat="42.92610273" lon="-2.23565498"><ele>879</ele><speed>12.30</speed><time>2017-03-19T15:30:29Z</time><pdop>3.0</pdop><geoidheight>0.00</geoidheight><course>112.1</course><type>1</type></trkpt>
      <trkpt lat="42.92605627" lon="-2.23550864"><ele>877</ele><speed>12.95</speed><time>2017-03-19T15:30:30Z</time><pdop>3.0</pdop><geoidheight>0.00</geoidheight><course>113.0</course><type>1</type></trkpt>
      <trkpt lat="42.92600958" lon="-2.23535325"><ele>875</ele><speed>13.63</speed><time>2017-03-19T15:30:31Z</time><pdop>3.0</pdop><geoidheight>0.00</geoidheight><course>112.9</course><type>1</type></trkpt>
      <trkpt lat="42.92596047" lon="-2.23519458"><ele>874</ele><speed>13.77</speed><time>2017-03-19T15:30:32Z</time><pdop>3.0</pdop><geoidheight>0.00</geoidheight><course>113.0</course><type>1</type></trkpt>
      <trkpt lat="42.92591032" lon="-2.23504632"><ele>873</ele><speed>13.28</speed><time>2017-03-19T15:30:33Z</time><pdop>3.0</pdop><geoidheight>0.00</geoidheight><course>114.2</course><type>1</type></trkpt>
      <trkpt lat="42.92586147" lon="-2.23491237"><ele>872</ele><speed>12.68</speed><time>2017-03-19T15:30:34Z</time><pdop>3.0</pdop><geoidheight>0.00</geoidheight><course>115.2</course><type>1</type></trkpt>
      <trkpt lat="42.92581533" lon="-2.23477399"><ele>871</ele><speed>12.44</speed><time>2017-03-19T15:30:35Z</time><pdop>3.0</pdop><geoidheight>0.00</geoidheight><course>114.6</course><type>1</type></trkpt>
      <trkpt lat="42.92577046" lon="-2.23463117"><ele>869</ele><speed>12.60</speed><time>2017-03-19T15:30:36Z</time><pdop>3.0</pdop><geoidheight>0.00</geoidheight><course>112.4</course><type>1</type></trkpt>
      <trkpt lat="42.92572789" lon="-2.23448928"><ele>867</ele><speed>12.85</speed><time>2017-03-19T15:30:37Z</time><pdop>3.0</pdop><geoidheight>0.00</geoidheight><course>111.4</course><type>1</type></trkpt>
      <trkpt lat="42.92568275" lon="-2.23434398"><ele>866</ele><speed>12.96</speed><time>2017-03-19T15:30:38Z</time><pdop>3.0</pdop><geoidheight>0.00</geoidheight><course>112.7</course><type>1</type></trkpt>
      <trkpt lat="42.92563245" lon="-2.2341994"><ele>865</ele><speed>12.78</speed><time>2017-03-19T15:30:39Z</time><pdop>3.0</pdop><geoidheight>0.00</geoidheight><course>115.2</course><type>1</type></trkpt>
      <trkpt lat="42.92558131" lon="-2.23406772"><ele>863</ele><speed>12.72</speed><time>2017-03-19T15:30:40Z</time><pdop>3.0</pdop><geoidheight>0.00</geoidheight><course>117.2</course><type>1</type></trkpt>
      <trkpt lat="42.92552474" lon="-2.23393578"><ele>863</ele><speed>12.29</speed><time>2017-03-19T15:30:41Z</time><pdop>3.0</pdop><geoidheight>0.00</geoidheight><course>119.6</course><type>1</type></trkpt>
      <trkpt lat="42.92546902" lon="-2.23381858"><ele>861</ele><speed>11.31</speed><time>2017-03-19T15:30:42Z</time><pdop>3.0</pdop><geoidheight>0.00</geoidheight><course>121.9</course><type>1</type></trkpt>
      <trkpt lat="42.9254164" lon="-2.23372127"><ele>860</ele><speed>10.06</speed><time>2017-03-19T15:30:43Z</time><pdop>3.0</pdop><geoidheight>0.00</geoidheight><course>126.5</course><type>1</type></trkpt>
      <trkpt lat="42.92536256" lon="-2.2336229"><ele>857</ele><speed>10.08</speed><time>2017-03-19T15:30:44Z</time><pdop>3.0</pdop><geoidheight>0.00</geoidheight><course>125.4</course><type>1</type></trkpt>
      <trkpt lat="42.92531327" lon="-2.23350179"><ele>853</ele><speed>11.22</speed><time>2017-03-19T15:30:45Z</time><pdop>3.0</pdop><geoidheight>0.00</geoidheight><course>121.2</course><type>1</type></trkpt>
      <trkpt lat="42.92526018" lon="-2.23336529"><ele>850</ele><speed>12.53</speed><time>2017-03-19T15:30:46Z</time><pdop>3.0</pdop><geoidheight>0.00</geoidheight><course>119.5</course><type>1</type></trkpt>
      <trkpt lat="42.92520007" lon="-2.23322484"><ele>848</ele><speed>13.30</speed><time>2017-03-19T15:30:47Z</time><pdop>3.0</pdop><geoidheight>0.00</geoidheight><course>119.7</course><type>1</type></trkpt>
      <trkpt lat="42.92514992" lon="-2.23309403"><ele>846</ele><speed>12.27</speed><time>2017-03-19T15:30:48Z</time><pdop>3.0</pdop><geoidheight>0.00</geoidheight><course>117.8</course><type>1</type></trkpt>
      <trkpt lat="42.92510941" lon="-2.23296723"><ele>843</ele><speed>11.32</speed><time>2017-03-19T15:30:49Z</time><pdop>3.0</pdop><geoidheight>0.00</geoidheight><course>113.0</course><type>1</type></trkpt>
      <trkpt lat="42.92508316" lon="-2.23283841"><ele>840</ele><speed>10.70</speed><time>2017-03-19T15:30:50Z</time><pdop>3.0</pdop><geoidheight>0.00</geoidheight><course>104.7</course><type>1</type></trkpt>
      <trkpt lat="42.92506609" lon="-2.23270357"><ele>837</ele><speed>11.07</speed><time>2017-03-19T15:30:51Z</time><pdop>3.0</pdop><geoidheight>0.00</geoidheight><course>99.0</course><type>1</type></trkpt>
      <trkpt lat="42.92505636" lon="-2.23257307"><ele>835</ele><speed>11.13</speed><time>2017-03-19T15:30:52Z</time><pdop>3.0</pdop><geoidheight>0.00</geoidheight><course>95.4</course><type>1</type></trkpt>
      <trkpt lat="42.92505355" lon="-2.23243432"><ele>834</ele><speed>11.34</speed><time>2017-03-19T15:30:53Z</time><pdop>3.0</pdop><geoidheight>0.00</geoidheight><course>91.3</course><type>1</type></trkpt>
      <trkpt lat="42.92505596" lon="-2.23230011"><ele>835</ele><speed>11.03</speed><time>2017-03-19T15:30:54Z</time><pdop>3.0</pdop><geoidheight>0.00</geoidheight><course>87.7</course><type>1</type></trkpt>
      <trkpt lat="42.92505096" lon="-2.23219529"><ele>835</ele><speed>8.93</speed><time>2017-03-19T15:30:55Z</time><pdop>3.0</pdop><geoidheight>0.00</geoidheight><course>90.1</course><type>1</type></trkpt>
      <trkpt lat="42.92504217" lon="-2.23210828"><ele>835</ele><speed>7.35</speed><time>2017-03-19T15:30:56Z</time><pdop>3.0</pdop><geoidheight>0.00</geoidheight><course>95.1</course><type>1</type></trkpt>
      <trkpt lat="42.92503523" lon="-2.23201794"><ele>834</ele><speed>7.21</speed><time>2017-03-19T15:30:57Z</time><pdop>3.0</pdop><geoidheight>0.00</geoidheight><course>95.9</course><type>1</type></trkpt>
      <trkpt lat="42.92502604" lon="-2.23193059"><ele>832</ele><speed>7.46</speed><time>2017-03-19T15:30:58Z</time><pdop>3.0</pdop><geoidheight>0.00</geoidheight><course>95.9</course><type>1</type></trkpt>
      <trkpt lat="42.92501894" lon="-2.23182952"><ele>829</ele><speed>8.31</speed><time>2017-03-19T15:30:59Z</time><pdop>3.0</pdop><geoidheight>0.00</geoidheight><course>95.5</course><type>1</type></trkpt>
      <trkpt lat="42.92501137" lon="-2.23172392"><ele>827</ele><speed>8.95</speed><time>2017-03-19T15:31:00Z</time><pdop>3.0</pdop><geoidheight>0.00</geoidheight><course>94.4</course><type>1</type></trkpt>
      <trkpt lat="42.9250117" lon="-2.23160941"><ele>825</ele><speed>9.50</speed><time>2017-03-19T15:31:01Z</time><pdop>3.0</pdop><geoidheight>0.00</geoidheight><course>91.5</course><type>1</type></trkpt>
      <trkpt lat="42.9250153" lon="-2.23148782"><ele>824</ele><speed>9.83</speed><time>2017-03-19T15:31:02Z</time><pdop>3.0</pdop><geoidheight>0.00</geoidheight><course>88.6</course><type>1</type></trkpt>
      <trkpt lat="42.9250131" lon="-2.23136694"><ele>823</ele><speed>9.88</speed><time>2017-03-19T15:31:03Z</time><pdop>3.0</pdop><geoidheight>0.00</geoidheight><course>89.7</course><type>1</type></trkpt>
      <trkpt lat="42.92500927" lon="-2.23124447"><ele>822</ele><speed>9.96</speed><time>2017-03-19T15:31:04Z</time><pdop>3.0</pdop><geoidheight>0.00</geoidheight><course>91.4</course><type>1</type></trkpt>
      <trkpt lat="42.92500726" lon="-2.23111811"><ele>821</ele><speed>10.35</speed><time>2017-03-19T15:31:05Z</time><pdop>3.0</pdop><geoidheight>0.00</geoidheight><course>91.5</course><type>1</type></trkpt>
      <trkpt lat="42.92500476" lon="-2.23098008"><ele>822</ele><speed>11.26</speed><time>2017-03-19T15:31:06Z</time><pdop>3.0</pdop><geoidheight>0.00</geoidheight><course>91.1</course><type>1</type></trkpt>
      <trkpt lat="42.925001" lon="-2.23084323"><ele>825</ele><speed>11.20</speed><time>2017-03-19T15:31:07Z</time><pdop>3.0</pdop><geoidheight>0.00</geoidheight><course>90.8</course><type>1</type></trkpt>
      <trkpt lat="42.92499796" lon="-2.23071842"><ele>828</ele><speed>9.80</speed><time>2017-03-19T15:31:08Z</time><pdop>3.0</pdop><geoidheight>0.00</geoidheight><course>93.6</course><type>1</type></trkpt>
      <trkpt lat="42.92498985" lon="-2.23062294"><ele>832</ele><speed>7.93</speed><time>2017-03-19T15:31:09Z</time><pdop>3.0</pdop><geoidheight>0.00</geoidheight><course>96.5</course><type>1</type></trkpt>
      <trkpt lat="42.92499583" lon="-2.23053628"><ele>832</ele><speed>6.46</speed><time>2017-03-19T15:31:10Z</time><pdop>3.0</pdop><geoidheight>0.00</geoidheight><course>92.0</course><type>1</type></trkpt>
      <trkpt lat="42.92501082" lon="-2.23045844"><ele>832</ele><speed>6.24</speed><time>2017-03-19T15:31:11Z</time><pdop>3.0</pdop><geoidheight>0.00</geoidheight><course>81.0</course><type>1</type></trkpt>
      <trkpt lat="42.92507899" lon="-2.23033284"><ele>833</ele><speed>6.41</speed><time>2017-03-19T15:31:13Z</time><pdop>3.0</pdop><geoidheight>0.00</geoidheight><course>51.6</course><type>1</type></trkpt>
      <trkpt lat="42.92512737" lon="-2.23029788"><ele>834</ele><speed>5.87</speed><time>2017-03-19T15:31:14Z</time><pdop>3.0</pdop><geoidheight>0.00</geoidheight><course>35.3</course><type>1</type></trkpt>
      <trkpt lat="42.92519862" lon="-2.23031499"><ele>835</ele><speed>3.84</speed><time>2017-03-19T15:31:16Z</time><pdop>3.0</pdop><geoidheight>0.00</geoidheight><course>332.7</course><type>1</type></trkpt>
      <trkpt lat="42.92523422" lon="-2.23041893"><ele>837</ele><speed>4.57</speed><time>2017-03-19T15:31:18Z</time><pdop>3.0</pdop><geoidheight>0.00</geoidheight><course>288.8</course><type>1</type></trkpt>
      <trkpt lat="42.92522232" lon="-2.23057367"><ele>837</ele><speed>6.99</speed><time>2017-03-19T15:31:20Z</time><pdop>3.0</pdop><geoidheight>0.00</geoidheight><course>257.2</course><type>1</type></trkpt>
      <trkpt lat="42.92518915" lon="-2.2306653"><ele>836</ele><speed>8.45</speed><time>2017-03-19T15:31:21Z</time><pdop>3.0</pdop><geoidheight>0.00</geoidheight><course>245.2</course><type>1</type></trkpt>
      <trkpt lat="42.9251331" lon="-2.23075769"><ele>836</ele><speed>9.63</speed><time>2017-03-19T15:31:22Z</time><pdop>3.0</pdop><geoidheight>0.00</geoidheight><course>232.1</course><type>1</type></trkpt>
      <trkpt lat="42.92505681" lon="-2.23081853"><ele>836</ele><speed>10.30</speed><time>2017-03-19T15:31:23Z</time><pdop>3.0</pdop><geoidheight>0.00</geoidheight><course>212.5</course><type>1</type></trkpt>
      <trkpt lat="42.92495494" lon="-2.23084239"><ele>835</ele><speed>11.32</speed><time>2017-03-19T15:31:24Z</time><pdop>3.0</pdop><geoidheight>0.00</geoidheight><course>190.1</course><type>1</type></trkpt>
      <trkpt lat="42.92484425" lon="-2.2308178"><ele>835</ele><speed>12.45</speed><time>2017-03-19T15:31:25Z</time><pdop>3.0</pdop><geoidheight>0.00</geoidheight><course>172.6</course><type>1</type></trkpt>
      <trkpt lat="42.92473762" lon="-2.2307576"><ele>835</ele><speed>12.78</speed><time>2017-03-19T15:31:26Z</time><pdop>3.0</pdop><geoidheight>0.00</geoidheight><course>159.4</course><type>1</type></trkpt>
      <trkpt lat="42.92465144" lon="-2.23066969"><ele>834</ele><speed>12.04</speed><time>2017-03-19T15:31:27Z</time><pdop>3.0</pdop><geoidheight>0.00</geoidheight><course>146.4</course><type>1</type></trkpt>
      <trkpt lat="42.9245844" lon="-2.23056465"><ele>832</ele><speed>11.60</speed><time>2017-03-19T15:31:28Z</time><pdop>3.0</pdop><geoidheight>0.00</geoidheight><course>132.4</course><type>1</type></trkpt>
      <trkpt lat="42.92453251" lon="-2.23043053"><ele>831</ele><speed>12.02</speed><time>2017-03-19T15:31:29Z</time><pdop>3.0</pdop><geoidheight>0.00</geoidheight><course>117.4</course><type>1</type></trkpt>
      <trkpt lat="42.92448399" lon="-2.23028406"><ele>830</ele><speed>12.97</speed><time>2017-03-19T15:31:30Z</time><pdop>3.0</pdop><geoidheight>0.00</geoidheight><course>113.3</course><type>1</type></trkpt>
      <trkpt lat="42.92445551" lon="-2.2301351"><ele>829</ele><speed>12.70</speed><time>2017-03-19T15:31:31Z</time><pdop>3.0</pdop><geoidheight>0.00</geoidheight><course>107.4</course><type>1</type></trkpt>
      <trkpt lat="42.92447553" lon="-2.22999928"><ele>833</ele><speed>11.04</speed><time>2017-03-19T15:31:32Z</time><pdop>3.0</pdop><geoidheight>0.00</geoidheight><course>89.4</course><type>1</type></trkpt>
      <trkpt lat="42.92449121" lon="-2.22988755"><ele>836</ele><speed>9.32</speed><time>2017-03-19T15:31:33Z</time><pdop>3.0</pdop><geoidheight>0.00</geoidheight><course>81.6</course><type>1</type></trkpt>
      <trkpt lat="42.92449496" lon="-2.22974503"><ele>839</ele><speed>6.24</speed><time>2017-03-19T15:31:35Z</time><pdop>3.0</pdop><geoidheight>0.00</geoidheight><course>86.2</course><type>1</type></trkpt>
      <trkpt lat="42.9245201" lon="-2.22966267"><ele>838</ele><speed>6.16</speed><time>2017-03-19T15:31:36Z</time><pdop>3.0</pdop><geoidheight>0.00</geoidheight><course>80.9</course><type>1</type></trkpt>
      <trkpt lat="42.92456173" lon="-2.22956031"><ele>838</ele><speed>8.36</speed><time>2017-03-19T15:31:37Z</time><pdop>3.0</pdop><geoidheight>0.00</geoidheight><course>65.0</course><type>1</type></trkpt>
      <trkpt lat="42.92461419" lon="-2.22948235"><ele>838</ele><speed>8.21</speed><time>2017-03-19T15:31:38Z</time><pdop>3.0</pdop><geoidheight>0.00</geoidheight><course>50.2</course><type>1</type></trkpt>
      <trkpt lat="42.92466681" lon="-2.22945666"><ele>842</ele><speed>5.91</speed><time>2017-03-19T15:31:39Z</time><pdop>3.0</pdop><geoidheight>0.00</geoidheight><course>20.7</course><type>1</type></trkpt>
      <trkpt lat="42.92469265" lon="-2.2295512"><ele>843</ele><speed>5.32</speed><time>2017-03-19T15:31:41Z</time><pdop>3.0</pdop><geoidheight>0.00</geoidheight><course>264.4</course><type>1</type></trkpt>
      <trkpt lat="42.92466215" lon="-2.22963543"><ele>842</ele><speed>6.80</speed><time>2017-03-19T15:31:42Z</time><pdop>3.0</pdop><geoidheight>0.00</geoidheight><course>242.8</course><type>1</type></trkpt>
      <trkpt lat="42.92467408" lon="-2.22971904"><ele>841</ele><speed>3.71</speed><time>2017-03-19T15:31:44Z</time><pdop>3.0</pdop><geoidheight>0.00</geoidheight><course>308.1</course><type>1</type></trkpt>
      <trkpt lat="42.92475911" lon="-2.22965372"><ele>842</ele><speed>6.24</speed><time>2017-03-19T15:31:46Z</time><pdop>3.0</pdop><geoidheight>0.00</geoidheight><course>31.8</course><type>1</type></trkpt>
      <trkpt lat="42.92479422" lon="-2.22950713"><ele>843</ele><speed>6.59</speed><time>2017-03-19T15:31:48Z</time><pdop>3.0</pdop><geoidheight>0.00</geoidheight><course>80.1</course><type>1</type></trkpt>
      <trkpt lat="42.92478971" lon="-2.2294031"><ele>844</ele><speed>8.25</speed><time>2017-03-19T15:31:49Z</time><pdop>3.0</pdop><geoidheight>0.00</geoidheight><course>91.7</course><type>1</type></trkpt>
      <trkpt lat="42.92478519" lon="-2.22929395"><ele>843</ele><speed>9.01</speed><time>2017-03-19T15:31:50Z</time><pdop>3.0</pdop><geoidheight>0.00</geoidheight><course>93.6</course><type>1</type></trkpt>
      <trkpt lat="42.92477764" lon="-2.2291846"><ele>843</ele><speed>8.87</speed><time>2017-03-19T15:31:51Z</time><pdop>3.0</pdop><geoidheight>0.00</geoidheight><course>93.6</course><type>1</type></trkpt>
      <trkpt lat="42.92477662" lon="-2.22908673"><ele>843</ele><speed>8.21</speed><time>2017-03-19T15:31:52Z</time><pdop>3.0</pdop><geoidheight>0.00</geoidheight><course>90.9</course><type>1</type></trkpt>
      <trkpt lat="42.92477128" lon="-2.22898395"><ele>842</ele><speed>8.32</speed><time>2017-03-19T15:31:53Z</time><pdop>3.0</pdop><geoidheight>0.00</geoidheight><course>92.4</course><type>1</type></trkpt>
      <trkpt lat="42.92476287" lon="-2.22888242"><ele>841</ele><speed>8.71</speed><time>2017-03-19T15:31:54Z</time><pdop>3.0</pdop><geoidheight>0.00</geoidheight><course>96.7</course><type>1</type></trkpt>
      <trkpt lat="42.92474562" lon="-2.22876994"><ele>840</ele><speed>9.66</speed><time>2017-03-19T15:31:55Z</time><pdop>3.0</pdop><geoidheight>0.00</geoidheight><course>101.3</course><type>1</type></trkpt>
      <trkpt lat="42.9247295" lon="-2.22866338"><ele>838</ele><speed>9.16</speed><time>2017-03-19T15:31:56Z</time><pdop>3.0</pdop><geoidheight>0.00</geoidheight><course>103.3</course><type>1</type></trkpt>
      <trkpt lat="42.92470893" lon="-2.22852982"><ele>837</ele><speed>10.47</speed><time>2017-03-19T15:31:57Z</time><pdop>3.0</pdop><geoidheight>0.00</geoidheight><course>101.0</course><type>1</type></trkpt>
      <trkpt lat="42.92468233" lon="-2.22841358"><ele>836</ele><speed>9.85</speed><time>2017-03-19T15:31:58Z</time><pdop>3.0</pdop><geoidheight>0.00</geoidheight><course>103.9</course><type>1</type></trkpt>
      <trkpt lat="42.92465773" lon="-2.22829736"><ele>836</ele><speed>9.67</speed><time>2017-03-19T15:31:59Z</time><pdop>3.0</pdop><geoidheight>0.00</geoidheight><course>108.0</course><type>1</type></trkpt>
      <trkpt lat="42.92462583" lon="-2.22818375"><ele>834</ele><speed>10.05</speed><time>2017-03-19T15:32:00Z</time><pdop>3.0</pdop><geoidheight>0.00</geoidheight><course>110.8</course><type>1</type></trkpt>
      <trkpt lat="42.92459247" lon="-2.22805208"><ele>833</ele><speed>10.74</speed><time>2017-03-19T15:32:01Z</time><pdop>3.0</pdop><geoidheight>0.00</geoidheight><course>109.2</course><type>1</type></trkpt>
      <trkpt lat="42.92456379" lon="-2.22792267"><ele>831</ele><speed>10.85</speed><time>2017-03-19T15:32:02Z</time><pdop>3.0</pdop><geoidheight>0.00</geoidheight><course>105.2</course><type>1</type></trkpt>
      <trkpt lat="42.92454838" lon="-2.22780211"><ele>831</ele><speed>10.25</speed><time>2017-03-19T15:32:03Z</time><pdop>3.0</pdop><geoidheight>0.00</geoidheight><course>101.3</course><type>1</type></trkpt>
      <trkpt lat="42.92453503" lon="-2.22769041"><ele>830</ele><speed>9.33</speed><time>2017-03-19T15:32:04Z</time><pdop>3.0</pdop><geoidheight>0.00</geoidheight><course>99.7</course><type>1</type></trkpt>
      <trkpt lat="42.92451945" lon="-2.22759021"><ele>829</ele><speed>8.88</speed><time>2017-03-19T15:32:05Z</time><pdop>3.0</pdop><geoidheight>0.00</geoidheight><course>99.5</course><type>1</type></trkpt>
      <trkpt lat="42.92450555" lon="-2.22748548"><ele>828</ele><speed>9.03</speed><time>2017-03-19T15:32:06Z</time><pdop>3.0</pdop><geoidheight>0.00</geoidheight><course>98.7</course><type>1</type></trkpt>
      <trkpt lat="42.9244877" lon="-2.22738708"><ele>826</ele><speed>8.75</speed><time>2017-03-19T15:32:07Z</time><pdop>3.0</pdop><geoidheight>0.00</geoidheight><course>101.2</course><type>1</type></trkpt>
      <trkpt lat="42.9244716" lon="-2.22728003"><ele>823</ele><speed>8.68</speed><time>2017-03-19T15:32:08Z</time><pdop>3.0</pdop><geoidheight>0.00</geoidheight><course>100.3</course><type>1</type></trkpt>
      <trkpt lat="42.92446958" lon="-2.22716626"><ele>821</ele><speed>9.08</speed><time>2017-03-19T15:32:09Z</time><pdop>3.0</pdop><geoidheight>0.00</geoidheight><course>93.4</course><type>1</type></trkpt>
      <trkpt lat="42.92447598" lon="-2.22704674"><ele>819</ele><speed>9.63</speed><time>2017-03-19T15:32:10Z</time><pdop>3.0</pdop><geoidheight>0.00</geoidheight><course>85.4</course><type>1</type></trkpt>
      <trkpt lat="42.9244864" lon="-2.22693605"><ele>818</ele><speed>9.31</speed><time>2017-03-19T15:32:11Z</time><pdop>3.0</pdop><geoidheight>0.00</geoidheight><course>83.8</course><type>1</type></trkpt>
      <trkpt lat="42.92449975" lon="-2.22682753"><ele>816</ele><speed>8.50</speed><time>2017-03-19T15:32:12Z</time><pdop>3.0</pdop><geoidheight>0.00</geoidheight><course>81.7</course><type>1</type></trkpt>
      <trkpt lat="42.92452047" lon="-2.22672171"><ele>815</ele><speed>8.80</speed><time>2017-03-19T15:32:13Z</time><pdop>3.0</pdop><geoidheight>0.00</geoidheight><course>75.8</course><type>1</type></trkpt>
      <trkpt lat="42.92454315" lon="-2.22661441"><ele>813</ele><speed>9.21</speed><time>2017-03-19T15:32:14Z</time><pdop>3.0</pdop><geoidheight>0.00</geoidheight><course>75.0</course><type>1</type></trkpt>
      <trkpt lat="42.92455333" lon="-2.22650188"><ele>813</ele><speed>8.91</speed><time>2017-03-19T15:32:15Z</time><pdop>3.0</pdop><geoidheight>0.00</geoidheight><course>81.6</course><type>1</type></trkpt>
      <trkpt lat="42.92455208" lon="-2.22639215"><ele>812</ele><speed>8.77</speed><time>2017-03-19T15:32:16Z</time><pdop>3.0</pdop><geoidheight>0.00</geoidheight><course>89.0</course><type>1</type></trkpt>
      <trkpt lat="42.92454985" lon="-2.2262801"><ele>810</ele><speed>9.17</speed><time>2017-03-19T15:32:17Z</time><pdop>3.0</pdop><geoidheight>0.00</geoidheight><course>90.8</course><type>1</type></trkpt>
      <trkpt lat="42.92454509" lon="-2.22615356"><ele>808</ele><speed>10.10</speed><time>2017-03-19T15:32:18Z</time><pdop>3.0</pdop><geoidheight>0.00</geoidheight><course>91.2</course><type>1</type></trkpt>
      <trkpt lat="42.92453875" lon="-2.22601345"><ele>807</ele><speed>11.44</speed><time>2017-03-19T15:32:19Z</time><pdop>3.0</pdop><geoidheight>0.00</geoidheight><course>93.7</course><type>1</type></trkpt>
      <trkpt lat="42.92451552" lon="-2.2258686"><ele>808</ele><speed>11.66</speed><time>2017-03-19T15:32:20Z</time><pdop>3.0</pdop><geoidheight>0.00</geoidheight><course>100.5</course><type>1</type></trkpt>
      <trkpt lat="42.92447939" lon="-2.22574414"><ele>808</ele><speed>10.93</speed><time>2017-03-19T15:32:21Z</time><pdop>3.0</pdop><geoidheight>0.00</geoidheight><course>109.4</course><type>1</type></trkpt>
      <trkpt lat="42.92444107" lon="-2.22562846"><ele>806</ele><speed>10.56</speed><time>2017-03-19T15:32:22Z</time><pdop>3.0</pdop><geoidheight>0.00</geoidheight><course>113.7</course><type>1</type></trkpt>
      <trkpt lat="42.92440954" lon="-2.2255019"><ele>804</ele><speed>10.89</speed><time>2017-03-19T15:32:23Z</time><pdop>3.0</pdop><geoidheight>0.00</geoidheight><course>109.1</course><type>1</type></trkpt>
      <trkpt lat="42.92438563" lon="-2.22535165"><ele>803</ele><speed>12.27</speed><time>2017-03-19T15:32:24Z</time><pdop>3.0</pdop><geoidheight>0.00</geoidheight><course>104.0</course><type>1</type></trkpt>
      <trkpt lat="42.92435973" lon="-2.22520303"><ele>801</ele><speed>12.91</speed><time>2017-03-19T15:32:25Z</time><pdop>3.0</pdop><geoidheight>0.00</geoidheight><course>103.4</course><type>1</type></trkpt>
      <trkpt lat="42.92434513" lon="-2.22500316"><ele>801</ele><speed>15.05</speed><time>2017-03-19T15:32:26Z</time><pdop>3.0</pdop><geoidheight>0.00</geoidheight><course>99.9</course><type>1</type></trkpt>
      <trkpt lat="42.92432658" lon="-2.22483415"><ele>801</ele><speed>14.30</speed><time>2017-03-19T15:32:27Z</time><pdop>3.0</pdop><geoidheight>0.00</geoidheight><course>98.1</course><type>1</type></trkpt>
      <trkpt lat="42.9242799" lon="-2.2247263"><ele>803</ele><speed>11.13</speed><time>2017-03-19T15:32:28Z</time><pdop>3.0</pdop><geoidheight>0.00</geoidheight><course>112.7</course><type>1</type></trkpt>
      <trkpt lat="42.92423914" lon="-2.2246223"><ele>803</ele><speed>9.92</speed><time>2017-03-19T15:32:29Z</time><pdop>3.0</pdop><geoidheight>0.00</geoidheight><course>118.9</course><type>1</type></trkpt>
      <trkpt lat="42.92420599" lon="-2.22450193"><ele>801</ele><speed>10.77</speed><time>2017-03-19T15:32:30Z</time><pdop>3.0</pdop><geoidheight>0.00</geoidheight><course>115.9</course><type>1</type></trkpt>
      <trkpt lat="42.92417897" lon="-2.22436488"><ele>797</ele><speed>12.14</speed><time>2017-03-19T15:32:31Z</time><pdop>3.0</pdop><geoidheight>0.00</geoidheight><course>107.6</course><type>1</type></trkpt>
      <trkpt lat="42.92414383" lon="-2.22419791"><ele>796</ele><speed>13.48</speed><time>2017-03-19T15:32:32Z</time><pdop>3.0</pdop><geoidheight>0.00</geoidheight><course>104.6</course><type>1</type></trkpt>
      <trkpt lat="42.92411036" lon="-2.22403424"><ele>795</ele><speed>13.94</speed><time>2017-03-19T15:32:33Z</time><pdop>3.0</pdop><geoidheight>0.00</geoidheight><course>105.1</course><type>1</type></trkpt>
      <trkpt lat="42.92407261" lon="-2.22387649"><ele>795</ele><speed>13.75</speed><time>2017-03-19T15:32:34Z</time><pdop>3.0</pdop><geoidheight>0.00</geoidheight><course>108.4</course><type>1</type></trkpt>
      <trkpt lat="42.92402731" lon="-2.22372913"><ele>796</ele><speed>13.05</speed><time>2017-03-19T15:32:35Z</time><pdop>3.0</pdop><geoidheight>0.00</geoidheight><course>112.4</course><type>1</type></trkpt>
      <trkpt lat="42.9239811" lon="-2.22360028"><ele>797</ele><speed>11.77</speed><time>2017-03-19T15:32:36Z</time><pdop>3.0</pdop><geoidheight>0.00</geoidheight><course>115.5</course><type>1</type></trkpt>
      <trkpt lat="42.92394366" lon="-2.22347737"><ele>797</ele><speed>11.19</speed><time>2017-03-19T15:32:37Z</time><pdop>3.0</pdop><geoidheight>0.00</geoidheight><course>115.9</course><type>1</type></trkpt>
      <trkpt lat="42.92390517" lon="-2.22335896"><ele>795</ele><speed>10.79</speed><time>2017-03-19T15:32:38Z</time><pdop>3.0</pdop><geoidheight>0.00</geoidheight><course>114.6</course><type>1</type></trkpt>
      <trkpt lat="42.92386473" lon="-2.22322385"><ele>794</ele><speed>11.58</speed><time>2017-03-19T15:32:39Z</time><pdop>3.0</pdop><geoidheight>0.00</geoidheight><course>113.3</course><type>1</type></trkpt>
      <trkpt lat="42.92381907" lon="-2.22307893"><ele>792</ele><speed>12.91</speed><time>2017-03-19T15:32:40Z</time><pdop>3.0</pdop><geoidheight>0.00</geoidheight><course>111.5</course><type>1</type></trkpt>
      <trkpt lat="42.92377676" lon="-2.22292008"><ele>791</ele><speed>13.39</speed><time>2017-03-19T15:32:41Z</time><pdop>3.0</pdop><geoidheight>0.00</geoidheight><course>110.9</course><type>1</type></trkpt>
      <trkpt lat="42.92373433" lon="-2.2227774"><ele>790</ele><speed>12.80</speed><time>2017-03-19T15:32:42Z</time><pdop>3.0</pdop><geoidheight>0.00</geoidheight><course>114.0</course><type>1</type></trkpt>
      <trkpt lat="42.92368285" lon="-2.22265065"><ele>789</ele><speed>11.53</speed><time>2017-03-19T15:32:43Z</time><pdop>3.0</pdop><geoidheight>0.00</geoidheight><course>120.4</course><type>1</type></trkpt>
      <trkpt lat="42.9236335" lon="-2.22254086"><ele>786</ele><speed>10.76</speed><time>2017-03-19T15:32:44Z</time><pdop>3.0</pdop><geoidheight>0.00</geoidheight><course>121.7</course><type>1</type></trkpt>
      <trkpt lat="42.92358527" lon="-2.22241569"><ele>782</ele><speed>11.51</speed><time>2017-03-19T15:32:45Z</time><pdop>3.0</pdop><geoidheight>0.00</geoidheight><course>116.8</course><type>1</type></trkpt>
      <trkpt lat="42.92353964" lon="-2.22227498"><ele>778</ele><speed>12.46</speed><time>2017-03-19T15:32:46Z</time><pdop>3.0</pdop><geoidheight>0.00</geoidheight><course>113.5</course><type>1</type></trkpt>
      <trkpt lat="42.9235053" lon="-2.22209996"><ele>775</ele><speed>13.56</speed><time>2017-03-19T15:32:47Z</time><pdop>3.0</pdop><geoidheight>0.00</geoidheight><course>107.8</course><type>1</type></trkpt>
      <trkpt lat="42.92347031" lon="-2.22195094"><ele>773</ele><speed>12.86</speed><time>2017-03-19T15:32:48Z</time><pdop>3.0</pdop><geoidheight>0.00</geoidheight><course>106.1</course><type>1</type></trkpt>
      <trkpt lat="42.92343679" lon="-2.22181663"><ele>773</ele><speed>12.07</speed><time>2017-03-19T15:32:49Z</time><pdop>3.0</pdop><geoidheight>0.00</geoidheight><course>105.4</course><type>1</type></trkpt>
      <trkpt lat="42.92340488" lon="-2.22170297"><ele>771</ele><speed>10.73</speed><time>2017-03-19T15:32:50Z</time><pdop>3.0</pdop><geoidheight>0.00</geoidheight><course>107.2</course><type>1</type></trkpt>
      <trkpt lat="42.92338428" lon="-2.22156886"><ele>769</ele><speed>10.67</speed><time>2017-03-19T15:32:51Z</time><pdop>3.0</pdop><geoidheight>0.00</geoidheight><course>104.6</course><type>1</type></trkpt>
      <trkpt lat="42.92335986" lon="-2.22143971"><ele>768</ele><speed>10.85</speed><time>2017-03-19T15:32:52Z</time><pdop>3.0</pdop><geoidheight>0.00</geoidheight><course>103.0</course><type>1</type></trkpt>
      <trkpt lat="42.92333958" lon="-2.22130177"><ele>766</ele><speed>11.49</speed><time>2017-03-19T15:32:53Z</time><pdop>3.0</pdop><geoidheight>0.00</geoidheight><course>101.1</course><type>1</type></trkpt>
      <trkpt lat="42.92332332" lon="-2.22116927"><ele>761</ele><speed>11.39</speed><time>2017-03-19T15:32:54Z</time><pdop>3.0</pdop><geoidheight>0.00</geoidheight><course>98.8</course><type>1</type></trkpt>
      <trkpt lat="42.92331278" lon="-2.22102855"><ele>760</ele><speed>11.24</speed><time>2017-03-19T15:32:55Z</time><pdop>3.0</pdop><geoidheight>0.00</geoidheight><course>97.8</course><type>1</type></trkpt>
      <trkpt lat="42.92330356" lon="-2.22089824"><ele>758</ele><speed>10.40</speed><time>2017-03-19T15:32:56Z</time><pdop>3.0</pdop><geoidheight>0.00</geoidheight><course>95.7</course><type>1</type></trkpt>
      <trkpt lat="42.92330323" lon="-2.22078244"><ele>756</ele><speed>9.20</speed><time>2017-03-19T15:32:57Z</time><pdop>3.0</pdop><geoidheight>0.00</geoidheight><course>93.6</course><type>1</type></trkpt>
      <trkpt lat="42.92329922" lon="-2.22068082"><ele>755</ele><speed>8.76</speed><time>2017-03-19T15:32:58Z</time><pdop>3.0</pdop><geoidheight>0.00</geoidheight><course>89.9</course><type>1</type></trkpt>
      <trkpt lat="42.92330557" lon="-2.22057188"><ele>752</ele><speed>8.86</speed><time>2017-03-19T15:32:59Z</time><pdop>3.0</pdop><geoidheight>0.00</geoidheight><course>86.8</course><type>1</type></trkpt>
      <trkpt lat="42.92330692" lon="-2.22045886"><ele>750</ele><speed>9.17</speed><time>2017-03-19T15:33:00Z</time><pdop>3.0</pdop><geoidheight>0.00</geoidheight><course>87.7</course><type>1</type></trkpt>
      <trkpt lat="42.92330385" lon="-2.22033571"><ele>749</ele><speed>10.02</speed><time>2017-03-19T15:33:01Z</time><pdop>3.0</pdop><geoidheight>0.00</geoidheight><course>90.9</course><type>1</type></trkpt>
      <trkpt lat="42.92330726" lon="-2.22021664"><ele>748</ele><speed>10.28</speed><time>2017-03-19T15:33:02Z</time><pdop>3.0</pdop><geoidheight>0.00</geoidheight><course>87.6</course><type>1</type></trkpt>
      <trkpt lat="42.92332661" lon="-2.22008545"><ele>747</ele><speed>10.50</speed><time>2017-03-19T15:33:03Z</time><pdop>3.0</pdop><geoidheight>0.00</geoidheight><course>84.6</course><type>1</type></trkpt>
      <trkpt lat="42.9233415" lon="-2.21996998"><ele>747</ele><speed>9.87</speed><time>2017-03-19T15:33:04Z</time><pdop>3.0</pdop><geoidheight>0.00</geoidheight><course>79.7</course><type>1</type></trkpt>
      <trkpt lat="42.9233611" lon="-2.21987514"><ele>745</ele><speed>8.64</speed><time>2017-03-19T15:33:05Z</time><pdop>3.0</pdop><geoidheight>0.00</geoidheight><course>75.4</course><type>1</type></trkpt>
      <trkpt lat="42.92337591" lon="-2.21978007"><ele>745</ele><speed>8.08</speed><time>2017-03-19T15:33:06Z</time><pdop>3.0</pdop><geoidheight>0.00</geoidheight><course>76.6</course><type>1</type></trkpt>
      <trkpt lat="42.92339245" lon="-2.21968157"><ele>744</ele><speed>8.08</speed><time>2017-03-19T15:33:07Z</time><pdop>3.0</pdop><geoidheight>0.00</geoidheight><course>79.7</course><type>1</type></trkpt>
      <trkpt lat="42.92339857" lon="-2.21957941"><ele>742</ele><speed>8.61</speed><time>2017-03-19T15:33:08Z</time><pdop>3.0</pdop><geoidheight>0.00</geoidheight><course>84.3</course><type>1</type></trkpt>
      <trkpt lat="42.92340357" lon="-2.21946951"><ele>741</ele><speed>9.19</speed><time>2017-03-19T15:33:09Z</time><pdop>3.0</pdop><geoidheight>0.00</geoidheight><course>85.6</course><type>1</type></trkpt>
      <trkpt lat="42.92340497" lon="-2.21935482"><ele>740</ele><speed>9.51</speed><time>2017-03-19T15:33:10Z</time><pdop>3.0</pdop><geoidheight>0.00</geoidheight><course>85.8</course><type>1</type></trkpt>
      <trkpt lat="42.92341199" lon="-2.21924969"><ele>739</ele><speed>9.14</speed><time>2017-03-19T15:33:11Z</time><pdop>3.0</pdop><geoidheight>0.00</geoidheight><course>84.8</course><type>1</type></trkpt>
      <trkpt lat="42.92341268" lon="-2.21914884"><ele>738</ele><speed>8.80</speed><time>2017-03-19T15:33:12Z</time><pdop>3.0</pdop><geoidheight>0.00</geoidheight><course>88.9</course><type>1</type></trkpt>
      <trkpt lat="42.9234033" lon="-2.21903373"><ele>737</ele><speed>9.71</speed><time>2017-03-19T15:33:13Z</time><pdop>3.0</pdop><geoidheight>0.00</geoidheight><course>96.9</course><type>1</type></trkpt>
      <trkpt lat="42.92340142" lon="-2.21890584"><ele>736</ele><speed>9.97</speed><time>2017-03-19T15:33:14Z</time><pdop>3.0</pdop><geoidheight>0.00</geoidheight><course>94.1</course><type>1</type></trkpt>
      <trkpt lat="42.9233799" lon="-2.21872947"><ele>733</ele><speed>12.41</speed><time>2017-03-19T15:33:15Z</time><pdop>3.0</pdop><geoidheight>0.00</geoidheight><course>96.7</course><type>1</type></trkpt>
      <trkpt lat="42.92337362" lon="-2.21858223"><ele>730</ele><speed>12.30</speed><time>2017-03-19T15:33:16Z</time><pdop>3.0</pdop><geoidheight>0.00</geoidheight><course>94.7</course><type>1</type></trkpt>
      <trkpt lat="42.92335576" lon="-2.21846442"><ele>728</ele><speed>11.34</speed><time>2017-03-19T15:33:17Z</time><pdop>3.0</pdop><geoidheight>0.00</geoidheight><course>97.5</course><type>1</type></trkpt>
      <trkpt lat="42.92330834" lon="-2.21834703"><ele>726</ele><speed>11.28</speed><time>2017-03-19T15:33:18Z</time><pdop>3.0</pdop><geoidheight>0.00</geoidheight><course>108.3</course><type>1</type></trkpt>
      <trkpt lat="42.92326489" lon="-2.21823081"><ele>723</ele><speed>11.04</speed><time>2017-03-19T15:33:19Z</time><pdop>3.0</pdop><geoidheight>0.00</geoidheight><course>113.9</course><type>1</type></trkpt>
      <trkpt lat="42.92323695" lon="-2.21813059"><ele>720</ele><speed>10.62</speed><time>2017-03-19T15:33:20Z</time><pdop>4.0</pdop><geoidheight>0.00</geoidheight><course>114.8</course><type>1</type></trkpt>
      <trkpt lat="42.92323678" lon="-2.21789307"><ele>717</ele><speed>14.58</speed><time>2017-03-19T15:33:21Z</time><pdop>4.0</pdop><geoidheight>0.00</geoidheight><course>101.3</course><type>1</type></trkpt>
      <trkpt lat="42.92322067" lon="-2.2177155"><ele>715</ele><speed>14.80</speed><time>2017-03-19T15:33:22Z</time><pdop>3.0</pdop><geoidheight>0.00</geoidheight><course>97.8</course><type>1</type></trkpt>
      <trkpt lat="42.92321029" lon="-2.21753685"><ele>715</ele><speed>14.28</speed><time>2017-03-19T15:33:23Z</time><pdop>4.0</pdop><geoidheight>0.00</geoidheight><course>93.8</course><type>1</type></trkpt>
      <trkpt lat="42.92319436" lon="-2.2174015"><ele>715</ele><speed>12.31</speed><time>2017-03-19T15:33:24Z</time><pdop>4.0</pdop><geoidheight>0.00</geoidheight><course>94.1</course><type>1</type></trkpt>
      <trkpt lat="42.92317929" lon="-2.21726451"><ele>714</ele><speed>11.69</speed><time>2017-03-19T15:33:25Z</time><pdop>3.0</pdop><geoidheight>0.00</geoidheight><course>94.0</course><type>1</type></trkpt>
      <trkpt lat="42.92318918" lon="-2.217103"><ele>711</ele><speed>12.23</speed><time>2017-03-19T15:33:26Z</time><pdop>3.0</pdop><geoidheight>0.00</geoidheight><course>88.6</course><type>1</type></trkpt>
      <trkpt lat="42.92321255" lon="-2.21693213"><ele>708</ele><speed>13.37</speed><time>2017-03-19T15:33:27Z</time><pdop>3.0</pdop><geoidheight>0.00</geoidheight><course>85.6</course><type>1</type></trkpt>
      <trkpt lat="42.92322317" lon="-2.21676161"><ele>707</ele><speed>13.74</speed><time>2017-03-19T15:33:28Z</time><pdop>4.0</pdop><geoidheight>0.00</geoidheight><course>85.4</course><type>1</type></trkpt>
      <trkpt lat="42.92322521" lon="-2.21659471"><ele>709</ele><speed>13.21</speed><time>2017-03-19T15:33:29Z</time><pdop>3.0</pdop><geoidheight>0.00</geoidheight><course>87.3</course><type>1</type></trkpt>
      <trkpt lat="42.923217" lon="-2.21644264"><ele>709</ele><speed>12.40</speed><time>2017-03-19T15:33:30Z</time><pdop>3.0</pdop><geoidheight>0.00</geoidheight><course>91.7</course><type>1</type></trkpt>
      <trkpt lat="42.92321405" lon="-2.21630122"><ele>707</ele><speed>11.81</speed><time>2017-03-19T15:33:31Z</time><pdop>3.0</pdop><geoidheight>0.00</geoidheight><course>95.5</course><type>1</type></trkpt>
      <trkpt lat="42.92320588" lon="-2.21616309"><ele>704</ele><speed>12.06</speed><time>2017-03-19T15:33:32Z</time><pdop>3.0</pdop><geoidheight>0.00</geoidheight><course>97.8</course><type>1</type></trkpt>
      <trkpt lat="42.92319157" lon="-2.21602043"><ele>700</ele><speed>12.09</speed><time>2017-03-19T15:33:33Z</time><pdop>3.0</pdop><geoidheight>0.00</geoidheight><course>97.6</course><type>1</type></trkpt>
      <trkpt lat="42.92319041" lon="-2.21586863"><ele>697</ele><speed>13.11</speed><time>2017-03-19T15:33:34Z</time><pdop>3.0</pdop><geoidheight>0.00</geoidheight><course>93.8</course><type>1</type></trkpt>
      <trkpt lat="42.9231916" lon="-2.21569047"><ele>695</ele><speed>14.40</speed><time>2017-03-19T15:33:35Z</time><pdop>3.0</pdop><geoidheight>0.00</geoidheight><course>90.5</course><type>1</type></trkpt>
      <trkpt lat="42.92318879" lon="-2.21551246"><ele>695</ele><speed>14.43</speed><time>2017-03-19T15:33:36Z</time><pdop>3.0</pdop><geoidheight>0.00</geoidheight><course>91.3</course><type>1</type></trkpt>
      <trkpt lat="42.92317998" lon="-2.21535604"><ele>695</ele><speed>13.00</speed><time>2017-03-19T15:33:37Z</time><pdop>3.0</pdop><geoidheight>0.00</geoidheight><course>93.3</course><type>1</type></trkpt>
      <trkpt lat="42.92317181" lon="-2.21522295"><ele>694</ele><speed>11.17</speed><time>2017-03-19T15:33:38Z</time><pdop>3.0</pdop><geoidheight>0.00</geoidheight><course>94.4</course><type>1</type></trkpt>
      <trkpt lat="42.92317383" lon="-2.21509579"><ele>692</ele><speed>10.41</speed><time>2017-03-19T15:33:39Z</time><pdop>3.0</pdop><geoidheight>0.00</geoidheight><course>90.0</course><type>1</type></trkpt>
      <trkpt lat="42.92317786" lon="-2.21496935"><ele>690</ele><speed>10.38</speed><time>2017-03-19T15:33:40Z</time><pdop>3.0</pdop><geoidheight>0.00</geoidheight><course>86.9</course><type>1</type></trkpt>
      <trkpt lat="42.92321391" lon="-2.2148585"><ele>688</ele><speed>9.67</speed><time>2017-03-19T15:33:41Z</time><pdop>3.0</pdop><geoidheight>0.00</geoidheight><course>71.6</course><type>1</type></trkpt>
      <trkpt lat="42.92324337" lon="-2.21477161"><ele>687</ele><speed>8.15</speed><time>2017-03-19T15:33:42Z</time><pdop>3.0</pdop><geoidheight>0.00</geoidheight><course>65.4</course><type>1</type></trkpt>
      <trkpt lat="42.92329386" lon="-2.21468975"><ele>687</ele><speed>7.62</speed><time>2017-03-19T15:33:43Z</time><pdop>3.0</pdop><geoidheight>0.00</geoidheight><course>58.8</course><type>1</type></trkpt>
      <trkpt lat="42.92338434" lon="-2.21464108"><ele>685</ele><speed>4.76</speed><time>2017-03-19T15:33:45Z</time><pdop>3.0</pdop><geoidheight>0.00</geoidheight><course>24.4</course><type>1</type></trkpt>
      <trkpt lat="42.92342519" lon="-2.21458309"><ele>683</ele><speed>3.62</speed><time>2017-03-19T15:33:47Z</time><pdop>3.0</pdop><geoidheight>0.00</geoidheight><course>49.9</course><type>1</type></trkpt>
      <trkpt lat="42.92352491" lon="-2.21449317"><ele>677</ele><speed>7.23</speed><time>2017-03-19T15:33:49Z</time><pdop>3.0</pdop><geoidheight>0.00</geoidheight><course>36.0</course><type>1</type></trkpt>
      <trkpt lat="42.92359479" lon="-2.21446286"><ele>676</ele><speed>7.62</speed><time>2017-03-19T15:33:50Z</time><pdop>3.0</pdop><geoidheight>0.00</geoidheight><course>22.2</course><type>1</type></trkpt>
      <trkpt lat="42.92365539" lon="-2.21446013"><ele>675</ele><speed>6.03</speed><time>2017-03-19T15:33:51Z</time><pdop>3.0</pdop><geoidheight>0.00</geoidheight><course>0.8</course><type>1</type></trkpt>
      <trkpt lat="42.9236681" lon="-2.21453241"><ele>670</ele><speed>3.23</speed><time>2017-03-19T15:33:53Z</time><pdop>3.0</pdop><geoidheight>0.00</geoidheight><course>241.7</course><type>1</type></trkpt>
      <trkpt lat="42.92360074" lon="-2.21460084"><ele>664</ele><speed>4.91</speed><time>2017-03-19T15:33:55Z</time><pdop>3.0</pdop><geoidheight>0.00</geoidheight><course>209.8</course><type>1</type></trkpt>
      <trkpt lat="42.92358993" lon="-2.21468613"><ele>659</ele><speed>2.67</speed><time>2017-03-19T15:33:58Z</time><pdop>3.0</pdop><geoidheight>0.00</geoidheight><course>289.5</course><type>1</type></trkpt>
      <trkpt lat="42.92364413" lon="-2.2147113"><ele>655</ele><speed>0.47</speed><time>2017-03-19T15:34:06Z</time><pdop>3.0</pdop><geoidheight>0.00</geoidheight><course>80.7</course><type>1</type></trkpt>
      <trkpt lat="42.92370881" lon="-2.21470441"><ele>650</ele><speed>2.39</speed><time>2017-03-19T15:34:10Z</time><pdop>3.0</pdop><geoidheight>0.00</geoidheight><course>342.7</course><type>1</type></trkpt>
      <trkpt lat="42.92372928" lon="-2.21477465"><ele>639</ele><speed>1.30</speed><time>2017-03-19T15:34:21Z</time><pdop>3.0</pdop><geoidheight>0.00</geoidheight><course>266.0</course><type>1</type></trkpt>
      <trkpt lat="42.92375343" lon="-2.21478995"><ele>634</ele><speed>0.00</speed><time>2017-03-19T15:35:21Z</time><pdop>3.0</pdop><geoidheight>0.00</geoidheight><course>0.0</course><type>1</type></trkpt>
      <trkpt lat="42.92375061" lon="-2.21479001"><ele>634</ele><speed>0.00</speed><time>2017-03-19T15:36:21Z</time><pdop>3.0</pdop><geoidheight>0.00</geoidheight><course>0.0</course><type>1</type></trkpt>
      <trkpt lat="42.92373436" lon="-2.214813"><ele>634</ele><speed>0.00</speed><time>2017-03-19T15:37:21Z</time><pdop>3.0</pdop><geoidheight>0.00</geoidheight><course>0.0</course><type>1</type></trkpt>
      <trkpt lat="42.92374414" lon="-2.21482818"><ele>630</ele><speed>0.00</speed><time>2017-03-19T15:38:21Z</time><pdop>3.0</pdop><geoidheight>0.00</geoidheight><course>0.0</course><type>1</type></trkpt>
      <trkpt lat="42.92373282" lon="-2.21487796"><ele>630</ele><speed>0.00</speed><time>2017-03-19T15:39:21Z</time><pdop>3.0</pdop><geoidheight>0.00</geoidheight><course>0.0</course><type>1</type></trkpt>
      <trkpt lat="42.92379639" lon="-2.21487819"><ele>628</ele><speed>0.41</speed><time>2017-03-19T15:39:38Z</time><pdop>4.0</pdop><geoidheight>0.00</geoidheight><course>29.0</course><type>1</type></trkpt>
      <trkpt lat="42.9238298" lon="-2.21480379"><ele>636</ele><speed>0.58</speed><time>2017-03-19T15:40:32Z</time><pdop>3.0</pdop><geoidheight>0.00</geoidheight><course>114.8</course><type>1</type></trkpt>
      <trkpt lat="42.92382324" lon="-2.21476225"><ele>637</ele><speed>0.00</speed><time>2017-03-19T15:41:32Z</time><pdop>3.0</pdop><geoidheight>0.00</geoidheight><course>0.0</course><type>1</type></trkpt>
      <trkpt lat="42.92382396" lon="-2.21476465"><ele>635</ele><speed>0.00</speed><time>2017-03-19T15:42:32Z</time><pdop>3.0</pdop><geoidheight>0.00</geoidheight><course>0.0</course><type>1</type></trkpt>
    </trkseg>
  </trk>
</gpx>